<?xml version="1.0" encoding="UTF-8" standalone="no" ?>
<gpx xmlns="http://www.topografix.com/GPX/1/1" xmlns:xsi="http://www.w3.org/2001/XMLSchema-instance" xsi:schemaLocation="http://www.topografix.com/GPX/1/1 http://www.topografix.com/GPX/1/1/gpx.xsd" version="1.1" creator="VisuGPX - https://www.visugpx.com">
  <metadata>
    <name>Le Chaos de Montpellier le vieux</name>
    <desc><![CDATA[Le Chaos de Montpellier le vieux]]></desc>
  </metadata>
  <trk>
    <name><![CDATA[Le Chaos de Montpellier le vieux_1]]></name>
    <trkseg>
      <trkpt lat="44.10669" lon="3.21777">
        <ele>709</ele>
        <time>2015-12-06T08:02:23Z</time>
      </trkpt>
      <trkpt lat="44.10668" lon="3.21778">
        <ele>708</ele>
        <time>2015-12-06T08:02:25Z</time>
      </trkpt>
      <trkpt lat="44.10668" lon="3.21778">
        <ele>708.5</ele>
        <time>2015-12-06T08:02:25Z</time>
      </trkpt>
      <trkpt lat="44.10667" lon="3.21777">
        <ele>710.5</ele>
        <time>2015-12-06T08:02:27Z</time>
      </trkpt>
      <trkpt lat="44.10666" lon="3.21777">
        <ele>711</ele>
        <time>2015-12-06T08:02:28Z</time>
      </trkpt>
      <trkpt lat="44.10665" lon="3.21776">
        <ele>711.5</ele>
        <time>2015-12-06T08:02:29Z</time>
      </trkpt>
      <trkpt lat="44.10669" lon="3.21779">
        <ele>711</ele>
        <time>2015-12-06T08:02:42Z</time>
      </trkpt>
      <trkpt lat="44.10669" lon="3.21779">
        <ele>711</ele>
        <time>2015-12-06T08:02:43Z</time>
      </trkpt>
      <trkpt lat="44.10668" lon="3.21779">
        <ele>711.5</ele>
        <time>2015-12-06T08:02:44Z</time>
      </trkpt>
      <trkpt lat="44.10668" lon="3.21779">
        <ele>711.5</ele>
        <time>2015-12-06T08:02:45Z</time>
      </trkpt>
      <trkpt lat="44.10668" lon="3.21779">
        <ele>711.5</ele>
        <time>2015-12-06T08:02:46Z</time>
      </trkpt>
      <trkpt lat="44.10668" lon="3.2178">
        <ele>711.5</ele>
        <time>2015-12-06T08:02:47Z</time>
      </trkpt>
      <trkpt lat="44.10668" lon="3.21779">
        <ele>711.5</ele>
        <time>2015-12-06T08:02:48Z</time>
      </trkpt>
      <trkpt lat="44.10669" lon="3.21778">
        <ele>711.5</ele>
        <time>2015-12-06T08:02:49Z</time>
      </trkpt>
      <trkpt lat="44.10669" lon="3.21777">
        <ele>711.5</ele>
        <time>2015-12-06T08:02:50Z</time>
      </trkpt>
      <trkpt lat="44.1067" lon="3.21778">
        <ele>711.5</ele>
        <time>2015-12-06T08:02:53Z</time>
      </trkpt>
      <trkpt lat="44.10671" lon="3.21778">
        <ele>711.5</ele>
        <time>2015-12-06T08:02:53Z</time>
      </trkpt>
      <trkpt lat="44.10674" lon="3.21778">
        <ele>711.5</ele>
        <time>2015-12-06T08:02:56Z</time>
      </trkpt>
      <trkpt lat="44.10675" lon="3.21778">
        <ele>712</ele>
        <time>2015-12-06T08:02:57Z</time>
      </trkpt>
      <trkpt lat="44.10675" lon="3.21777">
        <ele>712</ele>
        <time>2015-12-06T08:02:58Z</time>
      </trkpt>
      <trkpt lat="44.10676" lon="3.21779">
        <ele>712</ele>
        <time>2015-12-06T08:03:00Z</time>
      </trkpt>
      <trkpt lat="44.10676" lon="3.21778">
        <ele>712</ele>
        <time>2015-12-06T08:03:01Z</time>
      </trkpt>
      <trkpt lat="44.10677" lon="3.21776">
        <ele>712</ele>
        <time>2015-12-06T08:03:01Z</time>
      </trkpt>
      <trkpt lat="44.10678" lon="3.21776">
        <ele>712</ele>
        <time>2015-12-06T08:03:02Z</time>
      </trkpt>
      <trkpt lat="44.10676" lon="3.21776">
        <ele>712</ele>
        <time>2015-12-06T08:03:03Z</time>
      </trkpt>
      <trkpt lat="44.10673" lon="3.21776">
        <ele>712</ele>
        <time>2015-12-06T08:03:04Z</time>
      </trkpt>
      <trkpt lat="44.10671" lon="3.21775">
        <ele>712</ele>
        <time>2015-12-06T08:03:05Z</time>
      </trkpt>
      <trkpt lat="44.1067" lon="3.21775">
        <ele>712</ele>
        <time>2015-12-06T08:03:06Z</time>
      </trkpt>
      <trkpt lat="44.10669" lon="3.21775">
        <ele>712.5</ele>
        <time>2015-12-06T08:03:07Z</time>
      </trkpt>
      <trkpt lat="44.10668" lon="3.21777">
        <ele>712.5</ele>
        <time>2015-12-06T08:03:08Z</time>
      </trkpt>
      <trkpt lat="44.10667" lon="3.21779">
        <ele>712.5</ele>
        <time>2015-12-06T08:03:09Z</time>
      </trkpt>
      <trkpt lat="44.10666" lon="3.21779">
        <ele>712.5</ele>
        <time>2015-12-06T08:03:10Z</time>
      </trkpt>
      <trkpt lat="44.10667" lon="3.21779">
        <ele>712.5</ele>
        <time>2015-12-06T08:03:11Z</time>
      </trkpt>
      <trkpt lat="44.10668" lon="3.21778">
        <ele>712.5</ele>
        <time>2015-12-06T08:03:12Z</time>
      </trkpt>
      <trkpt lat="44.10669" lon="3.21778">
        <ele>713</ele>
        <time>2015-12-06T08:03:13Z</time>
      </trkpt>
      <trkpt lat="44.1067" lon="3.21778">
        <ele>713</ele>
        <time>2015-12-06T08:03:14Z</time>
      </trkpt>
      <trkpt lat="44.1067" lon="3.21778">
        <ele>713</ele>
        <time>2015-12-06T08:03:15Z</time>
      </trkpt>
      <trkpt lat="44.10671" lon="3.21777">
        <ele>713</ele>
        <time>2015-12-06T08:03:16Z</time>
      </trkpt>
      <trkpt lat="44.10671" lon="3.21775">
        <ele>713</ele>
        <time>2015-12-06T08:03:17Z</time>
      </trkpt>
      <trkpt lat="44.10672" lon="3.21774">
        <ele>713</ele>
        <time>2015-12-06T08:03:18Z</time>
      </trkpt>
      <trkpt lat="44.10673" lon="3.21772">
        <ele>713</ele>
        <time>2015-12-06T08:03:19Z</time>
      </trkpt>
      <trkpt lat="44.10675" lon="3.2177">
        <ele>713</ele>
        <time>2015-12-06T08:03:20Z</time>
      </trkpt>
      <trkpt lat="44.10675" lon="3.21769">
        <ele>713</ele>
        <time>2015-12-06T08:03:21Z</time>
      </trkpt>
      <trkpt lat="44.10676" lon="3.21766">
        <ele>713</ele>
        <time>2015-12-06T08:03:22Z</time>
      </trkpt>
      <trkpt lat="44.10677" lon="3.21762">
        <ele>713</ele>
        <time>2015-12-06T08:03:23Z</time>
      </trkpt>
      <trkpt lat="44.10679" lon="3.21759">
        <ele>713</ele>
        <time>2015-12-06T08:03:24Z</time>
      </trkpt>
      <trkpt lat="44.10681" lon="3.21756">
        <ele>713</ele>
        <time>2015-12-06T08:03:25Z</time>
      </trkpt>
      <trkpt lat="44.10683" lon="3.21755">
        <ele>713</ele>
        <time>2015-12-06T08:03:26Z</time>
      </trkpt>
      <trkpt lat="44.10685" lon="3.21754">
        <ele>713</ele>
        <time>2015-12-06T08:03:27Z</time>
      </trkpt>
      <trkpt lat="44.10687" lon="3.21752">
        <ele>713</ele>
        <time>2015-12-06T08:03:28Z</time>
      </trkpt>
      <trkpt lat="44.10689" lon="3.21752">
        <ele>713</ele>
        <time>2015-12-06T08:03:29Z</time>
      </trkpt>
      <trkpt lat="44.1069" lon="3.21752">
        <ele>713</ele>
        <time>2015-12-06T08:03:30Z</time>
      </trkpt>
      <trkpt lat="44.10691" lon="3.21752">
        <ele>713</ele>
        <time>2015-12-06T08:03:31Z</time>
      </trkpt>
      <trkpt lat="44.10693" lon="3.21751">
        <ele>713</ele>
        <time>2015-12-06T08:03:32Z</time>
      </trkpt>
      <trkpt lat="44.10695" lon="3.21751">
        <ele>713</ele>
        <time>2015-12-06T08:03:33Z</time>
      </trkpt>
      <trkpt lat="44.10697" lon="3.21751">
        <ele>713</ele>
        <time>2015-12-06T08:03:34Z</time>
      </trkpt>
      <trkpt lat="44.10698" lon="3.2175">
        <ele>713</ele>
        <time>2015-12-06T08:03:35Z</time>
      </trkpt>
      <trkpt lat="44.107" lon="3.21749">
        <ele>713</ele>
        <time>2015-12-06T08:03:36Z</time>
      </trkpt>
      <trkpt lat="44.10701" lon="3.21749">
        <ele>713</ele>
        <time>2015-12-06T08:03:37Z</time>
      </trkpt>
      <trkpt lat="44.10703" lon="3.21748">
        <ele>713</ele>
        <time>2015-12-06T08:03:38Z</time>
      </trkpt>
      <trkpt lat="44.10704" lon="3.21747">
        <ele>713</ele>
        <time>2015-12-06T08:03:39Z</time>
      </trkpt>
      <trkpt lat="44.10706" lon="3.21746">
        <ele>713</ele>
        <time>2015-12-06T08:03:40Z</time>
      </trkpt>
      <trkpt lat="44.10708" lon="3.21746">
        <ele>713</ele>
        <time>2015-12-06T08:03:41Z</time>
      </trkpt>
      <trkpt lat="44.10709" lon="3.21745">
        <ele>713</ele>
        <time>2015-12-06T08:03:42Z</time>
      </trkpt>
      <trkpt lat="44.10701" lon="3.21743">
        <ele>713</ele>
        <time>2015-12-06T08:03:46Z</time>
      </trkpt>
      <trkpt lat="44.10703" lon="3.21742">
        <ele>713</ele>
        <time>2015-12-06T08:03:47Z</time>
      </trkpt>
      <trkpt lat="44.10704" lon="3.21741">
        <ele>713</ele>
        <time>2015-12-06T08:03:47Z</time>
      </trkpt>
      <trkpt lat="44.10706" lon="3.2174">
        <ele>713</ele>
        <time>2015-12-06T08:03:48Z</time>
      </trkpt>
      <trkpt lat="44.10708" lon="3.21739">
        <ele>713</ele>
        <time>2015-12-06T08:03:49Z</time>
      </trkpt>
      <trkpt lat="44.1071" lon="3.21737">
        <ele>713</ele>
        <time>2015-12-06T08:03:50Z</time>
      </trkpt>
      <trkpt lat="44.10713" lon="3.21736">
        <ele>713</ele>
        <time>2015-12-06T08:03:51Z</time>
      </trkpt>
      <trkpt lat="44.10715" lon="3.21735">
        <ele>713</ele>
        <time>2015-12-06T08:03:52Z</time>
      </trkpt>
      <trkpt lat="44.10718" lon="3.21733">
        <ele>713</ele>
        <time>2015-12-06T08:03:53Z</time>
      </trkpt>
      <trkpt lat="44.1072" lon="3.21732">
        <ele>713</ele>
        <time>2015-12-06T08:03:54Z</time>
      </trkpt>
      <trkpt lat="44.10721" lon="3.21731">
        <ele>713</ele>
        <time>2015-12-06T08:03:55Z</time>
      </trkpt>
      <trkpt lat="44.10723" lon="3.21729">
        <ele>713</ele>
        <time>2015-12-06T08:03:56Z</time>
      </trkpt>
      <trkpt lat="44.10724" lon="3.21728">
        <ele>713</ele>
        <time>2015-12-06T08:03:57Z</time>
      </trkpt>
      <trkpt lat="44.10725" lon="3.21726">
        <ele>713</ele>
        <time>2015-12-06T08:03:58Z</time>
      </trkpt>
      <trkpt lat="44.10726" lon="3.21726">
        <ele>713</ele>
        <time>2015-12-06T08:03:59Z</time>
      </trkpt>
      <trkpt lat="44.10727" lon="3.21724">
        <ele>713</ele>
        <time>2015-12-06T08:04:00Z</time>
      </trkpt>
      <trkpt lat="44.10728" lon="3.21723">
        <ele>713</ele>
        <time>2015-12-06T08:04:01Z</time>
      </trkpt>
      <trkpt lat="44.10728" lon="3.21723">
        <ele>713</ele>
        <time>2015-12-06T08:04:02Z</time>
      </trkpt>
      <trkpt lat="44.10729" lon="3.21722">
        <ele>713</ele>
        <time>2015-12-06T08:04:03Z</time>
      </trkpt>
      <trkpt lat="44.10729" lon="3.21721">
        <ele>713.5</ele>
        <time>2015-12-06T08:04:04Z</time>
      </trkpt>
      <trkpt lat="44.10729" lon="3.21719">
        <ele>713.5</ele>
        <time>2015-12-06T08:04:05Z</time>
      </trkpt>
      <trkpt lat="44.10729" lon="3.21717">
        <ele>713.5</ele>
        <time>2015-12-06T08:04:06Z</time>
      </trkpt>
      <trkpt lat="44.10729" lon="3.21715">
        <ele>713.5</ele>
        <time>2015-12-06T08:04:07Z</time>
      </trkpt>
      <trkpt lat="44.10729" lon="3.21715">
        <ele>713.5</ele>
        <time>2015-12-06T08:04:08Z</time>
      </trkpt>
      <trkpt lat="44.10729" lon="3.21715">
        <ele>713.5</ele>
        <time>2015-12-06T08:04:09Z</time>
      </trkpt>
      <trkpt lat="44.10728" lon="3.21715">
        <ele>713.5</ele>
        <time>2015-12-06T08:04:10Z</time>
      </trkpt>
      <trkpt lat="44.10727" lon="3.21714">
        <ele>713.5</ele>
        <time>2015-12-06T08:04:11Z</time>
      </trkpt>
      <trkpt lat="44.10726" lon="3.21714">
        <ele>713.5</ele>
        <time>2015-12-06T08:04:12Z</time>
      </trkpt>
      <trkpt lat="44.10728" lon="3.21713">
        <ele>713.5</ele>
        <time>2015-12-06T08:04:13Z</time>
      </trkpt>
      <trkpt lat="44.10729" lon="3.21713">
        <ele>713.5</ele>
        <time>2015-12-06T08:04:14Z</time>
      </trkpt>
      <trkpt lat="44.10731" lon="3.21714">
        <ele>713.5</ele>
        <time>2015-12-06T08:04:15Z</time>
      </trkpt>
      <trkpt lat="44.10732" lon="3.21715">
        <ele>713.5</ele>
        <time>2015-12-06T08:04:16Z</time>
      </trkpt>
      <trkpt lat="44.10732" lon="3.21716">
        <ele>713.5</ele>
        <time>2015-12-06T08:04:17Z</time>
      </trkpt>
      <trkpt lat="44.10731" lon="3.21717">
        <ele>713.5</ele>
        <time>2015-12-06T08:04:18Z</time>
      </trkpt>
      <trkpt lat="44.1073" lon="3.21718">
        <ele>713.5</ele>
        <time>2015-12-06T08:04:19Z</time>
      </trkpt>
      <trkpt lat="44.10723" lon="3.2172">
        <ele>713.5</ele>
        <time>2015-12-06T08:04:21Z</time>
      </trkpt>
      <trkpt lat="44.10725" lon="3.21721">
        <ele>713.5</ele>
        <time>2015-12-06T08:04:22Z</time>
      </trkpt>
      <trkpt lat="44.10722" lon="3.21723">
        <ele>713.5</ele>
        <time>2015-12-06T08:04:24Z</time>
      </trkpt>
      <trkpt lat="44.10719" lon="3.21725">
        <ele>713.5</ele>
        <time>2015-12-06T08:04:25Z</time>
      </trkpt>
      <trkpt lat="44.10716" lon="3.21727">
        <ele>713.5</ele>
        <time>2015-12-06T08:04:26Z</time>
      </trkpt>
      <trkpt lat="44.10713" lon="3.21729">
        <ele>713.5</ele>
        <time>2015-12-06T08:04:27Z</time>
      </trkpt>
      <trkpt lat="44.1071" lon="3.21729">
        <ele>713.5</ele>
        <time>2015-12-06T08:04:28Z</time>
      </trkpt>
      <trkpt lat="44.10708" lon="3.21731">
        <ele>713.5</ele>
        <time>2015-12-06T08:04:29Z</time>
      </trkpt>
      <trkpt lat="44.10707" lon="3.21734">
        <ele>713.5</ele>
        <time>2015-12-06T08:04:30Z</time>
      </trkpt>
      <trkpt lat="44.10707" lon="3.21736">
        <ele>713.5</ele>
        <time>2015-12-06T08:04:31Z</time>
      </trkpt>
      <trkpt lat="44.10707" lon="3.21738">
        <ele>713.5</ele>
        <time>2015-12-06T08:04:32Z</time>
      </trkpt>
      <trkpt lat="44.10707" lon="3.2174">
        <ele>713.5</ele>
        <time>2015-12-06T08:04:33Z</time>
      </trkpt>
      <trkpt lat="44.10708" lon="3.21742">
        <ele>713.5</ele>
        <time>2015-12-06T08:04:34Z</time>
      </trkpt>
      <trkpt lat="44.10709" lon="3.21744">
        <ele>713.5</ele>
        <time>2015-12-06T08:04:35Z</time>
      </trkpt>
      <trkpt lat="44.10719" lon="3.2174">
        <ele>713.5</ele>
        <time>2015-12-06T08:04:37Z</time>
      </trkpt>
      <trkpt lat="44.10722" lon="3.21739">
        <ele>713.5</ele>
        <time>2015-12-06T08:04:38Z</time>
      </trkpt>
      <trkpt lat="44.10727" lon="3.21738">
        <ele>713.5</ele>
        <time>2015-12-06T08:04:40Z</time>
      </trkpt>
      <trkpt lat="44.10728" lon="3.21741">
        <ele>713.5</ele>
        <time>2015-12-06T08:04:41Z</time>
      </trkpt>
      <trkpt lat="44.10737" lon="3.21745">
        <ele>713.5</ele>
        <time>2015-12-06T08:04:43Z</time>
      </trkpt>
      <trkpt lat="44.10741" lon="3.21746">
        <ele>713.5</ele>
        <time>2015-12-06T08:04:44Z</time>
      </trkpt>
      <trkpt lat="44.10744" lon="3.21748">
        <ele>713.5</ele>
        <time>2015-12-06T08:04:45Z</time>
      </trkpt>
      <trkpt lat="44.10747" lon="3.21749">
        <ele>713.5</ele>
        <time>2015-12-06T08:04:46Z</time>
      </trkpt>
      <trkpt lat="44.1075" lon="3.2175">
        <ele>713.5</ele>
        <time>2015-12-06T08:04:47Z</time>
      </trkpt>
      <trkpt lat="44.10754" lon="3.21752">
        <ele>713.5</ele>
        <time>2015-12-06T08:04:48Z</time>
      </trkpt>
      <trkpt lat="44.10757" lon="3.21752">
        <ele>713.5</ele>
        <time>2015-12-06T08:04:49Z</time>
      </trkpt>
      <trkpt lat="44.1076" lon="3.21753">
        <ele>713.5</ele>
        <time>2015-12-06T08:04:50Z</time>
      </trkpt>
      <trkpt lat="44.10763" lon="3.21754">
        <ele>713.5</ele>
        <time>2015-12-06T08:04:51Z</time>
      </trkpt>
      <trkpt lat="44.10767" lon="3.21755">
        <ele>713.5</ele>
        <time>2015-12-06T08:04:52Z</time>
      </trkpt>
      <trkpt lat="44.10769" lon="3.21755">
        <ele>713.5</ele>
        <time>2015-12-06T08:04:53Z</time>
      </trkpt>
      <trkpt lat="44.10778" lon="3.21756">
        <ele>713.5</ele>
        <time>2015-12-06T08:04:55Z</time>
      </trkpt>
      <trkpt lat="44.10783" lon="3.21757">
        <ele>713.5</ele>
        <time>2015-12-06T08:04:56Z</time>
      </trkpt>
      <trkpt lat="44.10787" lon="3.21759">
        <ele>713.5</ele>
        <time>2015-12-06T08:04:57Z</time>
      </trkpt>
      <trkpt lat="44.10791" lon="3.21761">
        <ele>713.5</ele>
        <time>2015-12-06T08:04:58Z</time>
      </trkpt>
      <trkpt lat="44.10794" lon="3.21763">
        <ele>713.5</ele>
        <time>2015-12-06T08:04:59Z</time>
      </trkpt>
      <trkpt lat="44.10796" lon="3.21765">
        <ele>713.5</ele>
        <time>2015-12-06T08:05:00Z</time>
      </trkpt>
      <trkpt lat="44.10798" lon="3.21766">
        <ele>713.5</ele>
        <time>2015-12-06T08:05:01Z</time>
      </trkpt>
      <trkpt lat="44.10797" lon="3.21767">
        <ele>713.5</ele>
        <time>2015-12-06T08:05:02Z</time>
      </trkpt>
      <trkpt lat="44.10797" lon="3.21768">
        <ele>714</ele>
        <time>2015-12-06T08:05:09Z</time>
      </trkpt>
      <trkpt lat="44.10796" lon="3.21769">
        <ele>714</ele>
        <time>2015-12-06T08:05:10Z</time>
      </trkpt>
      <trkpt lat="44.10796" lon="3.2177">
        <ele>714</ele>
        <time>2015-12-06T08:05:11Z</time>
      </trkpt>
      <trkpt lat="44.10796" lon="3.21772">
        <ele>714</ele>
        <time>2015-12-06T08:05:12Z</time>
      </trkpt>
      <trkpt lat="44.10796" lon="3.21774">
        <ele>714</ele>
        <time>2015-12-06T08:05:13Z</time>
      </trkpt>
      <trkpt lat="44.10796" lon="3.21777">
        <ele>714</ele>
        <time>2015-12-06T08:05:14Z</time>
      </trkpt>
      <trkpt lat="44.10796" lon="3.21781">
        <ele>714</ele>
        <time>2015-12-06T08:05:15Z</time>
      </trkpt>
      <trkpt lat="44.10796" lon="3.21784">
        <ele>714</ele>
        <time>2015-12-06T08:05:16Z</time>
      </trkpt>
      <trkpt lat="44.10797" lon="3.21788">
        <ele>714</ele>
        <time>2015-12-06T08:05:17Z</time>
      </trkpt>
      <trkpt lat="44.10798" lon="3.21793">
        <ele>714</ele>
        <time>2015-12-06T08:05:18Z</time>
      </trkpt>
      <trkpt lat="44.10799" lon="3.21798">
        <ele>714</ele>
        <time>2015-12-06T08:05:19Z</time>
      </trkpt>
      <trkpt lat="44.10801" lon="3.21802">
        <ele>714</ele>
        <time>2015-12-06T08:05:20Z</time>
      </trkpt>
      <trkpt lat="44.10804" lon="3.21807">
        <ele>714</ele>
        <time>2015-12-06T08:05:21Z</time>
      </trkpt>
      <trkpt lat="44.10808" lon="3.21813">
        <ele>714</ele>
        <time>2015-12-06T08:05:22Z</time>
      </trkpt>
      <trkpt lat="44.10812" lon="3.21819">
        <ele>714</ele>
        <time>2015-12-06T08:05:23Z</time>
      </trkpt>
      <trkpt lat="44.10816" lon="3.21827">
        <ele>714</ele>
        <time>2015-12-06T08:05:24Z</time>
      </trkpt>
      <trkpt lat="44.1082" lon="3.21835">
        <ele>714</ele>
        <time>2015-12-06T08:05:25Z</time>
      </trkpt>
      <trkpt lat="44.10824" lon="3.21845">
        <ele>714</ele>
        <time>2015-12-06T08:05:26Z</time>
      </trkpt>
      <trkpt lat="44.10826" lon="3.21855">
        <ele>714</ele>
        <time>2015-12-06T08:05:27Z</time>
      </trkpt>
      <trkpt lat="44.10831" lon="3.21863">
        <ele>714</ele>
        <time>2015-12-06T08:05:28Z</time>
      </trkpt>
      <trkpt lat="44.10833" lon="3.21871">
        <ele>714</ele>
        <time>2015-12-06T08:05:29Z</time>
      </trkpt>
      <trkpt lat="44.10839" lon="3.21876">
        <ele>714</ele>
        <time>2015-12-06T08:05:30Z</time>
      </trkpt>
      <trkpt lat="44.10844" lon="3.21881">
        <ele>714</ele>
        <time>2015-12-06T08:05:31Z</time>
      </trkpt>
      <trkpt lat="44.10849" lon="3.21886">
        <ele>714</ele>
        <time>2015-12-06T08:05:32Z</time>
      </trkpt>
      <trkpt lat="44.10853" lon="3.2189">
        <ele>714</ele>
        <time>2015-12-06T08:05:33Z</time>
      </trkpt>
      <trkpt lat="44.10856" lon="3.21894">
        <ele>714</ele>
        <time>2015-12-06T08:05:34Z</time>
      </trkpt>
      <trkpt lat="44.10859" lon="3.21896">
        <ele>714</ele>
        <time>2015-12-06T08:05:35Z</time>
      </trkpt>
      <trkpt lat="44.10861" lon="3.21898">
        <ele>714</ele>
        <time>2015-12-06T08:05:36Z</time>
      </trkpt>
      <trkpt lat="44.10864" lon="3.219">
        <ele>714</ele>
        <time>2015-12-06T08:05:37Z</time>
      </trkpt>
      <trkpt lat="44.10872" lon="3.21904">
        <ele>714</ele>
        <time>2015-12-06T08:05:39Z</time>
      </trkpt>
      <trkpt lat="44.10875" lon="3.21906">
        <ele>714</ele>
        <time>2015-12-06T08:05:40Z</time>
      </trkpt>
      <trkpt lat="44.10878" lon="3.21908">
        <ele>714</ele>
        <time>2015-12-06T08:05:41Z</time>
      </trkpt>
      <trkpt lat="44.10881" lon="3.21911">
        <ele>714</ele>
        <time>2015-12-06T08:05:42Z</time>
      </trkpt>
      <trkpt lat="44.10884" lon="3.21913">
        <ele>714</ele>
        <time>2015-12-06T08:05:43Z</time>
      </trkpt>
      <trkpt lat="44.10886" lon="3.21916">
        <ele>714</ele>
        <time>2015-12-06T08:05:44Z</time>
      </trkpt>
      <trkpt lat="44.10889" lon="3.21918">
        <ele>714</ele>
        <time>2015-12-06T08:05:45Z</time>
      </trkpt>
      <trkpt lat="44.10896" lon="3.21924">
        <ele>714</ele>
        <time>2015-12-06T08:05:47Z</time>
      </trkpt>
      <trkpt lat="44.10898" lon="3.21926">
        <ele>714</ele>
        <time>2015-12-06T08:05:48Z</time>
      </trkpt>
      <trkpt lat="44.10901" lon="3.21928">
        <ele>714</ele>
        <time>2015-12-06T08:05:49Z</time>
      </trkpt>
      <trkpt lat="44.10904" lon="3.2193">
        <ele>714</ele>
        <time>2015-12-06T08:05:50Z</time>
      </trkpt>
      <trkpt lat="44.10906" lon="3.21932">
        <ele>714</ele>
        <time>2015-12-06T08:05:51Z</time>
      </trkpt>
      <trkpt lat="44.10907" lon="3.21933">
        <ele>714</ele>
        <time>2015-12-06T08:05:52Z</time>
      </trkpt>
      <trkpt lat="44.10909" lon="3.21935">
        <ele>714</ele>
        <time>2015-12-06T08:05:53Z</time>
      </trkpt>
      <trkpt lat="44.10912" lon="3.21937">
        <ele>714</ele>
        <time>2015-12-06T08:05:54Z</time>
      </trkpt>
      <trkpt lat="44.10914" lon="3.21939">
        <ele>714</ele>
        <time>2015-12-06T08:05:55Z</time>
      </trkpt>
      <trkpt lat="44.10916" lon="3.21942">
        <ele>714</ele>
        <time>2015-12-06T08:05:56Z</time>
      </trkpt>
      <trkpt lat="44.10918" lon="3.21945">
        <ele>714</ele>
        <time>2015-12-06T08:05:57Z</time>
      </trkpt>
      <trkpt lat="44.1092" lon="3.21947">
        <ele>714</ele>
        <time>2015-12-06T08:05:58Z</time>
      </trkpt>
      <trkpt lat="44.10922" lon="3.2195">
        <ele>714</ele>
        <time>2015-12-06T08:05:59Z</time>
      </trkpt>
      <trkpt lat="44.10924" lon="3.21953">
        <ele>714</ele>
        <time>2015-12-06T08:06:00Z</time>
      </trkpt>
      <trkpt lat="44.10925" lon="3.21955">
        <ele>714</ele>
        <time>2015-12-06T08:06:01Z</time>
      </trkpt>
      <trkpt lat="44.10927" lon="3.21957">
        <ele>714</ele>
        <time>2015-12-06T08:06:02Z</time>
      </trkpt>
      <trkpt lat="44.10928" lon="3.21959">
        <ele>714</ele>
        <time>2015-12-06T08:06:03Z</time>
      </trkpt>
      <trkpt lat="44.1093" lon="3.21961">
        <ele>714</ele>
        <time>2015-12-06T08:06:04Z</time>
      </trkpt>
      <trkpt lat="44.10932" lon="3.21963">
        <ele>714</ele>
        <time>2015-12-06T08:06:05Z</time>
      </trkpt>
      <trkpt lat="44.10933" lon="3.21965">
        <ele>714</ele>
        <time>2015-12-06T08:06:06Z</time>
      </trkpt>
      <trkpt lat="44.10935" lon="3.21967">
        <ele>714</ele>
        <time>2015-12-06T08:06:07Z</time>
      </trkpt>
      <trkpt lat="44.10936" lon="3.21969">
        <ele>714</ele>
        <time>2015-12-06T08:06:08Z</time>
      </trkpt>
      <trkpt lat="44.10938" lon="3.21972">
        <ele>714</ele>
        <time>2015-12-06T08:06:09Z</time>
      </trkpt>
      <trkpt lat="44.1094" lon="3.21975">
        <ele>714</ele>
        <time>2015-12-06T08:06:10Z</time>
      </trkpt>
      <trkpt lat="44.10941" lon="3.21978">
        <ele>714</ele>
        <time>2015-12-06T08:06:11Z</time>
      </trkpt>
      <trkpt lat="44.10942" lon="3.2198">
        <ele>714</ele>
        <time>2015-12-06T08:06:12Z</time>
      </trkpt>
      <trkpt lat="44.10948" lon="3.21984">
        <ele>714</ele>
        <time>2015-12-06T08:06:13Z</time>
      </trkpt>
      <trkpt lat="44.1095" lon="3.21986">
        <ele>714</ele>
        <time>2015-12-06T08:06:14Z</time>
      </trkpt>
      <trkpt lat="44.10952" lon="3.21989">
        <ele>714.5</ele>
        <time>2015-12-06T08:06:15Z</time>
      </trkpt>
      <trkpt lat="44.10954" lon="3.21991">
        <ele>714.5</ele>
        <time>2015-12-06T08:06:16Z</time>
      </trkpt>
      <trkpt lat="44.10954" lon="3.21995">
        <ele>714.5</ele>
        <time>2015-12-06T08:06:17Z</time>
      </trkpt>
      <trkpt lat="44.10954" lon="3.21997">
        <ele>714.5</ele>
        <time>2015-12-06T08:06:18Z</time>
      </trkpt>
      <trkpt lat="44.10955" lon="3.22">
        <ele>714.5</ele>
        <time>2015-12-06T08:06:19Z</time>
      </trkpt>
      <trkpt lat="44.10956" lon="3.22003">
        <ele>714.5</ele>
        <time>2015-12-06T08:06:20Z</time>
      </trkpt>
      <trkpt lat="44.10962" lon="3.22008">
        <ele>714.5</ele>
        <time>2015-12-06T08:06:22Z</time>
      </trkpt>
      <trkpt lat="44.10963" lon="3.22011">
        <ele>714.5</ele>
        <time>2015-12-06T08:06:23Z</time>
      </trkpt>
      <trkpt lat="44.10963" lon="3.22014">
        <ele>714.5</ele>
        <time>2015-12-06T08:06:24Z</time>
      </trkpt>
      <trkpt lat="44.10964" lon="3.22017">
        <ele>714.5</ele>
        <time>2015-12-06T08:06:25Z</time>
      </trkpt>
      <trkpt lat="44.10965" lon="3.2202">
        <ele>714.5</ele>
        <time>2015-12-06T08:06:26Z</time>
      </trkpt>
      <trkpt lat="44.10968" lon="3.22023">
        <ele>714.5</ele>
        <time>2015-12-06T08:06:27Z</time>
      </trkpt>
      <trkpt lat="44.1097" lon="3.22026">
        <ele>714.5</ele>
        <time>2015-12-06T08:06:28Z</time>
      </trkpt>
      <trkpt lat="44.10971" lon="3.22029">
        <ele>714.5</ele>
        <time>2015-12-06T08:06:29Z</time>
      </trkpt>
      <trkpt lat="44.10973" lon="3.22031">
        <ele>714.5</ele>
        <time>2015-12-06T08:06:30Z</time>
      </trkpt>
      <trkpt lat="44.10975" lon="3.22034">
        <ele>714.5</ele>
        <time>2015-12-06T08:06:31Z</time>
      </trkpt>
      <trkpt lat="44.10977" lon="3.22036">
        <ele>714.5</ele>
        <time>2015-12-06T08:06:32Z</time>
      </trkpt>
      <trkpt lat="44.10979" lon="3.22038">
        <ele>714.5</ele>
        <time>2015-12-06T08:06:33Z</time>
      </trkpt>
      <trkpt lat="44.10982" lon="3.2204">
        <ele>714.5</ele>
        <time>2015-12-06T08:06:34Z</time>
      </trkpt>
      <trkpt lat="44.10984" lon="3.22041">
        <ele>714.5</ele>
        <time>2015-12-06T08:06:35Z</time>
      </trkpt>
      <trkpt lat="44.10987" lon="3.22043">
        <ele>714.5</ele>
        <time>2015-12-06T08:06:36Z</time>
      </trkpt>
      <trkpt lat="44.1099" lon="3.22044">
        <ele>714.5</ele>
        <time>2015-12-06T08:06:37Z</time>
      </trkpt>
      <trkpt lat="44.10993" lon="3.22045">
        <ele>714.5</ele>
        <time>2015-12-06T08:06:38Z</time>
      </trkpt>
      <trkpt lat="44.10995" lon="3.22046">
        <ele>714.5</ele>
        <time>2015-12-06T08:06:39Z</time>
      </trkpt>
      <trkpt lat="44.10998" lon="3.22048">
        <ele>714.5</ele>
        <time>2015-12-06T08:06:40Z</time>
      </trkpt>
      <trkpt lat="44.11001" lon="3.2205">
        <ele>714.5</ele>
        <time>2015-12-06T08:06:41Z</time>
      </trkpt>
      <trkpt lat="44.11003" lon="3.22052">
        <ele>714.5</ele>
        <time>2015-12-06T08:06:42Z</time>
      </trkpt>
      <trkpt lat="44.11006" lon="3.22054">
        <ele>714.5</ele>
        <time>2015-12-06T08:06:43Z</time>
      </trkpt>
      <trkpt lat="44.11008" lon="3.22056">
        <ele>714.5</ele>
        <time>2015-12-06T08:06:44Z</time>
      </trkpt>
      <trkpt lat="44.1101" lon="3.22058">
        <ele>714.5</ele>
        <time>2015-12-06T08:06:45Z</time>
      </trkpt>
      <trkpt lat="44.11012" lon="3.2206">
        <ele>714.5</ele>
        <time>2015-12-06T08:06:46Z</time>
      </trkpt>
      <trkpt lat="44.11014" lon="3.22063">
        <ele>714.5</ele>
        <time>2015-12-06T08:06:47Z</time>
      </trkpt>
      <trkpt lat="44.11016" lon="3.22065">
        <ele>714.5</ele>
        <time>2015-12-06T08:06:48Z</time>
      </trkpt>
      <trkpt lat="44.11017" lon="3.22068">
        <ele>714.5</ele>
        <time>2015-12-06T08:06:49Z</time>
      </trkpt>
      <trkpt lat="44.11019" lon="3.22072">
        <ele>714.5</ele>
        <time>2015-12-06T08:06:50Z</time>
      </trkpt>
      <trkpt lat="44.1102" lon="3.22075">
        <ele>714.5</ele>
        <time>2015-12-06T08:06:51Z</time>
      </trkpt>
      <trkpt lat="44.11021" lon="3.22079">
        <ele>714.5</ele>
        <time>2015-12-06T08:06:52Z</time>
      </trkpt>
      <trkpt lat="44.11021" lon="3.22083">
        <ele>714.5</ele>
        <time>2015-12-06T08:06:53Z</time>
      </trkpt>
      <trkpt lat="44.11022" lon="3.22087">
        <ele>714.5</ele>
        <time>2015-12-06T08:06:54Z</time>
      </trkpt>
      <trkpt lat="44.11024" lon="3.2209">
        <ele>714.5</ele>
        <time>2015-12-06T08:06:55Z</time>
      </trkpt>
      <trkpt lat="44.11024" lon="3.22094">
        <ele>714.5</ele>
        <time>2015-12-06T08:06:56Z</time>
      </trkpt>
      <trkpt lat="44.11024" lon="3.22097">
        <ele>714.5</ele>
        <time>2015-12-06T08:06:57Z</time>
      </trkpt>
      <trkpt lat="44.11024" lon="3.221">
        <ele>714.5</ele>
        <time>2015-12-06T08:06:58Z</time>
      </trkpt>
      <trkpt lat="44.11023" lon="3.22103">
        <ele>714.5</ele>
        <time>2015-12-06T08:06:59Z</time>
      </trkpt>
      <trkpt lat="44.11022" lon="3.22105">
        <ele>714.5</ele>
        <time>2015-12-06T08:07:00Z</time>
      </trkpt>
      <trkpt lat="44.11021" lon="3.22108">
        <ele>714.5</ele>
        <time>2015-12-06T08:07:01Z</time>
      </trkpt>
      <trkpt lat="44.11021" lon="3.2211">
        <ele>714.5</ele>
        <time>2015-12-06T08:07:02Z</time>
      </trkpt>
      <trkpt lat="44.11019" lon="3.22113">
        <ele>714.5</ele>
        <time>2015-12-06T08:07:03Z</time>
      </trkpt>
      <trkpt lat="44.11018" lon="3.22116">
        <ele>714.5</ele>
        <time>2015-12-06T08:07:04Z</time>
      </trkpt>
      <trkpt lat="44.11017" lon="3.22119">
        <ele>714.5</ele>
        <time>2015-12-06T08:07:05Z</time>
      </trkpt>
      <trkpt lat="44.11016" lon="3.22122">
        <ele>714.5</ele>
        <time>2015-12-06T08:07:06Z</time>
      </trkpt>
      <trkpt lat="44.11016" lon="3.22124">
        <ele>714.5</ele>
        <time>2015-12-06T08:07:07Z</time>
      </trkpt>
      <trkpt lat="44.11015" lon="3.22127">
        <ele>715</ele>
        <time>2015-12-06T08:07:08Z</time>
      </trkpt>
      <trkpt lat="44.11015" lon="3.2213">
        <ele>715</ele>
        <time>2015-12-06T08:07:09Z</time>
      </trkpt>
      <trkpt lat="44.11014" lon="3.22132">
        <ele>715</ele>
        <time>2015-12-06T08:07:10Z</time>
      </trkpt>
      <trkpt lat="44.11014" lon="3.22135">
        <ele>715</ele>
        <time>2015-12-06T08:07:11Z</time>
      </trkpt>
      <trkpt lat="44.11014" lon="3.22137">
        <ele>715</ele>
        <time>2015-12-06T08:07:12Z</time>
      </trkpt>
      <trkpt lat="44.11014" lon="3.22139">
        <ele>715</ele>
        <time>2015-12-06T08:07:13Z</time>
      </trkpt>
      <trkpt lat="44.11017" lon="3.22146">
        <ele>715</ele>
        <time>2015-12-06T08:07:15Z</time>
      </trkpt>
      <trkpt lat="44.11016" lon="3.22148">
        <ele>715</ele>
        <time>2015-12-06T08:07:16Z</time>
      </trkpt>
      <trkpt lat="44.11017" lon="3.22151">
        <ele>715</ele>
        <time>2015-12-06T08:07:17Z</time>
      </trkpt>
      <trkpt lat="44.11016" lon="3.22153">
        <ele>715</ele>
        <time>2015-12-06T08:07:18Z</time>
      </trkpt>
      <trkpt lat="44.11016" lon="3.22156">
        <ele>715</ele>
        <time>2015-12-06T08:07:19Z</time>
      </trkpt>
      <trkpt lat="44.11015" lon="3.22158">
        <ele>715</ele>
        <time>2015-12-06T08:07:20Z</time>
      </trkpt>
      <trkpt lat="44.11015" lon="3.22161">
        <ele>715</ele>
        <time>2015-12-06T08:07:21Z</time>
      </trkpt>
      <trkpt lat="44.11015" lon="3.22163">
        <ele>715</ele>
        <time>2015-12-06T08:07:22Z</time>
      </trkpt>
      <trkpt lat="44.11015" lon="3.22166">
        <ele>715</ele>
        <time>2015-12-06T08:07:23Z</time>
      </trkpt>
      <trkpt lat="44.11015" lon="3.22168">
        <ele>715</ele>
        <time>2015-12-06T08:07:24Z</time>
      </trkpt>
      <trkpt lat="44.11014" lon="3.22171">
        <ele>715</ele>
        <time>2015-12-06T08:07:25Z</time>
      </trkpt>
      <trkpt lat="44.11014" lon="3.22173">
        <ele>715</ele>
        <time>2015-12-06T08:07:26Z</time>
      </trkpt>
      <trkpt lat="44.11014" lon="3.22175">
        <ele>715</ele>
        <time>2015-12-06T08:07:27Z</time>
      </trkpt>
      <trkpt lat="44.11014" lon="3.22178">
        <ele>715</ele>
        <time>2015-12-06T08:07:28Z</time>
      </trkpt>
      <trkpt lat="44.11014" lon="3.22181">
        <ele>715</ele>
        <time>2015-12-06T08:07:29Z</time>
      </trkpt>
      <trkpt lat="44.11014" lon="3.22183">
        <ele>715</ele>
        <time>2015-12-06T08:07:30Z</time>
      </trkpt>
      <trkpt lat="44.11014" lon="3.22186">
        <ele>715</ele>
        <time>2015-12-06T08:07:31Z</time>
      </trkpt>
      <trkpt lat="44.11014" lon="3.22188">
        <ele>715</ele>
        <time>2015-12-06T08:07:32Z</time>
      </trkpt>
      <trkpt lat="44.11014" lon="3.22191">
        <ele>715</ele>
        <time>2015-12-06T08:07:33Z</time>
      </trkpt>
      <trkpt lat="44.11014" lon="3.22194">
        <ele>715</ele>
        <time>2015-12-06T08:07:34Z</time>
      </trkpt>
      <trkpt lat="44.11014" lon="3.22196">
        <ele>715</ele>
        <time>2015-12-06T08:07:35Z</time>
      </trkpt>
      <trkpt lat="44.11014" lon="3.22199">
        <ele>715</ele>
        <time>2015-12-06T08:07:36Z</time>
      </trkpt>
      <trkpt lat="44.11014" lon="3.22201">
        <ele>715</ele>
        <time>2015-12-06T08:07:37Z</time>
      </trkpt>
      <trkpt lat="44.11014" lon="3.22203">
        <ele>715</ele>
        <time>2015-12-06T08:07:38Z</time>
      </trkpt>
      <trkpt lat="44.11014" lon="3.22205">
        <ele>715</ele>
        <time>2015-12-06T08:07:39Z</time>
      </trkpt>
      <trkpt lat="44.11015" lon="3.22207">
        <ele>715</ele>
        <time>2015-12-06T08:07:40Z</time>
      </trkpt>
      <trkpt lat="44.11015" lon="3.2221">
        <ele>715</ele>
        <time>2015-12-06T08:07:41Z</time>
      </trkpt>
      <trkpt lat="44.11015" lon="3.22212">
        <ele>715</ele>
        <time>2015-12-06T08:07:42Z</time>
      </trkpt>
      <trkpt lat="44.11015" lon="3.22215">
        <ele>715</ele>
        <time>2015-12-06T08:07:43Z</time>
      </trkpt>
      <trkpt lat="44.11015" lon="3.22218">
        <ele>715</ele>
        <time>2015-12-06T08:07:44Z</time>
      </trkpt>
      <trkpt lat="44.11015" lon="3.2222">
        <ele>715</ele>
        <time>2015-12-06T08:07:45Z</time>
      </trkpt>
      <trkpt lat="44.11014" lon="3.22223">
        <ele>715</ele>
        <time>2015-12-06T08:07:46Z</time>
      </trkpt>
      <trkpt lat="44.11013" lon="3.22225">
        <ele>715</ele>
        <time>2015-12-06T08:07:47Z</time>
      </trkpt>
      <trkpt lat="44.11013" lon="3.22228">
        <ele>715</ele>
        <time>2015-12-06T08:07:48Z</time>
      </trkpt>
      <trkpt lat="44.11012" lon="3.22231">
        <ele>715</ele>
        <time>2015-12-06T08:07:49Z</time>
      </trkpt>
      <trkpt lat="44.11011" lon="3.22234">
        <ele>715.5</ele>
        <time>2015-12-06T08:07:50Z</time>
      </trkpt>
      <trkpt lat="44.1101" lon="3.22237">
        <ele>715.5</ele>
        <time>2015-12-06T08:07:51Z</time>
      </trkpt>
      <trkpt lat="44.1101" lon="3.22241">
        <ele>715.5</ele>
        <time>2015-12-06T08:07:52Z</time>
      </trkpt>
      <trkpt lat="44.11009" lon="3.22245">
        <ele>715.5</ele>
        <time>2015-12-06T08:07:53Z</time>
      </trkpt>
      <trkpt lat="44.11007" lon="3.22248">
        <ele>715.5</ele>
        <time>2015-12-06T08:07:54Z</time>
      </trkpt>
      <trkpt lat="44.11006" lon="3.22251">
        <ele>715.5</ele>
        <time>2015-12-06T08:07:55Z</time>
      </trkpt>
      <trkpt lat="44.11005" lon="3.22254">
        <ele>715.5</ele>
        <time>2015-12-06T08:07:56Z</time>
      </trkpt>
      <trkpt lat="44.11005" lon="3.22256">
        <ele>715.5</ele>
        <time>2015-12-06T08:07:57Z</time>
      </trkpt>
      <trkpt lat="44.11004" lon="3.22259">
        <ele>715.5</ele>
        <time>2015-12-06T08:07:58Z</time>
      </trkpt>
      <trkpt lat="44.11003" lon="3.22261">
        <ele>715.5</ele>
        <time>2015-12-06T08:07:59Z</time>
      </trkpt>
      <trkpt lat="44.11003" lon="3.22264">
        <ele>715.5</ele>
        <time>2015-12-06T08:08:00Z</time>
      </trkpt>
      <trkpt lat="44.11002" lon="3.22267">
        <ele>715.5</ele>
        <time>2015-12-06T08:08:01Z</time>
      </trkpt>
      <trkpt lat="44.11001" lon="3.22269">
        <ele>715.5</ele>
        <time>2015-12-06T08:08:02Z</time>
      </trkpt>
      <trkpt lat="44.11001" lon="3.22271">
        <ele>715.5</ele>
        <time>2015-12-06T08:08:03Z</time>
      </trkpt>
      <trkpt lat="44.11001" lon="3.22274">
        <ele>715.5</ele>
        <time>2015-12-06T08:08:04Z</time>
      </trkpt>
      <trkpt lat="44.11" lon="3.22276">
        <ele>715.5</ele>
        <time>2015-12-06T08:08:05Z</time>
      </trkpt>
      <trkpt lat="44.11" lon="3.22278">
        <ele>715.5</ele>
        <time>2015-12-06T08:08:06Z</time>
      </trkpt>
      <trkpt lat="44.11" lon="3.2228">
        <ele>715.5</ele>
        <time>2015-12-06T08:08:07Z</time>
      </trkpt>
      <trkpt lat="44.10999" lon="3.22283">
        <ele>715.5</ele>
        <time>2015-12-06T08:08:08Z</time>
      </trkpt>
      <trkpt lat="44.10999" lon="3.22286">
        <ele>715.5</ele>
        <time>2015-12-06T08:08:09Z</time>
      </trkpt>
      <trkpt lat="44.10998" lon="3.22288">
        <ele>715.5</ele>
        <time>2015-12-06T08:08:10Z</time>
      </trkpt>
      <trkpt lat="44.10997" lon="3.22291">
        <ele>715.5</ele>
        <time>2015-12-06T08:08:11Z</time>
      </trkpt>
      <trkpt lat="44.10997" lon="3.22294">
        <ele>716</ele>
        <time>2015-12-06T08:08:12Z</time>
      </trkpt>
      <trkpt lat="44.10996" lon="3.22297">
        <ele>716</ele>
        <time>2015-12-06T08:08:13Z</time>
      </trkpt>
      <trkpt lat="44.10996" lon="3.22299">
        <ele>716</ele>
        <time>2015-12-06T08:08:14Z</time>
      </trkpt>
      <trkpt lat="44.10997" lon="3.22301">
        <ele>716</ele>
        <time>2015-12-06T08:08:15Z</time>
      </trkpt>
      <trkpt lat="44.10997" lon="3.22304">
        <ele>716</ele>
        <time>2015-12-06T08:08:16Z</time>
      </trkpt>
      <trkpt lat="44.10996" lon="3.22306">
        <ele>716</ele>
        <time>2015-12-06T08:08:17Z</time>
      </trkpt>
      <trkpt lat="44.10996" lon="3.22308">
        <ele>716</ele>
        <time>2015-12-06T08:08:18Z</time>
      </trkpt>
      <trkpt lat="44.10997" lon="3.22309">
        <ele>716</ele>
        <time>2015-12-06T08:08:19Z</time>
      </trkpt>
      <trkpt lat="44.10997" lon="3.22312">
        <ele>716</ele>
        <time>2015-12-06T08:08:20Z</time>
      </trkpt>
      <trkpt lat="44.10996" lon="3.22315">
        <ele>716</ele>
        <time>2015-12-06T08:08:21Z</time>
      </trkpt>
      <trkpt lat="44.10996" lon="3.22317">
        <ele>716</ele>
        <time>2015-12-06T08:08:22Z</time>
      </trkpt>
      <trkpt lat="44.10997" lon="3.2232">
        <ele>716</ele>
        <time>2015-12-06T08:08:23Z</time>
      </trkpt>
      <trkpt lat="44.10996" lon="3.22323">
        <ele>716</ele>
        <time>2015-12-06T08:08:24Z</time>
      </trkpt>
      <trkpt lat="44.10996" lon="3.22325">
        <ele>716</ele>
        <time>2015-12-06T08:08:25Z</time>
      </trkpt>
      <trkpt lat="44.10996" lon="3.22327">
        <ele>716</ele>
        <time>2015-12-06T08:08:26Z</time>
      </trkpt>
      <trkpt lat="44.10996" lon="3.2233">
        <ele>716</ele>
        <time>2015-12-06T08:08:27Z</time>
      </trkpt>
      <trkpt lat="44.10996" lon="3.22333">
        <ele>716</ele>
        <time>2015-12-06T08:08:28Z</time>
      </trkpt>
      <trkpt lat="44.10997" lon="3.22335">
        <ele>716</ele>
        <time>2015-12-06T08:08:29Z</time>
      </trkpt>
      <trkpt lat="44.10996" lon="3.22337">
        <ele>716</ele>
        <time>2015-12-06T08:08:30Z</time>
      </trkpt>
      <trkpt lat="44.10995" lon="3.2234">
        <ele>716</ele>
        <time>2015-12-06T08:08:31Z</time>
      </trkpt>
      <trkpt lat="44.10995" lon="3.22342">
        <ele>716</ele>
        <time>2015-12-06T08:08:32Z</time>
      </trkpt>
      <trkpt lat="44.10994" lon="3.22345">
        <ele>716</ele>
        <time>2015-12-06T08:08:33Z</time>
      </trkpt>
      <trkpt lat="44.10993" lon="3.22347">
        <ele>716.5</ele>
        <time>2015-12-06T08:08:34Z</time>
      </trkpt>
      <trkpt lat="44.10993" lon="3.2235">
        <ele>716.5</ele>
        <time>2015-12-06T08:08:35Z</time>
      </trkpt>
      <trkpt lat="44.10992" lon="3.22352">
        <ele>716.5</ele>
        <time>2015-12-06T08:08:36Z</time>
      </trkpt>
      <trkpt lat="44.10991" lon="3.22355">
        <ele>716.5</ele>
        <time>2015-12-06T08:08:37Z</time>
      </trkpt>
      <trkpt lat="44.10991" lon="3.22357">
        <ele>716.5</ele>
        <time>2015-12-06T08:08:38Z</time>
      </trkpt>
      <trkpt lat="44.1099" lon="3.2236">
        <ele>716.5</ele>
        <time>2015-12-06T08:08:39Z</time>
      </trkpt>
      <trkpt lat="44.10989" lon="3.22363">
        <ele>716.5</ele>
        <time>2015-12-06T08:08:40Z</time>
      </trkpt>
      <trkpt lat="44.10988" lon="3.22366">
        <ele>716.5</ele>
        <time>2015-12-06T08:08:41Z</time>
      </trkpt>
      <trkpt lat="44.10988" lon="3.22368">
        <ele>716.5</ele>
        <time>2015-12-06T08:08:42Z</time>
      </trkpt>
      <trkpt lat="44.10988" lon="3.22371">
        <ele>716.5</ele>
        <time>2015-12-06T08:08:43Z</time>
      </trkpt>
      <trkpt lat="44.10987" lon="3.22374">
        <ele>716.5</ele>
        <time>2015-12-06T08:08:44Z</time>
      </trkpt>
      <trkpt lat="44.10987" lon="3.22377">
        <ele>716.5</ele>
        <time>2015-12-06T08:08:45Z</time>
      </trkpt>
      <trkpt lat="44.10987" lon="3.22379">
        <ele>716.5</ele>
        <time>2015-12-06T08:08:46Z</time>
      </trkpt>
      <trkpt lat="44.10986" lon="3.22382">
        <ele>716.5</ele>
        <time>2015-12-06T08:08:47Z</time>
      </trkpt>
      <trkpt lat="44.10986" lon="3.22384">
        <ele>716.5</ele>
        <time>2015-12-06T08:08:48Z</time>
      </trkpt>
      <trkpt lat="44.10985" lon="3.22388">
        <ele>716.5</ele>
        <time>2015-12-06T08:08:49Z</time>
      </trkpt>
      <trkpt lat="44.10985" lon="3.2239">
        <ele>716.5</ele>
        <time>2015-12-06T08:08:50Z</time>
      </trkpt>
      <trkpt lat="44.10985" lon="3.22392">
        <ele>716.5</ele>
        <time>2015-12-06T08:08:51Z</time>
      </trkpt>
      <trkpt lat="44.10985" lon="3.22395">
        <ele>716.5</ele>
        <time>2015-12-06T08:08:52Z</time>
      </trkpt>
      <trkpt lat="44.10984" lon="3.22397">
        <ele>716.5</ele>
        <time>2015-12-06T08:08:53Z</time>
      </trkpt>
      <trkpt lat="44.10984" lon="3.224">
        <ele>716.5</ele>
        <time>2015-12-06T08:08:54Z</time>
      </trkpt>
      <trkpt lat="44.10983" lon="3.22403">
        <ele>717</ele>
        <time>2015-12-06T08:08:55Z</time>
      </trkpt>
      <trkpt lat="44.10982" lon="3.22406">
        <ele>717</ele>
        <time>2015-12-06T08:08:56Z</time>
      </trkpt>
      <trkpt lat="44.10982" lon="3.22408">
        <ele>717</ele>
        <time>2015-12-06T08:08:57Z</time>
      </trkpt>
      <trkpt lat="44.10982" lon="3.22411">
        <ele>717</ele>
        <time>2015-12-06T08:08:58Z</time>
      </trkpt>
      <trkpt lat="44.10982" lon="3.22413">
        <ele>717</ele>
        <time>2015-12-06T08:08:59Z</time>
      </trkpt>
      <trkpt lat="44.10982" lon="3.22416">
        <ele>717</ele>
        <time>2015-12-06T08:09:00Z</time>
      </trkpt>
      <trkpt lat="44.10982" lon="3.22418">
        <ele>717</ele>
        <time>2015-12-06T08:09:01Z</time>
      </trkpt>
      <trkpt lat="44.10981" lon="3.2242">
        <ele>717</ele>
        <time>2015-12-06T08:09:02Z</time>
      </trkpt>
      <trkpt lat="44.10981" lon="3.22422">
        <ele>717</ele>
        <time>2015-12-06T08:09:03Z</time>
      </trkpt>
      <trkpt lat="44.10981" lon="3.22425">
        <ele>717</ele>
        <time>2015-12-06T08:09:04Z</time>
      </trkpt>
      <trkpt lat="44.10981" lon="3.22427">
        <ele>717</ele>
        <time>2015-12-06T08:09:05Z</time>
      </trkpt>
      <trkpt lat="44.10981" lon="3.22429">
        <ele>717</ele>
        <time>2015-12-06T08:09:06Z</time>
      </trkpt>
      <trkpt lat="44.10981" lon="3.22431">
        <ele>717</ele>
        <time>2015-12-06T08:09:07Z</time>
      </trkpt>
      <trkpt lat="44.1098" lon="3.22434">
        <ele>717</ele>
        <time>2015-12-06T08:09:08Z</time>
      </trkpt>
      <trkpt lat="44.1098" lon="3.22436">
        <ele>717.5</ele>
        <time>2015-12-06T08:09:09Z</time>
      </trkpt>
      <trkpt lat="44.1098" lon="3.22438">
        <ele>717.5</ele>
        <time>2015-12-06T08:09:10Z</time>
      </trkpt>
      <trkpt lat="44.10981" lon="3.2244">
        <ele>717.5</ele>
        <time>2015-12-06T08:09:11Z</time>
      </trkpt>
      <trkpt lat="44.10981" lon="3.22443">
        <ele>717.5</ele>
        <time>2015-12-06T08:09:12Z</time>
      </trkpt>
      <trkpt lat="44.1098" lon="3.22445">
        <ele>717.5</ele>
        <time>2015-12-06T08:09:13Z</time>
      </trkpt>
      <trkpt lat="44.1098" lon="3.22447">
        <ele>717.5</ele>
        <time>2015-12-06T08:09:14Z</time>
      </trkpt>
      <trkpt lat="44.10979" lon="3.2245">
        <ele>717.5</ele>
        <time>2015-12-06T08:09:15Z</time>
      </trkpt>
      <trkpt lat="44.10978" lon="3.22453">
        <ele>717.5</ele>
        <time>2015-12-06T08:09:16Z</time>
      </trkpt>
      <trkpt lat="44.10977" lon="3.22455">
        <ele>717.5</ele>
        <time>2015-12-06T08:09:17Z</time>
      </trkpt>
      <trkpt lat="44.10976" lon="3.22458">
        <ele>717.5</ele>
        <time>2015-12-06T08:09:18Z</time>
      </trkpt>
      <trkpt lat="44.10976" lon="3.22461">
        <ele>717.5</ele>
        <time>2015-12-06T08:09:19Z</time>
      </trkpt>
      <trkpt lat="44.10975" lon="3.22463">
        <ele>717.5</ele>
        <time>2015-12-06T08:09:20Z</time>
      </trkpt>
      <trkpt lat="44.10975" lon="3.22466">
        <ele>717.5</ele>
        <time>2015-12-06T08:09:21Z</time>
      </trkpt>
      <trkpt lat="44.10975" lon="3.22469">
        <ele>717.5</ele>
        <time>2015-12-06T08:09:22Z</time>
      </trkpt>
      <trkpt lat="44.10975" lon="3.22471">
        <ele>718</ele>
        <time>2015-12-06T08:09:23Z</time>
      </trkpt>
      <trkpt lat="44.10975" lon="3.22474">
        <ele>718</ele>
        <time>2015-12-06T08:09:24Z</time>
      </trkpt>
      <trkpt lat="44.10975" lon="3.22476">
        <ele>718</ele>
        <time>2015-12-06T08:09:25Z</time>
      </trkpt>
      <trkpt lat="44.10975" lon="3.22479">
        <ele>718</ele>
        <time>2015-12-06T08:09:26Z</time>
      </trkpt>
      <trkpt lat="44.10975" lon="3.22481">
        <ele>718</ele>
        <time>2015-12-06T08:09:27Z</time>
      </trkpt>
      <trkpt lat="44.10975" lon="3.22483">
        <ele>718</ele>
        <time>2015-12-06T08:09:28Z</time>
      </trkpt>
      <trkpt lat="44.10975" lon="3.22485">
        <ele>718</ele>
        <time>2015-12-06T08:09:29Z</time>
      </trkpt>
      <trkpt lat="44.10975" lon="3.22487">
        <ele>718</ele>
        <time>2015-12-06T08:09:30Z</time>
      </trkpt>
      <trkpt lat="44.10975" lon="3.22488">
        <ele>718</ele>
        <time>2015-12-06T08:09:31Z</time>
      </trkpt>
      <trkpt lat="44.10974" lon="3.22491">
        <ele>718</ele>
        <time>2015-12-06T08:09:32Z</time>
      </trkpt>
      <trkpt lat="44.10972" lon="3.22492">
        <ele>718</ele>
        <time>2015-12-06T08:09:33Z</time>
      </trkpt>
      <trkpt lat="44.10971" lon="3.22494">
        <ele>718</ele>
        <time>2015-12-06T08:09:34Z</time>
      </trkpt>
      <trkpt lat="44.1097" lon="3.22497">
        <ele>718</ele>
        <time>2015-12-06T08:09:35Z</time>
      </trkpt>
      <trkpt lat="44.1097" lon="3.225">
        <ele>718</ele>
        <time>2015-12-06T08:09:36Z</time>
      </trkpt>
      <trkpt lat="44.1097" lon="3.22502">
        <ele>718</ele>
        <time>2015-12-06T08:09:37Z</time>
      </trkpt>
      <trkpt lat="44.1097" lon="3.22504">
        <ele>718</ele>
        <time>2015-12-06T08:09:38Z</time>
      </trkpt>
      <trkpt lat="44.10968" lon="3.22507">
        <ele>718</ele>
        <time>2015-12-06T08:09:39Z</time>
      </trkpt>
      <trkpt lat="44.10967" lon="3.2251">
        <ele>718</ele>
        <time>2015-12-06T08:09:40Z</time>
      </trkpt>
      <trkpt lat="44.10967" lon="3.22512">
        <ele>718.5</ele>
        <time>2015-12-06T08:09:41Z</time>
      </trkpt>
      <trkpt lat="44.10968" lon="3.22514">
        <ele>718.5</ele>
        <time>2015-12-06T08:09:42Z</time>
      </trkpt>
      <trkpt lat="44.10968" lon="3.22517">
        <ele>718.5</ele>
        <time>2015-12-06T08:09:43Z</time>
      </trkpt>
      <trkpt lat="44.10968" lon="3.22519">
        <ele>718.5</ele>
        <time>2015-12-06T08:09:44Z</time>
      </trkpt>
      <trkpt lat="44.10969" lon="3.22522">
        <ele>718.5</ele>
        <time>2015-12-06T08:09:45Z</time>
      </trkpt>
      <trkpt lat="44.10969" lon="3.22524">
        <ele>718.5</ele>
        <time>2015-12-06T08:09:46Z</time>
      </trkpt>
      <trkpt lat="44.10969" lon="3.22526">
        <ele>718.5</ele>
        <time>2015-12-06T08:09:47Z</time>
      </trkpt>
      <trkpt lat="44.10969" lon="3.22529">
        <ele>718.5</ele>
        <time>2015-12-06T08:09:48Z</time>
      </trkpt>
      <trkpt lat="44.10969" lon="3.22531">
        <ele>718.5</ele>
        <time>2015-12-06T08:09:49Z</time>
      </trkpt>
      <trkpt lat="44.10969" lon="3.22534">
        <ele>719</ele>
        <time>2015-12-06T08:09:50Z</time>
      </trkpt>
      <trkpt lat="44.10969" lon="3.22535">
        <ele>719</ele>
        <time>2015-12-06T08:09:51Z</time>
      </trkpt>
      <trkpt lat="44.10968" lon="3.22538">
        <ele>719</ele>
        <time>2015-12-06T08:09:52Z</time>
      </trkpt>
      <trkpt lat="44.10969" lon="3.22541">
        <ele>719</ele>
        <time>2015-12-06T08:09:53Z</time>
      </trkpt>
      <trkpt lat="44.10969" lon="3.22543">
        <ele>719</ele>
        <time>2015-12-06T08:09:54Z</time>
      </trkpt>
      <trkpt lat="44.10968" lon="3.22545">
        <ele>719</ele>
        <time>2015-12-06T08:09:54Z</time>
      </trkpt>
      <trkpt lat="44.10968" lon="3.22547">
        <ele>719</ele>
        <time>2015-12-06T08:09:55Z</time>
      </trkpt>
      <trkpt lat="44.10968" lon="3.22549">
        <ele>719</ele>
        <time>2015-12-06T08:09:57Z</time>
      </trkpt>
      <trkpt lat="44.10967" lon="3.22552">
        <ele>719</ele>
        <time>2015-12-06T08:09:57Z</time>
      </trkpt>
      <trkpt lat="44.10966" lon="3.22553">
        <ele>719</ele>
        <time>2015-12-06T08:09:58Z</time>
      </trkpt>
      <trkpt lat="44.10966" lon="3.22555">
        <ele>719</ele>
        <time>2015-12-06T08:09:59Z</time>
      </trkpt>
      <trkpt lat="44.10966" lon="3.22557">
        <ele>719</ele>
        <time>2015-12-06T08:10:00Z</time>
      </trkpt>
      <trkpt lat="44.10966" lon="3.2256">
        <ele>719</ele>
        <time>2015-12-06T08:10:01Z</time>
      </trkpt>
      <trkpt lat="44.10965" lon="3.22562">
        <ele>719.5</ele>
        <time>2015-12-06T08:10:03Z</time>
      </trkpt>
      <trkpt lat="44.10965" lon="3.22564">
        <ele>719.5</ele>
        <time>2015-12-06T08:10:03Z</time>
      </trkpt>
      <trkpt lat="44.10964" lon="3.22566">
        <ele>719.5</ele>
        <time>2015-12-06T08:10:04Z</time>
      </trkpt>
      <trkpt lat="44.10964" lon="3.22568">
        <ele>719.5</ele>
        <time>2015-12-06T08:10:05Z</time>
      </trkpt>
      <trkpt lat="44.10965" lon="3.2257">
        <ele>719.5</ele>
        <time>2015-12-06T08:10:06Z</time>
      </trkpt>
      <trkpt lat="44.10965" lon="3.22572">
        <ele>719.5</ele>
        <time>2015-12-06T08:10:07Z</time>
      </trkpt>
      <trkpt lat="44.10964" lon="3.22574">
        <ele>719.5</ele>
        <time>2015-12-06T08:10:08Z</time>
      </trkpt>
      <trkpt lat="44.10963" lon="3.22576">
        <ele>719.5</ele>
        <time>2015-12-06T08:10:09Z</time>
      </trkpt>
      <trkpt lat="44.10963" lon="3.22579">
        <ele>719.5</ele>
        <time>2015-12-06T08:10:10Z</time>
      </trkpt>
      <trkpt lat="44.10962" lon="3.22582">
        <ele>719.5</ele>
        <time>2015-12-06T08:10:11Z</time>
      </trkpt>
      <trkpt lat="44.10961" lon="3.22586">
        <ele>719.5</ele>
        <time>2015-12-06T08:10:12Z</time>
      </trkpt>
      <trkpt lat="44.1096" lon="3.22589">
        <ele>719.5</ele>
        <time>2015-12-06T08:10:13Z</time>
      </trkpt>
      <trkpt lat="44.10959" lon="3.22593">
        <ele>719.5</ele>
        <time>2015-12-06T08:10:14Z</time>
      </trkpt>
      <trkpt lat="44.10959" lon="3.22598">
        <ele>719.5</ele>
        <time>2015-12-06T08:10:15Z</time>
      </trkpt>
      <trkpt lat="44.10958" lon="3.22602">
        <ele>719.5</ele>
        <time>2015-12-06T08:10:16Z</time>
      </trkpt>
      <trkpt lat="44.10956" lon="3.22606">
        <ele>719.5</ele>
        <time>2015-12-06T08:10:17Z</time>
      </trkpt>
      <trkpt lat="44.10956" lon="3.22609">
        <ele>719.5</ele>
        <time>2015-12-06T08:10:18Z</time>
      </trkpt>
      <trkpt lat="44.10955" lon="3.2261">
        <ele>719.5</ele>
        <time>2015-12-06T08:10:19Z</time>
      </trkpt>
      <trkpt lat="44.10955" lon="3.22614">
        <ele>719.5</ele>
        <time>2015-12-06T08:10:20Z</time>
      </trkpt>
      <trkpt lat="44.10955" lon="3.22617">
        <ele>720</ele>
        <time>2015-12-06T08:10:21Z</time>
      </trkpt>
      <trkpt lat="44.10955" lon="3.22619">
        <ele>720</ele>
        <time>2015-12-06T08:10:22Z</time>
      </trkpt>
      <trkpt lat="44.10954" lon="3.22622">
        <ele>720</ele>
        <time>2015-12-06T08:10:23Z</time>
      </trkpt>
      <trkpt lat="44.10953" lon="3.22625">
        <ele>720</ele>
        <time>2015-12-06T08:10:24Z</time>
      </trkpt>
      <trkpt lat="44.10953" lon="3.22628">
        <ele>720</ele>
        <time>2015-12-06T08:10:25Z</time>
      </trkpt>
      <trkpt lat="44.10953" lon="3.22631">
        <ele>720</ele>
        <time>2015-12-06T08:10:26Z</time>
      </trkpt>
      <trkpt lat="44.10953" lon="3.22634">
        <ele>720</ele>
        <time>2015-12-06T08:10:27Z</time>
      </trkpt>
      <trkpt lat="44.10954" lon="3.22637">
        <ele>720</ele>
        <time>2015-12-06T08:10:28Z</time>
      </trkpt>
      <trkpt lat="44.10954" lon="3.2264">
        <ele>720</ele>
        <time>2015-12-06T08:10:29Z</time>
      </trkpt>
      <trkpt lat="44.10954" lon="3.22642">
        <ele>720</ele>
        <time>2015-12-06T08:10:30Z</time>
      </trkpt>
      <trkpt lat="44.10955" lon="3.22644">
        <ele>720</ele>
        <time>2015-12-06T08:10:31Z</time>
      </trkpt>
      <trkpt lat="44.10955" lon="3.22646">
        <ele>720</ele>
        <time>2015-12-06T08:10:32Z</time>
      </trkpt>
      <trkpt lat="44.10955" lon="3.22648">
        <ele>720</ele>
        <time>2015-12-06T08:10:33Z</time>
      </trkpt>
      <trkpt lat="44.10956" lon="3.22651">
        <ele>720</ele>
        <time>2015-12-06T08:10:34Z</time>
      </trkpt>
      <trkpt lat="44.10958" lon="3.22655">
        <ele>720</ele>
        <time>2015-12-06T08:10:36Z</time>
      </trkpt>
      <trkpt lat="44.10959" lon="3.22657">
        <ele>720</ele>
        <time>2015-12-06T08:10:37Z</time>
      </trkpt>
      <trkpt lat="44.10959" lon="3.2266">
        <ele>720.5</ele>
        <time>2015-12-06T08:10:38Z</time>
      </trkpt>
      <trkpt lat="44.10959" lon="3.22662">
        <ele>720.5</ele>
        <time>2015-12-06T08:10:39Z</time>
      </trkpt>
      <trkpt lat="44.10959" lon="3.22665">
        <ele>720.5</ele>
        <time>2015-12-06T08:10:40Z</time>
      </trkpt>
      <trkpt lat="44.10965" lon="3.22668">
        <ele>720.5</ele>
        <time>2015-12-06T08:10:42Z</time>
      </trkpt>
      <trkpt lat="44.10965" lon="3.2267">
        <ele>720.5</ele>
        <time>2015-12-06T08:10:43Z</time>
      </trkpt>
      <trkpt lat="44.10964" lon="3.22673">
        <ele>720.5</ele>
        <time>2015-12-06T08:10:44Z</time>
      </trkpt>
      <trkpt lat="44.10964" lon="3.22675">
        <ele>720.5</ele>
        <time>2015-12-06T08:10:45Z</time>
      </trkpt>
      <trkpt lat="44.10963" lon="3.22677">
        <ele>720.5</ele>
        <time>2015-12-06T08:10:46Z</time>
      </trkpt>
      <trkpt lat="44.10963" lon="3.22679">
        <ele>720.5</ele>
        <time>2015-12-06T08:10:47Z</time>
      </trkpt>
      <trkpt lat="44.10963" lon="3.22683">
        <ele>720.5</ele>
        <time>2015-12-06T08:10:48Z</time>
      </trkpt>
      <trkpt lat="44.10962" lon="3.22685">
        <ele>720.5</ele>
        <time>2015-12-06T08:10:49Z</time>
      </trkpt>
      <trkpt lat="44.10961" lon="3.22687">
        <ele>720.5</ele>
        <time>2015-12-06T08:10:50Z</time>
      </trkpt>
      <trkpt lat="44.10956" lon="3.22694">
        <ele>721</ele>
        <time>2015-12-06T08:10:52Z</time>
      </trkpt>
      <trkpt lat="44.10954" lon="3.22696">
        <ele>721</ele>
        <time>2015-12-06T08:10:53Z</time>
      </trkpt>
      <trkpt lat="44.10952" lon="3.22698">
        <ele>721</ele>
        <time>2015-12-06T08:10:54Z</time>
      </trkpt>
      <trkpt lat="44.1095" lon="3.22701">
        <ele>721</ele>
        <time>2015-12-06T08:10:55Z</time>
      </trkpt>
      <trkpt lat="44.10949" lon="3.22702">
        <ele>721</ele>
        <time>2015-12-06T08:10:56Z</time>
      </trkpt>
      <trkpt lat="44.10948" lon="3.22702">
        <ele>721</ele>
        <time>2015-12-06T08:10:57Z</time>
      </trkpt>
      <trkpt lat="44.10947" lon="3.22703">
        <ele>721</ele>
        <time>2015-12-06T08:10:58Z</time>
      </trkpt>
      <trkpt lat="44.10945" lon="3.22706">
        <ele>721</ele>
        <time>2015-12-06T08:10:59Z</time>
      </trkpt>
      <trkpt lat="44.10943" lon="3.22709">
        <ele>721</ele>
        <time>2015-12-06T08:11:00Z</time>
      </trkpt>
      <trkpt lat="44.10941" lon="3.22711">
        <ele>721</ele>
        <time>2015-12-06T08:11:01Z</time>
      </trkpt>
      <trkpt lat="44.10939" lon="3.22714">
        <ele>721</ele>
        <time>2015-12-06T08:11:02Z</time>
      </trkpt>
      <trkpt lat="44.10938" lon="3.22716">
        <ele>721</ele>
        <time>2015-12-06T08:11:03Z</time>
      </trkpt>
      <trkpt lat="44.10936" lon="3.22718">
        <ele>721</ele>
        <time>2015-12-06T08:11:04Z</time>
      </trkpt>
      <trkpt lat="44.10934" lon="3.22721">
        <ele>721</ele>
        <time>2015-12-06T08:11:05Z</time>
      </trkpt>
      <trkpt lat="44.10929" lon="3.22726">
        <ele>721</ele>
        <time>2015-12-06T08:11:07Z</time>
      </trkpt>
      <trkpt lat="44.10928" lon="3.22727">
        <ele>721</ele>
        <time>2015-12-06T08:11:08Z</time>
      </trkpt>
      <trkpt lat="44.10925" lon="3.22728">
        <ele>721</ele>
        <time>2015-12-06T08:11:09Z</time>
      </trkpt>
      <trkpt lat="44.10923" lon="3.2273">
        <ele>721</ele>
        <time>2015-12-06T08:11:10Z</time>
      </trkpt>
      <trkpt lat="44.1092" lon="3.22732">
        <ele>721</ele>
        <time>2015-12-06T08:11:11Z</time>
      </trkpt>
      <trkpt lat="44.10919" lon="3.22733">
        <ele>721</ele>
        <time>2015-12-06T08:11:12Z</time>
      </trkpt>
      <trkpt lat="44.10917" lon="3.22735">
        <ele>721</ele>
        <time>2015-12-06T08:11:13Z</time>
      </trkpt>
      <trkpt lat="44.10916" lon="3.22736">
        <ele>721.5</ele>
        <time>2015-12-06T08:11:14Z</time>
      </trkpt>
      <trkpt lat="44.10914" lon="3.22737">
        <ele>721.5</ele>
        <time>2015-12-06T08:11:15Z</time>
      </trkpt>
      <trkpt lat="44.10913" lon="3.22738">
        <ele>721.5</ele>
        <time>2015-12-06T08:11:16Z</time>
      </trkpt>
      <trkpt lat="44.10911" lon="3.2274">
        <ele>721.5</ele>
        <time>2015-12-06T08:11:17Z</time>
      </trkpt>
      <trkpt lat="44.10909" lon="3.22742">
        <ele>721.5</ele>
        <time>2015-12-06T08:11:18Z</time>
      </trkpt>
      <trkpt lat="44.10906" lon="3.22746">
        <ele>721.5</ele>
        <time>2015-12-06T08:11:20Z</time>
      </trkpt>
      <trkpt lat="44.10904" lon="3.22747">
        <ele>721.5</ele>
        <time>2015-12-06T08:11:21Z</time>
      </trkpt>
      <trkpt lat="44.10903" lon="3.22749">
        <ele>721.5</ele>
        <time>2015-12-06T08:11:22Z</time>
      </trkpt>
      <trkpt lat="44.10901" lon="3.2275">
        <ele>721.5</ele>
        <time>2015-12-06T08:11:23Z</time>
      </trkpt>
      <trkpt lat="44.10899" lon="3.22754">
        <ele>721.5</ele>
        <time>2015-12-06T08:11:24Z</time>
      </trkpt>
      <trkpt lat="44.10898" lon="3.22754">
        <ele>722</ele>
        <time>2015-12-06T08:11:25Z</time>
      </trkpt>
      <trkpt lat="44.10897" lon="3.22755">
        <ele>722</ele>
        <time>2015-12-06T08:11:26Z</time>
      </trkpt>
      <trkpt lat="44.10895" lon="3.22756">
        <ele>722</ele>
        <time>2015-12-06T08:11:27Z</time>
      </trkpt>
      <trkpt lat="44.10893" lon="3.2276">
        <ele>722</ele>
        <time>2015-12-06T08:11:28Z</time>
      </trkpt>
      <trkpt lat="44.10887" lon="3.2276">
        <ele>722</ele>
        <time>2015-12-06T08:11:30Z</time>
      </trkpt>
      <trkpt lat="44.10885" lon="3.22762">
        <ele>722</ele>
        <time>2015-12-06T08:11:31Z</time>
      </trkpt>
      <trkpt lat="44.10884" lon="3.22763">
        <ele>722</ele>
        <time>2015-12-06T08:11:32Z</time>
      </trkpt>
      <trkpt lat="44.10882" lon="3.22765">
        <ele>722</ele>
        <time>2015-12-06T08:11:33Z</time>
      </trkpt>
      <trkpt lat="44.1088" lon="3.22768">
        <ele>722</ele>
        <time>2015-12-06T08:11:34Z</time>
      </trkpt>
      <trkpt lat="44.10879" lon="3.22769">
        <ele>722</ele>
        <time>2015-12-06T08:11:35Z</time>
      </trkpt>
      <trkpt lat="44.10878" lon="3.22771">
        <ele>722</ele>
        <time>2015-12-06T08:11:36Z</time>
      </trkpt>
      <trkpt lat="44.10876" lon="3.22773">
        <ele>722</ele>
        <time>2015-12-06T08:11:37Z</time>
      </trkpt>
      <trkpt lat="44.10875" lon="3.22776">
        <ele>722</ele>
        <time>2015-12-06T08:11:38Z</time>
      </trkpt>
      <trkpt lat="44.10874" lon="3.22778">
        <ele>722</ele>
        <time>2015-12-06T08:11:39Z</time>
      </trkpt>
      <trkpt lat="44.10873" lon="3.22781">
        <ele>722</ele>
        <time>2015-12-06T08:11:40Z</time>
      </trkpt>
      <trkpt lat="44.10871" lon="3.22784">
        <ele>722.5</ele>
        <time>2015-12-06T08:11:41Z</time>
      </trkpt>
      <trkpt lat="44.10871" lon="3.22785">
        <ele>722.5</ele>
        <time>2015-12-06T08:11:42Z</time>
      </trkpt>
      <trkpt lat="44.1087" lon="3.22788">
        <ele>722.5</ele>
        <time>2015-12-06T08:11:43Z</time>
      </trkpt>
      <trkpt lat="44.10867" lon="3.22792">
        <ele>722.5</ele>
        <time>2015-12-06T08:11:44Z</time>
      </trkpt>
      <trkpt lat="44.10865" lon="3.22796">
        <ele>722.5</ele>
        <time>2015-12-06T08:11:45Z</time>
      </trkpt>
      <trkpt lat="44.10863" lon="3.22801">
        <ele>722.5</ele>
        <time>2015-12-06T08:11:46Z</time>
      </trkpt>
      <trkpt lat="44.10861" lon="3.22805">
        <ele>722.5</ele>
        <time>2015-12-06T08:11:47Z</time>
      </trkpt>
      <trkpt lat="44.10859" lon="3.2281">
        <ele>722.5</ele>
        <time>2015-12-06T08:11:48Z</time>
      </trkpt>
      <trkpt lat="44.10857" lon="3.22816">
        <ele>722.5</ele>
        <time>2015-12-06T08:11:49Z</time>
      </trkpt>
      <trkpt lat="44.10854" lon="3.22822">
        <ele>722.5</ele>
        <time>2015-12-06T08:11:50Z</time>
      </trkpt>
      <trkpt lat="44.10852" lon="3.22828">
        <ele>722.5</ele>
        <time>2015-12-06T08:11:51Z</time>
      </trkpt>
      <trkpt lat="44.10849" lon="3.22835">
        <ele>722.5</ele>
        <time>2015-12-06T08:11:52Z</time>
      </trkpt>
      <trkpt lat="44.10846" lon="3.22842">
        <ele>722.5</ele>
        <time>2015-12-06T08:11:53Z</time>
      </trkpt>
      <trkpt lat="44.10843" lon="3.22849">
        <ele>722.5</ele>
        <time>2015-12-06T08:11:54Z</time>
      </trkpt>
      <trkpt lat="44.10841" lon="3.22855">
        <ele>722.5</ele>
        <time>2015-12-06T08:11:55Z</time>
      </trkpt>
      <trkpt lat="44.10839" lon="3.22862">
        <ele>723</ele>
        <time>2015-12-06T08:11:56Z</time>
      </trkpt>
      <trkpt lat="44.10842" lon="3.22866">
        <ele>723</ele>
        <time>2015-12-06T08:11:57Z</time>
      </trkpt>
      <trkpt lat="44.10842" lon="3.22871">
        <ele>723</ele>
        <time>2015-12-06T08:11:58Z</time>
      </trkpt>
      <trkpt lat="44.10842" lon="3.22877">
        <ele>723</ele>
        <time>2015-12-06T08:11:59Z</time>
      </trkpt>
      <trkpt lat="44.10842" lon="3.22882">
        <ele>723</ele>
        <time>2015-12-06T08:12:00Z</time>
      </trkpt>
      <trkpt lat="44.10842" lon="3.22889">
        <ele>723</ele>
        <time>2015-12-06T08:12:01Z</time>
      </trkpt>
      <trkpt lat="44.10842" lon="3.22895">
        <ele>723</ele>
        <time>2015-12-06T08:12:02Z</time>
      </trkpt>
      <trkpt lat="44.10842" lon="3.22902">
        <ele>723</ele>
        <time>2015-12-06T08:12:03Z</time>
      </trkpt>
      <trkpt lat="44.10842" lon="3.22908">
        <ele>723</ele>
        <time>2015-12-06T08:12:04Z</time>
      </trkpt>
      <trkpt lat="44.10842" lon="3.22914">
        <ele>723</ele>
        <time>2015-12-06T08:12:05Z</time>
      </trkpt>
      <trkpt lat="44.10842" lon="3.2292">
        <ele>723</ele>
        <time>2015-12-06T08:12:06Z</time>
      </trkpt>
      <trkpt lat="44.10841" lon="3.22926">
        <ele>723</ele>
        <time>2015-12-06T08:12:07Z</time>
      </trkpt>
      <trkpt lat="44.10841" lon="3.22931">
        <ele>723</ele>
        <time>2015-12-06T08:12:08Z</time>
      </trkpt>
      <trkpt lat="44.10845" lon="3.22935">
        <ele>723</ele>
        <time>2015-12-06T08:12:09Z</time>
      </trkpt>
      <trkpt lat="44.10846" lon="3.22939">
        <ele>723.5</ele>
        <time>2015-12-06T08:12:10Z</time>
      </trkpt>
      <trkpt lat="44.10844" lon="3.22948">
        <ele>723.5</ele>
        <time>2015-12-06T08:12:12Z</time>
      </trkpt>
      <trkpt lat="44.10844" lon="3.22953">
        <ele>723.5</ele>
        <time>2015-12-06T08:12:13Z</time>
      </trkpt>
      <trkpt lat="44.10845" lon="3.22958">
        <ele>723.5</ele>
        <time>2015-12-06T08:12:14Z</time>
      </trkpt>
      <trkpt lat="44.10847" lon="3.22962">
        <ele>723.5</ele>
        <time>2015-12-06T08:12:15Z</time>
      </trkpt>
      <trkpt lat="44.10847" lon="3.22967">
        <ele>722.5</ele>
        <time>2015-12-06T08:12:16Z</time>
      </trkpt>
      <trkpt lat="44.10846" lon="3.22971">
        <ele>723</ele>
        <time>2015-12-06T08:12:17Z</time>
      </trkpt>
      <trkpt lat="44.10845" lon="3.22976">
        <ele>723.5</ele>
        <time>2015-12-06T08:12:18Z</time>
      </trkpt>
      <trkpt lat="44.10846" lon="3.2298">
        <ele>724</ele>
        <time>2015-12-06T08:12:19Z</time>
      </trkpt>
      <trkpt lat="44.10846" lon="3.22985">
        <ele>724.5</ele>
        <time>2015-12-06T08:12:20Z</time>
      </trkpt>
      <trkpt lat="44.1084" lon="3.22992">
        <ele>726</ele>
        <time>2015-12-06T08:12:22Z</time>
      </trkpt>
      <trkpt lat="44.10832" lon="3.22999">
        <ele>727</ele>
        <time>2015-12-06T08:12:24Z</time>
      </trkpt>
      <trkpt lat="44.10828" lon="3.23001">
        <ele>727.5</ele>
        <time>2015-12-06T08:12:25Z</time>
      </trkpt>
      <trkpt lat="44.10825" lon="3.23004">
        <ele>728</ele>
        <time>2015-12-06T08:12:26Z</time>
      </trkpt>
      <trkpt lat="44.10821" lon="3.23006">
        <ele>729</ele>
        <time>2015-12-06T08:12:27Z</time>
      </trkpt>
      <trkpt lat="44.1082" lon="3.2301">
        <ele>729</ele>
        <time>2015-12-06T08:12:28Z</time>
      </trkpt>
      <trkpt lat="44.10818" lon="3.23013">
        <ele>729</ele>
        <time>2015-12-06T08:12:29Z</time>
      </trkpt>
      <trkpt lat="44.10817" lon="3.23016">
        <ele>729</ele>
        <time>2015-12-06T08:12:30Z</time>
      </trkpt>
      <trkpt lat="44.10816" lon="3.2302">
        <ele>730</ele>
        <time>2015-12-06T08:12:31Z</time>
      </trkpt>
      <trkpt lat="44.10814" lon="3.23023">
        <ele>731</ele>
        <time>2015-12-06T08:12:32Z</time>
      </trkpt>
      <trkpt lat="44.10813" lon="3.23027">
        <ele>732</ele>
        <time>2015-12-06T08:12:33Z</time>
      </trkpt>
      <trkpt lat="44.10811" lon="3.23032">
        <ele>733</ele>
        <time>2015-12-06T08:12:34Z</time>
      </trkpt>
      <trkpt lat="44.1081" lon="3.23035">
        <ele>734.5</ele>
        <time>2015-12-06T08:12:35Z</time>
      </trkpt>
      <trkpt lat="44.10809" lon="3.23038">
        <ele>735</ele>
        <time>2015-12-06T08:12:36Z</time>
      </trkpt>
      <trkpt lat="44.10808" lon="3.23042">
        <ele>735.5</ele>
        <time>2015-12-06T08:12:37Z</time>
      </trkpt>
      <trkpt lat="44.10807" lon="3.23045">
        <ele>736.5</ele>
        <time>2015-12-06T08:12:38Z</time>
      </trkpt>
      <trkpt lat="44.10805" lon="3.23049">
        <ele>737</ele>
        <time>2015-12-06T08:12:39Z</time>
      </trkpt>
      <trkpt lat="44.10804" lon="3.23052">
        <ele>737.5</ele>
        <time>2015-12-06T08:12:40Z</time>
      </trkpt>
      <trkpt lat="44.10803" lon="3.23056">
        <ele>738.5</ele>
        <time>2015-12-06T08:12:41Z</time>
      </trkpt>
      <trkpt lat="44.10802" lon="3.2306">
        <ele>739</ele>
        <time>2015-12-06T08:12:42Z</time>
      </trkpt>
      <trkpt lat="44.10802" lon="3.23063">
        <ele>739.5</ele>
        <time>2015-12-06T08:12:43Z</time>
      </trkpt>
      <trkpt lat="44.10801" lon="3.23066">
        <ele>740</ele>
        <time>2015-12-06T08:12:44Z</time>
      </trkpt>
      <trkpt lat="44.10801" lon="3.2307">
        <ele>742</ele>
        <time>2015-12-06T08:12:45Z</time>
      </trkpt>
      <trkpt lat="44.10801" lon="3.23074">
        <ele>743.5</ele>
        <time>2015-12-06T08:12:46Z</time>
      </trkpt>
      <trkpt lat="44.108" lon="3.23076">
        <ele>744.5</ele>
        <time>2015-12-06T08:12:47Z</time>
      </trkpt>
      <trkpt lat="44.108" lon="3.23079">
        <ele>745</ele>
        <time>2015-12-06T08:12:48Z</time>
      </trkpt>
      <trkpt lat="44.10799" lon="3.23081">
        <ele>746</ele>
        <time>2015-12-06T08:12:49Z</time>
      </trkpt>
      <trkpt lat="44.10799" lon="3.23083">
        <ele>747</ele>
        <time>2015-12-06T08:12:50Z</time>
      </trkpt>
      <trkpt lat="44.10799" lon="3.23086">
        <ele>748</ele>
        <time>2015-12-06T08:12:51Z</time>
      </trkpt>
      <trkpt lat="44.10799" lon="3.23087">
        <ele>749</ele>
        <time>2015-12-06T08:12:52Z</time>
      </trkpt>
      <trkpt lat="44.10798" lon="3.2309">
        <ele>749.5</ele>
        <time>2015-12-06T08:12:53Z</time>
      </trkpt>
      <trkpt lat="44.10798" lon="3.23092">
        <ele>750.5</ele>
        <time>2015-12-06T08:12:54Z</time>
      </trkpt>
      <trkpt lat="44.10798" lon="3.23095">
        <ele>751.5</ele>
        <time>2015-12-06T08:12:55Z</time>
      </trkpt>
      <trkpt lat="44.10798" lon="3.23097">
        <ele>752</ele>
        <time>2015-12-06T08:12:56Z</time>
      </trkpt>
      <trkpt lat="44.10798" lon="3.231">
        <ele>753</ele>
        <time>2015-12-06T08:12:57Z</time>
      </trkpt>
      <trkpt lat="44.10798" lon="3.23103">
        <ele>754</ele>
        <time>2015-12-06T08:12:58Z</time>
      </trkpt>
      <trkpt lat="44.10798" lon="3.23106">
        <ele>754.5</ele>
        <time>2015-12-06T08:12:59Z</time>
      </trkpt>
      <trkpt lat="44.10798" lon="3.23108">
        <ele>756</ele>
        <time>2015-12-06T08:13:00Z</time>
      </trkpt>
      <trkpt lat="44.10798" lon="3.23111">
        <ele>757</ele>
        <time>2015-12-06T08:13:01Z</time>
      </trkpt>
      <trkpt lat="44.10799" lon="3.23114">
        <ele>758</ele>
        <time>2015-12-06T08:13:02Z</time>
      </trkpt>
      <trkpt lat="44.108" lon="3.23117">
        <ele>759.5</ele>
        <time>2015-12-06T08:13:03Z</time>
      </trkpt>
      <trkpt lat="44.108" lon="3.23119">
        <ele>760</ele>
        <time>2015-12-06T08:13:04Z</time>
      </trkpt>
      <trkpt lat="44.10801" lon="3.23123">
        <ele>762</ele>
        <time>2015-12-06T08:13:05Z</time>
      </trkpt>
      <trkpt lat="44.10801" lon="3.23126">
        <ele>764.5</ele>
        <time>2015-12-06T08:13:06Z</time>
      </trkpt>
      <trkpt lat="44.10801" lon="3.23129">
        <ele>765</ele>
        <time>2015-12-06T08:13:07Z</time>
      </trkpt>
      <trkpt lat="44.10801" lon="3.23131">
        <ele>765.5</ele>
        <time>2015-12-06T08:13:08Z</time>
      </trkpt>
      <trkpt lat="44.10802" lon="3.23134">
        <ele>766.5</ele>
        <time>2015-12-06T08:13:09Z</time>
      </trkpt>
      <trkpt lat="44.10802" lon="3.23135">
        <ele>767</ele>
        <time>2015-12-06T08:13:10Z</time>
      </trkpt>
      <trkpt lat="44.10802" lon="3.23137">
        <ele>767.5</ele>
        <time>2015-12-06T08:13:11Z</time>
      </trkpt>
      <trkpt lat="44.10802" lon="3.2314">
        <ele>768</ele>
        <time>2015-12-06T08:13:12Z</time>
      </trkpt>
      <trkpt lat="44.10802" lon="3.23142">
        <ele>768</ele>
        <time>2015-12-06T08:13:13Z</time>
      </trkpt>
      <trkpt lat="44.10802" lon="3.23144">
        <ele>769</ele>
        <time>2015-12-06T08:13:14Z</time>
      </trkpt>
      <trkpt lat="44.10802" lon="3.23146">
        <ele>769.5</ele>
        <time>2015-12-06T08:13:15Z</time>
      </trkpt>
      <trkpt lat="44.10801" lon="3.23148">
        <ele>770</ele>
        <time>2015-12-06T08:13:16Z</time>
      </trkpt>
      <trkpt lat="44.10801" lon="3.2315">
        <ele>771</ele>
        <time>2015-12-06T08:13:17Z</time>
      </trkpt>
      <trkpt lat="44.10801" lon="3.23152">
        <ele>771.5</ele>
        <time>2015-12-06T08:13:18Z</time>
      </trkpt>
      <trkpt lat="44.10801" lon="3.23155">
        <ele>772</ele>
        <time>2015-12-06T08:13:19Z</time>
      </trkpt>
      <trkpt lat="44.10801" lon="3.23158">
        <ele>773</ele>
        <time>2015-12-06T08:13:20Z</time>
      </trkpt>
      <trkpt lat="44.10802" lon="3.2316">
        <ele>775</ele>
        <time>2015-12-06T08:13:21Z</time>
      </trkpt>
      <trkpt lat="44.10802" lon="3.23163">
        <ele>775.5</ele>
        <time>2015-12-06T08:13:22Z</time>
      </trkpt>
      <trkpt lat="44.10802" lon="3.23164">
        <ele>775</ele>
        <time>2015-12-06T08:13:23Z</time>
      </trkpt>
      <trkpt lat="44.10802" lon="3.23166">
        <ele>776</ele>
        <time>2015-12-06T08:13:24Z</time>
      </trkpt>
      <trkpt lat="44.10803" lon="3.23168">
        <ele>777</ele>
        <time>2015-12-06T08:13:25Z</time>
      </trkpt>
      <trkpt lat="44.10804" lon="3.2317">
        <ele>778.5</ele>
        <time>2015-12-06T08:13:26Z</time>
      </trkpt>
      <trkpt lat="44.10805" lon="3.23173">
        <ele>780.5</ele>
        <time>2015-12-06T08:13:27Z</time>
      </trkpt>
      <trkpt lat="44.10806" lon="3.23175">
        <ele>782.5</ele>
        <time>2015-12-06T08:13:28Z</time>
      </trkpt>
      <trkpt lat="44.10806" lon="3.23177">
        <ele>783</ele>
        <time>2015-12-06T08:13:29Z</time>
      </trkpt>
      <trkpt lat="44.10806" lon="3.23179">
        <ele>783</ele>
        <time>2015-12-06T08:13:30Z</time>
      </trkpt>
      <trkpt lat="44.10806" lon="3.23181">
        <ele>784</ele>
        <time>2015-12-06T08:13:31Z</time>
      </trkpt>
      <trkpt lat="44.10806" lon="3.23183">
        <ele>784.5</ele>
        <time>2015-12-06T08:13:32Z</time>
      </trkpt>
      <trkpt lat="44.10806" lon="3.23185">
        <ele>784.5</ele>
        <time>2015-12-06T08:13:33Z</time>
      </trkpt>
      <trkpt lat="44.10806" lon="3.23187">
        <ele>785.5</ele>
        <time>2015-12-06T08:13:33Z</time>
      </trkpt>
      <trkpt lat="44.10806" lon="3.23189">
        <ele>785.5</ele>
        <time>2015-12-06T08:13:34Z</time>
      </trkpt>
      <trkpt lat="44.10806" lon="3.2319">
        <ele>786</ele>
        <time>2015-12-06T08:13:35Z</time>
      </trkpt>
      <trkpt lat="44.10806" lon="3.23192">
        <ele>786.5</ele>
        <time>2015-12-06T08:13:36Z</time>
      </trkpt>
      <trkpt lat="44.10806" lon="3.23195">
        <ele>787</ele>
        <time>2015-12-06T08:13:37Z</time>
      </trkpt>
      <trkpt lat="44.10806" lon="3.23197">
        <ele>787.5</ele>
        <time>2015-12-06T08:13:38Z</time>
      </trkpt>
      <trkpt lat="44.10806" lon="3.23199">
        <ele>788.5</ele>
        <time>2015-12-06T08:13:39Z</time>
      </trkpt>
      <trkpt lat="44.10805" lon="3.23201">
        <ele>789</ele>
        <time>2015-12-06T08:13:40Z</time>
      </trkpt>
      <trkpt lat="44.10804" lon="3.23204">
        <ele>789</ele>
        <time>2015-12-06T08:13:41Z</time>
      </trkpt>
      <trkpt lat="44.10804" lon="3.23206">
        <ele>789.5</ele>
        <time>2015-12-06T08:13:42Z</time>
      </trkpt>
      <trkpt lat="44.10803" lon="3.23208">
        <ele>789.5</ele>
        <time>2015-12-06T08:13:43Z</time>
      </trkpt>
      <trkpt lat="44.10802" lon="3.23211">
        <ele>789.5</ele>
        <time>2015-12-06T08:13:44Z</time>
      </trkpt>
      <trkpt lat="44.10801" lon="3.23214">
        <ele>790.5</ele>
        <time>2015-12-06T08:13:45Z</time>
      </trkpt>
      <trkpt lat="44.108" lon="3.23216">
        <ele>791</ele>
        <time>2015-12-06T08:13:46Z</time>
      </trkpt>
      <trkpt lat="44.108" lon="3.23219">
        <ele>791.5</ele>
        <time>2015-12-06T08:13:47Z</time>
      </trkpt>
      <trkpt lat="44.10799" lon="3.23222">
        <ele>792</ele>
        <time>2015-12-06T08:13:48Z</time>
      </trkpt>
      <trkpt lat="44.10798" lon="3.23224">
        <ele>792</ele>
        <time>2015-12-06T08:13:49Z</time>
      </trkpt>
      <trkpt lat="44.10798" lon="3.23226">
        <ele>792.5</ele>
        <time>2015-12-06T08:13:50Z</time>
      </trkpt>
      <trkpt lat="44.10798" lon="3.23228">
        <ele>792.5</ele>
        <time>2015-12-06T08:13:51Z</time>
      </trkpt>
      <trkpt lat="44.10797" lon="3.2323">
        <ele>792.5</ele>
        <time>2015-12-06T08:13:52Z</time>
      </trkpt>
      <trkpt lat="44.10797" lon="3.23232">
        <ele>792.5</ele>
        <time>2015-12-06T08:13:53Z</time>
      </trkpt>
      <trkpt lat="44.10798" lon="3.23234">
        <ele>792.5</ele>
        <time>2015-12-06T08:13:54Z</time>
      </trkpt>
      <trkpt lat="44.10798" lon="3.23236">
        <ele>792.5</ele>
        <time>2015-12-06T08:13:55Z</time>
      </trkpt>
      <trkpt lat="44.10797" lon="3.23238">
        <ele>793</ele>
        <time>2015-12-06T08:13:56Z</time>
      </trkpt>
      <trkpt lat="44.10797" lon="3.2324">
        <ele>793</ele>
        <time>2015-12-06T08:13:57Z</time>
      </trkpt>
      <trkpt lat="44.10797" lon="3.23242">
        <ele>793</ele>
        <time>2015-12-06T08:13:58Z</time>
      </trkpt>
      <trkpt lat="44.10797" lon="3.23244">
        <ele>793.5</ele>
        <time>2015-12-06T08:13:59Z</time>
      </trkpt>
      <trkpt lat="44.10797" lon="3.23245">
        <ele>793.5</ele>
        <time>2015-12-06T08:14:00Z</time>
      </trkpt>
      <trkpt lat="44.10797" lon="3.23247">
        <ele>793.5</ele>
        <time>2015-12-06T08:14:01Z</time>
      </trkpt>
      <trkpt lat="44.10796" lon="3.23249">
        <ele>794</ele>
        <time>2015-12-06T08:14:02Z</time>
      </trkpt>
      <trkpt lat="44.10796" lon="3.23252">
        <ele>794</ele>
        <time>2015-12-06T08:14:03Z</time>
      </trkpt>
      <trkpt lat="44.10796" lon="3.23255">
        <ele>794.5</ele>
        <time>2015-12-06T08:14:04Z</time>
      </trkpt>
      <trkpt lat="44.10795" lon="3.23255">
        <ele>794.5</ele>
        <time>2015-12-06T08:14:05Z</time>
      </trkpt>
      <trkpt lat="44.10793" lon="3.23256">
        <ele>794.5</ele>
        <time>2015-12-06T08:14:06Z</time>
      </trkpt>
      <trkpt lat="44.10792" lon="3.23257">
        <ele>794.5</ele>
        <time>2015-12-06T08:14:07Z</time>
      </trkpt>
      <trkpt lat="44.10792" lon="3.23259">
        <ele>794.5</ele>
        <time>2015-12-06T08:14:08Z</time>
      </trkpt>
      <trkpt lat="44.10795" lon="3.23264">
        <ele>795</ele>
        <time>2015-12-06T08:14:10Z</time>
      </trkpt>
      <trkpt lat="44.10795" lon="3.23266">
        <ele>795</ele>
        <time>2015-12-06T08:14:11Z</time>
      </trkpt>
      <trkpt lat="44.10797" lon="3.23268">
        <ele>795</ele>
        <time>2015-12-06T08:14:12Z</time>
      </trkpt>
      <trkpt lat="44.10798" lon="3.23271">
        <ele>795.5</ele>
        <time>2015-12-06T08:14:13Z</time>
      </trkpt>
      <trkpt lat="44.10799" lon="3.23273">
        <ele>795.5</ele>
        <time>2015-12-06T08:14:14Z</time>
      </trkpt>
      <trkpt lat="44.108" lon="3.23275">
        <ele>795.5</ele>
        <time>2015-12-06T08:14:15Z</time>
      </trkpt>
      <trkpt lat="44.10801" lon="3.23277">
        <ele>795.5</ele>
        <time>2015-12-06T08:14:16Z</time>
      </trkpt>
      <trkpt lat="44.10802" lon="3.2328">
        <ele>796</ele>
        <time>2015-12-06T08:14:17Z</time>
      </trkpt>
      <trkpt lat="44.10803" lon="3.23282">
        <ele>796.5</ele>
        <time>2015-12-06T08:14:18Z</time>
      </trkpt>
      <trkpt lat="44.10804" lon="3.23284">
        <ele>796.5</ele>
        <time>2015-12-06T08:14:19Z</time>
      </trkpt>
      <trkpt lat="44.10805" lon="3.23286">
        <ele>796.5</ele>
        <time>2015-12-06T08:14:20Z</time>
      </trkpt>
      <trkpt lat="44.10805" lon="3.23287">
        <ele>797.5</ele>
        <time>2015-12-06T08:14:21Z</time>
      </trkpt>
      <trkpt lat="44.10805" lon="3.23289">
        <ele>797.5</ele>
        <time>2015-12-06T08:14:22Z</time>
      </trkpt>
      <trkpt lat="44.10806" lon="3.23292">
        <ele>797.5</ele>
        <time>2015-12-06T08:14:23Z</time>
      </trkpt>
      <trkpt lat="44.10807" lon="3.23295">
        <ele>798</ele>
        <time>2015-12-06T08:14:24Z</time>
      </trkpt>
      <trkpt lat="44.10807" lon="3.23298">
        <ele>798.5</ele>
        <time>2015-12-06T08:14:25Z</time>
      </trkpt>
      <trkpt lat="44.10808" lon="3.233">
        <ele>799</ele>
        <time>2015-12-06T08:14:26Z</time>
      </trkpt>
      <trkpt lat="44.10808" lon="3.23303">
        <ele>799.5</ele>
        <time>2015-12-06T08:14:27Z</time>
      </trkpt>
      <trkpt lat="44.10808" lon="3.23306">
        <ele>800</ele>
        <time>2015-12-06T08:14:28Z</time>
      </trkpt>
      <trkpt lat="44.10809" lon="3.23309">
        <ele>801</ele>
        <time>2015-12-06T08:14:29Z</time>
      </trkpt>
      <trkpt lat="44.10808" lon="3.23312">
        <ele>802.5</ele>
        <time>2015-12-06T08:14:30Z</time>
      </trkpt>
      <trkpt lat="44.10807" lon="3.23316">
        <ele>804</ele>
        <time>2015-12-06T08:14:31Z</time>
      </trkpt>
      <trkpt lat="44.10808" lon="3.23319">
        <ele>804.5</ele>
        <time>2015-12-06T08:14:32Z</time>
      </trkpt>
      <trkpt lat="44.10808" lon="3.23321">
        <ele>805.5</ele>
        <time>2015-12-06T08:14:33Z</time>
      </trkpt>
      <trkpt lat="44.10809" lon="3.23324">
        <ele>806.5</ele>
        <time>2015-12-06T08:14:34Z</time>
      </trkpt>
      <trkpt lat="44.10809" lon="3.23327">
        <ele>807</ele>
        <time>2015-12-06T08:14:35Z</time>
      </trkpt>
      <trkpt lat="44.10814" lon="3.23335">
        <ele>807.5</ele>
        <time>2015-12-06T08:14:37Z</time>
      </trkpt>
      <trkpt lat="44.10816" lon="3.23338">
        <ele>808</ele>
        <time>2015-12-06T08:14:38Z</time>
      </trkpt>
      <trkpt lat="44.10815" lon="3.23342">
        <ele>808</ele>
        <time>2015-12-06T08:14:40Z</time>
      </trkpt>
      <trkpt lat="44.10814" lon="3.23344">
        <ele>808</ele>
        <time>2015-12-06T08:14:41Z</time>
      </trkpt>
      <trkpt lat="44.10813" lon="3.23345">
        <ele>808.5</ele>
        <time>2015-12-06T08:14:42Z</time>
      </trkpt>
      <trkpt lat="44.10812" lon="3.23347">
        <ele>808.5</ele>
        <time>2015-12-06T08:14:43Z</time>
      </trkpt>
      <trkpt lat="44.10811" lon="3.2335">
        <ele>809.5</ele>
        <time>2015-12-06T08:14:44Z</time>
      </trkpt>
      <trkpt lat="44.1081" lon="3.23351">
        <ele>809.5</ele>
        <time>2015-12-06T08:14:45Z</time>
      </trkpt>
      <trkpt lat="44.10811" lon="3.23353">
        <ele>810</ele>
        <time>2015-12-06T08:14:46Z</time>
      </trkpt>
      <trkpt lat="44.10812" lon="3.23356">
        <ele>810</ele>
        <time>2015-12-06T08:14:47Z</time>
      </trkpt>
      <trkpt lat="44.10812" lon="3.23359">
        <ele>810.5</ele>
        <time>2015-12-06T08:14:48Z</time>
      </trkpt>
      <trkpt lat="44.10812" lon="3.23361">
        <ele>810.5</ele>
        <time>2015-12-06T08:14:49Z</time>
      </trkpt>
      <trkpt lat="44.10812" lon="3.23364">
        <ele>810.5</ele>
        <time>2015-12-06T08:14:50Z</time>
      </trkpt>
      <trkpt lat="44.10811" lon="3.23366">
        <ele>810.5</ele>
        <time>2015-12-06T08:14:51Z</time>
      </trkpt>
      <trkpt lat="44.10811" lon="3.23369">
        <ele>811</ele>
        <time>2015-12-06T08:14:52Z</time>
      </trkpt>
      <trkpt lat="44.1081" lon="3.23371">
        <ele>811</ele>
        <time>2015-12-06T08:14:53Z</time>
      </trkpt>
      <trkpt lat="44.1081" lon="3.23374">
        <ele>811.5</ele>
        <time>2015-12-06T08:14:54Z</time>
      </trkpt>
      <trkpt lat="44.10809" lon="3.23376">
        <ele>811.5</ele>
        <time>2015-12-06T08:14:55Z</time>
      </trkpt>
      <trkpt lat="44.10809" lon="3.23378">
        <ele>812</ele>
        <time>2015-12-06T08:14:56Z</time>
      </trkpt>
      <trkpt lat="44.10809" lon="3.23381">
        <ele>812</ele>
        <time>2015-12-06T08:14:57Z</time>
      </trkpt>
      <trkpt lat="44.1081" lon="3.23384">
        <ele>812</ele>
        <time>2015-12-06T08:14:58Z</time>
      </trkpt>
      <trkpt lat="44.10811" lon="3.23386">
        <ele>812.5</ele>
        <time>2015-12-06T08:14:59Z</time>
      </trkpt>
      <trkpt lat="44.10811" lon="3.23389">
        <ele>813.5</ele>
        <time>2015-12-06T08:15:00Z</time>
      </trkpt>
      <trkpt lat="44.10811" lon="3.23391">
        <ele>813.5</ele>
        <time>2015-12-06T08:15:01Z</time>
      </trkpt>
      <trkpt lat="44.10811" lon="3.23393">
        <ele>814</ele>
        <time>2015-12-06T08:15:02Z</time>
      </trkpt>
      <trkpt lat="44.1081" lon="3.23396">
        <ele>815</ele>
        <time>2015-12-06T08:15:03Z</time>
      </trkpt>
      <trkpt lat="44.1081" lon="3.23398">
        <ele>815.5</ele>
        <time>2015-12-06T08:15:04Z</time>
      </trkpt>
      <trkpt lat="44.10809" lon="3.234">
        <ele>816</ele>
        <time>2015-12-06T08:15:05Z</time>
      </trkpt>
      <trkpt lat="44.1081" lon="3.23403">
        <ele>816</ele>
        <time>2015-12-06T08:15:06Z</time>
      </trkpt>
      <trkpt lat="44.10809" lon="3.23405">
        <ele>816</ele>
        <time>2015-12-06T08:15:07Z</time>
      </trkpt>
      <trkpt lat="44.10809" lon="3.23407">
        <ele>816.5</ele>
        <time>2015-12-06T08:15:08Z</time>
      </trkpt>
      <trkpt lat="44.10809" lon="3.23409">
        <ele>816.5</ele>
        <time>2015-12-06T08:15:09Z</time>
      </trkpt>
      <trkpt lat="44.10811" lon="3.23412">
        <ele>816.5</ele>
        <time>2015-12-06T08:15:11Z</time>
      </trkpt>
      <trkpt lat="44.10811" lon="3.23413">
        <ele>816.5</ele>
        <time>2015-12-06T08:15:12Z</time>
      </trkpt>
      <trkpt lat="44.10811" lon="3.23416">
        <ele>816.5</ele>
        <time>2015-12-06T08:15:13Z</time>
      </trkpt>
      <trkpt lat="44.1081" lon="3.23418">
        <ele>816.5</ele>
        <time>2015-12-06T08:15:14Z</time>
      </trkpt>
      <trkpt lat="44.1081" lon="3.2342">
        <ele>816.5</ele>
        <time>2015-12-06T08:15:15Z</time>
      </trkpt>
      <trkpt lat="44.10807" lon="3.2342">
        <ele>816.5</ele>
        <time>2015-12-06T08:15:16Z</time>
      </trkpt>
      <trkpt lat="44.10806" lon="3.23423">
        <ele>816.5</ele>
        <time>2015-12-06T08:15:17Z</time>
      </trkpt>
      <trkpt lat="44.10805" lon="3.23425">
        <ele>816.5</ele>
        <time>2015-12-06T08:15:18Z</time>
      </trkpt>
      <trkpt lat="44.10805" lon="3.23427">
        <ele>816.5</ele>
        <time>2015-12-06T08:15:19Z</time>
      </trkpt>
      <trkpt lat="44.10805" lon="3.23429">
        <ele>816.5</ele>
        <time>2015-12-06T08:15:20Z</time>
      </trkpt>
      <trkpt lat="44.10805" lon="3.23431">
        <ele>816</ele>
        <time>2015-12-06T08:15:21Z</time>
      </trkpt>
      <trkpt lat="44.10804" lon="3.23434">
        <ele>815.5</ele>
        <time>2015-12-06T08:15:22Z</time>
      </trkpt>
      <trkpt lat="44.10804" lon="3.23436">
        <ele>816.5</ele>
        <time>2015-12-06T08:15:23Z</time>
      </trkpt>
      <trkpt lat="44.10803" lon="3.23439">
        <ele>817</ele>
        <time>2015-12-06T08:15:24Z</time>
      </trkpt>
      <trkpt lat="44.10802" lon="3.23441">
        <ele>816.5</ele>
        <time>2015-12-06T08:15:25Z</time>
      </trkpt>
      <trkpt lat="44.10802" lon="3.23443">
        <ele>816</ele>
        <time>2015-12-06T08:15:26Z</time>
      </trkpt>
      <trkpt lat="44.10802" lon="3.23445">
        <ele>816.5</ele>
        <time>2015-12-06T08:15:27Z</time>
      </trkpt>
      <trkpt lat="44.10802" lon="3.23448">
        <ele>818</ele>
        <time>2015-12-06T08:15:28Z</time>
      </trkpt>
      <trkpt lat="44.10802" lon="3.23451">
        <ele>819</ele>
        <time>2015-12-06T08:15:29Z</time>
      </trkpt>
      <trkpt lat="44.10802" lon="3.23454">
        <ele>819.5</ele>
        <time>2015-12-06T08:15:30Z</time>
      </trkpt>
      <trkpt lat="44.10802" lon="3.23456">
        <ele>820</ele>
        <time>2015-12-06T08:15:31Z</time>
      </trkpt>
      <trkpt lat="44.10803" lon="3.23458">
        <ele>821</ele>
        <time>2015-12-06T08:15:32Z</time>
      </trkpt>
      <trkpt lat="44.10804" lon="3.23461">
        <ele>821</ele>
        <time>2015-12-06T08:15:33Z</time>
      </trkpt>
      <trkpt lat="44.10804" lon="3.23463">
        <ele>822</ele>
        <time>2015-12-06T08:15:34Z</time>
      </trkpt>
      <trkpt lat="44.10804" lon="3.23466">
        <ele>823</ele>
        <time>2015-12-06T08:15:35Z</time>
      </trkpt>
      <trkpt lat="44.10806" lon="3.23468">
        <ele>824</ele>
        <time>2015-12-06T08:15:36Z</time>
      </trkpt>
      <trkpt lat="44.10807" lon="3.2347">
        <ele>824</ele>
        <time>2015-12-06T08:15:37Z</time>
      </trkpt>
      <trkpt lat="44.10805" lon="3.23473">
        <ele>823.5</ele>
        <time>2015-12-06T08:15:38Z</time>
      </trkpt>
      <trkpt lat="44.10805" lon="3.23475">
        <ele>824.5</ele>
        <time>2015-12-06T08:15:39Z</time>
      </trkpt>
      <trkpt lat="44.10807" lon="3.23477">
        <ele>825</ele>
        <time>2015-12-06T08:15:40Z</time>
      </trkpt>
      <trkpt lat="44.10807" lon="3.23479">
        <ele>825.5</ele>
        <time>2015-12-06T08:15:41Z</time>
      </trkpt>
      <trkpt lat="44.10807" lon="3.2348">
        <ele>826.5</ele>
        <time>2015-12-06T08:15:42Z</time>
      </trkpt>
      <trkpt lat="44.10808" lon="3.23482">
        <ele>827.5</ele>
        <time>2015-12-06T08:15:43Z</time>
      </trkpt>
      <trkpt lat="44.10808" lon="3.23483">
        <ele>827.5</ele>
        <time>2015-12-06T08:15:44Z</time>
      </trkpt>
      <trkpt lat="44.10809" lon="3.23483">
        <ele>828</ele>
        <time>2015-12-06T08:15:45Z</time>
      </trkpt>
      <trkpt lat="44.1081" lon="3.23484">
        <ele>828.5</ele>
        <time>2015-12-06T08:15:46Z</time>
      </trkpt>
      <trkpt lat="44.1081" lon="3.23484">
        <ele>829.5</ele>
        <time>2015-12-06T08:15:47Z</time>
      </trkpt>
      <trkpt lat="44.10812" lon="3.23484">
        <ele>829.5</ele>
        <time>2015-12-06T08:15:48Z</time>
      </trkpt>
      <trkpt lat="44.10813" lon="3.23483">
        <ele>830</ele>
        <time>2015-12-06T08:15:49Z</time>
      </trkpt>
      <trkpt lat="44.10815" lon="3.23483">
        <ele>830</ele>
        <time>2015-12-06T08:15:50Z</time>
      </trkpt>
      <trkpt lat="44.10817" lon="3.23483">
        <ele>830.5</ele>
        <time>2015-12-06T08:15:51Z</time>
      </trkpt>
      <trkpt lat="44.10819" lon="3.23483">
        <ele>830.5</ele>
        <time>2015-12-06T08:15:52Z</time>
      </trkpt>
      <trkpt lat="44.10821" lon="3.23484">
        <ele>830.5</ele>
        <time>2015-12-06T08:15:53Z</time>
      </trkpt>
      <trkpt lat="44.10823" lon="3.23484">
        <ele>830.5</ele>
        <time>2015-12-06T08:15:54Z</time>
      </trkpt>
      <trkpt lat="44.10824" lon="3.23484">
        <ele>830.5</ele>
        <time>2015-12-06T08:15:55Z</time>
      </trkpt>
      <trkpt lat="44.10826" lon="3.23485">
        <ele>830.5</ele>
        <time>2015-12-06T08:15:56Z</time>
      </trkpt>
      <trkpt lat="44.10827" lon="3.23486">
        <ele>830.5</ele>
        <time>2015-12-06T08:15:57Z</time>
      </trkpt>
      <trkpt lat="44.10824" lon="3.23484">
        <ele>831.5</ele>
        <time>2015-12-06T08:16:00Z</time>
      </trkpt>
      <trkpt lat="44.10824" lon="3.23491">
        <ele>832</ele>
        <time>2015-12-06T08:16:19Z</time>
      </trkpt>
      <trkpt lat="44.10824" lon="3.23493">
        <ele>832</ele>
        <time>2015-12-06T08:16:20Z</time>
      </trkpt>
      <trkpt lat="44.10823" lon="3.23493">
        <ele>832</ele>
        <time>2015-12-06T08:16:21Z</time>
      </trkpt>
      <trkpt lat="44.10824" lon="3.23494">
        <ele>832.5</ele>
        <time>2015-12-06T08:16:22Z</time>
      </trkpt>
      <trkpt lat="44.10825" lon="3.23494">
        <ele>832.5</ele>
        <time>2015-12-06T08:16:24Z</time>
      </trkpt>
      <trkpt lat="44.10826" lon="3.23494">
        <ele>832.5</ele>
        <time>2015-12-06T08:16:25Z</time>
      </trkpt>
      <trkpt lat="44.10827" lon="3.23493">
        <ele>832.5</ele>
        <time>2015-12-06T08:16:26Z</time>
      </trkpt>
      <trkpt lat="44.10829" lon="3.23493">
        <ele>832.5</ele>
        <time>2015-12-06T08:16:27Z</time>
      </trkpt>
      <trkpt lat="44.1083" lon="3.23491">
        <ele>832.5</ele>
        <time>2015-12-06T08:16:28Z</time>
      </trkpt>
      <trkpt lat="44.10829" lon="3.23492">
        <ele>832.5</ele>
        <time>2015-12-06T08:16:31Z</time>
      </trkpt>
      <trkpt lat="44.10829" lon="3.23492">
        <ele>832.5</ele>
        <time>2015-12-06T08:16:34Z</time>
      </trkpt>
      <trkpt lat="44.1083" lon="3.23494">
        <ele>833.5</ele>
        <time>2015-12-06T08:16:38Z</time>
      </trkpt>
      <trkpt lat="44.10834" lon="3.23494">
        <ele>833</ele>
        <time>2015-12-06T08:17:10Z</time>
      </trkpt>
      <trkpt lat="44.10832" lon="3.23495">
        <ele>833.5</ele>
        <time>2015-12-06T08:16:41Z</time>
      </trkpt>
      <trkpt lat="44.10831" lon="3.23496">
        <ele>833</ele>
        <time>2015-12-06T08:16:45Z</time>
      </trkpt>
      <trkpt lat="44.10831" lon="3.23496">
        <ele>833</ele>
        <time>2015-12-06T08:16:46Z</time>
      </trkpt>
      <trkpt lat="44.10831" lon="3.23498">
        <ele>834</ele>
        <time>2015-12-06T08:16:25Z</time>
      </trkpt>
      <trkpt lat="44.10832" lon="3.23498">
        <ele>834</ele>
        <time>2015-12-06T08:16:28Z</time>
      </trkpt>
      <trkpt lat="44.10836" lon="3.23498">
        <ele>833.5</ele>
        <time>2015-12-06T08:16:41Z</time>
      </trkpt>
      <trkpt lat="44.10836" lon="3.23498">
        <ele>833.5</ele>
        <time>2015-12-06T08:16:42Z</time>
      </trkpt>
      <trkpt lat="44.10837" lon="3.235">
        <ele>833.5</ele>
        <time>2015-12-06T08:16:43Z</time>
      </trkpt>
      <trkpt lat="44.10839" lon="3.23501">
        <ele>833.5</ele>
        <time>2015-12-06T08:16:44Z</time>
      </trkpt>
      <trkpt lat="44.1084" lon="3.23503">
        <ele>833.5</ele>
        <time>2015-12-06T08:16:45Z</time>
      </trkpt>
      <trkpt lat="44.10842" lon="3.23505">
        <ele>833.5</ele>
        <time>2015-12-06T08:16:46Z</time>
      </trkpt>
      <trkpt lat="44.10843" lon="3.23507">
        <ele>833.5</ele>
        <time>2015-12-06T08:16:47Z</time>
      </trkpt>
      <trkpt lat="44.10844" lon="3.23508">
        <ele>834</ele>
        <time>2015-12-06T08:16:48Z</time>
      </trkpt>
      <trkpt lat="44.10845" lon="3.23511">
        <ele>834.5</ele>
        <time>2015-12-06T08:16:49Z</time>
      </trkpt>
      <trkpt lat="44.10846" lon="3.23513">
        <ele>834.5</ele>
        <time>2015-12-06T08:16:50Z</time>
      </trkpt>
      <trkpt lat="44.10847" lon="3.23515">
        <ele>834.5</ele>
        <time>2015-12-06T08:16:51Z</time>
      </trkpt>
      <trkpt lat="44.10848" lon="3.23518">
        <ele>834.5</ele>
        <time>2015-12-06T08:16:52Z</time>
      </trkpt>
      <trkpt lat="44.10849" lon="3.2352">
        <ele>834.5</ele>
        <time>2015-12-06T08:16:53Z</time>
      </trkpt>
      <trkpt lat="44.10851" lon="3.23522">
        <ele>834.5</ele>
        <time>2015-12-06T08:16:54Z</time>
      </trkpt>
      <trkpt lat="44.10852" lon="3.23524">
        <ele>834.5</ele>
        <time>2015-12-06T08:16:55Z</time>
      </trkpt>
      <trkpt lat="44.10854" lon="3.23526">
        <ele>834.5</ele>
        <time>2015-12-06T08:16:56Z</time>
      </trkpt>
      <trkpt lat="44.10855" lon="3.23527">
        <ele>834</ele>
        <time>2015-12-06T08:16:57Z</time>
      </trkpt>
      <trkpt lat="44.10854" lon="3.23527">
        <ele>834.5</ele>
        <time>2015-12-06T08:17:03Z</time>
      </trkpt>
      <trkpt lat="44.10854" lon="3.23529">
        <ele>835</ele>
        <time>2015-12-06T08:17:06Z</time>
      </trkpt>
      <trkpt lat="44.10855" lon="3.23531">
        <ele>835</ele>
        <time>2015-12-06T08:17:07Z</time>
      </trkpt>
      <trkpt lat="44.10857" lon="3.23532">
        <ele>835</ele>
        <time>2015-12-06T08:17:08Z</time>
      </trkpt>
      <trkpt lat="44.10859" lon="3.23534">
        <ele>835</ele>
        <time>2015-12-06T08:17:09Z</time>
      </trkpt>
      <trkpt lat="44.10862" lon="3.23535">
        <ele>835</ele>
        <time>2015-12-06T08:17:10Z</time>
      </trkpt>
      <trkpt lat="44.10866" lon="3.23535">
        <ele>835</ele>
        <time>2015-12-06T08:17:11Z</time>
      </trkpt>
      <trkpt lat="44.10869" lon="3.23534">
        <ele>835</ele>
        <time>2015-12-06T08:17:12Z</time>
      </trkpt>
      <trkpt lat="44.10873" lon="3.23533">
        <ele>835</ele>
        <time>2015-12-06T08:17:13Z</time>
      </trkpt>
      <trkpt lat="44.10878" lon="3.23532">
        <ele>835.5</ele>
        <time>2015-12-06T08:17:14Z</time>
      </trkpt>
      <trkpt lat="44.10882" lon="3.23531">
        <ele>835.5</ele>
        <time>2015-12-06T08:17:15Z</time>
      </trkpt>
      <trkpt lat="44.10887" lon="3.2353">
        <ele>835.5</ele>
        <time>2015-12-06T08:17:16Z</time>
      </trkpt>
      <trkpt lat="44.10892" lon="3.23529">
        <ele>836</ele>
        <time>2015-12-06T08:17:17Z</time>
      </trkpt>
      <trkpt lat="44.10897" lon="3.23529">
        <ele>836</ele>
        <time>2015-12-06T08:17:18Z</time>
      </trkpt>
      <trkpt lat="44.10902" lon="3.23529">
        <ele>836</ele>
        <time>2015-12-06T08:17:19Z</time>
      </trkpt>
      <trkpt lat="44.10908" lon="3.23528">
        <ele>836</ele>
        <time>2015-12-06T08:17:20Z</time>
      </trkpt>
      <trkpt lat="44.10913" lon="3.23527">
        <ele>836</ele>
        <time>2015-12-06T08:17:21Z</time>
      </trkpt>
      <trkpt lat="44.10917" lon="3.23525">
        <ele>835.5</ele>
        <time>2015-12-06T08:17:22Z</time>
      </trkpt>
      <trkpt lat="44.1092" lon="3.23525">
        <ele>835.5</ele>
        <time>2015-12-06T08:17:23Z</time>
      </trkpt>
      <trkpt lat="44.10923" lon="3.23525">
        <ele>835.5</ele>
        <time>2015-12-06T08:17:24Z</time>
      </trkpt>
      <trkpt lat="44.10924" lon="3.23527">
        <ele>836</ele>
        <time>2015-12-06T08:17:25Z</time>
      </trkpt>
      <trkpt lat="44.10924" lon="3.23529">
        <ele>836</ele>
        <time>2015-12-06T08:17:26Z</time>
      </trkpt>
      <trkpt lat="44.10925" lon="3.23532">
        <ele>835.5</ele>
        <time>2015-12-06T08:17:27Z</time>
      </trkpt>
      <trkpt lat="44.10925" lon="3.23535">
        <ele>835.5</ele>
        <time>2015-12-06T08:17:27Z</time>
      </trkpt>
      <trkpt lat="44.10925" lon="3.23539">
        <ele>834.5</ele>
        <time>2015-12-06T08:17:28Z</time>
      </trkpt>
      <trkpt lat="44.10925" lon="3.23545">
        <ele>833.5</ele>
        <time>2015-12-06T08:17:29Z</time>
      </trkpt>
      <trkpt lat="44.10928" lon="3.2355">
        <ele>832.5</ele>
        <time>2015-12-06T08:17:30Z</time>
      </trkpt>
      <trkpt lat="44.10929" lon="3.23556">
        <ele>831</ele>
        <time>2015-12-06T08:17:31Z</time>
      </trkpt>
      <trkpt lat="44.10932" lon="3.23562">
        <ele>831</ele>
        <time>2015-12-06T08:17:32Z</time>
      </trkpt>
      <trkpt lat="44.10935" lon="3.23568">
        <ele>831</ele>
        <time>2015-12-06T08:17:33Z</time>
      </trkpt>
      <trkpt lat="44.10937" lon="3.23574">
        <ele>831</ele>
        <time>2015-12-06T08:17:34Z</time>
      </trkpt>
      <trkpt lat="44.10939" lon="3.23581">
        <ele>830.5</ele>
        <time>2015-12-06T08:17:35Z</time>
      </trkpt>
      <trkpt lat="44.10941" lon="3.23587">
        <ele>829.5</ele>
        <time>2015-12-06T08:17:36Z</time>
      </trkpt>
      <trkpt lat="44.10943" lon="3.23594">
        <ele>828.5</ele>
        <time>2015-12-06T08:17:37Z</time>
      </trkpt>
      <trkpt lat="44.10945" lon="3.236">
        <ele>828.5</ele>
        <time>2015-12-06T08:17:38Z</time>
      </trkpt>
      <trkpt lat="44.10947" lon="3.23607">
        <ele>828.5</ele>
        <time>2015-12-06T08:17:39Z</time>
      </trkpt>
      <trkpt lat="44.10947" lon="3.23613">
        <ele>828.5</ele>
        <time>2015-12-06T08:17:40Z</time>
      </trkpt>
      <trkpt lat="44.10949" lon="3.2362">
        <ele>828</ele>
        <time>2015-12-06T08:17:41Z</time>
      </trkpt>
      <trkpt lat="44.10949" lon="3.23627">
        <ele>827.5</ele>
        <time>2015-12-06T08:17:42Z</time>
      </trkpt>
      <trkpt lat="44.1095" lon="3.23633">
        <ele>827</ele>
        <time>2015-12-06T08:17:43Z</time>
      </trkpt>
      <trkpt lat="44.10952" lon="3.2364">
        <ele>827.5</ele>
        <time>2015-12-06T08:17:44Z</time>
      </trkpt>
      <trkpt lat="44.10954" lon="3.23647">
        <ele>827.5</ele>
        <time>2015-12-06T08:17:45Z</time>
      </trkpt>
      <trkpt lat="44.10957" lon="3.23654">
        <ele>828</ele>
        <time>2015-12-06T08:17:46Z</time>
      </trkpt>
      <trkpt lat="44.10958" lon="3.23661">
        <ele>827.5</ele>
        <time>2015-12-06T08:17:47Z</time>
      </trkpt>
      <trkpt lat="44.10961" lon="3.23668">
        <ele>827.5</ele>
        <time>2015-12-06T08:17:48Z</time>
      </trkpt>
      <trkpt lat="44.10962" lon="3.23675">
        <ele>827.5</ele>
        <time>2015-12-06T08:17:49Z</time>
      </trkpt>
      <trkpt lat="44.10963" lon="3.23682">
        <ele>827</ele>
        <time>2015-12-06T08:17:50Z</time>
      </trkpt>
      <trkpt lat="44.10966" lon="3.23688">
        <ele>827</ele>
        <time>2015-12-06T08:17:51Z</time>
      </trkpt>
      <trkpt lat="44.10966" lon="3.23693">
        <ele>826.5</ele>
        <time>2015-12-06T08:17:52Z</time>
      </trkpt>
      <trkpt lat="44.10966" lon="3.23698">
        <ele>826</ele>
        <time>2015-12-06T08:17:53Z</time>
      </trkpt>
      <trkpt lat="44.10966" lon="3.23704">
        <ele>826</ele>
        <time>2015-12-06T08:17:54Z</time>
      </trkpt>
      <trkpt lat="44.10966" lon="3.23709">
        <ele>826.5</ele>
        <time>2015-12-06T08:17:55Z</time>
      </trkpt>
      <trkpt lat="44.10966" lon="3.23715">
        <ele>826</ele>
        <time>2015-12-06T08:17:56Z</time>
      </trkpt>
      <trkpt lat="44.10966" lon="3.2372">
        <ele>826</ele>
        <time>2015-12-06T08:17:57Z</time>
      </trkpt>
      <trkpt lat="44.10964" lon="3.23726">
        <ele>826</ele>
        <time>2015-12-06T08:17:58Z</time>
      </trkpt>
      <trkpt lat="44.10963" lon="3.23732">
        <ele>826</ele>
        <time>2015-12-06T08:17:59Z</time>
      </trkpt>
      <trkpt lat="44.10961" lon="3.23738">
        <ele>826</ele>
        <time>2015-12-06T08:18:00Z</time>
      </trkpt>
      <trkpt lat="44.10959" lon="3.23744">
        <ele>825.5</ele>
        <time>2015-12-06T08:18:01Z</time>
      </trkpt>
      <trkpt lat="44.10957" lon="3.2375">
        <ele>825</ele>
        <time>2015-12-06T08:18:02Z</time>
      </trkpt>
      <trkpt lat="44.10956" lon="3.23756">
        <ele>825.5</ele>
        <time>2015-12-06T08:18:03Z</time>
      </trkpt>
      <trkpt lat="44.10956" lon="3.2376">
        <ele>827</ele>
        <time>2015-12-06T08:18:04Z</time>
      </trkpt>
      <trkpt lat="44.10954" lon="3.23766">
        <ele>827</ele>
        <time>2015-12-06T08:18:05Z</time>
      </trkpt>
      <trkpt lat="44.10952" lon="3.23772">
        <ele>827</ele>
        <time>2015-12-06T08:18:06Z</time>
      </trkpt>
      <trkpt lat="44.10951" lon="3.23777">
        <ele>827</ele>
        <time>2015-12-06T08:18:07Z</time>
      </trkpt>
      <trkpt lat="44.1095" lon="3.23782">
        <ele>827</ele>
        <time>2015-12-06T08:18:08Z</time>
      </trkpt>
      <trkpt lat="44.10948" lon="3.23788">
        <ele>827</ele>
        <time>2015-12-06T08:18:09Z</time>
      </trkpt>
      <trkpt lat="44.10947" lon="3.23792">
        <ele>827</ele>
        <time>2015-12-06T08:18:10Z</time>
      </trkpt>
      <trkpt lat="44.10946" lon="3.23797">
        <ele>827</ele>
        <time>2015-12-06T08:18:11Z</time>
      </trkpt>
      <trkpt lat="44.10945" lon="3.23801">
        <ele>828.5</ele>
        <time>2015-12-06T08:18:12Z</time>
      </trkpt>
      <trkpt lat="44.10944" lon="3.23805">
        <ele>828</ele>
        <time>2015-12-06T08:18:13Z</time>
      </trkpt>
      <trkpt lat="44.10943" lon="3.2381">
        <ele>828.5</ele>
        <time>2015-12-06T08:18:14Z</time>
      </trkpt>
      <trkpt lat="44.10943" lon="3.23814">
        <ele>829</ele>
        <time>2015-12-06T08:18:15Z</time>
      </trkpt>
      <trkpt lat="44.10942" lon="3.23817">
        <ele>829.5</ele>
        <time>2015-12-06T08:18:16Z</time>
      </trkpt>
      <trkpt lat="44.10941" lon="3.23821">
        <ele>829.5</ele>
        <time>2015-12-06T08:18:17Z</time>
      </trkpt>
      <trkpt lat="44.10941" lon="3.23825">
        <ele>829.5</ele>
        <time>2015-12-06T08:18:18Z</time>
      </trkpt>
      <trkpt lat="44.1094" lon="3.23829">
        <ele>830</ele>
        <time>2015-12-06T08:18:19Z</time>
      </trkpt>
      <trkpt lat="44.1094" lon="3.23833">
        <ele>830</ele>
        <time>2015-12-06T08:18:20Z</time>
      </trkpt>
      <trkpt lat="44.10939" lon="3.23836">
        <ele>830.5</ele>
        <time>2015-12-06T08:18:21Z</time>
      </trkpt>
      <trkpt lat="44.10939" lon="3.2384">
        <ele>830.5</ele>
        <time>2015-12-06T08:18:22Z</time>
      </trkpt>
      <trkpt lat="44.10939" lon="3.23843">
        <ele>830.5</ele>
        <time>2015-12-06T08:18:23Z</time>
      </trkpt>
      <trkpt lat="44.10938" lon="3.23846">
        <ele>830.5</ele>
        <time>2015-12-06T08:18:24Z</time>
      </trkpt>
      <trkpt lat="44.10937" lon="3.23849">
        <ele>830.5</ele>
        <time>2015-12-06T08:18:25Z</time>
      </trkpt>
      <trkpt lat="44.10939" lon="3.23852">
        <ele>831.5</ele>
        <time>2015-12-06T08:18:26Z</time>
      </trkpt>
      <trkpt lat="44.10939" lon="3.23855">
        <ele>831.5</ele>
        <time>2015-12-06T08:18:27Z</time>
      </trkpt>
      <trkpt lat="44.10939" lon="3.23859">
        <ele>832</ele>
        <time>2015-12-06T08:18:28Z</time>
      </trkpt>
      <trkpt lat="44.10939" lon="3.23863">
        <ele>832</ele>
        <time>2015-12-06T08:18:29Z</time>
      </trkpt>
      <trkpt lat="44.10939" lon="3.23867">
        <ele>832</ele>
        <time>2015-12-06T08:18:30Z</time>
      </trkpt>
      <trkpt lat="44.10938" lon="3.23871">
        <ele>832</ele>
        <time>2015-12-06T08:18:31Z</time>
      </trkpt>
      <trkpt lat="44.10938" lon="3.23875">
        <ele>832</ele>
        <time>2015-12-06T08:18:32Z</time>
      </trkpt>
      <trkpt lat="44.10937" lon="3.23879">
        <ele>832</ele>
        <time>2015-12-06T08:18:33Z</time>
      </trkpt>
      <trkpt lat="44.10936" lon="3.23883">
        <ele>832.5</ele>
        <time>2015-12-06T08:18:34Z</time>
      </trkpt>
      <trkpt lat="44.10935" lon="3.23887">
        <ele>833</ele>
        <time>2015-12-06T08:18:35Z</time>
      </trkpt>
      <trkpt lat="44.10934" lon="3.23891">
        <ele>832.5</ele>
        <time>2015-12-06T08:18:36Z</time>
      </trkpt>
      <trkpt lat="44.10933" lon="3.23896">
        <ele>832.5</ele>
        <time>2015-12-06T08:18:37Z</time>
      </trkpt>
      <trkpt lat="44.10932" lon="3.239">
        <ele>832.5</ele>
        <time>2015-12-06T08:18:38Z</time>
      </trkpt>
      <trkpt lat="44.10931" lon="3.23904">
        <ele>832.5</ele>
        <time>2015-12-06T08:18:39Z</time>
      </trkpt>
      <trkpt lat="44.1093" lon="3.23908">
        <ele>833</ele>
        <time>2015-12-06T08:18:40Z</time>
      </trkpt>
      <trkpt lat="44.1093" lon="3.23912">
        <ele>833.5</ele>
        <time>2015-12-06T08:18:41Z</time>
      </trkpt>
      <trkpt lat="44.10928" lon="3.23916">
        <ele>833.5</ele>
        <time>2015-12-06T08:18:42Z</time>
      </trkpt>
      <trkpt lat="44.10927" lon="3.2392">
        <ele>833.5</ele>
        <time>2015-12-06T08:18:43Z</time>
      </trkpt>
      <trkpt lat="44.10926" lon="3.23924">
        <ele>833</ele>
        <time>2015-12-06T08:18:44Z</time>
      </trkpt>
      <trkpt lat="44.10924" lon="3.23928">
        <ele>833.5</ele>
        <time>2015-12-06T08:18:45Z</time>
      </trkpt>
      <trkpt lat="44.10923" lon="3.23931">
        <ele>833.5</ele>
        <time>2015-12-06T08:18:46Z</time>
      </trkpt>
      <trkpt lat="44.10922" lon="3.23934">
        <ele>833.5</ele>
        <time>2015-12-06T08:18:47Z</time>
      </trkpt>
      <trkpt lat="44.10921" lon="3.23938">
        <ele>833.5</ele>
        <time>2015-12-06T08:18:48Z</time>
      </trkpt>
      <trkpt lat="44.10919" lon="3.23942">
        <ele>833.5</ele>
        <time>2015-12-06T08:18:49Z</time>
      </trkpt>
      <trkpt lat="44.10918" lon="3.23945">
        <ele>833</ele>
        <time>2015-12-06T08:18:50Z</time>
      </trkpt>
      <trkpt lat="44.10918" lon="3.23949">
        <ele>833</ele>
        <time>2015-12-06T08:18:51Z</time>
      </trkpt>
      <trkpt lat="44.10917" lon="3.23954">
        <ele>833.5</ele>
        <time>2015-12-06T08:18:52Z</time>
      </trkpt>
      <trkpt lat="44.10914" lon="3.23963">
        <ele>832.5</ele>
        <time>2015-12-06T08:18:54Z</time>
      </trkpt>
      <trkpt lat="44.10913" lon="3.23968">
        <ele>833</ele>
        <time>2015-12-06T08:18:55Z</time>
      </trkpt>
      <trkpt lat="44.10912" lon="3.23973">
        <ele>833.5</ele>
        <time>2015-12-06T08:18:56Z</time>
      </trkpt>
      <trkpt lat="44.10911" lon="3.23977">
        <ele>833.5</ele>
        <time>2015-12-06T08:18:57Z</time>
      </trkpt>
      <trkpt lat="44.1091" lon="3.23982">
        <ele>834</ele>
        <time>2015-12-06T08:18:58Z</time>
      </trkpt>
      <trkpt lat="44.10908" lon="3.23987">
        <ele>834</ele>
        <time>2015-12-06T08:18:59Z</time>
      </trkpt>
      <trkpt lat="44.10908" lon="3.23991">
        <ele>834.5</ele>
        <time>2015-12-06T08:19:00Z</time>
      </trkpt>
      <trkpt lat="44.10906" lon="3.23995">
        <ele>834.5</ele>
        <time>2015-12-06T08:19:01Z</time>
      </trkpt>
      <trkpt lat="44.10906" lon="3.24001">
        <ele>834.5</ele>
        <time>2015-12-06T08:19:02Z</time>
      </trkpt>
      <trkpt lat="44.10907" lon="3.24005">
        <ele>835</ele>
        <time>2015-12-06T08:19:03Z</time>
      </trkpt>
      <trkpt lat="44.10909" lon="3.2401">
        <ele>835</ele>
        <time>2015-12-06T08:19:04Z</time>
      </trkpt>
      <trkpt lat="44.10911" lon="3.24016">
        <ele>835</ele>
        <time>2015-12-06T08:19:05Z</time>
      </trkpt>
      <trkpt lat="44.10913" lon="3.24021">
        <ele>835</ele>
        <time>2015-12-06T08:19:06Z</time>
      </trkpt>
      <trkpt lat="44.10915" lon="3.24026">
        <ele>834.5</ele>
        <time>2015-12-06T08:19:07Z</time>
      </trkpt>
      <trkpt lat="44.10917" lon="3.24032">
        <ele>834</ele>
        <time>2015-12-06T08:19:08Z</time>
      </trkpt>
      <trkpt lat="44.10919" lon="3.24037">
        <ele>834</ele>
        <time>2015-12-06T08:19:09Z</time>
      </trkpt>
      <trkpt lat="44.10921" lon="3.24043">
        <ele>834</ele>
        <time>2015-12-06T08:19:10Z</time>
      </trkpt>
      <trkpt lat="44.10922" lon="3.24049">
        <ele>834</ele>
        <time>2015-12-06T08:19:11Z</time>
      </trkpt>
      <trkpt lat="44.10924" lon="3.24055">
        <ele>834</ele>
        <time>2015-12-06T08:19:12Z</time>
      </trkpt>
      <trkpt lat="44.10925" lon="3.24061">
        <ele>833.5</ele>
        <time>2015-12-06T08:19:13Z</time>
      </trkpt>
      <trkpt lat="44.10925" lon="3.24067">
        <ele>832</ele>
        <time>2015-12-06T08:19:14Z</time>
      </trkpt>
      <trkpt lat="44.10926" lon="3.24073">
        <ele>832</ele>
        <time>2015-12-06T08:19:15Z</time>
      </trkpt>
      <trkpt lat="44.10927" lon="3.24079">
        <ele>831.5</ele>
        <time>2015-12-06T08:19:16Z</time>
      </trkpt>
      <trkpt lat="44.10928" lon="3.24085">
        <ele>831</ele>
        <time>2015-12-06T08:19:17Z</time>
      </trkpt>
      <trkpt lat="44.1093" lon="3.2409">
        <ele>831</ele>
        <time>2015-12-06T08:19:18Z</time>
      </trkpt>
      <trkpt lat="44.1093" lon="3.24096">
        <ele>831</ele>
        <time>2015-12-06T08:19:19Z</time>
      </trkpt>
      <trkpt lat="44.10929" lon="3.24101">
        <ele>831</ele>
        <time>2015-12-06T08:19:20Z</time>
      </trkpt>
      <trkpt lat="44.10928" lon="3.24107">
        <ele>830.5</ele>
        <time>2015-12-06T08:19:21Z</time>
      </trkpt>
      <trkpt lat="44.10927" lon="3.24113">
        <ele>830.5</ele>
        <time>2015-12-06T08:19:22Z</time>
      </trkpt>
      <trkpt lat="44.10925" lon="3.24119">
        <ele>830</ele>
        <time>2015-12-06T08:19:23Z</time>
      </trkpt>
      <trkpt lat="44.10923" lon="3.24125">
        <ele>829</ele>
        <time>2015-12-06T08:19:24Z</time>
      </trkpt>
      <trkpt lat="44.10921" lon="3.24133">
        <ele>827.5</ele>
        <time>2015-12-06T08:19:25Z</time>
      </trkpt>
      <trkpt lat="44.10919" lon="3.24141">
        <ele>827.5</ele>
        <time>2015-12-06T08:19:26Z</time>
      </trkpt>
      <trkpt lat="44.10915" lon="3.24149">
        <ele>826.5</ele>
        <time>2015-12-06T08:19:27Z</time>
      </trkpt>
      <trkpt lat="44.1091" lon="3.24156">
        <ele>825</ele>
        <time>2015-12-06T08:19:28Z</time>
      </trkpt>
      <trkpt lat="44.10907" lon="3.24166">
        <ele>825</ele>
        <time>2015-12-06T08:19:29Z</time>
      </trkpt>
      <trkpt lat="44.10907" lon="3.24176">
        <ele>825</ele>
        <time>2015-12-06T08:19:30Z</time>
      </trkpt>
      <trkpt lat="44.10906" lon="3.24185">
        <ele>825.5</ele>
        <time>2015-12-06T08:19:31Z</time>
      </trkpt>
      <trkpt lat="44.10907" lon="3.24194">
        <ele>825</ele>
        <time>2015-12-06T08:19:32Z</time>
      </trkpt>
      <trkpt lat="44.10907" lon="3.24203">
        <ele>826</ele>
        <time>2015-12-06T08:19:33Z</time>
      </trkpt>
      <trkpt lat="44.10907" lon="3.24211">
        <ele>826</ele>
        <time>2015-12-06T08:19:34Z</time>
      </trkpt>
      <trkpt lat="44.1091" lon="3.24218">
        <ele>826.5</ele>
        <time>2015-12-06T08:19:35Z</time>
      </trkpt>
      <trkpt lat="44.10912" lon="3.24224">
        <ele>826</ele>
        <time>2015-12-06T08:19:36Z</time>
      </trkpt>
      <trkpt lat="44.10912" lon="3.24231">
        <ele>825</ele>
        <time>2015-12-06T08:19:37Z</time>
      </trkpt>
      <trkpt lat="44.10913" lon="3.24238">
        <ele>825</ele>
        <time>2015-12-06T08:19:38Z</time>
      </trkpt>
      <trkpt lat="44.10911" lon="3.24244">
        <ele>825</ele>
        <time>2015-12-06T08:19:39Z</time>
      </trkpt>
      <trkpt lat="44.10908" lon="3.2425">
        <ele>824.5</ele>
        <time>2015-12-06T08:19:40Z</time>
      </trkpt>
      <trkpt lat="44.10906" lon="3.24254">
        <ele>824.5</ele>
        <time>2015-12-06T08:19:41Z</time>
      </trkpt>
      <trkpt lat="44.10905" lon="3.24258">
        <ele>824.5</ele>
        <time>2015-12-06T08:19:42Z</time>
      </trkpt>
      <trkpt lat="44.10904" lon="3.24261">
        <ele>824.5</ele>
        <time>2015-12-06T08:19:43Z</time>
      </trkpt>
      <trkpt lat="44.10904" lon="3.24263">
        <ele>824.5</ele>
        <time>2015-12-06T08:19:44Z</time>
      </trkpt>
      <trkpt lat="44.10904" lon="3.24265">
        <ele>825</ele>
        <time>2015-12-06T08:19:45Z</time>
      </trkpt>
      <trkpt lat="44.10904" lon="3.24268">
        <ele>825.5</ele>
        <time>2015-12-06T08:19:46Z</time>
      </trkpt>
      <trkpt lat="44.10905" lon="3.24271">
        <ele>825.5</ele>
        <time>2015-12-06T08:19:47Z</time>
      </trkpt>
      <trkpt lat="44.10907" lon="3.24272">
        <ele>827</ele>
        <time>2015-12-06T08:19:48Z</time>
      </trkpt>
      <trkpt lat="44.10908" lon="3.24274">
        <ele>826.5</ele>
        <time>2015-12-06T08:19:49Z</time>
      </trkpt>
      <trkpt lat="44.1091" lon="3.24276">
        <ele>827</ele>
        <time>2015-12-06T08:19:50Z</time>
      </trkpt>
      <trkpt lat="44.10921" lon="3.24277">
        <ele>827</ele>
        <time>2015-12-06T08:19:52Z</time>
      </trkpt>
      <trkpt lat="44.10923" lon="3.24276">
        <ele>827.5</ele>
        <time>2015-12-06T08:19:53Z</time>
      </trkpt>
      <trkpt lat="44.10925" lon="3.24275">
        <ele>828</ele>
        <time>2015-12-06T08:19:54Z</time>
      </trkpt>
      <trkpt lat="44.10928" lon="3.24275">
        <ele>828</ele>
        <time>2015-12-06T08:19:55Z</time>
      </trkpt>
      <trkpt lat="44.10931" lon="3.24276">
        <ele>828</ele>
        <time>2015-12-06T08:19:56Z</time>
      </trkpt>
      <trkpt lat="44.10933" lon="3.24277">
        <ele>828</ele>
        <time>2015-12-06T08:19:57Z</time>
      </trkpt>
      <trkpt lat="44.10936" lon="3.24279">
        <ele>828</ele>
        <time>2015-12-06T08:19:58Z</time>
      </trkpt>
      <trkpt lat="44.10938" lon="3.24281">
        <ele>828.5</ele>
        <time>2015-12-06T08:19:59Z</time>
      </trkpt>
      <trkpt lat="44.10941" lon="3.24283">
        <ele>828.5</ele>
        <time>2015-12-06T08:20:00Z</time>
      </trkpt>
      <trkpt lat="44.10945" lon="3.24285">
        <ele>828.5</ele>
        <time>2015-12-06T08:20:01Z</time>
      </trkpt>
      <trkpt lat="44.10948" lon="3.24286">
        <ele>829.5</ele>
        <time>2015-12-06T08:20:02Z</time>
      </trkpt>
      <trkpt lat="44.10951" lon="3.24288">
        <ele>830.5</ele>
        <time>2015-12-06T08:20:03Z</time>
      </trkpt>
      <trkpt lat="44.10953" lon="3.2429">
        <ele>831.5</ele>
        <time>2015-12-06T08:20:04Z</time>
      </trkpt>
      <trkpt lat="44.10956" lon="3.24291">
        <ele>833.5</ele>
        <time>2015-12-06T08:20:05Z</time>
      </trkpt>
      <trkpt lat="44.10958" lon="3.24292">
        <ele>835.5</ele>
        <time>2015-12-06T08:20:06Z</time>
      </trkpt>
      <trkpt lat="44.10961" lon="3.24292">
        <ele>836.5</ele>
        <time>2015-12-06T08:20:07Z</time>
      </trkpt>
      <trkpt lat="44.10963" lon="3.24292">
        <ele>837</ele>
        <time>2015-12-06T08:20:08Z</time>
      </trkpt>
      <trkpt lat="44.10965" lon="3.24291">
        <ele>838</ele>
        <time>2015-12-06T08:20:09Z</time>
      </trkpt>
      <trkpt lat="44.10968" lon="3.2429">
        <ele>837.5</ele>
        <time>2015-12-06T08:20:10Z</time>
      </trkpt>
      <trkpt lat="44.1097" lon="3.24288">
        <ele>837.5</ele>
        <time>2015-12-06T08:20:11Z</time>
      </trkpt>
      <trkpt lat="44.10972" lon="3.24287">
        <ele>838</ele>
        <time>2015-12-06T08:20:12Z</time>
      </trkpt>
      <trkpt lat="44.10974" lon="3.24285">
        <ele>838</ele>
        <time>2015-12-06T08:20:13Z</time>
      </trkpt>
      <trkpt lat="44.10976" lon="3.24283">
        <ele>838</ele>
        <time>2015-12-06T08:20:14Z</time>
      </trkpt>
      <trkpt lat="44.10978" lon="3.24283">
        <ele>838</ele>
        <time>2015-12-06T08:20:15Z</time>
      </trkpt>
      <trkpt lat="44.1098" lon="3.24281">
        <ele>838.5</ele>
        <time>2015-12-06T08:20:16Z</time>
      </trkpt>
      <trkpt lat="44.10982" lon="3.2428">
        <ele>838</ele>
        <time>2015-12-06T08:20:17Z</time>
      </trkpt>
      <trkpt lat="44.10984" lon="3.24279">
        <ele>838</ele>
        <time>2015-12-06T08:20:18Z</time>
      </trkpt>
      <trkpt lat="44.10985" lon="3.24277">
        <ele>838</ele>
        <time>2015-12-06T08:20:19Z</time>
      </trkpt>
      <trkpt lat="44.10987" lon="3.24276">
        <ele>838</ele>
        <time>2015-12-06T08:20:20Z</time>
      </trkpt>
      <trkpt lat="44.10989" lon="3.24275">
        <ele>838</ele>
        <time>2015-12-06T08:20:21Z</time>
      </trkpt>
      <trkpt lat="44.10991" lon="3.24274">
        <ele>838.5</ele>
        <time>2015-12-06T08:20:22Z</time>
      </trkpt>
      <trkpt lat="44.10992" lon="3.24273">
        <ele>838.5</ele>
        <time>2015-12-06T08:20:23Z</time>
      </trkpt>
      <trkpt lat="44.10994" lon="3.24272">
        <ele>839.5</ele>
        <time>2015-12-06T08:20:24Z</time>
      </trkpt>
      <trkpt lat="44.10996" lon="3.24271">
        <ele>840</ele>
        <time>2015-12-06T08:20:25Z</time>
      </trkpt>
      <trkpt lat="44.10998" lon="3.2427">
        <ele>841</ele>
        <time>2015-12-06T08:20:26Z</time>
      </trkpt>
      <trkpt lat="44.11" lon="3.24269">
        <ele>841</ele>
        <time>2015-12-06T08:20:27Z</time>
      </trkpt>
      <trkpt lat="44.11001" lon="3.24269">
        <ele>841</ele>
        <time>2015-12-06T08:20:28Z</time>
      </trkpt>
      <trkpt lat="44.11003" lon="3.24268">
        <ele>841.5</ele>
        <time>2015-12-06T08:20:29Z</time>
      </trkpt>
      <trkpt lat="44.11005" lon="3.24268">
        <ele>842</ele>
        <time>2015-12-06T08:20:30Z</time>
      </trkpt>
      <trkpt lat="44.11006" lon="3.24267">
        <ele>842</ele>
        <time>2015-12-06T08:20:31Z</time>
      </trkpt>
      <trkpt lat="44.11008" lon="3.24267">
        <ele>842</ele>
        <time>2015-12-06T08:20:32Z</time>
      </trkpt>
      <trkpt lat="44.1101" lon="3.24266">
        <ele>842.5</ele>
        <time>2015-12-06T08:20:33Z</time>
      </trkpt>
      <trkpt lat="44.11013" lon="3.24266">
        <ele>842.5</ele>
        <time>2015-12-06T08:20:34Z</time>
      </trkpt>
      <trkpt lat="44.11014" lon="3.24265">
        <ele>842.5</ele>
        <time>2015-12-06T08:20:35Z</time>
      </trkpt>
      <trkpt lat="44.11016" lon="3.24265">
        <ele>843</ele>
        <time>2015-12-06T08:20:36Z</time>
      </trkpt>
      <trkpt lat="44.11018" lon="3.24264">
        <ele>843</ele>
        <time>2015-12-06T08:20:37Z</time>
      </trkpt>
      <trkpt lat="44.1102" lon="3.24263">
        <ele>843</ele>
        <time>2015-12-06T08:20:38Z</time>
      </trkpt>
      <trkpt lat="44.11022" lon="3.24263">
        <ele>843</ele>
        <time>2015-12-06T08:20:39Z</time>
      </trkpt>
      <trkpt lat="44.11024" lon="3.24263">
        <ele>843</ele>
        <time>2015-12-06T08:20:40Z</time>
      </trkpt>
      <trkpt lat="44.11026" lon="3.24262">
        <ele>843</ele>
        <time>2015-12-06T08:20:41Z</time>
      </trkpt>
      <trkpt lat="44.11028" lon="3.24261">
        <ele>842.5</ele>
        <time>2015-12-06T08:20:42Z</time>
      </trkpt>
      <trkpt lat="44.1103" lon="3.2426">
        <ele>843</ele>
        <time>2015-12-06T08:20:43Z</time>
      </trkpt>
      <trkpt lat="44.11033" lon="3.2426">
        <ele>843</ele>
        <time>2015-12-06T08:20:44Z</time>
      </trkpt>
      <trkpt lat="44.11035" lon="3.24259">
        <ele>843</ele>
        <time>2015-12-06T08:20:45Z</time>
      </trkpt>
      <trkpt lat="44.11037" lon="3.24258">
        <ele>843</ele>
        <time>2015-12-06T08:20:46Z</time>
      </trkpt>
      <trkpt lat="44.1104" lon="3.24257">
        <ele>843</ele>
        <time>2015-12-06T08:20:47Z</time>
      </trkpt>
      <trkpt lat="44.11042" lon="3.24256">
        <ele>843</ele>
        <time>2015-12-06T08:20:48Z</time>
      </trkpt>
      <trkpt lat="44.11044" lon="3.24255">
        <ele>843</ele>
        <time>2015-12-06T08:20:48Z</time>
      </trkpt>
      <trkpt lat="44.11046" lon="3.24253">
        <ele>842.5</ele>
        <time>2015-12-06T08:20:49Z</time>
      </trkpt>
      <trkpt lat="44.11048" lon="3.24252">
        <ele>843</ele>
        <time>2015-12-06T08:20:50Z</time>
      </trkpt>
      <trkpt lat="44.1105" lon="3.24251">
        <ele>843.5</ele>
        <time>2015-12-06T08:20:51Z</time>
      </trkpt>
      <trkpt lat="44.11052" lon="3.2425">
        <ele>843</ele>
        <time>2015-12-06T08:20:52Z</time>
      </trkpt>
      <trkpt lat="44.11055" lon="3.24248">
        <ele>843</ele>
        <time>2015-12-06T08:20:53Z</time>
      </trkpt>
      <trkpt lat="44.11056" lon="3.24247">
        <ele>843</ele>
        <time>2015-12-06T08:20:54Z</time>
      </trkpt>
      <trkpt lat="44.11059" lon="3.24246">
        <ele>843</ele>
        <time>2015-12-06T08:20:55Z</time>
      </trkpt>
      <trkpt lat="44.11061" lon="3.24245">
        <ele>843</ele>
        <time>2015-12-06T08:20:56Z</time>
      </trkpt>
      <trkpt lat="44.11063" lon="3.24245">
        <ele>842.5</ele>
        <time>2015-12-06T08:20:57Z</time>
      </trkpt>
      <trkpt lat="44.11066" lon="3.24244">
        <ele>842.5</ele>
        <time>2015-12-06T08:20:58Z</time>
      </trkpt>
      <trkpt lat="44.11068" lon="3.24245">
        <ele>841.5</ele>
        <time>2015-12-06T08:20:59Z</time>
      </trkpt>
      <trkpt lat="44.1107" lon="3.24246">
        <ele>841.5</ele>
        <time>2015-12-06T08:21:00Z</time>
      </trkpt>
      <trkpt lat="44.11073" lon="3.24246">
        <ele>841.5</ele>
        <time>2015-12-06T08:21:01Z</time>
      </trkpt>
      <trkpt lat="44.11076" lon="3.24246">
        <ele>841</ele>
        <time>2015-12-06T08:21:02Z</time>
      </trkpt>
      <trkpt lat="44.11076" lon="3.24245">
        <ele>841</ele>
        <time>2015-12-06T08:21:03Z</time>
      </trkpt>
      <trkpt lat="44.11083" lon="3.24247">
        <ele>841.5</ele>
        <time>2015-12-06T08:21:05Z</time>
      </trkpt>
      <trkpt lat="44.11086" lon="3.24247">
        <ele>842</ele>
        <time>2015-12-06T08:21:06Z</time>
      </trkpt>
      <trkpt lat="44.11089" lon="3.24249">
        <ele>841.5</ele>
        <time>2015-12-06T08:21:07Z</time>
      </trkpt>
      <trkpt lat="44.11092" lon="3.24251">
        <ele>841</ele>
        <time>2015-12-06T08:21:08Z</time>
      </trkpt>
      <trkpt lat="44.11095" lon="3.24251">
        <ele>840.5</ele>
        <time>2015-12-06T08:21:09Z</time>
      </trkpt>
      <trkpt lat="44.11097" lon="3.24252">
        <ele>840</ele>
        <time>2015-12-06T08:21:10Z</time>
      </trkpt>
      <trkpt lat="44.11099" lon="3.24253">
        <ele>839.5</ele>
        <time>2015-12-06T08:21:11Z</time>
      </trkpt>
      <trkpt lat="44.111" lon="3.24254">
        <ele>840</ele>
        <time>2015-12-06T08:21:12Z</time>
      </trkpt>
      <trkpt lat="44.11102" lon="3.24255">
        <ele>839</ele>
        <time>2015-12-06T08:21:13Z</time>
      </trkpt>
      <trkpt lat="44.11104" lon="3.24257">
        <ele>838.5</ele>
        <time>2015-12-06T08:21:14Z</time>
      </trkpt>
      <trkpt lat="44.11106" lon="3.24258">
        <ele>838</ele>
        <time>2015-12-06T08:21:15Z</time>
      </trkpt>
      <trkpt lat="44.11109" lon="3.2426">
        <ele>838.5</ele>
        <time>2015-12-06T08:21:16Z</time>
      </trkpt>
      <trkpt lat="44.11111" lon="3.24262">
        <ele>838</ele>
        <time>2015-12-06T08:21:17Z</time>
      </trkpt>
      <trkpt lat="44.11114" lon="3.24264">
        <ele>836.5</ele>
        <time>2015-12-06T08:21:18Z</time>
      </trkpt>
      <trkpt lat="44.11119" lon="3.24266">
        <ele>836</ele>
        <time>2015-12-06T08:21:19Z</time>
      </trkpt>
      <trkpt lat="44.11124" lon="3.24266">
        <ele>836</ele>
        <time>2015-12-06T08:21:20Z</time>
      </trkpt>
      <trkpt lat="44.11128" lon="3.24266">
        <ele>836</ele>
        <time>2015-12-06T08:21:21Z</time>
      </trkpt>
      <trkpt lat="44.11131" lon="3.24267">
        <ele>835</ele>
        <time>2015-12-06T08:21:22Z</time>
      </trkpt>
      <trkpt lat="44.11134" lon="3.24269">
        <ele>834</ele>
        <time>2015-12-06T08:21:23Z</time>
      </trkpt>
      <trkpt lat="44.11137" lon="3.24271">
        <ele>833.5</ele>
        <time>2015-12-06T08:21:24Z</time>
      </trkpt>
      <trkpt lat="44.11139" lon="3.24273">
        <ele>833.5</ele>
        <time>2015-12-06T08:21:25Z</time>
      </trkpt>
      <trkpt lat="44.1114" lon="3.24271">
        <ele>833.5</ele>
        <time>2015-12-06T08:21:26Z</time>
      </trkpt>
      <trkpt lat="44.11143" lon="3.24269">
        <ele>832.5</ele>
        <time>2015-12-06T08:21:27Z</time>
      </trkpt>
      <trkpt lat="44.11146" lon="3.24269">
        <ele>832.5</ele>
        <time>2015-12-06T08:21:28Z</time>
      </trkpt>
      <trkpt lat="44.11147" lon="3.24269">
        <ele>833.5</ele>
        <time>2015-12-06T08:21:29Z</time>
      </trkpt>
      <trkpt lat="44.11148" lon="3.2427">
        <ele>833.5</ele>
        <time>2015-12-06T08:21:30Z</time>
      </trkpt>
      <trkpt lat="44.11149" lon="3.2427">
        <ele>833</ele>
        <time>2015-12-06T08:21:31Z</time>
      </trkpt>
      <trkpt lat="44.1115" lon="3.24271">
        <ele>832.5</ele>
        <time>2015-12-06T08:21:32Z</time>
      </trkpt>
      <trkpt lat="44.11151" lon="3.24272">
        <ele>832</ele>
        <time>2015-12-06T08:21:35Z</time>
      </trkpt>
      <trkpt lat="44.11152" lon="3.24272">
        <ele>833</ele>
        <time>2015-12-06T08:21:36Z</time>
      </trkpt>
      <trkpt lat="44.11153" lon="3.24274">
        <ele>833.5</ele>
        <time>2015-12-06T08:21:37Z</time>
      </trkpt>
      <trkpt lat="44.11155" lon="3.24275">
        <ele>832</ele>
        <time>2015-12-06T08:21:38Z</time>
      </trkpt>
      <trkpt lat="44.11157" lon="3.24277">
        <ele>831.5</ele>
        <time>2015-12-06T08:21:39Z</time>
      </trkpt>
      <trkpt lat="44.11159" lon="3.24278">
        <ele>830.5</ele>
        <time>2015-12-06T08:21:40Z</time>
      </trkpt>
      <trkpt lat="44.1116" lon="3.24279">
        <ele>829.5</ele>
        <time>2015-12-06T08:21:41Z</time>
      </trkpt>
      <trkpt lat="44.11162" lon="3.2428">
        <ele>829.5</ele>
        <time>2015-12-06T08:21:42Z</time>
      </trkpt>
      <trkpt lat="44.11164" lon="3.24282">
        <ele>828</ele>
        <time>2015-12-06T08:21:43Z</time>
      </trkpt>
      <trkpt lat="44.11166" lon="3.24284">
        <ele>827</ele>
        <time>2015-12-06T08:21:44Z</time>
      </trkpt>
      <trkpt lat="44.11169" lon="3.24286">
        <ele>826</ele>
        <time>2015-12-06T08:21:45Z</time>
      </trkpt>
      <trkpt lat="44.11174" lon="3.24295">
        <ele>822.5</ele>
        <time>2015-12-06T08:21:47Z</time>
      </trkpt>
      <trkpt lat="44.11175" lon="3.243">
        <ele>820.5</ele>
        <time>2015-12-06T08:21:48Z</time>
      </trkpt>
      <trkpt lat="44.11179" lon="3.24305">
        <ele>816.5</ele>
        <time>2015-12-06T08:21:49Z</time>
      </trkpt>
      <trkpt lat="44.11182" lon="3.24307">
        <ele>815.5</ele>
        <time>2015-12-06T08:21:50Z</time>
      </trkpt>
      <trkpt lat="44.11186" lon="3.24306">
        <ele>815.5</ele>
        <time>2015-12-06T08:21:51Z</time>
      </trkpt>
      <trkpt lat="44.11188" lon="3.24304">
        <ele>816</ele>
        <time>2015-12-06T08:21:52Z</time>
      </trkpt>
      <trkpt lat="44.11196" lon="3.24297">
        <ele>816</ele>
        <time>2015-12-06T08:21:54Z</time>
      </trkpt>
      <trkpt lat="44.11202" lon="3.24294">
        <ele>815</ele>
        <time>2015-12-06T08:21:55Z</time>
      </trkpt>
      <trkpt lat="44.11207" lon="3.24292">
        <ele>815</ele>
        <time>2015-12-06T08:21:56Z</time>
      </trkpt>
      <trkpt lat="44.11219" lon="3.24289">
        <ele>814.5</ele>
        <time>2015-12-06T08:21:58Z</time>
      </trkpt>
      <trkpt lat="44.11222" lon="3.24285">
        <ele>813.5</ele>
        <time>2015-12-06T08:21:59Z</time>
      </trkpt>
      <trkpt lat="44.11235" lon="3.24276">
        <ele>813.5</ele>
        <time>2015-12-06T08:22:01Z</time>
      </trkpt>
      <trkpt lat="44.1124" lon="3.24272">
        <ele>814</ele>
        <time>2015-12-06T08:22:02Z</time>
      </trkpt>
      <trkpt lat="44.11247" lon="3.24267">
        <ele>813</ele>
        <time>2015-12-06T08:22:03Z</time>
      </trkpt>
      <trkpt lat="44.11251" lon="3.24261">
        <ele>814.5</ele>
        <time>2015-12-06T08:22:04Z</time>
      </trkpt>
      <trkpt lat="44.11257" lon="3.24255">
        <ele>814</ele>
        <time>2015-12-06T08:22:06Z</time>
      </trkpt>
      <trkpt lat="44.1126" lon="3.24252">
        <ele>814.5</ele>
        <time>2015-12-06T08:22:07Z</time>
      </trkpt>
      <trkpt lat="44.11264" lon="3.24249">
        <ele>815</ele>
        <time>2015-12-06T08:22:08Z</time>
      </trkpt>
      <trkpt lat="44.11266" lon="3.24247">
        <ele>814.5</ele>
        <time>2015-12-06T08:22:09Z</time>
      </trkpt>
      <trkpt lat="44.11268" lon="3.24246">
        <ele>815.5</ele>
        <time>2015-12-06T08:22:10Z</time>
      </trkpt>
      <trkpt lat="44.1127" lon="3.24244">
        <ele>815</ele>
        <time>2015-12-06T08:22:11Z</time>
      </trkpt>
      <trkpt lat="44.11272" lon="3.24243">
        <ele>815</ele>
        <time>2015-12-06T08:22:12Z</time>
      </trkpt>
      <trkpt lat="44.11276" lon="3.24241">
        <ele>814.5</ele>
        <time>2015-12-06T08:22:13Z</time>
      </trkpt>
      <trkpt lat="44.1128" lon="3.24239">
        <ele>813.5</ele>
        <time>2015-12-06T08:22:14Z</time>
      </trkpt>
      <trkpt lat="44.11283" lon="3.24237">
        <ele>811</ele>
        <time>2015-12-06T08:22:15Z</time>
      </trkpt>
      <trkpt lat="44.11285" lon="3.24232">
        <ele>812</ele>
        <time>2015-12-06T08:22:16Z</time>
      </trkpt>
      <trkpt lat="44.11287" lon="3.24228">
        <ele>812</ele>
        <time>2015-12-06T08:22:17Z</time>
      </trkpt>
      <trkpt lat="44.1129" lon="3.24225">
        <ele>810</ele>
        <time>2015-12-06T08:22:18Z</time>
      </trkpt>
      <trkpt lat="44.11292" lon="3.24224">
        <ele>810</ele>
        <time>2015-12-06T08:22:19Z</time>
      </trkpt>
      <trkpt lat="44.11294" lon="3.24223">
        <ele>810</ele>
        <time>2015-12-06T08:22:20Z</time>
      </trkpt>
      <trkpt lat="44.11296" lon="3.24222">
        <ele>810</ele>
        <time>2015-12-06T08:22:21Z</time>
      </trkpt>
      <trkpt lat="44.11298" lon="3.24221">
        <ele>810</ele>
        <time>2015-12-06T08:22:22Z</time>
      </trkpt>
      <trkpt lat="44.11299" lon="3.24222">
        <ele>810</ele>
        <time>2015-12-06T08:22:23Z</time>
      </trkpt>
      <trkpt lat="44.113" lon="3.24224">
        <ele>810</ele>
        <time>2015-12-06T08:22:24Z</time>
      </trkpt>
      <trkpt lat="44.113" lon="3.24225">
        <ele>809.5</ele>
        <time>2015-12-06T08:22:25Z</time>
      </trkpt>
      <trkpt lat="44.113" lon="3.24226">
        <ele>807.5</ele>
        <time>2015-12-06T08:22:26Z</time>
      </trkpt>
      <trkpt lat="44.113" lon="3.24228">
        <ele>805.5</ele>
        <time>2015-12-06T08:22:27Z</time>
      </trkpt>
      <trkpt lat="44.113" lon="3.2423">
        <ele>803</ele>
        <time>2015-12-06T08:22:28Z</time>
      </trkpt>
      <trkpt lat="44.11301" lon="3.2423">
        <ele>802.5</ele>
        <time>2015-12-06T08:22:29Z</time>
      </trkpt>
      <trkpt lat="44.11302" lon="3.24229">
        <ele>802.5</ele>
        <time>2015-12-06T08:22:30Z</time>
      </trkpt>
      <trkpt lat="44.11304" lon="3.24222">
        <ele>804</ele>
        <time>2015-12-06T08:22:32Z</time>
      </trkpt>
      <trkpt lat="44.11305" lon="3.24219">
        <ele>801.5</ele>
        <time>2015-12-06T08:22:33Z</time>
      </trkpt>
      <trkpt lat="44.11308" lon="3.24215">
        <ele>799.5</ele>
        <time>2015-12-06T08:22:34Z</time>
      </trkpt>
      <trkpt lat="44.11312" lon="3.24211">
        <ele>799.5</ele>
        <time>2015-12-06T08:22:35Z</time>
      </trkpt>
      <trkpt lat="44.11315" lon="3.24207">
        <ele>799.5</ele>
        <time>2015-12-06T08:22:36Z</time>
      </trkpt>
      <trkpt lat="44.11318" lon="3.24203">
        <ele>800</ele>
        <time>2015-12-06T08:22:37Z</time>
      </trkpt>
      <trkpt lat="44.11319" lon="3.24201">
        <ele>799.5</ele>
        <time>2015-12-06T08:22:38Z</time>
      </trkpt>
      <trkpt lat="44.11322" lon="3.242">
        <ele>799.5</ele>
        <time>2015-12-06T08:22:39Z</time>
      </trkpt>
      <trkpt lat="44.11323" lon="3.24199">
        <ele>799.5</ele>
        <time>2015-12-06T08:22:40Z</time>
      </trkpt>
      <trkpt lat="44.11325" lon="3.24198">
        <ele>799</ele>
        <time>2015-12-06T08:22:41Z</time>
      </trkpt>
      <trkpt lat="44.11327" lon="3.24201">
        <ele>798.5</ele>
        <time>2015-12-06T08:22:42Z</time>
      </trkpt>
      <trkpt lat="44.11326" lon="3.24203">
        <ele>798</ele>
        <time>2015-12-06T08:22:43Z</time>
      </trkpt>
      <trkpt lat="44.11325" lon="3.24206">
        <ele>797.5</ele>
        <time>2015-12-06T08:22:44Z</time>
      </trkpt>
      <trkpt lat="44.11326" lon="3.24211">
        <ele>795.5</ele>
        <time>2015-12-06T08:22:45Z</time>
      </trkpt>
      <trkpt lat="44.11326" lon="3.24217">
        <ele>794.5</ele>
        <time>2015-12-06T08:22:46Z</time>
      </trkpt>
      <trkpt lat="44.11324" lon="3.24223">
        <ele>793</ele>
        <time>2015-12-06T08:22:47Z</time>
      </trkpt>
      <trkpt lat="44.11326" lon="3.24227">
        <ele>792.5</ele>
        <time>2015-12-06T08:22:48Z</time>
      </trkpt>
      <trkpt lat="44.11326" lon="3.24231">
        <ele>793.5</ele>
        <time>2015-12-06T08:22:49Z</time>
      </trkpt>
      <trkpt lat="44.11326" lon="3.24233">
        <ele>791.5</ele>
        <time>2015-12-06T08:22:50Z</time>
      </trkpt>
      <trkpt lat="44.11326" lon="3.24235">
        <ele>791.5</ele>
        <time>2015-12-06T08:22:51Z</time>
      </trkpt>
      <trkpt lat="44.11327" lon="3.24237">
        <ele>791.5</ele>
        <time>2015-12-06T08:22:52Z</time>
      </trkpt>
      <trkpt lat="44.11328" lon="3.24238">
        <ele>792</ele>
        <time>2015-12-06T08:22:53Z</time>
      </trkpt>
      <trkpt lat="44.11329" lon="3.24238">
        <ele>791</ele>
        <time>2015-12-06T08:22:55Z</time>
      </trkpt>
      <trkpt lat="44.11329" lon="3.24238">
        <ele>791</ele>
        <time>2015-12-06T08:22:56Z</time>
      </trkpt>
      <trkpt lat="44.1133" lon="3.24238">
        <ele>791.5</ele>
        <time>2015-12-06T08:22:57Z</time>
      </trkpt>
      <trkpt lat="44.11331" lon="3.24238">
        <ele>791.5</ele>
        <time>2015-12-06T08:22:58Z</time>
      </trkpt>
      <trkpt lat="44.11332" lon="3.24238">
        <ele>791</ele>
        <time>2015-12-06T08:22:59Z</time>
      </trkpt>
      <trkpt lat="44.11333" lon="3.24238">
        <ele>791</ele>
        <time>2015-12-06T08:23:00Z</time>
      </trkpt>
      <trkpt lat="44.11334" lon="3.24237">
        <ele>790.5</ele>
        <time>2015-12-06T08:23:01Z</time>
      </trkpt>
      <trkpt lat="44.11337" lon="3.24236">
        <ele>791</ele>
        <time>2015-12-06T08:23:02Z</time>
      </trkpt>
      <trkpt lat="44.1134" lon="3.24234">
        <ele>790.5</ele>
        <time>2015-12-06T08:23:03Z</time>
      </trkpt>
      <trkpt lat="44.11343" lon="3.24232">
        <ele>790.5</ele>
        <time>2015-12-06T08:23:04Z</time>
      </trkpt>
      <trkpt lat="44.11347" lon="3.24229">
        <ele>790</ele>
        <time>2015-12-06T08:23:05Z</time>
      </trkpt>
      <trkpt lat="44.1135" lon="3.24227">
        <ele>791</ele>
        <time>2015-12-06T08:23:06Z</time>
      </trkpt>
      <trkpt lat="44.11353" lon="3.24223">
        <ele>792</ele>
        <time>2015-12-06T08:23:07Z</time>
      </trkpt>
      <trkpt lat="44.11357" lon="3.24222">
        <ele>791</ele>
        <time>2015-12-06T08:23:09Z</time>
      </trkpt>
      <trkpt lat="44.11359" lon="3.2422">
        <ele>792</ele>
        <time>2015-12-06T08:23:10Z</time>
      </trkpt>
      <trkpt lat="44.11361" lon="3.24219">
        <ele>791</ele>
        <time>2015-12-06T08:23:11Z</time>
      </trkpt>
      <trkpt lat="44.11362" lon="3.24218">
        <ele>791</ele>
        <time>2015-12-06T08:23:12Z</time>
      </trkpt>
      <trkpt lat="44.11363" lon="3.24218">
        <ele>790.5</ele>
        <time>2015-12-06T08:23:13Z</time>
      </trkpt>
      <trkpt lat="44.11364" lon="3.24218">
        <ele>789</ele>
        <time>2015-12-06T08:23:14Z</time>
      </trkpt>
      <trkpt lat="44.11365" lon="3.24219">
        <ele>789.5</ele>
        <time>2015-12-06T08:23:15Z</time>
      </trkpt>
      <trkpt lat="44.11364" lon="3.2422">
        <ele>789.5</ele>
        <time>2015-12-06T08:23:16Z</time>
      </trkpt>
      <trkpt lat="44.11363" lon="3.24221">
        <ele>789</ele>
        <time>2015-12-06T08:23:17Z</time>
      </trkpt>
      <trkpt lat="44.11363" lon="3.24225">
        <ele>789.5</ele>
        <time>2015-12-06T08:23:18Z</time>
      </trkpt>
      <trkpt lat="44.11363" lon="3.24228">
        <ele>789.5</ele>
        <time>2015-12-06T08:23:19Z</time>
      </trkpt>
      <trkpt lat="44.11362" lon="3.24232">
        <ele>789</ele>
        <time>2015-12-06T08:23:20Z</time>
      </trkpt>
      <trkpt lat="44.11363" lon="3.24237">
        <ele>784</ele>
        <time>2015-12-06T08:23:21Z</time>
      </trkpt>
      <trkpt lat="44.11363" lon="3.2424">
        <ele>784</ele>
        <time>2015-12-06T08:23:22Z</time>
      </trkpt>
      <trkpt lat="44.11362" lon="3.24243">
        <ele>783</ele>
        <time>2015-12-06T08:23:23Z</time>
      </trkpt>
      <trkpt lat="44.11361" lon="3.24246">
        <ele>782</ele>
        <time>2015-12-06T08:23:24Z</time>
      </trkpt>
      <trkpt lat="44.11361" lon="3.24248">
        <ele>783</ele>
        <time>2015-12-06T08:23:25Z</time>
      </trkpt>
      <trkpt lat="44.11361" lon="3.2425">
        <ele>783</ele>
        <time>2015-12-06T08:23:26Z</time>
      </trkpt>
      <trkpt lat="44.1136" lon="3.24252">
        <ele>782.5</ele>
        <time>2015-12-06T08:23:27Z</time>
      </trkpt>
      <trkpt lat="44.1136" lon="3.24254">
        <ele>782</ele>
        <time>2015-12-06T08:23:28Z</time>
      </trkpt>
      <trkpt lat="44.1136" lon="3.24254">
        <ele>782</ele>
        <time>2015-12-06T08:23:29Z</time>
      </trkpt>
      <trkpt lat="44.1136" lon="3.24253">
        <ele>777</ele>
        <time>2015-12-06T08:23:32Z</time>
      </trkpt>
      <trkpt lat="44.11361" lon="3.24252">
        <ele>775</ele>
        <time>2015-12-06T08:23:35Z</time>
      </trkpt>
      <trkpt lat="44.11362" lon="3.24253">
        <ele>774.5</ele>
        <time>2015-12-06T08:23:36Z</time>
      </trkpt>
      <trkpt lat="44.11362" lon="3.24251">
        <ele>770.5</ele>
        <time>2015-12-06T08:23:41Z</time>
      </trkpt>
      <trkpt lat="44.11363" lon="3.2425">
        <ele>770</ele>
        <time>2015-12-06T08:23:42Z</time>
      </trkpt>
      <trkpt lat="44.11365" lon="3.24248">
        <ele>770.5</ele>
        <time>2015-12-06T08:23:43Z</time>
      </trkpt>
      <trkpt lat="44.11368" lon="3.24247">
        <ele>770</ele>
        <time>2015-12-06T08:23:44Z</time>
      </trkpt>
      <trkpt lat="44.1137" lon="3.24244">
        <ele>768</ele>
        <time>2015-12-06T08:23:45Z</time>
      </trkpt>
      <trkpt lat="44.11373" lon="3.24241">
        <ele>768.5</ele>
        <time>2015-12-06T08:23:46Z</time>
      </trkpt>
      <trkpt lat="44.11374" lon="3.24238">
        <ele>767.5</ele>
        <time>2015-12-06T08:23:47Z</time>
      </trkpt>
      <trkpt lat="44.11375" lon="3.24235">
        <ele>767</ele>
        <time>2015-12-06T08:23:48Z</time>
      </trkpt>
      <trkpt lat="44.11377" lon="3.24231">
        <ele>766</ele>
        <time>2015-12-06T08:23:49Z</time>
      </trkpt>
      <trkpt lat="44.11379" lon="3.24228">
        <ele>766</ele>
        <time>2015-12-06T08:23:50Z</time>
      </trkpt>
      <trkpt lat="44.1138" lon="3.24223">
        <ele>765.5</ele>
        <time>2015-12-06T08:23:51Z</time>
      </trkpt>
      <trkpt lat="44.11381" lon="3.2422">
        <ele>765.5</ele>
        <time>2015-12-06T08:23:52Z</time>
      </trkpt>
      <trkpt lat="44.11382" lon="3.24217">
        <ele>765.5</ele>
        <time>2015-12-06T08:23:53Z</time>
      </trkpt>
      <trkpt lat="44.11383" lon="3.24215">
        <ele>765</ele>
        <time>2015-12-06T08:23:54Z</time>
      </trkpt>
      <trkpt lat="44.11383" lon="3.24213">
        <ele>764</ele>
        <time>2015-12-06T08:23:55Z</time>
      </trkpt>
      <trkpt lat="44.11383" lon="3.24211">
        <ele>763.5</ele>
        <time>2015-12-06T08:23:56Z</time>
      </trkpt>
      <trkpt lat="44.11384" lon="3.2421">
        <ele>762.5</ele>
        <time>2015-12-06T08:23:57Z</time>
      </trkpt>
      <trkpt lat="44.11384" lon="3.2421">
        <ele>763</ele>
        <time>2015-12-06T08:23:58Z</time>
      </trkpt>
      <trkpt lat="44.11384" lon="3.24211">
        <ele>762</ele>
        <time>2015-12-06T08:23:59Z</time>
      </trkpt>
      <trkpt lat="44.11383" lon="3.24214">
        <ele>761.5</ele>
        <time>2015-12-06T08:24:00Z</time>
      </trkpt>
      <trkpt lat="44.11382" lon="3.24216">
        <ele>761</ele>
        <time>2015-12-06T08:24:01Z</time>
      </trkpt>
      <trkpt lat="44.11382" lon="3.2422">
        <ele>759.5</ele>
        <time>2015-12-06T08:24:02Z</time>
      </trkpt>
      <trkpt lat="44.11381" lon="3.24225">
        <ele>759</ele>
        <time>2015-12-06T08:24:03Z</time>
      </trkpt>
      <trkpt lat="44.1138" lon="3.24229">
        <ele>759</ele>
        <time>2015-12-06T08:24:04Z</time>
      </trkpt>
      <trkpt lat="44.11378" lon="3.24234">
        <ele>758</ele>
        <time>2015-12-06T08:24:05Z</time>
      </trkpt>
      <trkpt lat="44.11377" lon="3.24238">
        <ele>756.5</ele>
        <time>2015-12-06T08:24:06Z</time>
      </trkpt>
      <trkpt lat="44.11378" lon="3.24244">
        <ele>756</ele>
        <time>2015-12-06T08:24:07Z</time>
      </trkpt>
      <trkpt lat="44.11377" lon="3.24249">
        <ele>755.5</ele>
        <time>2015-12-06T08:24:08Z</time>
      </trkpt>
      <trkpt lat="44.11378" lon="3.24252">
        <ele>755.5</ele>
        <time>2015-12-06T08:24:10Z</time>
      </trkpt>
      <trkpt lat="44.11378" lon="3.24255">
        <ele>755.5</ele>
        <time>2015-12-06T08:24:11Z</time>
      </trkpt>
      <trkpt lat="44.11378" lon="3.24257">
        <ele>756</ele>
        <time>2015-12-06T08:24:12Z</time>
      </trkpt>
      <trkpt lat="44.11378" lon="3.24259">
        <ele>755</ele>
        <time>2015-12-06T08:24:13Z</time>
      </trkpt>
      <trkpt lat="44.11379" lon="3.24261">
        <ele>754.5</ele>
        <time>2015-12-06T08:24:14Z</time>
      </trkpt>
      <trkpt lat="44.1138" lon="3.24262">
        <ele>754</ele>
        <time>2015-12-06T08:24:15Z</time>
      </trkpt>
      <trkpt lat="44.11381" lon="3.24261">
        <ele>753.5</ele>
        <time>2015-12-06T08:24:16Z</time>
      </trkpt>
      <trkpt lat="44.11382" lon="3.24261">
        <ele>753.5</ele>
        <time>2015-12-06T08:24:17Z</time>
      </trkpt>
      <trkpt lat="44.11388" lon="3.24257">
        <ele>753</ele>
        <time>2015-12-06T08:24:19Z</time>
      </trkpt>
      <trkpt lat="44.11391" lon="3.24254">
        <ele>752.5</ele>
        <time>2015-12-06T08:24:20Z</time>
      </trkpt>
      <trkpt lat="44.11392" lon="3.2425">
        <ele>753</ele>
        <time>2015-12-06T08:24:21Z</time>
      </trkpt>
      <trkpt lat="44.11393" lon="3.24248">
        <ele>753.5</ele>
        <time>2015-12-06T08:24:22Z</time>
      </trkpt>
      <trkpt lat="44.11394" lon="3.24246">
        <ele>753</ele>
        <time>2015-12-06T08:24:23Z</time>
      </trkpt>
      <trkpt lat="44.11396" lon="3.24244">
        <ele>753.5</ele>
        <time>2015-12-06T08:24:24Z</time>
      </trkpt>
      <trkpt lat="44.11396" lon="3.24242">
        <ele>753</ele>
        <time>2015-12-06T08:24:25Z</time>
      </trkpt>
      <trkpt lat="44.11397" lon="3.2424">
        <ele>752.5</ele>
        <time>2015-12-06T08:24:26Z</time>
      </trkpt>
      <trkpt lat="44.11397" lon="3.2424">
        <ele>752.5</ele>
        <time>2015-12-06T08:24:27Z</time>
      </trkpt>
      <trkpt lat="44.11398" lon="3.24241">
        <ele>752.5</ele>
        <time>2015-12-06T08:24:28Z</time>
      </trkpt>
      <trkpt lat="44.11397" lon="3.24244">
        <ele>752.5</ele>
        <time>2015-12-06T08:24:29Z</time>
      </trkpt>
      <trkpt lat="44.11398" lon="3.24244">
        <ele>751.5</ele>
        <time>2015-12-06T08:24:30Z</time>
      </trkpt>
      <trkpt lat="44.11398" lon="3.24243">
        <ele>751.5</ele>
        <time>2015-12-06T08:24:34Z</time>
      </trkpt>
      <trkpt lat="44.11399" lon="3.24244">
        <ele>751.5</ele>
        <time>2015-12-06T08:24:35Z</time>
      </trkpt>
      <trkpt lat="44.114" lon="3.24246">
        <ele>751.5</ele>
        <time>2015-12-06T08:24:36Z</time>
      </trkpt>
      <trkpt lat="44.11401" lon="3.24247">
        <ele>751.5</ele>
        <time>2015-12-06T08:24:37Z</time>
      </trkpt>
      <trkpt lat="44.11398" lon="3.24248">
        <ele>749</ele>
        <time>2015-12-06T08:24:38Z</time>
      </trkpt>
      <trkpt lat="44.11399" lon="3.24247">
        <ele>748.5</ele>
        <time>2015-12-06T08:24:39Z</time>
      </trkpt>
      <trkpt lat="44.11402" lon="3.24244">
        <ele>749</ele>
        <time>2015-12-06T08:24:41Z</time>
      </trkpt>
      <trkpt lat="44.11404" lon="3.24243">
        <ele>748.5</ele>
        <time>2015-12-06T08:24:42Z</time>
      </trkpt>
      <trkpt lat="44.11408" lon="3.24235">
        <ele>748.5</ele>
        <time>2015-12-06T08:24:44Z</time>
      </trkpt>
      <trkpt lat="44.1141" lon="3.24233">
        <ele>748</ele>
        <time>2015-12-06T08:24:45Z</time>
      </trkpt>
      <trkpt lat="44.11411" lon="3.24231">
        <ele>747.5</ele>
        <time>2015-12-06T08:24:46Z</time>
      </trkpt>
      <trkpt lat="44.11412" lon="3.24231">
        <ele>747</ele>
        <time>2015-12-06T08:24:47Z</time>
      </trkpt>
      <trkpt lat="44.11413" lon="3.2423">
        <ele>747</ele>
        <time>2015-12-06T08:24:48Z</time>
      </trkpt>
      <trkpt lat="44.11414" lon="3.24229">
        <ele>746.5</ele>
        <time>2015-12-06T08:24:49Z</time>
      </trkpt>
      <trkpt lat="44.11414" lon="3.2423">
        <ele>746.5</ele>
        <time>2015-12-06T08:24:51Z</time>
      </trkpt>
      <trkpt lat="44.11414" lon="3.24231">
        <ele>746</ele>
        <time>2015-12-06T08:24:52Z</time>
      </trkpt>
      <trkpt lat="44.11416" lon="3.24234">
        <ele>745</ele>
        <time>2015-12-06T08:24:53Z</time>
      </trkpt>
      <trkpt lat="44.11418" lon="3.24237">
        <ele>744.5</ele>
        <time>2015-12-06T08:24:54Z</time>
      </trkpt>
      <trkpt lat="44.11419" lon="3.24239">
        <ele>745</ele>
        <time>2015-12-06T08:24:55Z</time>
      </trkpt>
      <trkpt lat="44.11419" lon="3.2424">
        <ele>745</ele>
        <time>2015-12-06T08:24:56Z</time>
      </trkpt>
      <trkpt lat="44.11419" lon="3.24241">
        <ele>744.5</ele>
        <time>2015-12-06T08:24:57Z</time>
      </trkpt>
      <trkpt lat="44.11419" lon="3.24241">
        <ele>744</ele>
        <time>2015-12-06T08:24:58Z</time>
      </trkpt>
      <trkpt lat="44.11418" lon="3.24242">
        <ele>743.5</ele>
        <time>2015-12-06T08:24:59Z</time>
      </trkpt>
      <trkpt lat="44.11417" lon="3.24242">
        <ele>742</ele>
        <time>2015-12-06T08:25:01Z</time>
      </trkpt>
      <trkpt lat="44.11417" lon="3.24243">
        <ele>741.5</ele>
        <time>2015-12-06T08:25:03Z</time>
      </trkpt>
      <trkpt lat="44.11417" lon="3.24243">
        <ele>740</ele>
        <time>2015-12-06T08:25:04Z</time>
      </trkpt>
      <trkpt lat="44.11416" lon="3.24239">
        <ele>738</ele>
        <time>2015-12-06T08:25:07Z</time>
      </trkpt>
      <trkpt lat="44.11421" lon="3.24236">
        <ele>736</ele>
        <time>2015-12-06T08:25:09Z</time>
      </trkpt>
      <trkpt lat="44.11421" lon="3.24232">
        <ele>736</ele>
        <time>2015-12-06T08:25:10Z</time>
      </trkpt>
      <trkpt lat="44.11423" lon="3.24229">
        <ele>734</ele>
        <time>2015-12-06T08:25:10Z</time>
      </trkpt>
      <trkpt lat="44.11425" lon="3.24227">
        <ele>733</ele>
        <time>2015-12-06T08:25:12Z</time>
      </trkpt>
      <trkpt lat="44.11426" lon="3.24225">
        <ele>732.5</ele>
        <time>2015-12-06T08:25:12Z</time>
      </trkpt>
      <trkpt lat="44.11427" lon="3.24226">
        <ele>732.5</ele>
        <time>2015-12-06T08:25:14Z</time>
      </trkpt>
      <trkpt lat="44.11427" lon="3.24227">
        <ele>732.5</ele>
        <time>2015-12-06T08:25:15Z</time>
      </trkpt>
      <trkpt lat="44.11427" lon="3.2423">
        <ele>733.5</ele>
        <time>2015-12-06T08:25:15Z</time>
      </trkpt>
      <trkpt lat="44.11426" lon="3.24233">
        <ele>733.5</ele>
        <time>2015-12-06T08:25:17Z</time>
      </trkpt>
      <trkpt lat="44.11424" lon="3.24244">
        <ele>734</ele>
        <time>2015-12-06T08:25:19Z</time>
      </trkpt>
      <trkpt lat="44.11426" lon="3.24247">
        <ele>735</ele>
        <time>2015-12-06T08:25:19Z</time>
      </trkpt>
      <trkpt lat="44.11426" lon="3.24251">
        <ele>735</ele>
        <time>2015-12-06T08:25:20Z</time>
      </trkpt>
      <trkpt lat="44.11426" lon="3.24253">
        <ele>735</ele>
        <time>2015-12-06T08:25:22Z</time>
      </trkpt>
      <trkpt lat="44.11426" lon="3.24255">
        <ele>734.5</ele>
        <time>2015-12-06T08:25:22Z</time>
      </trkpt>
      <trkpt lat="44.11425" lon="3.24258">
        <ele>734</ele>
        <time>2015-12-06T08:25:24Z</time>
      </trkpt>
      <trkpt lat="44.11426" lon="3.24262">
        <ele>736</ele>
        <time>2015-12-06T08:25:24Z</time>
      </trkpt>
      <trkpt lat="44.11427" lon="3.24263">
        <ele>736</ele>
        <time>2015-12-06T08:25:25Z</time>
      </trkpt>
      <trkpt lat="44.11432" lon="3.2427">
        <ele>736</ele>
        <time>2015-12-06T08:25:27Z</time>
      </trkpt>
      <trkpt lat="44.11432" lon="3.24273">
        <ele>736</ele>
        <time>2015-12-06T08:25:28Z</time>
      </trkpt>
      <trkpt lat="44.11435" lon="3.24282">
        <ele>736.5</ele>
        <time>2015-12-06T08:25:30Z</time>
      </trkpt>
      <trkpt lat="44.11435" lon="3.24285">
        <ele>734.5</ele>
        <time>2015-12-06T08:25:31Z</time>
      </trkpt>
      <trkpt lat="44.11436" lon="3.24287">
        <ele>734</ele>
        <time>2015-12-06T08:25:32Z</time>
      </trkpt>
      <trkpt lat="44.11436" lon="3.24289">
        <ele>733</ele>
        <time>2015-12-06T08:25:33Z</time>
      </trkpt>
      <trkpt lat="44.11437" lon="3.24291">
        <ele>733.5</ele>
        <time>2015-12-06T08:25:34Z</time>
      </trkpt>
      <trkpt lat="44.11436" lon="3.24292">
        <ele>732.5</ele>
        <time>2015-12-06T08:25:35Z</time>
      </trkpt>
      <trkpt lat="44.11436" lon="3.24292">
        <ele>731.5</ele>
        <time>2015-12-06T08:25:36Z</time>
      </trkpt>
      <trkpt lat="44.11434" lon="3.24293">
        <ele>730.5</ele>
        <time>2015-12-06T08:25:37Z</time>
      </trkpt>
      <trkpt lat="44.11433" lon="3.24294">
        <ele>729</ele>
        <time>2015-12-06T08:25:38Z</time>
      </trkpt>
      <trkpt lat="44.11433" lon="3.24295">
        <ele>728</ele>
        <time>2015-12-06T08:25:39Z</time>
      </trkpt>
      <trkpt lat="44.11433" lon="3.24296">
        <ele>728</ele>
        <time>2015-12-06T08:25:40Z</time>
      </trkpt>
      <trkpt lat="44.11433" lon="3.24298">
        <ele>727.5</ele>
        <time>2015-12-06T08:25:41Z</time>
      </trkpt>
      <trkpt lat="44.11432" lon="3.24298">
        <ele>727</ele>
        <time>2015-12-06T08:25:42Z</time>
      </trkpt>
      <trkpt lat="44.1143" lon="3.24299">
        <ele>725</ele>
        <time>2015-12-06T08:25:43Z</time>
      </trkpt>
      <trkpt lat="44.11428" lon="3.243">
        <ele>723</ele>
        <time>2015-12-06T08:25:44Z</time>
      </trkpt>
      <trkpt lat="44.11427" lon="3.24301">
        <ele>721.5</ele>
        <time>2015-12-06T08:25:45Z</time>
      </trkpt>
      <trkpt lat="44.11428" lon="3.24302">
        <ele>721.5</ele>
        <time>2015-12-06T08:25:47Z</time>
      </trkpt>
      <trkpt lat="44.11428" lon="3.24303">
        <ele>721.5</ele>
        <time>2015-12-06T08:25:47Z</time>
      </trkpt>
      <trkpt lat="44.11427" lon="3.24303">
        <ele>721</ele>
        <time>2015-12-06T08:25:48Z</time>
      </trkpt>
      <trkpt lat="44.11426" lon="3.24305">
        <ele>719</ele>
        <time>2015-12-06T08:25:50Z</time>
      </trkpt>
      <trkpt lat="44.11426" lon="3.24306">
        <ele>718.5</ele>
        <time>2015-12-06T08:25:52Z</time>
      </trkpt>
      <trkpt lat="44.11425" lon="3.24307">
        <ele>717</ele>
        <time>2015-12-06T08:25:55Z</time>
      </trkpt>
      <trkpt lat="44.11426" lon="3.2431">
        <ele>717</ele>
        <time>2015-12-06T08:25:57Z</time>
      </trkpt>
      <trkpt lat="44.11424" lon="3.24312">
        <ele>715.5</ele>
        <time>2015-12-06T08:25:58Z</time>
      </trkpt>
      <trkpt lat="44.11424" lon="3.24314">
        <ele>714.5</ele>
        <time>2015-12-06T08:26:00Z</time>
      </trkpt>
      <trkpt lat="44.11425" lon="3.24313">
        <ele>715.5</ele>
        <time>2015-12-06T08:26:00Z</time>
      </trkpt>
      <trkpt lat="44.11426" lon="3.24313">
        <ele>715.5</ele>
        <time>2015-12-06T08:26:02Z</time>
      </trkpt>
      <trkpt lat="44.11425" lon="3.24312">
        <ele>715</ele>
        <time>2015-12-06T08:26:03Z</time>
      </trkpt>
      <trkpt lat="44.11425" lon="3.24309">
        <ele>712.5</ele>
        <time>2015-12-06T08:26:05Z</time>
      </trkpt>
      <trkpt lat="44.11427" lon="3.24307">
        <ele>711</ele>
        <time>2015-12-06T08:26:06Z</time>
      </trkpt>
      <trkpt lat="44.11428" lon="3.24305">
        <ele>710</ele>
        <time>2015-12-06T08:26:07Z</time>
      </trkpt>
      <trkpt lat="44.11429" lon="3.24301">
        <ele>709</ele>
        <time>2015-12-06T08:26:08Z</time>
      </trkpt>
      <trkpt lat="44.11431" lon="3.24297">
        <ele>708.5</ele>
        <time>2015-12-06T08:26:09Z</time>
      </trkpt>
      <trkpt lat="44.11433" lon="3.24295">
        <ele>708</ele>
        <time>2015-12-06T08:26:10Z</time>
      </trkpt>
      <trkpt lat="44.11434" lon="3.24292">
        <ele>707.5</ele>
        <time>2015-12-06T08:26:11Z</time>
      </trkpt>
      <trkpt lat="44.11433" lon="3.24291">
        <ele>707.5</ele>
        <time>2015-12-06T08:26:12Z</time>
      </trkpt>
      <trkpt lat="44.11431" lon="3.24288">
        <ele>707.5</ele>
        <time>2015-12-06T08:26:13Z</time>
      </trkpt>
      <trkpt lat="44.11432" lon="3.24284">
        <ele>707.5</ele>
        <time>2015-12-06T08:26:14Z</time>
      </trkpt>
      <trkpt lat="44.11433" lon="3.24279">
        <ele>707.5</ele>
        <time>2015-12-06T08:26:15Z</time>
      </trkpt>
      <trkpt lat="44.11435" lon="3.24275">
        <ele>707.5</ele>
        <time>2015-12-06T08:26:16Z</time>
      </trkpt>
      <trkpt lat="44.11438" lon="3.24271">
        <ele>707</ele>
        <time>2015-12-06T08:26:17Z</time>
      </trkpt>
      <trkpt lat="44.11441" lon="3.24268">
        <ele>707</ele>
        <time>2015-12-06T08:26:18Z</time>
      </trkpt>
      <trkpt lat="44.11444" lon="3.24266">
        <ele>707</ele>
        <time>2015-12-06T08:26:19Z</time>
      </trkpt>
      <trkpt lat="44.11446" lon="3.24266">
        <ele>707</ele>
        <time>2015-12-06T08:26:21Z</time>
      </trkpt>
      <trkpt lat="44.11451" lon="3.2427">
        <ele>707.5</ele>
        <time>2015-12-06T08:26:22Z</time>
      </trkpt>
      <trkpt lat="44.11452" lon="3.2427">
        <ele>708.5</ele>
        <time>2015-12-06T08:26:23Z</time>
      </trkpt>
      <trkpt lat="44.11452" lon="3.24271">
        <ele>708.5</ele>
        <time>2015-12-06T08:26:24Z</time>
      </trkpt>
      <trkpt lat="44.1145" lon="3.24277">
        <ele>708.5</ele>
        <time>2015-12-06T08:26:26Z</time>
      </trkpt>
      <trkpt lat="44.11449" lon="3.2428">
        <ele>708</ele>
        <time>2015-12-06T08:26:27Z</time>
      </trkpt>
      <trkpt lat="44.11449" lon="3.24282">
        <ele>706</ele>
        <time>2015-12-06T08:26:28Z</time>
      </trkpt>
      <trkpt lat="44.1145" lon="3.24283">
        <ele>705.5</ele>
        <time>2015-12-06T08:26:29Z</time>
      </trkpt>
      <trkpt lat="44.1145" lon="3.24287">
        <ele>705.5</ele>
        <time>2015-12-06T08:26:30Z</time>
      </trkpt>
      <trkpt lat="44.11451" lon="3.24289">
        <ele>706.5</ele>
        <time>2015-12-06T08:26:31Z</time>
      </trkpt>
      <trkpt lat="44.11452" lon="3.2429">
        <ele>706.5</ele>
        <time>2015-12-06T08:26:32Z</time>
      </trkpt>
      <trkpt lat="44.11453" lon="3.24289">
        <ele>707</ele>
        <time>2015-12-06T08:26:33Z</time>
      </trkpt>
      <trkpt lat="44.11454" lon="3.24289">
        <ele>707.5</ele>
        <time>2015-12-06T08:26:34Z</time>
      </trkpt>
      <trkpt lat="44.11457" lon="3.24289">
        <ele>708</ele>
        <time>2015-12-06T08:26:35Z</time>
      </trkpt>
      <trkpt lat="44.11458" lon="3.24287">
        <ele>708</ele>
        <time>2015-12-06T08:26:36Z</time>
      </trkpt>
      <trkpt lat="44.11461" lon="3.24285">
        <ele>708.5</ele>
        <time>2015-12-06T08:26:37Z</time>
      </trkpt>
      <trkpt lat="44.11463" lon="3.24282">
        <ele>709</ele>
        <time>2015-12-06T08:26:38Z</time>
      </trkpt>
      <trkpt lat="44.11466" lon="3.24279">
        <ele>709</ele>
        <time>2015-12-06T08:26:39Z</time>
      </trkpt>
      <trkpt lat="44.11469" lon="3.24277">
        <ele>708.5</ele>
        <time>2015-12-06T08:26:40Z</time>
      </trkpt>
      <trkpt lat="44.11474" lon="3.24279">
        <ele>708.5</ele>
        <time>2015-12-06T08:26:42Z</time>
      </trkpt>
      <trkpt lat="44.11473" lon="3.2428">
        <ele>706.5</ele>
        <time>2015-12-06T08:26:44Z</time>
      </trkpt>
      <trkpt lat="44.11474" lon="3.2428">
        <ele>706.5</ele>
        <time>2015-12-06T08:26:45Z</time>
      </trkpt>
      <trkpt lat="44.11474" lon="3.24281">
        <ele>707</ele>
        <time>2015-12-06T08:26:46Z</time>
      </trkpt>
      <trkpt lat="44.11474" lon="3.24281">
        <ele>706</ele>
        <time>2015-12-06T08:26:47Z</time>
      </trkpt>
      <trkpt lat="44.11473" lon="3.24282">
        <ele>705</ele>
        <time>2015-12-06T08:26:48Z</time>
      </trkpt>
      <trkpt lat="44.11472" lon="3.24284">
        <ele>704.5</ele>
        <time>2015-12-06T08:26:49Z</time>
      </trkpt>
      <trkpt lat="44.11471" lon="3.24287">
        <ele>704</ele>
        <time>2015-12-06T08:26:50Z</time>
      </trkpt>
      <trkpt lat="44.11472" lon="3.24288">
        <ele>702.5</ele>
        <time>2015-12-06T08:26:51Z</time>
      </trkpt>
      <trkpt lat="44.11471" lon="3.24289">
        <ele>700.5</ele>
        <time>2015-12-06T08:26:52Z</time>
      </trkpt>
      <trkpt lat="44.11471" lon="3.24291">
        <ele>700</ele>
        <time>2015-12-06T08:26:53Z</time>
      </trkpt>
      <trkpt lat="44.11471" lon="3.24292">
        <ele>698.5</ele>
        <time>2015-12-06T08:26:54Z</time>
      </trkpt>
      <trkpt lat="44.11472" lon="3.24292">
        <ele>696.5</ele>
        <time>2015-12-06T08:26:55Z</time>
      </trkpt>
      <trkpt lat="44.11472" lon="3.24292">
        <ele>696.5</ele>
        <time>2015-12-06T08:26:56Z</time>
      </trkpt>
      <trkpt lat="44.11477" lon="3.24289">
        <ele>696</ele>
        <time>2015-12-06T08:26:58Z</time>
      </trkpt>
      <trkpt lat="44.11479" lon="3.24286">
        <ele>696</ele>
        <time>2015-12-06T08:26:59Z</time>
      </trkpt>
      <trkpt lat="44.11482" lon="3.24283">
        <ele>695.5</ele>
        <time>2015-12-06T08:27:00Z</time>
      </trkpt>
      <trkpt lat="44.11486" lon="3.2428">
        <ele>695</ele>
        <time>2015-12-06T08:27:01Z</time>
      </trkpt>
      <trkpt lat="44.11492" lon="3.24276">
        <ele>694</ele>
        <time>2015-12-06T08:27:03Z</time>
      </trkpt>
      <trkpt lat="44.11501" lon="3.24273">
        <ele>693</ele>
        <time>2015-12-06T08:27:05Z</time>
      </trkpt>
      <trkpt lat="44.11504" lon="3.24271">
        <ele>693.5</ele>
        <time>2015-12-06T08:27:07Z</time>
      </trkpt>
      <trkpt lat="44.11508" lon="3.2427">
        <ele>692.5</ele>
        <time>2015-12-06T08:27:08Z</time>
      </trkpt>
      <trkpt lat="44.11511" lon="3.2427">
        <ele>692</ele>
        <time>2015-12-06T08:27:09Z</time>
      </trkpt>
      <trkpt lat="44.11515" lon="3.24269">
        <ele>691.5</ele>
        <time>2015-12-06T08:27:10Z</time>
      </trkpt>
      <trkpt lat="44.11519" lon="3.24267">
        <ele>686.5</ele>
        <time>2015-12-06T08:27:12Z</time>
      </trkpt>
      <trkpt lat="44.11521" lon="3.24267">
        <ele>685.5</ele>
        <time>2015-12-06T08:27:13Z</time>
      </trkpt>
      <trkpt lat="44.11523" lon="3.24266">
        <ele>684.5</ele>
        <time>2015-12-06T08:27:14Z</time>
      </trkpt>
      <trkpt lat="44.11525" lon="3.24266">
        <ele>683.5</ele>
        <time>2015-12-06T08:27:15Z</time>
      </trkpt>
      <trkpt lat="44.11526" lon="3.24265">
        <ele>682.5</ele>
        <time>2015-12-06T08:27:16Z</time>
      </trkpt>
      <trkpt lat="44.11528" lon="3.24265">
        <ele>682</ele>
        <time>2015-12-06T08:27:17Z</time>
      </trkpt>
      <trkpt lat="44.1153" lon="3.24265">
        <ele>680</ele>
        <time>2015-12-06T08:27:18Z</time>
      </trkpt>
      <trkpt lat="44.11532" lon="3.24266">
        <ele>679.5</ele>
        <time>2015-12-06T08:27:19Z</time>
      </trkpt>
      <trkpt lat="44.11534" lon="3.24266">
        <ele>679</ele>
        <time>2015-12-06T08:27:20Z</time>
      </trkpt>
      <trkpt lat="44.11534" lon="3.24264">
        <ele>678.5</ele>
        <time>2015-12-06T08:27:21Z</time>
      </trkpt>
      <trkpt lat="44.11534" lon="3.24262">
        <ele>678</ele>
        <time>2015-12-06T08:27:22Z</time>
      </trkpt>
      <trkpt lat="44.11528" lon="3.24254">
        <ele>679.5</ele>
        <time>2015-12-06T08:27:24Z</time>
      </trkpt>
      <trkpt lat="44.11529" lon="3.24251">
        <ele>681</ele>
        <time>2015-12-06T08:27:25Z</time>
      </trkpt>
      <trkpt lat="44.11529" lon="3.24248">
        <ele>681</ele>
        <time>2015-12-06T08:27:26Z</time>
      </trkpt>
      <trkpt lat="44.11528" lon="3.24248">
        <ele>680.5</ele>
        <time>2015-12-06T08:27:28Z</time>
      </trkpt>
      <trkpt lat="44.11532" lon="3.24252">
        <ele>678.5</ele>
        <time>2015-12-06T08:27:30Z</time>
      </trkpt>
      <trkpt lat="44.11534" lon="3.24254">
        <ele>675.5</ele>
        <time>2015-12-06T08:27:31Z</time>
      </trkpt>
      <trkpt lat="44.11536" lon="3.24257">
        <ele>674</ele>
        <time>2015-12-06T08:27:32Z</time>
      </trkpt>
      <trkpt lat="44.11538" lon="3.24259">
        <ele>672.5</ele>
        <time>2015-12-06T08:27:33Z</time>
      </trkpt>
      <trkpt lat="44.1154" lon="3.24259">
        <ele>671.5</ele>
        <time>2015-12-06T08:27:34Z</time>
      </trkpt>
      <trkpt lat="44.11543" lon="3.2426">
        <ele>670</ele>
        <time>2015-12-06T08:27:35Z</time>
      </trkpt>
      <trkpt lat="44.11546" lon="3.24261">
        <ele>670</ele>
        <time>2015-12-06T08:27:36Z</time>
      </trkpt>
      <trkpt lat="44.1155" lon="3.24264">
        <ele>669</ele>
        <time>2015-12-06T08:27:37Z</time>
      </trkpt>
      <trkpt lat="44.11553" lon="3.24268">
        <ele>667</ele>
        <time>2015-12-06T08:27:38Z</time>
      </trkpt>
      <trkpt lat="44.11555" lon="3.24271">
        <ele>666.5</ele>
        <time>2015-12-06T08:27:39Z</time>
      </trkpt>
      <trkpt lat="44.11559" lon="3.24274">
        <ele>665.5</ele>
        <time>2015-12-06T08:27:40Z</time>
      </trkpt>
      <trkpt lat="44.11563" lon="3.24278">
        <ele>665</ele>
        <time>2015-12-06T08:27:41Z</time>
      </trkpt>
      <trkpt lat="44.11566" lon="3.24282">
        <ele>663</ele>
        <time>2015-12-06T08:27:42Z</time>
      </trkpt>
      <trkpt lat="44.11577" lon="3.24288">
        <ele>658.5</ele>
        <time>2015-12-06T08:27:44Z</time>
      </trkpt>
      <trkpt lat="44.1158" lon="3.24293">
        <ele>655.5</ele>
        <time>2015-12-06T08:27:46Z</time>
      </trkpt>
      <trkpt lat="44.11581" lon="3.24296">
        <ele>653.5</ele>
        <time>2015-12-06T08:27:47Z</time>
      </trkpt>
      <trkpt lat="44.11583" lon="3.243">
        <ele>651.5</ele>
        <time>2015-12-06T08:27:48Z</time>
      </trkpt>
      <trkpt lat="44.11585" lon="3.24298">
        <ele>652</ele>
        <time>2015-12-06T08:27:49Z</time>
      </trkpt>
      <trkpt lat="44.11588" lon="3.24296">
        <ele>652.5</ele>
        <time>2015-12-06T08:27:50Z</time>
      </trkpt>
      <trkpt lat="44.11592" lon="3.24295">
        <ele>652.5</ele>
        <time>2015-12-06T08:27:51Z</time>
      </trkpt>
      <trkpt lat="44.11596" lon="3.24296">
        <ele>650.5</ele>
        <time>2015-12-06T08:27:52Z</time>
      </trkpt>
      <trkpt lat="44.116" lon="3.24295">
        <ele>648.5</ele>
        <time>2015-12-06T08:27:53Z</time>
      </trkpt>
      <trkpt lat="44.11602" lon="3.24295">
        <ele>648</ele>
        <time>2015-12-06T08:27:54Z</time>
      </trkpt>
      <trkpt lat="44.11603" lon="3.24297">
        <ele>648</ele>
        <time>2015-12-06T08:27:55Z</time>
      </trkpt>
      <trkpt lat="44.11604" lon="3.243">
        <ele>646.5</ele>
        <time>2015-12-06T08:27:56Z</time>
      </trkpt>
      <trkpt lat="44.11604" lon="3.24302">
        <ele>645</ele>
        <time>2015-12-06T08:27:57Z</time>
      </trkpt>
      <trkpt lat="44.11606" lon="3.24303">
        <ele>643.5</ele>
        <time>2015-12-06T08:27:58Z</time>
      </trkpt>
      <trkpt lat="44.11611" lon="3.243">
        <ele>644.5</ele>
        <time>2015-12-06T08:28:00Z</time>
      </trkpt>
      <trkpt lat="44.11614" lon="3.24299">
        <ele>644</ele>
        <time>2015-12-06T08:28:01Z</time>
      </trkpt>
      <trkpt lat="44.11614" lon="3.24297">
        <ele>642</ele>
        <time>2015-12-06T08:28:02Z</time>
      </trkpt>
      <trkpt lat="44.11614" lon="3.24291">
        <ele>642.5</ele>
        <time>2015-12-06T08:28:04Z</time>
      </trkpt>
      <trkpt lat="44.11616" lon="3.24291">
        <ele>641.5</ele>
        <time>2015-12-06T08:28:05Z</time>
      </trkpt>
      <trkpt lat="44.11624" lon="3.24293">
        <ele>642</ele>
        <time>2015-12-06T08:28:07Z</time>
      </trkpt>
      <trkpt lat="44.11626" lon="3.24294">
        <ele>641</ele>
        <time>2015-12-06T08:28:08Z</time>
      </trkpt>
      <trkpt lat="44.11627" lon="3.24298">
        <ele>640.5</ele>
        <time>2015-12-06T08:28:09Z</time>
      </trkpt>
      <trkpt lat="44.11626" lon="3.24303">
        <ele>640.5</ele>
        <time>2015-12-06T08:28:10Z</time>
      </trkpt>
      <trkpt lat="44.11625" lon="3.24307">
        <ele>639</ele>
        <time>2015-12-06T08:28:11Z</time>
      </trkpt>
      <trkpt lat="44.11624" lon="3.24313">
        <ele>637</ele>
        <time>2015-12-06T08:28:12Z</time>
      </trkpt>
      <trkpt lat="44.11623" lon="3.24316">
        <ele>636.5</ele>
        <time>2015-12-06T08:28:13Z</time>
      </trkpt>
      <trkpt lat="44.1162" lon="3.24317">
        <ele>636.5</ele>
        <time>2015-12-06T08:28:14Z</time>
      </trkpt>
      <trkpt lat="44.1162" lon="3.2432">
        <ele>636</ele>
        <time>2015-12-06T08:28:16Z</time>
      </trkpt>
      <trkpt lat="44.11626" lon="3.24321">
        <ele>636</ele>
        <time>2015-12-06T08:28:18Z</time>
      </trkpt>
      <trkpt lat="44.11634" lon="3.24318">
        <ele>634</ele>
        <time>2015-12-06T08:28:20Z</time>
      </trkpt>
      <trkpt lat="44.11638" lon="3.24315">
        <ele>634.5</ele>
        <time>2015-12-06T08:28:21Z</time>
      </trkpt>
      <trkpt lat="44.11641" lon="3.24312">
        <ele>636.5</ele>
        <time>2015-12-06T08:28:22Z</time>
      </trkpt>
      <trkpt lat="44.11643" lon="3.2431">
        <ele>636</ele>
        <time>2015-12-06T08:28:23Z</time>
      </trkpt>
      <trkpt lat="44.11648" lon="3.24306">
        <ele>637.5</ele>
        <time>2015-12-06T08:28:25Z</time>
      </trkpt>
      <trkpt lat="44.11649" lon="3.24304">
        <ele>636.5</ele>
        <time>2015-12-06T08:28:26Z</time>
      </trkpt>
      <trkpt lat="44.11648" lon="3.24302">
        <ele>636.5</ele>
        <time>2015-12-06T08:28:27Z</time>
      </trkpt>
      <trkpt lat="44.11648" lon="3.243">
        <ele>635</ele>
        <time>2015-12-06T08:28:28Z</time>
      </trkpt>
      <trkpt lat="44.11648" lon="3.24298">
        <ele>636</ele>
        <time>2015-12-06T08:28:29Z</time>
      </trkpt>
      <trkpt lat="44.11648" lon="3.24295">
        <ele>636</ele>
        <time>2015-12-06T08:28:30Z</time>
      </trkpt>
      <trkpt lat="44.11647" lon="3.24294">
        <ele>633</ele>
        <time>2015-12-06T08:28:31Z</time>
      </trkpt>
      <trkpt lat="44.11645" lon="3.24292">
        <ele>632.5</ele>
        <time>2015-12-06T08:28:32Z</time>
      </trkpt>
      <trkpt lat="44.11644" lon="3.2429">
        <ele>633</ele>
        <time>2015-12-06T08:28:33Z</time>
      </trkpt>
      <trkpt lat="44.11644" lon="3.24287">
        <ele>632.5</ele>
        <time>2015-12-06T08:28:34Z</time>
      </trkpt>
      <trkpt lat="44.11645" lon="3.24286">
        <ele>631.5</ele>
        <time>2015-12-06T08:28:35Z</time>
      </trkpt>
      <trkpt lat="44.11646" lon="3.24286">
        <ele>630</ele>
        <time>2015-12-06T08:28:36Z</time>
      </trkpt>
      <trkpt lat="44.11648" lon="3.24286">
        <ele>630.5</ele>
        <time>2015-12-06T08:28:37Z</time>
      </trkpt>
      <trkpt lat="44.11649" lon="3.24287">
        <ele>630</ele>
        <time>2015-12-06T08:28:38Z</time>
      </trkpt>
      <trkpt lat="44.11656" lon="3.24288">
        <ele>632</ele>
        <time>2015-12-06T08:28:40Z</time>
      </trkpt>
      <trkpt lat="44.11658" lon="3.24293">
        <ele>631.5</ele>
        <time>2015-12-06T08:28:41Z</time>
      </trkpt>
      <trkpt lat="44.11661" lon="3.24295">
        <ele>631</ele>
        <time>2015-12-06T08:28:42Z</time>
      </trkpt>
      <trkpt lat="44.11667" lon="3.24303">
        <ele>628</ele>
        <time>2015-12-06T08:28:44Z</time>
      </trkpt>
      <trkpt lat="44.1167" lon="3.24307">
        <ele>627.5</ele>
        <time>2015-12-06T08:28:45Z</time>
      </trkpt>
      <trkpt lat="44.11675" lon="3.24313">
        <ele>626</ele>
        <time>2015-12-06T08:28:47Z</time>
      </trkpt>
      <trkpt lat="44.11678" lon="3.24313">
        <ele>623</ele>
        <time>2015-12-06T08:28:49Z</time>
      </trkpt>
      <trkpt lat="44.11679" lon="3.24312">
        <ele>623</ele>
        <time>2015-12-06T08:28:50Z</time>
      </trkpt>
      <trkpt lat="44.11679" lon="3.24309">
        <ele>622.5</ele>
        <time>2015-12-06T08:28:51Z</time>
      </trkpt>
      <trkpt lat="44.1168" lon="3.24305">
        <ele>622.5</ele>
        <time>2015-12-06T08:28:52Z</time>
      </trkpt>
      <trkpt lat="44.1168" lon="3.24301">
        <ele>622.5</ele>
        <time>2015-12-06T08:28:53Z</time>
      </trkpt>
      <trkpt lat="44.11679" lon="3.24297">
        <ele>622.5</ele>
        <time>2015-12-06T08:28:54Z</time>
      </trkpt>
      <trkpt lat="44.11679" lon="3.24294">
        <ele>621.5</ele>
        <time>2015-12-06T08:28:55Z</time>
      </trkpt>
      <trkpt lat="44.11677" lon="3.24291">
        <ele>622.5</ele>
        <time>2015-12-06T08:28:56Z</time>
      </trkpt>
      <trkpt lat="44.11675" lon="3.24287">
        <ele>622</ele>
        <time>2015-12-06T08:28:57Z</time>
      </trkpt>
      <trkpt lat="44.11675" lon="3.24284">
        <ele>620</ele>
        <time>2015-12-06T08:28:58Z</time>
      </trkpt>
      <trkpt lat="44.11673" lon="3.24282">
        <ele>620</ele>
        <time>2015-12-06T08:28:59Z</time>
      </trkpt>
      <trkpt lat="44.11671" lon="3.24279">
        <ele>620.5</ele>
        <time>2015-12-06T08:29:00Z</time>
      </trkpt>
      <trkpt lat="44.11669" lon="3.24277">
        <ele>620.5</ele>
        <time>2015-12-06T08:29:01Z</time>
      </trkpt>
      <trkpt lat="44.11669" lon="3.24275">
        <ele>620</ele>
        <time>2015-12-06T08:29:02Z</time>
      </trkpt>
      <trkpt lat="44.11671" lon="3.24275">
        <ele>618.5</ele>
        <time>2015-12-06T08:29:03Z</time>
      </trkpt>
      <trkpt lat="44.11673" lon="3.24275">
        <ele>616.5</ele>
        <time>2015-12-06T08:29:04Z</time>
      </trkpt>
      <trkpt lat="44.11675" lon="3.24276">
        <ele>616</ele>
        <time>2015-12-06T08:29:05Z</time>
      </trkpt>
      <trkpt lat="44.11677" lon="3.24278">
        <ele>615.5</ele>
        <time>2015-12-06T08:29:06Z</time>
      </trkpt>
      <trkpt lat="44.11679" lon="3.24281">
        <ele>613.5</ele>
        <time>2015-12-06T08:29:07Z</time>
      </trkpt>
      <trkpt lat="44.11688" lon="3.24288">
        <ele>613</ele>
        <time>2015-12-06T08:29:09Z</time>
      </trkpt>
      <trkpt lat="44.11692" lon="3.24292">
        <ele>611.5</ele>
        <time>2015-12-06T08:29:10Z</time>
      </trkpt>
      <trkpt lat="44.11696" lon="3.24296">
        <ele>610</ele>
        <time>2015-12-06T08:29:11Z</time>
      </trkpt>
      <trkpt lat="44.117" lon="3.24298">
        <ele>610</ele>
        <time>2015-12-06T08:29:12Z</time>
      </trkpt>
      <trkpt lat="44.11702" lon="3.24299">
        <ele>610</ele>
        <time>2015-12-06T08:29:13Z</time>
      </trkpt>
      <trkpt lat="44.1171" lon="3.24306">
        <ele>608.5</ele>
        <time>2015-12-06T08:29:15Z</time>
      </trkpt>
      <trkpt lat="44.11715" lon="3.24311">
        <ele>607.5</ele>
        <time>2015-12-06T08:29:16Z</time>
      </trkpt>
      <trkpt lat="44.11718" lon="3.24315">
        <ele>607.5</ele>
        <time>2015-12-06T08:29:17Z</time>
      </trkpt>
      <trkpt lat="44.11721" lon="3.24318">
        <ele>606.5</ele>
        <time>2015-12-06T08:29:18Z</time>
      </trkpt>
      <trkpt lat="44.11725" lon="3.24322">
        <ele>605.5</ele>
        <time>2015-12-06T08:29:19Z</time>
      </trkpt>
      <trkpt lat="44.11728" lon="3.24327">
        <ele>605</ele>
        <time>2015-12-06T08:29:20Z</time>
      </trkpt>
      <trkpt lat="44.1173" lon="3.24334">
        <ele>600.5</ele>
        <time>2015-12-06T08:29:21Z</time>
      </trkpt>
      <trkpt lat="44.11731" lon="3.24341">
        <ele>601</ele>
        <time>2015-12-06T08:29:23Z</time>
      </trkpt>
      <trkpt lat="44.11729" lon="3.24348">
        <ele>597.5</ele>
        <time>2015-12-06T08:29:23Z</time>
      </trkpt>
      <trkpt lat="44.11728" lon="3.24351">
        <ele>595.5</ele>
        <time>2015-12-06T08:29:24Z</time>
      </trkpt>
      <trkpt lat="44.1173" lon="3.24354">
        <ele>595.5</ele>
        <time>2015-12-06T08:29:26Z</time>
      </trkpt>
      <trkpt lat="44.1173" lon="3.24355">
        <ele>593.5</ele>
        <time>2015-12-06T08:29:27Z</time>
      </trkpt>
      <trkpt lat="44.11737" lon="3.24353">
        <ele>595</ele>
        <time>2015-12-06T08:29:30Z</time>
      </trkpt>
      <trkpt lat="44.11746" lon="3.24347">
        <ele>594.5</ele>
        <time>2015-12-06T08:29:32Z</time>
      </trkpt>
      <trkpt lat="44.1175" lon="3.24345">
        <ele>593</ele>
        <time>2015-12-06T08:29:33Z</time>
      </trkpt>
      <trkpt lat="44.11753" lon="3.2434">
        <ele>593.5</ele>
        <time>2015-12-06T08:29:34Z</time>
      </trkpt>
      <trkpt lat="44.11756" lon="3.24339">
        <ele>593</ele>
        <time>2015-12-06T08:29:35Z</time>
      </trkpt>
      <trkpt lat="44.11758" lon="3.24337">
        <ele>593</ele>
        <time>2015-12-06T08:29:37Z</time>
      </trkpt>
      <trkpt lat="44.11758" lon="3.24338">
        <ele>594.5</ele>
        <time>2015-12-06T08:29:37Z</time>
      </trkpt>
      <trkpt lat="44.11757" lon="3.24339">
        <ele>594</ele>
        <time>2015-12-06T08:29:38Z</time>
      </trkpt>
      <trkpt lat="44.11757" lon="3.24342">
        <ele>594</ele>
        <time>2015-12-06T08:29:40Z</time>
      </trkpt>
      <trkpt lat="44.11757" lon="3.24345">
        <ele>593.5</ele>
        <time>2015-12-06T08:29:40Z</time>
      </trkpt>
      <trkpt lat="44.11758" lon="3.24349">
        <ele>595</ele>
        <time>2015-12-06T08:29:41Z</time>
      </trkpt>
      <trkpt lat="44.11758" lon="3.24354">
        <ele>597</ele>
        <time>2015-12-06T08:29:42Z</time>
      </trkpt>
      <trkpt lat="44.11757" lon="3.24358">
        <ele>596.5</ele>
        <time>2015-12-06T08:29:43Z</time>
      </trkpt>
      <trkpt lat="44.11755" lon="3.24365">
        <ele>590.5</ele>
        <time>2015-12-06T08:29:44Z</time>
      </trkpt>
      <trkpt lat="44.11755" lon="3.24371">
        <ele>591.5</ele>
        <time>2015-12-06T08:29:47Z</time>
      </trkpt>
      <trkpt lat="44.11755" lon="3.24373">
        <ele>591</ele>
        <time>2015-12-06T08:29:47Z</time>
      </trkpt>
      <trkpt lat="44.11754" lon="3.24373">
        <ele>589.5</ele>
        <time>2015-12-06T08:29:49Z</time>
      </trkpt>
      <trkpt lat="44.11759" lon="3.24372">
        <ele>588.5</ele>
        <time>2015-12-06T08:29:51Z</time>
      </trkpt>
      <trkpt lat="44.11761" lon="3.2437">
        <ele>589</ele>
        <time>2015-12-06T08:29:52Z</time>
      </trkpt>
      <trkpt lat="44.11764" lon="3.24367">
        <ele>588.5</ele>
        <time>2015-12-06T08:29:53Z</time>
      </trkpt>
      <trkpt lat="44.11769" lon="3.24364">
        <ele>586.5</ele>
        <time>2015-12-06T08:29:54Z</time>
      </trkpt>
      <trkpt lat="44.11774" lon="3.2436">
        <ele>584.5</ele>
        <time>2015-12-06T08:29:55Z</time>
      </trkpt>
      <trkpt lat="44.11778" lon="3.24355">
        <ele>583.5</ele>
        <time>2015-12-06T08:29:57Z</time>
      </trkpt>
      <trkpt lat="44.11782" lon="3.24349">
        <ele>583</ele>
        <time>2015-12-06T08:29:57Z</time>
      </trkpt>
      <trkpt lat="44.11787" lon="3.24343">
        <ele>582.5</ele>
        <time>2015-12-06T08:29:58Z</time>
      </trkpt>
      <trkpt lat="44.1179" lon="3.24337">
        <ele>581.5</ele>
        <time>2015-12-06T08:29:59Z</time>
      </trkpt>
      <trkpt lat="44.11794" lon="3.24332">
        <ele>579.5</ele>
        <time>2015-12-06T08:30:00Z</time>
      </trkpt>
      <trkpt lat="44.11798" lon="3.24328">
        <ele>578.5</ele>
        <time>2015-12-06T08:30:01Z</time>
      </trkpt>
      <trkpt lat="44.11802" lon="3.24326">
        <ele>577.5</ele>
        <time>2015-12-06T08:30:02Z</time>
      </trkpt>
      <trkpt lat="44.11805" lon="3.24325">
        <ele>577</ele>
        <time>2015-12-06T08:30:03Z</time>
      </trkpt>
      <trkpt lat="44.11808" lon="3.24324">
        <ele>575.5</ele>
        <time>2015-12-06T08:30:04Z</time>
      </trkpt>
      <trkpt lat="44.1181" lon="3.24324">
        <ele>573.5</ele>
        <time>2015-12-06T08:30:05Z</time>
      </trkpt>
      <trkpt lat="44.11812" lon="3.24325">
        <ele>572.5</ele>
        <time>2015-12-06T08:30:06Z</time>
      </trkpt>
      <trkpt lat="44.11813" lon="3.24326">
        <ele>571</ele>
        <time>2015-12-06T08:30:07Z</time>
      </trkpt>
      <trkpt lat="44.11815" lon="3.24328">
        <ele>569</ele>
        <time>2015-12-06T08:30:08Z</time>
      </trkpt>
      <trkpt lat="44.11817" lon="3.24327">
        <ele>568</ele>
        <time>2015-12-06T08:30:09Z</time>
      </trkpt>
      <trkpt lat="44.11819" lon="3.24325">
        <ele>567</ele>
        <time>2015-12-06T08:30:10Z</time>
      </trkpt>
      <trkpt lat="44.11822" lon="3.24324">
        <ele>566</ele>
        <time>2015-12-06T08:30:11Z</time>
      </trkpt>
      <trkpt lat="44.11825" lon="3.24323">
        <ele>564.5</ele>
        <time>2015-12-06T08:30:12Z</time>
      </trkpt>
      <trkpt lat="44.11827" lon="3.24322">
        <ele>564.5</ele>
        <time>2015-12-06T08:30:13Z</time>
      </trkpt>
      <trkpt lat="44.1183" lon="3.24321">
        <ele>564</ele>
        <time>2015-12-06T08:30:14Z</time>
      </trkpt>
      <trkpt lat="44.11832" lon="3.24319">
        <ele>563</ele>
        <time>2015-12-06T08:30:15Z</time>
      </trkpt>
      <trkpt lat="44.11836" lon="3.2432">
        <ele>561</ele>
        <time>2015-12-06T08:30:16Z</time>
      </trkpt>
      <trkpt lat="44.11838" lon="3.24323">
        <ele>562.5</ele>
        <time>2015-12-06T08:30:17Z</time>
      </trkpt>
      <trkpt lat="44.1184" lon="3.24324">
        <ele>562.5</ele>
        <time>2015-12-06T08:30:18Z</time>
      </trkpt>
      <trkpt lat="44.11842" lon="3.24326">
        <ele>561.5</ele>
        <time>2015-12-06T08:30:19Z</time>
      </trkpt>
      <trkpt lat="44.11842" lon="3.24326">
        <ele>559.5</ele>
        <time>2015-12-06T08:30:20Z</time>
      </trkpt>
      <trkpt lat="44.11844" lon="3.24329">
        <ele>555.5</ele>
        <time>2015-12-06T08:30:35Z</time>
      </trkpt>
      <trkpt lat="44.11846" lon="3.2433">
        <ele>553</ele>
        <time>2015-12-06T08:30:43Z</time>
      </trkpt>
      <trkpt lat="44.11846" lon="3.24331">
        <ele>553</ele>
        <time>2015-12-06T08:30:45Z</time>
      </trkpt>
      <trkpt lat="44.11846" lon="3.24331">
        <ele>553</ele>
        <time>2015-12-06T08:30:46Z</time>
      </trkpt>
      <trkpt lat="44.11846" lon="3.2433">
        <ele>552</ele>
        <time>2015-12-06T08:30:55Z</time>
      </trkpt>
      <trkpt lat="44.11851" lon="3.24333">
        <ele>547</ele>
        <time>2015-12-06T08:31:21Z</time>
      </trkpt>
      <trkpt lat="44.11852" lon="3.24332">
        <ele>546.5</ele>
        <time>2015-12-06T08:31:27Z</time>
      </trkpt>
      <trkpt lat="44.11852" lon="3.24333">
        <ele>546</ele>
        <time>2015-12-06T08:31:30Z</time>
      </trkpt>
      <trkpt lat="44.11852" lon="3.24333">
        <ele>545.5</ele>
        <time>2015-12-06T08:31:33Z</time>
      </trkpt>
      <trkpt lat="44.11855" lon="3.24337">
        <ele>543</ele>
        <time>2015-12-06T08:31:51Z</time>
      </trkpt>
      <trkpt lat="44.11855" lon="3.24338">
        <ele>542</ele>
        <time>2015-12-06T08:31:54Z</time>
      </trkpt>
      <trkpt lat="44.11855" lon="3.24339">
        <ele>540.5</ele>
        <time>2015-12-06T08:32:03Z</time>
      </trkpt>
      <trkpt lat="44.11855" lon="3.24339">
        <ele>540.5</ele>
        <time>2015-12-06T08:32:08Z</time>
      </trkpt>
      <trkpt lat="44.11857" lon="3.24339">
        <ele>536.5</ele>
        <time>2015-12-06T08:32:29Z</time>
      </trkpt>
      <trkpt lat="44.1186" lon="3.2434">
        <ele>534.5</ele>
        <time>2015-12-06T08:32:31Z</time>
      </trkpt>
      <trkpt lat="44.11861" lon="3.24343">
        <ele>535</ele>
        <time>2015-12-06T08:32:32Z</time>
      </trkpt>
      <trkpt lat="44.11862" lon="3.24345">
        <ele>535</ele>
        <time>2015-12-06T08:32:33Z</time>
      </trkpt>
      <trkpt lat="44.11863" lon="3.24349">
        <ele>534.5</ele>
        <time>2015-12-06T08:32:34Z</time>
      </trkpt>
      <trkpt lat="44.11862" lon="3.24353">
        <ele>534</ele>
        <time>2015-12-06T08:32:35Z</time>
      </trkpt>
      <trkpt lat="44.11861" lon="3.24357">
        <ele>533.5</ele>
        <time>2015-12-06T08:32:36Z</time>
      </trkpt>
      <trkpt lat="44.11859" lon="3.2436">
        <ele>533</ele>
        <time>2015-12-06T08:32:37Z</time>
      </trkpt>
      <trkpt lat="44.11858" lon="3.24364">
        <ele>532</ele>
        <time>2015-12-06T08:32:38Z</time>
      </trkpt>
      <trkpt lat="44.11859" lon="3.24367">
        <ele>533</ele>
        <time>2015-12-06T08:32:39Z</time>
      </trkpt>
      <trkpt lat="44.11859" lon="3.24371">
        <ele>532.5</ele>
        <time>2015-12-06T08:32:40Z</time>
      </trkpt>
      <trkpt lat="44.1186" lon="3.24373">
        <ele>532</ele>
        <time>2015-12-06T08:32:41Z</time>
      </trkpt>
      <trkpt lat="44.11859" lon="3.24376">
        <ele>531.5</ele>
        <time>2015-12-06T08:32:42Z</time>
      </trkpt>
      <trkpt lat="44.11858" lon="3.24378">
        <ele>530</ele>
        <time>2015-12-06T08:32:43Z</time>
      </trkpt>
      <trkpt lat="44.11859" lon="3.2438">
        <ele>529.5</ele>
        <time>2015-12-06T08:32:44Z</time>
      </trkpt>
      <trkpt lat="44.11859" lon="3.24383">
        <ele>529.5</ele>
        <time>2015-12-06T08:32:45Z</time>
      </trkpt>
      <trkpt lat="44.11859" lon="3.24385">
        <ele>529</ele>
        <time>2015-12-06T08:32:46Z</time>
      </trkpt>
      <trkpt lat="44.1186" lon="3.24387">
        <ele>528.5</ele>
        <time>2015-12-06T08:32:47Z</time>
      </trkpt>
      <trkpt lat="44.11858" lon="3.2439">
        <ele>526</ele>
        <time>2015-12-06T08:32:48Z</time>
      </trkpt>
      <trkpt lat="44.11859" lon="3.24397">
        <ele>525</ele>
        <time>2015-12-06T08:32:50Z</time>
      </trkpt>
      <trkpt lat="44.11859" lon="3.24399">
        <ele>524.5</ele>
        <time>2015-12-06T08:32:51Z</time>
      </trkpt>
      <trkpt lat="44.11862" lon="3.24399">
        <ele>526</ele>
        <time>2015-12-06T08:32:52Z</time>
      </trkpt>
      <trkpt lat="44.11862" lon="3.24397">
        <ele>527.5</ele>
        <time>2015-12-06T08:32:53Z</time>
      </trkpt>
      <trkpt lat="44.11863" lon="3.24395">
        <ele>527.5</ele>
        <time>2015-12-06T08:32:54Z</time>
      </trkpt>
      <trkpt lat="44.11865" lon="3.24394">
        <ele>525.5</ele>
        <time>2015-12-06T08:32:55Z</time>
      </trkpt>
      <trkpt lat="44.11867" lon="3.24393">
        <ele>523</ele>
        <time>2015-12-06T08:32:56Z</time>
      </trkpt>
      <trkpt lat="44.11869" lon="3.2439">
        <ele>522.5</ele>
        <time>2015-12-06T08:32:57Z</time>
      </trkpt>
      <trkpt lat="44.11872" lon="3.24387">
        <ele>522</ele>
        <time>2015-12-06T08:32:58Z</time>
      </trkpt>
      <trkpt lat="44.11875" lon="3.24383">
        <ele>521.5</ele>
        <time>2015-12-06T08:32:59Z</time>
      </trkpt>
      <trkpt lat="44.11877" lon="3.24379">
        <ele>521.5</ele>
        <time>2015-12-06T08:33:00Z</time>
      </trkpt>
      <trkpt lat="44.1188" lon="3.2438">
        <ele>522</ele>
        <time>2015-12-06T08:33:02Z</time>
      </trkpt>
      <trkpt lat="44.11881" lon="3.24382">
        <ele>521.5</ele>
        <time>2015-12-06T08:33:03Z</time>
      </trkpt>
      <trkpt lat="44.11879" lon="3.24384">
        <ele>521.5</ele>
        <time>2015-12-06T08:33:04Z</time>
      </trkpt>
      <trkpt lat="44.11878" lon="3.24387">
        <ele>519.5</ele>
        <time>2015-12-06T08:33:05Z</time>
      </trkpt>
      <trkpt lat="44.11879" lon="3.2439">
        <ele>519</ele>
        <time>2015-12-06T08:33:06Z</time>
      </trkpt>
      <trkpt lat="44.1188" lon="3.24394">
        <ele>518.5</ele>
        <time>2015-12-06T08:33:07Z</time>
      </trkpt>
      <trkpt lat="44.1188" lon="3.24397">
        <ele>518.5</ele>
        <time>2015-12-06T08:33:08Z</time>
      </trkpt>
      <trkpt lat="44.11882" lon="3.244">
        <ele>518.5</ele>
        <time>2015-12-06T08:33:09Z</time>
      </trkpt>
      <trkpt lat="44.11883" lon="3.24403">
        <ele>518.5</ele>
        <time>2015-12-06T08:33:10Z</time>
      </trkpt>
      <trkpt lat="44.11883" lon="3.24406">
        <ele>518</ele>
        <time>2015-12-06T08:33:11Z</time>
      </trkpt>
      <trkpt lat="44.11883" lon="3.24409">
        <ele>518</ele>
        <time>2015-12-06T08:33:12Z</time>
      </trkpt>
      <trkpt lat="44.11885" lon="3.24408">
        <ele>517.5</ele>
        <time>2015-12-06T08:33:13Z</time>
      </trkpt>
      <trkpt lat="44.11887" lon="3.24407">
        <ele>519.5</ele>
        <time>2015-12-06T08:33:14Z</time>
      </trkpt>
      <trkpt lat="44.11889" lon="3.24404">
        <ele>518</ele>
        <time>2015-12-06T08:33:15Z</time>
      </trkpt>
      <trkpt lat="44.11891" lon="3.24401">
        <ele>517</ele>
        <time>2015-12-06T08:33:16Z</time>
      </trkpt>
      <trkpt lat="44.11893" lon="3.24401">
        <ele>517</ele>
        <time>2015-12-06T08:33:17Z</time>
      </trkpt>
      <trkpt lat="44.11895" lon="3.24403">
        <ele>516.5</ele>
        <time>2015-12-06T08:33:18Z</time>
      </trkpt>
      <trkpt lat="44.11894" lon="3.24408">
        <ele>516.5</ele>
        <time>2015-12-06T08:33:19Z</time>
      </trkpt>
      <trkpt lat="44.11893" lon="3.24412">
        <ele>516</ele>
        <time>2015-12-06T08:33:20Z</time>
      </trkpt>
      <trkpt lat="44.1189" lon="3.24415">
        <ele>515.5</ele>
        <time>2015-12-06T08:33:21Z</time>
      </trkpt>
      <trkpt lat="44.11887" lon="3.24418">
        <ele>515.5</ele>
        <time>2015-12-06T08:33:22Z</time>
      </trkpt>
      <trkpt lat="44.11884" lon="3.24421">
        <ele>514.5</ele>
        <time>2015-12-06T08:33:24Z</time>
      </trkpt>
      <trkpt lat="44.11886" lon="3.24425">
        <ele>514.5</ele>
        <time>2015-12-06T08:33:25Z</time>
      </trkpt>
      <trkpt lat="44.11885" lon="3.24431">
        <ele>514</ele>
        <time>2015-12-06T08:33:26Z</time>
      </trkpt>
      <trkpt lat="44.11886" lon="3.24435">
        <ele>513.5</ele>
        <time>2015-12-06T08:33:27Z</time>
      </trkpt>
      <trkpt lat="44.11885" lon="3.24439">
        <ele>513</ele>
        <time>2015-12-06T08:33:28Z</time>
      </trkpt>
      <trkpt lat="44.11885" lon="3.24443">
        <ele>513</ele>
        <time>2015-12-06T08:33:29Z</time>
      </trkpt>
      <trkpt lat="44.11884" lon="3.24445">
        <ele>512.5</ele>
        <time>2015-12-06T08:33:30Z</time>
      </trkpt>
      <trkpt lat="44.11884" lon="3.24448">
        <ele>511</ele>
        <time>2015-12-06T08:33:31Z</time>
      </trkpt>
      <trkpt lat="44.11883" lon="3.24448">
        <ele>511</ele>
        <time>2015-12-06T08:33:32Z</time>
      </trkpt>
      <trkpt lat="44.11884" lon="3.24447">
        <ele>511</ele>
        <time>2015-12-06T08:33:33Z</time>
      </trkpt>
      <trkpt lat="44.11886" lon="3.24446">
        <ele>509.5</ele>
        <time>2015-12-06T08:33:34Z</time>
      </trkpt>
      <trkpt lat="44.11889" lon="3.24444">
        <ele>509.5</ele>
        <time>2015-12-06T08:33:35Z</time>
      </trkpt>
      <trkpt lat="44.11892" lon="3.24442">
        <ele>509</ele>
        <time>2015-12-06T08:33:36Z</time>
      </trkpt>
      <trkpt lat="44.11894" lon="3.24439">
        <ele>508.5</ele>
        <time>2015-12-06T08:33:37Z</time>
      </trkpt>
      <trkpt lat="44.11896" lon="3.24436">
        <ele>508</ele>
        <time>2015-12-06T08:33:38Z</time>
      </trkpt>
      <trkpt lat="44.11904" lon="3.2443">
        <ele>506.5</ele>
        <time>2015-12-06T08:33:40Z</time>
      </trkpt>
      <trkpt lat="44.11904" lon="3.24424">
        <ele>506</ele>
        <time>2015-12-06T08:33:41Z</time>
      </trkpt>
      <trkpt lat="44.11907" lon="3.24419">
        <ele>505.5</ele>
        <time>2015-12-06T08:33:42Z</time>
      </trkpt>
      <trkpt lat="44.11909" lon="3.24415">
        <ele>505.5</ele>
        <time>2015-12-06T08:33:43Z</time>
      </trkpt>
      <trkpt lat="44.1191" lon="3.24411">
        <ele>505</ele>
        <time>2015-12-06T08:33:44Z</time>
      </trkpt>
      <trkpt lat="44.11911" lon="3.24408">
        <ele>505</ele>
        <time>2015-12-06T08:33:45Z</time>
      </trkpt>
      <trkpt lat="44.11913" lon="3.24407">
        <ele>504.5</ele>
        <time>2015-12-06T08:33:46Z</time>
      </trkpt>
      <trkpt lat="44.11913" lon="3.24407">
        <ele>504</ele>
        <time>2015-12-06T08:33:47Z</time>
      </trkpt>
      <trkpt lat="44.11914" lon="3.24408">
        <ele>504</ele>
        <time>2015-12-06T08:33:48Z</time>
      </trkpt>
      <trkpt lat="44.11914" lon="3.2441">
        <ele>504</ele>
        <time>2015-12-06T08:33:49Z</time>
      </trkpt>
      <trkpt lat="44.11914" lon="3.24412">
        <ele>504</ele>
        <time>2015-12-06T08:33:50Z</time>
      </trkpt>
      <trkpt lat="44.11915" lon="3.24416">
        <ele>504</ele>
        <time>2015-12-06T08:33:51Z</time>
      </trkpt>
      <trkpt lat="44.11915" lon="3.24419">
        <ele>504</ele>
        <time>2015-12-06T08:33:52Z</time>
      </trkpt>
      <trkpt lat="44.11915" lon="3.24424">
        <ele>503.5</ele>
        <time>2015-12-06T08:33:53Z</time>
      </trkpt>
      <trkpt lat="44.11916" lon="3.24429">
        <ele>503.5</ele>
        <time>2015-12-06T08:33:54Z</time>
      </trkpt>
      <trkpt lat="44.11916" lon="3.24435">
        <ele>503.5</ele>
        <time>2015-12-06T08:33:55Z</time>
      </trkpt>
      <trkpt lat="44.11917" lon="3.2444">
        <ele>503.5</ele>
        <time>2015-12-06T08:33:56Z</time>
      </trkpt>
      <trkpt lat="44.1192" lon="3.24446">
        <ele>503.5</ele>
        <time>2015-12-06T08:33:57Z</time>
      </trkpt>
      <trkpt lat="44.11919" lon="3.24453">
        <ele>503</ele>
        <time>2015-12-06T08:33:58Z</time>
      </trkpt>
      <trkpt lat="44.11919" lon="3.24458">
        <ele>503</ele>
        <time>2015-12-06T08:33:59Z</time>
      </trkpt>
      <trkpt lat="44.11919" lon="3.24461">
        <ele>502.5</ele>
        <time>2015-12-06T08:34:00Z</time>
      </trkpt>
      <trkpt lat="44.11919" lon="3.24465">
        <ele>502</ele>
        <time>2015-12-06T08:34:01Z</time>
      </trkpt>
      <trkpt lat="44.1192" lon="3.24469">
        <ele>501.5</ele>
        <time>2015-12-06T08:34:02Z</time>
      </trkpt>
      <trkpt lat="44.11921" lon="3.24469">
        <ele>501.5</ele>
        <time>2015-12-06T08:34:03Z</time>
      </trkpt>
      <trkpt lat="44.11923" lon="3.24469">
        <ele>500.5</ele>
        <time>2015-12-06T08:34:04Z</time>
      </trkpt>
      <trkpt lat="44.11926" lon="3.24471">
        <ele>499</ele>
        <time>2015-12-06T08:34:05Z</time>
      </trkpt>
      <trkpt lat="44.11926" lon="3.24472">
        <ele>498</ele>
        <time>2015-12-06T08:34:07Z</time>
      </trkpt>
      <trkpt lat="44.11927" lon="3.24472">
        <ele>498.5</ele>
        <time>2015-12-06T08:34:08Z</time>
      </trkpt>
      <trkpt lat="44.11927" lon="3.24473">
        <ele>498.5</ele>
        <time>2015-12-06T08:34:09Z</time>
      </trkpt>
      <trkpt lat="44.11927" lon="3.24473">
        <ele>499</ele>
        <time>2015-12-06T08:34:11Z</time>
      </trkpt>
      <trkpt lat="44.11926" lon="3.24472">
        <ele>498.5</ele>
        <time>2015-12-06T08:34:12Z</time>
      </trkpt>
      <trkpt lat="44.11926" lon="3.24472">
        <ele>498</ele>
        <time>2015-12-06T08:34:14Z</time>
      </trkpt>
      <trkpt lat="44.11925" lon="3.24472">
        <ele>497.5</ele>
        <time>2015-12-06T08:34:15Z</time>
      </trkpt>
      <trkpt lat="44.11925" lon="3.24472">
        <ele>497.5</ele>
        <time>2015-12-06T08:34:16Z</time>
      </trkpt>
      <trkpt lat="44.11925" lon="3.24471">
        <ele>498.5</ele>
        <time>2015-12-06T08:34:18Z</time>
      </trkpt>
      <trkpt lat="44.11923" lon="3.24469">
        <ele>497</ele>
        <time>2015-12-06T08:34:20Z</time>
      </trkpt>
      <trkpt lat="44.11921" lon="3.24469">
        <ele>496.5</ele>
        <time>2015-12-06T08:34:21Z</time>
      </trkpt>
      <trkpt lat="44.11921" lon="3.24469">
        <ele>496</ele>
        <time>2015-12-06T08:34:22Z</time>
      </trkpt>
      <trkpt lat="44.11918" lon="3.2447">
        <ele>492</ele>
        <time>2015-12-06T08:34:35Z</time>
      </trkpt>
      <trkpt lat="44.11914" lon="3.24471">
        <ele>488.5</ele>
        <time>2015-12-06T08:34:46Z</time>
      </trkpt>
      <trkpt lat="44.11913" lon="3.24471">
        <ele>488</ele>
        <time>2015-12-06T08:34:52Z</time>
      </trkpt>
      <trkpt lat="44.11912" lon="3.24471">
        <ele>487</ele>
        <time>2015-12-06T08:34:54Z</time>
      </trkpt>
      <trkpt lat="44.11911" lon="3.2447">
        <ele>486.5</ele>
        <time>2015-12-06T08:34:55Z</time>
      </trkpt>
      <trkpt lat="44.1191" lon="3.24471">
        <ele>485</ele>
        <time>2015-12-06T08:34:58Z</time>
      </trkpt>
      <trkpt lat="44.11909" lon="3.24471">
        <ele>485.5</ele>
        <time>2015-12-06T08:35:00Z</time>
      </trkpt>
      <trkpt lat="44.11913" lon="3.24477">
        <ele>484.5</ele>
        <time>2015-12-06T08:35:02Z</time>
      </trkpt>
      <trkpt lat="44.11914" lon="3.24479">
        <ele>482.5</ele>
        <time>2015-12-06T08:35:03Z</time>
      </trkpt>
      <trkpt lat="44.11914" lon="3.24481">
        <ele>481.5</ele>
        <time>2015-12-06T08:35:04Z</time>
      </trkpt>
      <trkpt lat="44.11915" lon="3.24483">
        <ele>481</ele>
        <time>2015-12-06T08:35:05Z</time>
      </trkpt>
      <trkpt lat="44.11915" lon="3.24485">
        <ele>480.5</ele>
        <time>2015-12-06T08:35:06Z</time>
      </trkpt>
      <trkpt lat="44.11915" lon="3.24486">
        <ele>480</ele>
        <time>2015-12-06T08:35:07Z</time>
      </trkpt>
      <trkpt lat="44.11915" lon="3.24484">
        <ele>476.5</ele>
        <time>2015-12-06T08:35:13Z</time>
      </trkpt>
      <trkpt lat="44.11915" lon="3.24484">
        <ele>475</ele>
        <time>2015-12-06T08:35:15Z</time>
      </trkpt>
      <trkpt lat="44.11915" lon="3.24484">
        <ele>475</ele>
        <time>2015-12-06T08:35:16Z</time>
      </trkpt>
      <trkpt lat="44.11915" lon="3.24484">
        <ele>474.5</ele>
        <time>2015-12-06T08:35:17Z</time>
      </trkpt>
      <trkpt lat="44.11914" lon="3.24484">
        <ele>473</ele>
        <time>2015-12-06T08:35:22Z</time>
      </trkpt>
      <trkpt lat="44.11914" lon="3.24484">
        <ele>472.5</ele>
        <time>2015-12-06T08:35:24Z</time>
      </trkpt>
      <trkpt lat="44.11914" lon="3.24484">
        <ele>472</ele>
        <time>2015-12-06T08:35:26Z</time>
      </trkpt>
      <trkpt lat="44.11913" lon="3.24482">
        <ele>472</ele>
        <time>2015-12-06T08:35:28Z</time>
      </trkpt>
      <trkpt lat="44.11913" lon="3.24481">
        <ele>472</ele>
        <time>2015-12-06T08:35:29Z</time>
      </trkpt>
      <trkpt lat="44.11913" lon="3.24482">
        <ele>473</ele>
        <time>2015-12-06T08:35:31Z</time>
      </trkpt>
      <trkpt lat="44.11913" lon="3.24483">
        <ele>473</ele>
        <time>2015-12-06T08:35:35Z</time>
      </trkpt>
      <trkpt lat="44.11913" lon="3.24483">
        <ele>473.5</ele>
        <time>2015-12-06T08:35:37Z</time>
      </trkpt>
      <trkpt lat="44.11912" lon="3.24483">
        <ele>473.5</ele>
        <time>2015-12-06T08:35:38Z</time>
      </trkpt>
      <trkpt lat="44.11912" lon="3.24483">
        <ele>473.5</ele>
        <time>2015-12-06T08:35:39Z</time>
      </trkpt>
      <trkpt lat="44.11911" lon="3.24483">
        <ele>473.5</ele>
        <time>2015-12-06T08:35:41Z</time>
      </trkpt>
      <trkpt lat="44.11911" lon="3.24483">
        <ele>473.5</ele>
        <time>2015-12-06T08:35:45Z</time>
      </trkpt>
      <trkpt lat="44.11911" lon="3.24483">
        <ele>473.5</ele>
        <time>2015-12-06T08:35:48Z</time>
      </trkpt>
      <trkpt lat="44.1191" lon="3.24483">
        <ele>471.5</ele>
        <time>2015-12-06T08:35:52Z</time>
      </trkpt>
      <trkpt lat="44.1191" lon="3.24483">
        <ele>471.5</ele>
        <time>2015-12-06T08:35:54Z</time>
      </trkpt>
      <trkpt lat="44.11911" lon="3.24483">
        <ele>471</ele>
        <time>2015-12-06T08:35:55Z</time>
      </trkpt>
      <trkpt lat="44.11911" lon="3.24484">
        <ele>471</ele>
        <time>2015-12-06T08:35:56Z</time>
      </trkpt>
      <trkpt lat="44.11911" lon="3.24484">
        <ele>470</ele>
        <time>2015-12-06T08:35:58Z</time>
      </trkpt>
      <trkpt lat="44.11909" lon="3.24485">
        <ele>470</ele>
        <time>2015-12-06T08:38:19Z</time>
      </trkpt>
      <trkpt lat="44.11911" lon="3.24482">
        <ele>466</ele>
        <time>2015-12-06T08:38:31Z</time>
      </trkpt>
      <trkpt lat="44.11911" lon="3.24483">
        <ele>465.5</ele>
        <time>2015-12-06T08:38:33Z</time>
      </trkpt>
      <trkpt lat="44.11912" lon="3.24483">
        <ele>465</ele>
        <time>2015-12-06T08:38:37Z</time>
      </trkpt>
      <trkpt lat="44.11913" lon="3.24483">
        <ele>465</ele>
        <time>2015-12-06T08:38:39Z</time>
      </trkpt>
      <trkpt lat="44.11914" lon="3.24484">
        <ele>465</ele>
        <time>2015-12-06T08:38:40Z</time>
      </trkpt>
      <trkpt lat="44.11914" lon="3.24485">
        <ele>464.5</ele>
        <time>2015-12-06T08:38:42Z</time>
      </trkpt>
      <trkpt lat="44.11914" lon="3.24485">
        <ele>465</ele>
        <time>2015-12-06T08:38:44Z</time>
      </trkpt>
      <trkpt lat="44.11915" lon="3.24484">
        <ele>463.5</ele>
        <time>2015-12-06T08:38:47Z</time>
      </trkpt>
      <trkpt lat="44.11914" lon="3.24484">
        <ele>464.5</ele>
        <time>2015-12-06T08:38:49Z</time>
      </trkpt>
      <trkpt lat="44.11914" lon="3.24482">
        <ele>465</ele>
        <time>2015-12-06T08:38:56Z</time>
      </trkpt>
      <trkpt lat="44.11914" lon="3.24483">
        <ele>466</ele>
        <time>2015-12-06T08:38:58Z</time>
      </trkpt>
      <trkpt lat="44.11914" lon="3.24483">
        <ele>466.5</ele>
        <time>2015-12-06T08:39:03Z</time>
      </trkpt>
      <trkpt lat="44.11914" lon="3.24481">
        <ele>466.5</ele>
        <time>2015-12-06T08:39:05Z</time>
      </trkpt>
      <trkpt lat="44.11914" lon="3.2448">
        <ele>466.5</ele>
        <time>2015-12-06T08:39:06Z</time>
      </trkpt>
      <trkpt lat="44.11913" lon="3.2448">
        <ele>466.5</ele>
        <time>2015-12-06T08:39:07Z</time>
      </trkpt>
      <trkpt lat="44.11913" lon="3.2448">
        <ele>466.5</ele>
        <time>2015-12-06T08:39:08Z</time>
      </trkpt>
      <trkpt lat="44.11913" lon="3.2448">
        <ele>466.5</ele>
        <time>2015-12-06T08:39:10Z</time>
      </trkpt>
      <trkpt lat="44.11913" lon="3.24481">
        <ele>465.5</ele>
        <time>2015-12-06T08:39:12Z</time>
      </trkpt>
      <trkpt lat="44.11915" lon="3.24481">
        <ele>465</ele>
        <time>2015-12-06T08:39:27Z</time>
      </trkpt>
      <trkpt lat="44.11922" lon="3.24481">
        <ele>455</ele>
        <time>2015-12-06T08:39:00Z</time>
      </trkpt>
      <trkpt lat="44.11924" lon="3.24482">
        <ele>453.5</ele>
        <time>2015-12-06T08:39:02Z</time>
      </trkpt>
      <trkpt lat="44.11925" lon="3.24485">
        <ele>452</ele>
        <time>2015-12-06T08:39:03Z</time>
      </trkpt>
      <trkpt lat="44.11927" lon="3.24488">
        <ele>450.5</ele>
        <time>2015-12-06T08:39:04Z</time>
      </trkpt>
      <trkpt lat="44.1193" lon="3.2449">
        <ele>449.5</ele>
        <time>2015-12-06T08:39:05Z</time>
      </trkpt>
      <trkpt lat="44.11933" lon="3.2449">
        <ele>450.5</ele>
        <time>2015-12-06T08:39:06Z</time>
      </trkpt>
      <trkpt lat="44.11937" lon="3.2449">
        <ele>450.5</ele>
        <time>2015-12-06T08:39:06Z</time>
      </trkpt>
      <trkpt lat="44.1194" lon="3.2449">
        <ele>450.5</ele>
        <time>2015-12-06T08:39:07Z</time>
      </trkpt>
      <trkpt lat="44.11943" lon="3.24491">
        <ele>452</ele>
        <time>2015-12-06T08:39:09Z</time>
      </trkpt>
      <trkpt lat="44.11945" lon="3.24492">
        <ele>453</ele>
        <time>2015-12-06T08:39:09Z</time>
      </trkpt>
      <trkpt lat="44.11948" lon="3.24493">
        <ele>453</ele>
        <time>2015-12-06T08:39:10Z</time>
      </trkpt>
      <trkpt lat="44.1195" lon="3.24495">
        <ele>454</ele>
        <time>2015-12-06T08:39:11Z</time>
      </trkpt>
      <trkpt lat="44.11951" lon="3.24499">
        <ele>454</ele>
        <time>2015-12-06T08:39:12Z</time>
      </trkpt>
      <trkpt lat="44.1195" lon="3.24502">
        <ele>455.5</ele>
        <time>2015-12-06T08:39:14Z</time>
      </trkpt>
      <trkpt lat="44.11949" lon="3.24506">
        <ele>455.5</ele>
        <time>2015-12-06T08:39:14Z</time>
      </trkpt>
      <trkpt lat="44.11949" lon="3.24509">
        <ele>456.5</ele>
        <time>2015-12-06T08:39:15Z</time>
      </trkpt>
      <trkpt lat="44.11949" lon="3.24511">
        <ele>457</ele>
        <time>2015-12-06T08:39:16Z</time>
      </trkpt>
      <trkpt lat="44.11949" lon="3.24514">
        <ele>457</ele>
        <time>2015-12-06T08:39:17Z</time>
      </trkpt>
      <trkpt lat="44.11949" lon="3.24517">
        <ele>458</ele>
        <time>2015-12-06T08:39:18Z</time>
      </trkpt>
      <trkpt lat="44.11949" lon="3.24519">
        <ele>458</ele>
        <time>2015-12-06T08:39:19Z</time>
      </trkpt>
      <trkpt lat="44.11949" lon="3.24522">
        <ele>458</ele>
        <time>2015-12-06T08:39:20Z</time>
      </trkpt>
      <trkpt lat="44.11949" lon="3.24525">
        <ele>458</ele>
        <time>2015-12-06T08:39:21Z</time>
      </trkpt>
      <trkpt lat="44.11949" lon="3.24528">
        <ele>458</ele>
        <time>2015-12-06T08:39:22Z</time>
      </trkpt>
      <trkpt lat="44.11949" lon="3.2453">
        <ele>459</ele>
        <time>2015-12-06T08:39:23Z</time>
      </trkpt>
      <trkpt lat="44.11949" lon="3.24533">
        <ele>459</ele>
        <time>2015-12-06T08:39:24Z</time>
      </trkpt>
      <trkpt lat="44.1195" lon="3.24534">
        <ele>459.5</ele>
        <time>2015-12-06T08:39:25Z</time>
      </trkpt>
      <trkpt lat="44.11951" lon="3.24536">
        <ele>459.5</ele>
        <time>2015-12-06T08:39:27Z</time>
      </trkpt>
      <trkpt lat="44.11952" lon="3.24537">
        <ele>460</ele>
        <time>2015-12-06T08:39:27Z</time>
      </trkpt>
      <trkpt lat="44.11954" lon="3.24537">
        <ele>460</ele>
        <time>2015-12-06T08:39:29Z</time>
      </trkpt>
      <trkpt lat="44.11955" lon="3.24538">
        <ele>461</ele>
        <time>2015-12-06T08:39:29Z</time>
      </trkpt>
      <trkpt lat="44.11956" lon="3.2454">
        <ele>460.5</ele>
        <time>2015-12-06T08:39:30Z</time>
      </trkpt>
      <trkpt lat="44.11955" lon="3.24543">
        <ele>460.5</ele>
        <time>2015-12-06T08:39:31Z</time>
      </trkpt>
      <trkpt lat="44.11954" lon="3.24545">
        <ele>461</ele>
        <time>2015-12-06T08:39:32Z</time>
      </trkpt>
      <trkpt lat="44.11954" lon="3.24547">
        <ele>461</ele>
        <time>2015-12-06T08:39:33Z</time>
      </trkpt>
      <trkpt lat="44.11953" lon="3.24549">
        <ele>461</ele>
        <time>2015-12-06T08:39:34Z</time>
      </trkpt>
      <trkpt lat="44.11953" lon="3.2455">
        <ele>460.5</ele>
        <time>2015-12-06T08:39:35Z</time>
      </trkpt>
      <trkpt lat="44.11952" lon="3.24551">
        <ele>460</ele>
        <time>2015-12-06T08:39:36Z</time>
      </trkpt>
      <trkpt lat="44.11949" lon="3.24554">
        <ele>459</ele>
        <time>2015-12-06T08:39:38Z</time>
      </trkpt>
      <trkpt lat="44.11949" lon="3.24555">
        <ele>458.5</ele>
        <time>2015-12-06T08:39:39Z</time>
      </trkpt>
      <trkpt lat="44.11948" lon="3.24557">
        <ele>458</ele>
        <time>2015-12-06T08:39:40Z</time>
      </trkpt>
      <trkpt lat="44.11948" lon="3.24558">
        <ele>457</ele>
        <time>2015-12-06T08:39:41Z</time>
      </trkpt>
      <trkpt lat="44.11947" lon="3.24559">
        <ele>457</ele>
        <time>2015-12-06T08:39:42Z</time>
      </trkpt>
      <trkpt lat="44.11946" lon="3.24561">
        <ele>455.5</ele>
        <time>2015-12-06T08:39:43Z</time>
      </trkpt>
      <trkpt lat="44.11945" lon="3.24562">
        <ele>455</ele>
        <time>2015-12-06T08:39:44Z</time>
      </trkpt>
      <trkpt lat="44.11944" lon="3.24563">
        <ele>455.5</ele>
        <time>2015-12-06T08:39:45Z</time>
      </trkpt>
      <trkpt lat="44.11943" lon="3.24565">
        <ele>455.5</ele>
        <time>2015-12-06T08:39:46Z</time>
      </trkpt>
      <trkpt lat="44.11942" lon="3.24566">
        <ele>455</ele>
        <time>2015-12-06T08:39:47Z</time>
      </trkpt>
      <trkpt lat="44.1194" lon="3.24568">
        <ele>454</ele>
        <time>2015-12-06T08:39:48Z</time>
      </trkpt>
      <trkpt lat="44.11939" lon="3.24569">
        <ele>454</ele>
        <time>2015-12-06T08:39:49Z</time>
      </trkpt>
      <trkpt lat="44.11937" lon="3.24571">
        <ele>454</ele>
        <time>2015-12-06T08:39:50Z</time>
      </trkpt>
      <trkpt lat="44.11935" lon="3.24573">
        <ele>453.5</ele>
        <time>2015-12-06T08:39:51Z</time>
      </trkpt>
      <trkpt lat="44.11934" lon="3.24573">
        <ele>451.5</ele>
        <time>2015-12-06T08:39:52Z</time>
      </trkpt>
      <trkpt lat="44.11932" lon="3.24575">
        <ele>451.5</ele>
        <time>2015-12-06T08:39:53Z</time>
      </trkpt>
      <trkpt lat="44.1193" lon="3.24576">
        <ele>451</ele>
        <time>2015-12-06T08:39:54Z</time>
      </trkpt>
      <trkpt lat="44.11928" lon="3.24576">
        <ele>451</ele>
        <time>2015-12-06T08:39:55Z</time>
      </trkpt>
      <trkpt lat="44.11927" lon="3.24578">
        <ele>450.5</ele>
        <time>2015-12-06T08:39:56Z</time>
      </trkpt>
      <trkpt lat="44.11925" lon="3.24579">
        <ele>448.5</ele>
        <time>2015-12-06T08:39:57Z</time>
      </trkpt>
      <trkpt lat="44.11924" lon="3.2458">
        <ele>448.5</ele>
        <time>2015-12-06T08:39:58Z</time>
      </trkpt>
      <trkpt lat="44.11922" lon="3.24582">
        <ele>449</ele>
        <time>2015-12-06T08:39:59Z</time>
      </trkpt>
      <trkpt lat="44.1192" lon="3.24584">
        <ele>449</ele>
        <time>2015-12-06T08:40:00Z</time>
      </trkpt>
      <trkpt lat="44.11919" lon="3.24585">
        <ele>448.5</ele>
        <time>2015-12-06T08:40:01Z</time>
      </trkpt>
      <trkpt lat="44.11917" lon="3.24586">
        <ele>448.5</ele>
        <time>2015-12-06T08:40:02Z</time>
      </trkpt>
      <trkpt lat="44.11916" lon="3.24587">
        <ele>449</ele>
        <time>2015-12-06T08:40:03Z</time>
      </trkpt>
      <trkpt lat="44.11914" lon="3.2459">
        <ele>449.5</ele>
        <time>2015-12-06T08:40:04Z</time>
      </trkpt>
      <trkpt lat="44.11913" lon="3.24592">
        <ele>450</ele>
        <time>2015-12-06T08:40:05Z</time>
      </trkpt>
      <trkpt lat="44.11911" lon="3.24593">
        <ele>449</ele>
        <time>2015-12-06T08:40:06Z</time>
      </trkpt>
      <trkpt lat="44.1191" lon="3.24594">
        <ele>450</ele>
        <time>2015-12-06T08:40:07Z</time>
      </trkpt>
      <trkpt lat="44.11909" lon="3.24594">
        <ele>451</ele>
        <time>2015-12-06T08:40:08Z</time>
      </trkpt>
      <trkpt lat="44.11907" lon="3.24595">
        <ele>451.5</ele>
        <time>2015-12-06T08:40:09Z</time>
      </trkpt>
      <trkpt lat="44.11905" lon="3.24595">
        <ele>451.5</ele>
        <time>2015-12-06T08:40:10Z</time>
      </trkpt>
      <trkpt lat="44.11903" lon="3.24595">
        <ele>451</ele>
        <time>2015-12-06T08:40:11Z</time>
      </trkpt>
      <trkpt lat="44.11901" lon="3.24596">
        <ele>451</ele>
        <time>2015-12-06T08:40:12Z</time>
      </trkpt>
      <trkpt lat="44.11899" lon="3.24597">
        <ele>450.5</ele>
        <time>2015-12-06T08:40:13Z</time>
      </trkpt>
      <trkpt lat="44.11898" lon="3.24597">
        <ele>451</ele>
        <time>2015-12-06T08:40:14Z</time>
      </trkpt>
      <trkpt lat="44.11896" lon="3.24598">
        <ele>452</ele>
        <time>2015-12-06T08:40:15Z</time>
      </trkpt>
      <trkpt lat="44.11894" lon="3.24599">
        <ele>453</ele>
        <time>2015-12-06T08:40:16Z</time>
      </trkpt>
      <trkpt lat="44.11891" lon="3.246">
        <ele>454.5</ele>
        <time>2015-12-06T08:40:17Z</time>
      </trkpt>
      <trkpt lat="44.11889" lon="3.24601">
        <ele>454.5</ele>
        <time>2015-12-06T08:40:18Z</time>
      </trkpt>
      <trkpt lat="44.11887" lon="3.24602">
        <ele>455</ele>
        <time>2015-12-06T08:40:19Z</time>
      </trkpt>
      <trkpt lat="44.11885" lon="3.24603">
        <ele>455</ele>
        <time>2015-12-06T08:40:20Z</time>
      </trkpt>
      <trkpt lat="44.11883" lon="3.24604">
        <ele>456</ele>
        <time>2015-12-06T08:40:21Z</time>
      </trkpt>
      <trkpt lat="44.11881" lon="3.24605">
        <ele>456.5</ele>
        <time>2015-12-06T08:40:22Z</time>
      </trkpt>
      <trkpt lat="44.11879" lon="3.24607">
        <ele>456.5</ele>
        <time>2015-12-06T08:40:23Z</time>
      </trkpt>
      <trkpt lat="44.11877" lon="3.24607">
        <ele>456.5</ele>
        <time>2015-12-06T08:40:24Z</time>
      </trkpt>
      <trkpt lat="44.11875" lon="3.24608">
        <ele>456</ele>
        <time>2015-12-06T08:40:25Z</time>
      </trkpt>
      <trkpt lat="44.11873" lon="3.24609">
        <ele>456</ele>
        <time>2015-12-06T08:40:26Z</time>
      </trkpt>
      <trkpt lat="44.11871" lon="3.2461">
        <ele>456</ele>
        <time>2015-12-06T08:40:27Z</time>
      </trkpt>
      <trkpt lat="44.11869" lon="3.24611">
        <ele>457</ele>
        <time>2015-12-06T08:40:28Z</time>
      </trkpt>
      <trkpt lat="44.11867" lon="3.24612">
        <ele>457</ele>
        <time>2015-12-06T08:40:29Z</time>
      </trkpt>
      <trkpt lat="44.11865" lon="3.24613">
        <ele>456</ele>
        <time>2015-12-06T08:40:30Z</time>
      </trkpt>
      <trkpt lat="44.11863" lon="3.24614">
        <ele>456</ele>
        <time>2015-12-06T08:40:31Z</time>
      </trkpt>
      <trkpt lat="44.11861" lon="3.24614">
        <ele>455</ele>
        <time>2015-12-06T08:40:32Z</time>
      </trkpt>
      <trkpt lat="44.11858" lon="3.24614">
        <ele>455</ele>
        <time>2015-12-06T08:40:33Z</time>
      </trkpt>
      <trkpt lat="44.11856" lon="3.24615">
        <ele>455.5</ele>
        <time>2015-12-06T08:40:34Z</time>
      </trkpt>
      <trkpt lat="44.11854" lon="3.24615">
        <ele>456</ele>
        <time>2015-12-06T08:40:35Z</time>
      </trkpt>
      <trkpt lat="44.11852" lon="3.24615">
        <ele>455.5</ele>
        <time>2015-12-06T08:40:36Z</time>
      </trkpt>
      <trkpt lat="44.11851" lon="3.24615">
        <ele>455.5</ele>
        <time>2015-12-06T08:40:37Z</time>
      </trkpt>
      <trkpt lat="44.11849" lon="3.24616">
        <ele>456.5</ele>
        <time>2015-12-06T08:40:38Z</time>
      </trkpt>
      <trkpt lat="44.11848" lon="3.24616">
        <ele>458</ele>
        <time>2015-12-06T08:40:39Z</time>
      </trkpt>
      <trkpt lat="44.11847" lon="3.24617">
        <ele>457.5</ele>
        <time>2015-12-06T08:40:40Z</time>
      </trkpt>
      <trkpt lat="44.11846" lon="3.24617">
        <ele>457</ele>
        <time>2015-12-06T08:40:41Z</time>
      </trkpt>
      <trkpt lat="44.11845" lon="3.24618">
        <ele>457.5</ele>
        <time>2015-12-06T08:40:42Z</time>
      </trkpt>
      <trkpt lat="44.11843" lon="3.24618">
        <ele>457</ele>
        <time>2015-12-06T08:40:43Z</time>
      </trkpt>
      <trkpt lat="44.11843" lon="3.24619">
        <ele>457.5</ele>
        <time>2015-12-06T08:40:44Z</time>
      </trkpt>
      <trkpt lat="44.11841" lon="3.2462">
        <ele>456.5</ele>
        <time>2015-12-06T08:40:45Z</time>
      </trkpt>
      <trkpt lat="44.1184" lon="3.2462">
        <ele>457</ele>
        <time>2015-12-06T08:40:46Z</time>
      </trkpt>
      <trkpt lat="44.11839" lon="3.2462">
        <ele>457</ele>
        <time>2015-12-06T08:40:47Z</time>
      </trkpt>
      <trkpt lat="44.11838" lon="3.2462">
        <ele>457.5</ele>
        <time>2015-12-06T08:40:48Z</time>
      </trkpt>
      <trkpt lat="44.11837" lon="3.2462">
        <ele>458.5</ele>
        <time>2015-12-06T08:40:49Z</time>
      </trkpt>
      <trkpt lat="44.11836" lon="3.2462">
        <ele>459</ele>
        <time>2015-12-06T08:40:50Z</time>
      </trkpt>
      <trkpt lat="44.11835" lon="3.2462">
        <ele>459.5</ele>
        <time>2015-12-06T08:40:51Z</time>
      </trkpt>
      <trkpt lat="44.11834" lon="3.24621">
        <ele>460</ele>
        <time>2015-12-06T08:40:52Z</time>
      </trkpt>
      <trkpt lat="44.11833" lon="3.24621">
        <ele>460.5</ele>
        <time>2015-12-06T08:40:53Z</time>
      </trkpt>
      <trkpt lat="44.11833" lon="3.24622">
        <ele>460</ele>
        <time>2015-12-06T08:40:54Z</time>
      </trkpt>
      <trkpt lat="44.11833" lon="3.24622">
        <ele>460</ele>
        <time>2015-12-06T08:40:55Z</time>
      </trkpt>
      <trkpt lat="44.11833" lon="3.24622">
        <ele>460</ele>
        <time>2015-12-06T08:40:56Z</time>
      </trkpt>
      <trkpt lat="44.11834" lon="3.24623">
        <ele>460</ele>
        <time>2015-12-06T08:40:57Z</time>
      </trkpt>
      <trkpt lat="44.11835" lon="3.24623">
        <ele>460</ele>
        <time>2015-12-06T08:40:58Z</time>
      </trkpt>
      <trkpt lat="44.11837" lon="3.24623">
        <ele>459.5</ele>
        <time>2015-12-06T08:40:59Z</time>
      </trkpt>
      <trkpt lat="44.11838" lon="3.24622">
        <ele>459.5</ele>
        <time>2015-12-06T08:41:00Z</time>
      </trkpt>
      <trkpt lat="44.11839" lon="3.24622">
        <ele>459.5</ele>
        <time>2015-12-06T08:41:01Z</time>
      </trkpt>
      <trkpt lat="44.1184" lon="3.24621">
        <ele>459</ele>
        <time>2015-12-06T08:41:02Z</time>
      </trkpt>
      <trkpt lat="44.11841" lon="3.24622">
        <ele>458</ele>
        <time>2015-12-06T08:41:03Z</time>
      </trkpt>
      <trkpt lat="44.11842" lon="3.24621">
        <ele>458</ele>
        <time>2015-12-06T08:41:04Z</time>
      </trkpt>
      <trkpt lat="44.11842" lon="3.2462">
        <ele>457.5</ele>
        <time>2015-12-06T08:41:05Z</time>
      </trkpt>
      <trkpt lat="44.11842" lon="3.24619">
        <ele>457.5</ele>
        <time>2015-12-06T08:41:06Z</time>
      </trkpt>
      <trkpt lat="44.11841" lon="3.24618">
        <ele>457.5</ele>
        <time>2015-12-06T08:41:07Z</time>
      </trkpt>
      <trkpt lat="44.1184" lon="3.24617">
        <ele>456.5</ele>
        <time>2015-12-06T08:41:08Z</time>
      </trkpt>
      <trkpt lat="44.11839" lon="3.24618">
        <ele>456.5</ele>
        <time>2015-12-06T08:41:09Z</time>
      </trkpt>
      <trkpt lat="44.11838" lon="3.24619">
        <ele>456.5</ele>
        <time>2015-12-06T08:41:10Z</time>
      </trkpt>
      <trkpt lat="44.11838" lon="3.24621">
        <ele>456.5</ele>
        <time>2015-12-06T08:41:11Z</time>
      </trkpt>
      <trkpt lat="44.11837" lon="3.24622">
        <ele>456.5</ele>
        <time>2015-12-06T08:41:12Z</time>
      </trkpt>
      <trkpt lat="44.11837" lon="3.24622">
        <ele>456</ele>
        <time>2015-12-06T08:41:13Z</time>
      </trkpt>
      <trkpt lat="44.11835" lon="3.24622">
        <ele>456</ele>
        <time>2015-12-06T08:41:14Z</time>
      </trkpt>
      <trkpt lat="44.11834" lon="3.24623">
        <ele>456</ele>
        <time>2015-12-06T08:41:15Z</time>
      </trkpt>
      <trkpt lat="44.11831" lon="3.24623">
        <ele>456</ele>
        <time>2015-12-06T08:41:16Z</time>
      </trkpt>
      <trkpt lat="44.11828" lon="3.24624">
        <ele>456</ele>
        <time>2015-12-06T08:41:17Z</time>
      </trkpt>
      <trkpt lat="44.11826" lon="3.24624">
        <ele>456</ele>
        <time>2015-12-06T08:41:18Z</time>
      </trkpt>
      <trkpt lat="44.11823" lon="3.24624">
        <ele>456.5</ele>
        <time>2015-12-06T08:41:19Z</time>
      </trkpt>
      <trkpt lat="44.11821" lon="3.24625">
        <ele>456</ele>
        <time>2015-12-06T08:41:20Z</time>
      </trkpt>
      <trkpt lat="44.11819" lon="3.24626">
        <ele>456</ele>
        <time>2015-12-06T08:41:21Z</time>
      </trkpt>
      <trkpt lat="44.11818" lon="3.24626">
        <ele>456.5</ele>
        <time>2015-12-06T08:41:22Z</time>
      </trkpt>
      <trkpt lat="44.11816" lon="3.24627">
        <ele>457</ele>
        <time>2015-12-06T08:41:23Z</time>
      </trkpt>
      <trkpt lat="44.11814" lon="3.24627">
        <ele>458</ele>
        <time>2015-12-06T08:41:24Z</time>
      </trkpt>
      <trkpt lat="44.11813" lon="3.24627">
        <ele>459.5</ele>
        <time>2015-12-06T08:41:25Z</time>
      </trkpt>
      <trkpt lat="44.11811" lon="3.24628">
        <ele>460</ele>
        <time>2015-12-06T08:41:26Z</time>
      </trkpt>
      <trkpt lat="44.11809" lon="3.24628">
        <ele>461</ele>
        <time>2015-12-06T08:41:27Z</time>
      </trkpt>
      <trkpt lat="44.11808" lon="3.24628">
        <ele>461</ele>
        <time>2015-12-06T08:41:28Z</time>
      </trkpt>
      <trkpt lat="44.11806" lon="3.24628">
        <ele>461</ele>
        <time>2015-12-06T08:41:29Z</time>
      </trkpt>
      <trkpt lat="44.11804" lon="3.24628">
        <ele>460</ele>
        <time>2015-12-06T08:41:30Z</time>
      </trkpt>
      <trkpt lat="44.11803" lon="3.24629">
        <ele>460.5</ele>
        <time>2015-12-06T08:41:31Z</time>
      </trkpt>
      <trkpt lat="44.11802" lon="3.24629">
        <ele>461.5</ele>
        <time>2015-12-06T08:41:32Z</time>
      </trkpt>
      <trkpt lat="44.118" lon="3.2463">
        <ele>461.5</ele>
        <time>2015-12-06T08:41:33Z</time>
      </trkpt>
      <trkpt lat="44.11798" lon="3.2463">
        <ele>461.5</ele>
        <time>2015-12-06T08:41:34Z</time>
      </trkpt>
      <trkpt lat="44.11797" lon="3.24631">
        <ele>460.5</ele>
        <time>2015-12-06T08:41:35Z</time>
      </trkpt>
      <trkpt lat="44.11795" lon="3.24632">
        <ele>461</ele>
        <time>2015-12-06T08:41:36Z</time>
      </trkpt>
      <trkpt lat="44.11794" lon="3.24633">
        <ele>461.5</ele>
        <time>2015-12-06T08:41:37Z</time>
      </trkpt>
      <trkpt lat="44.11792" lon="3.24634">
        <ele>460</ele>
        <time>2015-12-06T08:41:38Z</time>
      </trkpt>
      <trkpt lat="44.1179" lon="3.24634">
        <ele>460</ele>
        <time>2015-12-06T08:41:39Z</time>
      </trkpt>
      <trkpt lat="44.11789" lon="3.24635">
        <ele>460.5</ele>
        <time>2015-12-06T08:41:40Z</time>
      </trkpt>
      <trkpt lat="44.11788" lon="3.24636">
        <ele>461</ele>
        <time>2015-12-06T08:41:41Z</time>
      </trkpt>
      <trkpt lat="44.11787" lon="3.24637">
        <ele>461</ele>
        <time>2015-12-06T08:41:42Z</time>
      </trkpt>
      <trkpt lat="44.11785" lon="3.24638">
        <ele>461</ele>
        <time>2015-12-06T08:41:43Z</time>
      </trkpt>
      <trkpt lat="44.11784" lon="3.24639">
        <ele>461</ele>
        <time>2015-12-06T08:41:44Z</time>
      </trkpt>
      <trkpt lat="44.11783" lon="3.2464">
        <ele>461.5</ele>
        <time>2015-12-06T08:41:45Z</time>
      </trkpt>
      <trkpt lat="44.11781" lon="3.24641">
        <ele>462.5</ele>
        <time>2015-12-06T08:41:46Z</time>
      </trkpt>
      <trkpt lat="44.11779" lon="3.24642">
        <ele>463</ele>
        <time>2015-12-06T08:41:47Z</time>
      </trkpt>
      <trkpt lat="44.11778" lon="3.24643">
        <ele>462</ele>
        <time>2015-12-06T08:41:48Z</time>
      </trkpt>
      <trkpt lat="44.11776" lon="3.24644">
        <ele>462.5</ele>
        <time>2015-12-06T08:41:49Z</time>
      </trkpt>
      <trkpt lat="44.11775" lon="3.24645">
        <ele>462.5</ele>
        <time>2015-12-06T08:41:50Z</time>
      </trkpt>
      <trkpt lat="44.11774" lon="3.24646">
        <ele>462.5</ele>
        <time>2015-12-06T08:41:51Z</time>
      </trkpt>
      <trkpt lat="44.11772" lon="3.24648">
        <ele>463</ele>
        <time>2015-12-06T08:41:52Z</time>
      </trkpt>
      <trkpt lat="44.11766" lon="3.24651">
        <ele>463</ele>
        <time>2015-12-06T08:41:54Z</time>
      </trkpt>
      <trkpt lat="44.11765" lon="3.24652">
        <ele>464</ele>
        <time>2015-12-06T08:41:55Z</time>
      </trkpt>
      <trkpt lat="44.11764" lon="3.24653">
        <ele>465</ele>
        <time>2015-12-06T08:41:56Z</time>
      </trkpt>
      <trkpt lat="44.11763" lon="3.24655">
        <ele>466</ele>
        <time>2015-12-06T08:41:57Z</time>
      </trkpt>
      <trkpt lat="44.11762" lon="3.24656">
        <ele>466</ele>
        <time>2015-12-06T08:41:58Z</time>
      </trkpt>
      <trkpt lat="44.11761" lon="3.24657">
        <ele>466</ele>
        <time>2015-12-06T08:41:59Z</time>
      </trkpt>
      <trkpt lat="44.1176" lon="3.24658">
        <ele>466</ele>
        <time>2015-12-06T08:42:00Z</time>
      </trkpt>
      <trkpt lat="44.11759" lon="3.2466">
        <ele>466.5</ele>
        <time>2015-12-06T08:42:01Z</time>
      </trkpt>
      <trkpt lat="44.11757" lon="3.24661">
        <ele>466.5</ele>
        <time>2015-12-06T08:42:02Z</time>
      </trkpt>
      <trkpt lat="44.11757" lon="3.24662">
        <ele>467</ele>
        <time>2015-12-06T08:42:03Z</time>
      </trkpt>
      <trkpt lat="44.11756" lon="3.24664">
        <ele>467</ele>
        <time>2015-12-06T08:42:04Z</time>
      </trkpt>
      <trkpt lat="44.11754" lon="3.24666">
        <ele>467.5</ele>
        <time>2015-12-06T08:42:05Z</time>
      </trkpt>
      <trkpt lat="44.11753" lon="3.24667">
        <ele>469</ele>
        <time>2015-12-06T08:42:06Z</time>
      </trkpt>
      <trkpt lat="44.11752" lon="3.24669">
        <ele>470</ele>
        <time>2015-12-06T08:42:07Z</time>
      </trkpt>
      <trkpt lat="44.1175" lon="3.24671">
        <ele>470.5</ele>
        <time>2015-12-06T08:42:08Z</time>
      </trkpt>
      <trkpt lat="44.11749" lon="3.24672">
        <ele>471</ele>
        <time>2015-12-06T08:42:09Z</time>
      </trkpt>
      <trkpt lat="44.11748" lon="3.24673">
        <ele>472</ele>
        <time>2015-12-06T08:42:10Z</time>
      </trkpt>
      <trkpt lat="44.11747" lon="3.24675">
        <ele>473</ele>
        <time>2015-12-06T08:42:11Z</time>
      </trkpt>
      <trkpt lat="44.11746" lon="3.24676">
        <ele>474</ele>
        <time>2015-12-06T08:42:12Z</time>
      </trkpt>
      <trkpt lat="44.11745" lon="3.24678">
        <ele>475.5</ele>
        <time>2015-12-06T08:42:13Z</time>
      </trkpt>
      <trkpt lat="44.11744" lon="3.2468">
        <ele>476</ele>
        <time>2015-12-06T08:42:14Z</time>
      </trkpt>
      <trkpt lat="44.11743" lon="3.24681">
        <ele>475.5</ele>
        <time>2015-12-06T08:42:15Z</time>
      </trkpt>
      <trkpt lat="44.11742" lon="3.24683">
        <ele>477</ele>
        <time>2015-12-06T08:42:16Z</time>
      </trkpt>
      <trkpt lat="44.11741" lon="3.24685">
        <ele>478</ele>
        <time>2015-12-06T08:42:17Z</time>
      </trkpt>
      <trkpt lat="44.1174" lon="3.24686">
        <ele>479.5</ele>
        <time>2015-12-06T08:42:18Z</time>
      </trkpt>
      <trkpt lat="44.11739" lon="3.24688">
        <ele>480</ele>
        <time>2015-12-06T08:42:19Z</time>
      </trkpt>
      <trkpt lat="44.11738" lon="3.24689">
        <ele>480.5</ele>
        <time>2015-12-06T08:42:20Z</time>
      </trkpt>
      <trkpt lat="44.11737" lon="3.24691">
        <ele>483</ele>
        <time>2015-12-06T08:42:21Z</time>
      </trkpt>
      <trkpt lat="44.11737" lon="3.24693">
        <ele>485.5</ele>
        <time>2015-12-06T08:42:22Z</time>
      </trkpt>
      <trkpt lat="44.11736" lon="3.24694">
        <ele>488</ele>
        <time>2015-12-06T08:42:23Z</time>
      </trkpt>
      <trkpt lat="44.11735" lon="3.24696">
        <ele>489</ele>
        <time>2015-12-06T08:42:24Z</time>
      </trkpt>
      <trkpt lat="44.11735" lon="3.24697">
        <ele>490.5</ele>
        <time>2015-12-06T08:42:25Z</time>
      </trkpt>
      <trkpt lat="44.11733" lon="3.24699">
        <ele>491</ele>
        <time>2015-12-06T08:42:26Z</time>
      </trkpt>
      <trkpt lat="44.11731" lon="3.24701">
        <ele>490</ele>
        <time>2015-12-06T08:42:27Z</time>
      </trkpt>
      <trkpt lat="44.1173" lon="3.24703">
        <ele>490.5</ele>
        <time>2015-12-06T08:42:28Z</time>
      </trkpt>
      <trkpt lat="44.11729" lon="3.24705">
        <ele>491.5</ele>
        <time>2015-12-06T08:42:29Z</time>
      </trkpt>
      <trkpt lat="44.11729" lon="3.24706">
        <ele>492</ele>
        <time>2015-12-06T08:42:30Z</time>
      </trkpt>
      <trkpt lat="44.11727" lon="3.24708">
        <ele>491</ele>
        <time>2015-12-06T08:42:31Z</time>
      </trkpt>
      <trkpt lat="44.11726" lon="3.2471">
        <ele>491.5</ele>
        <time>2015-12-06T08:42:32Z</time>
      </trkpt>
      <trkpt lat="44.11726" lon="3.24712">
        <ele>492</ele>
        <time>2015-12-06T08:42:33Z</time>
      </trkpt>
      <trkpt lat="44.11725" lon="3.24714">
        <ele>492.5</ele>
        <time>2015-12-06T08:42:34Z</time>
      </trkpt>
      <trkpt lat="44.11724" lon="3.24715">
        <ele>492.5</ele>
        <time>2015-12-06T08:42:35Z</time>
      </trkpt>
      <trkpt lat="44.11723" lon="3.24717">
        <ele>492.5</ele>
        <time>2015-12-06T08:42:36Z</time>
      </trkpt>
      <trkpt lat="44.11722" lon="3.24718">
        <ele>492.5</ele>
        <time>2015-12-06T08:42:37Z</time>
      </trkpt>
      <trkpt lat="44.11721" lon="3.2472">
        <ele>493</ele>
        <time>2015-12-06T08:42:38Z</time>
      </trkpt>
      <trkpt lat="44.1172" lon="3.24721">
        <ele>493</ele>
        <time>2015-12-06T08:42:39Z</time>
      </trkpt>
      <trkpt lat="44.11718" lon="3.24722">
        <ele>493</ele>
        <time>2015-12-06T08:42:40Z</time>
      </trkpt>
      <trkpt lat="44.11717" lon="3.24723">
        <ele>493</ele>
        <time>2015-12-06T08:42:41Z</time>
      </trkpt>
      <trkpt lat="44.11715" lon="3.24723">
        <ele>493.5</ele>
        <time>2015-12-06T08:42:42Z</time>
      </trkpt>
      <trkpt lat="44.11714" lon="3.24724">
        <ele>493.5</ele>
        <time>2015-12-06T08:42:43Z</time>
      </trkpt>
      <trkpt lat="44.11713" lon="3.24725">
        <ele>493.5</ele>
        <time>2015-12-06T08:42:44Z</time>
      </trkpt>
      <trkpt lat="44.11713" lon="3.24728">
        <ele>493.5</ele>
        <time>2015-12-06T08:42:45Z</time>
      </trkpt>
      <trkpt lat="44.11713" lon="3.24729">
        <ele>493</ele>
        <time>2015-12-06T08:42:46Z</time>
      </trkpt>
      <trkpt lat="44.11714" lon="3.2473">
        <ele>492.5</ele>
        <time>2015-12-06T08:42:46Z</time>
      </trkpt>
      <trkpt lat="44.11715" lon="3.2473">
        <ele>493.5</ele>
        <time>2015-12-06T08:42:47Z</time>
      </trkpt>
      <trkpt lat="44.11717" lon="3.24729">
        <ele>493</ele>
        <time>2015-12-06T08:42:48Z</time>
      </trkpt>
      <trkpt lat="44.11718" lon="3.24728">
        <ele>493</ele>
        <time>2015-12-06T08:42:49Z</time>
      </trkpt>
      <trkpt lat="44.11719" lon="3.24727">
        <ele>493.5</ele>
        <time>2015-12-06T08:42:50Z</time>
      </trkpt>
      <trkpt lat="44.1172" lon="3.24727">
        <ele>493.5</ele>
        <time>2015-12-06T08:42:52Z</time>
      </trkpt>
      <trkpt lat="44.11721" lon="3.24726">
        <ele>493.5</ele>
        <time>2015-12-06T08:42:52Z</time>
      </trkpt>
      <trkpt lat="44.11722" lon="3.24726">
        <ele>493</ele>
        <time>2015-12-06T08:42:53Z</time>
      </trkpt>
      <trkpt lat="44.11723" lon="3.24725">
        <ele>493</ele>
        <time>2015-12-06T08:42:54Z</time>
      </trkpt>
      <trkpt lat="44.11723" lon="3.24724">
        <ele>493.5</ele>
        <time>2015-12-06T08:42:55Z</time>
      </trkpt>
      <trkpt lat="44.11724" lon="3.24723">
        <ele>493</ele>
        <time>2015-12-06T08:42:56Z</time>
      </trkpt>
      <trkpt lat="44.11724" lon="3.24722">
        <ele>493.5</ele>
        <time>2015-12-06T08:42:57Z</time>
      </trkpt>
      <trkpt lat="44.11725" lon="3.24721">
        <ele>493.5</ele>
        <time>2015-12-06T08:42:58Z</time>
      </trkpt>
      <trkpt lat="44.11726" lon="3.2472">
        <ele>493</ele>
        <time>2015-12-06T08:42:59Z</time>
      </trkpt>
      <trkpt lat="44.11726" lon="3.24719">
        <ele>493</ele>
        <time>2015-12-06T08:43:00Z</time>
      </trkpt>
      <trkpt lat="44.11727" lon="3.24718">
        <ele>493.5</ele>
        <time>2015-12-06T08:43:01Z</time>
      </trkpt>
      <trkpt lat="44.11728" lon="3.24717">
        <ele>494.5</ele>
        <time>2015-12-06T08:43:02Z</time>
      </trkpt>
      <trkpt lat="44.11728" lon="3.24716">
        <ele>494.5</ele>
        <time>2015-12-06T08:43:03Z</time>
      </trkpt>
      <trkpt lat="44.11729" lon="3.24715">
        <ele>495</ele>
        <time>2015-12-06T08:43:05Z</time>
      </trkpt>
      <trkpt lat="44.11729" lon="3.24713">
        <ele>495</ele>
        <time>2015-12-06T08:43:05Z</time>
      </trkpt>
      <trkpt lat="44.1173" lon="3.24712">
        <ele>495.5</ele>
        <time>2015-12-06T08:43:06Z</time>
      </trkpt>
      <trkpt lat="44.11731" lon="3.2471">
        <ele>495</ele>
        <time>2015-12-06T08:43:07Z</time>
      </trkpt>
      <trkpt lat="44.11732" lon="3.24709">
        <ele>494.5</ele>
        <time>2015-12-06T08:43:08Z</time>
      </trkpt>
      <trkpt lat="44.11733" lon="3.24708">
        <ele>494</ele>
        <time>2015-12-06T08:43:09Z</time>
      </trkpt>
      <trkpt lat="44.11733" lon="3.24707">
        <ele>494.5</ele>
        <time>2015-12-06T08:43:10Z</time>
      </trkpt>
      <trkpt lat="44.11734" lon="3.24706">
        <ele>495.5</ele>
        <time>2015-12-06T08:43:11Z</time>
      </trkpt>
      <trkpt lat="44.11735" lon="3.24704">
        <ele>496.5</ele>
        <time>2015-12-06T08:43:12Z</time>
      </trkpt>
      <trkpt lat="44.11736" lon="3.24703">
        <ele>496</ele>
        <time>2015-12-06T08:43:13Z</time>
      </trkpt>
      <trkpt lat="44.11736" lon="3.24702">
        <ele>497</ele>
        <time>2015-12-06T08:43:14Z</time>
      </trkpt>
      <trkpt lat="44.11737" lon="3.24701">
        <ele>497</ele>
        <time>2015-12-06T08:43:16Z</time>
      </trkpt>
      <trkpt lat="44.11738" lon="3.247">
        <ele>498</ele>
        <time>2015-12-06T08:43:17Z</time>
      </trkpt>
      <trkpt lat="44.11739" lon="3.24699">
        <ele>497.5</ele>
        <time>2015-12-06T08:43:17Z</time>
      </trkpt>
      <trkpt lat="44.11739" lon="3.24698">
        <ele>497.5</ele>
        <time>2015-12-06T08:43:18Z</time>
      </trkpt>
      <trkpt lat="44.11741" lon="3.24697">
        <ele>497</ele>
        <time>2015-12-06T08:43:19Z</time>
      </trkpt>
      <trkpt lat="44.11742" lon="3.24696">
        <ele>497</ele>
        <time>2015-12-06T08:43:20Z</time>
      </trkpt>
      <trkpt lat="44.11744" lon="3.24695">
        <ele>496</ele>
        <time>2015-12-06T08:43:21Z</time>
      </trkpt>
      <trkpt lat="44.11745" lon="3.24695">
        <ele>496</ele>
        <time>2015-12-06T08:43:22Z</time>
      </trkpt>
      <trkpt lat="44.11746" lon="3.24694">
        <ele>495.5</ele>
        <time>2015-12-06T08:43:23Z</time>
      </trkpt>
      <trkpt lat="44.11747" lon="3.24693">
        <ele>495.5</ele>
        <time>2015-12-06T08:43:24Z</time>
      </trkpt>
      <trkpt lat="44.11749" lon="3.24693">
        <ele>495</ele>
        <time>2015-12-06T08:43:25Z</time>
      </trkpt>
      <trkpt lat="44.1175" lon="3.24691">
        <ele>495.5</ele>
        <time>2015-12-06T08:43:26Z</time>
      </trkpt>
      <trkpt lat="44.11752" lon="3.2469">
        <ele>495.5</ele>
        <time>2015-12-06T08:43:27Z</time>
      </trkpt>
      <trkpt lat="44.11753" lon="3.2469">
        <ele>495</ele>
        <time>2015-12-06T08:43:28Z</time>
      </trkpt>
      <trkpt lat="44.11755" lon="3.24689">
        <ele>494.5</ele>
        <time>2015-12-06T08:43:29Z</time>
      </trkpt>
      <trkpt lat="44.11756" lon="3.24688">
        <ele>494.5</ele>
        <time>2015-12-06T08:43:30Z</time>
      </trkpt>
      <trkpt lat="44.11757" lon="3.24687">
        <ele>495</ele>
        <time>2015-12-06T08:43:31Z</time>
      </trkpt>
      <trkpt lat="44.11759" lon="3.24687">
        <ele>495</ele>
        <time>2015-12-06T08:43:32Z</time>
      </trkpt>
      <trkpt lat="44.1176" lon="3.24686">
        <ele>494.5</ele>
        <time>2015-12-06T08:43:33Z</time>
      </trkpt>
      <trkpt lat="44.11761" lon="3.24685">
        <ele>494</ele>
        <time>2015-12-06T08:43:34Z</time>
      </trkpt>
      <trkpt lat="44.11763" lon="3.24685">
        <ele>494</ele>
        <time>2015-12-06T08:43:35Z</time>
      </trkpt>
      <trkpt lat="44.11763" lon="3.24685">
        <ele>493.5</ele>
        <time>2015-12-06T08:43:36Z</time>
      </trkpt>
      <trkpt lat="44.11764" lon="3.24684">
        <ele>493.5</ele>
        <time>2015-12-06T08:43:37Z</time>
      </trkpt>
      <trkpt lat="44.11766" lon="3.24684">
        <ele>493.5</ele>
        <time>2015-12-06T08:43:38Z</time>
      </trkpt>
      <trkpt lat="44.11767" lon="3.24684">
        <ele>494</ele>
        <time>2015-12-06T08:43:39Z</time>
      </trkpt>
      <trkpt lat="44.11768" lon="3.24683">
        <ele>494</ele>
        <time>2015-12-06T08:43:40Z</time>
      </trkpt>
      <trkpt lat="44.1177" lon="3.24683">
        <ele>494</ele>
        <time>2015-12-06T08:43:41Z</time>
      </trkpt>
      <trkpt lat="44.11771" lon="3.24683">
        <ele>494.5</ele>
        <time>2015-12-06T08:43:42Z</time>
      </trkpt>
      <trkpt lat="44.11772" lon="3.24682">
        <ele>494.5</ele>
        <time>2015-12-06T08:43:43Z</time>
      </trkpt>
      <trkpt lat="44.11774" lon="3.24681">
        <ele>495</ele>
        <time>2015-12-06T08:43:44Z</time>
      </trkpt>
      <trkpt lat="44.11776" lon="3.2468">
        <ele>495.5</ele>
        <time>2015-12-06T08:43:45Z</time>
      </trkpt>
      <trkpt lat="44.11777" lon="3.2468">
        <ele>495.5</ele>
        <time>2015-12-06T08:43:46Z</time>
      </trkpt>
      <trkpt lat="44.11778" lon="3.24678">
        <ele>496</ele>
        <time>2015-12-06T08:43:47Z</time>
      </trkpt>
      <trkpt lat="44.1178" lon="3.24677">
        <ele>496.5</ele>
        <time>2015-12-06T08:43:48Z</time>
      </trkpt>
      <trkpt lat="44.11781" lon="3.24676">
        <ele>497</ele>
        <time>2015-12-06T08:43:49Z</time>
      </trkpt>
      <trkpt lat="44.11782" lon="3.24676">
        <ele>496.5</ele>
        <time>2015-12-06T08:43:50Z</time>
      </trkpt>
      <trkpt lat="44.11784" lon="3.24676">
        <ele>497</ele>
        <time>2015-12-06T08:43:51Z</time>
      </trkpt>
      <trkpt lat="44.11785" lon="3.24676">
        <ele>497</ele>
        <time>2015-12-06T08:43:52Z</time>
      </trkpt>
      <trkpt lat="44.11787" lon="3.24675">
        <ele>497</ele>
        <time>2015-12-06T08:43:53Z</time>
      </trkpt>
      <trkpt lat="44.11788" lon="3.24675">
        <ele>497.5</ele>
        <time>2015-12-06T08:43:54Z</time>
      </trkpt>
      <trkpt lat="44.1179" lon="3.24675">
        <ele>497.5</ele>
        <time>2015-12-06T08:43:55Z</time>
      </trkpt>
      <trkpt lat="44.11791" lon="3.24676">
        <ele>498.5</ele>
        <time>2015-12-06T08:43:56Z</time>
      </trkpt>
      <trkpt lat="44.11791" lon="3.24677">
        <ele>499.5</ele>
        <time>2015-12-06T08:43:57Z</time>
      </trkpt>
      <trkpt lat="44.11792" lon="3.2468">
        <ele>500</ele>
        <time>2015-12-06T08:43:58Z</time>
      </trkpt>
      <trkpt lat="44.11791" lon="3.2468">
        <ele>500</ele>
        <time>2015-12-06T08:43:59Z</time>
      </trkpt>
      <trkpt lat="44.11789" lon="3.24679">
        <ele>501</ele>
        <time>2015-12-06T08:44:00Z</time>
      </trkpt>
      <trkpt lat="44.11788" lon="3.24679">
        <ele>501</ele>
        <time>2015-12-06T08:44:01Z</time>
      </trkpt>
      <trkpt lat="44.11787" lon="3.2468">
        <ele>501</ele>
        <time>2015-12-06T08:44:02Z</time>
      </trkpt>
      <trkpt lat="44.11786" lon="3.2468">
        <ele>501</ele>
        <time>2015-12-06T08:44:03Z</time>
      </trkpt>
      <trkpt lat="44.11785" lon="3.24681">
        <ele>501.5</ele>
        <time>2015-12-06T08:44:04Z</time>
      </trkpt>
      <trkpt lat="44.11784" lon="3.24682">
        <ele>501.5</ele>
        <time>2015-12-06T08:44:05Z</time>
      </trkpt>
      <trkpt lat="44.11783" lon="3.24682">
        <ele>501.5</ele>
        <time>2015-12-06T08:44:06Z</time>
      </trkpt>
      <trkpt lat="44.11782" lon="3.24683">
        <ele>501</ele>
        <time>2015-12-06T08:44:07Z</time>
      </trkpt>
      <trkpt lat="44.1178" lon="3.24685">
        <ele>500.5</ele>
        <time>2015-12-06T08:44:08Z</time>
      </trkpt>
      <trkpt lat="44.11779" lon="3.24686">
        <ele>501</ele>
        <time>2015-12-06T08:44:09Z</time>
      </trkpt>
      <trkpt lat="44.11778" lon="3.24686">
        <ele>499</ele>
        <time>2015-12-06T08:44:10Z</time>
      </trkpt>
      <trkpt lat="44.11777" lon="3.24688">
        <ele>498.5</ele>
        <time>2015-12-06T08:44:11Z</time>
      </trkpt>
      <trkpt lat="44.11777" lon="3.24689">
        <ele>498.5</ele>
        <time>2015-12-06T08:44:12Z</time>
      </trkpt>
      <trkpt lat="44.11776" lon="3.2469">
        <ele>498.5</ele>
        <time>2015-12-06T08:44:13Z</time>
      </trkpt>
      <trkpt lat="44.11776" lon="3.24692">
        <ele>499</ele>
        <time>2015-12-06T08:44:14Z</time>
      </trkpt>
      <trkpt lat="44.11775" lon="3.24693">
        <ele>499</ele>
        <time>2015-12-06T08:44:15Z</time>
      </trkpt>
      <trkpt lat="44.11774" lon="3.24695">
        <ele>498.5</ele>
        <time>2015-12-06T08:44:16Z</time>
      </trkpt>
      <trkpt lat="44.11773" lon="3.24696">
        <ele>498</ele>
        <time>2015-12-06T08:44:17Z</time>
      </trkpt>
      <trkpt lat="44.11772" lon="3.24697">
        <ele>497.5</ele>
        <time>2015-12-06T08:44:18Z</time>
      </trkpt>
      <trkpt lat="44.11771" lon="3.24699">
        <ele>498</ele>
        <time>2015-12-06T08:44:19Z</time>
      </trkpt>
      <trkpt lat="44.1177" lon="3.247">
        <ele>498</ele>
        <time>2015-12-06T08:44:20Z</time>
      </trkpt>
      <trkpt lat="44.11769" lon="3.24702">
        <ele>498</ele>
        <time>2015-12-06T08:44:21Z</time>
      </trkpt>
      <trkpt lat="44.11769" lon="3.24703">
        <ele>498</ele>
        <time>2015-12-06T08:44:22Z</time>
      </trkpt>
      <trkpt lat="44.11767" lon="3.24704">
        <ele>498</ele>
        <time>2015-12-06T08:44:23Z</time>
      </trkpt>
      <trkpt lat="44.11766" lon="3.24706">
        <ele>498.5</ele>
        <time>2015-12-06T08:44:24Z</time>
      </trkpt>
      <trkpt lat="44.11765" lon="3.24707">
        <ele>499</ele>
        <time>2015-12-06T08:44:25Z</time>
      </trkpt>
      <trkpt lat="44.11764" lon="3.24709">
        <ele>498.5</ele>
        <time>2015-12-06T08:44:26Z</time>
      </trkpt>
      <trkpt lat="44.11763" lon="3.24711">
        <ele>499</ele>
        <time>2015-12-06T08:44:27Z</time>
      </trkpt>
      <trkpt lat="44.11763" lon="3.24712">
        <ele>499</ele>
        <time>2015-12-06T08:44:28Z</time>
      </trkpt>
      <trkpt lat="44.11762" lon="3.24713">
        <ele>499</ele>
        <time>2015-12-06T08:44:29Z</time>
      </trkpt>
      <trkpt lat="44.11761" lon="3.24715">
        <ele>500</ele>
        <time>2015-12-06T08:44:30Z</time>
      </trkpt>
      <trkpt lat="44.11761" lon="3.24716">
        <ele>500</ele>
        <time>2015-12-06T08:44:31Z</time>
      </trkpt>
      <trkpt lat="44.1176" lon="3.24717">
        <ele>501</ele>
        <time>2015-12-06T08:44:32Z</time>
      </trkpt>
      <trkpt lat="44.11759" lon="3.24719">
        <ele>502</ele>
        <time>2015-12-06T08:44:33Z</time>
      </trkpt>
      <trkpt lat="44.11759" lon="3.2472">
        <ele>502.5</ele>
        <time>2015-12-06T08:44:34Z</time>
      </trkpt>
      <trkpt lat="44.11757" lon="3.24722">
        <ele>502.5</ele>
        <time>2015-12-06T08:44:35Z</time>
      </trkpt>
      <trkpt lat="44.11757" lon="3.24723">
        <ele>503.5</ele>
        <time>2015-12-06T08:44:36Z</time>
      </trkpt>
      <trkpt lat="44.11757" lon="3.24724">
        <ele>505</ele>
        <time>2015-12-06T08:44:37Z</time>
      </trkpt>
      <trkpt lat="44.11756" lon="3.24725">
        <ele>505.5</ele>
        <time>2015-12-06T08:44:38Z</time>
      </trkpt>
      <trkpt lat="44.11755" lon="3.24727">
        <ele>506</ele>
        <time>2015-12-06T08:44:39Z</time>
      </trkpt>
      <trkpt lat="44.11754" lon="3.24729">
        <ele>506.5</ele>
        <time>2015-12-06T08:44:40Z</time>
      </trkpt>
      <trkpt lat="44.11754" lon="3.2473">
        <ele>508</ele>
        <time>2015-12-06T08:44:41Z</time>
      </trkpt>
      <trkpt lat="44.11753" lon="3.24731">
        <ele>508</ele>
        <time>2015-12-06T08:44:42Z</time>
      </trkpt>
      <trkpt lat="44.11752" lon="3.24733">
        <ele>508.5</ele>
        <time>2015-12-06T08:44:43Z</time>
      </trkpt>
      <trkpt lat="44.11751" lon="3.24732">
        <ele>508</ele>
        <time>2015-12-06T08:44:44Z</time>
      </trkpt>
      <trkpt lat="44.11751" lon="3.24733">
        <ele>508</ele>
        <time>2015-12-06T08:44:47Z</time>
      </trkpt>
      <trkpt lat="44.11751" lon="3.24734">
        <ele>509</ele>
        <time>2015-12-06T08:44:50Z</time>
      </trkpt>
      <trkpt lat="44.1175" lon="3.24736">
        <ele>510.5</ele>
        <time>2015-12-06T08:44:52Z</time>
      </trkpt>
      <trkpt lat="44.1175" lon="3.24737">
        <ele>511</ele>
        <time>2015-12-06T08:44:53Z</time>
      </trkpt>
      <trkpt lat="44.11749" lon="3.24739">
        <ele>511</ele>
        <time>2015-12-06T08:44:54Z</time>
      </trkpt>
      <trkpt lat="44.11749" lon="3.24741">
        <ele>512</ele>
        <time>2015-12-06T08:44:55Z</time>
      </trkpt>
      <trkpt lat="44.11748" lon="3.24743">
        <ele>513</ele>
        <time>2015-12-06T08:44:56Z</time>
      </trkpt>
      <trkpt lat="44.11748" lon="3.24745">
        <ele>514.5</ele>
        <time>2015-12-06T08:44:57Z</time>
      </trkpt>
      <trkpt lat="44.11747" lon="3.24746">
        <ele>515</ele>
        <time>2015-12-06T08:44:58Z</time>
      </trkpt>
      <trkpt lat="44.11747" lon="3.24748">
        <ele>515</ele>
        <time>2015-12-06T08:44:59Z</time>
      </trkpt>
      <trkpt lat="44.11746" lon="3.2475">
        <ele>515</ele>
        <time>2015-12-06T08:45:00Z</time>
      </trkpt>
      <trkpt lat="44.11745" lon="3.24752">
        <ele>513</ele>
        <time>2015-12-06T08:45:01Z</time>
      </trkpt>
      <trkpt lat="44.11744" lon="3.24753">
        <ele>512.5</ele>
        <time>2015-12-06T08:45:02Z</time>
      </trkpt>
      <trkpt lat="44.11744" lon="3.24755">
        <ele>513</ele>
        <time>2015-12-06T08:45:03Z</time>
      </trkpt>
      <trkpt lat="44.11743" lon="3.24757">
        <ele>513.5</ele>
        <time>2015-12-06T08:45:04Z</time>
      </trkpt>
      <trkpt lat="44.11743" lon="3.24759">
        <ele>514</ele>
        <time>2015-12-06T08:45:05Z</time>
      </trkpt>
      <trkpt lat="44.11742" lon="3.2476">
        <ele>514</ele>
        <time>2015-12-06T08:45:06Z</time>
      </trkpt>
      <trkpt lat="44.11741" lon="3.24762">
        <ele>514.5</ele>
        <time>2015-12-06T08:45:07Z</time>
      </trkpt>
      <trkpt lat="44.11743" lon="3.24764">
        <ele>514.5</ele>
        <time>2015-12-06T08:45:08Z</time>
      </trkpt>
      <trkpt lat="44.11742" lon="3.24766">
        <ele>514.5</ele>
        <time>2015-12-06T08:45:09Z</time>
      </trkpt>
      <trkpt lat="44.11741" lon="3.24767">
        <ele>514</ele>
        <time>2015-12-06T08:45:10Z</time>
      </trkpt>
      <trkpt lat="44.1174" lon="3.24768">
        <ele>514</ele>
        <time>2015-12-06T08:45:11Z</time>
      </trkpt>
      <trkpt lat="44.11739" lon="3.24769">
        <ele>515</ele>
        <time>2015-12-06T08:45:12Z</time>
      </trkpt>
      <trkpt lat="44.11738" lon="3.2477">
        <ele>514.5</ele>
        <time>2015-12-06T08:45:13Z</time>
      </trkpt>
      <trkpt lat="44.11737" lon="3.2477">
        <ele>514.5</ele>
        <time>2015-12-06T08:45:14Z</time>
      </trkpt>
      <trkpt lat="44.11735" lon="3.2477">
        <ele>514.5</ele>
        <time>2015-12-06T08:45:15Z</time>
      </trkpt>
      <trkpt lat="44.11734" lon="3.2477">
        <ele>514.5</ele>
        <time>2015-12-06T08:45:16Z</time>
      </trkpt>
      <trkpt lat="44.11733" lon="3.2477">
        <ele>514.5</ele>
        <time>2015-12-06T08:45:17Z</time>
      </trkpt>
      <trkpt lat="44.11732" lon="3.2477">
        <ele>514.5</ele>
        <time>2015-12-06T08:45:18Z</time>
      </trkpt>
      <trkpt lat="44.1173" lon="3.2477">
        <ele>514.5</ele>
        <time>2015-12-06T08:45:19Z</time>
      </trkpt>
      <trkpt lat="44.11729" lon="3.24771">
        <ele>514.5</ele>
        <time>2015-12-06T08:45:20Z</time>
      </trkpt>
      <trkpt lat="44.11729" lon="3.24773">
        <ele>515</ele>
        <time>2015-12-06T08:45:21Z</time>
      </trkpt>
      <trkpt lat="44.11729" lon="3.24775">
        <ele>515</ele>
        <time>2015-12-06T08:45:22Z</time>
      </trkpt>
      <trkpt lat="44.11729" lon="3.24776">
        <ele>516</ele>
        <time>2015-12-06T08:45:23Z</time>
      </trkpt>
      <trkpt lat="44.1173" lon="3.24776">
        <ele>516.5</ele>
        <time>2015-12-06T08:45:24Z</time>
      </trkpt>
      <trkpt lat="44.11732" lon="3.24776">
        <ele>517.5</ele>
        <time>2015-12-06T08:45:25Z</time>
      </trkpt>
      <trkpt lat="44.11733" lon="3.24776">
        <ele>517</ele>
        <time>2015-12-06T08:45:26Z</time>
      </trkpt>
      <trkpt lat="44.11734" lon="3.24776">
        <ele>517</ele>
        <time>2015-12-06T08:45:27Z</time>
      </trkpt>
      <trkpt lat="44.11735" lon="3.24776">
        <ele>516</ele>
        <time>2015-12-06T08:45:28Z</time>
      </trkpt>
      <trkpt lat="44.11736" lon="3.24776">
        <ele>516</ele>
        <time>2015-12-06T08:45:29Z</time>
      </trkpt>
      <trkpt lat="44.11737" lon="3.24776">
        <ele>516</ele>
        <time>2015-12-06T08:45:30Z</time>
      </trkpt>
      <trkpt lat="44.11738" lon="3.24776">
        <ele>516.5</ele>
        <time>2015-12-06T08:45:31Z</time>
      </trkpt>
      <trkpt lat="44.11739" lon="3.24775">
        <ele>516</ele>
        <time>2015-12-06T08:45:32Z</time>
      </trkpt>
      <trkpt lat="44.1174" lon="3.24775">
        <ele>515.5</ele>
        <time>2015-12-06T08:45:33Z</time>
      </trkpt>
      <trkpt lat="44.11741" lon="3.24774">
        <ele>515.5</ele>
        <time>2015-12-06T08:45:34Z</time>
      </trkpt>
      <trkpt lat="44.11742" lon="3.24773">
        <ele>515</ele>
        <time>2015-12-06T08:45:35Z</time>
      </trkpt>
      <trkpt lat="44.11743" lon="3.24772">
        <ele>516</ele>
        <time>2015-12-06T08:45:36Z</time>
      </trkpt>
      <trkpt lat="44.11743" lon="3.2477">
        <ele>515</ele>
        <time>2015-12-06T08:45:37Z</time>
      </trkpt>
      <trkpt lat="44.11744" lon="3.24769">
        <ele>515</ele>
        <time>2015-12-06T08:45:38Z</time>
      </trkpt>
      <trkpt lat="44.11745" lon="3.24768">
        <ele>515</ele>
        <time>2015-12-06T08:45:39Z</time>
      </trkpt>
      <trkpt lat="44.11745" lon="3.24767">
        <ele>515</ele>
        <time>2015-12-06T08:45:40Z</time>
      </trkpt>
      <trkpt lat="44.11746" lon="3.24765">
        <ele>515.5</ele>
        <time>2015-12-06T08:45:41Z</time>
      </trkpt>
      <trkpt lat="44.11747" lon="3.24764">
        <ele>517</ele>
        <time>2015-12-06T08:45:42Z</time>
      </trkpt>
      <trkpt lat="44.11748" lon="3.24763">
        <ele>517</ele>
        <time>2015-12-06T08:45:43Z</time>
      </trkpt>
      <trkpt lat="44.11748" lon="3.24762">
        <ele>517</ele>
        <time>2015-12-06T08:45:44Z</time>
      </trkpt>
      <trkpt lat="44.11749" lon="3.24762">
        <ele>516.5</ele>
        <time>2015-12-06T08:45:45Z</time>
      </trkpt>
      <trkpt lat="44.1175" lon="3.24761">
        <ele>516.5</ele>
        <time>2015-12-06T08:45:46Z</time>
      </trkpt>
      <trkpt lat="44.11751" lon="3.2476">
        <ele>516.5</ele>
        <time>2015-12-06T08:45:47Z</time>
      </trkpt>
      <trkpt lat="44.11752" lon="3.24759">
        <ele>516.5</ele>
        <time>2015-12-06T08:45:48Z</time>
      </trkpt>
      <trkpt lat="44.11753" lon="3.24759">
        <ele>516</ele>
        <time>2015-12-06T08:45:49Z</time>
      </trkpt>
      <trkpt lat="44.11754" lon="3.24758">
        <ele>516</ele>
        <time>2015-12-06T08:45:50Z</time>
      </trkpt>
      <trkpt lat="44.11755" lon="3.24757">
        <ele>516</ele>
        <time>2015-12-06T08:45:51Z</time>
      </trkpt>
      <trkpt lat="44.11756" lon="3.24756">
        <ele>516</ele>
        <time>2015-12-06T08:45:52Z</time>
      </trkpt>
      <trkpt lat="44.11757" lon="3.24755">
        <ele>516.5</ele>
        <time>2015-12-06T08:45:53Z</time>
      </trkpt>
      <trkpt lat="44.11758" lon="3.24754">
        <ele>516.5</ele>
        <time>2015-12-06T08:45:54Z</time>
      </trkpt>
      <trkpt lat="44.11758" lon="3.24753">
        <ele>517</ele>
        <time>2015-12-06T08:45:55Z</time>
      </trkpt>
      <trkpt lat="44.11759" lon="3.24753">
        <ele>517.5</ele>
        <time>2015-12-06T08:45:56Z</time>
      </trkpt>
      <trkpt lat="44.11761" lon="3.24752">
        <ele>518.5</ele>
        <time>2015-12-06T08:45:57Z</time>
      </trkpt>
      <trkpt lat="44.11762" lon="3.24751">
        <ele>519</ele>
        <time>2015-12-06T08:45:58Z</time>
      </trkpt>
      <trkpt lat="44.11764" lon="3.24751">
        <ele>517.5</ele>
        <time>2015-12-06T08:45:59Z</time>
      </trkpt>
      <trkpt lat="44.11765" lon="3.2475">
        <ele>519.5</ele>
        <time>2015-12-06T08:46:00Z</time>
      </trkpt>
      <trkpt lat="44.11767" lon="3.24749">
        <ele>520</ele>
        <time>2015-12-06T08:46:01Z</time>
      </trkpt>
      <trkpt lat="44.11768" lon="3.24747">
        <ele>521</ele>
        <time>2015-12-06T08:46:02Z</time>
      </trkpt>
      <trkpt lat="44.11769" lon="3.24747">
        <ele>521.5</ele>
        <time>2015-12-06T08:46:03Z</time>
      </trkpt>
      <trkpt lat="44.11771" lon="3.24746">
        <ele>521.5</ele>
        <time>2015-12-06T08:46:04Z</time>
      </trkpt>
      <trkpt lat="44.11772" lon="3.24745">
        <ele>521</ele>
        <time>2015-12-06T08:46:05Z</time>
      </trkpt>
      <trkpt lat="44.11773" lon="3.24744">
        <ele>521</ele>
        <time>2015-12-06T08:46:06Z</time>
      </trkpt>
      <trkpt lat="44.11775" lon="3.24743">
        <ele>521</ele>
        <time>2015-12-06T08:46:07Z</time>
      </trkpt>
      <trkpt lat="44.11776" lon="3.24742">
        <ele>521.5</ele>
        <time>2015-12-06T08:46:08Z</time>
      </trkpt>
      <trkpt lat="44.11778" lon="3.2474">
        <ele>522</ele>
        <time>2015-12-06T08:46:09Z</time>
      </trkpt>
      <trkpt lat="44.11779" lon="3.24739">
        <ele>522.5</ele>
        <time>2015-12-06T08:46:10Z</time>
      </trkpt>
      <trkpt lat="44.1178" lon="3.24737">
        <ele>522.5</ele>
        <time>2015-12-06T08:46:11Z</time>
      </trkpt>
      <trkpt lat="44.11781" lon="3.24736">
        <ele>523</ele>
        <time>2015-12-06T08:46:12Z</time>
      </trkpt>
      <trkpt lat="44.11783" lon="3.24735">
        <ele>524</ele>
        <time>2015-12-06T08:46:13Z</time>
      </trkpt>
      <trkpt lat="44.11784" lon="3.24734">
        <ele>524</ele>
        <time>2015-12-06T08:46:14Z</time>
      </trkpt>
      <trkpt lat="44.11785" lon="3.24733">
        <ele>523.5</ele>
        <time>2015-12-06T08:46:15Z</time>
      </trkpt>
      <trkpt lat="44.11788" lon="3.24733">
        <ele>524</ele>
        <time>2015-12-06T08:46:16Z</time>
      </trkpt>
      <trkpt lat="44.11789" lon="3.24732">
        <ele>524.5</ele>
        <time>2015-12-06T08:46:17Z</time>
      </trkpt>
      <trkpt lat="44.1179" lon="3.24731">
        <ele>525</ele>
        <time>2015-12-06T08:46:18Z</time>
      </trkpt>
      <trkpt lat="44.11792" lon="3.2473">
        <ele>525</ele>
        <time>2015-12-06T08:46:19Z</time>
      </trkpt>
      <trkpt lat="44.11793" lon="3.24729">
        <ele>525.5</ele>
        <time>2015-12-06T08:46:20Z</time>
      </trkpt>
      <trkpt lat="44.11795" lon="3.24728">
        <ele>525</ele>
        <time>2015-12-06T08:46:21Z</time>
      </trkpt>
      <trkpt lat="44.11795" lon="3.24727">
        <ele>526</ele>
        <time>2015-12-06T08:46:22Z</time>
      </trkpt>
      <trkpt lat="44.11797" lon="3.24726">
        <ele>526.5</ele>
        <time>2015-12-06T08:46:23Z</time>
      </trkpt>
      <trkpt lat="44.11798" lon="3.24726">
        <ele>526.5</ele>
        <time>2015-12-06T08:46:24Z</time>
      </trkpt>
      <trkpt lat="44.118" lon="3.24728">
        <ele>527</ele>
        <time>2015-12-06T08:46:25Z</time>
      </trkpt>
      <trkpt lat="44.11799" lon="3.24728">
        <ele>527</ele>
        <time>2015-12-06T08:46:26Z</time>
      </trkpt>
      <trkpt lat="44.11799" lon="3.24729">
        <ele>528.5</ele>
        <time>2015-12-06T08:46:27Z</time>
      </trkpt>
      <trkpt lat="44.11797" lon="3.2473">
        <ele>527.5</ele>
        <time>2015-12-06T08:46:28Z</time>
      </trkpt>
      <trkpt lat="44.11796" lon="3.24731">
        <ele>527.5</ele>
        <time>2015-12-06T08:46:29Z</time>
      </trkpt>
      <trkpt lat="44.11795" lon="3.24732">
        <ele>528</ele>
        <time>2015-12-06T08:46:30Z</time>
      </trkpt>
      <trkpt lat="44.11794" lon="3.24733">
        <ele>528</ele>
        <time>2015-12-06T08:46:31Z</time>
      </trkpt>
      <trkpt lat="44.11793" lon="3.24734">
        <ele>528</ele>
        <time>2015-12-06T08:46:32Z</time>
      </trkpt>
      <trkpt lat="44.11792" lon="3.24735">
        <ele>528</ele>
        <time>2015-12-06T08:46:33Z</time>
      </trkpt>
      <trkpt lat="44.11792" lon="3.24736">
        <ele>528.5</ele>
        <time>2015-12-06T08:46:33Z</time>
      </trkpt>
      <trkpt lat="44.11792" lon="3.24738">
        <ele>528</ele>
        <time>2015-12-06T08:46:35Z</time>
      </trkpt>
      <trkpt lat="44.11791" lon="3.2474">
        <ele>527</ele>
        <time>2015-12-06T08:46:36Z</time>
      </trkpt>
      <trkpt lat="44.1179" lon="3.24741">
        <ele>526</ele>
        <time>2015-12-06T08:46:36Z</time>
      </trkpt>
      <trkpt lat="44.1179" lon="3.24743">
        <ele>525.5</ele>
        <time>2015-12-06T08:46:38Z</time>
      </trkpt>
      <trkpt lat="44.1179" lon="3.24746">
        <ele>525</ele>
        <time>2015-12-06T08:46:38Z</time>
      </trkpt>
      <trkpt lat="44.11789" lon="3.24747">
        <ele>525.5</ele>
        <time>2015-12-06T08:46:39Z</time>
      </trkpt>
      <trkpt lat="44.11789" lon="3.24748">
        <ele>526</ele>
        <time>2015-12-06T08:46:40Z</time>
      </trkpt>
      <trkpt lat="44.11789" lon="3.24749">
        <ele>527</ele>
        <time>2015-12-06T08:46:41Z</time>
      </trkpt>
      <trkpt lat="44.11788" lon="3.24751">
        <ele>527.5</ele>
        <time>2015-12-06T08:46:42Z</time>
      </trkpt>
      <trkpt lat="44.11789" lon="3.24752">
        <ele>527.5</ele>
        <time>2015-12-06T08:46:43Z</time>
      </trkpt>
      <trkpt lat="44.11786" lon="3.24755">
        <ele>526.5</ele>
        <time>2015-12-06T08:46:45Z</time>
      </trkpt>
      <trkpt lat="44.11785" lon="3.24756">
        <ele>527</ele>
        <time>2015-12-06T08:46:46Z</time>
      </trkpt>
      <trkpt lat="44.11785" lon="3.24757">
        <ele>528</ele>
        <time>2015-12-06T08:46:47Z</time>
      </trkpt>
      <trkpt lat="44.11784" lon="3.24758">
        <ele>528</ele>
        <time>2015-12-06T08:46:48Z</time>
      </trkpt>
      <trkpt lat="44.11783" lon="3.24759">
        <ele>529</ele>
        <time>2015-12-06T08:46:49Z</time>
      </trkpt>
      <trkpt lat="44.11783" lon="3.24761">
        <ele>529</ele>
        <time>2015-12-06T08:46:50Z</time>
      </trkpt>
      <trkpt lat="44.11783" lon="3.24763">
        <ele>529</ele>
        <time>2015-12-06T08:46:51Z</time>
      </trkpt>
      <trkpt lat="44.11782" lon="3.24764">
        <ele>529</ele>
        <time>2015-12-06T08:46:53Z</time>
      </trkpt>
      <trkpt lat="44.11781" lon="3.24765">
        <ele>529</ele>
        <time>2015-12-06T08:46:53Z</time>
      </trkpt>
      <trkpt lat="44.1178" lon="3.24767">
        <ele>529.5</ele>
        <time>2015-12-06T08:46:54Z</time>
      </trkpt>
      <trkpt lat="44.1178" lon="3.24768">
        <ele>529.5</ele>
        <time>2015-12-06T08:46:56Z</time>
      </trkpt>
      <trkpt lat="44.11779" lon="3.24769">
        <ele>530</ele>
        <time>2015-12-06T08:46:56Z</time>
      </trkpt>
      <trkpt lat="44.11778" lon="3.2477">
        <ele>530.5</ele>
        <time>2015-12-06T08:46:57Z</time>
      </trkpt>
      <trkpt lat="44.11777" lon="3.24772">
        <ele>531</ele>
        <time>2015-12-06T08:46:58Z</time>
      </trkpt>
      <trkpt lat="44.11776" lon="3.24773">
        <ele>531</ele>
        <time>2015-12-06T08:46:59Z</time>
      </trkpt>
      <trkpt lat="44.11776" lon="3.24774">
        <ele>531</ele>
        <time>2015-12-06T08:47:00Z</time>
      </trkpt>
      <trkpt lat="44.11775" lon="3.24776">
        <ele>531</ele>
        <time>2015-12-06T08:47:01Z</time>
      </trkpt>
      <trkpt lat="44.11773" lon="3.24778">
        <ele>531</ele>
        <time>2015-12-06T08:47:02Z</time>
      </trkpt>
      <trkpt lat="44.11771" lon="3.2478">
        <ele>531</ele>
        <time>2015-12-06T08:47:04Z</time>
      </trkpt>
      <trkpt lat="44.1177" lon="3.24781">
        <ele>531</ele>
        <time>2015-12-06T08:47:05Z</time>
      </trkpt>
      <trkpt lat="44.11769" lon="3.24783">
        <ele>531</ele>
        <time>2015-12-06T08:47:07Z</time>
      </trkpt>
      <trkpt lat="44.11768" lon="3.24784">
        <ele>530.5</ele>
        <time>2015-12-06T08:47:07Z</time>
      </trkpt>
      <trkpt lat="44.11766" lon="3.24785">
        <ele>530.5</ele>
        <time>2015-12-06T08:47:08Z</time>
      </trkpt>
      <trkpt lat="44.11765" lon="3.24786">
        <ele>530.5</ele>
        <time>2015-12-06T08:47:09Z</time>
      </trkpt>
      <trkpt lat="44.11764" lon="3.24788">
        <ele>530.5</ele>
        <time>2015-12-06T08:47:10Z</time>
      </trkpt>
      <trkpt lat="44.11763" lon="3.24788">
        <ele>531</ele>
        <time>2015-12-06T08:47:11Z</time>
      </trkpt>
      <trkpt lat="44.11762" lon="3.24789">
        <ele>530.5</ele>
        <time>2015-12-06T08:47:12Z</time>
      </trkpt>
      <trkpt lat="44.11761" lon="3.2479">
        <ele>530.5</ele>
        <time>2015-12-06T08:47:13Z</time>
      </trkpt>
      <trkpt lat="44.11759" lon="3.24791">
        <ele>531</ele>
        <time>2015-12-06T08:47:14Z</time>
      </trkpt>
      <trkpt lat="44.11758" lon="3.24792">
        <ele>531.5</ele>
        <time>2015-12-06T08:47:15Z</time>
      </trkpt>
      <trkpt lat="44.11757" lon="3.24793">
        <ele>531.5</ele>
        <time>2015-12-06T08:47:17Z</time>
      </trkpt>
      <trkpt lat="44.11756" lon="3.24794">
        <ele>531.5</ele>
        <time>2015-12-06T08:47:18Z</time>
      </trkpt>
      <trkpt lat="44.11755" lon="3.24795">
        <ele>532</ele>
        <time>2015-12-06T08:47:18Z</time>
      </trkpt>
      <trkpt lat="44.11754" lon="3.24797">
        <ele>532</ele>
        <time>2015-12-06T08:47:19Z</time>
      </trkpt>
      <trkpt lat="44.11753" lon="3.24799">
        <ele>533</ele>
        <time>2015-12-06T08:47:20Z</time>
      </trkpt>
      <trkpt lat="44.11752" lon="3.24799">
        <ele>534.5</ele>
        <time>2015-12-06T08:47:21Z</time>
      </trkpt>
      <trkpt lat="44.11751" lon="3.248">
        <ele>535</ele>
        <time>2015-12-06T08:47:22Z</time>
      </trkpt>
      <trkpt lat="44.11749" lon="3.24801">
        <ele>536</ele>
        <time>2015-12-06T08:47:23Z</time>
      </trkpt>
      <trkpt lat="44.11748" lon="3.24801">
        <ele>536.5</ele>
        <time>2015-12-06T08:47:24Z</time>
      </trkpt>
      <trkpt lat="44.11747" lon="3.24802">
        <ele>537.5</ele>
        <time>2015-12-06T08:47:25Z</time>
      </trkpt>
      <trkpt lat="44.11746" lon="3.24803">
        <ele>538</ele>
        <time>2015-12-06T08:47:26Z</time>
      </trkpt>
      <trkpt lat="44.11745" lon="3.24804">
        <ele>537.5</ele>
        <time>2015-12-06T08:47:27Z</time>
      </trkpt>
      <trkpt lat="44.11744" lon="3.24805">
        <ele>537</ele>
        <time>2015-12-06T08:47:28Z</time>
      </trkpt>
      <trkpt lat="44.11743" lon="3.24806">
        <ele>537</ele>
        <time>2015-12-06T08:47:29Z</time>
      </trkpt>
      <trkpt lat="44.11742" lon="3.24808">
        <ele>537.5</ele>
        <time>2015-12-06T08:47:30Z</time>
      </trkpt>
      <trkpt lat="44.11741" lon="3.24809">
        <ele>537.5</ele>
        <time>2015-12-06T08:47:32Z</time>
      </trkpt>
      <trkpt lat="44.11736" lon="3.24807">
        <ele>541.5</ele>
        <time>2015-12-06T08:47:33Z</time>
      </trkpt>
      <trkpt lat="44.11734" lon="3.24807">
        <ele>541.5</ele>
        <time>2015-12-06T08:47:34Z</time>
      </trkpt>
      <trkpt lat="44.11734" lon="3.24808">
        <ele>542</ele>
        <time>2015-12-06T08:47:35Z</time>
      </trkpt>
      <trkpt lat="44.11734" lon="3.2481">
        <ele>543</ele>
        <time>2015-12-06T08:47:36Z</time>
      </trkpt>
      <trkpt lat="44.11733" lon="3.24811">
        <ele>543</ele>
        <time>2015-12-06T08:47:37Z</time>
      </trkpt>
      <trkpt lat="44.11731" lon="3.24811">
        <ele>543</ele>
        <time>2015-12-06T08:47:38Z</time>
      </trkpt>
      <trkpt lat="44.1173" lon="3.24811">
        <ele>543</ele>
        <time>2015-12-06T08:47:39Z</time>
      </trkpt>
      <trkpt lat="44.11729" lon="3.24811">
        <ele>543</ele>
        <time>2015-12-06T08:47:41Z</time>
      </trkpt>
      <trkpt lat="44.11728" lon="3.2481">
        <ele>543</ele>
        <time>2015-12-06T08:47:41Z</time>
      </trkpt>
      <trkpt lat="44.11727" lon="3.2481">
        <ele>542.5</ele>
        <time>2015-12-06T08:47:42Z</time>
      </trkpt>
      <trkpt lat="44.11726" lon="3.2481">
        <ele>542</ele>
        <time>2015-12-06T08:47:43Z</time>
      </trkpt>
      <trkpt lat="44.11724" lon="3.2481">
        <ele>542</ele>
        <time>2015-12-06T08:47:44Z</time>
      </trkpt>
      <trkpt lat="44.11723" lon="3.2481">
        <ele>541.5</ele>
        <time>2015-12-06T08:47:45Z</time>
      </trkpt>
      <trkpt lat="44.11722" lon="3.24811">
        <ele>541</ele>
        <time>2015-12-06T08:47:46Z</time>
      </trkpt>
      <trkpt lat="44.1172" lon="3.24812">
        <ele>540.5</ele>
        <time>2015-12-06T08:47:47Z</time>
      </trkpt>
      <trkpt lat="44.11719" lon="3.24812">
        <ele>540.5</ele>
        <time>2015-12-06T08:47:48Z</time>
      </trkpt>
      <trkpt lat="44.11718" lon="3.24813">
        <ele>540</ele>
        <time>2015-12-06T08:47:49Z</time>
      </trkpt>
      <trkpt lat="44.11717" lon="3.24814">
        <ele>540.5</ele>
        <time>2015-12-06T08:47:50Z</time>
      </trkpt>
      <trkpt lat="44.11715" lon="3.24816">
        <ele>539.5</ele>
        <time>2015-12-06T08:47:51Z</time>
      </trkpt>
      <trkpt lat="44.11714" lon="3.24817">
        <ele>540</ele>
        <time>2015-12-06T08:47:53Z</time>
      </trkpt>
      <trkpt lat="44.11712" lon="3.24818">
        <ele>541</ele>
        <time>2015-12-06T08:47:53Z</time>
      </trkpt>
      <trkpt lat="44.11711" lon="3.2482">
        <ele>539.5</ele>
        <time>2015-12-06T08:47:54Z</time>
      </trkpt>
      <trkpt lat="44.1171" lon="3.24821">
        <ele>539.5</ele>
        <time>2015-12-06T08:47:55Z</time>
      </trkpt>
      <trkpt lat="44.11709" lon="3.24822">
        <ele>540</ele>
        <time>2015-12-06T08:47:56Z</time>
      </trkpt>
      <trkpt lat="44.11707" lon="3.24823">
        <ele>539.5</ele>
        <time>2015-12-06T08:47:57Z</time>
      </trkpt>
      <trkpt lat="44.11705" lon="3.24824">
        <ele>538</ele>
        <time>2015-12-06T08:47:58Z</time>
      </trkpt>
      <trkpt lat="44.11704" lon="3.24826">
        <ele>538</ele>
        <time>2015-12-06T08:47:59Z</time>
      </trkpt>
      <trkpt lat="44.11704" lon="3.24828">
        <ele>538.5</ele>
        <time>2015-12-06T08:48:00Z</time>
      </trkpt>
      <trkpt lat="44.11702" lon="3.24829">
        <ele>538</ele>
        <time>2015-12-06T08:48:01Z</time>
      </trkpt>
      <trkpt lat="44.11701" lon="3.24831">
        <ele>538.5</ele>
        <time>2015-12-06T08:48:02Z</time>
      </trkpt>
      <trkpt lat="44.11699" lon="3.24833">
        <ele>538</ele>
        <time>2015-12-06T08:48:03Z</time>
      </trkpt>
      <trkpt lat="44.11698" lon="3.24834">
        <ele>538.5</ele>
        <time>2015-12-06T08:48:04Z</time>
      </trkpt>
      <trkpt lat="44.11696" lon="3.24836">
        <ele>538</ele>
        <time>2015-12-06T08:48:05Z</time>
      </trkpt>
      <trkpt lat="44.11694" lon="3.24837">
        <ele>538</ele>
        <time>2015-12-06T08:48:06Z</time>
      </trkpt>
      <trkpt lat="44.11692" lon="3.24839">
        <ele>538</ele>
        <time>2015-12-06T08:48:07Z</time>
      </trkpt>
      <trkpt lat="44.11691" lon="3.24841">
        <ele>538.5</ele>
        <time>2015-12-06T08:48:08Z</time>
      </trkpt>
      <trkpt lat="44.11689" lon="3.24842">
        <ele>538.5</ele>
        <time>2015-12-06T08:48:09Z</time>
      </trkpt>
      <trkpt lat="44.11688" lon="3.24843">
        <ele>538.5</ele>
        <time>2015-12-06T08:48:10Z</time>
      </trkpt>
      <trkpt lat="44.11686" lon="3.24844">
        <ele>538.5</ele>
        <time>2015-12-06T08:48:11Z</time>
      </trkpt>
      <trkpt lat="44.11684" lon="3.24845">
        <ele>538.5</ele>
        <time>2015-12-06T08:48:12Z</time>
      </trkpt>
      <trkpt lat="44.11683" lon="3.24847">
        <ele>538.5</ele>
        <time>2015-12-06T08:48:13Z</time>
      </trkpt>
      <trkpt lat="44.11682" lon="3.24849">
        <ele>539</ele>
        <time>2015-12-06T08:48:14Z</time>
      </trkpt>
      <trkpt lat="44.11682" lon="3.24851">
        <ele>539</ele>
        <time>2015-12-06T08:48:15Z</time>
      </trkpt>
      <trkpt lat="44.11682" lon="3.24853">
        <ele>539.5</ele>
        <time>2015-12-06T08:48:16Z</time>
      </trkpt>
      <trkpt lat="44.11683" lon="3.24854">
        <ele>539.5</ele>
        <time>2015-12-06T08:48:17Z</time>
      </trkpt>
      <trkpt lat="44.11684" lon="3.24854">
        <ele>540</ele>
        <time>2015-12-06T08:48:18Z</time>
      </trkpt>
      <trkpt lat="44.11685" lon="3.24854">
        <ele>540</ele>
        <time>2015-12-06T08:48:19Z</time>
      </trkpt>
      <trkpt lat="44.11685" lon="3.24853">
        <ele>540.5</ele>
        <time>2015-12-06T08:48:20Z</time>
      </trkpt>
      <trkpt lat="44.11686" lon="3.24851">
        <ele>541</ele>
        <time>2015-12-06T08:48:21Z</time>
      </trkpt>
      <trkpt lat="44.11687" lon="3.2485">
        <ele>541.5</ele>
        <time>2015-12-06T08:48:22Z</time>
      </trkpt>
      <trkpt lat="44.11687" lon="3.24849">
        <ele>541.5</ele>
        <time>2015-12-06T08:48:23Z</time>
      </trkpt>
      <trkpt lat="44.11688" lon="3.24849">
        <ele>541.5</ele>
        <time>2015-12-06T08:48:24Z</time>
      </trkpt>
      <trkpt lat="44.11689" lon="3.24848">
        <ele>542</ele>
        <time>2015-12-06T08:48:25Z</time>
      </trkpt>
      <trkpt lat="44.1169" lon="3.24847">
        <ele>543</ele>
        <time>2015-12-06T08:48:26Z</time>
      </trkpt>
      <trkpt lat="44.11691" lon="3.24846">
        <ele>543.5</ele>
        <time>2015-12-06T08:48:27Z</time>
      </trkpt>
      <trkpt lat="44.11692" lon="3.24846">
        <ele>543</ele>
        <time>2015-12-06T08:48:28Z</time>
      </trkpt>
      <trkpt lat="44.11694" lon="3.24845">
        <ele>543</ele>
        <time>2015-12-06T08:48:29Z</time>
      </trkpt>
      <trkpt lat="44.11695" lon="3.24844">
        <ele>543</ele>
        <time>2015-12-06T08:48:30Z</time>
      </trkpt>
      <trkpt lat="44.11697" lon="3.24844">
        <ele>542.5</ele>
        <time>2015-12-06T08:48:31Z</time>
      </trkpt>
      <trkpt lat="44.11698" lon="3.24843">
        <ele>542.5</ele>
        <time>2015-12-06T08:48:32Z</time>
      </trkpt>
      <trkpt lat="44.11699" lon="3.24842">
        <ele>542.5</ele>
        <time>2015-12-06T08:48:33Z</time>
      </trkpt>
      <trkpt lat="44.117" lon="3.24841">
        <ele>542.5</ele>
        <time>2015-12-06T08:48:34Z</time>
      </trkpt>
      <trkpt lat="44.11702" lon="3.24841">
        <ele>542.5</ele>
        <time>2015-12-06T08:48:35Z</time>
      </trkpt>
      <trkpt lat="44.11702" lon="3.24841">
        <ele>542.5</ele>
        <time>2015-12-06T08:48:36Z</time>
      </trkpt>
      <trkpt lat="44.11703" lon="3.24841">
        <ele>542.5</ele>
        <time>2015-12-06T08:48:37Z</time>
      </trkpt>
      <trkpt lat="44.11705" lon="3.2484">
        <ele>543.5</ele>
        <time>2015-12-06T08:48:38Z</time>
      </trkpt>
      <trkpt lat="44.11705" lon="3.2484">
        <ele>544</ele>
        <time>2015-12-06T08:48:39Z</time>
      </trkpt>
      <trkpt lat="44.11707" lon="3.2484">
        <ele>544.5</ele>
        <time>2015-12-06T08:48:40Z</time>
      </trkpt>
      <trkpt lat="44.11708" lon="3.24839">
        <ele>545</ele>
        <time>2015-12-06T08:48:41Z</time>
      </trkpt>
      <trkpt lat="44.11709" lon="3.24839">
        <ele>546</ele>
        <time>2015-12-06T08:48:42Z</time>
      </trkpt>
      <trkpt lat="44.11711" lon="3.24839">
        <ele>546</ele>
        <time>2015-12-06T08:48:43Z</time>
      </trkpt>
      <trkpt lat="44.11712" lon="3.24839">
        <ele>546</ele>
        <time>2015-12-06T08:48:44Z</time>
      </trkpt>
      <trkpt lat="44.11714" lon="3.24839">
        <ele>546.5</ele>
        <time>2015-12-06T08:48:45Z</time>
      </trkpt>
      <trkpt lat="44.11715" lon="3.24839">
        <ele>546.5</ele>
        <time>2015-12-06T08:48:46Z</time>
      </trkpt>
      <trkpt lat="44.11717" lon="3.24839">
        <ele>546</ele>
        <time>2015-12-06T08:48:47Z</time>
      </trkpt>
      <trkpt lat="44.11718" lon="3.24838">
        <ele>546.5</ele>
        <time>2015-12-06T08:48:48Z</time>
      </trkpt>
      <trkpt lat="44.1172" lon="3.24838">
        <ele>547</ele>
        <time>2015-12-06T08:48:49Z</time>
      </trkpt>
      <trkpt lat="44.11721" lon="3.24838">
        <ele>547</ele>
        <time>2015-12-06T08:48:50Z</time>
      </trkpt>
      <trkpt lat="44.11722" lon="3.24837">
        <ele>547.5</ele>
        <time>2015-12-06T08:48:51Z</time>
      </trkpt>
      <trkpt lat="44.11722" lon="3.24836">
        <ele>548.5</ele>
        <time>2015-12-06T08:48:52Z</time>
      </trkpt>
      <trkpt lat="44.11723" lon="3.24835">
        <ele>549</ele>
        <time>2015-12-06T08:48:53Z</time>
      </trkpt>
      <trkpt lat="44.11724" lon="3.24835">
        <ele>549</ele>
        <time>2015-12-06T08:48:54Z</time>
      </trkpt>
      <trkpt lat="44.11726" lon="3.24835">
        <ele>549</ele>
        <time>2015-12-06T08:48:55Z</time>
      </trkpt>
      <trkpt lat="44.11727" lon="3.24834">
        <ele>548.5</ele>
        <time>2015-12-06T08:48:56Z</time>
      </trkpt>
      <trkpt lat="44.11728" lon="3.24834">
        <ele>548.5</ele>
        <time>2015-12-06T08:48:57Z</time>
      </trkpt>
      <trkpt lat="44.1173" lon="3.24834">
        <ele>548.5</ele>
        <time>2015-12-06T08:48:58Z</time>
      </trkpt>
      <trkpt lat="44.11731" lon="3.24833">
        <ele>549</ele>
        <time>2015-12-06T08:48:59Z</time>
      </trkpt>
      <trkpt lat="44.11732" lon="3.24833">
        <ele>549</ele>
        <time>2015-12-06T08:49:00Z</time>
      </trkpt>
      <trkpt lat="44.11734" lon="3.24832">
        <ele>549</ele>
        <time>2015-12-06T08:49:01Z</time>
      </trkpt>
      <trkpt lat="44.11735" lon="3.24832">
        <ele>549</ele>
        <time>2015-12-06T08:49:02Z</time>
      </trkpt>
      <trkpt lat="44.11736" lon="3.24832">
        <ele>549</ele>
        <time>2015-12-06T08:49:03Z</time>
      </trkpt>
      <trkpt lat="44.11737" lon="3.24831">
        <ele>548.5</ele>
        <time>2015-12-06T08:49:04Z</time>
      </trkpt>
      <trkpt lat="44.11738" lon="3.24831">
        <ele>549</ele>
        <time>2015-12-06T08:49:05Z</time>
      </trkpt>
      <trkpt lat="44.11739" lon="3.2483">
        <ele>549</ele>
        <time>2015-12-06T08:49:06Z</time>
      </trkpt>
      <trkpt lat="44.1174" lon="3.24829">
        <ele>549</ele>
        <time>2015-12-06T08:49:07Z</time>
      </trkpt>
      <trkpt lat="44.11741" lon="3.24827">
        <ele>549.5</ele>
        <time>2015-12-06T08:49:08Z</time>
      </trkpt>
      <trkpt lat="44.11742" lon="3.24826">
        <ele>550.5</ele>
        <time>2015-12-06T08:49:09Z</time>
      </trkpt>
      <trkpt lat="44.11744" lon="3.24826">
        <ele>551</ele>
        <time>2015-12-06T08:49:10Z</time>
      </trkpt>
      <trkpt lat="44.11745" lon="3.24825">
        <ele>551.5</ele>
        <time>2015-12-06T08:49:11Z</time>
      </trkpt>
      <trkpt lat="44.11746" lon="3.24824">
        <ele>552.5</ele>
        <time>2015-12-06T08:49:12Z</time>
      </trkpt>
      <trkpt lat="44.11748" lon="3.24823">
        <ele>552.5</ele>
        <time>2015-12-06T08:49:13Z</time>
      </trkpt>
      <trkpt lat="44.11749" lon="3.24822">
        <ele>553</ele>
        <time>2015-12-06T08:49:14Z</time>
      </trkpt>
      <trkpt lat="44.1175" lon="3.24822">
        <ele>553.5</ele>
        <time>2015-12-06T08:49:15Z</time>
      </trkpt>
      <trkpt lat="44.11751" lon="3.24821">
        <ele>554.5</ele>
        <time>2015-12-06T08:49:16Z</time>
      </trkpt>
      <trkpt lat="44.11753" lon="3.2482">
        <ele>554.5</ele>
        <time>2015-12-06T08:49:17Z</time>
      </trkpt>
      <trkpt lat="44.11754" lon="3.2482">
        <ele>555</ele>
        <time>2015-12-06T08:49:18Z</time>
      </trkpt>
      <trkpt lat="44.11755" lon="3.24818">
        <ele>555.5</ele>
        <time>2015-12-06T08:49:19Z</time>
      </trkpt>
      <trkpt lat="44.11757" lon="3.24818">
        <ele>556</ele>
        <time>2015-12-06T08:49:20Z</time>
      </trkpt>
      <trkpt lat="44.11758" lon="3.24817">
        <ele>556</ele>
        <time>2015-12-06T08:49:21Z</time>
      </trkpt>
      <trkpt lat="44.1176" lon="3.24817">
        <ele>556</ele>
        <time>2015-12-06T08:49:22Z</time>
      </trkpt>
      <trkpt lat="44.11761" lon="3.24816">
        <ele>556.5</ele>
        <time>2015-12-06T08:49:23Z</time>
      </trkpt>
      <trkpt lat="44.11762" lon="3.24816">
        <ele>556.5</ele>
        <time>2015-12-06T08:49:24Z</time>
      </trkpt>
      <trkpt lat="44.11764" lon="3.24816">
        <ele>556</ele>
        <time>2015-12-06T08:49:25Z</time>
      </trkpt>
      <trkpt lat="44.11765" lon="3.24816">
        <ele>556</ele>
        <time>2015-12-06T08:49:26Z</time>
      </trkpt>
      <trkpt lat="44.11767" lon="3.24816">
        <ele>555.5</ele>
        <time>2015-12-06T08:49:27Z</time>
      </trkpt>
      <trkpt lat="44.11768" lon="3.24815">
        <ele>554.5</ele>
        <time>2015-12-06T08:49:28Z</time>
      </trkpt>
      <trkpt lat="44.11769" lon="3.24815">
        <ele>553.5</ele>
        <time>2015-12-06T08:49:29Z</time>
      </trkpt>
      <trkpt lat="44.1177" lon="3.24815">
        <ele>553.5</ele>
        <time>2015-12-06T08:49:30Z</time>
      </trkpt>
      <trkpt lat="44.11771" lon="3.24815">
        <ele>553</ele>
        <time>2015-12-06T08:49:31Z</time>
      </trkpt>
      <trkpt lat="44.11773" lon="3.24815">
        <ele>553</ele>
        <time>2015-12-06T08:49:32Z</time>
      </trkpt>
      <trkpt lat="44.11774" lon="3.24814">
        <ele>552.5</ele>
        <time>2015-12-06T08:49:33Z</time>
      </trkpt>
      <trkpt lat="44.11775" lon="3.24813">
        <ele>552.5</ele>
        <time>2015-12-06T08:49:34Z</time>
      </trkpt>
      <trkpt lat="44.11776" lon="3.24812">
        <ele>553</ele>
        <time>2015-12-06T08:49:35Z</time>
      </trkpt>
      <trkpt lat="44.11777" lon="3.24812">
        <ele>553</ele>
        <time>2015-12-06T08:49:36Z</time>
      </trkpt>
      <trkpt lat="44.11778" lon="3.24811">
        <ele>553</ele>
        <time>2015-12-06T08:49:37Z</time>
      </trkpt>
      <trkpt lat="44.1178" lon="3.24811">
        <ele>553</ele>
        <time>2015-12-06T08:49:38Z</time>
      </trkpt>
      <trkpt lat="44.11781" lon="3.2481">
        <ele>552.5</ele>
        <time>2015-12-06T08:49:39Z</time>
      </trkpt>
      <trkpt lat="44.11782" lon="3.2481">
        <ele>552.5</ele>
        <time>2015-12-06T08:49:40Z</time>
      </trkpt>
      <trkpt lat="44.11784" lon="3.24809">
        <ele>552</ele>
        <time>2015-12-06T08:49:41Z</time>
      </trkpt>
      <trkpt lat="44.11786" lon="3.24809">
        <ele>552</ele>
        <time>2015-12-06T08:49:42Z</time>
      </trkpt>
      <trkpt lat="44.11786" lon="3.24809">
        <ele>551.5</ele>
        <time>2015-12-06T08:49:43Z</time>
      </trkpt>
      <trkpt lat="44.11786" lon="3.24808">
        <ele>551.5</ele>
        <time>2015-12-06T08:49:44Z</time>
      </trkpt>
      <trkpt lat="44.11787" lon="3.24807">
        <ele>551.5</ele>
        <time>2015-12-06T08:49:45Z</time>
      </trkpt>
      <trkpt lat="44.11788" lon="3.24807">
        <ele>551</ele>
        <time>2015-12-06T08:49:46Z</time>
      </trkpt>
      <trkpt lat="44.11789" lon="3.24806">
        <ele>550.5</ele>
        <time>2015-12-06T08:49:47Z</time>
      </trkpt>
      <trkpt lat="44.1179" lon="3.24805">
        <ele>549.5</ele>
        <time>2015-12-06T08:49:48Z</time>
      </trkpt>
      <trkpt lat="44.11791" lon="3.24804">
        <ele>549.5</ele>
        <time>2015-12-06T08:49:49Z</time>
      </trkpt>
      <trkpt lat="44.11793" lon="3.24804">
        <ele>550</ele>
        <time>2015-12-06T08:49:50Z</time>
      </trkpt>
      <trkpt lat="44.11794" lon="3.24803">
        <ele>550</ele>
        <time>2015-12-06T08:49:51Z</time>
      </trkpt>
      <trkpt lat="44.11795" lon="3.24803">
        <ele>550</ele>
        <time>2015-12-06T08:49:52Z</time>
      </trkpt>
      <trkpt lat="44.11797" lon="3.24802">
        <ele>550</ele>
        <time>2015-12-06T08:49:53Z</time>
      </trkpt>
      <trkpt lat="44.11798" lon="3.24801">
        <ele>549.5</ele>
        <time>2015-12-06T08:49:54Z</time>
      </trkpt>
      <trkpt lat="44.11799" lon="3.24801">
        <ele>548</ele>
        <time>2015-12-06T08:49:55Z</time>
      </trkpt>
      <trkpt lat="44.118" lon="3.248">
        <ele>547</ele>
        <time>2015-12-06T08:49:56Z</time>
      </trkpt>
      <trkpt lat="44.11802" lon="3.248">
        <ele>547.5</ele>
        <time>2015-12-06T08:49:57Z</time>
      </trkpt>
      <trkpt lat="44.11804" lon="3.24799">
        <ele>548.5</ele>
        <time>2015-12-06T08:49:58Z</time>
      </trkpt>
      <trkpt lat="44.11804" lon="3.24799">
        <ele>548.5</ele>
        <time>2015-12-06T08:49:59Z</time>
      </trkpt>
      <trkpt lat="44.11806" lon="3.24799">
        <ele>546.5</ele>
        <time>2015-12-06T08:50:00Z</time>
      </trkpt>
      <trkpt lat="44.11808" lon="3.24798">
        <ele>548.5</ele>
        <time>2015-12-06T08:50:01Z</time>
      </trkpt>
      <trkpt lat="44.1181" lon="3.24797">
        <ele>550</ele>
        <time>2015-12-06T08:50:02Z</time>
      </trkpt>
      <trkpt lat="44.11811" lon="3.24797">
        <ele>549</ele>
        <time>2015-12-06T08:50:03Z</time>
      </trkpt>
      <trkpt lat="44.11812" lon="3.24796">
        <ele>551</ele>
        <time>2015-12-06T08:50:04Z</time>
      </trkpt>
      <trkpt lat="44.11813" lon="3.24795">
        <ele>551.5</ele>
        <time>2015-12-06T08:50:05Z</time>
      </trkpt>
      <trkpt lat="44.11814" lon="3.24795">
        <ele>551</ele>
        <time>2015-12-06T08:50:06Z</time>
      </trkpt>
      <trkpt lat="44.11815" lon="3.24794">
        <ele>551</ele>
        <time>2015-12-06T08:50:07Z</time>
      </trkpt>
      <trkpt lat="44.11816" lon="3.24794">
        <ele>550.5</ele>
        <time>2015-12-06T08:50:08Z</time>
      </trkpt>
      <trkpt lat="44.11817" lon="3.24793">
        <ele>551</ele>
        <time>2015-12-06T08:50:09Z</time>
      </trkpt>
      <trkpt lat="44.11818" lon="3.24792">
        <ele>551.5</ele>
        <time>2015-12-06T08:50:10Z</time>
      </trkpt>
      <trkpt lat="44.11819" lon="3.24791">
        <ele>551.5</ele>
        <time>2015-12-06T08:50:11Z</time>
      </trkpt>
      <trkpt lat="44.1182" lon="3.2479">
        <ele>551.5</ele>
        <time>2015-12-06T08:50:12Z</time>
      </trkpt>
      <trkpt lat="44.11821" lon="3.2479">
        <ele>552</ele>
        <time>2015-12-06T08:50:13Z</time>
      </trkpt>
      <trkpt lat="44.11822" lon="3.24789">
        <ele>552</ele>
        <time>2015-12-06T08:50:14Z</time>
      </trkpt>
      <trkpt lat="44.11823" lon="3.24788">
        <ele>552</ele>
        <time>2015-12-06T08:50:15Z</time>
      </trkpt>
      <trkpt lat="44.11825" lon="3.24788">
        <ele>552.5</ele>
        <time>2015-12-06T08:50:16Z</time>
      </trkpt>
      <trkpt lat="44.11827" lon="3.24788">
        <ele>553</ele>
        <time>2015-12-06T08:50:17Z</time>
      </trkpt>
      <trkpt lat="44.11829" lon="3.24788">
        <ele>552.5</ele>
        <time>2015-12-06T08:50:18Z</time>
      </trkpt>
      <trkpt lat="44.1183" lon="3.24787">
        <ele>552.5</ele>
        <time>2015-12-06T08:50:19Z</time>
      </trkpt>
      <trkpt lat="44.11831" lon="3.24786">
        <ele>553</ele>
        <time>2015-12-06T08:50:20Z</time>
      </trkpt>
      <trkpt lat="44.11832" lon="3.24787">
        <ele>552</ele>
        <time>2015-12-06T08:50:21Z</time>
      </trkpt>
      <trkpt lat="44.11834" lon="3.24787">
        <ele>553.5</ele>
        <time>2015-12-06T08:50:22Z</time>
      </trkpt>
      <trkpt lat="44.11835" lon="3.24786">
        <ele>555</ele>
        <time>2015-12-06T08:50:23Z</time>
      </trkpt>
      <trkpt lat="44.11837" lon="3.24786">
        <ele>555</ele>
        <time>2015-12-06T08:50:24Z</time>
      </trkpt>
      <trkpt lat="44.11839" lon="3.24786">
        <ele>555</ele>
        <time>2015-12-06T08:50:25Z</time>
      </trkpt>
      <trkpt lat="44.1184" lon="3.24786">
        <ele>554.5</ele>
        <time>2015-12-06T08:50:26Z</time>
      </trkpt>
      <trkpt lat="44.11841" lon="3.24785">
        <ele>555.5</ele>
        <time>2015-12-06T08:50:27Z</time>
      </trkpt>
      <trkpt lat="44.11843" lon="3.24785">
        <ele>555</ele>
        <time>2015-12-06T08:50:28Z</time>
      </trkpt>
      <trkpt lat="44.11844" lon="3.24785">
        <ele>554.5</ele>
        <time>2015-12-06T08:50:29Z</time>
      </trkpt>
      <trkpt lat="44.11845" lon="3.24785">
        <ele>554</ele>
        <time>2015-12-06T08:50:30Z</time>
      </trkpt>
      <trkpt lat="44.11846" lon="3.24784">
        <ele>554.5</ele>
        <time>2015-12-06T08:50:31Z</time>
      </trkpt>
      <trkpt lat="44.11848" lon="3.24783">
        <ele>556</ele>
        <time>2015-12-06T08:50:32Z</time>
      </trkpt>
      <trkpt lat="44.11848" lon="3.24782">
        <ele>556</ele>
        <time>2015-12-06T08:50:33Z</time>
      </trkpt>
      <trkpt lat="44.1185" lon="3.24781">
        <ele>557</ele>
        <time>2015-12-06T08:50:34Z</time>
      </trkpt>
      <trkpt lat="44.11851" lon="3.24781">
        <ele>558</ele>
        <time>2015-12-06T08:50:35Z</time>
      </trkpt>
      <trkpt lat="44.11852" lon="3.2478">
        <ele>558</ele>
        <time>2015-12-06T08:50:36Z</time>
      </trkpt>
      <trkpt lat="44.11853" lon="3.24779">
        <ele>558.5</ele>
        <time>2015-12-06T08:50:37Z</time>
      </trkpt>
      <trkpt lat="44.11855" lon="3.24779">
        <ele>559.5</ele>
        <time>2015-12-06T08:50:38Z</time>
      </trkpt>
      <trkpt lat="44.11858" lon="3.24779">
        <ele>560.5</ele>
        <time>2015-12-06T08:50:39Z</time>
      </trkpt>
      <trkpt lat="44.11859" lon="3.24779">
        <ele>560.5</ele>
        <time>2015-12-06T08:50:40Z</time>
      </trkpt>
      <trkpt lat="44.1186" lon="3.24779">
        <ele>560.5</ele>
        <time>2015-12-06T08:50:41Z</time>
      </trkpt>
      <trkpt lat="44.11861" lon="3.24779">
        <ele>560</ele>
        <time>2015-12-06T08:50:42Z</time>
      </trkpt>
      <trkpt lat="44.11863" lon="3.24779">
        <ele>559.5</ele>
        <time>2015-12-06T08:50:42Z</time>
      </trkpt>
      <trkpt lat="44.11864" lon="3.24779">
        <ele>559.5</ele>
        <time>2015-12-06T08:50:44Z</time>
      </trkpt>
      <trkpt lat="44.11865" lon="3.24779">
        <ele>559</ele>
        <time>2015-12-06T08:50:44Z</time>
      </trkpt>
      <trkpt lat="44.11866" lon="3.24779">
        <ele>559</ele>
        <time>2015-12-06T08:50:45Z</time>
      </trkpt>
      <trkpt lat="44.11867" lon="3.24779">
        <ele>559</ele>
        <time>2015-12-06T08:50:46Z</time>
      </trkpt>
      <trkpt lat="44.11869" lon="3.2478">
        <ele>558</ele>
        <time>2015-12-06T08:50:47Z</time>
      </trkpt>
      <trkpt lat="44.1187" lon="3.24779">
        <ele>558.5</ele>
        <time>2015-12-06T08:50:48Z</time>
      </trkpt>
      <trkpt lat="44.11871" lon="3.2478">
        <ele>558</ele>
        <time>2015-12-06T08:50:49Z</time>
      </trkpt>
      <trkpt lat="44.11873" lon="3.24779">
        <ele>560</ele>
        <time>2015-12-06T08:50:50Z</time>
      </trkpt>
      <trkpt lat="44.11875" lon="3.2478">
        <ele>560</ele>
        <time>2015-12-06T08:50:52Z</time>
      </trkpt>
      <trkpt lat="44.11876" lon="3.2478">
        <ele>560</ele>
        <time>2015-12-06T08:50:52Z</time>
      </trkpt>
      <trkpt lat="44.11877" lon="3.2478">
        <ele>560.5</ele>
        <time>2015-12-06T08:50:53Z</time>
      </trkpt>
      <trkpt lat="44.11879" lon="3.2478">
        <ele>561</ele>
        <time>2015-12-06T08:50:54Z</time>
      </trkpt>
      <trkpt lat="44.1188" lon="3.24781">
        <ele>560.5</ele>
        <time>2015-12-06T08:50:55Z</time>
      </trkpt>
      <trkpt lat="44.11881" lon="3.24782">
        <ele>560</ele>
        <time>2015-12-06T08:50:57Z</time>
      </trkpt>
      <trkpt lat="44.11883" lon="3.24782">
        <ele>559.5</ele>
        <time>2015-12-06T08:50:57Z</time>
      </trkpt>
      <trkpt lat="44.11884" lon="3.24783">
        <ele>560</ele>
        <time>2015-12-06T08:50:59Z</time>
      </trkpt>
      <trkpt lat="44.11885" lon="3.24783">
        <ele>560.5</ele>
        <time>2015-12-06T08:50:59Z</time>
      </trkpt>
      <trkpt lat="44.11886" lon="3.24784">
        <ele>561</ele>
        <time>2015-12-06T08:51:01Z</time>
      </trkpt>
      <trkpt lat="44.11889" lon="3.24786">
        <ele>560.5</ele>
        <time>2015-12-06T08:51:01Z</time>
      </trkpt>
      <trkpt lat="44.1189" lon="3.24786">
        <ele>560.5</ele>
        <time>2015-12-06T08:51:02Z</time>
      </trkpt>
      <trkpt lat="44.11892" lon="3.24787">
        <ele>561</ele>
        <time>2015-12-06T08:51:03Z</time>
      </trkpt>
      <trkpt lat="44.11894" lon="3.24787">
        <ele>563</ele>
        <time>2015-12-06T08:51:04Z</time>
      </trkpt>
      <trkpt lat="44.11895" lon="3.24788">
        <ele>563.5</ele>
        <time>2015-12-06T08:51:05Z</time>
      </trkpt>
      <trkpt lat="44.11896" lon="3.24789">
        <ele>563.5</ele>
        <time>2015-12-06T08:51:06Z</time>
      </trkpt>
      <trkpt lat="44.11897" lon="3.2479">
        <ele>563</ele>
        <time>2015-12-06T08:51:07Z</time>
      </trkpt>
      <trkpt lat="44.11898" lon="3.2479">
        <ele>563.5</ele>
        <time>2015-12-06T08:51:08Z</time>
      </trkpt>
      <trkpt lat="44.119" lon="3.24792">
        <ele>564</ele>
        <time>2015-12-06T08:51:09Z</time>
      </trkpt>
      <trkpt lat="44.11901" lon="3.24792">
        <ele>564.5</ele>
        <time>2015-12-06T08:51:10Z</time>
      </trkpt>
      <trkpt lat="44.11901" lon="3.24793">
        <ele>564</ele>
        <time>2015-12-06T08:51:11Z</time>
      </trkpt>
      <trkpt lat="44.11902" lon="3.24794">
        <ele>565.5</ele>
        <time>2015-12-06T08:51:12Z</time>
      </trkpt>
      <trkpt lat="44.11903" lon="3.24795">
        <ele>564.5</ele>
        <time>2015-12-06T08:51:13Z</time>
      </trkpt>
      <trkpt lat="44.11905" lon="3.24796">
        <ele>564</ele>
        <time>2015-12-06T08:51:14Z</time>
      </trkpt>
      <trkpt lat="44.11906" lon="3.24798">
        <ele>562.5</ele>
        <time>2015-12-06T08:51:15Z</time>
      </trkpt>
      <trkpt lat="44.11906" lon="3.24799">
        <ele>563</ele>
        <time>2015-12-06T08:51:16Z</time>
      </trkpt>
      <trkpt lat="44.11907" lon="3.24801">
        <ele>562</ele>
        <time>2015-12-06T08:51:17Z</time>
      </trkpt>
      <trkpt lat="44.11908" lon="3.24802">
        <ele>561</ele>
        <time>2015-12-06T08:51:18Z</time>
      </trkpt>
      <trkpt lat="44.11908" lon="3.24804">
        <ele>559</ele>
        <time>2015-12-06T08:51:19Z</time>
      </trkpt>
      <trkpt lat="44.11909" lon="3.24807">
        <ele>556.5</ele>
        <time>2015-12-06T08:51:21Z</time>
      </trkpt>
      <trkpt lat="44.1191" lon="3.24809">
        <ele>554.5</ele>
        <time>2015-12-06T08:51:21Z</time>
      </trkpt>
      <trkpt lat="44.1191" lon="3.24811">
        <ele>553.5</ele>
        <time>2015-12-06T08:51:22Z</time>
      </trkpt>
      <trkpt lat="44.1191" lon="3.24813">
        <ele>553</ele>
        <time>2015-12-06T08:51:24Z</time>
      </trkpt>
      <trkpt lat="44.11911" lon="3.24815">
        <ele>551.5</ele>
        <time>2015-12-06T08:51:24Z</time>
      </trkpt>
      <trkpt lat="44.11911" lon="3.24818">
        <ele>549.5</ele>
        <time>2015-12-06T08:51:25Z</time>
      </trkpt>
      <trkpt lat="44.11911" lon="3.2482">
        <ele>548.5</ele>
        <time>2015-12-06T08:51:26Z</time>
      </trkpt>
      <trkpt lat="44.11911" lon="3.24822">
        <ele>547.5</ele>
        <time>2015-12-06T08:51:28Z</time>
      </trkpt>
      <trkpt lat="44.11912" lon="3.24824">
        <ele>547</ele>
        <time>2015-12-06T08:51:28Z</time>
      </trkpt>
      <trkpt lat="44.11912" lon="3.24825">
        <ele>547</ele>
        <time>2015-12-06T08:51:29Z</time>
      </trkpt>
      <trkpt lat="44.11912" lon="3.24827">
        <ele>545.5</ele>
        <time>2015-12-06T08:51:31Z</time>
      </trkpt>
      <trkpt lat="44.11912" lon="3.24828">
        <ele>544.5</ele>
        <time>2015-12-06T08:51:31Z</time>
      </trkpt>
      <trkpt lat="44.11912" lon="3.2483">
        <ele>545</ele>
        <time>2015-12-06T08:51:32Z</time>
      </trkpt>
      <trkpt lat="44.11912" lon="3.24832">
        <ele>544.5</ele>
        <time>2015-12-06T08:51:33Z</time>
      </trkpt>
      <trkpt lat="44.11912" lon="3.24834">
        <ele>543.5</ele>
        <time>2015-12-06T08:51:34Z</time>
      </trkpt>
      <trkpt lat="44.11911" lon="3.24836">
        <ele>542</ele>
        <time>2015-12-06T08:51:35Z</time>
      </trkpt>
      <trkpt lat="44.11911" lon="3.24838">
        <ele>540.5</ele>
        <time>2015-12-06T08:51:36Z</time>
      </trkpt>
      <trkpt lat="44.1191" lon="3.24841">
        <ele>538.5</ele>
        <time>2015-12-06T08:51:37Z</time>
      </trkpt>
      <trkpt lat="44.1191" lon="3.24843">
        <ele>538</ele>
        <time>2015-12-06T08:51:38Z</time>
      </trkpt>
      <trkpt lat="44.11909" lon="3.24844">
        <ele>538</ele>
        <time>2015-12-06T08:51:39Z</time>
      </trkpt>
      <trkpt lat="44.1191" lon="3.24845">
        <ele>537.5</ele>
        <time>2015-12-06T08:51:40Z</time>
      </trkpt>
      <trkpt lat="44.1191" lon="3.24847">
        <ele>537.5</ele>
        <time>2015-12-06T08:51:41Z</time>
      </trkpt>
      <trkpt lat="44.1191" lon="3.24849">
        <ele>537.5</ele>
        <time>2015-12-06T08:51:42Z</time>
      </trkpt>
      <trkpt lat="44.11911" lon="3.2485">
        <ele>538</ele>
        <time>2015-12-06T08:51:43Z</time>
      </trkpt>
      <trkpt lat="44.11911" lon="3.24851">
        <ele>538</ele>
        <time>2015-12-06T08:51:44Z</time>
      </trkpt>
      <trkpt lat="44.11912" lon="3.24853">
        <ele>538</ele>
        <time>2015-12-06T08:51:45Z</time>
      </trkpt>
      <trkpt lat="44.11912" lon="3.24855">
        <ele>537.5</ele>
        <time>2015-12-06T08:51:46Z</time>
      </trkpt>
      <trkpt lat="44.11913" lon="3.24856">
        <ele>537.5</ele>
        <time>2015-12-06T08:51:48Z</time>
      </trkpt>
      <trkpt lat="44.11914" lon="3.24857">
        <ele>537.5</ele>
        <time>2015-12-06T08:51:48Z</time>
      </trkpt>
      <trkpt lat="44.11916" lon="3.24859">
        <ele>538</ele>
        <time>2015-12-06T08:51:49Z</time>
      </trkpt>
      <trkpt lat="44.11917" lon="3.2486">
        <ele>539</ele>
        <time>2015-12-06T08:51:50Z</time>
      </trkpt>
      <trkpt lat="44.1192" lon="3.2486">
        <ele>541.5</ele>
        <time>2015-12-06T08:51:51Z</time>
      </trkpt>
      <trkpt lat="44.11923" lon="3.24862">
        <ele>541</ele>
        <time>2015-12-06T08:51:52Z</time>
      </trkpt>
      <trkpt lat="44.11926" lon="3.2486">
        <ele>543</ele>
        <time>2015-12-06T08:51:54Z</time>
      </trkpt>
      <trkpt lat="44.11933" lon="3.24857">
        <ele>549.5</ele>
        <time>2015-12-06T08:51:56Z</time>
      </trkpt>
      <trkpt lat="44.11934" lon="3.24855">
        <ele>552</ele>
        <time>2015-12-06T08:51:57Z</time>
      </trkpt>
      <trkpt lat="44.11936" lon="3.24853">
        <ele>554</ele>
        <time>2015-12-06T08:51:58Z</time>
      </trkpt>
      <trkpt lat="44.11938" lon="3.2485">
        <ele>554.5</ele>
        <time>2015-12-06T08:51:59Z</time>
      </trkpt>
      <trkpt lat="44.11939" lon="3.24848">
        <ele>556.5</ele>
        <time>2015-12-06T08:52:00Z</time>
      </trkpt>
      <trkpt lat="44.11946" lon="3.24845">
        <ele>563.5</ele>
        <time>2015-12-06T08:52:02Z</time>
      </trkpt>
      <trkpt lat="44.1195" lon="3.24843">
        <ele>566</ele>
        <time>2015-12-06T08:52:03Z</time>
      </trkpt>
      <trkpt lat="44.11952" lon="3.24842">
        <ele>568</ele>
        <time>2015-12-06T08:52:04Z</time>
      </trkpt>
      <trkpt lat="44.11955" lon="3.24841">
        <ele>569.5</ele>
        <time>2015-12-06T08:52:05Z</time>
      </trkpt>
      <trkpt lat="44.11957" lon="3.2484">
        <ele>571.5</ele>
        <time>2015-12-06T08:52:06Z</time>
      </trkpt>
      <trkpt lat="44.11959" lon="3.2484">
        <ele>572.5</ele>
        <time>2015-12-06T08:52:07Z</time>
      </trkpt>
      <trkpt lat="44.11961" lon="3.24839">
        <ele>574</ele>
        <time>2015-12-06T08:52:08Z</time>
      </trkpt>
      <trkpt lat="44.11964" lon="3.24838">
        <ele>575.5</ele>
        <time>2015-12-06T08:52:09Z</time>
      </trkpt>
      <trkpt lat="44.11967" lon="3.24838">
        <ele>578</ele>
        <time>2015-12-06T08:52:10Z</time>
      </trkpt>
      <trkpt lat="44.1197" lon="3.24839">
        <ele>581.5</ele>
        <time>2015-12-06T08:52:11Z</time>
      </trkpt>
      <trkpt lat="44.11973" lon="3.2484">
        <ele>584</ele>
        <time>2015-12-06T08:52:12Z</time>
      </trkpt>
      <trkpt lat="44.11978" lon="3.24841">
        <ele>587</ele>
        <time>2015-12-06T08:52:14Z</time>
      </trkpt>
      <trkpt lat="44.1198" lon="3.24841">
        <ele>587</ele>
        <time>2015-12-06T08:52:15Z</time>
      </trkpt>
      <trkpt lat="44.11982" lon="3.24841">
        <ele>588</ele>
        <time>2015-12-06T08:52:16Z</time>
      </trkpt>
      <trkpt lat="44.11983" lon="3.24841">
        <ele>589</ele>
        <time>2015-12-06T08:52:17Z</time>
      </trkpt>
      <trkpt lat="44.11984" lon="3.24841">
        <ele>590</ele>
        <time>2015-12-06T08:52:18Z</time>
      </trkpt>
      <trkpt lat="44.11985" lon="3.24841">
        <ele>590.5</ele>
        <time>2015-12-06T08:52:19Z</time>
      </trkpt>
      <trkpt lat="44.11987" lon="3.24842">
        <ele>592.5</ele>
        <time>2015-12-06T08:52:35Z</time>
      </trkpt>
      <trkpt lat="44.11993" lon="3.24848">
        <ele>583.5</ele>
        <time>2015-12-06T08:52:45Z</time>
      </trkpt>
      <trkpt lat="44.11995" lon="3.24847">
        <ele>583.5</ele>
        <time>2015-12-06T08:52:47Z</time>
      </trkpt>
      <trkpt lat="44.11997" lon="3.24847">
        <ele>584</ele>
        <time>2015-12-06T08:52:48Z</time>
      </trkpt>
      <trkpt lat="44.11999" lon="3.24847">
        <ele>584.5</ele>
        <time>2015-12-06T08:52:49Z</time>
      </trkpt>
      <trkpt lat="44.12001" lon="3.24847">
        <ele>585</ele>
        <time>2015-12-06T08:52:50Z</time>
      </trkpt>
      <trkpt lat="44.12004" lon="3.24847">
        <ele>584.5</ele>
        <time>2015-12-06T08:52:51Z</time>
      </trkpt>
      <trkpt lat="44.12007" lon="3.24847">
        <ele>584</ele>
        <time>2015-12-06T08:52:52Z</time>
      </trkpt>
      <trkpt lat="44.1201" lon="3.24847">
        <ele>584</ele>
        <time>2015-12-06T08:52:53Z</time>
      </trkpt>
      <trkpt lat="44.12013" lon="3.24847">
        <ele>584</ele>
        <time>2015-12-06T08:52:54Z</time>
      </trkpt>
      <trkpt lat="44.12015" lon="3.24847">
        <ele>584.5</ele>
        <time>2015-12-06T08:52:55Z</time>
      </trkpt>
      <trkpt lat="44.12018" lon="3.24846">
        <ele>585.5</ele>
        <time>2015-12-06T08:52:56Z</time>
      </trkpt>
      <trkpt lat="44.1202" lon="3.24847">
        <ele>585.5</ele>
        <time>2015-12-06T08:52:57Z</time>
      </trkpt>
      <trkpt lat="44.12022" lon="3.24847">
        <ele>585.5</ele>
        <time>2015-12-06T08:52:58Z</time>
      </trkpt>
      <trkpt lat="44.12023" lon="3.24847">
        <ele>585.5</ele>
        <time>2015-12-06T08:52:59Z</time>
      </trkpt>
      <trkpt lat="44.12023" lon="3.24846">
        <ele>586</ele>
        <time>2015-12-06T08:53:00Z</time>
      </trkpt>
      <trkpt lat="44.12023" lon="3.24846">
        <ele>585.5</ele>
        <time>2015-12-06T08:53:02Z</time>
      </trkpt>
      <trkpt lat="44.12026" lon="3.24848">
        <ele>581</ele>
        <time>2015-12-06T08:53:21Z</time>
      </trkpt>
      <trkpt lat="44.12027" lon="3.24847">
        <ele>579.5</ele>
        <time>2015-12-06T08:53:30Z</time>
      </trkpt>
      <trkpt lat="44.12032" lon="3.24858">
        <ele>576.5</ele>
        <time>2015-12-06T08:55:08Z</time>
      </trkpt>
      <trkpt lat="44.12036" lon="3.2486">
        <ele>577.5</ele>
        <time>2015-12-06T08:55:10Z</time>
      </trkpt>
      <trkpt lat="44.12037" lon="3.24861">
        <ele>577</ele>
        <time>2015-12-06T08:55:11Z</time>
      </trkpt>
      <trkpt lat="44.12038" lon="3.24861">
        <ele>577.5</ele>
        <time>2015-12-06T08:55:12Z</time>
      </trkpt>
      <trkpt lat="44.1204" lon="3.2486">
        <ele>577.5</ele>
        <time>2015-12-06T08:55:13Z</time>
      </trkpt>
      <trkpt lat="44.12042" lon="3.24861">
        <ele>577.5</ele>
        <time>2015-12-06T08:55:14Z</time>
      </trkpt>
      <trkpt lat="44.12045" lon="3.24862">
        <ele>578</ele>
        <time>2015-12-06T08:55:15Z</time>
      </trkpt>
      <trkpt lat="44.12047" lon="3.24862">
        <ele>579</ele>
        <time>2015-12-06T08:55:16Z</time>
      </trkpt>
      <trkpt lat="44.12049" lon="3.24862">
        <ele>579</ele>
        <time>2015-12-06T08:55:17Z</time>
      </trkpt>
      <trkpt lat="44.12052" lon="3.24861">
        <ele>580</ele>
        <time>2015-12-06T08:55:18Z</time>
      </trkpt>
      <trkpt lat="44.12054" lon="3.24861">
        <ele>580</ele>
        <time>2015-12-06T08:55:19Z</time>
      </trkpt>
      <trkpt lat="44.12056" lon="3.2486">
        <ele>580.5</ele>
        <time>2015-12-06T08:55:20Z</time>
      </trkpt>
      <trkpt lat="44.12058" lon="3.24861">
        <ele>581</ele>
        <time>2015-12-06T08:55:21Z</time>
      </trkpt>
      <trkpt lat="44.1206" lon="3.2486">
        <ele>581</ele>
        <time>2015-12-06T08:55:22Z</time>
      </trkpt>
      <trkpt lat="44.12062" lon="3.24859">
        <ele>581.5</ele>
        <time>2015-12-06T08:55:23Z</time>
      </trkpt>
      <trkpt lat="44.12064" lon="3.24859">
        <ele>582</ele>
        <time>2015-12-06T08:55:24Z</time>
      </trkpt>
      <trkpt lat="44.12066" lon="3.2486">
        <ele>582</ele>
        <time>2015-12-06T08:55:25Z</time>
      </trkpt>
      <trkpt lat="44.12068" lon="3.2486">
        <ele>582.5</ele>
        <time>2015-12-06T08:55:26Z</time>
      </trkpt>
      <trkpt lat="44.1207" lon="3.24861">
        <ele>582.5</ele>
        <time>2015-12-06T08:55:27Z</time>
      </trkpt>
      <trkpt lat="44.12072" lon="3.24861">
        <ele>582</ele>
        <time>2015-12-06T08:55:28Z</time>
      </trkpt>
      <trkpt lat="44.12073" lon="3.24861">
        <ele>581.5</ele>
        <time>2015-12-06T08:55:29Z</time>
      </trkpt>
      <trkpt lat="44.12074" lon="3.24861">
        <ele>581.5</ele>
        <time>2015-12-06T08:55:30Z</time>
      </trkpt>
      <trkpt lat="44.12076" lon="3.24862">
        <ele>581</ele>
        <time>2015-12-06T08:55:31Z</time>
      </trkpt>
      <trkpt lat="44.12078" lon="3.24862">
        <ele>580.5</ele>
        <time>2015-12-06T08:55:32Z</time>
      </trkpt>
      <trkpt lat="44.1208" lon="3.24863">
        <ele>580</ele>
        <time>2015-12-06T08:55:33Z</time>
      </trkpt>
      <trkpt lat="44.12082" lon="3.24864">
        <ele>579.5</ele>
        <time>2015-12-06T08:55:34Z</time>
      </trkpt>
      <trkpt lat="44.12083" lon="3.24864">
        <ele>579</ele>
        <time>2015-12-06T08:55:35Z</time>
      </trkpt>
      <trkpt lat="44.12085" lon="3.24864">
        <ele>579</ele>
        <time>2015-12-06T08:55:36Z</time>
      </trkpt>
      <trkpt lat="44.12086" lon="3.24863">
        <ele>579.5</ele>
        <time>2015-12-06T08:55:37Z</time>
      </trkpt>
      <trkpt lat="44.12088" lon="3.24862">
        <ele>579.5</ele>
        <time>2015-12-06T08:55:38Z</time>
      </trkpt>
      <trkpt lat="44.1209" lon="3.24861">
        <ele>580</ele>
        <time>2015-12-06T08:55:39Z</time>
      </trkpt>
      <trkpt lat="44.12091" lon="3.2486">
        <ele>580</ele>
        <time>2015-12-06T08:55:40Z</time>
      </trkpt>
      <trkpt lat="44.12093" lon="3.24858">
        <ele>580.5</ele>
        <time>2015-12-06T08:55:41Z</time>
      </trkpt>
      <trkpt lat="44.12094" lon="3.24857">
        <ele>581</ele>
        <time>2015-12-06T08:55:42Z</time>
      </trkpt>
      <trkpt lat="44.12096" lon="3.24856">
        <ele>581</ele>
        <time>2015-12-06T08:55:43Z</time>
      </trkpt>
      <trkpt lat="44.12097" lon="3.24855">
        <ele>581</ele>
        <time>2015-12-06T08:55:44Z</time>
      </trkpt>
      <trkpt lat="44.12098" lon="3.24853">
        <ele>581.5</ele>
        <time>2015-12-06T08:55:45Z</time>
      </trkpt>
      <trkpt lat="44.12099" lon="3.24852">
        <ele>581.5</ele>
        <time>2015-12-06T08:55:46Z</time>
      </trkpt>
      <trkpt lat="44.121" lon="3.24851">
        <ele>581.5</ele>
        <time>2015-12-06T08:55:47Z</time>
      </trkpt>
      <trkpt lat="44.12101" lon="3.24849">
        <ele>582</ele>
        <time>2015-12-06T08:55:48Z</time>
      </trkpt>
      <trkpt lat="44.12102" lon="3.24847">
        <ele>582</ele>
        <time>2015-12-06T08:55:49Z</time>
      </trkpt>
      <trkpt lat="44.12102" lon="3.24846">
        <ele>582</ele>
        <time>2015-12-06T08:55:50Z</time>
      </trkpt>
      <trkpt lat="44.12103" lon="3.24844">
        <ele>582.5</ele>
        <time>2015-12-06T08:55:51Z</time>
      </trkpt>
      <trkpt lat="44.12103" lon="3.24843">
        <ele>582.5</ele>
        <time>2015-12-06T08:55:52Z</time>
      </trkpt>
      <trkpt lat="44.12103" lon="3.24841">
        <ele>583</ele>
        <time>2015-12-06T08:55:53Z</time>
      </trkpt>
      <trkpt lat="44.12103" lon="3.24839">
        <ele>583.5</ele>
        <time>2015-12-06T08:55:54Z</time>
      </trkpt>
      <trkpt lat="44.12102" lon="3.24837">
        <ele>584.5</ele>
        <time>2015-12-06T08:55:55Z</time>
      </trkpt>
      <trkpt lat="44.12102" lon="3.24835">
        <ele>585</ele>
        <time>2015-12-06T08:55:56Z</time>
      </trkpt>
      <trkpt lat="44.12102" lon="3.24833">
        <ele>586</ele>
        <time>2015-12-06T08:55:57Z</time>
      </trkpt>
      <trkpt lat="44.12102" lon="3.24832">
        <ele>587</ele>
        <time>2015-12-06T08:55:58Z</time>
      </trkpt>
      <trkpt lat="44.12102" lon="3.2483">
        <ele>587</ele>
        <time>2015-12-06T08:55:59Z</time>
      </trkpt>
      <trkpt lat="44.12101" lon="3.24828">
        <ele>588</ele>
        <time>2015-12-06T08:56:00Z</time>
      </trkpt>
      <trkpt lat="44.121" lon="3.24827">
        <ele>589.5</ele>
        <time>2015-12-06T08:56:01Z</time>
      </trkpt>
      <trkpt lat="44.121" lon="3.24825">
        <ele>590</ele>
        <time>2015-12-06T08:56:02Z</time>
      </trkpt>
      <trkpt lat="44.12099" lon="3.24823">
        <ele>591</ele>
        <time>2015-12-06T08:56:03Z</time>
      </trkpt>
      <trkpt lat="44.12099" lon="3.24821">
        <ele>591.5</ele>
        <time>2015-12-06T08:56:04Z</time>
      </trkpt>
      <trkpt lat="44.12099" lon="3.24819">
        <ele>592</ele>
        <time>2015-12-06T08:56:05Z</time>
      </trkpt>
      <trkpt lat="44.12099" lon="3.24818">
        <ele>593</ele>
        <time>2015-12-06T08:56:06Z</time>
      </trkpt>
      <trkpt lat="44.12098" lon="3.24816">
        <ele>594</ele>
        <time>2015-12-06T08:56:07Z</time>
      </trkpt>
      <trkpt lat="44.12098" lon="3.24814">
        <ele>595</ele>
        <time>2015-12-06T08:56:08Z</time>
      </trkpt>
      <trkpt lat="44.12098" lon="3.24812">
        <ele>595.5</ele>
        <time>2015-12-06T08:56:09Z</time>
      </trkpt>
      <trkpt lat="44.12098" lon="3.24811">
        <ele>595.5</ele>
        <time>2015-12-06T08:56:10Z</time>
      </trkpt>
      <trkpt lat="44.12098" lon="3.24809">
        <ele>595.5</ele>
        <time>2015-12-06T08:56:11Z</time>
      </trkpt>
      <trkpt lat="44.12098" lon="3.24807">
        <ele>596</ele>
        <time>2015-12-06T08:56:12Z</time>
      </trkpt>
      <trkpt lat="44.12099" lon="3.24806">
        <ele>595</ele>
        <time>2015-12-06T08:56:13Z</time>
      </trkpt>
      <trkpt lat="44.12099" lon="3.24805">
        <ele>594.5</ele>
        <time>2015-12-06T08:56:14Z</time>
      </trkpt>
      <trkpt lat="44.12099" lon="3.24803">
        <ele>595</ele>
        <time>2015-12-06T08:56:15Z</time>
      </trkpt>
      <trkpt lat="44.12099" lon="3.24801">
        <ele>595.5</ele>
        <time>2015-12-06T08:56:16Z</time>
      </trkpt>
      <trkpt lat="44.12099" lon="3.24799">
        <ele>595.5</ele>
        <time>2015-12-06T08:56:17Z</time>
      </trkpt>
      <trkpt lat="44.12099" lon="3.24797">
        <ele>595.5</ele>
        <time>2015-12-06T08:56:18Z</time>
      </trkpt>
      <trkpt lat="44.12099" lon="3.24794">
        <ele>596.5</ele>
        <time>2015-12-06T08:56:19Z</time>
      </trkpt>
      <trkpt lat="44.12099" lon="3.24792">
        <ele>596.5</ele>
        <time>2015-12-06T08:56:20Z</time>
      </trkpt>
      <trkpt lat="44.121" lon="3.2479">
        <ele>596.5</ele>
        <time>2015-12-06T08:56:21Z</time>
      </trkpt>
      <trkpt lat="44.121" lon="3.24788">
        <ele>596.5</ele>
        <time>2015-12-06T08:56:22Z</time>
      </trkpt>
      <trkpt lat="44.121" lon="3.24786">
        <ele>596</ele>
        <time>2015-12-06T08:56:23Z</time>
      </trkpt>
      <trkpt lat="44.121" lon="3.24784">
        <ele>596</ele>
        <time>2015-12-06T08:56:24Z</time>
      </trkpt>
      <trkpt lat="44.121" lon="3.24782">
        <ele>596</ele>
        <time>2015-12-06T08:56:25Z</time>
      </trkpt>
      <trkpt lat="44.121" lon="3.2478">
        <ele>596</ele>
        <time>2015-12-06T08:56:26Z</time>
      </trkpt>
      <trkpt lat="44.12101" lon="3.24778">
        <ele>596.5</ele>
        <time>2015-12-06T08:56:27Z</time>
      </trkpt>
      <trkpt lat="44.12101" lon="3.24776">
        <ele>596.5</ele>
        <time>2015-12-06T08:56:28Z</time>
      </trkpt>
      <trkpt lat="44.12101" lon="3.24774">
        <ele>597</ele>
        <time>2015-12-06T08:56:29Z</time>
      </trkpt>
      <trkpt lat="44.12101" lon="3.24773">
        <ele>597</ele>
        <time>2015-12-06T08:56:30Z</time>
      </trkpt>
      <trkpt lat="44.12101" lon="3.24771">
        <ele>596.5</ele>
        <time>2015-12-06T08:56:31Z</time>
      </trkpt>
      <trkpt lat="44.12102" lon="3.24769">
        <ele>596</ele>
        <time>2015-12-06T08:56:32Z</time>
      </trkpt>
      <trkpt lat="44.12102" lon="3.24767">
        <ele>596</ele>
        <time>2015-12-06T08:56:33Z</time>
      </trkpt>
      <trkpt lat="44.12101" lon="3.24765">
        <ele>596</ele>
        <time>2015-12-06T08:56:34Z</time>
      </trkpt>
      <trkpt lat="44.12101" lon="3.24762">
        <ele>596.5</ele>
        <time>2015-12-06T08:56:35Z</time>
      </trkpt>
      <trkpt lat="44.12101" lon="3.2476">
        <ele>597.5</ele>
        <time>2015-12-06T08:56:36Z</time>
      </trkpt>
      <trkpt lat="44.12101" lon="3.24757">
        <ele>597.5</ele>
        <time>2015-12-06T08:56:37Z</time>
      </trkpt>
      <trkpt lat="44.121" lon="3.24755">
        <ele>598</ele>
        <time>2015-12-06T08:56:38Z</time>
      </trkpt>
      <trkpt lat="44.121" lon="3.24752">
        <ele>598</ele>
        <time>2015-12-06T08:56:39Z</time>
      </trkpt>
      <trkpt lat="44.121" lon="3.24749">
        <ele>598</ele>
        <time>2015-12-06T08:56:40Z</time>
      </trkpt>
      <trkpt lat="44.121" lon="3.24747">
        <ele>599</ele>
        <time>2015-12-06T08:56:41Z</time>
      </trkpt>
      <trkpt lat="44.121" lon="3.24744">
        <ele>599.5</ele>
        <time>2015-12-06T08:56:42Z</time>
      </trkpt>
      <trkpt lat="44.12099" lon="3.24742">
        <ele>600.5</ele>
        <time>2015-12-06T08:56:43Z</time>
      </trkpt>
      <trkpt lat="44.12099" lon="3.24739">
        <ele>601</ele>
        <time>2015-12-06T08:56:44Z</time>
      </trkpt>
      <trkpt lat="44.12099" lon="3.24737">
        <ele>601</ele>
        <time>2015-12-06T08:56:45Z</time>
      </trkpt>
      <trkpt lat="44.12098" lon="3.24734">
        <ele>601</ele>
        <time>2015-12-06T08:56:46Z</time>
      </trkpt>
      <trkpt lat="44.12098" lon="3.24731">
        <ele>602</ele>
        <time>2015-12-06T08:56:47Z</time>
      </trkpt>
      <trkpt lat="44.12098" lon="3.24728">
        <ele>602.5</ele>
        <time>2015-12-06T08:56:48Z</time>
      </trkpt>
      <trkpt lat="44.12097" lon="3.24725">
        <ele>603</ele>
        <time>2015-12-06T08:56:49Z</time>
      </trkpt>
      <trkpt lat="44.12097" lon="3.24723">
        <ele>604</ele>
        <time>2015-12-06T08:56:50Z</time>
      </trkpt>
      <trkpt lat="44.12097" lon="3.2472">
        <ele>604</ele>
        <time>2015-12-06T08:56:51Z</time>
      </trkpt>
      <trkpt lat="44.12098" lon="3.24718">
        <ele>604.5</ele>
        <time>2015-12-06T08:56:52Z</time>
      </trkpt>
      <trkpt lat="44.12099" lon="3.24715">
        <ele>604.5</ele>
        <time>2015-12-06T08:56:53Z</time>
      </trkpt>
      <trkpt lat="44.12099" lon="3.24713">
        <ele>605.5</ele>
        <time>2015-12-06T08:56:54Z</time>
      </trkpt>
      <trkpt lat="44.121" lon="3.2471">
        <ele>605.5</ele>
        <time>2015-12-06T08:56:55Z</time>
      </trkpt>
      <trkpt lat="44.12101" lon="3.24707">
        <ele>606</ele>
        <time>2015-12-06T08:56:56Z</time>
      </trkpt>
      <trkpt lat="44.12102" lon="3.24704">
        <ele>606.5</ele>
        <time>2015-12-06T08:56:57Z</time>
      </trkpt>
      <trkpt lat="44.12102" lon="3.24702">
        <ele>606.5</ele>
        <time>2015-12-06T08:56:58Z</time>
      </trkpt>
      <trkpt lat="44.12103" lon="3.24699">
        <ele>606.5</ele>
        <time>2015-12-06T08:56:59Z</time>
      </trkpt>
      <trkpt lat="44.12104" lon="3.24696">
        <ele>607</ele>
        <time>2015-12-06T08:57:00Z</time>
      </trkpt>
      <trkpt lat="44.12106" lon="3.24694">
        <ele>607.5</ele>
        <time>2015-12-06T08:57:01Z</time>
      </trkpt>
      <trkpt lat="44.12107" lon="3.24691">
        <ele>608</ele>
        <time>2015-12-06T08:57:02Z</time>
      </trkpt>
      <trkpt lat="44.12108" lon="3.24689">
        <ele>608.5</ele>
        <time>2015-12-06T08:57:03Z</time>
      </trkpt>
      <trkpt lat="44.12109" lon="3.24685">
        <ele>605.5</ele>
        <time>2015-12-06T08:57:04Z</time>
      </trkpt>
      <trkpt lat="44.12111" lon="3.24683">
        <ele>604</ele>
        <time>2015-12-06T08:57:05Z</time>
      </trkpt>
      <trkpt lat="44.12112" lon="3.24681">
        <ele>603.5</ele>
        <time>2015-12-06T08:57:06Z</time>
      </trkpt>
      <trkpt lat="44.12113" lon="3.2468">
        <ele>604</ele>
        <time>2015-12-06T08:57:07Z</time>
      </trkpt>
      <trkpt lat="44.12114" lon="3.24679">
        <ele>605.5</ele>
        <time>2015-12-06T08:57:08Z</time>
      </trkpt>
      <trkpt lat="44.12115" lon="3.24677">
        <ele>605.5</ele>
        <time>2015-12-06T08:57:09Z</time>
      </trkpt>
      <trkpt lat="44.12116" lon="3.24676">
        <ele>606</ele>
        <time>2015-12-06T08:57:10Z</time>
      </trkpt>
      <trkpt lat="44.12118" lon="3.24674">
        <ele>607</ele>
        <time>2015-12-06T08:57:11Z</time>
      </trkpt>
      <trkpt lat="44.1212" lon="3.24673">
        <ele>606</ele>
        <time>2015-12-06T08:57:12Z</time>
      </trkpt>
      <trkpt lat="44.12122" lon="3.24672">
        <ele>606</ele>
        <time>2015-12-06T08:57:13Z</time>
      </trkpt>
      <trkpt lat="44.12124" lon="3.24671">
        <ele>605</ele>
        <time>2015-12-06T08:57:14Z</time>
      </trkpt>
      <trkpt lat="44.12125" lon="3.2467">
        <ele>605</ele>
        <time>2015-12-06T08:57:15Z</time>
      </trkpt>
      <trkpt lat="44.12127" lon="3.24668">
        <ele>605</ele>
        <time>2015-12-06T08:57:16Z</time>
      </trkpt>
      <trkpt lat="44.12128" lon="3.24667">
        <ele>604</ele>
        <time>2015-12-06T08:57:17Z</time>
      </trkpt>
      <trkpt lat="44.1213" lon="3.24665">
        <ele>604</ele>
        <time>2015-12-06T08:57:18Z</time>
      </trkpt>
      <trkpt lat="44.12132" lon="3.24664">
        <ele>603.5</ele>
        <time>2015-12-06T08:57:19Z</time>
      </trkpt>
      <trkpt lat="44.12133" lon="3.24662">
        <ele>603</ele>
        <time>2015-12-06T08:57:20Z</time>
      </trkpt>
      <trkpt lat="44.12135" lon="3.2466">
        <ele>602.5</ele>
        <time>2015-12-06T08:57:21Z</time>
      </trkpt>
      <trkpt lat="44.12137" lon="3.24659">
        <ele>602</ele>
        <time>2015-12-06T08:57:22Z</time>
      </trkpt>
      <trkpt lat="44.12139" lon="3.24657">
        <ele>601.5</ele>
        <time>2015-12-06T08:57:23Z</time>
      </trkpt>
      <trkpt lat="44.12141" lon="3.24655">
        <ele>601.5</ele>
        <time>2015-12-06T08:57:24Z</time>
      </trkpt>
      <trkpt lat="44.12143" lon="3.24654">
        <ele>601</ele>
        <time>2015-12-06T08:57:25Z</time>
      </trkpt>
      <trkpt lat="44.12145" lon="3.24652">
        <ele>600</ele>
        <time>2015-12-06T08:57:26Z</time>
      </trkpt>
      <trkpt lat="44.12146" lon="3.2465">
        <ele>601.5</ele>
        <time>2015-12-06T08:57:27Z</time>
      </trkpt>
      <trkpt lat="44.12147" lon="3.24648">
        <ele>603</ele>
        <time>2015-12-06T08:57:28Z</time>
      </trkpt>
      <trkpt lat="44.12148" lon="3.24646">
        <ele>602.5</ele>
        <time>2015-12-06T08:57:29Z</time>
      </trkpt>
      <trkpt lat="44.1215" lon="3.24645">
        <ele>602.5</ele>
        <time>2015-12-06T08:57:30Z</time>
      </trkpt>
      <trkpt lat="44.12151" lon="3.24644">
        <ele>602.5</ele>
        <time>2015-12-06T08:57:31Z</time>
      </trkpt>
      <trkpt lat="44.12153" lon="3.24644">
        <ele>602</ele>
        <time>2015-12-06T08:57:32Z</time>
      </trkpt>
      <trkpt lat="44.12155" lon="3.24643">
        <ele>602</ele>
        <time>2015-12-06T08:57:33Z</time>
      </trkpt>
      <trkpt lat="44.12156" lon="3.24643">
        <ele>601</ele>
        <time>2015-12-06T08:57:34Z</time>
      </trkpt>
      <trkpt lat="44.12157" lon="3.24642">
        <ele>601.5</ele>
        <time>2015-12-06T08:57:35Z</time>
      </trkpt>
      <trkpt lat="44.12159" lon="3.24641">
        <ele>601.5</ele>
        <time>2015-12-06T08:57:36Z</time>
      </trkpt>
      <trkpt lat="44.12159" lon="3.2464">
        <ele>602.5</ele>
        <time>2015-12-06T08:57:37Z</time>
      </trkpt>
      <trkpt lat="44.12161" lon="3.2464">
        <ele>601.5</ele>
        <time>2015-12-06T08:57:38Z</time>
      </trkpt>
      <trkpt lat="44.12162" lon="3.24639">
        <ele>602.5</ele>
        <time>2015-12-06T08:57:39Z</time>
      </trkpt>
      <trkpt lat="44.12164" lon="3.24639">
        <ele>602.5</ele>
        <time>2015-12-06T08:57:40Z</time>
      </trkpt>
      <trkpt lat="44.12165" lon="3.24638">
        <ele>603.5</ele>
        <time>2015-12-06T08:57:41Z</time>
      </trkpt>
      <trkpt lat="44.12166" lon="3.24637">
        <ele>604</ele>
        <time>2015-12-06T08:57:42Z</time>
      </trkpt>
      <trkpt lat="44.12167" lon="3.24636">
        <ele>604.5</ele>
        <time>2015-12-06T08:57:43Z</time>
      </trkpt>
      <trkpt lat="44.12169" lon="3.24635">
        <ele>604.5</ele>
        <time>2015-12-06T08:57:44Z</time>
      </trkpt>
      <trkpt lat="44.1217" lon="3.24633">
        <ele>605.5</ele>
        <time>2015-12-06T08:57:45Z</time>
      </trkpt>
      <trkpt lat="44.12171" lon="3.24632">
        <ele>605.5</ele>
        <time>2015-12-06T08:57:45Z</time>
      </trkpt>
      <trkpt lat="44.12173" lon="3.24631">
        <ele>606</ele>
        <time>2015-12-06T08:57:46Z</time>
      </trkpt>
      <trkpt lat="44.12175" lon="3.2463">
        <ele>606.5</ele>
        <time>2015-12-06T08:57:48Z</time>
      </trkpt>
      <trkpt lat="44.12176" lon="3.2463">
        <ele>606.5</ele>
        <time>2015-12-06T08:57:49Z</time>
      </trkpt>
      <trkpt lat="44.12178" lon="3.2463">
        <ele>606.5</ele>
        <time>2015-12-06T08:57:49Z</time>
      </trkpt>
      <trkpt lat="44.1218" lon="3.24629">
        <ele>606.5</ele>
        <time>2015-12-06T08:57:50Z</time>
      </trkpt>
      <trkpt lat="44.12181" lon="3.24629">
        <ele>607</ele>
        <time>2015-12-06T08:57:51Z</time>
      </trkpt>
      <trkpt lat="44.12183" lon="3.24629">
        <ele>606</ele>
        <time>2015-12-06T08:57:52Z</time>
      </trkpt>
      <trkpt lat="44.12185" lon="3.24629">
        <ele>606</ele>
        <time>2015-12-06T08:57:53Z</time>
      </trkpt>
      <trkpt lat="44.12186" lon="3.24629">
        <ele>606</ele>
        <time>2015-12-06T08:57:54Z</time>
      </trkpt>
      <trkpt lat="44.12192" lon="3.24627">
        <ele>604.5</ele>
        <time>2015-12-06T08:57:57Z</time>
      </trkpt>
      <trkpt lat="44.12194" lon="3.24626">
        <ele>605</ele>
        <time>2015-12-06T08:57:58Z</time>
      </trkpt>
      <trkpt lat="44.12195" lon="3.24626">
        <ele>605</ele>
        <time>2015-12-06T08:57:59Z</time>
      </trkpt>
      <trkpt lat="44.12197" lon="3.24625">
        <ele>605.5</ele>
        <time>2015-12-06T08:58:01Z</time>
      </trkpt>
      <trkpt lat="44.12198" lon="3.24625">
        <ele>606</ele>
        <time>2015-12-06T08:58:01Z</time>
      </trkpt>
      <trkpt lat="44.122" lon="3.24624">
        <ele>606.5</ele>
        <time>2015-12-06T08:58:02Z</time>
      </trkpt>
      <trkpt lat="44.12201" lon="3.24623">
        <ele>606.5</ele>
        <time>2015-12-06T08:58:04Z</time>
      </trkpt>
      <trkpt lat="44.12203" lon="3.24622">
        <ele>607</ele>
        <time>2015-12-06T08:58:04Z</time>
      </trkpt>
      <trkpt lat="44.12205" lon="3.24622">
        <ele>607</ele>
        <time>2015-12-06T08:58:05Z</time>
      </trkpt>
      <trkpt lat="44.12207" lon="3.24621">
        <ele>606.5</ele>
        <time>2015-12-06T08:58:06Z</time>
      </trkpt>
      <trkpt lat="44.12209" lon="3.2462">
        <ele>606</ele>
        <time>2015-12-06T08:58:07Z</time>
      </trkpt>
      <trkpt lat="44.1221" lon="3.2462">
        <ele>606</ele>
        <time>2015-12-06T08:58:08Z</time>
      </trkpt>
      <trkpt lat="44.12212" lon="3.24619">
        <ele>606</ele>
        <time>2015-12-06T08:58:09Z</time>
      </trkpt>
      <trkpt lat="44.12214" lon="3.24619">
        <ele>606.5</ele>
        <time>2015-12-06T08:58:10Z</time>
      </trkpt>
      <trkpt lat="44.12215" lon="3.24618">
        <ele>607</ele>
        <time>2015-12-06T08:58:11Z</time>
      </trkpt>
      <trkpt lat="44.12216" lon="3.24617">
        <ele>607.5</ele>
        <time>2015-12-06T08:58:12Z</time>
      </trkpt>
      <trkpt lat="44.12218" lon="3.24617">
        <ele>608</ele>
        <time>2015-12-06T08:58:14Z</time>
      </trkpt>
      <trkpt lat="44.12219" lon="3.24617">
        <ele>607.5</ele>
        <time>2015-12-06T08:58:14Z</time>
      </trkpt>
      <trkpt lat="44.12221" lon="3.24617">
        <ele>607</ele>
        <time>2015-12-06T08:58:15Z</time>
      </trkpt>
      <trkpt lat="44.12223" lon="3.24618">
        <ele>606</ele>
        <time>2015-12-06T08:58:16Z</time>
      </trkpt>
      <trkpt lat="44.12225" lon="3.24617">
        <ele>606.5</ele>
        <time>2015-12-06T08:58:17Z</time>
      </trkpt>
      <trkpt lat="44.12226" lon="3.24617">
        <ele>606.5</ele>
        <time>2015-12-06T08:58:18Z</time>
      </trkpt>
      <trkpt lat="44.12228" lon="3.24618">
        <ele>605.5</ele>
        <time>2015-12-06T08:58:19Z</time>
      </trkpt>
      <trkpt lat="44.1223" lon="3.24617">
        <ele>605.5</ele>
        <time>2015-12-06T08:58:20Z</time>
      </trkpt>
      <trkpt lat="44.12232" lon="3.24618">
        <ele>605</ele>
        <time>2015-12-06T08:58:21Z</time>
      </trkpt>
      <trkpt lat="44.12234" lon="3.24618">
        <ele>606</ele>
        <time>2015-12-06T08:58:22Z</time>
      </trkpt>
      <trkpt lat="44.12235" lon="3.24618">
        <ele>606.5</ele>
        <time>2015-12-06T08:58:23Z</time>
      </trkpt>
      <trkpt lat="44.12237" lon="3.24618">
        <ele>606</ele>
        <time>2015-12-06T08:58:24Z</time>
      </trkpt>
      <trkpt lat="44.12239" lon="3.24618">
        <ele>605</ele>
        <time>2015-12-06T08:58:25Z</time>
      </trkpt>
      <trkpt lat="44.1224" lon="3.24619">
        <ele>605</ele>
        <time>2015-12-06T08:58:26Z</time>
      </trkpt>
      <trkpt lat="44.12242" lon="3.24619">
        <ele>605</ele>
        <time>2015-12-06T08:58:27Z</time>
      </trkpt>
      <trkpt lat="44.12243" lon="3.24619">
        <ele>605</ele>
        <time>2015-12-06T08:58:28Z</time>
      </trkpt>
      <trkpt lat="44.12245" lon="3.2462">
        <ele>605.5</ele>
        <time>2015-12-06T08:58:30Z</time>
      </trkpt>
      <trkpt lat="44.12246" lon="3.24621">
        <ele>605.5</ele>
        <time>2015-12-06T08:58:30Z</time>
      </trkpt>
      <trkpt lat="44.12248" lon="3.24621">
        <ele>605.5</ele>
        <time>2015-12-06T08:58:31Z</time>
      </trkpt>
      <trkpt lat="44.1225" lon="3.24622">
        <ele>606</ele>
        <time>2015-12-06T08:58:32Z</time>
      </trkpt>
      <trkpt lat="44.12251" lon="3.24622">
        <ele>607</ele>
        <time>2015-12-06T08:58:33Z</time>
      </trkpt>
      <trkpt lat="44.12252" lon="3.24623">
        <ele>607</ele>
        <time>2015-12-06T08:58:34Z</time>
      </trkpt>
      <trkpt lat="44.12254" lon="3.24623">
        <ele>606.5</ele>
        <time>2015-12-06T08:58:35Z</time>
      </trkpt>
      <trkpt lat="44.12256" lon="3.24624">
        <ele>606.5</ele>
        <time>2015-12-06T08:58:36Z</time>
      </trkpt>
      <trkpt lat="44.12257" lon="3.24624">
        <ele>606.5</ele>
        <time>2015-12-06T08:58:37Z</time>
      </trkpt>
      <trkpt lat="44.12259" lon="3.24624">
        <ele>606</ele>
        <time>2015-12-06T08:58:38Z</time>
      </trkpt>
      <trkpt lat="44.1226" lon="3.24624">
        <ele>607</ele>
        <time>2015-12-06T08:58:40Z</time>
      </trkpt>
      <trkpt lat="44.12261" lon="3.24625">
        <ele>607</ele>
        <time>2015-12-06T08:58:40Z</time>
      </trkpt>
      <trkpt lat="44.12262" lon="3.24624">
        <ele>606.5</ele>
        <time>2015-12-06T08:58:41Z</time>
      </trkpt>
      <trkpt lat="44.12263" lon="3.24624">
        <ele>606.5</ele>
        <time>2015-12-06T08:58:42Z</time>
      </trkpt>
      <trkpt lat="44.12264" lon="3.24625">
        <ele>606.5</ele>
        <time>2015-12-06T08:58:44Z</time>
      </trkpt>
      <trkpt lat="44.12266" lon="3.24626">
        <ele>606.5</ele>
        <time>2015-12-06T08:58:44Z</time>
      </trkpt>
      <trkpt lat="44.12267" lon="3.24626">
        <ele>606.5</ele>
        <time>2015-12-06T08:58:45Z</time>
      </trkpt>
      <trkpt lat="44.12268" lon="3.24626">
        <ele>607.5</ele>
        <time>2015-12-06T08:58:46Z</time>
      </trkpt>
      <trkpt lat="44.12268" lon="3.24626">
        <ele>607.5</ele>
        <time>2015-12-06T08:58:47Z</time>
      </trkpt>
      <trkpt lat="44.1227" lon="3.24626">
        <ele>607.5</ele>
        <time>2015-12-06T08:58:48Z</time>
      </trkpt>
      <trkpt lat="44.12271" lon="3.24626">
        <ele>608</ele>
        <time>2015-12-06T08:58:49Z</time>
      </trkpt>
      <trkpt lat="44.12272" lon="3.24626">
        <ele>607.5</ele>
        <time>2015-12-06T08:58:50Z</time>
      </trkpt>
      <trkpt lat="44.12274" lon="3.24626">
        <ele>608</ele>
        <time>2015-12-06T08:58:51Z</time>
      </trkpt>
      <trkpt lat="44.12275" lon="3.24625">
        <ele>608</ele>
        <time>2015-12-06T08:58:52Z</time>
      </trkpt>
      <trkpt lat="44.12276" lon="3.24625">
        <ele>609</ele>
        <time>2015-12-06T08:58:53Z</time>
      </trkpt>
      <trkpt lat="44.12277" lon="3.24624">
        <ele>610</ele>
        <time>2015-12-06T08:58:54Z</time>
      </trkpt>
      <trkpt lat="44.12278" lon="3.24623">
        <ele>611.5</ele>
        <time>2015-12-06T08:58:55Z</time>
      </trkpt>
      <trkpt lat="44.12279" lon="3.24622">
        <ele>612.5</ele>
        <time>2015-12-06T08:58:56Z</time>
      </trkpt>
      <trkpt lat="44.12281" lon="3.24622">
        <ele>613</ele>
        <time>2015-12-06T08:58:57Z</time>
      </trkpt>
      <trkpt lat="44.12282" lon="3.2462">
        <ele>614.5</ele>
        <time>2015-12-06T08:58:58Z</time>
      </trkpt>
      <trkpt lat="44.12283" lon="3.2462">
        <ele>615</ele>
        <time>2015-12-06T08:58:59Z</time>
      </trkpt>
      <trkpt lat="44.12284" lon="3.24619">
        <ele>616</ele>
        <time>2015-12-06T08:59:00Z</time>
      </trkpt>
      <trkpt lat="44.12285" lon="3.24618">
        <ele>617</ele>
        <time>2015-12-06T08:59:01Z</time>
      </trkpt>
      <trkpt lat="44.12287" lon="3.24617">
        <ele>618</ele>
        <time>2015-12-06T08:59:02Z</time>
      </trkpt>
      <trkpt lat="44.12289" lon="3.24618">
        <ele>618.5</ele>
        <time>2015-12-06T08:59:03Z</time>
      </trkpt>
      <trkpt lat="44.1229" lon="3.24618">
        <ele>619</ele>
        <time>2015-12-06T08:59:04Z</time>
      </trkpt>
      <trkpt lat="44.12292" lon="3.24618">
        <ele>620</ele>
        <time>2015-12-06T08:59:05Z</time>
      </trkpt>
      <trkpt lat="44.12294" lon="3.24619">
        <ele>620</ele>
        <time>2015-12-06T08:59:06Z</time>
      </trkpt>
      <trkpt lat="44.12295" lon="3.24619">
        <ele>621</ele>
        <time>2015-12-06T08:59:07Z</time>
      </trkpt>
      <trkpt lat="44.12296" lon="3.24619">
        <ele>621.5</ele>
        <time>2015-12-06T08:59:08Z</time>
      </trkpt>
      <trkpt lat="44.12297" lon="3.24618">
        <ele>622</ele>
        <time>2015-12-06T08:59:09Z</time>
      </trkpt>
      <trkpt lat="44.12299" lon="3.24619">
        <ele>620.5</ele>
        <time>2015-12-06T08:59:11Z</time>
      </trkpt>
      <trkpt lat="44.12299" lon="3.24619">
        <ele>620</ele>
        <time>2015-12-06T08:59:13Z</time>
      </trkpt>
      <trkpt lat="44.123" lon="3.24619">
        <ele>620.5</ele>
        <time>2015-12-06T08:59:14Z</time>
      </trkpt>
      <trkpt lat="44.123" lon="3.24619">
        <ele>620.5</ele>
        <time>2015-12-06T08:59:15Z</time>
      </trkpt>
      <trkpt lat="44.12301" lon="3.24619">
        <ele>620</ele>
        <time>2015-12-06T08:59:16Z</time>
      </trkpt>
      <trkpt lat="44.12302" lon="3.24619">
        <ele>619.5</ele>
        <time>2015-12-06T08:59:18Z</time>
      </trkpt>
      <trkpt lat="44.12303" lon="3.24618">
        <ele>619.5</ele>
        <time>2015-12-06T08:59:20Z</time>
      </trkpt>
      <trkpt lat="44.12304" lon="3.24619">
        <ele>619.5</ele>
        <time>2015-12-06T08:59:21Z</time>
      </trkpt>
      <trkpt lat="44.12305" lon="3.24619">
        <ele>619.5</ele>
        <time>2015-12-06T08:59:23Z</time>
      </trkpt>
      <trkpt lat="44.12307" lon="3.24619">
        <ele>619.5</ele>
        <time>2015-12-06T08:59:25Z</time>
      </trkpt>
      <trkpt lat="44.12308" lon="3.2462">
        <ele>619</ele>
        <time>2015-12-06T08:59:26Z</time>
      </trkpt>
      <trkpt lat="44.12308" lon="3.24621">
        <ele>618</ele>
        <time>2015-12-06T08:59:27Z</time>
      </trkpt>
      <trkpt lat="44.12308" lon="3.24622">
        <ele>618</ele>
        <time>2015-12-06T08:59:28Z</time>
      </trkpt>
      <trkpt lat="44.12309" lon="3.24623">
        <ele>617</ele>
        <time>2015-12-06T08:59:29Z</time>
      </trkpt>
      <trkpt lat="44.12309" lon="3.24623">
        <ele>616.5</ele>
        <time>2015-12-06T08:59:30Z</time>
      </trkpt>
      <trkpt lat="44.12309" lon="3.2462">
        <ele>617.5</ele>
        <time>2015-12-06T08:59:31Z</time>
      </trkpt>
      <trkpt lat="44.1231" lon="3.24621">
        <ele>618</ele>
        <time>2015-12-06T08:59:38Z</time>
      </trkpt>
      <trkpt lat="44.12311" lon="3.24622">
        <ele>617</ele>
        <time>2015-12-06T08:59:40Z</time>
      </trkpt>
      <trkpt lat="44.12312" lon="3.24622">
        <ele>617.5</ele>
        <time>2015-12-06T08:59:43Z</time>
      </trkpt>
      <trkpt lat="44.12318" lon="3.24624">
        <ele>619</ele>
        <time>2015-12-06T09:01:42Z</time>
      </trkpt>
      <trkpt lat="44.12319" lon="3.24624">
        <ele>617.5</ele>
        <time>2015-12-06T09:01:46Z</time>
      </trkpt>
      <trkpt lat="44.12321" lon="3.24623">
        <ele>617.5</ele>
        <time>2015-12-06T09:01:48Z</time>
      </trkpt>
      <trkpt lat="44.12322" lon="3.24622">
        <ele>617</ele>
        <time>2015-12-06T09:01:49Z</time>
      </trkpt>
      <trkpt lat="44.12324" lon="3.24622">
        <ele>616.5</ele>
        <time>2015-12-06T09:01:50Z</time>
      </trkpt>
      <trkpt lat="44.12326" lon="3.24621">
        <ele>616.5</ele>
        <time>2015-12-06T09:01:51Z</time>
      </trkpt>
      <trkpt lat="44.12328" lon="3.24622">
        <ele>616.5</ele>
        <time>2015-12-06T09:01:52Z</time>
      </trkpt>
      <trkpt lat="44.12331" lon="3.24623">
        <ele>616</ele>
        <time>2015-12-06T09:01:53Z</time>
      </trkpt>
      <trkpt lat="44.12333" lon="3.24624">
        <ele>616</ele>
        <time>2015-12-06T09:01:54Z</time>
      </trkpt>
      <trkpt lat="44.12335" lon="3.24624">
        <ele>616.5</ele>
        <time>2015-12-06T09:01:55Z</time>
      </trkpt>
      <trkpt lat="44.12337" lon="3.24623">
        <ele>616.5</ele>
        <time>2015-12-06T09:01:56Z</time>
      </trkpt>
      <trkpt lat="44.12339" lon="3.24622">
        <ele>617</ele>
        <time>2015-12-06T09:01:57Z</time>
      </trkpt>
      <trkpt lat="44.1234" lon="3.24621">
        <ele>617.5</ele>
        <time>2015-12-06T09:01:58Z</time>
      </trkpt>
      <trkpt lat="44.12341" lon="3.2462">
        <ele>617.5</ele>
        <time>2015-12-06T09:01:59Z</time>
      </trkpt>
      <trkpt lat="44.12342" lon="3.24619">
        <ele>617.5</ele>
        <time>2015-12-06T09:02:00Z</time>
      </trkpt>
      <trkpt lat="44.12344" lon="3.24617">
        <ele>617.5</ele>
        <time>2015-12-06T09:02:01Z</time>
      </trkpt>
      <trkpt lat="44.12346" lon="3.24616">
        <ele>618</ele>
        <time>2015-12-06T09:02:02Z</time>
      </trkpt>
      <trkpt lat="44.12348" lon="3.24613">
        <ele>618.5</ele>
        <time>2015-12-06T09:02:04Z</time>
      </trkpt>
      <trkpt lat="44.12349" lon="3.24611">
        <ele>619</ele>
        <time>2015-12-06T09:02:05Z</time>
      </trkpt>
      <trkpt lat="44.1235" lon="3.24608">
        <ele>619.5</ele>
        <time>2015-12-06T09:02:06Z</time>
      </trkpt>
      <trkpt lat="44.12351" lon="3.24606">
        <ele>620</ele>
        <time>2015-12-06T09:02:07Z</time>
      </trkpt>
      <trkpt lat="44.12352" lon="3.24604">
        <ele>620.5</ele>
        <time>2015-12-06T09:02:08Z</time>
      </trkpt>
      <trkpt lat="44.12353" lon="3.24602">
        <ele>621</ele>
        <time>2015-12-06T09:02:09Z</time>
      </trkpt>
      <trkpt lat="44.12354" lon="3.246">
        <ele>621.5</ele>
        <time>2015-12-06T09:02:10Z</time>
      </trkpt>
      <trkpt lat="44.12354" lon="3.24597">
        <ele>622</ele>
        <time>2015-12-06T09:02:11Z</time>
      </trkpt>
      <trkpt lat="44.12354" lon="3.24595">
        <ele>622.5</ele>
        <time>2015-12-06T09:02:12Z</time>
      </trkpt>
      <trkpt lat="44.12355" lon="3.24592">
        <ele>623.5</ele>
        <time>2015-12-06T09:02:13Z</time>
      </trkpt>
      <trkpt lat="44.12355" lon="3.2459">
        <ele>624</ele>
        <time>2015-12-06T09:02:14Z</time>
      </trkpt>
      <trkpt lat="44.12356" lon="3.24588">
        <ele>624.5</ele>
        <time>2015-12-06T09:02:15Z</time>
      </trkpt>
      <trkpt lat="44.12357" lon="3.24587">
        <ele>624.5</ele>
        <time>2015-12-06T09:02:16Z</time>
      </trkpt>
      <trkpt lat="44.12357" lon="3.24585">
        <ele>625</ele>
        <time>2015-12-06T09:02:17Z</time>
      </trkpt>
      <trkpt lat="44.12358" lon="3.24583">
        <ele>625.5</ele>
        <time>2015-12-06T09:02:18Z</time>
      </trkpt>
      <trkpt lat="44.12359" lon="3.24582">
        <ele>625.5</ele>
        <time>2015-12-06T09:02:19Z</time>
      </trkpt>
      <trkpt lat="44.12359" lon="3.2458">
        <ele>626</ele>
        <time>2015-12-06T09:02:20Z</time>
      </trkpt>
      <trkpt lat="44.1236" lon="3.24578">
        <ele>626.5</ele>
        <time>2015-12-06T09:02:21Z</time>
      </trkpt>
      <trkpt lat="44.12361" lon="3.24577">
        <ele>627</ele>
        <time>2015-12-06T09:02:22Z</time>
      </trkpt>
      <trkpt lat="44.12363" lon="3.24575">
        <ele>627</ele>
        <time>2015-12-06T09:02:23Z</time>
      </trkpt>
      <trkpt lat="44.12365" lon="3.24574">
        <ele>627.5</ele>
        <time>2015-12-06T09:02:24Z</time>
      </trkpt>
      <trkpt lat="44.12366" lon="3.24572">
        <ele>628</ele>
        <time>2015-12-06T09:02:25Z</time>
      </trkpt>
      <trkpt lat="44.12367" lon="3.24571">
        <ele>628.5</ele>
        <time>2015-12-06T09:02:26Z</time>
      </trkpt>
      <trkpt lat="44.12369" lon="3.2457">
        <ele>628.5</ele>
        <time>2015-12-06T09:02:27Z</time>
      </trkpt>
      <trkpt lat="44.1237" lon="3.24568">
        <ele>628.5</ele>
        <time>2015-12-06T09:02:28Z</time>
      </trkpt>
      <trkpt lat="44.12372" lon="3.24567">
        <ele>629</ele>
        <time>2015-12-06T09:02:29Z</time>
      </trkpt>
      <trkpt lat="44.12374" lon="3.24566">
        <ele>629</ele>
        <time>2015-12-06T09:02:30Z</time>
      </trkpt>
      <trkpt lat="44.12375" lon="3.24565">
        <ele>629.5</ele>
        <time>2015-12-06T09:02:31Z</time>
      </trkpt>
      <trkpt lat="44.12376" lon="3.24564">
        <ele>630</ele>
        <time>2015-12-06T09:02:32Z</time>
      </trkpt>
      <trkpt lat="44.12378" lon="3.24562">
        <ele>630.5</ele>
        <time>2015-12-06T09:02:33Z</time>
      </trkpt>
      <trkpt lat="44.12379" lon="3.24561">
        <ele>630</ele>
        <time>2015-12-06T09:02:34Z</time>
      </trkpt>
      <trkpt lat="44.12381" lon="3.2456">
        <ele>630.5</ele>
        <time>2015-12-06T09:02:35Z</time>
      </trkpt>
      <trkpt lat="44.12382" lon="3.24558">
        <ele>631</ele>
        <time>2015-12-06T09:02:36Z</time>
      </trkpt>
      <trkpt lat="44.12383" lon="3.24557">
        <ele>631.5</ele>
        <time>2015-12-06T09:02:37Z</time>
      </trkpt>
      <trkpt lat="44.12384" lon="3.24556">
        <ele>631</ele>
        <time>2015-12-06T09:02:38Z</time>
      </trkpt>
      <trkpt lat="44.12386" lon="3.24556">
        <ele>631</ele>
        <time>2015-12-06T09:02:39Z</time>
      </trkpt>
      <trkpt lat="44.12387" lon="3.24555">
        <ele>631</ele>
        <time>2015-12-06T09:02:40Z</time>
      </trkpt>
      <trkpt lat="44.12389" lon="3.24554">
        <ele>630.5</ele>
        <time>2015-12-06T09:02:41Z</time>
      </trkpt>
      <trkpt lat="44.1239" lon="3.24553">
        <ele>630.5</ele>
        <time>2015-12-06T09:02:42Z</time>
      </trkpt>
      <trkpt lat="44.12392" lon="3.24553">
        <ele>630</ele>
        <time>2015-12-06T09:02:43Z</time>
      </trkpt>
      <trkpt lat="44.12393" lon="3.24551">
        <ele>630</ele>
        <time>2015-12-06T09:02:44Z</time>
      </trkpt>
      <trkpt lat="44.12395" lon="3.2455">
        <ele>630.5</ele>
        <time>2015-12-06T09:02:45Z</time>
      </trkpt>
      <trkpt lat="44.12396" lon="3.24549">
        <ele>631</ele>
        <time>2015-12-06T09:02:46Z</time>
      </trkpt>
      <trkpt lat="44.12397" lon="3.24548">
        <ele>631.5</ele>
        <time>2015-12-06T09:02:47Z</time>
      </trkpt>
      <trkpt lat="44.12398" lon="3.24548">
        <ele>631.5</ele>
        <time>2015-12-06T09:02:48Z</time>
      </trkpt>
      <trkpt lat="44.12399" lon="3.24547">
        <ele>631.5</ele>
        <time>2015-12-06T09:02:49Z</time>
      </trkpt>
      <trkpt lat="44.124" lon="3.24546">
        <ele>632</ele>
        <time>2015-12-06T09:02:50Z</time>
      </trkpt>
      <trkpt lat="44.12401" lon="3.24545">
        <ele>632</ele>
        <time>2015-12-06T09:02:51Z</time>
      </trkpt>
      <trkpt lat="44.12401" lon="3.24543">
        <ele>633</ele>
        <time>2015-12-06T09:02:52Z</time>
      </trkpt>
      <trkpt lat="44.12402" lon="3.24543">
        <ele>634</ele>
        <time>2015-12-06T09:02:53Z</time>
      </trkpt>
      <trkpt lat="44.12404" lon="3.24542">
        <ele>634.5</ele>
        <time>2015-12-06T09:02:54Z</time>
      </trkpt>
      <trkpt lat="44.12405" lon="3.24541">
        <ele>634.5</ele>
        <time>2015-12-06T09:02:55Z</time>
      </trkpt>
      <trkpt lat="44.12405" lon="3.24539">
        <ele>636</ele>
        <time>2015-12-06T09:02:56Z</time>
      </trkpt>
      <trkpt lat="44.12407" lon="3.24538">
        <ele>636.5</ele>
        <time>2015-12-06T09:02:57Z</time>
      </trkpt>
      <trkpt lat="44.12408" lon="3.24537">
        <ele>636.5</ele>
        <time>2015-12-06T09:02:58Z</time>
      </trkpt>
      <trkpt lat="44.12409" lon="3.24536">
        <ele>637</ele>
        <time>2015-12-06T09:02:59Z</time>
      </trkpt>
      <trkpt lat="44.12411" lon="3.24535">
        <ele>638</ele>
        <time>2015-12-06T09:03:00Z</time>
      </trkpt>
      <trkpt lat="44.12412" lon="3.24534">
        <ele>638.5</ele>
        <time>2015-12-06T09:03:01Z</time>
      </trkpt>
      <trkpt lat="44.12413" lon="3.24534">
        <ele>638.5</ele>
        <time>2015-12-06T09:03:02Z</time>
      </trkpt>
      <trkpt lat="44.12415" lon="3.24534">
        <ele>638</ele>
        <time>2015-12-06T09:03:03Z</time>
      </trkpt>
      <trkpt lat="44.12416" lon="3.24533">
        <ele>638</ele>
        <time>2015-12-06T09:03:04Z</time>
      </trkpt>
      <trkpt lat="44.12417" lon="3.24533">
        <ele>638</ele>
        <time>2015-12-06T09:03:05Z</time>
      </trkpt>
      <trkpt lat="44.12419" lon="3.24532">
        <ele>638.5</ele>
        <time>2015-12-06T09:03:06Z</time>
      </trkpt>
      <trkpt lat="44.12421" lon="3.24532">
        <ele>637.5</ele>
        <time>2015-12-06T09:03:07Z</time>
      </trkpt>
      <trkpt lat="44.12422" lon="3.24531">
        <ele>638</ele>
        <time>2015-12-06T09:03:08Z</time>
      </trkpt>
      <trkpt lat="44.12424" lon="3.2453">
        <ele>638</ele>
        <time>2015-12-06T09:03:09Z</time>
      </trkpt>
      <trkpt lat="44.12425" lon="3.2453">
        <ele>638</ele>
        <time>2015-12-06T09:03:10Z</time>
      </trkpt>
      <trkpt lat="44.12426" lon="3.24529">
        <ele>638.5</ele>
        <time>2015-12-06T09:03:11Z</time>
      </trkpt>
      <trkpt lat="44.12427" lon="3.24528">
        <ele>639</ele>
        <time>2015-12-06T09:03:12Z</time>
      </trkpt>
      <trkpt lat="44.12429" lon="3.24527">
        <ele>639.5</ele>
        <time>2015-12-06T09:03:13Z</time>
      </trkpt>
      <trkpt lat="44.1243" lon="3.24526">
        <ele>639.5</ele>
        <time>2015-12-06T09:03:14Z</time>
      </trkpt>
      <trkpt lat="44.12431" lon="3.24525">
        <ele>640</ele>
        <time>2015-12-06T09:03:15Z</time>
      </trkpt>
      <trkpt lat="44.12433" lon="3.24524">
        <ele>640.5</ele>
        <time>2015-12-06T09:03:16Z</time>
      </trkpt>
      <trkpt lat="44.12434" lon="3.24523">
        <ele>641</ele>
        <time>2015-12-06T09:03:17Z</time>
      </trkpt>
      <trkpt lat="44.12435" lon="3.24522">
        <ele>641.5</ele>
        <time>2015-12-06T09:03:18Z</time>
      </trkpt>
      <trkpt lat="44.12436" lon="3.24521">
        <ele>642</ele>
        <time>2015-12-06T09:03:19Z</time>
      </trkpt>
      <trkpt lat="44.12437" lon="3.2452">
        <ele>642.5</ele>
        <time>2015-12-06T09:03:20Z</time>
      </trkpt>
      <trkpt lat="44.12438" lon="3.24519">
        <ele>642.5</ele>
        <time>2015-12-06T09:03:21Z</time>
      </trkpt>
      <trkpt lat="44.1244" lon="3.24519">
        <ele>642.5</ele>
        <time>2015-12-06T09:03:22Z</time>
      </trkpt>
      <trkpt lat="44.1244" lon="3.24518">
        <ele>642.5</ele>
        <time>2015-12-06T09:03:23Z</time>
      </trkpt>
      <trkpt lat="44.12441" lon="3.24517">
        <ele>643</ele>
        <time>2015-12-06T09:03:24Z</time>
      </trkpt>
      <trkpt lat="44.12442" lon="3.24516">
        <ele>643.5</ele>
        <time>2015-12-06T09:03:25Z</time>
      </trkpt>
      <trkpt lat="44.12444" lon="3.24515">
        <ele>644</ele>
        <time>2015-12-06T09:03:25Z</time>
      </trkpt>
      <trkpt lat="44.12444" lon="3.24514">
        <ele>644</ele>
        <time>2015-12-06T09:03:26Z</time>
      </trkpt>
      <trkpt lat="44.12446" lon="3.24513">
        <ele>644.5</ele>
        <time>2015-12-06T09:03:27Z</time>
      </trkpt>
      <trkpt lat="44.12447" lon="3.24512">
        <ele>644.5</ele>
        <time>2015-12-06T09:03:28Z</time>
      </trkpt>
      <trkpt lat="44.12449" lon="3.24511">
        <ele>644.5</ele>
        <time>2015-12-06T09:03:29Z</time>
      </trkpt>
      <trkpt lat="44.1245" lon="3.2451">
        <ele>645</ele>
        <time>2015-12-06T09:03:30Z</time>
      </trkpt>
      <trkpt lat="44.12451" lon="3.24509">
        <ele>645.5</ele>
        <time>2015-12-06T09:03:31Z</time>
      </trkpt>
      <trkpt lat="44.12452" lon="3.24508">
        <ele>646</ele>
        <time>2015-12-06T09:03:32Z</time>
      </trkpt>
      <trkpt lat="44.12454" lon="3.24507">
        <ele>645.5</ele>
        <time>2015-12-06T09:03:33Z</time>
      </trkpt>
      <trkpt lat="44.12455" lon="3.24506">
        <ele>645.5</ele>
        <time>2015-12-06T09:03:34Z</time>
      </trkpt>
      <trkpt lat="44.12456" lon="3.24505">
        <ele>645.5</ele>
        <time>2015-12-06T09:03:35Z</time>
      </trkpt>
      <trkpt lat="44.12457" lon="3.24504">
        <ele>645.5</ele>
        <time>2015-12-06T09:03:36Z</time>
      </trkpt>
      <trkpt lat="44.12459" lon="3.24504">
        <ele>644.5</ele>
        <time>2015-12-06T09:03:38Z</time>
      </trkpt>
      <trkpt lat="44.1246" lon="3.24503">
        <ele>645</ele>
        <time>2015-12-06T09:03:38Z</time>
      </trkpt>
      <trkpt lat="44.12461" lon="3.24502">
        <ele>645.5</ele>
        <time>2015-12-06T09:03:39Z</time>
      </trkpt>
      <trkpt lat="44.12462" lon="3.24501">
        <ele>646</ele>
        <time>2015-12-06T09:03:41Z</time>
      </trkpt>
      <trkpt lat="44.12463" lon="3.245">
        <ele>645.5</ele>
        <time>2015-12-06T09:03:41Z</time>
      </trkpt>
      <trkpt lat="44.12465" lon="3.24499">
        <ele>646</ele>
        <time>2015-12-06T09:03:42Z</time>
      </trkpt>
      <trkpt lat="44.12466" lon="3.24498">
        <ele>646.5</ele>
        <time>2015-12-06T09:03:43Z</time>
      </trkpt>
      <trkpt lat="44.12467" lon="3.24497">
        <ele>646.5</ele>
        <time>2015-12-06T09:03:45Z</time>
      </trkpt>
      <trkpt lat="44.12468" lon="3.24496">
        <ele>646.5</ele>
        <time>2015-12-06T09:03:45Z</time>
      </trkpt>
      <trkpt lat="44.12469" lon="3.24496">
        <ele>647</ele>
        <time>2015-12-06T09:03:46Z</time>
      </trkpt>
      <trkpt lat="44.1247" lon="3.24495">
        <ele>647</ele>
        <time>2015-12-06T09:03:47Z</time>
      </trkpt>
      <trkpt lat="44.12471" lon="3.24494">
        <ele>647.5</ele>
        <time>2015-12-06T09:03:48Z</time>
      </trkpt>
      <trkpt lat="44.12472" lon="3.24493">
        <ele>648</ele>
        <time>2015-12-06T09:03:49Z</time>
      </trkpt>
      <trkpt lat="44.12473" lon="3.24492">
        <ele>648.5</ele>
        <time>2015-12-06T09:03:50Z</time>
      </trkpt>
      <trkpt lat="44.12475" lon="3.24491">
        <ele>648.5</ele>
        <time>2015-12-06T09:03:51Z</time>
      </trkpt>
      <trkpt lat="44.12476" lon="3.24491">
        <ele>649</ele>
        <time>2015-12-06T09:03:52Z</time>
      </trkpt>
      <trkpt lat="44.12477" lon="3.2449">
        <ele>649.5</ele>
        <time>2015-12-06T09:03:53Z</time>
      </trkpt>
      <trkpt lat="44.12479" lon="3.24489">
        <ele>649.5</ele>
        <time>2015-12-06T09:03:54Z</time>
      </trkpt>
      <trkpt lat="44.12481" lon="3.24489">
        <ele>649.5</ele>
        <time>2015-12-06T09:03:55Z</time>
      </trkpt>
      <trkpt lat="44.12482" lon="3.24489">
        <ele>649.5</ele>
        <time>2015-12-06T09:03:56Z</time>
      </trkpt>
      <trkpt lat="44.12483" lon="3.24488">
        <ele>650</ele>
        <time>2015-12-06T09:03:57Z</time>
      </trkpt>
      <trkpt lat="44.12485" lon="3.24488">
        <ele>650</ele>
        <time>2015-12-06T09:03:58Z</time>
      </trkpt>
      <trkpt lat="44.12487" lon="3.24488">
        <ele>649.5</ele>
        <time>2015-12-06T09:03:59Z</time>
      </trkpt>
      <trkpt lat="44.12488" lon="3.24487">
        <ele>649.5</ele>
        <time>2015-12-06T09:04:01Z</time>
      </trkpt>
      <trkpt lat="44.12489" lon="3.24487">
        <ele>650</ele>
        <time>2015-12-06T09:04:01Z</time>
      </trkpt>
      <trkpt lat="44.12491" lon="3.24487">
        <ele>650</ele>
        <time>2015-12-06T09:04:02Z</time>
      </trkpt>
      <trkpt lat="44.12492" lon="3.24486">
        <ele>650</ele>
        <time>2015-12-06T09:04:03Z</time>
      </trkpt>
      <trkpt lat="44.12493" lon="3.24486">
        <ele>650</ele>
        <time>2015-12-06T09:04:04Z</time>
      </trkpt>
      <trkpt lat="44.12495" lon="3.24486">
        <ele>650</ele>
        <time>2015-12-06T09:04:05Z</time>
      </trkpt>
      <trkpt lat="44.12496" lon="3.24486">
        <ele>650</ele>
        <time>2015-12-06T09:04:06Z</time>
      </trkpt>
      <trkpt lat="44.12497" lon="3.24485">
        <ele>650.5</ele>
        <time>2015-12-06T09:04:07Z</time>
      </trkpt>
      <trkpt lat="44.12499" lon="3.24484">
        <ele>651</ele>
        <time>2015-12-06T09:04:08Z</time>
      </trkpt>
      <trkpt lat="44.125" lon="3.24484">
        <ele>651.5</ele>
        <time>2015-12-06T09:04:09Z</time>
      </trkpt>
      <trkpt lat="44.12502" lon="3.24486">
        <ele>650</ele>
        <time>2015-12-06T09:04:10Z</time>
      </trkpt>
      <trkpt lat="44.12504" lon="3.24486">
        <ele>649</ele>
        <time>2015-12-06T09:04:11Z</time>
      </trkpt>
      <trkpt lat="44.12505" lon="3.24486">
        <ele>649.5</ele>
        <time>2015-12-06T09:04:12Z</time>
      </trkpt>
      <trkpt lat="44.12507" lon="3.24485">
        <ele>649.5</ele>
        <time>2015-12-06T09:04:13Z</time>
      </trkpt>
      <trkpt lat="44.12509" lon="3.24485">
        <ele>649</ele>
        <time>2015-12-06T09:04:14Z</time>
      </trkpt>
      <trkpt lat="44.12511" lon="3.24486">
        <ele>648.5</ele>
        <time>2015-12-06T09:04:15Z</time>
      </trkpt>
      <trkpt lat="44.12513" lon="3.24487">
        <ele>647</ele>
        <time>2015-12-06T09:04:16Z</time>
      </trkpt>
      <trkpt lat="44.12516" lon="3.24489">
        <ele>646</ele>
        <time>2015-12-06T09:04:17Z</time>
      </trkpt>
      <trkpt lat="44.12517" lon="3.24489">
        <ele>646</ele>
        <time>2015-12-06T09:04:18Z</time>
      </trkpt>
      <trkpt lat="44.12518" lon="3.2449">
        <ele>645.5</ele>
        <time>2015-12-06T09:04:19Z</time>
      </trkpt>
      <trkpt lat="44.1252" lon="3.2449">
        <ele>645.5</ele>
        <time>2015-12-06T09:04:21Z</time>
      </trkpt>
      <trkpt lat="44.12521" lon="3.2449">
        <ele>646</ele>
        <time>2015-12-06T09:04:22Z</time>
      </trkpt>
      <trkpt lat="44.12522" lon="3.24489">
        <ele>646.5</ele>
        <time>2015-12-06T09:04:22Z</time>
      </trkpt>
      <trkpt lat="44.12523" lon="3.24488">
        <ele>647</ele>
        <time>2015-12-06T09:04:24Z</time>
      </trkpt>
      <trkpt lat="44.12524" lon="3.24487">
        <ele>648.5</ele>
        <time>2015-12-06T09:04:24Z</time>
      </trkpt>
      <trkpt lat="44.12526" lon="3.24487">
        <ele>647.5</ele>
        <time>2015-12-06T09:04:25Z</time>
      </trkpt>
      <trkpt lat="44.12527" lon="3.24488">
        <ele>647</ele>
        <time>2015-12-06T09:04:26Z</time>
      </trkpt>
      <trkpt lat="44.12529" lon="3.24488">
        <ele>647</ele>
        <time>2015-12-06T09:04:27Z</time>
      </trkpt>
      <trkpt lat="44.1253" lon="3.24489">
        <ele>646</ele>
        <time>2015-12-06T09:04:28Z</time>
      </trkpt>
      <trkpt lat="44.12532" lon="3.2449">
        <ele>644.5</ele>
        <time>2015-12-06T09:04:29Z</time>
      </trkpt>
      <trkpt lat="44.12535" lon="3.24491">
        <ele>643</ele>
        <time>2015-12-06T09:04:30Z</time>
      </trkpt>
      <trkpt lat="44.12536" lon="3.24491">
        <ele>644</ele>
        <time>2015-12-06T09:04:31Z</time>
      </trkpt>
      <trkpt lat="44.12538" lon="3.24492">
        <ele>643</ele>
        <time>2015-12-06T09:04:32Z</time>
      </trkpt>
      <trkpt lat="44.1254" lon="3.24493">
        <ele>642.5</ele>
        <time>2015-12-06T09:04:33Z</time>
      </trkpt>
      <trkpt lat="44.12542" lon="3.24493">
        <ele>643</ele>
        <time>2015-12-06T09:04:34Z</time>
      </trkpt>
      <trkpt lat="44.12543" lon="3.24493">
        <ele>643.5</ele>
        <time>2015-12-06T09:04:35Z</time>
      </trkpt>
      <trkpt lat="44.12544" lon="3.24494">
        <ele>643.5</ele>
        <time>2015-12-06T09:04:36Z</time>
      </trkpt>
      <trkpt lat="44.12545" lon="3.24495">
        <ele>644</ele>
        <time>2015-12-06T09:04:37Z</time>
      </trkpt>
      <trkpt lat="44.12546" lon="3.24495">
        <ele>644</ele>
        <time>2015-12-06T09:04:38Z</time>
      </trkpt>
      <trkpt lat="44.12548" lon="3.24496">
        <ele>644.5</ele>
        <time>2015-12-06T09:04:39Z</time>
      </trkpt>
      <trkpt lat="44.12549" lon="3.24497">
        <ele>644.5</ele>
        <time>2015-12-06T09:04:40Z</time>
      </trkpt>
      <trkpt lat="44.1255" lon="3.24498">
        <ele>644</ele>
        <time>2015-12-06T09:04:41Z</time>
      </trkpt>
      <trkpt lat="44.12552" lon="3.24499">
        <ele>643.5</ele>
        <time>2015-12-06T09:04:42Z</time>
      </trkpt>
      <trkpt lat="44.12553" lon="3.245">
        <ele>643.5</ele>
        <time>2015-12-06T09:04:43Z</time>
      </trkpt>
      <trkpt lat="44.12554" lon="3.24501">
        <ele>643</ele>
        <time>2015-12-06T09:04:44Z</time>
      </trkpt>
      <trkpt lat="44.12554" lon="3.24501">
        <ele>643.5</ele>
        <time>2015-12-06T09:04:45Z</time>
      </trkpt>
      <trkpt lat="44.12555" lon="3.24502">
        <ele>644</ele>
        <time>2015-12-06T09:04:46Z</time>
      </trkpt>
      <trkpt lat="44.12555" lon="3.24503">
        <ele>644</ele>
        <time>2015-12-06T09:04:47Z</time>
      </trkpt>
      <trkpt lat="44.12557" lon="3.24504">
        <ele>644</ele>
        <time>2015-12-06T09:04:48Z</time>
      </trkpt>
      <trkpt lat="44.12558" lon="3.24505">
        <ele>644.5</ele>
        <time>2015-12-06T09:04:49Z</time>
      </trkpt>
      <trkpt lat="44.12559" lon="3.24506">
        <ele>644</ele>
        <time>2015-12-06T09:04:50Z</time>
      </trkpt>
      <trkpt lat="44.12559" lon="3.24507">
        <ele>644</ele>
        <time>2015-12-06T09:04:51Z</time>
      </trkpt>
      <trkpt lat="44.1256" lon="3.24508">
        <ele>644</ele>
        <time>2015-12-06T09:04:52Z</time>
      </trkpt>
      <trkpt lat="44.1256" lon="3.24509">
        <ele>644.5</ele>
        <time>2015-12-06T09:04:53Z</time>
      </trkpt>
      <trkpt lat="44.12561" lon="3.24511">
        <ele>644.5</ele>
        <time>2015-12-06T09:04:54Z</time>
      </trkpt>
      <trkpt lat="44.12561" lon="3.24512">
        <ele>645</ele>
        <time>2015-12-06T09:04:55Z</time>
      </trkpt>
      <trkpt lat="44.12561" lon="3.24511">
        <ele>644.5</ele>
        <time>2015-12-06T09:04:56Z</time>
      </trkpt>
      <trkpt lat="44.12562" lon="3.24512">
        <ele>645</ele>
        <time>2015-12-06T09:04:57Z</time>
      </trkpt>
      <trkpt lat="44.12562" lon="3.24513">
        <ele>645</ele>
        <time>2015-12-06T09:04:58Z</time>
      </trkpt>
      <trkpt lat="44.12564" lon="3.24514">
        <ele>645</ele>
        <time>2015-12-06T09:04:59Z</time>
      </trkpt>
      <trkpt lat="44.12565" lon="3.24514">
        <ele>646</ele>
        <time>2015-12-06T09:05:00Z</time>
      </trkpt>
      <trkpt lat="44.12565" lon="3.24515">
        <ele>646.5</ele>
        <time>2015-12-06T09:05:02Z</time>
      </trkpt>
      <trkpt lat="44.12567" lon="3.24518">
        <ele>647.5</ele>
        <time>2015-12-06T09:05:04Z</time>
      </trkpt>
      <trkpt lat="44.12569" lon="3.24519">
        <ele>648.5</ele>
        <time>2015-12-06T09:05:06Z</time>
      </trkpt>
      <trkpt lat="44.12569" lon="3.24518">
        <ele>648.5</ele>
        <time>2015-12-06T09:05:07Z</time>
      </trkpt>
      <trkpt lat="44.12569" lon="3.24518">
        <ele>648.5</ele>
        <time>2015-12-06T09:05:08Z</time>
      </trkpt>
      <trkpt lat="44.12569" lon="3.24519">
        <ele>648</ele>
        <time>2015-12-06T09:05:09Z</time>
      </trkpt>
      <trkpt lat="44.1257" lon="3.24521">
        <ele>649</ele>
        <time>2015-12-06T09:05:10Z</time>
      </trkpt>
      <trkpt lat="44.12571" lon="3.24522">
        <ele>649</ele>
        <time>2015-12-06T09:05:11Z</time>
      </trkpt>
      <trkpt lat="44.12571" lon="3.24522">
        <ele>649</ele>
        <time>2015-12-06T09:05:12Z</time>
      </trkpt>
      <trkpt lat="44.12571" lon="3.24523">
        <ele>649</ele>
        <time>2015-12-06T09:05:13Z</time>
      </trkpt>
      <trkpt lat="44.12572" lon="3.24523">
        <ele>649</ele>
        <time>2015-12-06T09:05:15Z</time>
      </trkpt>
      <trkpt lat="44.12572" lon="3.24525">
        <ele>649</ele>
        <time>2015-12-06T09:05:17Z</time>
      </trkpt>
      <trkpt lat="44.12573" lon="3.24527">
        <ele>649</ele>
        <time>2015-12-06T09:05:18Z</time>
      </trkpt>
      <trkpt lat="44.12573" lon="3.24528">
        <ele>648</ele>
        <time>2015-12-06T09:05:19Z</time>
      </trkpt>
      <trkpt lat="44.12574" lon="3.24529">
        <ele>648</ele>
        <time>2015-12-06T09:05:20Z</time>
      </trkpt>
      <trkpt lat="44.12574" lon="3.2453">
        <ele>648</ele>
        <time>2015-12-06T09:05:21Z</time>
      </trkpt>
      <trkpt lat="44.12575" lon="3.24531">
        <ele>648</ele>
        <time>2015-12-06T09:05:22Z</time>
      </trkpt>
      <trkpt lat="44.12576" lon="3.24532">
        <ele>648.5</ele>
        <time>2015-12-06T09:05:23Z</time>
      </trkpt>
      <trkpt lat="44.12577" lon="3.24533">
        <ele>648.5</ele>
        <time>2015-12-06T09:05:24Z</time>
      </trkpt>
      <trkpt lat="44.12577" lon="3.24534">
        <ele>648.5</ele>
        <time>2015-12-06T09:05:25Z</time>
      </trkpt>
      <trkpt lat="44.12578" lon="3.24535">
        <ele>648</ele>
        <time>2015-12-06T09:05:26Z</time>
      </trkpt>
      <trkpt lat="44.12579" lon="3.24536">
        <ele>648.5</ele>
        <time>2015-12-06T09:05:27Z</time>
      </trkpt>
      <trkpt lat="44.12579" lon="3.24537">
        <ele>648</ele>
        <time>2015-12-06T09:05:28Z</time>
      </trkpt>
      <trkpt lat="44.1258" lon="3.24538">
        <ele>648</ele>
        <time>2015-12-06T09:05:29Z</time>
      </trkpt>
      <trkpt lat="44.12581" lon="3.24538">
        <ele>648.5</ele>
        <time>2015-12-06T09:05:30Z</time>
      </trkpt>
      <trkpt lat="44.12581" lon="3.24539">
        <ele>648.5</ele>
        <time>2015-12-06T09:05:31Z</time>
      </trkpt>
      <trkpt lat="44.12584" lon="3.2454">
        <ele>649.5</ele>
        <time>2015-12-06T09:05:32Z</time>
      </trkpt>
      <trkpt lat="44.12585" lon="3.24542">
        <ele>650</ele>
        <time>2015-12-06T09:05:33Z</time>
      </trkpt>
      <trkpt lat="44.12585" lon="3.24543">
        <ele>650</ele>
        <time>2015-12-06T09:05:34Z</time>
      </trkpt>
      <trkpt lat="44.12586" lon="3.24544">
        <ele>650</ele>
        <time>2015-12-06T09:05:35Z</time>
      </trkpt>
      <trkpt lat="44.12586" lon="3.24545">
        <ele>650</ele>
        <time>2015-12-06T09:05:36Z</time>
      </trkpt>
      <trkpt lat="44.12587" lon="3.24546">
        <ele>650.5</ele>
        <time>2015-12-06T09:05:37Z</time>
      </trkpt>
      <trkpt lat="44.12588" lon="3.24548">
        <ele>650.5</ele>
        <time>2015-12-06T09:05:38Z</time>
      </trkpt>
      <trkpt lat="44.12589" lon="3.24549">
        <ele>650.5</ele>
        <time>2015-12-06T09:05:39Z</time>
      </trkpt>
      <trkpt lat="44.1259" lon="3.2455">
        <ele>651</ele>
        <time>2015-12-06T09:05:40Z</time>
      </trkpt>
      <trkpt lat="44.12591" lon="3.24551">
        <ele>651</ele>
        <time>2015-12-06T09:05:41Z</time>
      </trkpt>
      <trkpt lat="44.12591" lon="3.24552">
        <ele>651</ele>
        <time>2015-12-06T09:05:42Z</time>
      </trkpt>
      <trkpt lat="44.12592" lon="3.24553">
        <ele>651.5</ele>
        <time>2015-12-06T09:05:43Z</time>
      </trkpt>
      <trkpt lat="44.12594" lon="3.24554">
        <ele>652.5</ele>
        <time>2015-12-06T09:05:44Z</time>
      </trkpt>
      <trkpt lat="44.12595" lon="3.24555">
        <ele>653</ele>
        <time>2015-12-06T09:05:45Z</time>
      </trkpt>
      <trkpt lat="44.12596" lon="3.24556">
        <ele>653</ele>
        <time>2015-12-06T09:05:46Z</time>
      </trkpt>
      <trkpt lat="44.12597" lon="3.24557">
        <ele>653</ele>
        <time>2015-12-06T09:05:47Z</time>
      </trkpt>
      <trkpt lat="44.12597" lon="3.24559">
        <ele>653</ele>
        <time>2015-12-06T09:05:48Z</time>
      </trkpt>
      <trkpt lat="44.12598" lon="3.2456">
        <ele>653</ele>
        <time>2015-12-06T09:05:49Z</time>
      </trkpt>
      <trkpt lat="44.126" lon="3.24561">
        <ele>654.5</ele>
        <time>2015-12-06T09:05:50Z</time>
      </trkpt>
      <trkpt lat="44.126" lon="3.24562">
        <ele>654.5</ele>
        <time>2015-12-06T09:05:51Z</time>
      </trkpt>
      <trkpt lat="44.12601" lon="3.24564">
        <ele>654.5</ele>
        <time>2015-12-06T09:05:52Z</time>
      </trkpt>
      <trkpt lat="44.12602" lon="3.24565">
        <ele>655</ele>
        <time>2015-12-06T09:05:53Z</time>
      </trkpt>
      <trkpt lat="44.12603" lon="3.24566">
        <ele>655</ele>
        <time>2015-12-06T09:05:54Z</time>
      </trkpt>
      <trkpt lat="44.12604" lon="3.24568">
        <ele>656</ele>
        <time>2015-12-06T09:05:55Z</time>
      </trkpt>
      <trkpt lat="44.12605" lon="3.24569">
        <ele>656</ele>
        <time>2015-12-06T09:05:56Z</time>
      </trkpt>
      <trkpt lat="44.12606" lon="3.24571">
        <ele>656.5</ele>
        <time>2015-12-06T09:05:57Z</time>
      </trkpt>
      <trkpt lat="44.12607" lon="3.24572">
        <ele>657</ele>
        <time>2015-12-06T09:05:58Z</time>
      </trkpt>
      <trkpt lat="44.12608" lon="3.24573">
        <ele>657</ele>
        <time>2015-12-06T09:05:59Z</time>
      </trkpt>
      <trkpt lat="44.12609" lon="3.24574">
        <ele>657</ele>
        <time>2015-12-06T09:06:00Z</time>
      </trkpt>
      <trkpt lat="44.1261" lon="3.24575">
        <ele>657.5</ele>
        <time>2015-12-06T09:06:01Z</time>
      </trkpt>
      <trkpt lat="44.1261" lon="3.24576">
        <ele>658</ele>
        <time>2015-12-06T09:06:02Z</time>
      </trkpt>
      <trkpt lat="44.12611" lon="3.24577">
        <ele>658</ele>
        <time>2015-12-06T09:06:03Z</time>
      </trkpt>
      <trkpt lat="44.12615" lon="3.24581">
        <ele>661</ele>
        <time>2015-12-06T09:06:05Z</time>
      </trkpt>
      <trkpt lat="44.12616" lon="3.24583">
        <ele>661.5</ele>
        <time>2015-12-06T09:06:06Z</time>
      </trkpt>
      <trkpt lat="44.12617" lon="3.24584">
        <ele>662</ele>
        <time>2015-12-06T09:06:07Z</time>
      </trkpt>
      <trkpt lat="44.12618" lon="3.24585">
        <ele>662.5</ele>
        <time>2015-12-06T09:06:08Z</time>
      </trkpt>
      <trkpt lat="44.12623" lon="3.24589">
        <ele>666</ele>
        <time>2015-12-06T09:06:10Z</time>
      </trkpt>
      <trkpt lat="44.12623" lon="3.24591">
        <ele>666</ele>
        <time>2015-12-06T09:06:11Z</time>
      </trkpt>
      <trkpt lat="44.12624" lon="3.24592">
        <ele>666.5</ele>
        <time>2015-12-06T09:06:12Z</time>
      </trkpt>
      <trkpt lat="44.12625" lon="3.24593">
        <ele>666.5</ele>
        <time>2015-12-06T09:06:13Z</time>
      </trkpt>
      <trkpt lat="44.1263" lon="3.24596">
        <ele>669</ele>
        <time>2015-12-06T09:06:15Z</time>
      </trkpt>
      <trkpt lat="44.12632" lon="3.24598">
        <ele>671</ele>
        <time>2015-12-06T09:06:16Z</time>
      </trkpt>
      <trkpt lat="44.12634" lon="3.24599">
        <ele>672</ele>
        <time>2015-12-06T09:06:17Z</time>
      </trkpt>
      <trkpt lat="44.12635" lon="3.246">
        <ele>672.5</ele>
        <time>2015-12-06T09:06:18Z</time>
      </trkpt>
      <trkpt lat="44.12636" lon="3.24601">
        <ele>672.5</ele>
        <time>2015-12-06T09:06:19Z</time>
      </trkpt>
      <trkpt lat="44.12637" lon="3.24602">
        <ele>673.5</ele>
        <time>2015-12-06T09:06:20Z</time>
      </trkpt>
      <trkpt lat="44.12639" lon="3.24604">
        <ele>674</ele>
        <time>2015-12-06T09:06:21Z</time>
      </trkpt>
      <trkpt lat="44.1264" lon="3.24605">
        <ele>674</ele>
        <time>2015-12-06T09:06:22Z</time>
      </trkpt>
      <trkpt lat="44.12641" lon="3.24606">
        <ele>674.5</ele>
        <time>2015-12-06T09:06:23Z</time>
      </trkpt>
      <trkpt lat="44.12642" lon="3.24608">
        <ele>674</ele>
        <time>2015-12-06T09:06:24Z</time>
      </trkpt>
      <trkpt lat="44.12644" lon="3.2461">
        <ele>674</ele>
        <time>2015-12-06T09:06:25Z</time>
      </trkpt>
      <trkpt lat="44.12645" lon="3.24611">
        <ele>674.5</ele>
        <time>2015-12-06T09:06:26Z</time>
      </trkpt>
      <trkpt lat="44.12647" lon="3.24612">
        <ele>675.5</ele>
        <time>2015-12-06T09:06:27Z</time>
      </trkpt>
      <trkpt lat="44.12648" lon="3.24612">
        <ele>676</ele>
        <time>2015-12-06T09:06:28Z</time>
      </trkpt>
      <trkpt lat="44.12649" lon="3.24613">
        <ele>676.5</ele>
        <time>2015-12-06T09:06:29Z</time>
      </trkpt>
      <trkpt lat="44.1265" lon="3.24614">
        <ele>677</ele>
        <time>2015-12-06T09:06:30Z</time>
      </trkpt>
      <trkpt lat="44.12651" lon="3.24615">
        <ele>677</ele>
        <time>2015-12-06T09:06:31Z</time>
      </trkpt>
      <trkpt lat="44.12653" lon="3.24616">
        <ele>677</ele>
        <time>2015-12-06T09:06:32Z</time>
      </trkpt>
      <trkpt lat="44.12654" lon="3.24617">
        <ele>678</ele>
        <time>2015-12-06T09:06:33Z</time>
      </trkpt>
      <trkpt lat="44.12655" lon="3.24618">
        <ele>678</ele>
        <time>2015-12-06T09:06:34Z</time>
      </trkpt>
      <trkpt lat="44.12657" lon="3.2462">
        <ele>677.5</ele>
        <time>2015-12-06T09:06:35Z</time>
      </trkpt>
      <trkpt lat="44.12658" lon="3.24622">
        <ele>677.5</ele>
        <time>2015-12-06T09:06:36Z</time>
      </trkpt>
      <trkpt lat="44.12659" lon="3.24624">
        <ele>677.5</ele>
        <time>2015-12-06T09:06:37Z</time>
      </trkpt>
      <trkpt lat="44.12661" lon="3.24627">
        <ele>677.5</ele>
        <time>2015-12-06T09:06:38Z</time>
      </trkpt>
      <trkpt lat="44.12662" lon="3.24629">
        <ele>677.5</ele>
        <time>2015-12-06T09:06:39Z</time>
      </trkpt>
      <trkpt lat="44.12662" lon="3.2463">
        <ele>677</ele>
        <time>2015-12-06T09:06:40Z</time>
      </trkpt>
      <trkpt lat="44.12662" lon="3.24631">
        <ele>677</ele>
        <time>2015-12-06T09:06:41Z</time>
      </trkpt>
      <trkpt lat="44.12663" lon="3.24633">
        <ele>677</ele>
        <time>2015-12-06T09:06:42Z</time>
      </trkpt>
      <trkpt lat="44.12663" lon="3.24634">
        <ele>677</ele>
        <time>2015-12-06T09:06:43Z</time>
      </trkpt>
      <trkpt lat="44.12664" lon="3.24636">
        <ele>676.5</ele>
        <time>2015-12-06T09:06:44Z</time>
      </trkpt>
      <trkpt lat="44.12665" lon="3.24637">
        <ele>676.5</ele>
        <time>2015-12-06T09:06:45Z</time>
      </trkpt>
      <trkpt lat="44.12666" lon="3.24638">
        <ele>677</ele>
        <time>2015-12-06T09:06:46Z</time>
      </trkpt>
      <trkpt lat="44.12666" lon="3.2464">
        <ele>676.5</ele>
        <time>2015-12-06T09:06:47Z</time>
      </trkpt>
      <trkpt lat="44.12667" lon="3.24641">
        <ele>677.5</ele>
        <time>2015-12-06T09:06:48Z</time>
      </trkpt>
      <trkpt lat="44.12668" lon="3.24641">
        <ele>677.5</ele>
        <time>2015-12-06T09:06:49Z</time>
      </trkpt>
      <trkpt lat="44.12668" lon="3.24643">
        <ele>678.5</ele>
        <time>2015-12-06T09:06:50Z</time>
      </trkpt>
      <trkpt lat="44.12669" lon="3.24644">
        <ele>678.5</ele>
        <time>2015-12-06T09:06:51Z</time>
      </trkpt>
      <trkpt lat="44.12669" lon="3.24645">
        <ele>678.5</ele>
        <time>2015-12-06T09:06:52Z</time>
      </trkpt>
      <trkpt lat="44.12669" lon="3.24646">
        <ele>678.5</ele>
        <time>2015-12-06T09:06:53Z</time>
      </trkpt>
      <trkpt lat="44.1267" lon="3.24648">
        <ele>678</ele>
        <time>2015-12-06T09:06:54Z</time>
      </trkpt>
      <trkpt lat="44.12671" lon="3.24649">
        <ele>678</ele>
        <time>2015-12-06T09:06:55Z</time>
      </trkpt>
      <trkpt lat="44.12673" lon="3.2465">
        <ele>678.5</ele>
        <time>2015-12-06T09:06:56Z</time>
      </trkpt>
      <trkpt lat="44.12674" lon="3.24651">
        <ele>678.5</ele>
        <time>2015-12-06T09:06:57Z</time>
      </trkpt>
      <trkpt lat="44.12677" lon="3.24653">
        <ele>679.5</ele>
        <time>2015-12-06T09:06:58Z</time>
      </trkpt>
      <trkpt lat="44.12678" lon="3.24653">
        <ele>679.5</ele>
        <time>2015-12-06T09:06:59Z</time>
      </trkpt>
      <trkpt lat="44.1268" lon="3.24654">
        <ele>679.5</ele>
        <time>2015-12-06T09:07:00Z</time>
      </trkpt>
      <trkpt lat="44.12681" lon="3.24655">
        <ele>679</ele>
        <time>2015-12-06T09:07:01Z</time>
      </trkpt>
      <trkpt lat="44.12683" lon="3.24656">
        <ele>679</ele>
        <time>2015-12-06T09:07:02Z</time>
      </trkpt>
      <trkpt lat="44.12685" lon="3.24657">
        <ele>679.5</ele>
        <time>2015-12-06T09:07:03Z</time>
      </trkpt>
      <trkpt lat="44.12687" lon="3.24658">
        <ele>680</ele>
        <time>2015-12-06T09:07:04Z</time>
      </trkpt>
      <trkpt lat="44.12689" lon="3.24659">
        <ele>681</ele>
        <time>2015-12-06T09:07:05Z</time>
      </trkpt>
      <trkpt lat="44.12691" lon="3.2466">
        <ele>681</ele>
        <time>2015-12-06T09:07:06Z</time>
      </trkpt>
      <trkpt lat="44.12692" lon="3.24662">
        <ele>681</ele>
        <time>2015-12-06T09:07:06Z</time>
      </trkpt>
      <trkpt lat="44.12693" lon="3.24664">
        <ele>681</ele>
        <time>2015-12-06T09:07:08Z</time>
      </trkpt>
      <trkpt lat="44.12695" lon="3.24665">
        <ele>681.5</ele>
        <time>2015-12-06T09:07:08Z</time>
      </trkpt>
      <trkpt lat="44.12697" lon="3.24667">
        <ele>682</ele>
        <time>2015-12-06T09:07:09Z</time>
      </trkpt>
      <trkpt lat="44.12698" lon="3.24669">
        <ele>682.5</ele>
        <time>2015-12-06T09:07:10Z</time>
      </trkpt>
      <trkpt lat="44.127" lon="3.24671">
        <ele>683</ele>
        <time>2015-12-06T09:07:11Z</time>
      </trkpt>
      <trkpt lat="44.12702" lon="3.24673">
        <ele>683.5</ele>
        <time>2015-12-06T09:07:12Z</time>
      </trkpt>
      <trkpt lat="44.12703" lon="3.24674">
        <ele>683.5</ele>
        <time>2015-12-06T09:07:14Z</time>
      </trkpt>
      <trkpt lat="44.12705" lon="3.24675">
        <ele>683.5</ele>
        <time>2015-12-06T09:07:14Z</time>
      </trkpt>
      <trkpt lat="44.12706" lon="3.24677">
        <ele>684</ele>
        <time>2015-12-06T09:07:15Z</time>
      </trkpt>
      <trkpt lat="44.12708" lon="3.24677">
        <ele>684.5</ele>
        <time>2015-12-06T09:07:16Z</time>
      </trkpt>
      <trkpt lat="44.12709" lon="3.24678">
        <ele>685</ele>
        <time>2015-12-06T09:07:18Z</time>
      </trkpt>
      <trkpt lat="44.1271" lon="3.24679">
        <ele>685.5</ele>
        <time>2015-12-06T09:07:18Z</time>
      </trkpt>
      <trkpt lat="44.12711" lon="3.2468">
        <ele>685.5</ele>
        <time>2015-12-06T09:07:19Z</time>
      </trkpt>
      <trkpt lat="44.12713" lon="3.24681">
        <ele>685.5</ele>
        <time>2015-12-06T09:07:20Z</time>
      </trkpt>
      <trkpt lat="44.12714" lon="3.24682">
        <ele>686</ele>
        <time>2015-12-06T09:07:21Z</time>
      </trkpt>
      <trkpt lat="44.12715" lon="3.24683">
        <ele>685.5</ele>
        <time>2015-12-06T09:07:22Z</time>
      </trkpt>
      <trkpt lat="44.12716" lon="3.24685">
        <ele>685.5</ele>
        <time>2015-12-06T09:07:23Z</time>
      </trkpt>
      <trkpt lat="44.12718" lon="3.24686">
        <ele>686</ele>
        <time>2015-12-06T09:07:24Z</time>
      </trkpt>
      <trkpt lat="44.12719" lon="3.24687">
        <ele>686</ele>
        <time>2015-12-06T09:07:25Z</time>
      </trkpt>
      <trkpt lat="44.12721" lon="3.24689">
        <ele>686</ele>
        <time>2015-12-06T09:07:26Z</time>
      </trkpt>
      <trkpt lat="44.12722" lon="3.2469">
        <ele>686.5</ele>
        <time>2015-12-06T09:07:27Z</time>
      </trkpt>
      <trkpt lat="44.12723" lon="3.2469">
        <ele>687</ele>
        <time>2015-12-06T09:07:28Z</time>
      </trkpt>
      <trkpt lat="44.12725" lon="3.24692">
        <ele>687.5</ele>
        <time>2015-12-06T09:07:29Z</time>
      </trkpt>
      <trkpt lat="44.12726" lon="3.24693">
        <ele>687.5</ele>
        <time>2015-12-06T09:07:30Z</time>
      </trkpt>
      <trkpt lat="44.12727" lon="3.24693">
        <ele>688</ele>
        <time>2015-12-06T09:07:31Z</time>
      </trkpt>
      <trkpt lat="44.12728" lon="3.24695">
        <ele>688</ele>
        <time>2015-12-06T09:07:32Z</time>
      </trkpt>
      <trkpt lat="44.12729" lon="3.24696">
        <ele>688</ele>
        <time>2015-12-06T09:07:34Z</time>
      </trkpt>
      <trkpt lat="44.1273" lon="3.24698">
        <ele>688.5</ele>
        <time>2015-12-06T09:07:34Z</time>
      </trkpt>
      <trkpt lat="44.12731" lon="3.24699">
        <ele>688</ele>
        <time>2015-12-06T09:07:35Z</time>
      </trkpt>
      <trkpt lat="44.12732" lon="3.247">
        <ele>688.5</ele>
        <time>2015-12-06T09:07:36Z</time>
      </trkpt>
      <trkpt lat="44.12733" lon="3.24701">
        <ele>688.5</ele>
        <time>2015-12-06T09:07:37Z</time>
      </trkpt>
      <trkpt lat="44.12734" lon="3.24703">
        <ele>688</ele>
        <time>2015-12-06T09:07:38Z</time>
      </trkpt>
      <trkpt lat="44.12734" lon="3.24705">
        <ele>687.5</ele>
        <time>2015-12-06T09:07:39Z</time>
      </trkpt>
      <trkpt lat="44.12734" lon="3.24707">
        <ele>688</ele>
        <time>2015-12-06T09:07:40Z</time>
      </trkpt>
      <trkpt lat="44.12732" lon="3.24708">
        <ele>687.5</ele>
        <time>2015-12-06T09:07:41Z</time>
      </trkpt>
      <trkpt lat="44.12731" lon="3.24708">
        <ele>688</ele>
        <time>2015-12-06T09:07:42Z</time>
      </trkpt>
      <trkpt lat="44.1273" lon="3.24708">
        <ele>688</ele>
        <time>2015-12-06T09:07:43Z</time>
      </trkpt>
      <trkpt lat="44.12728" lon="3.24707">
        <ele>688</ele>
        <time>2015-12-06T09:07:44Z</time>
      </trkpt>
      <trkpt lat="44.12727" lon="3.24707">
        <ele>689.5</ele>
        <time>2015-12-06T09:07:45Z</time>
      </trkpt>
      <trkpt lat="44.12726" lon="3.24705">
        <ele>689</ele>
        <time>2015-12-06T09:07:46Z</time>
      </trkpt>
      <trkpt lat="44.12725" lon="3.24706">
        <ele>691</ele>
        <time>2015-12-06T09:07:47Z</time>
      </trkpt>
      <trkpt lat="44.12723" lon="3.24705">
        <ele>690.5</ele>
        <time>2015-12-06T09:07:48Z</time>
      </trkpt>
      <trkpt lat="44.12723" lon="3.24706">
        <ele>691.5</ele>
        <time>2015-12-06T09:07:49Z</time>
      </trkpt>
      <trkpt lat="44.12722" lon="3.24706">
        <ele>693</ele>
        <time>2015-12-06T09:07:50Z</time>
      </trkpt>
      <trkpt lat="44.12721" lon="3.24705">
        <ele>693.5</ele>
        <time>2015-12-06T09:07:52Z</time>
      </trkpt>
      <trkpt lat="44.1272" lon="3.24704">
        <ele>694.5</ele>
        <time>2015-12-06T09:07:52Z</time>
      </trkpt>
      <trkpt lat="44.12718" lon="3.24704">
        <ele>693.5</ele>
        <time>2015-12-06T09:07:53Z</time>
      </trkpt>
      <trkpt lat="44.12717" lon="3.24705">
        <ele>692.5</ele>
        <time>2015-12-06T09:07:54Z</time>
      </trkpt>
      <trkpt lat="44.12715" lon="3.24705">
        <ele>692.5</ele>
        <time>2015-12-06T09:07:55Z</time>
      </trkpt>
      <trkpt lat="44.12714" lon="3.24705">
        <ele>692.5</ele>
        <time>2015-12-06T09:07:56Z</time>
      </trkpt>
      <trkpt lat="44.12714" lon="3.24706">
        <ele>693.5</ele>
        <time>2015-12-06T09:07:57Z</time>
      </trkpt>
      <trkpt lat="44.12713" lon="3.24706">
        <ele>691.5</ele>
        <time>2015-12-06T09:07:58Z</time>
      </trkpt>
      <trkpt lat="44.12712" lon="3.24706">
        <ele>692</ele>
        <time>2015-12-06T09:07:59Z</time>
      </trkpt>
      <trkpt lat="44.12711" lon="3.24706">
        <ele>690.5</ele>
        <time>2015-12-06T09:08:00Z</time>
      </trkpt>
      <trkpt lat="44.1271" lon="3.24705">
        <ele>688.5</ele>
        <time>2015-12-06T09:08:01Z</time>
      </trkpt>
      <trkpt lat="44.12709" lon="3.24705">
        <ele>688</ele>
        <time>2015-12-06T09:08:02Z</time>
      </trkpt>
      <trkpt lat="44.12708" lon="3.24705">
        <ele>687.5</ele>
        <time>2015-12-06T09:08:03Z</time>
      </trkpt>
      <trkpt lat="44.12707" lon="3.24704">
        <ele>688.5</ele>
        <time>2015-12-06T09:08:04Z</time>
      </trkpt>
      <trkpt lat="44.12706" lon="3.24705">
        <ele>687.5</ele>
        <time>2015-12-06T09:08:05Z</time>
      </trkpt>
      <trkpt lat="44.12706" lon="3.24706">
        <ele>686.5</ele>
        <time>2015-12-06T09:08:06Z</time>
      </trkpt>
      <trkpt lat="44.12703" lon="3.24704">
        <ele>687</ele>
        <time>2015-12-06T09:08:08Z</time>
      </trkpt>
      <trkpt lat="44.12702" lon="3.24704">
        <ele>686</ele>
        <time>2015-12-06T09:08:09Z</time>
      </trkpt>
      <trkpt lat="44.12701" lon="3.24705">
        <ele>686.5</ele>
        <time>2015-12-06T09:08:10Z</time>
      </trkpt>
      <trkpt lat="44.12701" lon="3.24705">
        <ele>686</ele>
        <time>2015-12-06T09:08:11Z</time>
      </trkpt>
      <trkpt lat="44.12701" lon="3.24706">
        <ele>686.5</ele>
        <time>2015-12-06T09:08:12Z</time>
      </trkpt>
      <trkpt lat="44.12701" lon="3.24708">
        <ele>687</ele>
        <time>2015-12-06T09:08:13Z</time>
      </trkpt>
      <trkpt lat="44.127" lon="3.24708">
        <ele>687.5</ele>
        <time>2015-12-06T09:08:14Z</time>
      </trkpt>
      <trkpt lat="44.12698" lon="3.24708">
        <ele>688</ele>
        <time>2015-12-06T09:08:15Z</time>
      </trkpt>
      <trkpt lat="44.12697" lon="3.24708">
        <ele>689</ele>
        <time>2015-12-06T09:08:16Z</time>
      </trkpt>
      <trkpt lat="44.12694" lon="3.24707">
        <ele>689.5</ele>
        <time>2015-12-06T09:08:17Z</time>
      </trkpt>
      <trkpt lat="44.12693" lon="3.24706">
        <ele>691</ele>
        <time>2015-12-06T09:08:18Z</time>
      </trkpt>
      <trkpt lat="44.12691" lon="3.24704">
        <ele>693.5</ele>
        <time>2015-12-06T09:08:19Z</time>
      </trkpt>
      <trkpt lat="44.1269" lon="3.24705">
        <ele>694</ele>
        <time>2015-12-06T09:08:20Z</time>
      </trkpt>
      <trkpt lat="44.12689" lon="3.24708">
        <ele>693.5</ele>
        <time>2015-12-06T09:08:21Z</time>
      </trkpt>
      <trkpt lat="44.12689" lon="3.24705">
        <ele>694</ele>
        <time>2015-12-06T09:08:23Z</time>
      </trkpt>
      <trkpt lat="44.12688" lon="3.24704">
        <ele>694.5</ele>
        <time>2015-12-06T09:08:24Z</time>
      </trkpt>
      <trkpt lat="44.12686" lon="3.24703">
        <ele>696.5</ele>
        <time>2015-12-06T09:08:25Z</time>
      </trkpt>
      <trkpt lat="44.12685" lon="3.24703">
        <ele>696.5</ele>
        <time>2015-12-06T09:08:26Z</time>
      </trkpt>
      <trkpt lat="44.12684" lon="3.24701">
        <ele>696.5</ele>
        <time>2015-12-06T09:08:27Z</time>
      </trkpt>
      <trkpt lat="44.12685" lon="3.24701">
        <ele>697.5</ele>
        <time>2015-12-06T09:08:28Z</time>
      </trkpt>
      <trkpt lat="44.12684" lon="3.24699">
        <ele>699.5</ele>
        <time>2015-12-06T09:08:29Z</time>
      </trkpt>
      <trkpt lat="44.12682" lon="3.24697">
        <ele>701</ele>
        <time>2015-12-06T09:08:30Z</time>
      </trkpt>
      <trkpt lat="44.1268" lon="3.24695">
        <ele>702.5</ele>
        <time>2015-12-06T09:08:31Z</time>
      </trkpt>
      <trkpt lat="44.12677" lon="3.24694">
        <ele>702.5</ele>
        <time>2015-12-06T09:08:32Z</time>
      </trkpt>
      <trkpt lat="44.12676" lon="3.24692">
        <ele>702.5</ele>
        <time>2015-12-06T09:08:33Z</time>
      </trkpt>
      <trkpt lat="44.12674" lon="3.24692">
        <ele>702</ele>
        <time>2015-12-06T09:08:34Z</time>
      </trkpt>
      <trkpt lat="44.12667" lon="3.24685">
        <ele>702</ele>
        <time>2015-12-06T09:08:36Z</time>
      </trkpt>
      <trkpt lat="44.12665" lon="3.24683">
        <ele>701.5</ele>
        <time>2015-12-06T09:08:37Z</time>
      </trkpt>
      <trkpt lat="44.12663" lon="3.24682">
        <ele>701</ele>
        <time>2015-12-06T09:08:38Z</time>
      </trkpt>
      <trkpt lat="44.12661" lon="3.24681">
        <ele>701</ele>
        <time>2015-12-06T09:08:39Z</time>
      </trkpt>
      <trkpt lat="44.12658" lon="3.2468">
        <ele>699.5</ele>
        <time>2015-12-06T09:08:40Z</time>
      </trkpt>
      <trkpt lat="44.12657" lon="3.24679">
        <ele>701</ele>
        <time>2015-12-06T09:08:41Z</time>
      </trkpt>
      <trkpt lat="44.12655" lon="3.24678">
        <ele>701.5</ele>
        <time>2015-12-06T09:08:42Z</time>
      </trkpt>
      <trkpt lat="44.12653" lon="3.24676">
        <ele>701.5</ele>
        <time>2015-12-06T09:08:43Z</time>
      </trkpt>
      <trkpt lat="44.12651" lon="3.24676">
        <ele>701.5</ele>
        <time>2015-12-06T09:08:44Z</time>
      </trkpt>
      <trkpt lat="44.12649" lon="3.24675">
        <ele>701</ele>
        <time>2015-12-06T09:08:45Z</time>
      </trkpt>
      <trkpt lat="44.12647" lon="3.24674">
        <ele>700</ele>
        <time>2015-12-06T09:08:46Z</time>
      </trkpt>
      <trkpt lat="44.12645" lon="3.24673">
        <ele>700</ele>
        <time>2015-12-06T09:08:47Z</time>
      </trkpt>
      <trkpt lat="44.12643" lon="3.24672">
        <ele>698.5</ele>
        <time>2015-12-06T09:08:48Z</time>
      </trkpt>
      <trkpt lat="44.12642" lon="3.24671">
        <ele>700</ele>
        <time>2015-12-06T09:08:49Z</time>
      </trkpt>
      <trkpt lat="44.1264" lon="3.24669">
        <ele>701.5</ele>
        <time>2015-12-06T09:08:50Z</time>
      </trkpt>
      <trkpt lat="44.12637" lon="3.24666">
        <ele>700</ele>
        <time>2015-12-06T09:08:51Z</time>
      </trkpt>
      <trkpt lat="44.12635" lon="3.24665">
        <ele>697.5</ele>
        <time>2015-12-06T09:08:52Z</time>
      </trkpt>
      <trkpt lat="44.12633" lon="3.24664">
        <ele>697.5</ele>
        <time>2015-12-06T09:08:53Z</time>
      </trkpt>
      <trkpt lat="44.12631" lon="3.24662">
        <ele>697.5</ele>
        <time>2015-12-06T09:08:54Z</time>
      </trkpt>
      <trkpt lat="44.1263" lon="3.24661">
        <ele>697.5</ele>
        <time>2015-12-06T09:08:55Z</time>
      </trkpt>
      <trkpt lat="44.12628" lon="3.2466">
        <ele>695.5</ele>
        <time>2015-12-06T09:08:56Z</time>
      </trkpt>
      <trkpt lat="44.12626" lon="3.24659">
        <ele>693.5</ele>
        <time>2015-12-06T09:08:57Z</time>
      </trkpt>
      <trkpt lat="44.12621" lon="3.2465">
        <ele>690.5</ele>
        <time>2015-12-06T09:08:59Z</time>
      </trkpt>
      <trkpt lat="44.12613" lon="3.24646">
        <ele>684</ele>
        <time>2015-12-06T09:09:01Z</time>
      </trkpt>
      <trkpt lat="44.12612" lon="3.24643">
        <ele>683.5</ele>
        <time>2015-12-06T09:09:03Z</time>
      </trkpt>
      <trkpt lat="44.12609" lon="3.24641">
        <ele>682</ele>
        <time>2015-12-06T09:09:04Z</time>
      </trkpt>
      <trkpt lat="44.12607" lon="3.24638">
        <ele>682</ele>
        <time>2015-12-06T09:09:05Z</time>
      </trkpt>
      <trkpt lat="44.12604" lon="3.24637">
        <ele>681</ele>
        <time>2015-12-06T09:09:06Z</time>
      </trkpt>
      <trkpt lat="44.12601" lon="3.24634">
        <ele>680.5</ele>
        <time>2015-12-06T09:09:07Z</time>
      </trkpt>
      <trkpt lat="44.126" lon="3.24632">
        <ele>680.5</ele>
        <time>2015-12-06T09:09:08Z</time>
      </trkpt>
      <trkpt lat="44.12598" lon="3.2463">
        <ele>679</ele>
        <time>2015-12-06T09:09:09Z</time>
      </trkpt>
      <trkpt lat="44.12596" lon="3.24628">
        <ele>680</ele>
        <time>2015-12-06T09:09:10Z</time>
      </trkpt>
      <trkpt lat="44.12594" lon="3.24627">
        <ele>680.5</ele>
        <time>2015-12-06T09:09:11Z</time>
      </trkpt>
      <trkpt lat="44.12591" lon="3.24624">
        <ele>681.5</ele>
        <time>2015-12-06T09:09:12Z</time>
      </trkpt>
      <trkpt lat="44.12589" lon="3.24623">
        <ele>681.5</ele>
        <time>2015-12-06T09:09:13Z</time>
      </trkpt>
      <trkpt lat="44.12586" lon="3.2462">
        <ele>681.5</ele>
        <time>2015-12-06T09:09:14Z</time>
      </trkpt>
      <trkpt lat="44.12584" lon="3.24618">
        <ele>682</ele>
        <time>2015-12-06T09:09:15Z</time>
      </trkpt>
      <trkpt lat="44.12581" lon="3.24616">
        <ele>682.5</ele>
        <time>2015-12-06T09:09:16Z</time>
      </trkpt>
      <trkpt lat="44.12579" lon="3.24613">
        <ele>682.5</ele>
        <time>2015-12-06T09:09:17Z</time>
      </trkpt>
      <trkpt lat="44.12577" lon="3.24611">
        <ele>682</ele>
        <time>2015-12-06T09:09:18Z</time>
      </trkpt>
      <trkpt lat="44.12575" lon="3.24608">
        <ele>682</ele>
        <time>2015-12-06T09:09:19Z</time>
      </trkpt>
      <trkpt lat="44.12574" lon="3.24605">
        <ele>682</ele>
        <time>2015-12-06T09:09:20Z</time>
      </trkpt>
      <trkpt lat="44.12572" lon="3.24604">
        <ele>682.5</ele>
        <time>2015-12-06T09:09:21Z</time>
      </trkpt>
      <trkpt lat="44.12569" lon="3.24603">
        <ele>682.5</ele>
        <time>2015-12-06T09:09:22Z</time>
      </trkpt>
      <trkpt lat="44.12567" lon="3.24602">
        <ele>681.5</ele>
        <time>2015-12-06T09:09:23Z</time>
      </trkpt>
      <trkpt lat="44.12564" lon="3.246">
        <ele>681</ele>
        <time>2015-12-06T09:09:24Z</time>
      </trkpt>
      <trkpt lat="44.12562" lon="3.24598">
        <ele>681</ele>
        <time>2015-12-06T09:09:25Z</time>
      </trkpt>
      <trkpt lat="44.12561" lon="3.24597">
        <ele>681.5</ele>
        <time>2015-12-06T09:09:26Z</time>
      </trkpt>
      <trkpt lat="44.12559" lon="3.24595">
        <ele>681.5</ele>
        <time>2015-12-06T09:09:27Z</time>
      </trkpt>
      <trkpt lat="44.12558" lon="3.24595">
        <ele>681.5</ele>
        <time>2015-12-06T09:09:28Z</time>
      </trkpt>
      <trkpt lat="44.12556" lon="3.24595">
        <ele>682</ele>
        <time>2015-12-06T09:09:29Z</time>
      </trkpt>
      <trkpt lat="44.12556" lon="3.24595">
        <ele>682</ele>
        <time>2015-12-06T09:09:30Z</time>
      </trkpt>
      <trkpt lat="44.12555" lon="3.24596">
        <ele>681.5</ele>
        <time>2015-12-06T09:09:31Z</time>
      </trkpt>
      <trkpt lat="44.12555" lon="3.24596">
        <ele>681</ele>
        <time>2015-12-06T09:09:32Z</time>
      </trkpt>
      <trkpt lat="44.12556" lon="3.24598">
        <ele>681</ele>
        <time>2015-12-06T09:09:33Z</time>
      </trkpt>
      <trkpt lat="44.12557" lon="3.24599">
        <ele>681</ele>
        <time>2015-12-06T09:09:34Z</time>
      </trkpt>
      <trkpt lat="44.12558" lon="3.246">
        <ele>681</ele>
        <time>2015-12-06T09:09:35Z</time>
      </trkpt>
      <trkpt lat="44.12559" lon="3.24601">
        <ele>681.5</ele>
        <time>2015-12-06T09:09:36Z</time>
      </trkpt>
      <trkpt lat="44.1256" lon="3.24602">
        <ele>682</ele>
        <time>2015-12-06T09:09:37Z</time>
      </trkpt>
      <trkpt lat="44.12562" lon="3.24604">
        <ele>682</ele>
        <time>2015-12-06T09:09:38Z</time>
      </trkpt>
      <trkpt lat="44.12562" lon="3.24605">
        <ele>682</ele>
        <time>2015-12-06T09:09:39Z</time>
      </trkpt>
      <trkpt lat="44.12563" lon="3.24606">
        <ele>682.5</ele>
        <time>2015-12-06T09:09:40Z</time>
      </trkpt>
      <trkpt lat="44.12564" lon="3.24607">
        <ele>682.5</ele>
        <time>2015-12-06T09:09:41Z</time>
      </trkpt>
      <trkpt lat="44.12565" lon="3.24609">
        <ele>682.5</ele>
        <time>2015-12-06T09:09:42Z</time>
      </trkpt>
      <trkpt lat="44.12566" lon="3.24611">
        <ele>682.5</ele>
        <time>2015-12-06T09:09:43Z</time>
      </trkpt>
      <trkpt lat="44.12567" lon="3.24612">
        <ele>682</ele>
        <time>2015-12-06T09:09:44Z</time>
      </trkpt>
      <trkpt lat="44.12568" lon="3.24613">
        <ele>682.5</ele>
        <time>2015-12-06T09:09:45Z</time>
      </trkpt>
      <trkpt lat="44.12568" lon="3.24614">
        <ele>682.5</ele>
        <time>2015-12-06T09:09:46Z</time>
      </trkpt>
      <trkpt lat="44.12569" lon="3.24615">
        <ele>682.5</ele>
        <time>2015-12-06T09:09:47Z</time>
      </trkpt>
      <trkpt lat="44.1257" lon="3.24616">
        <ele>682</ele>
        <time>2015-12-06T09:09:48Z</time>
      </trkpt>
      <trkpt lat="44.1257" lon="3.24617">
        <ele>682</ele>
        <time>2015-12-06T09:09:49Z</time>
      </trkpt>
      <trkpt lat="44.12571" lon="3.24618">
        <ele>682</ele>
        <time>2015-12-06T09:09:50Z</time>
      </trkpt>
      <trkpt lat="44.12572" lon="3.24619">
        <ele>682</ele>
        <time>2015-12-06T09:09:51Z</time>
      </trkpt>
      <trkpt lat="44.12573" lon="3.2462">
        <ele>682.5</ele>
        <time>2015-12-06T09:09:52Z</time>
      </trkpt>
      <trkpt lat="44.12574" lon="3.24621">
        <ele>683</ele>
        <time>2015-12-06T09:09:53Z</time>
      </trkpt>
      <trkpt lat="44.12575" lon="3.24622">
        <ele>683</ele>
        <time>2015-12-06T09:09:54Z</time>
      </trkpt>
      <trkpt lat="44.12576" lon="3.24622">
        <ele>683.5</ele>
        <time>2015-12-06T09:09:55Z</time>
      </trkpt>
      <trkpt lat="44.12577" lon="3.24623">
        <ele>683.5</ele>
        <time>2015-12-06T09:09:56Z</time>
      </trkpt>
      <trkpt lat="44.12578" lon="3.24624">
        <ele>684</ele>
        <time>2015-12-06T09:09:57Z</time>
      </trkpt>
      <trkpt lat="44.12579" lon="3.24625">
        <ele>684.5</ele>
        <time>2015-12-06T09:09:58Z</time>
      </trkpt>
      <trkpt lat="44.1258" lon="3.24626">
        <ele>684.5</ele>
        <time>2015-12-06T09:09:59Z</time>
      </trkpt>
      <trkpt lat="44.12581" lon="3.24627">
        <ele>685</ele>
        <time>2015-12-06T09:10:00Z</time>
      </trkpt>
      <trkpt lat="44.12582" lon="3.24627">
        <ele>685.5</ele>
        <time>2015-12-06T09:10:01Z</time>
      </trkpt>
      <trkpt lat="44.12583" lon="3.24628">
        <ele>686</ele>
        <time>2015-12-06T09:10:02Z</time>
      </trkpt>
      <trkpt lat="44.12584" lon="3.24629">
        <ele>686</ele>
        <time>2015-12-06T09:10:03Z</time>
      </trkpt>
      <trkpt lat="44.12585" lon="3.24631">
        <ele>686</ele>
        <time>2015-12-06T09:10:04Z</time>
      </trkpt>
      <trkpt lat="44.12586" lon="3.24633">
        <ele>686</ele>
        <time>2015-12-06T09:10:05Z</time>
      </trkpt>
      <trkpt lat="44.12587" lon="3.24634">
        <ele>686.5</ele>
        <time>2015-12-06T09:10:06Z</time>
      </trkpt>
      <trkpt lat="44.12588" lon="3.24635">
        <ele>687</ele>
        <time>2015-12-06T09:10:07Z</time>
      </trkpt>
      <trkpt lat="44.1259" lon="3.24637">
        <ele>688</ele>
        <time>2015-12-06T09:10:08Z</time>
      </trkpt>
      <trkpt lat="44.12591" lon="3.24638">
        <ele>688</ele>
        <time>2015-12-06T09:10:09Z</time>
      </trkpt>
      <trkpt lat="44.12592" lon="3.24639">
        <ele>689</ele>
        <time>2015-12-06T09:10:10Z</time>
      </trkpt>
      <trkpt lat="44.12593" lon="3.2464">
        <ele>689</ele>
        <time>2015-12-06T09:10:11Z</time>
      </trkpt>
      <trkpt lat="44.12594" lon="3.24641">
        <ele>689</ele>
        <time>2015-12-06T09:10:12Z</time>
      </trkpt>
      <trkpt lat="44.12595" lon="3.24642">
        <ele>689.5</ele>
        <time>2015-12-06T09:10:13Z</time>
      </trkpt>
      <trkpt lat="44.12596" lon="3.24643">
        <ele>690</ele>
        <time>2015-12-06T09:10:14Z</time>
      </trkpt>
      <trkpt lat="44.12597" lon="3.24643">
        <ele>691</ele>
        <time>2015-12-06T09:10:15Z</time>
      </trkpt>
      <trkpt lat="44.12598" lon="3.24644">
        <ele>692</ele>
        <time>2015-12-06T09:10:16Z</time>
      </trkpt>
      <trkpt lat="44.12599" lon="3.24646">
        <ele>692</ele>
        <time>2015-12-06T09:10:17Z</time>
      </trkpt>
      <trkpt lat="44.126" lon="3.24647">
        <ele>693</ele>
        <time>2015-12-06T09:10:18Z</time>
      </trkpt>
      <trkpt lat="44.12601" lon="3.24648">
        <ele>693</ele>
        <time>2015-12-06T09:10:19Z</time>
      </trkpt>
      <trkpt lat="44.12602" lon="3.24649">
        <ele>693.5</ele>
        <time>2015-12-06T09:10:20Z</time>
      </trkpt>
      <trkpt lat="44.12603" lon="3.2465">
        <ele>694</ele>
        <time>2015-12-06T09:10:21Z</time>
      </trkpt>
      <trkpt lat="44.12604" lon="3.24651">
        <ele>694.5</ele>
        <time>2015-12-06T09:10:22Z</time>
      </trkpt>
      <trkpt lat="44.12605" lon="3.24652">
        <ele>694.5</ele>
        <time>2015-12-06T09:10:23Z</time>
      </trkpt>
      <trkpt lat="44.12606" lon="3.24653">
        <ele>695</ele>
        <time>2015-12-06T09:10:24Z</time>
      </trkpt>
      <trkpt lat="44.12608" lon="3.24654">
        <ele>695.5</ele>
        <time>2015-12-06T09:10:25Z</time>
      </trkpt>
      <trkpt lat="44.12609" lon="3.24656">
        <ele>695.5</ele>
        <time>2015-12-06T09:10:26Z</time>
      </trkpt>
      <trkpt lat="44.1261" lon="3.24658">
        <ele>695.5</ele>
        <time>2015-12-06T09:10:27Z</time>
      </trkpt>
      <trkpt lat="44.12611" lon="3.2466">
        <ele>695.5</ele>
        <time>2015-12-06T09:10:28Z</time>
      </trkpt>
      <trkpt lat="44.12612" lon="3.24661">
        <ele>695.5</ele>
        <time>2015-12-06T09:10:29Z</time>
      </trkpt>
      <trkpt lat="44.12613" lon="3.24663">
        <ele>695.5</ele>
        <time>2015-12-06T09:10:30Z</time>
      </trkpt>
      <trkpt lat="44.12614" lon="3.24663">
        <ele>696</ele>
        <time>2015-12-06T09:10:31Z</time>
      </trkpt>
      <trkpt lat="44.12615" lon="3.24665">
        <ele>696.5</ele>
        <time>2015-12-06T09:10:32Z</time>
      </trkpt>
      <trkpt lat="44.12616" lon="3.24667">
        <ele>696.5</ele>
        <time>2015-12-06T09:10:33Z</time>
      </trkpt>
      <trkpt lat="44.12617" lon="3.24668">
        <ele>697</ele>
        <time>2015-12-06T09:10:34Z</time>
      </trkpt>
      <trkpt lat="44.12617" lon="3.24668">
        <ele>697</ele>
        <time>2015-12-06T09:10:35Z</time>
      </trkpt>
      <trkpt lat="44.12619" lon="3.2467">
        <ele>697.5</ele>
        <time>2015-12-06T09:10:36Z</time>
      </trkpt>
      <trkpt lat="44.12619" lon="3.24672">
        <ele>697.5</ele>
        <time>2015-12-06T09:10:37Z</time>
      </trkpt>
      <trkpt lat="44.1262" lon="3.24673">
        <ele>697</ele>
        <time>2015-12-06T09:10:38Z</time>
      </trkpt>
      <trkpt lat="44.12621" lon="3.24675">
        <ele>697</ele>
        <time>2015-12-06T09:10:39Z</time>
      </trkpt>
      <trkpt lat="44.12622" lon="3.24677">
        <ele>697</ele>
        <time>2015-12-06T09:10:40Z</time>
      </trkpt>
      <trkpt lat="44.12623" lon="3.24678">
        <ele>697.5</ele>
        <time>2015-12-06T09:10:40Z</time>
      </trkpt>
      <trkpt lat="44.12624" lon="3.2468">
        <ele>697.5</ele>
        <time>2015-12-06T09:10:42Z</time>
      </trkpt>
      <trkpt lat="44.12625" lon="3.24681">
        <ele>697.5</ele>
        <time>2015-12-06T09:10:42Z</time>
      </trkpt>
      <trkpt lat="44.12627" lon="3.24682">
        <ele>698</ele>
        <time>2015-12-06T09:10:43Z</time>
      </trkpt>
      <trkpt lat="44.12628" lon="3.24684">
        <ele>698.5</ele>
        <time>2015-12-06T09:10:44Z</time>
      </trkpt>
      <trkpt lat="44.12629" lon="3.24684">
        <ele>698.5</ele>
        <time>2015-12-06T09:10:45Z</time>
      </trkpt>
      <trkpt lat="44.1263" lon="3.24686">
        <ele>698.5</ele>
        <time>2015-12-06T09:10:46Z</time>
      </trkpt>
      <trkpt lat="44.12631" lon="3.24687">
        <ele>698.5</ele>
        <time>2015-12-06T09:10:47Z</time>
      </trkpt>
      <trkpt lat="44.12632" lon="3.24689">
        <ele>698.5</ele>
        <time>2015-12-06T09:10:48Z</time>
      </trkpt>
      <trkpt lat="44.12633" lon="3.24691">
        <ele>698.5</ele>
        <time>2015-12-06T09:10:49Z</time>
      </trkpt>
      <trkpt lat="44.12634" lon="3.24692">
        <ele>698.5</ele>
        <time>2015-12-06T09:10:51Z</time>
      </trkpt>
      <trkpt lat="44.12635" lon="3.24694">
        <ele>698.5</ele>
        <time>2015-12-06T09:10:51Z</time>
      </trkpt>
      <trkpt lat="44.12635" lon="3.24695">
        <ele>698</ele>
        <time>2015-12-06T09:10:52Z</time>
      </trkpt>
      <trkpt lat="44.12636" lon="3.24697">
        <ele>698</ele>
        <time>2015-12-06T09:10:53Z</time>
      </trkpt>
      <trkpt lat="44.12637" lon="3.24698">
        <ele>698</ele>
        <time>2015-12-06T09:10:54Z</time>
      </trkpt>
      <trkpt lat="44.12638" lon="3.24699">
        <ele>698.5</ele>
        <time>2015-12-06T09:10:55Z</time>
      </trkpt>
      <trkpt lat="44.12639" lon="3.24702">
        <ele>698.5</ele>
        <time>2015-12-06T09:10:56Z</time>
      </trkpt>
      <trkpt lat="44.1264" lon="3.24704">
        <ele>698.5</ele>
        <time>2015-12-06T09:10:57Z</time>
      </trkpt>
      <trkpt lat="44.1264" lon="3.24704">
        <ele>699</ele>
        <time>2015-12-06T09:10:58Z</time>
      </trkpt>
      <trkpt lat="44.12641" lon="3.24705">
        <ele>699.5</ele>
        <time>2015-12-06T09:10:59Z</time>
      </trkpt>
      <trkpt lat="44.12641" lon="3.24707">
        <ele>699</ele>
        <time>2015-12-06T09:11:00Z</time>
      </trkpt>
      <trkpt lat="44.12642" lon="3.24709">
        <ele>699.5</ele>
        <time>2015-12-06T09:11:01Z</time>
      </trkpt>
      <trkpt lat="44.12642" lon="3.2471">
        <ele>699.5</ele>
        <time>2015-12-06T09:11:02Z</time>
      </trkpt>
      <trkpt lat="44.12643" lon="3.24711">
        <ele>701</ele>
        <time>2015-12-06T09:11:03Z</time>
      </trkpt>
      <trkpt lat="44.12644" lon="3.24711">
        <ele>701</ele>
        <time>2015-12-06T09:11:05Z</time>
      </trkpt>
      <trkpt lat="44.12645" lon="3.24712">
        <ele>701</ele>
        <time>2015-12-06T09:11:06Z</time>
      </trkpt>
      <trkpt lat="44.12646" lon="3.24713">
        <ele>701</ele>
        <time>2015-12-06T09:11:07Z</time>
      </trkpt>
      <trkpt lat="44.12647" lon="3.24714">
        <ele>701.5</ele>
        <time>2015-12-06T09:11:08Z</time>
      </trkpt>
      <trkpt lat="44.12648" lon="3.24715">
        <ele>702</ele>
        <time>2015-12-06T09:11:09Z</time>
      </trkpt>
      <trkpt lat="44.12649" lon="3.24716">
        <ele>702</ele>
        <time>2015-12-06T09:11:10Z</time>
      </trkpt>
      <trkpt lat="44.1265" lon="3.24717">
        <ele>702.5</ele>
        <time>2015-12-06T09:11:11Z</time>
      </trkpt>
      <trkpt lat="44.12652" lon="3.24717">
        <ele>703.5</ele>
        <time>2015-12-06T09:11:12Z</time>
      </trkpt>
      <trkpt lat="44.12653" lon="3.24718">
        <ele>703.5</ele>
        <time>2015-12-06T09:11:13Z</time>
      </trkpt>
      <trkpt lat="44.12655" lon="3.24719">
        <ele>704</ele>
        <time>2015-12-06T09:11:14Z</time>
      </trkpt>
      <trkpt lat="44.12658" lon="3.24722">
        <ele>704.5</ele>
        <time>2015-12-06T09:11:15Z</time>
      </trkpt>
      <trkpt lat="44.1266" lon="3.24724">
        <ele>705</ele>
        <time>2015-12-06T09:11:16Z</time>
      </trkpt>
      <trkpt lat="44.12662" lon="3.24726">
        <ele>705.5</ele>
        <time>2015-12-06T09:11:17Z</time>
      </trkpt>
      <trkpt lat="44.12664" lon="3.24727">
        <ele>706.5</ele>
        <time>2015-12-06T09:11:18Z</time>
      </trkpt>
      <trkpt lat="44.12666" lon="3.24728">
        <ele>707</ele>
        <time>2015-12-06T09:11:19Z</time>
      </trkpt>
      <trkpt lat="44.12668" lon="3.24728">
        <ele>707.5</ele>
        <time>2015-12-06T09:11:20Z</time>
      </trkpt>
      <trkpt lat="44.12669" lon="3.24729">
        <ele>707.5</ele>
        <time>2015-12-06T09:11:21Z</time>
      </trkpt>
      <trkpt lat="44.12671" lon="3.2473">
        <ele>708</ele>
        <time>2015-12-06T09:11:22Z</time>
      </trkpt>
      <trkpt lat="44.12672" lon="3.24731">
        <ele>708.5</ele>
        <time>2015-12-06T09:11:23Z</time>
      </trkpt>
      <trkpt lat="44.12674" lon="3.24733">
        <ele>709</ele>
        <time>2015-12-06T09:11:24Z</time>
      </trkpt>
      <trkpt lat="44.12676" lon="3.24735">
        <ele>709.5</ele>
        <time>2015-12-06T09:11:25Z</time>
      </trkpt>
      <trkpt lat="44.12678" lon="3.24736">
        <ele>709.5</ele>
        <time>2015-12-06T09:11:26Z</time>
      </trkpt>
      <trkpt lat="44.12679" lon="3.24737">
        <ele>710.5</ele>
        <time>2015-12-06T09:11:27Z</time>
      </trkpt>
      <trkpt lat="44.1268" lon="3.24738">
        <ele>710.5</ele>
        <time>2015-12-06T09:11:28Z</time>
      </trkpt>
      <trkpt lat="44.12682" lon="3.2474">
        <ele>710.5</ele>
        <time>2015-12-06T09:11:29Z</time>
      </trkpt>
      <trkpt lat="44.12683" lon="3.24741">
        <ele>710.5</ele>
        <time>2015-12-06T09:11:30Z</time>
      </trkpt>
      <trkpt lat="44.12684" lon="3.24741">
        <ele>711</ele>
        <time>2015-12-06T09:11:31Z</time>
      </trkpt>
      <trkpt lat="44.12685" lon="3.24742">
        <ele>711</ele>
        <time>2015-12-06T09:11:32Z</time>
      </trkpt>
      <trkpt lat="44.12686" lon="3.24744">
        <ele>711</ele>
        <time>2015-12-06T09:11:33Z</time>
      </trkpt>
      <trkpt lat="44.12687" lon="3.24745">
        <ele>711</ele>
        <time>2015-12-06T09:11:34Z</time>
      </trkpt>
      <trkpt lat="44.12688" lon="3.24746">
        <ele>711.5</ele>
        <time>2015-12-06T09:11:35Z</time>
      </trkpt>
      <trkpt lat="44.12689" lon="3.24747">
        <ele>712</ele>
        <time>2015-12-06T09:11:36Z</time>
      </trkpt>
      <trkpt lat="44.12691" lon="3.24749">
        <ele>712</ele>
        <time>2015-12-06T09:11:37Z</time>
      </trkpt>
      <trkpt lat="44.12692" lon="3.24751">
        <ele>712</ele>
        <time>2015-12-06T09:11:38Z</time>
      </trkpt>
      <trkpt lat="44.12693" lon="3.24752">
        <ele>712.5</ele>
        <time>2015-12-06T09:11:39Z</time>
      </trkpt>
      <trkpt lat="44.12694" lon="3.24754">
        <ele>713</ele>
        <time>2015-12-06T09:11:40Z</time>
      </trkpt>
      <trkpt lat="44.12696" lon="3.24755">
        <ele>713.5</ele>
        <time>2015-12-06T09:11:41Z</time>
      </trkpt>
      <trkpt lat="44.12697" lon="3.24757">
        <ele>713.5</ele>
        <time>2015-12-06T09:11:42Z</time>
      </trkpt>
      <trkpt lat="44.12698" lon="3.24758">
        <ele>713.5</ele>
        <time>2015-12-06T09:11:43Z</time>
      </trkpt>
      <trkpt lat="44.12699" lon="3.2476">
        <ele>714</ele>
        <time>2015-12-06T09:11:44Z</time>
      </trkpt>
      <trkpt lat="44.127" lon="3.24761">
        <ele>714</ele>
        <time>2015-12-06T09:11:45Z</time>
      </trkpt>
      <trkpt lat="44.12701" lon="3.24763">
        <ele>714</ele>
        <time>2015-12-06T09:11:46Z</time>
      </trkpt>
      <trkpt lat="44.12702" lon="3.24764">
        <ele>714.5</ele>
        <time>2015-12-06T09:11:47Z</time>
      </trkpt>
      <trkpt lat="44.12703" lon="3.24765">
        <ele>714.5</ele>
        <time>2015-12-06T09:11:48Z</time>
      </trkpt>
      <trkpt lat="44.12704" lon="3.24767">
        <ele>714.5</ele>
        <time>2015-12-06T09:11:49Z</time>
      </trkpt>
      <trkpt lat="44.12705" lon="3.24768">
        <ele>715</ele>
        <time>2015-12-06T09:11:50Z</time>
      </trkpt>
      <trkpt lat="44.12706" lon="3.24769">
        <ele>715.5</ele>
        <time>2015-12-06T09:11:51Z</time>
      </trkpt>
      <trkpt lat="44.12707" lon="3.2477">
        <ele>715.5</ele>
        <time>2015-12-06T09:11:52Z</time>
      </trkpt>
      <trkpt lat="44.12708" lon="3.24772">
        <ele>716</ele>
        <time>2015-12-06T09:11:53Z</time>
      </trkpt>
      <trkpt lat="44.12709" lon="3.24773">
        <ele>716</ele>
        <time>2015-12-06T09:11:54Z</time>
      </trkpt>
      <trkpt lat="44.1271" lon="3.24774">
        <ele>716.5</ele>
        <time>2015-12-06T09:11:55Z</time>
      </trkpt>
      <trkpt lat="44.12711" lon="3.24776">
        <ele>717</ele>
        <time>2015-12-06T09:11:56Z</time>
      </trkpt>
      <trkpt lat="44.12713" lon="3.24777">
        <ele>717</ele>
        <time>2015-12-06T09:11:57Z</time>
      </trkpt>
      <trkpt lat="44.12715" lon="3.24778">
        <ele>718</ele>
        <time>2015-12-06T09:11:58Z</time>
      </trkpt>
      <trkpt lat="44.12716" lon="3.2478">
        <ele>718</ele>
        <time>2015-12-06T09:11:59Z</time>
      </trkpt>
      <trkpt lat="44.12717" lon="3.24781">
        <ele>718.5</ele>
        <time>2015-12-06T09:12:00Z</time>
      </trkpt>
      <trkpt lat="44.12719" lon="3.24782">
        <ele>719</ele>
        <time>2015-12-06T09:12:01Z</time>
      </trkpt>
      <trkpt lat="44.12721" lon="3.24782">
        <ele>719.5</ele>
        <time>2015-12-06T09:12:02Z</time>
      </trkpt>
      <trkpt lat="44.12723" lon="3.24784">
        <ele>720</ele>
        <time>2015-12-06T09:12:03Z</time>
      </trkpt>
      <trkpt lat="44.12724" lon="3.24784">
        <ele>720.5</ele>
        <time>2015-12-06T09:12:04Z</time>
      </trkpt>
      <trkpt lat="44.12726" lon="3.24784">
        <ele>720.5</ele>
        <time>2015-12-06T09:12:05Z</time>
      </trkpt>
      <trkpt lat="44.12728" lon="3.24785">
        <ele>721</ele>
        <time>2015-12-06T09:12:06Z</time>
      </trkpt>
      <trkpt lat="44.12729" lon="3.24786">
        <ele>721</ele>
        <time>2015-12-06T09:12:07Z</time>
      </trkpt>
      <trkpt lat="44.12731" lon="3.24786">
        <ele>721</ele>
        <time>2015-12-06T09:12:08Z</time>
      </trkpt>
      <trkpt lat="44.12732" lon="3.24787">
        <ele>721.5</ele>
        <time>2015-12-06T09:12:09Z</time>
      </trkpt>
      <trkpt lat="44.12734" lon="3.24788">
        <ele>721.5</ele>
        <time>2015-12-06T09:12:10Z</time>
      </trkpt>
      <trkpt lat="44.12735" lon="3.24788">
        <ele>721.5</ele>
        <time>2015-12-06T09:12:11Z</time>
      </trkpt>
      <trkpt lat="44.12737" lon="3.24789">
        <ele>722</ele>
        <time>2015-12-06T09:12:12Z</time>
      </trkpt>
      <trkpt lat="44.12739" lon="3.24789">
        <ele>722.5</ele>
        <time>2015-12-06T09:12:13Z</time>
      </trkpt>
      <trkpt lat="44.1274" lon="3.24789">
        <ele>723</ele>
        <time>2015-12-06T09:12:14Z</time>
      </trkpt>
      <trkpt lat="44.12742" lon="3.2479">
        <ele>723</ele>
        <time>2015-12-06T09:12:15Z</time>
      </trkpt>
      <trkpt lat="44.12743" lon="3.24791">
        <ele>723</ele>
        <time>2015-12-06T09:12:16Z</time>
      </trkpt>
      <trkpt lat="44.12744" lon="3.24791">
        <ele>724</ele>
        <time>2015-12-06T09:12:17Z</time>
      </trkpt>
      <trkpt lat="44.12746" lon="3.24791">
        <ele>724</ele>
        <time>2015-12-06T09:12:18Z</time>
      </trkpt>
      <trkpt lat="44.12747" lon="3.24791">
        <ele>725</ele>
        <time>2015-12-06T09:12:19Z</time>
      </trkpt>
      <trkpt lat="44.12749" lon="3.24791">
        <ele>725.5</ele>
        <time>2015-12-06T09:12:20Z</time>
      </trkpt>
      <trkpt lat="44.12751" lon="3.24792">
        <ele>726.5</ele>
        <time>2015-12-06T09:12:21Z</time>
      </trkpt>
      <trkpt lat="44.12752" lon="3.24792">
        <ele>727</ele>
        <time>2015-12-06T09:12:22Z</time>
      </trkpt>
      <trkpt lat="44.12754" lon="3.24792">
        <ele>727.5</ele>
        <time>2015-12-06T09:12:23Z</time>
      </trkpt>
      <trkpt lat="44.12756" lon="3.24792">
        <ele>728.5</ele>
        <time>2015-12-06T09:12:24Z</time>
      </trkpt>
      <trkpt lat="44.12757" lon="3.24792">
        <ele>729</ele>
        <time>2015-12-06T09:12:25Z</time>
      </trkpt>
      <trkpt lat="44.12759" lon="3.24792">
        <ele>729</ele>
        <time>2015-12-06T09:12:26Z</time>
      </trkpt>
      <trkpt lat="44.1276" lon="3.24792">
        <ele>730</ele>
        <time>2015-12-06T09:12:27Z</time>
      </trkpt>
      <trkpt lat="44.12761" lon="3.24793">
        <ele>730.5</ele>
        <time>2015-12-06T09:12:28Z</time>
      </trkpt>
      <trkpt lat="44.12762" lon="3.24794">
        <ele>730</ele>
        <time>2015-12-06T09:12:29Z</time>
      </trkpt>
      <trkpt lat="44.12763" lon="3.24794">
        <ele>730.5</ele>
        <time>2015-12-06T09:12:30Z</time>
      </trkpt>
      <trkpt lat="44.12763" lon="3.24796">
        <ele>730.5</ele>
        <time>2015-12-06T09:12:31Z</time>
      </trkpt>
      <trkpt lat="44.12763" lon="3.24796">
        <ele>731</ele>
        <time>2015-12-06T09:12:32Z</time>
      </trkpt>
      <trkpt lat="44.12763" lon="3.24797">
        <ele>730.5</ele>
        <time>2015-12-06T09:12:33Z</time>
      </trkpt>
      <trkpt lat="44.12762" lon="3.24798">
        <ele>730</ele>
        <time>2015-12-06T09:12:34Z</time>
      </trkpt>
      <trkpt lat="44.12762" lon="3.24799">
        <ele>730</ele>
        <time>2015-12-06T09:12:36Z</time>
      </trkpt>
      <trkpt lat="44.12762" lon="3.24799">
        <ele>729.5</ele>
        <time>2015-12-06T09:12:37Z</time>
      </trkpt>
      <trkpt lat="44.12762" lon="3.248">
        <ele>729.5</ele>
        <time>2015-12-06T09:12:40Z</time>
      </trkpt>
      <trkpt lat="44.12762" lon="3.248">
        <ele>729.5</ele>
        <time>2015-12-06T09:12:42Z</time>
      </trkpt>
      <trkpt lat="44.12764" lon="3.24804">
        <ele>727</ele>
        <time>2015-12-06T09:13:05Z</time>
      </trkpt>
      <trkpt lat="44.12765" lon="3.24804">
        <ele>726.5</ele>
        <time>2015-12-06T09:13:08Z</time>
      </trkpt>
      <trkpt lat="44.12762" lon="3.24804">
        <ele>728.5</ele>
        <time>2015-12-06T09:13:10Z</time>
      </trkpt>
      <trkpt lat="44.12762" lon="3.24804">
        <ele>728.5</ele>
        <time>2015-12-06T09:13:14Z</time>
      </trkpt>
      <trkpt lat="44.12764" lon="3.24805">
        <ele>727</ele>
        <time>2015-12-06T09:13:20Z</time>
      </trkpt>
      <trkpt lat="44.12769" lon="3.24804">
        <ele>726.5</ele>
        <time>2015-12-06T09:13:31Z</time>
      </trkpt>
      <trkpt lat="44.12769" lon="3.24804">
        <ele>726.5</ele>
        <time>2015-12-06T09:13:32Z</time>
      </trkpt>
      <trkpt lat="44.12769" lon="3.24805">
        <ele>726</ele>
        <time>2015-12-06T09:13:33Z</time>
      </trkpt>
      <trkpt lat="44.12767" lon="3.24809">
        <ele>726.5</ele>
        <time>2015-12-06T09:13:44Z</time>
      </trkpt>
      <trkpt lat="44.12767" lon="3.24809">
        <ele>726.5</ele>
        <time>2015-12-06T09:13:45Z</time>
      </trkpt>
      <trkpt lat="44.12767" lon="3.2481">
        <ele>725.5</ele>
        <time>2015-12-06T09:13:52Z</time>
      </trkpt>
      <trkpt lat="44.12766" lon="3.24812">
        <ele>724</ele>
        <time>2015-12-06T09:14:22Z</time>
      </trkpt>
      <trkpt lat="44.12766" lon="3.24817">
        <ele>721</ele>
        <time>2015-12-06T09:14:39Z</time>
      </trkpt>
      <trkpt lat="44.12767" lon="3.24817">
        <ele>720</ele>
        <time>2015-12-06T09:14:48Z</time>
      </trkpt>
      <trkpt lat="44.12767" lon="3.24817">
        <ele>720</ele>
        <time>2015-12-06T09:14:49Z</time>
      </trkpt>
      <trkpt lat="44.12767" lon="3.24817">
        <ele>720</ele>
        <time>2015-12-06T09:14:50Z</time>
      </trkpt>
      <trkpt lat="44.12768" lon="3.24817">
        <ele>720.5</ele>
        <time>2015-12-06T09:14:51Z</time>
      </trkpt>
      <trkpt lat="44.12768" lon="3.24816">
        <ele>720.5</ele>
        <time>2015-12-06T09:14:52Z</time>
      </trkpt>
      <trkpt lat="44.12767" lon="3.24816">
        <ele>718.5</ele>
        <time>2015-12-06T09:15:22Z</time>
      </trkpt>
      <trkpt lat="44.12768" lon="3.24817">
        <ele>718</ele>
        <time>2015-12-06T09:15:24Z</time>
      </trkpt>
      <trkpt lat="44.12768" lon="3.24817">
        <ele>716.5</ele>
        <time>2015-12-06T09:15:33Z</time>
      </trkpt>
      <trkpt lat="44.12769" lon="3.24816">
        <ele>718</ele>
        <time>2015-12-06T09:15:08Z</time>
      </trkpt>
      <trkpt lat="44.1277" lon="3.24817">
        <ele>717.5</ele>
        <time>2015-12-06T09:15:09Z</time>
      </trkpt>
      <trkpt lat="44.12772" lon="3.24816">
        <ele>718.5</ele>
        <time>2015-12-06T09:15:10Z</time>
      </trkpt>
      <trkpt lat="44.12774" lon="3.24815">
        <ele>719.5</ele>
        <time>2015-12-06T09:15:11Z</time>
      </trkpt>
      <trkpt lat="44.12776" lon="3.24814">
        <ele>721</ele>
        <time>2015-12-06T09:15:12Z</time>
      </trkpt>
      <trkpt lat="44.12778" lon="3.24813">
        <ele>721.5</ele>
        <time>2015-12-06T09:15:13Z</time>
      </trkpt>
      <trkpt lat="44.1278" lon="3.24813">
        <ele>722.5</ele>
        <time>2015-12-06T09:15:14Z</time>
      </trkpt>
      <trkpt lat="44.12782" lon="3.24812">
        <ele>723.5</ele>
        <time>2015-12-06T09:15:15Z</time>
      </trkpt>
      <trkpt lat="44.12784" lon="3.24811">
        <ele>724.5</ele>
        <time>2015-12-06T09:15:16Z</time>
      </trkpt>
      <trkpt lat="44.12786" lon="3.2481">
        <ele>725.5</ele>
        <time>2015-12-06T09:15:17Z</time>
      </trkpt>
      <trkpt lat="44.12787" lon="3.24808">
        <ele>726.5</ele>
        <time>2015-12-06T09:15:18Z</time>
      </trkpt>
      <trkpt lat="44.12789" lon="3.24808">
        <ele>727.5</ele>
        <time>2015-12-06T09:15:19Z</time>
      </trkpt>
      <trkpt lat="44.12791" lon="3.24807">
        <ele>728</ele>
        <time>2015-12-06T09:15:20Z</time>
      </trkpt>
      <trkpt lat="44.12793" lon="3.24806">
        <ele>729</ele>
        <time>2015-12-06T09:15:21Z</time>
      </trkpt>
      <trkpt lat="44.12793" lon="3.24807">
        <ele>729.5</ele>
        <time>2015-12-06T09:15:22Z</time>
      </trkpt>
      <trkpt lat="44.12795" lon="3.24807">
        <ele>730</ele>
        <time>2015-12-06T09:15:23Z</time>
      </trkpt>
      <trkpt lat="44.12796" lon="3.24806">
        <ele>731</ele>
        <time>2015-12-06T09:15:24Z</time>
      </trkpt>
      <trkpt lat="44.12798" lon="3.24805">
        <ele>732</ele>
        <time>2015-12-06T09:15:25Z</time>
      </trkpt>
      <trkpt lat="44.128" lon="3.24805">
        <ele>733</ele>
        <time>2015-12-06T09:15:26Z</time>
      </trkpt>
      <trkpt lat="44.12802" lon="3.24805">
        <ele>734</ele>
        <time>2015-12-06T09:15:27Z</time>
      </trkpt>
      <trkpt lat="44.12804" lon="3.24805">
        <ele>734</ele>
        <time>2015-12-06T09:15:28Z</time>
      </trkpt>
      <trkpt lat="44.12806" lon="3.24805">
        <ele>735</ele>
        <time>2015-12-06T09:15:29Z</time>
      </trkpt>
      <trkpt lat="44.12808" lon="3.24804">
        <ele>735.5</ele>
        <time>2015-12-06T09:15:30Z</time>
      </trkpt>
      <trkpt lat="44.12809" lon="3.24805">
        <ele>736</ele>
        <time>2015-12-06T09:15:31Z</time>
      </trkpt>
      <trkpt lat="44.12811" lon="3.24805">
        <ele>736.5</ele>
        <time>2015-12-06T09:15:32Z</time>
      </trkpt>
      <trkpt lat="44.12813" lon="3.24804">
        <ele>737</ele>
        <time>2015-12-06T09:15:33Z</time>
      </trkpt>
      <trkpt lat="44.12815" lon="3.24804">
        <ele>737.5</ele>
        <time>2015-12-06T09:15:34Z</time>
      </trkpt>
      <trkpt lat="44.12817" lon="3.24804">
        <ele>738</ele>
        <time>2015-12-06T09:15:35Z</time>
      </trkpt>
      <trkpt lat="44.12818" lon="3.24803">
        <ele>738.5</ele>
        <time>2015-12-06T09:15:36Z</time>
      </trkpt>
      <trkpt lat="44.1282" lon="3.24803">
        <ele>739.5</ele>
        <time>2015-12-06T09:15:37Z</time>
      </trkpt>
      <trkpt lat="44.12821" lon="3.24802">
        <ele>740</ele>
        <time>2015-12-06T09:15:38Z</time>
      </trkpt>
      <trkpt lat="44.12823" lon="3.24802">
        <ele>740.5</ele>
        <time>2015-12-06T09:15:39Z</time>
      </trkpt>
      <trkpt lat="44.12825" lon="3.24802">
        <ele>740.5</ele>
        <time>2015-12-06T09:15:40Z</time>
      </trkpt>
      <trkpt lat="44.12827" lon="3.24802">
        <ele>741</ele>
        <time>2015-12-06T09:15:41Z</time>
      </trkpt>
      <trkpt lat="44.12829" lon="3.24801">
        <ele>741.5</ele>
        <time>2015-12-06T09:15:42Z</time>
      </trkpt>
      <trkpt lat="44.1283" lon="3.24801">
        <ele>742</ele>
        <time>2015-12-06T09:15:43Z</time>
      </trkpt>
      <trkpt lat="44.12832" lon="3.24801">
        <ele>742</ele>
        <time>2015-12-06T09:15:44Z</time>
      </trkpt>
      <trkpt lat="44.12834" lon="3.24801">
        <ele>741.5</ele>
        <time>2015-12-06T09:15:45Z</time>
      </trkpt>
      <trkpt lat="44.12835" lon="3.248">
        <ele>742</ele>
        <time>2015-12-06T09:15:46Z</time>
      </trkpt>
      <trkpt lat="44.12837" lon="3.248">
        <ele>743</ele>
        <time>2015-12-06T09:15:47Z</time>
      </trkpt>
      <trkpt lat="44.12838" lon="3.248">
        <ele>743</ele>
        <time>2015-12-06T09:15:48Z</time>
      </trkpt>
      <trkpt lat="44.1284" lon="3.248">
        <ele>743</ele>
        <time>2015-12-06T09:15:49Z</time>
      </trkpt>
      <trkpt lat="44.12841" lon="3.24801">
        <ele>742.5</ele>
        <time>2015-12-06T09:15:50Z</time>
      </trkpt>
      <trkpt lat="44.12843" lon="3.24802">
        <ele>741.5</ele>
        <time>2015-12-06T09:15:51Z</time>
      </trkpt>
      <trkpt lat="44.12844" lon="3.24801">
        <ele>742.5</ele>
        <time>2015-12-06T09:15:52Z</time>
      </trkpt>
      <trkpt lat="44.12846" lon="3.24801">
        <ele>743</ele>
        <time>2015-12-06T09:15:53Z</time>
      </trkpt>
      <trkpt lat="44.12848" lon="3.248">
        <ele>743.5</ele>
        <time>2015-12-06T09:15:54Z</time>
      </trkpt>
      <trkpt lat="44.1285" lon="3.248">
        <ele>744</ele>
        <time>2015-12-06T09:15:55Z</time>
      </trkpt>
      <trkpt lat="44.12851" lon="3.248">
        <ele>744.5</ele>
        <time>2015-12-06T09:15:56Z</time>
      </trkpt>
      <trkpt lat="44.12852" lon="3.24798">
        <ele>745.5</ele>
        <time>2015-12-06T09:15:57Z</time>
      </trkpt>
      <trkpt lat="44.12853" lon="3.24797">
        <ele>746</ele>
        <time>2015-12-06T09:15:58Z</time>
      </trkpt>
      <trkpt lat="44.12854" lon="3.24796">
        <ele>746.5</ele>
        <time>2015-12-06T09:15:59Z</time>
      </trkpt>
      <trkpt lat="44.12855" lon="3.24795">
        <ele>747</ele>
        <time>2015-12-06T09:16:00Z</time>
      </trkpt>
      <trkpt lat="44.12856" lon="3.24794">
        <ele>747</ele>
        <time>2015-12-06T09:16:01Z</time>
      </trkpt>
      <trkpt lat="44.12858" lon="3.24794">
        <ele>746.5</ele>
        <time>2015-12-06T09:16:02Z</time>
      </trkpt>
      <trkpt lat="44.12859" lon="3.24794">
        <ele>747</ele>
        <time>2015-12-06T09:16:03Z</time>
      </trkpt>
      <trkpt lat="44.1286" lon="3.24794">
        <ele>746.5</ele>
        <time>2015-12-06T09:16:04Z</time>
      </trkpt>
      <trkpt lat="44.12861" lon="3.24794">
        <ele>746</ele>
        <time>2015-12-06T09:16:05Z</time>
      </trkpt>
      <trkpt lat="44.12862" lon="3.24793">
        <ele>746.5</ele>
        <time>2015-12-06T09:16:06Z</time>
      </trkpt>
      <trkpt lat="44.12863" lon="3.24792">
        <ele>747</ele>
        <time>2015-12-06T09:16:07Z</time>
      </trkpt>
      <trkpt lat="44.12865" lon="3.24791">
        <ele>747</ele>
        <time>2015-12-06T09:16:08Z</time>
      </trkpt>
      <trkpt lat="44.12866" lon="3.24791">
        <ele>746.5</ele>
        <time>2015-12-06T09:16:09Z</time>
      </trkpt>
      <trkpt lat="44.12868" lon="3.2479">
        <ele>746.5</ele>
        <time>2015-12-06T09:16:10Z</time>
      </trkpt>
      <trkpt lat="44.12869" lon="3.2479">
        <ele>746.5</ele>
        <time>2015-12-06T09:16:11Z</time>
      </trkpt>
      <trkpt lat="44.1287" lon="3.24789">
        <ele>747</ele>
        <time>2015-12-06T09:16:12Z</time>
      </trkpt>
      <trkpt lat="44.12872" lon="3.24788">
        <ele>747.5</ele>
        <time>2015-12-06T09:16:13Z</time>
      </trkpt>
      <trkpt lat="44.12873" lon="3.24787">
        <ele>747.5</ele>
        <time>2015-12-06T09:16:14Z</time>
      </trkpt>
      <trkpt lat="44.12874" lon="3.24786">
        <ele>747.5</ele>
        <time>2015-12-06T09:16:15Z</time>
      </trkpt>
      <trkpt lat="44.12876" lon="3.24785">
        <ele>747.5</ele>
        <time>2015-12-06T09:16:16Z</time>
      </trkpt>
      <trkpt lat="44.12877" lon="3.24784">
        <ele>747.5</ele>
        <time>2015-12-06T09:16:17Z</time>
      </trkpt>
      <trkpt lat="44.12878" lon="3.24784">
        <ele>748</ele>
        <time>2015-12-06T09:16:18Z</time>
      </trkpt>
      <trkpt lat="44.1288" lon="3.24783">
        <ele>747</ele>
        <time>2015-12-06T09:16:19Z</time>
      </trkpt>
      <trkpt lat="44.12881" lon="3.24782">
        <ele>747.5</ele>
        <time>2015-12-06T09:16:20Z</time>
      </trkpt>
      <trkpt lat="44.12882" lon="3.24781">
        <ele>747.5</ele>
        <time>2015-12-06T09:16:21Z</time>
      </trkpt>
      <trkpt lat="44.12883" lon="3.24781">
        <ele>747.5</ele>
        <time>2015-12-06T09:16:22Z</time>
      </trkpt>
      <trkpt lat="44.12884" lon="3.24781">
        <ele>747</ele>
        <time>2015-12-06T09:16:23Z</time>
      </trkpt>
      <trkpt lat="44.12885" lon="3.2478">
        <ele>747</ele>
        <time>2015-12-06T09:16:24Z</time>
      </trkpt>
      <trkpt lat="44.12887" lon="3.2478">
        <ele>748</ele>
        <time>2015-12-06T09:16:25Z</time>
      </trkpt>
      <trkpt lat="44.12889" lon="3.2478">
        <ele>747.5</ele>
        <time>2015-12-06T09:16:26Z</time>
      </trkpt>
      <trkpt lat="44.1289" lon="3.2478">
        <ele>747</ele>
        <time>2015-12-06T09:16:27Z</time>
      </trkpt>
      <trkpt lat="44.12892" lon="3.24779">
        <ele>748</ele>
        <time>2015-12-06T09:16:28Z</time>
      </trkpt>
      <trkpt lat="44.12894" lon="3.24779">
        <ele>749</ele>
        <time>2015-12-06T09:16:29Z</time>
      </trkpt>
      <trkpt lat="44.12896" lon="3.24779">
        <ele>748</ele>
        <time>2015-12-06T09:16:30Z</time>
      </trkpt>
      <trkpt lat="44.12898" lon="3.2478">
        <ele>747.5</ele>
        <time>2015-12-06T09:16:31Z</time>
      </trkpt>
      <trkpt lat="44.129" lon="3.24781">
        <ele>747</ele>
        <time>2015-12-06T09:16:32Z</time>
      </trkpt>
      <trkpt lat="44.12903" lon="3.24782">
        <ele>745</ele>
        <time>2015-12-06T09:16:33Z</time>
      </trkpt>
      <trkpt lat="44.12905" lon="3.24785">
        <ele>742</ele>
        <time>2015-12-06T09:16:34Z</time>
      </trkpt>
      <trkpt lat="44.12908" lon="3.24785">
        <ele>740</ele>
        <time>2015-12-06T09:16:35Z</time>
      </trkpt>
      <trkpt lat="44.12911" lon="3.24785">
        <ele>738</ele>
        <time>2015-12-06T09:16:36Z</time>
      </trkpt>
      <trkpt lat="44.12913" lon="3.24787">
        <ele>737</ele>
        <time>2015-12-06T09:16:37Z</time>
      </trkpt>
      <trkpt lat="44.12915" lon="3.24788">
        <ele>736</ele>
        <time>2015-12-06T09:16:38Z</time>
      </trkpt>
      <trkpt lat="44.12917" lon="3.2479">
        <ele>734.5</ele>
        <time>2015-12-06T09:16:39Z</time>
      </trkpt>
      <trkpt lat="44.1292" lon="3.24792">
        <ele>733.5</ele>
        <time>2015-12-06T09:16:40Z</time>
      </trkpt>
      <trkpt lat="44.12922" lon="3.24794">
        <ele>732.5</ele>
        <time>2015-12-06T09:16:41Z</time>
      </trkpt>
      <trkpt lat="44.12924" lon="3.24796">
        <ele>731.5</ele>
        <time>2015-12-06T09:16:42Z</time>
      </trkpt>
      <trkpt lat="44.12925" lon="3.24797">
        <ele>730.5</ele>
        <time>2015-12-06T09:16:43Z</time>
      </trkpt>
      <trkpt lat="44.12928" lon="3.24799">
        <ele>730</ele>
        <time>2015-12-06T09:16:44Z</time>
      </trkpt>
      <trkpt lat="44.12929" lon="3.248">
        <ele>729.5</ele>
        <time>2015-12-06T09:16:45Z</time>
      </trkpt>
      <trkpt lat="44.1293" lon="3.24802">
        <ele>729</ele>
        <time>2015-12-06T09:16:46Z</time>
      </trkpt>
      <trkpt lat="44.12932" lon="3.24803">
        <ele>728</ele>
        <time>2015-12-06T09:16:47Z</time>
      </trkpt>
      <trkpt lat="44.12934" lon="3.24804">
        <ele>727.5</ele>
        <time>2015-12-06T09:16:48Z</time>
      </trkpt>
      <trkpt lat="44.12936" lon="3.24805">
        <ele>727.5</ele>
        <time>2015-12-06T09:16:49Z</time>
      </trkpt>
      <trkpt lat="44.12938" lon="3.24805">
        <ele>727.5</ele>
        <time>2015-12-06T09:16:50Z</time>
      </trkpt>
      <trkpt lat="44.12939" lon="3.24804">
        <ele>728.5</ele>
        <time>2015-12-06T09:16:51Z</time>
      </trkpt>
      <trkpt lat="44.1294" lon="3.24803">
        <ele>730.5</ele>
        <time>2015-12-06T09:16:52Z</time>
      </trkpt>
      <trkpt lat="44.12942" lon="3.24802">
        <ele>731.5</ele>
        <time>2015-12-06T09:16:53Z</time>
      </trkpt>
      <trkpt lat="44.12943" lon="3.24801">
        <ele>732.5</ele>
        <time>2015-12-06T09:16:54Z</time>
      </trkpt>
      <trkpt lat="44.12945" lon="3.248">
        <ele>733.5</ele>
        <time>2015-12-06T09:16:55Z</time>
      </trkpt>
      <trkpt lat="44.12946" lon="3.24799">
        <ele>735</ele>
        <time>2015-12-06T09:16:56Z</time>
      </trkpt>
      <trkpt lat="44.12947" lon="3.24798">
        <ele>735.5</ele>
        <time>2015-12-06T09:16:57Z</time>
      </trkpt>
      <trkpt lat="44.12948" lon="3.24797">
        <ele>737</ele>
        <time>2015-12-06T09:16:58Z</time>
      </trkpt>
      <trkpt lat="44.12949" lon="3.24795">
        <ele>738</ele>
        <time>2015-12-06T09:16:59Z</time>
      </trkpt>
      <trkpt lat="44.1295" lon="3.24794">
        <ele>739.5</ele>
        <time>2015-12-06T09:17:00Z</time>
      </trkpt>
      <trkpt lat="44.12951" lon="3.24792">
        <ele>740.5</ele>
        <time>2015-12-06T09:17:01Z</time>
      </trkpt>
      <trkpt lat="44.12952" lon="3.2479">
        <ele>741.5</ele>
        <time>2015-12-06T09:17:02Z</time>
      </trkpt>
      <trkpt lat="44.12953" lon="3.24789">
        <ele>742</ele>
        <time>2015-12-06T09:17:03Z</time>
      </trkpt>
      <trkpt lat="44.12954" lon="3.24789">
        <ele>742</ele>
        <time>2015-12-06T09:17:04Z</time>
      </trkpt>
      <trkpt lat="44.12955" lon="3.24788">
        <ele>742.5</ele>
        <time>2015-12-06T09:17:05Z</time>
      </trkpt>
      <trkpt lat="44.12957" lon="3.24787">
        <ele>743.5</ele>
        <time>2015-12-06T09:17:06Z</time>
      </trkpt>
      <trkpt lat="44.12958" lon="3.24786">
        <ele>744</ele>
        <time>2015-12-06T09:17:07Z</time>
      </trkpt>
      <trkpt lat="44.12959" lon="3.24785">
        <ele>744.5</ele>
        <time>2015-12-06T09:17:08Z</time>
      </trkpt>
      <trkpt lat="44.1296" lon="3.24784">
        <ele>745.5</ele>
        <time>2015-12-06T09:17:09Z</time>
      </trkpt>
      <trkpt lat="44.12962" lon="3.24783">
        <ele>745.5</ele>
        <time>2015-12-06T09:17:10Z</time>
      </trkpt>
      <trkpt lat="44.12963" lon="3.24782">
        <ele>746</ele>
        <time>2015-12-06T09:17:11Z</time>
      </trkpt>
      <trkpt lat="44.12964" lon="3.24781">
        <ele>746.5</ele>
        <time>2015-12-06T09:17:12Z</time>
      </trkpt>
      <trkpt lat="44.12965" lon="3.2478">
        <ele>747</ele>
        <time>2015-12-06T09:17:13Z</time>
      </trkpt>
      <trkpt lat="44.12966" lon="3.2478">
        <ele>747</ele>
        <time>2015-12-06T09:17:14Z</time>
      </trkpt>
      <trkpt lat="44.12967" lon="3.24779">
        <ele>747</ele>
        <time>2015-12-06T09:17:15Z</time>
      </trkpt>
      <trkpt lat="44.12969" lon="3.24778">
        <ele>747</ele>
        <time>2015-12-06T09:17:16Z</time>
      </trkpt>
      <trkpt lat="44.1297" lon="3.24778">
        <ele>747</ele>
        <time>2015-12-06T09:17:17Z</time>
      </trkpt>
      <trkpt lat="44.12971" lon="3.24777">
        <ele>747</ele>
        <time>2015-12-06T09:17:18Z</time>
      </trkpt>
      <trkpt lat="44.12973" lon="3.24777">
        <ele>747.5</ele>
        <time>2015-12-06T09:17:19Z</time>
      </trkpt>
      <trkpt lat="44.12974" lon="3.24776">
        <ele>747.5</ele>
        <time>2015-12-06T09:17:20Z</time>
      </trkpt>
      <trkpt lat="44.12976" lon="3.24775">
        <ele>748</ele>
        <time>2015-12-06T09:17:21Z</time>
      </trkpt>
      <trkpt lat="44.12977" lon="3.24774">
        <ele>748.5</ele>
        <time>2015-12-06T09:17:22Z</time>
      </trkpt>
      <trkpt lat="44.12978" lon="3.24774">
        <ele>749</ele>
        <time>2015-12-06T09:17:23Z</time>
      </trkpt>
      <trkpt lat="44.12979" lon="3.24773">
        <ele>749</ele>
        <time>2015-12-06T09:17:24Z</time>
      </trkpt>
      <trkpt lat="44.1298" lon="3.24772">
        <ele>749</ele>
        <time>2015-12-06T09:17:25Z</time>
      </trkpt>
      <trkpt lat="44.12981" lon="3.24772">
        <ele>750</ele>
        <time>2015-12-06T09:17:26Z</time>
      </trkpt>
      <trkpt lat="44.12982" lon="3.24771">
        <ele>751</ele>
        <time>2015-12-06T09:17:27Z</time>
      </trkpt>
      <trkpt lat="44.12982" lon="3.2477">
        <ele>751.5</ele>
        <time>2015-12-06T09:17:28Z</time>
      </trkpt>
      <trkpt lat="44.12983" lon="3.2477">
        <ele>752</ele>
        <time>2015-12-06T09:17:29Z</time>
      </trkpt>
      <trkpt lat="44.12985" lon="3.24769">
        <ele>752.5</ele>
        <time>2015-12-06T09:17:30Z</time>
      </trkpt>
      <trkpt lat="44.12986" lon="3.24769">
        <ele>753</ele>
        <time>2015-12-06T09:17:31Z</time>
      </trkpt>
      <trkpt lat="44.12987" lon="3.24768">
        <ele>753</ele>
        <time>2015-12-06T09:17:32Z</time>
      </trkpt>
      <trkpt lat="44.12988" lon="3.24768">
        <ele>752.5</ele>
        <time>2015-12-06T09:17:33Z</time>
      </trkpt>
      <trkpt lat="44.12989" lon="3.24767">
        <ele>752.5</ele>
        <time>2015-12-06T09:17:34Z</time>
      </trkpt>
      <trkpt lat="44.1299" lon="3.24767">
        <ele>752.5</ele>
        <time>2015-12-06T09:17:35Z</time>
      </trkpt>
      <trkpt lat="44.12992" lon="3.24765">
        <ele>752.5</ele>
        <time>2015-12-06T09:17:36Z</time>
      </trkpt>
      <trkpt lat="44.12994" lon="3.24765">
        <ele>752</ele>
        <time>2015-12-06T09:17:37Z</time>
      </trkpt>
      <trkpt lat="44.12996" lon="3.24766">
        <ele>750.5</ele>
        <time>2015-12-06T09:17:38Z</time>
      </trkpt>
      <trkpt lat="44.12998" lon="3.24766">
        <ele>749.5</ele>
        <time>2015-12-06T09:17:39Z</time>
      </trkpt>
      <trkpt lat="44.13" lon="3.24766">
        <ele>749</ele>
        <time>2015-12-06T09:17:40Z</time>
      </trkpt>
      <trkpt lat="44.13002" lon="3.24767">
        <ele>747.5</ele>
        <time>2015-12-06T09:17:41Z</time>
      </trkpt>
      <trkpt lat="44.13004" lon="3.24767">
        <ele>747.5</ele>
        <time>2015-12-06T09:17:42Z</time>
      </trkpt>
      <trkpt lat="44.13005" lon="3.24768">
        <ele>747</ele>
        <time>2015-12-06T09:17:43Z</time>
      </trkpt>
      <trkpt lat="44.13007" lon="3.24768">
        <ele>746.5</ele>
        <time>2015-12-06T09:17:44Z</time>
      </trkpt>
      <trkpt lat="44.13009" lon="3.24768">
        <ele>745.5</ele>
        <time>2015-12-06T09:17:45Z</time>
      </trkpt>
      <trkpt lat="44.13011" lon="3.24769">
        <ele>745.5</ele>
        <time>2015-12-06T09:17:46Z</time>
      </trkpt>
      <trkpt lat="44.13012" lon="3.2477">
        <ele>745</ele>
        <time>2015-12-06T09:17:47Z</time>
      </trkpt>
      <trkpt lat="44.13014" lon="3.24771">
        <ele>745</ele>
        <time>2015-12-06T09:17:48Z</time>
      </trkpt>
      <trkpt lat="44.13015" lon="3.24772">
        <ele>744.5</ele>
        <time>2015-12-06T09:17:49Z</time>
      </trkpt>
      <trkpt lat="44.13017" lon="3.24773">
        <ele>744</ele>
        <time>2015-12-06T09:17:50Z</time>
      </trkpt>
      <trkpt lat="44.13018" lon="3.24775">
        <ele>743.5</ele>
        <time>2015-12-06T09:17:51Z</time>
      </trkpt>
      <trkpt lat="44.13019" lon="3.24775">
        <ele>744</ele>
        <time>2015-12-06T09:17:52Z</time>
      </trkpt>
      <trkpt lat="44.13021" lon="3.24776">
        <ele>744</ele>
        <time>2015-12-06T09:17:53Z</time>
      </trkpt>
      <trkpt lat="44.13023" lon="3.24778">
        <ele>743</ele>
        <time>2015-12-06T09:17:54Z</time>
      </trkpt>
      <trkpt lat="44.13024" lon="3.24779">
        <ele>742.5</ele>
        <time>2015-12-06T09:17:55Z</time>
      </trkpt>
      <trkpt lat="44.13025" lon="3.2478">
        <ele>741.5</ele>
        <time>2015-12-06T09:17:56Z</time>
      </trkpt>
      <trkpt lat="44.13026" lon="3.24781">
        <ele>741.5</ele>
        <time>2015-12-06T09:17:57Z</time>
      </trkpt>
      <trkpt lat="44.13027" lon="3.24783">
        <ele>741</ele>
        <time>2015-12-06T09:17:58Z</time>
      </trkpt>
      <trkpt lat="44.13028" lon="3.24785">
        <ele>740.5</ele>
        <time>2015-12-06T09:17:59Z</time>
      </trkpt>
      <trkpt lat="44.1303" lon="3.24786">
        <ele>740</ele>
        <time>2015-12-06T09:18:00Z</time>
      </trkpt>
      <trkpt lat="44.13031" lon="3.24787">
        <ele>740</ele>
        <time>2015-12-06T09:18:01Z</time>
      </trkpt>
      <trkpt lat="44.13032" lon="3.24787">
        <ele>740.5</ele>
        <time>2015-12-06T09:18:01Z</time>
      </trkpt>
      <trkpt lat="44.13033" lon="3.24788">
        <ele>740.5</ele>
        <time>2015-12-06T09:18:02Z</time>
      </trkpt>
      <trkpt lat="44.13034" lon="3.24788">
        <ele>740.5</ele>
        <time>2015-12-06T09:18:03Z</time>
      </trkpt>
      <trkpt lat="44.13035" lon="3.24789">
        <ele>740.5</ele>
        <time>2015-12-06T09:18:04Z</time>
      </trkpt>
      <trkpt lat="44.13036" lon="3.2479">
        <ele>740</ele>
        <time>2015-12-06T09:18:05Z</time>
      </trkpt>
      <trkpt lat="44.13037" lon="3.24791">
        <ele>740.5</ele>
        <time>2015-12-06T09:18:06Z</time>
      </trkpt>
      <trkpt lat="44.13038" lon="3.24791">
        <ele>741.5</ele>
        <time>2015-12-06T09:18:07Z</time>
      </trkpt>
      <trkpt lat="44.13039" lon="3.24792">
        <ele>741.5</ele>
        <time>2015-12-06T09:18:08Z</time>
      </trkpt>
      <trkpt lat="44.1304" lon="3.24794">
        <ele>741</ele>
        <time>2015-12-06T09:18:09Z</time>
      </trkpt>
      <trkpt lat="44.13041" lon="3.24796">
        <ele>741</ele>
        <time>2015-12-06T09:18:10Z</time>
      </trkpt>
      <trkpt lat="44.13043" lon="3.24797">
        <ele>741.5</ele>
        <time>2015-12-06T09:18:11Z</time>
      </trkpt>
      <trkpt lat="44.13044" lon="3.24798">
        <ele>742</ele>
        <time>2015-12-06T09:18:12Z</time>
      </trkpt>
      <trkpt lat="44.13045" lon="3.24799">
        <ele>742.5</ele>
        <time>2015-12-06T09:18:13Z</time>
      </trkpt>
      <trkpt lat="44.13047" lon="3.24799">
        <ele>743</ele>
        <time>2015-12-06T09:18:14Z</time>
      </trkpt>
      <trkpt lat="44.13048" lon="3.248">
        <ele>743.5</ele>
        <time>2015-12-06T09:18:15Z</time>
      </trkpt>
      <trkpt lat="44.13049" lon="3.24801">
        <ele>744</ele>
        <time>2015-12-06T09:18:16Z</time>
      </trkpt>
      <trkpt lat="44.13051" lon="3.24802">
        <ele>744</ele>
        <time>2015-12-06T09:18:17Z</time>
      </trkpt>
      <trkpt lat="44.13052" lon="3.24803">
        <ele>745</ele>
        <time>2015-12-06T09:18:18Z</time>
      </trkpt>
      <trkpt lat="44.13053" lon="3.24803">
        <ele>745</ele>
        <time>2015-12-06T09:18:19Z</time>
      </trkpt>
      <trkpt lat="44.13055" lon="3.24804">
        <ele>745.5</ele>
        <time>2015-12-06T09:18:20Z</time>
      </trkpt>
      <trkpt lat="44.13057" lon="3.24805">
        <ele>746</ele>
        <time>2015-12-06T09:18:21Z</time>
      </trkpt>
      <trkpt lat="44.13058" lon="3.24806">
        <ele>746.5</ele>
        <time>2015-12-06T09:18:22Z</time>
      </trkpt>
      <trkpt lat="44.1306" lon="3.24806">
        <ele>747</ele>
        <time>2015-12-06T09:18:23Z</time>
      </trkpt>
      <trkpt lat="44.13061" lon="3.24806">
        <ele>748</ele>
        <time>2015-12-06T09:18:24Z</time>
      </trkpt>
      <trkpt lat="44.13062" lon="3.24806">
        <ele>747.5</ele>
        <time>2015-12-06T09:18:25Z</time>
      </trkpt>
      <trkpt lat="44.13063" lon="3.24807">
        <ele>747.5</ele>
        <time>2015-12-06T09:18:26Z</time>
      </trkpt>
      <trkpt lat="44.13065" lon="3.24809">
        <ele>747.5</ele>
        <time>2015-12-06T09:18:27Z</time>
      </trkpt>
      <trkpt lat="44.13066" lon="3.24809">
        <ele>748</ele>
        <time>2015-12-06T09:18:28Z</time>
      </trkpt>
      <trkpt lat="44.13067" lon="3.24809">
        <ele>749</ele>
        <time>2015-12-06T09:18:29Z</time>
      </trkpt>
      <trkpt lat="44.13068" lon="3.2481">
        <ele>749</ele>
        <time>2015-12-06T09:18:30Z</time>
      </trkpt>
      <trkpt lat="44.1307" lon="3.2481">
        <ele>749.5</ele>
        <time>2015-12-06T09:18:31Z</time>
      </trkpt>
      <trkpt lat="44.13071" lon="3.2481">
        <ele>750</ele>
        <time>2015-12-06T09:18:32Z</time>
      </trkpt>
      <trkpt lat="44.13072" lon="3.2481">
        <ele>751</ele>
        <time>2015-12-06T09:18:33Z</time>
      </trkpt>
      <trkpt lat="44.13073" lon="3.2481">
        <ele>751</ele>
        <time>2015-12-06T09:18:34Z</time>
      </trkpt>
      <trkpt lat="44.13074" lon="3.24811">
        <ele>751</ele>
        <time>2015-12-06T09:18:35Z</time>
      </trkpt>
      <trkpt lat="44.13075" lon="3.24811">
        <ele>751.5</ele>
        <time>2015-12-06T09:18:36Z</time>
      </trkpt>
      <trkpt lat="44.13076" lon="3.24812">
        <ele>752</ele>
        <time>2015-12-06T09:18:37Z</time>
      </trkpt>
      <trkpt lat="44.13078" lon="3.24813">
        <ele>752.5</ele>
        <time>2015-12-06T09:18:38Z</time>
      </trkpt>
      <trkpt lat="44.13079" lon="3.24814">
        <ele>752.5</ele>
        <time>2015-12-06T09:18:39Z</time>
      </trkpt>
      <trkpt lat="44.13081" lon="3.24815">
        <ele>753.5</ele>
        <time>2015-12-06T09:18:40Z</time>
      </trkpt>
      <trkpt lat="44.13082" lon="3.24815">
        <ele>754</ele>
        <time>2015-12-06T09:18:41Z</time>
      </trkpt>
      <trkpt lat="44.13083" lon="3.24816">
        <ele>755</ele>
        <time>2015-12-06T09:18:42Z</time>
      </trkpt>
      <trkpt lat="44.13085" lon="3.24817">
        <ele>755</ele>
        <time>2015-12-06T09:18:43Z</time>
      </trkpt>
      <trkpt lat="44.13086" lon="3.24818">
        <ele>755.5</ele>
        <time>2015-12-06T09:18:44Z</time>
      </trkpt>
      <trkpt lat="44.13087" lon="3.24819">
        <ele>755.5</ele>
        <time>2015-12-06T09:18:45Z</time>
      </trkpt>
      <trkpt lat="44.13088" lon="3.2482">
        <ele>756</ele>
        <time>2015-12-06T09:18:46Z</time>
      </trkpt>
      <trkpt lat="44.13089" lon="3.24821">
        <ele>756</ele>
        <time>2015-12-06T09:18:47Z</time>
      </trkpt>
      <trkpt lat="44.13091" lon="3.24821">
        <ele>757.5</ele>
        <time>2015-12-06T09:18:48Z</time>
      </trkpt>
      <trkpt lat="44.13092" lon="3.24822">
        <ele>758</ele>
        <time>2015-12-06T09:18:49Z</time>
      </trkpt>
      <trkpt lat="44.13093" lon="3.24822">
        <ele>758.5</ele>
        <time>2015-12-06T09:18:50Z</time>
      </trkpt>
      <trkpt lat="44.13094" lon="3.24823">
        <ele>759</ele>
        <time>2015-12-06T09:18:51Z</time>
      </trkpt>
      <trkpt lat="44.13095" lon="3.24824">
        <ele>759</ele>
        <time>2015-12-06T09:18:52Z</time>
      </trkpt>
      <trkpt lat="44.13097" lon="3.24825">
        <ele>759.5</ele>
        <time>2015-12-06T09:18:53Z</time>
      </trkpt>
      <trkpt lat="44.13098" lon="3.24825">
        <ele>759.5</ele>
        <time>2015-12-06T09:18:54Z</time>
      </trkpt>
      <trkpt lat="44.13099" lon="3.24826">
        <ele>760</ele>
        <time>2015-12-06T09:18:55Z</time>
      </trkpt>
      <trkpt lat="44.131" lon="3.24827">
        <ele>760.5</ele>
        <time>2015-12-06T09:18:56Z</time>
      </trkpt>
      <trkpt lat="44.13102" lon="3.24827">
        <ele>760.5</ele>
        <time>2015-12-06T09:18:57Z</time>
      </trkpt>
      <trkpt lat="44.13103" lon="3.24828">
        <ele>761</ele>
        <time>2015-12-06T09:18:58Z</time>
      </trkpt>
      <trkpt lat="44.13104" lon="3.2483">
        <ele>761</ele>
        <time>2015-12-06T09:18:59Z</time>
      </trkpt>
      <trkpt lat="44.13105" lon="3.24831">
        <ele>761.5</ele>
        <time>2015-12-06T09:19:00Z</time>
      </trkpt>
      <trkpt lat="44.13107" lon="3.24831">
        <ele>761.5</ele>
        <time>2015-12-06T09:19:01Z</time>
      </trkpt>
      <trkpt lat="44.13108" lon="3.24833">
        <ele>762</ele>
        <time>2015-12-06T09:19:02Z</time>
      </trkpt>
      <trkpt lat="44.13109" lon="3.24833">
        <ele>762</ele>
        <time>2015-12-06T09:19:03Z</time>
      </trkpt>
      <trkpt lat="44.1311" lon="3.24834">
        <ele>762.5</ele>
        <time>2015-12-06T09:19:04Z</time>
      </trkpt>
      <trkpt lat="44.13111" lon="3.24835">
        <ele>763</ele>
        <time>2015-12-06T09:19:05Z</time>
      </trkpt>
      <trkpt lat="44.13113" lon="3.24835">
        <ele>763.5</ele>
        <time>2015-12-06T09:19:06Z</time>
      </trkpt>
      <trkpt lat="44.13114" lon="3.24836">
        <ele>764</ele>
        <time>2015-12-06T09:19:07Z</time>
      </trkpt>
      <trkpt lat="44.13115" lon="3.24837">
        <ele>764.5</ele>
        <time>2015-12-06T09:19:08Z</time>
      </trkpt>
      <trkpt lat="44.13116" lon="3.24837">
        <ele>765</ele>
        <time>2015-12-06T09:19:09Z</time>
      </trkpt>
      <trkpt lat="44.13117" lon="3.24837">
        <ele>766</ele>
        <time>2015-12-06T09:19:10Z</time>
      </trkpt>
      <trkpt lat="44.13118" lon="3.24838">
        <ele>766</ele>
        <time>2015-12-06T09:19:11Z</time>
      </trkpt>
      <trkpt lat="44.13119" lon="3.24838">
        <ele>766</ele>
        <time>2015-12-06T09:19:12Z</time>
      </trkpt>
      <trkpt lat="44.1312" lon="3.24837">
        <ele>767.5</ele>
        <time>2015-12-06T09:19:13Z</time>
      </trkpt>
      <trkpt lat="44.1312" lon="3.24837">
        <ele>768.5</ele>
        <time>2015-12-06T09:19:14Z</time>
      </trkpt>
      <trkpt lat="44.13121" lon="3.2484">
        <ele>768</ele>
        <time>2015-12-06T09:19:15Z</time>
      </trkpt>
      <trkpt lat="44.13122" lon="3.24842">
        <ele>768</ele>
        <time>2015-12-06T09:19:16Z</time>
      </trkpt>
      <trkpt lat="44.13123" lon="3.24842">
        <ele>768.5</ele>
        <time>2015-12-06T09:19:17Z</time>
      </trkpt>
      <trkpt lat="44.13124" lon="3.24843">
        <ele>769</ele>
        <time>2015-12-06T09:19:18Z</time>
      </trkpt>
      <trkpt lat="44.13124" lon="3.24844">
        <ele>769</ele>
        <time>2015-12-06T09:19:19Z</time>
      </trkpt>
      <trkpt lat="44.13125" lon="3.24845">
        <ele>770</ele>
        <time>2015-12-06T09:19:20Z</time>
      </trkpt>
      <trkpt lat="44.13124" lon="3.24846">
        <ele>771</ele>
        <time>2015-12-06T09:19:21Z</time>
      </trkpt>
      <trkpt lat="44.13123" lon="3.24847">
        <ele>770.5</ele>
        <time>2015-12-06T09:19:22Z</time>
      </trkpt>
      <trkpt lat="44.13123" lon="3.24849">
        <ele>771</ele>
        <time>2015-12-06T09:19:23Z</time>
      </trkpt>
      <trkpt lat="44.13121" lon="3.24847">
        <ele>770</ele>
        <time>2015-12-06T09:19:24Z</time>
      </trkpt>
      <trkpt lat="44.1312" lon="3.24846">
        <ele>770</ele>
        <time>2015-12-06T09:19:25Z</time>
      </trkpt>
      <trkpt lat="44.13119" lon="3.24845">
        <ele>771</ele>
        <time>2015-12-06T09:19:26Z</time>
      </trkpt>
      <trkpt lat="44.13119" lon="3.24846">
        <ele>771</ele>
        <time>2015-12-06T09:19:27Z</time>
      </trkpt>
      <trkpt lat="44.13118" lon="3.24846">
        <ele>771</ele>
        <time>2015-12-06T09:19:28Z</time>
      </trkpt>
      <trkpt lat="44.13117" lon="3.24845">
        <ele>771.5</ele>
        <time>2015-12-06T09:19:29Z</time>
      </trkpt>
      <trkpt lat="44.13116" lon="3.24845">
        <ele>771.5</ele>
        <time>2015-12-06T09:19:30Z</time>
      </trkpt>
      <trkpt lat="44.13116" lon="3.24846">
        <ele>770</ele>
        <time>2015-12-06T09:19:31Z</time>
      </trkpt>
      <trkpt lat="44.13113" lon="3.24845">
        <ele>768</ele>
        <time>2015-12-06T09:19:33Z</time>
      </trkpt>
      <trkpt lat="44.13111" lon="3.24847">
        <ele>769</ele>
        <time>2015-12-06T09:19:34Z</time>
      </trkpt>
      <trkpt lat="44.1311" lon="3.24848">
        <ele>768</ele>
        <time>2015-12-06T09:19:35Z</time>
      </trkpt>
      <trkpt lat="44.13109" lon="3.24848">
        <ele>767.5</ele>
        <time>2015-12-06T09:19:36Z</time>
      </trkpt>
      <trkpt lat="44.13108" lon="3.24849">
        <ele>768</ele>
        <time>2015-12-06T09:19:37Z</time>
      </trkpt>
      <trkpt lat="44.13107" lon="3.2485">
        <ele>769.5</ele>
        <time>2015-12-06T09:19:38Z</time>
      </trkpt>
      <trkpt lat="44.13105" lon="3.2485">
        <ele>769</ele>
        <time>2015-12-06T09:19:39Z</time>
      </trkpt>
      <trkpt lat="44.13104" lon="3.2485">
        <ele>768</ele>
        <time>2015-12-06T09:19:40Z</time>
      </trkpt>
      <trkpt lat="44.13103" lon="3.24849">
        <ele>766.5</ele>
        <time>2015-12-06T09:19:41Z</time>
      </trkpt>
      <trkpt lat="44.13102" lon="3.24849">
        <ele>765.5</ele>
        <time>2015-12-06T09:19:42Z</time>
      </trkpt>
      <trkpt lat="44.13101" lon="3.24849">
        <ele>765</ele>
        <time>2015-12-06T09:19:43Z</time>
      </trkpt>
      <trkpt lat="44.131" lon="3.2485">
        <ele>766.5</ele>
        <time>2015-12-06T09:19:44Z</time>
      </trkpt>
      <trkpt lat="44.13099" lon="3.2485">
        <ele>766.5</ele>
        <time>2015-12-06T09:19:45Z</time>
      </trkpt>
      <trkpt lat="44.13098" lon="3.24851">
        <ele>767.5</ele>
        <time>2015-12-06T09:19:46Z</time>
      </trkpt>
      <trkpt lat="44.13097" lon="3.24852">
        <ele>767.5</ele>
        <time>2015-12-06T09:19:47Z</time>
      </trkpt>
      <trkpt lat="44.13096" lon="3.24852">
        <ele>767.5</ele>
        <time>2015-12-06T09:19:48Z</time>
      </trkpt>
      <trkpt lat="44.13095" lon="3.24853">
        <ele>767.5</ele>
        <time>2015-12-06T09:19:49Z</time>
      </trkpt>
      <trkpt lat="44.13094" lon="3.24854">
        <ele>767</ele>
        <time>2015-12-06T09:19:50Z</time>
      </trkpt>
      <trkpt lat="44.13093" lon="3.24855">
        <ele>768</ele>
        <time>2015-12-06T09:19:51Z</time>
      </trkpt>
      <trkpt lat="44.13091" lon="3.24855">
        <ele>768.5</ele>
        <time>2015-12-06T09:19:52Z</time>
      </trkpt>
      <trkpt lat="44.1309" lon="3.24855">
        <ele>769</ele>
        <time>2015-12-06T09:19:53Z</time>
      </trkpt>
      <trkpt lat="44.13089" lon="3.24855">
        <ele>770</ele>
        <time>2015-12-06T09:19:54Z</time>
      </trkpt>
      <trkpt lat="44.13088" lon="3.24856">
        <ele>769.5</ele>
        <time>2015-12-06T09:19:55Z</time>
      </trkpt>
      <trkpt lat="44.13087" lon="3.24856">
        <ele>770.5</ele>
        <time>2015-12-06T09:19:56Z</time>
      </trkpt>
      <trkpt lat="44.13088" lon="3.24858">
        <ele>771.5</ele>
        <time>2015-12-06T09:19:57Z</time>
      </trkpt>
      <trkpt lat="44.13084" lon="3.24859">
        <ele>770.5</ele>
        <time>2015-12-06T09:19:59Z</time>
      </trkpt>
      <trkpt lat="44.13083" lon="3.2486">
        <ele>771</ele>
        <time>2015-12-06T09:20:00Z</time>
      </trkpt>
      <trkpt lat="44.13081" lon="3.2486">
        <ele>772.5</ele>
        <time>2015-12-06T09:20:01Z</time>
      </trkpt>
      <trkpt lat="44.1308" lon="3.2486">
        <ele>773.5</ele>
        <time>2015-12-06T09:20:02Z</time>
      </trkpt>
      <trkpt lat="44.13079" lon="3.24861">
        <ele>773.5</ele>
        <time>2015-12-06T09:20:03Z</time>
      </trkpt>
      <trkpt lat="44.13078" lon="3.24863">
        <ele>773.5</ele>
        <time>2015-12-06T09:20:04Z</time>
      </trkpt>
      <trkpt lat="44.13076" lon="3.24864">
        <ele>773</ele>
        <time>2015-12-06T09:20:05Z</time>
      </trkpt>
      <trkpt lat="44.13075" lon="3.24864">
        <ele>771.5</ele>
        <time>2015-12-06T09:20:06Z</time>
      </trkpt>
      <trkpt lat="44.13073" lon="3.24865">
        <ele>771</ele>
        <time>2015-12-06T09:20:07Z</time>
      </trkpt>
      <trkpt lat="44.13072" lon="3.24865">
        <ele>771</ele>
        <time>2015-12-06T09:20:08Z</time>
      </trkpt>
      <trkpt lat="44.1307" lon="3.24865">
        <ele>771</ele>
        <time>2015-12-06T09:20:09Z</time>
      </trkpt>
      <trkpt lat="44.13069" lon="3.24865">
        <ele>771</ele>
        <time>2015-12-06T09:20:10Z</time>
      </trkpt>
      <trkpt lat="44.13067" lon="3.24865">
        <ele>771</ele>
        <time>2015-12-06T09:20:11Z</time>
      </trkpt>
      <trkpt lat="44.13066" lon="3.24866">
        <ele>771</ele>
        <time>2015-12-06T09:20:12Z</time>
      </trkpt>
      <trkpt lat="44.13065" lon="3.24866">
        <ele>771</ele>
        <time>2015-12-06T09:20:13Z</time>
      </trkpt>
      <trkpt lat="44.13062" lon="3.24864">
        <ele>770.5</ele>
        <time>2015-12-06T09:20:14Z</time>
      </trkpt>
      <trkpt lat="44.13061" lon="3.24864">
        <ele>770.5</ele>
        <time>2015-12-06T09:20:15Z</time>
      </trkpt>
      <trkpt lat="44.13059" lon="3.24864">
        <ele>770</ele>
        <time>2015-12-06T09:20:16Z</time>
      </trkpt>
      <trkpt lat="44.13057" lon="3.24859">
        <ele>770.5</ele>
        <time>2015-12-06T09:20:17Z</time>
      </trkpt>
      <trkpt lat="44.13057" lon="3.2486">
        <ele>771.5</ele>
        <time>2015-12-06T09:20:19Z</time>
      </trkpt>
      <trkpt lat="44.13055" lon="3.2486">
        <ele>770.5</ele>
        <time>2015-12-06T09:20:20Z</time>
      </trkpt>
      <trkpt lat="44.13054" lon="3.24858">
        <ele>772</ele>
        <time>2015-12-06T09:20:21Z</time>
      </trkpt>
      <trkpt lat="44.13051" lon="3.24857">
        <ele>773.5</ele>
        <time>2015-12-06T09:20:22Z</time>
      </trkpt>
      <trkpt lat="44.1305" lon="3.24855">
        <ele>773</ele>
        <time>2015-12-06T09:20:23Z</time>
      </trkpt>
      <trkpt lat="44.13049" lon="3.24855">
        <ele>772</ele>
        <time>2015-12-06T09:20:24Z</time>
      </trkpt>
      <trkpt lat="44.13047" lon="3.24856">
        <ele>771.5</ele>
        <time>2015-12-06T09:20:25Z</time>
      </trkpt>
      <trkpt lat="44.13046" lon="3.24857">
        <ele>773.5</ele>
        <time>2015-12-06T09:20:26Z</time>
      </trkpt>
      <trkpt lat="44.13044" lon="3.24858">
        <ele>774.5</ele>
        <time>2015-12-06T09:20:27Z</time>
      </trkpt>
      <trkpt lat="44.13043" lon="3.24858">
        <ele>776.5</ele>
        <time>2015-12-06T09:20:28Z</time>
      </trkpt>
      <trkpt lat="44.13041" lon="3.24858">
        <ele>776</ele>
        <time>2015-12-06T09:20:29Z</time>
      </trkpt>
      <trkpt lat="44.13039" lon="3.24859">
        <ele>776</ele>
        <time>2015-12-06T09:20:30Z</time>
      </trkpt>
      <trkpt lat="44.13036" lon="3.24859">
        <ele>775.5</ele>
        <time>2015-12-06T09:20:31Z</time>
      </trkpt>
      <trkpt lat="44.13034" lon="3.24859">
        <ele>776.5</ele>
        <time>2015-12-06T09:20:32Z</time>
      </trkpt>
      <trkpt lat="44.13032" lon="3.24859">
        <ele>775</ele>
        <time>2015-12-06T09:20:33Z</time>
      </trkpt>
      <trkpt lat="44.1303" lon="3.24859">
        <ele>776.5</ele>
        <time>2015-12-06T09:20:34Z</time>
      </trkpt>
      <trkpt lat="44.13028" lon="3.24858">
        <ele>775.5</ele>
        <time>2015-12-06T09:20:35Z</time>
      </trkpt>
      <trkpt lat="44.13026" lon="3.2486">
        <ele>776.5</ele>
        <time>2015-12-06T09:20:36Z</time>
      </trkpt>
      <trkpt lat="44.13023" lon="3.2486">
        <ele>776</ele>
        <time>2015-12-06T09:20:37Z</time>
      </trkpt>
      <trkpt lat="44.13021" lon="3.2486">
        <ele>775.5</ele>
        <time>2015-12-06T09:20:38Z</time>
      </trkpt>
      <trkpt lat="44.13019" lon="3.24862">
        <ele>776.5</ele>
        <time>2015-12-06T09:20:39Z</time>
      </trkpt>
      <trkpt lat="44.13016" lon="3.24863">
        <ele>776</ele>
        <time>2015-12-06T09:20:40Z</time>
      </trkpt>
      <trkpt lat="44.13015" lon="3.24865">
        <ele>777</ele>
        <time>2015-12-06T09:20:41Z</time>
      </trkpt>
      <trkpt lat="44.13014" lon="3.24867">
        <ele>778</ele>
        <time>2015-12-06T09:20:42Z</time>
      </trkpt>
      <trkpt lat="44.13013" lon="3.24869">
        <ele>780</ele>
        <time>2015-12-06T09:20:43Z</time>
      </trkpt>
      <trkpt lat="44.13012" lon="3.2487">
        <ele>781</ele>
        <time>2015-12-06T09:20:44Z</time>
      </trkpt>
      <trkpt lat="44.13013" lon="3.24872">
        <ele>782</ele>
        <time>2015-12-06T09:20:45Z</time>
      </trkpt>
      <trkpt lat="44.13013" lon="3.24874">
        <ele>782.5</ele>
        <time>2015-12-06T09:20:46Z</time>
      </trkpt>
      <trkpt lat="44.13014" lon="3.24875">
        <ele>782.5</ele>
        <time>2015-12-06T09:20:47Z</time>
      </trkpt>
      <trkpt lat="44.13015" lon="3.24877">
        <ele>783.5</ele>
        <time>2015-12-06T09:20:48Z</time>
      </trkpt>
      <trkpt lat="44.13016" lon="3.24878">
        <ele>784</ele>
        <time>2015-12-06T09:20:49Z</time>
      </trkpt>
      <trkpt lat="44.13018" lon="3.24879">
        <ele>784</ele>
        <time>2015-12-06T09:20:50Z</time>
      </trkpt>
      <trkpt lat="44.13019" lon="3.2488">
        <ele>784</ele>
        <time>2015-12-06T09:20:51Z</time>
      </trkpt>
      <trkpt lat="44.13021" lon="3.2488">
        <ele>784</ele>
        <time>2015-12-06T09:20:52Z</time>
      </trkpt>
      <trkpt lat="44.13022" lon="3.2488">
        <ele>784</ele>
        <time>2015-12-06T09:20:53Z</time>
      </trkpt>
      <trkpt lat="44.13023" lon="3.2488">
        <ele>783.5</ele>
        <time>2015-12-06T09:20:54Z</time>
      </trkpt>
      <trkpt lat="44.13024" lon="3.2488">
        <ele>783.5</ele>
        <time>2015-12-06T09:20:55Z</time>
      </trkpt>
      <trkpt lat="44.13025" lon="3.2488">
        <ele>783</ele>
        <time>2015-12-06T09:20:56Z</time>
      </trkpt>
      <trkpt lat="44.13027" lon="3.2488">
        <ele>782.5</ele>
        <time>2015-12-06T09:20:57Z</time>
      </trkpt>
      <trkpt lat="44.13027" lon="3.2488">
        <ele>782.5</ele>
        <time>2015-12-06T09:20:58Z</time>
      </trkpt>
      <trkpt lat="44.13028" lon="3.2488">
        <ele>782.5</ele>
        <time>2015-12-06T09:20:59Z</time>
      </trkpt>
      <trkpt lat="44.13029" lon="3.24881">
        <ele>782.5</ele>
        <time>2015-12-06T09:21:00Z</time>
      </trkpt>
      <trkpt lat="44.1303" lon="3.24881">
        <ele>782.5</ele>
        <time>2015-12-06T09:21:01Z</time>
      </trkpt>
      <trkpt lat="44.13031" lon="3.2488">
        <ele>782.5</ele>
        <time>2015-12-06T09:21:02Z</time>
      </trkpt>
      <trkpt lat="44.13032" lon="3.24881">
        <ele>782</ele>
        <time>2015-12-06T09:21:03Z</time>
      </trkpt>
      <trkpt lat="44.13034" lon="3.24881">
        <ele>782</ele>
        <time>2015-12-06T09:21:04Z</time>
      </trkpt>
      <trkpt lat="44.13035" lon="3.24882">
        <ele>782.5</ele>
        <time>2015-12-06T09:21:05Z</time>
      </trkpt>
      <trkpt lat="44.13036" lon="3.24882">
        <ele>782.5</ele>
        <time>2015-12-06T09:21:06Z</time>
      </trkpt>
      <trkpt lat="44.13037" lon="3.24882">
        <ele>782.5</ele>
        <time>2015-12-06T09:21:07Z</time>
      </trkpt>
      <trkpt lat="44.13038" lon="3.24882">
        <ele>783</ele>
        <time>2015-12-06T09:21:08Z</time>
      </trkpt>
      <trkpt lat="44.13039" lon="3.24882">
        <ele>783.5</ele>
        <time>2015-12-06T09:21:09Z</time>
      </trkpt>
      <trkpt lat="44.1304" lon="3.24882">
        <ele>784</ele>
        <time>2015-12-06T09:21:10Z</time>
      </trkpt>
      <trkpt lat="44.13041" lon="3.24882">
        <ele>784</ele>
        <time>2015-12-06T09:21:11Z</time>
      </trkpt>
      <trkpt lat="44.13042" lon="3.24882">
        <ele>784</ele>
        <time>2015-12-06T09:21:12Z</time>
      </trkpt>
      <trkpt lat="44.13044" lon="3.24882">
        <ele>784.5</ele>
        <time>2015-12-06T09:21:13Z</time>
      </trkpt>
      <trkpt lat="44.13045" lon="3.24883">
        <ele>784.5</ele>
        <time>2015-12-06T09:21:14Z</time>
      </trkpt>
      <trkpt lat="44.13047" lon="3.24883">
        <ele>784.5</ele>
        <time>2015-12-06T09:21:15Z</time>
      </trkpt>
      <trkpt lat="44.13048" lon="3.24883">
        <ele>785</ele>
        <time>2015-12-06T09:21:16Z</time>
      </trkpt>
      <trkpt lat="44.13049" lon="3.24883">
        <ele>785.5</ele>
        <time>2015-12-06T09:21:17Z</time>
      </trkpt>
      <trkpt lat="44.13051" lon="3.24883">
        <ele>786</ele>
        <time>2015-12-06T09:21:18Z</time>
      </trkpt>
      <trkpt lat="44.13052" lon="3.24884">
        <ele>786</ele>
        <time>2015-12-06T09:21:19Z</time>
      </trkpt>
      <trkpt lat="44.13054" lon="3.24884">
        <ele>786</ele>
        <time>2015-12-06T09:21:20Z</time>
      </trkpt>
      <trkpt lat="44.13055" lon="3.24885">
        <ele>786.5</ele>
        <time>2015-12-06T09:21:21Z</time>
      </trkpt>
      <trkpt lat="44.13056" lon="3.24885">
        <ele>787</ele>
        <time>2015-12-06T09:21:22Z</time>
      </trkpt>
      <trkpt lat="44.13058" lon="3.24885">
        <ele>787</ele>
        <time>2015-12-06T09:21:23Z</time>
      </trkpt>
      <trkpt lat="44.13059" lon="3.24886">
        <ele>787.5</ele>
        <time>2015-12-06T09:21:24Z</time>
      </trkpt>
      <trkpt lat="44.1306" lon="3.24886">
        <ele>787.5</ele>
        <time>2015-12-06T09:21:25Z</time>
      </trkpt>
      <trkpt lat="44.13062" lon="3.24887">
        <ele>787.5</ele>
        <time>2015-12-06T09:21:26Z</time>
      </trkpt>
      <trkpt lat="44.13063" lon="3.24887">
        <ele>788</ele>
        <time>2015-12-06T09:21:27Z</time>
      </trkpt>
      <trkpt lat="44.13065" lon="3.24888">
        <ele>788</ele>
        <time>2015-12-06T09:21:28Z</time>
      </trkpt>
      <trkpt lat="44.13066" lon="3.24889">
        <ele>788</ele>
        <time>2015-12-06T09:21:29Z</time>
      </trkpt>
      <trkpt lat="44.13067" lon="3.2489">
        <ele>788</ele>
        <time>2015-12-06T09:21:30Z</time>
      </trkpt>
      <trkpt lat="44.13069" lon="3.2489">
        <ele>788</ele>
        <time>2015-12-06T09:21:31Z</time>
      </trkpt>
      <trkpt lat="44.1307" lon="3.24891">
        <ele>788</ele>
        <time>2015-12-06T09:21:32Z</time>
      </trkpt>
      <trkpt lat="44.13072" lon="3.24892">
        <ele>788</ele>
        <time>2015-12-06T09:21:33Z</time>
      </trkpt>
      <trkpt lat="44.13073" lon="3.24892">
        <ele>788.5</ele>
        <time>2015-12-06T09:21:34Z</time>
      </trkpt>
      <trkpt lat="44.13074" lon="3.24893">
        <ele>788</ele>
        <time>2015-12-06T09:21:35Z</time>
      </trkpt>
      <trkpt lat="44.13076" lon="3.24893">
        <ele>788.5</ele>
        <time>2015-12-06T09:21:36Z</time>
      </trkpt>
      <trkpt lat="44.13077" lon="3.24894">
        <ele>788.5</ele>
        <time>2015-12-06T09:21:37Z</time>
      </trkpt>
      <trkpt lat="44.13079" lon="3.24895">
        <ele>789</ele>
        <time>2015-12-06T09:21:38Z</time>
      </trkpt>
      <trkpt lat="44.1308" lon="3.24895">
        <ele>789</ele>
        <time>2015-12-06T09:21:38Z</time>
      </trkpt>
      <trkpt lat="44.13081" lon="3.24896">
        <ele>789</ele>
        <time>2015-12-06T09:21:39Z</time>
      </trkpt>
      <trkpt lat="44.13083" lon="3.24898">
        <ele>789</ele>
        <time>2015-12-06T09:21:40Z</time>
      </trkpt>
      <trkpt lat="44.13085" lon="3.24899">
        <ele>789</ele>
        <time>2015-12-06T09:21:41Z</time>
      </trkpt>
      <trkpt lat="44.13086" lon="3.24901">
        <ele>789</ele>
        <time>2015-12-06T09:21:42Z</time>
      </trkpt>
      <trkpt lat="44.13088" lon="3.24901">
        <ele>789.5</ele>
        <time>2015-12-06T09:21:43Z</time>
      </trkpt>
      <trkpt lat="44.13089" lon="3.24902">
        <ele>789.5</ele>
        <time>2015-12-06T09:21:44Z</time>
      </trkpt>
      <trkpt lat="44.1309" lon="3.24903">
        <ele>790</ele>
        <time>2015-12-06T09:21:45Z</time>
      </trkpt>
      <trkpt lat="44.13092" lon="3.24904">
        <ele>790</ele>
        <time>2015-12-06T09:21:46Z</time>
      </trkpt>
      <trkpt lat="44.13093" lon="3.24905">
        <ele>790</ele>
        <time>2015-12-06T09:21:47Z</time>
      </trkpt>
      <trkpt lat="44.13094" lon="3.24907">
        <ele>790</ele>
        <time>2015-12-06T09:21:48Z</time>
      </trkpt>
      <trkpt lat="44.13096" lon="3.24908">
        <ele>790.5</ele>
        <time>2015-12-06T09:21:50Z</time>
      </trkpt>
      <trkpt lat="44.13097" lon="3.24909">
        <ele>790.5</ele>
        <time>2015-12-06T09:21:50Z</time>
      </trkpt>
      <trkpt lat="44.13099" lon="3.2491">
        <ele>790.5</ele>
        <time>2015-12-06T09:21:51Z</time>
      </trkpt>
      <trkpt lat="44.131" lon="3.24911">
        <ele>791</ele>
        <time>2015-12-06T09:21:52Z</time>
      </trkpt>
      <trkpt lat="44.13101" lon="3.24912">
        <ele>791.5</ele>
        <time>2015-12-06T09:21:53Z</time>
      </trkpt>
      <trkpt lat="44.13103" lon="3.24913">
        <ele>792</ele>
        <time>2015-12-06T09:21:54Z</time>
      </trkpt>
      <trkpt lat="44.13104" lon="3.24914">
        <ele>792.5</ele>
        <time>2015-12-06T09:21:55Z</time>
      </trkpt>
      <trkpt lat="44.13106" lon="3.24917">
        <ele>792</ele>
        <time>2015-12-06T09:21:56Z</time>
      </trkpt>
      <trkpt lat="44.13107" lon="3.2492">
        <ele>791</ele>
        <time>2015-12-06T09:21:57Z</time>
      </trkpt>
      <trkpt lat="44.13108" lon="3.24921">
        <ele>791</ele>
        <time>2015-12-06T09:21:59Z</time>
      </trkpt>
      <trkpt lat="44.1311" lon="3.24923">
        <ele>791</ele>
        <time>2015-12-06T09:21:59Z</time>
      </trkpt>
      <trkpt lat="44.13111" lon="3.24925">
        <ele>791</ele>
        <time>2015-12-06T09:22:00Z</time>
      </trkpt>
      <trkpt lat="44.13113" lon="3.24926">
        <ele>791</ele>
        <time>2015-12-06T09:22:01Z</time>
      </trkpt>
      <trkpt lat="44.13114" lon="3.24927">
        <ele>791</ele>
        <time>2015-12-06T09:22:02Z</time>
      </trkpt>
      <trkpt lat="44.13116" lon="3.24929">
        <ele>791</ele>
        <time>2015-12-06T09:22:03Z</time>
      </trkpt>
      <trkpt lat="44.13117" lon="3.24931">
        <ele>791</ele>
        <time>2015-12-06T09:22:04Z</time>
      </trkpt>
      <trkpt lat="44.13119" lon="3.24933">
        <ele>791</ele>
        <time>2015-12-06T09:22:05Z</time>
      </trkpt>
      <trkpt lat="44.1312" lon="3.24935">
        <ele>791</ele>
        <time>2015-12-06T09:22:06Z</time>
      </trkpt>
      <trkpt lat="44.13122" lon="3.24936">
        <ele>791.5</ele>
        <time>2015-12-06T09:22:07Z</time>
      </trkpt>
      <trkpt lat="44.13123" lon="3.24938">
        <ele>791.5</ele>
        <time>2015-12-06T09:22:08Z</time>
      </trkpt>
      <trkpt lat="44.13125" lon="3.2494">
        <ele>791.5</ele>
        <time>2015-12-06T09:22:09Z</time>
      </trkpt>
      <trkpt lat="44.13126" lon="3.24942">
        <ele>791.5</ele>
        <time>2015-12-06T09:22:11Z</time>
      </trkpt>
      <trkpt lat="44.13128" lon="3.24943">
        <ele>791.5</ele>
        <time>2015-12-06T09:22:11Z</time>
      </trkpt>
      <trkpt lat="44.13129" lon="3.24945">
        <ele>792</ele>
        <time>2015-12-06T09:22:12Z</time>
      </trkpt>
      <trkpt lat="44.13131" lon="3.24947">
        <ele>792</ele>
        <time>2015-12-06T09:22:13Z</time>
      </trkpt>
      <trkpt lat="44.13132" lon="3.24948">
        <ele>792</ele>
        <time>2015-12-06T09:22:14Z</time>
      </trkpt>
      <trkpt lat="44.13134" lon="3.2495">
        <ele>792.5</ele>
        <time>2015-12-06T09:22:15Z</time>
      </trkpt>
      <trkpt lat="44.13135" lon="3.24952">
        <ele>792.5</ele>
        <time>2015-12-06T09:22:16Z</time>
      </trkpt>
      <trkpt lat="44.13137" lon="3.24953">
        <ele>792.5</ele>
        <time>2015-12-06T09:22:17Z</time>
      </trkpt>
      <trkpt lat="44.13138" lon="3.24955">
        <ele>793</ele>
        <time>2015-12-06T09:22:18Z</time>
      </trkpt>
      <trkpt lat="44.1314" lon="3.24957">
        <ele>793</ele>
        <time>2015-12-06T09:22:19Z</time>
      </trkpt>
      <trkpt lat="44.13141" lon="3.24959">
        <ele>793</ele>
        <time>2015-12-06T09:22:21Z</time>
      </trkpt>
      <trkpt lat="44.13142" lon="3.24961">
        <ele>793</ele>
        <time>2015-12-06T09:22:21Z</time>
      </trkpt>
      <trkpt lat="44.13144" lon="3.24963">
        <ele>793</ele>
        <time>2015-12-06T09:22:22Z</time>
      </trkpt>
      <trkpt lat="44.13145" lon="3.24966">
        <ele>792.5</ele>
        <time>2015-12-06T09:22:23Z</time>
      </trkpt>
      <trkpt lat="44.13147" lon="3.24968">
        <ele>792.5</ele>
        <time>2015-12-06T09:22:24Z</time>
      </trkpt>
      <trkpt lat="44.13148" lon="3.2497">
        <ele>792.5</ele>
        <time>2015-12-06T09:22:25Z</time>
      </trkpt>
      <trkpt lat="44.1315" lon="3.24972">
        <ele>792</ele>
        <time>2015-12-06T09:22:26Z</time>
      </trkpt>
      <trkpt lat="44.13151" lon="3.24973">
        <ele>792.5</ele>
        <time>2015-12-06T09:22:27Z</time>
      </trkpt>
      <trkpt lat="44.13153" lon="3.24975">
        <ele>792.5</ele>
        <time>2015-12-06T09:22:28Z</time>
      </trkpt>
      <trkpt lat="44.13154" lon="3.24977">
        <ele>792.5</ele>
        <time>2015-12-06T09:22:29Z</time>
      </trkpt>
      <trkpt lat="44.13156" lon="3.24979">
        <ele>793</ele>
        <time>2015-12-06T09:22:30Z</time>
      </trkpt>
      <trkpt lat="44.13157" lon="3.24982">
        <ele>793</ele>
        <time>2015-12-06T09:22:31Z</time>
      </trkpt>
      <trkpt lat="44.13159" lon="3.24984">
        <ele>793</ele>
        <time>2015-12-06T09:22:32Z</time>
      </trkpt>
      <trkpt lat="44.1316" lon="3.24986">
        <ele>793</ele>
        <time>2015-12-06T09:22:33Z</time>
      </trkpt>
      <trkpt lat="44.13161" lon="3.24988">
        <ele>792.5</ele>
        <time>2015-12-06T09:22:34Z</time>
      </trkpt>
      <trkpt lat="44.13163" lon="3.24991">
        <ele>792</ele>
        <time>2015-12-06T09:22:35Z</time>
      </trkpt>
      <trkpt lat="44.13164" lon="3.24991">
        <ele>792.5</ele>
        <time>2015-12-06T09:22:36Z</time>
      </trkpt>
      <trkpt lat="44.13165" lon="3.24993">
        <ele>793</ele>
        <time>2015-12-06T09:22:37Z</time>
      </trkpt>
      <trkpt lat="44.13167" lon="3.24995">
        <ele>793</ele>
        <time>2015-12-06T09:22:38Z</time>
      </trkpt>
      <trkpt lat="44.13168" lon="3.24998">
        <ele>792.5</ele>
        <time>2015-12-06T09:22:39Z</time>
      </trkpt>
      <trkpt lat="44.1317" lon="3.25">
        <ele>792.5</ele>
        <time>2015-12-06T09:22:40Z</time>
      </trkpt>
      <trkpt lat="44.13171" lon="3.25001">
        <ele>793</ele>
        <time>2015-12-06T09:22:41Z</time>
      </trkpt>
      <trkpt lat="44.13172" lon="3.25003">
        <ele>793</ele>
        <time>2015-12-06T09:22:42Z</time>
      </trkpt>
      <trkpt lat="44.13174" lon="3.25005">
        <ele>793</ele>
        <time>2015-12-06T09:22:43Z</time>
      </trkpt>
      <trkpt lat="44.13175" lon="3.25007">
        <ele>793</ele>
        <time>2015-12-06T09:22:44Z</time>
      </trkpt>
      <trkpt lat="44.13176" lon="3.25009">
        <ele>793.5</ele>
        <time>2015-12-06T09:22:45Z</time>
      </trkpt>
      <trkpt lat="44.13178" lon="3.2501">
        <ele>793.5</ele>
        <time>2015-12-06T09:22:46Z</time>
      </trkpt>
      <trkpt lat="44.13179" lon="3.25013">
        <ele>793.5</ele>
        <time>2015-12-06T09:22:47Z</time>
      </trkpt>
      <trkpt lat="44.1318" lon="3.25014">
        <ele>794</ele>
        <time>2015-12-06T09:22:48Z</time>
      </trkpt>
      <trkpt lat="44.13182" lon="3.25016">
        <ele>794</ele>
        <time>2015-12-06T09:22:49Z</time>
      </trkpt>
      <trkpt lat="44.13183" lon="3.25017">
        <ele>794.5</ele>
        <time>2015-12-06T09:22:50Z</time>
      </trkpt>
      <trkpt lat="44.13185" lon="3.25019">
        <ele>794.5</ele>
        <time>2015-12-06T09:22:51Z</time>
      </trkpt>
      <trkpt lat="44.13186" lon="3.25021">
        <ele>795</ele>
        <time>2015-12-06T09:22:52Z</time>
      </trkpt>
      <trkpt lat="44.13187" lon="3.25023">
        <ele>795</ele>
        <time>2015-12-06T09:22:53Z</time>
      </trkpt>
      <trkpt lat="44.13189" lon="3.25024">
        <ele>796</ele>
        <time>2015-12-06T09:22:54Z</time>
      </trkpt>
      <trkpt lat="44.1319" lon="3.25025">
        <ele>796.5</ele>
        <time>2015-12-06T09:22:55Z</time>
      </trkpt>
      <trkpt lat="44.13191" lon="3.25026">
        <ele>797.5</ele>
        <time>2015-12-06T09:22:56Z</time>
      </trkpt>
      <trkpt lat="44.13192" lon="3.25028">
        <ele>797.5</ele>
        <time>2015-12-06T09:22:57Z</time>
      </trkpt>
      <trkpt lat="44.13194" lon="3.25029">
        <ele>798</ele>
        <time>2015-12-06T09:22:58Z</time>
      </trkpt>
      <trkpt lat="44.13195" lon="3.25031">
        <ele>798.5</ele>
        <time>2015-12-06T09:22:59Z</time>
      </trkpt>
      <trkpt lat="44.13196" lon="3.25032">
        <ele>799</ele>
        <time>2015-12-06T09:23:00Z</time>
      </trkpt>
      <trkpt lat="44.13198" lon="3.25034">
        <ele>798.5</ele>
        <time>2015-12-06T09:23:01Z</time>
      </trkpt>
      <trkpt lat="44.13199" lon="3.25035">
        <ele>799.5</ele>
        <time>2015-12-06T09:23:02Z</time>
      </trkpt>
      <trkpt lat="44.132" lon="3.25037">
        <ele>799.5</ele>
        <time>2015-12-06T09:23:03Z</time>
      </trkpt>
      <trkpt lat="44.13201" lon="3.25038">
        <ele>800</ele>
        <time>2015-12-06T09:23:04Z</time>
      </trkpt>
      <trkpt lat="44.13202" lon="3.25039">
        <ele>800</ele>
        <time>2015-12-06T09:23:05Z</time>
      </trkpt>
      <trkpt lat="44.13204" lon="3.25041">
        <ele>800</ele>
        <time>2015-12-06T09:23:06Z</time>
      </trkpt>
      <trkpt lat="44.13205" lon="3.25042">
        <ele>800.5</ele>
        <time>2015-12-06T09:23:07Z</time>
      </trkpt>
      <trkpt lat="44.13205" lon="3.25044">
        <ele>800.5</ele>
        <time>2015-12-06T09:23:08Z</time>
      </trkpt>
      <trkpt lat="44.13206" lon="3.25046">
        <ele>800.5</ele>
        <time>2015-12-06T09:23:09Z</time>
      </trkpt>
      <trkpt lat="44.13207" lon="3.25047">
        <ele>800.5</ele>
        <time>2015-12-06T09:23:10Z</time>
      </trkpt>
      <trkpt lat="44.13208" lon="3.25049">
        <ele>801</ele>
        <time>2015-12-06T09:23:11Z</time>
      </trkpt>
      <trkpt lat="44.13209" lon="3.2505">
        <ele>801</ele>
        <time>2015-12-06T09:23:12Z</time>
      </trkpt>
      <trkpt lat="44.1321" lon="3.25052">
        <ele>801.5</ele>
        <time>2015-12-06T09:23:13Z</time>
      </trkpt>
      <trkpt lat="44.1321" lon="3.25054">
        <ele>801.5</ele>
        <time>2015-12-06T09:23:14Z</time>
      </trkpt>
      <trkpt lat="44.13211" lon="3.25055">
        <ele>801.5</ele>
        <time>2015-12-06T09:23:15Z</time>
      </trkpt>
      <trkpt lat="44.13212" lon="3.25057">
        <ele>801.5</ele>
        <time>2015-12-06T09:23:16Z</time>
      </trkpt>
      <trkpt lat="44.13213" lon="3.25059">
        <ele>801.5</ele>
        <time>2015-12-06T09:23:17Z</time>
      </trkpt>
      <trkpt lat="44.13214" lon="3.25061">
        <ele>801.5</ele>
        <time>2015-12-06T09:23:18Z</time>
      </trkpt>
      <trkpt lat="44.13215" lon="3.25062">
        <ele>802</ele>
        <time>2015-12-06T09:23:19Z</time>
      </trkpt>
      <trkpt lat="44.13216" lon="3.25063">
        <ele>802.5</ele>
        <time>2015-12-06T09:23:20Z</time>
      </trkpt>
      <trkpt lat="44.13217" lon="3.25064">
        <ele>802.5</ele>
        <time>2015-12-06T09:23:21Z</time>
      </trkpt>
      <trkpt lat="44.13218" lon="3.25065">
        <ele>803</ele>
        <time>2015-12-06T09:23:22Z</time>
      </trkpt>
      <trkpt lat="44.13219" lon="3.25066">
        <ele>803.5</ele>
        <time>2015-12-06T09:23:23Z</time>
      </trkpt>
      <trkpt lat="44.13219" lon="3.25067">
        <ele>803.5</ele>
        <time>2015-12-06T09:23:24Z</time>
      </trkpt>
      <trkpt lat="44.1322" lon="3.25068">
        <ele>804</ele>
        <time>2015-12-06T09:23:25Z</time>
      </trkpt>
      <trkpt lat="44.13221" lon="3.25068">
        <ele>804.5</ele>
        <time>2015-12-06T09:23:26Z</time>
      </trkpt>
      <trkpt lat="44.13222" lon="3.25069">
        <ele>805</ele>
        <time>2015-12-06T09:23:27Z</time>
      </trkpt>
      <trkpt lat="44.13224" lon="3.2507">
        <ele>805.5</ele>
        <time>2015-12-06T09:23:28Z</time>
      </trkpt>
      <trkpt lat="44.13225" lon="3.25071">
        <ele>805.5</ele>
        <time>2015-12-06T09:23:29Z</time>
      </trkpt>
      <trkpt lat="44.13226" lon="3.25072">
        <ele>805.5</ele>
        <time>2015-12-06T09:23:30Z</time>
      </trkpt>
      <trkpt lat="44.13227" lon="3.25072">
        <ele>806</ele>
        <time>2015-12-06T09:23:31Z</time>
      </trkpt>
      <trkpt lat="44.13229" lon="3.25073">
        <ele>806.5</ele>
        <time>2015-12-06T09:23:32Z</time>
      </trkpt>
      <trkpt lat="44.1323" lon="3.25074">
        <ele>806.5</ele>
        <time>2015-12-06T09:23:33Z</time>
      </trkpt>
      <trkpt lat="44.13231" lon="3.25074">
        <ele>806.5</ele>
        <time>2015-12-06T09:23:34Z</time>
      </trkpt>
      <trkpt lat="44.13233" lon="3.25074">
        <ele>807.5</ele>
        <time>2015-12-06T09:23:35Z</time>
      </trkpt>
      <trkpt lat="44.13234" lon="3.25074">
        <ele>808</ele>
        <time>2015-12-06T09:23:36Z</time>
      </trkpt>
      <trkpt lat="44.13236" lon="3.25074">
        <ele>808.5</ele>
        <time>2015-12-06T09:23:37Z</time>
      </trkpt>
      <trkpt lat="44.13237" lon="3.25074">
        <ele>809</ele>
        <time>2015-12-06T09:23:38Z</time>
      </trkpt>
      <trkpt lat="44.13239" lon="3.25074">
        <ele>809.5</ele>
        <time>2015-12-06T09:23:39Z</time>
      </trkpt>
      <trkpt lat="44.1324" lon="3.25074">
        <ele>809.5</ele>
        <time>2015-12-06T09:23:40Z</time>
      </trkpt>
      <trkpt lat="44.13242" lon="3.25073">
        <ele>810</ele>
        <time>2015-12-06T09:23:41Z</time>
      </trkpt>
      <trkpt lat="44.13243" lon="3.25073">
        <ele>810.5</ele>
        <time>2015-12-06T09:23:42Z</time>
      </trkpt>
      <trkpt lat="44.13245" lon="3.25073">
        <ele>810.5</ele>
        <time>2015-12-06T09:23:43Z</time>
      </trkpt>
      <trkpt lat="44.13246" lon="3.25073">
        <ele>811</ele>
        <time>2015-12-06T09:23:44Z</time>
      </trkpt>
      <trkpt lat="44.13248" lon="3.25073">
        <ele>811</ele>
        <time>2015-12-06T09:23:45Z</time>
      </trkpt>
      <trkpt lat="44.13249" lon="3.25074">
        <ele>811</ele>
        <time>2015-12-06T09:23:46Z</time>
      </trkpt>
      <trkpt lat="44.13251" lon="3.25074">
        <ele>811</ele>
        <time>2015-12-06T09:23:47Z</time>
      </trkpt>
      <trkpt lat="44.13252" lon="3.25073">
        <ele>811.5</ele>
        <time>2015-12-06T09:23:48Z</time>
      </trkpt>
      <trkpt lat="44.13253" lon="3.25073">
        <ele>811.5</ele>
        <time>2015-12-06T09:23:49Z</time>
      </trkpt>
      <trkpt lat="44.13255" lon="3.25073">
        <ele>811.5</ele>
        <time>2015-12-06T09:23:50Z</time>
      </trkpt>
      <trkpt lat="44.13256" lon="3.25073">
        <ele>812</ele>
        <time>2015-12-06T09:23:51Z</time>
      </trkpt>
      <trkpt lat="44.13258" lon="3.25073">
        <ele>812.5</ele>
        <time>2015-12-06T09:23:52Z</time>
      </trkpt>
      <trkpt lat="44.13259" lon="3.25072">
        <ele>812.5</ele>
        <time>2015-12-06T09:23:53Z</time>
      </trkpt>
      <trkpt lat="44.13261" lon="3.25072">
        <ele>812.5</ele>
        <time>2015-12-06T09:23:54Z</time>
      </trkpt>
      <trkpt lat="44.13262" lon="3.25071">
        <ele>813</ele>
        <time>2015-12-06T09:23:55Z</time>
      </trkpt>
      <trkpt lat="44.13264" lon="3.25071">
        <ele>813</ele>
        <time>2015-12-06T09:23:56Z</time>
      </trkpt>
      <trkpt lat="44.13265" lon="3.25071">
        <ele>813</ele>
        <time>2015-12-06T09:23:57Z</time>
      </trkpt>
      <trkpt lat="44.13266" lon="3.25071">
        <ele>813</ele>
        <time>2015-12-06T09:23:58Z</time>
      </trkpt>
      <trkpt lat="44.13268" lon="3.25071">
        <ele>813</ele>
        <time>2015-12-06T09:23:59Z</time>
      </trkpt>
      <trkpt lat="44.13269" lon="3.2507">
        <ele>813.5</ele>
        <time>2015-12-06T09:24:00Z</time>
      </trkpt>
      <trkpt lat="44.1327" lon="3.2507">
        <ele>813.5</ele>
        <time>2015-12-06T09:24:01Z</time>
      </trkpt>
      <trkpt lat="44.13272" lon="3.2507">
        <ele>814</ele>
        <time>2015-12-06T09:24:02Z</time>
      </trkpt>
      <trkpt lat="44.13273" lon="3.25069">
        <ele>814.5</ele>
        <time>2015-12-06T09:24:03Z</time>
      </trkpt>
      <trkpt lat="44.13274" lon="3.25068">
        <ele>815.5</ele>
        <time>2015-12-06T09:24:04Z</time>
      </trkpt>
      <trkpt lat="44.13276" lon="3.25067">
        <ele>815.5</ele>
        <time>2015-12-06T09:24:05Z</time>
      </trkpt>
      <trkpt lat="44.13277" lon="3.25066">
        <ele>816.5</ele>
        <time>2015-12-06T09:24:06Z</time>
      </trkpt>
      <trkpt lat="44.13279" lon="3.25066">
        <ele>817</ele>
        <time>2015-12-06T09:24:07Z</time>
      </trkpt>
      <trkpt lat="44.1328" lon="3.25066">
        <ele>817</ele>
        <time>2015-12-06T09:24:08Z</time>
      </trkpt>
      <trkpt lat="44.13282" lon="3.25066">
        <ele>817</ele>
        <time>2015-12-06T09:24:09Z</time>
      </trkpt>
      <trkpt lat="44.13283" lon="3.25066">
        <ele>817</ele>
        <time>2015-12-06T09:24:10Z</time>
      </trkpt>
      <trkpt lat="44.13285" lon="3.25066">
        <ele>817</ele>
        <time>2015-12-06T09:24:11Z</time>
      </trkpt>
      <trkpt lat="44.13286" lon="3.25067">
        <ele>817</ele>
        <time>2015-12-06T09:24:12Z</time>
      </trkpt>
      <trkpt lat="44.13288" lon="3.25068">
        <ele>817</ele>
        <time>2015-12-06T09:24:13Z</time>
      </trkpt>
      <trkpt lat="44.13289" lon="3.25068">
        <ele>817</ele>
        <time>2015-12-06T09:24:14Z</time>
      </trkpt>
      <trkpt lat="44.13291" lon="3.25068">
        <ele>817</ele>
        <time>2015-12-06T09:24:15Z</time>
      </trkpt>
      <trkpt lat="44.13292" lon="3.25069">
        <ele>817</ele>
        <time>2015-12-06T09:24:16Z</time>
      </trkpt>
      <trkpt lat="44.13294" lon="3.25069">
        <ele>817.5</ele>
        <time>2015-12-06T09:24:17Z</time>
      </trkpt>
      <trkpt lat="44.13295" lon="3.2507">
        <ele>817</ele>
        <time>2015-12-06T09:24:18Z</time>
      </trkpt>
      <trkpt lat="44.13297" lon="3.25071">
        <ele>817</ele>
        <time>2015-12-06T09:24:19Z</time>
      </trkpt>
      <trkpt lat="44.13298" lon="3.25071">
        <ele>817.5</ele>
        <time>2015-12-06T09:24:20Z</time>
      </trkpt>
      <trkpt lat="44.133" lon="3.25072">
        <ele>817</ele>
        <time>2015-12-06T09:24:21Z</time>
      </trkpt>
      <trkpt lat="44.13301" lon="3.25072">
        <ele>817.5</ele>
        <time>2015-12-06T09:24:22Z</time>
      </trkpt>
      <trkpt lat="44.13302" lon="3.25073">
        <ele>818</ele>
        <time>2015-12-06T09:24:23Z</time>
      </trkpt>
      <trkpt lat="44.13304" lon="3.25074">
        <ele>818</ele>
        <time>2015-12-06T09:24:24Z</time>
      </trkpt>
      <trkpt lat="44.13305" lon="3.25075">
        <ele>818.5</ele>
        <time>2015-12-06T09:24:25Z</time>
      </trkpt>
      <trkpt lat="44.13307" lon="3.25076">
        <ele>818</ele>
        <time>2015-12-06T09:24:26Z</time>
      </trkpt>
      <trkpt lat="44.13308" lon="3.25077">
        <ele>818</ele>
        <time>2015-12-06T09:24:27Z</time>
      </trkpt>
      <trkpt lat="44.1331" lon="3.25078">
        <ele>818</ele>
        <time>2015-12-06T09:24:28Z</time>
      </trkpt>
      <trkpt lat="44.13311" lon="3.25078">
        <ele>818</ele>
        <time>2015-12-06T09:24:29Z</time>
      </trkpt>
      <trkpt lat="44.13313" lon="3.2508">
        <ele>818</ele>
        <time>2015-12-06T09:24:30Z</time>
      </trkpt>
      <trkpt lat="44.13314" lon="3.25081">
        <ele>817.5</ele>
        <time>2015-12-06T09:24:31Z</time>
      </trkpt>
      <trkpt lat="44.13315" lon="3.25082">
        <ele>817.5</ele>
        <time>2015-12-06T09:24:32Z</time>
      </trkpt>
      <trkpt lat="44.13317" lon="3.25084">
        <ele>817</ele>
        <time>2015-12-06T09:24:33Z</time>
      </trkpt>
      <trkpt lat="44.13318" lon="3.25086">
        <ele>816.5</ele>
        <time>2015-12-06T09:24:34Z</time>
      </trkpt>
      <trkpt lat="44.1332" lon="3.25088">
        <ele>816</ele>
        <time>2015-12-06T09:24:35Z</time>
      </trkpt>
      <trkpt lat="44.13321" lon="3.2509">
        <ele>815.5</ele>
        <time>2015-12-06T09:24:36Z</time>
      </trkpt>
      <trkpt lat="44.13322" lon="3.25092">
        <ele>815.5</ele>
        <time>2015-12-06T09:24:37Z</time>
      </trkpt>
      <trkpt lat="44.13323" lon="3.25093">
        <ele>815.5</ele>
        <time>2015-12-06T09:24:38Z</time>
      </trkpt>
      <trkpt lat="44.13325" lon="3.25094">
        <ele>815.5</ele>
        <time>2015-12-06T09:24:39Z</time>
      </trkpt>
      <trkpt lat="44.13326" lon="3.25096">
        <ele>815.5</ele>
        <time>2015-12-06T09:24:40Z</time>
      </trkpt>
      <trkpt lat="44.13327" lon="3.25098">
        <ele>815</ele>
        <time>2015-12-06T09:24:41Z</time>
      </trkpt>
      <trkpt lat="44.13329" lon="3.25099">
        <ele>815</ele>
        <time>2015-12-06T09:24:42Z</time>
      </trkpt>
      <trkpt lat="44.1333" lon="3.25101">
        <ele>815</ele>
        <time>2015-12-06T09:24:43Z</time>
      </trkpt>
      <trkpt lat="44.13331" lon="3.25102">
        <ele>815</ele>
        <time>2015-12-06T09:24:44Z</time>
      </trkpt>
      <trkpt lat="44.13332" lon="3.25104">
        <ele>815</ele>
        <time>2015-12-06T09:24:45Z</time>
      </trkpt>
      <trkpt lat="44.13334" lon="3.25105">
        <ele>815</ele>
        <time>2015-12-06T09:24:46Z</time>
      </trkpt>
      <trkpt lat="44.13335" lon="3.25106">
        <ele>815</ele>
        <time>2015-12-06T09:24:47Z</time>
      </trkpt>
      <trkpt lat="44.13336" lon="3.25108">
        <ele>815</ele>
        <time>2015-12-06T09:24:48Z</time>
      </trkpt>
      <trkpt lat="44.13337" lon="3.25109">
        <ele>815</ele>
        <time>2015-12-06T09:24:49Z</time>
      </trkpt>
      <trkpt lat="44.13339" lon="3.2511">
        <ele>815</ele>
        <time>2015-12-06T09:24:50Z</time>
      </trkpt>
      <trkpt lat="44.1334" lon="3.25111">
        <ele>815.5</ele>
        <time>2015-12-06T09:24:51Z</time>
      </trkpt>
      <trkpt lat="44.13341" lon="3.25112">
        <ele>816</ele>
        <time>2015-12-06T09:24:52Z</time>
      </trkpt>
      <trkpt lat="44.13342" lon="3.25113">
        <ele>816.5</ele>
        <time>2015-12-06T09:24:53Z</time>
      </trkpt>
      <trkpt lat="44.13343" lon="3.25114">
        <ele>816.5</ele>
        <time>2015-12-06T09:24:54Z</time>
      </trkpt>
      <trkpt lat="44.13345" lon="3.25115">
        <ele>816.5</ele>
        <time>2015-12-06T09:24:55Z</time>
      </trkpt>
      <trkpt lat="44.13346" lon="3.25116">
        <ele>817</ele>
        <time>2015-12-06T09:24:56Z</time>
      </trkpt>
      <trkpt lat="44.13347" lon="3.25118">
        <ele>817.5</ele>
        <time>2015-12-06T09:24:57Z</time>
      </trkpt>
      <trkpt lat="44.13349" lon="3.25119">
        <ele>818</ele>
        <time>2015-12-06T09:24:58Z</time>
      </trkpt>
      <trkpt lat="44.1335" lon="3.2512">
        <ele>818</ele>
        <time>2015-12-06T09:24:59Z</time>
      </trkpt>
      <trkpt lat="44.13351" lon="3.25121">
        <ele>818</ele>
        <time>2015-12-06T09:25:00Z</time>
      </trkpt>
      <trkpt lat="44.13352" lon="3.25122">
        <ele>818.5</ele>
        <time>2015-12-06T09:25:01Z</time>
      </trkpt>
      <trkpt lat="44.13354" lon="3.25123">
        <ele>819</ele>
        <time>2015-12-06T09:25:02Z</time>
      </trkpt>
      <trkpt lat="44.13355" lon="3.25124">
        <ele>819</ele>
        <time>2015-12-06T09:25:03Z</time>
      </trkpt>
      <trkpt lat="44.13356" lon="3.25125">
        <ele>819</ele>
        <time>2015-12-06T09:25:04Z</time>
      </trkpt>
      <trkpt lat="44.13357" lon="3.25126">
        <ele>819.5</ele>
        <time>2015-12-06T09:25:05Z</time>
      </trkpt>
      <trkpt lat="44.13359" lon="3.25127">
        <ele>820</ele>
        <time>2015-12-06T09:25:06Z</time>
      </trkpt>
      <trkpt lat="44.1336" lon="3.25128">
        <ele>820.5</ele>
        <time>2015-12-06T09:25:07Z</time>
      </trkpt>
      <trkpt lat="44.13361" lon="3.2513">
        <ele>820.5</ele>
        <time>2015-12-06T09:25:08Z</time>
      </trkpt>
      <trkpt lat="44.13362" lon="3.25131">
        <ele>820.5</ele>
        <time>2015-12-06T09:25:09Z</time>
      </trkpt>
      <trkpt lat="44.13364" lon="3.25132">
        <ele>820.5</ele>
        <time>2015-12-06T09:25:10Z</time>
      </trkpt>
      <trkpt lat="44.13365" lon="3.25133">
        <ele>821</ele>
        <time>2015-12-06T09:25:11Z</time>
      </trkpt>
      <trkpt lat="44.13366" lon="3.25134">
        <ele>821</ele>
        <time>2015-12-06T09:25:11Z</time>
      </trkpt>
      <trkpt lat="44.13368" lon="3.25136">
        <ele>821</ele>
        <time>2015-12-06T09:25:12Z</time>
      </trkpt>
      <trkpt lat="44.13369" lon="3.25137">
        <ele>821</ele>
        <time>2015-12-06T09:25:13Z</time>
      </trkpt>
      <trkpt lat="44.1337" lon="3.25138">
        <ele>821.5</ele>
        <time>2015-12-06T09:25:14Z</time>
      </trkpt>
      <trkpt lat="44.13372" lon="3.25139">
        <ele>821.5</ele>
        <time>2015-12-06T09:25:15Z</time>
      </trkpt>
      <trkpt lat="44.13373" lon="3.2514">
        <ele>821.5</ele>
        <time>2015-12-06T09:25:16Z</time>
      </trkpt>
      <trkpt lat="44.13375" lon="3.25141">
        <ele>822</ele>
        <time>2015-12-06T09:25:17Z</time>
      </trkpt>
      <trkpt lat="44.13376" lon="3.25143">
        <ele>822</ele>
        <time>2015-12-06T09:25:18Z</time>
      </trkpt>
      <trkpt lat="44.13377" lon="3.25144">
        <ele>822.5</ele>
        <time>2015-12-06T09:25:19Z</time>
      </trkpt>
      <trkpt lat="44.13379" lon="3.25146">
        <ele>822.5</ele>
        <time>2015-12-06T09:25:20Z</time>
      </trkpt>
      <trkpt lat="44.1338" lon="3.25147">
        <ele>822.5</ele>
        <time>2015-12-06T09:25:21Z</time>
      </trkpt>
      <trkpt lat="44.13381" lon="3.25148">
        <ele>823</ele>
        <time>2015-12-06T09:25:22Z</time>
      </trkpt>
      <trkpt lat="44.13383" lon="3.25149">
        <ele>823.5</ele>
        <time>2015-12-06T09:25:23Z</time>
      </trkpt>
      <trkpt lat="44.13384" lon="3.25149">
        <ele>823.5</ele>
        <time>2015-12-06T09:25:24Z</time>
      </trkpt>
      <trkpt lat="44.13385" lon="3.2515">
        <ele>824</ele>
        <time>2015-12-06T09:25:25Z</time>
      </trkpt>
      <trkpt lat="44.13387" lon="3.25152">
        <ele>824</ele>
        <time>2015-12-06T09:25:26Z</time>
      </trkpt>
      <trkpt lat="44.13388" lon="3.25153">
        <ele>824</ele>
        <time>2015-12-06T09:25:27Z</time>
      </trkpt>
      <trkpt lat="44.13389" lon="3.25154">
        <ele>824</ele>
        <time>2015-12-06T09:25:28Z</time>
      </trkpt>
      <trkpt lat="44.13391" lon="3.25155">
        <ele>824</ele>
        <time>2015-12-06T09:25:29Z</time>
      </trkpt>
      <trkpt lat="44.13392" lon="3.25155">
        <ele>824.5</ele>
        <time>2015-12-06T09:25:30Z</time>
      </trkpt>
      <trkpt lat="44.13394" lon="3.25156">
        <ele>825</ele>
        <time>2015-12-06T09:25:31Z</time>
      </trkpt>
      <trkpt lat="44.13395" lon="3.25158">
        <ele>825</ele>
        <time>2015-12-06T09:25:32Z</time>
      </trkpt>
      <trkpt lat="44.13397" lon="3.25159">
        <ele>825.5</ele>
        <time>2015-12-06T09:25:33Z</time>
      </trkpt>
      <trkpt lat="44.13398" lon="3.2516">
        <ele>825.5</ele>
        <time>2015-12-06T09:25:34Z</time>
      </trkpt>
      <trkpt lat="44.13399" lon="3.25162">
        <ele>825.5</ele>
        <time>2015-12-06T09:25:35Z</time>
      </trkpt>
      <trkpt lat="44.134" lon="3.25163">
        <ele>826</ele>
        <time>2015-12-06T09:25:36Z</time>
      </trkpt>
      <trkpt lat="44.13402" lon="3.25163">
        <ele>826.5</ele>
        <time>2015-12-06T09:25:37Z</time>
      </trkpt>
      <trkpt lat="44.13403" lon="3.25164">
        <ele>826.5</ele>
        <time>2015-12-06T09:25:38Z</time>
      </trkpt>
      <trkpt lat="44.13405" lon="3.25165">
        <ele>826.5</ele>
        <time>2015-12-06T09:25:39Z</time>
      </trkpt>
      <trkpt lat="44.13406" lon="3.25167">
        <ele>826.5</ele>
        <time>2015-12-06T09:25:40Z</time>
      </trkpt>
      <trkpt lat="44.13408" lon="3.25168">
        <ele>827</ele>
        <time>2015-12-06T09:25:41Z</time>
      </trkpt>
      <trkpt lat="44.13409" lon="3.25169">
        <ele>827</ele>
        <time>2015-12-06T09:25:42Z</time>
      </trkpt>
      <trkpt lat="44.1341" lon="3.2517">
        <ele>827.5</ele>
        <time>2015-12-06T09:25:43Z</time>
      </trkpt>
      <trkpt lat="44.13412" lon="3.25172">
        <ele>827</ele>
        <time>2015-12-06T09:25:44Z</time>
      </trkpt>
      <trkpt lat="44.13413" lon="3.25173">
        <ele>827</ele>
        <time>2015-12-06T09:25:45Z</time>
      </trkpt>
      <trkpt lat="44.13415" lon="3.25174">
        <ele>827</ele>
        <time>2015-12-06T09:25:46Z</time>
      </trkpt>
      <trkpt lat="44.13416" lon="3.25175">
        <ele>827.5</ele>
        <time>2015-12-06T09:25:47Z</time>
      </trkpt>
      <trkpt lat="44.13418" lon="3.25177">
        <ele>827.5</ele>
        <time>2015-12-06T09:25:48Z</time>
      </trkpt>
      <trkpt lat="44.13419" lon="3.25178">
        <ele>827.5</ele>
        <time>2015-12-06T09:25:49Z</time>
      </trkpt>
      <trkpt lat="44.1342" lon="3.2518">
        <ele>827.5</ele>
        <time>2015-12-06T09:25:50Z</time>
      </trkpt>
      <trkpt lat="44.13422" lon="3.25181">
        <ele>827.5</ele>
        <time>2015-12-06T09:25:51Z</time>
      </trkpt>
      <trkpt lat="44.13423" lon="3.25183">
        <ele>827.5</ele>
        <time>2015-12-06T09:25:52Z</time>
      </trkpt>
      <trkpt lat="44.13425" lon="3.25184">
        <ele>827.5</ele>
        <time>2015-12-06T09:25:53Z</time>
      </trkpt>
      <trkpt lat="44.13426" lon="3.25185">
        <ele>828</ele>
        <time>2015-12-06T09:25:54Z</time>
      </trkpt>
      <trkpt lat="44.13428" lon="3.25186">
        <ele>828</ele>
        <time>2015-12-06T09:25:55Z</time>
      </trkpt>
      <trkpt lat="44.1343" lon="3.25188">
        <ele>827.5</ele>
        <time>2015-12-06T09:25:56Z</time>
      </trkpt>
      <trkpt lat="44.13431" lon="3.25189">
        <ele>827.5</ele>
        <time>2015-12-06T09:25:57Z</time>
      </trkpt>
      <trkpt lat="44.13433" lon="3.2519">
        <ele>827.5</ele>
        <time>2015-12-06T09:25:58Z</time>
      </trkpt>
      <trkpt lat="44.13434" lon="3.25192">
        <ele>827.5</ele>
        <time>2015-12-06T09:25:59Z</time>
      </trkpt>
      <trkpt lat="44.13436" lon="3.25193">
        <ele>827.5</ele>
        <time>2015-12-06T09:26:00Z</time>
      </trkpt>
      <trkpt lat="44.13437" lon="3.25195">
        <ele>827.5</ele>
        <time>2015-12-06T09:26:01Z</time>
      </trkpt>
      <trkpt lat="44.13438" lon="3.25196">
        <ele>827.5</ele>
        <time>2015-12-06T09:26:02Z</time>
      </trkpt>
      <trkpt lat="44.1344" lon="3.25198">
        <ele>827.5</ele>
        <time>2015-12-06T09:26:03Z</time>
      </trkpt>
      <trkpt lat="44.13441" lon="3.25199">
        <ele>827.5</ele>
        <time>2015-12-06T09:26:04Z</time>
      </trkpt>
      <trkpt lat="44.13443" lon="3.252">
        <ele>827.5</ele>
        <time>2015-12-06T09:26:05Z</time>
      </trkpt>
      <trkpt lat="44.13444" lon="3.25202">
        <ele>827.5</ele>
        <time>2015-12-06T09:26:06Z</time>
      </trkpt>
      <trkpt lat="44.13446" lon="3.25203">
        <ele>827.5</ele>
        <time>2015-12-06T09:26:07Z</time>
      </trkpt>
      <trkpt lat="44.13447" lon="3.25204">
        <ele>827.5</ele>
        <time>2015-12-06T09:26:08Z</time>
      </trkpt>
      <trkpt lat="44.13448" lon="3.25206">
        <ele>827.5</ele>
        <time>2015-12-06T09:26:09Z</time>
      </trkpt>
      <trkpt lat="44.1345" lon="3.25207">
        <ele>827.5</ele>
        <time>2015-12-06T09:26:10Z</time>
      </trkpt>
      <trkpt lat="44.13451" lon="3.25208">
        <ele>827.5</ele>
        <time>2015-12-06T09:26:11Z</time>
      </trkpt>
      <trkpt lat="44.13452" lon="3.25209">
        <ele>827.5</ele>
        <time>2015-12-06T09:26:12Z</time>
      </trkpt>
      <trkpt lat="44.13454" lon="3.2521">
        <ele>827.5</ele>
        <time>2015-12-06T09:26:13Z</time>
      </trkpt>
      <trkpt lat="44.13455" lon="3.25211">
        <ele>828</ele>
        <time>2015-12-06T09:26:14Z</time>
      </trkpt>
      <trkpt lat="44.13457" lon="3.25213">
        <ele>827.5</ele>
        <time>2015-12-06T09:26:15Z</time>
      </trkpt>
      <trkpt lat="44.13458" lon="3.25214">
        <ele>828</ele>
        <time>2015-12-06T09:26:16Z</time>
      </trkpt>
      <trkpt lat="44.13459" lon="3.25215">
        <ele>828</ele>
        <time>2015-12-06T09:26:17Z</time>
      </trkpt>
      <trkpt lat="44.1346" lon="3.25216">
        <ele>828</ele>
        <time>2015-12-06T09:26:18Z</time>
      </trkpt>
      <trkpt lat="44.13462" lon="3.25217">
        <ele>828</ele>
        <time>2015-12-06T09:26:19Z</time>
      </trkpt>
      <trkpt lat="44.13463" lon="3.25219">
        <ele>828</ele>
        <time>2015-12-06T09:26:20Z</time>
      </trkpt>
      <trkpt lat="44.13464" lon="3.2522">
        <ele>828</ele>
        <time>2015-12-06T09:26:21Z</time>
      </trkpt>
      <trkpt lat="44.13465" lon="3.25221">
        <ele>828</ele>
        <time>2015-12-06T09:26:22Z</time>
      </trkpt>
      <trkpt lat="44.13466" lon="3.25222">
        <ele>828</ele>
        <time>2015-12-06T09:26:23Z</time>
      </trkpt>
      <trkpt lat="44.13467" lon="3.25223">
        <ele>827.5</ele>
        <time>2015-12-06T09:26:24Z</time>
      </trkpt>
      <trkpt lat="44.13468" lon="3.25224">
        <ele>827</ele>
        <time>2015-12-06T09:26:25Z</time>
      </trkpt>
      <trkpt lat="44.13469" lon="3.25225">
        <ele>827</ele>
        <time>2015-12-06T09:26:26Z</time>
      </trkpt>
      <trkpt lat="44.1347" lon="3.25227">
        <ele>827</ele>
        <time>2015-12-06T09:26:27Z</time>
      </trkpt>
      <trkpt lat="44.13471" lon="3.25228">
        <ele>827</ele>
        <time>2015-12-06T09:26:28Z</time>
      </trkpt>
      <trkpt lat="44.13471" lon="3.25229">
        <ele>827</ele>
        <time>2015-12-06T09:26:29Z</time>
      </trkpt>
      <trkpt lat="44.13472" lon="3.25231">
        <ele>827</ele>
        <time>2015-12-06T09:26:30Z</time>
      </trkpt>
      <trkpt lat="44.13473" lon="3.25232">
        <ele>827.5</ele>
        <time>2015-12-06T09:26:31Z</time>
      </trkpt>
      <trkpt lat="44.13473" lon="3.25233">
        <ele>827.5</ele>
        <time>2015-12-06T09:26:32Z</time>
      </trkpt>
      <trkpt lat="44.13474" lon="3.25233">
        <ele>827.5</ele>
        <time>2015-12-06T09:26:33Z</time>
      </trkpt>
      <trkpt lat="44.13475" lon="3.25233">
        <ele>827.5</ele>
        <time>2015-12-06T09:26:34Z</time>
      </trkpt>
      <trkpt lat="44.13475" lon="3.25232">
        <ele>828</ele>
        <time>2015-12-06T09:26:35Z</time>
      </trkpt>
      <trkpt lat="44.13475" lon="3.25231">
        <ele>828</ele>
        <time>2015-12-06T09:26:36Z</time>
      </trkpt>
      <trkpt lat="44.13475" lon="3.2523">
        <ele>828</ele>
        <time>2015-12-06T09:26:37Z</time>
      </trkpt>
      <trkpt lat="44.13475" lon="3.25228">
        <ele>828</ele>
        <time>2015-12-06T09:26:38Z</time>
      </trkpt>
      <trkpt lat="44.13475" lon="3.25228">
        <ele>828</ele>
        <time>2015-12-06T09:26:39Z</time>
      </trkpt>
      <trkpt lat="44.13474" lon="3.25227">
        <ele>828</ele>
        <time>2015-12-06T09:26:40Z</time>
      </trkpt>
      <trkpt lat="44.13474" lon="3.25227">
        <ele>828</ele>
        <time>2015-12-06T09:26:41Z</time>
      </trkpt>
      <trkpt lat="44.13473" lon="3.25227">
        <ele>827.5</ele>
        <time>2015-12-06T09:26:42Z</time>
      </trkpt>
      <trkpt lat="44.13473" lon="3.25227">
        <ele>827</ele>
        <time>2015-12-06T09:26:43Z</time>
      </trkpt>
      <trkpt lat="44.13472" lon="3.25228">
        <ele>827</ele>
        <time>2015-12-06T09:26:44Z</time>
      </trkpt>
      <trkpt lat="44.13471" lon="3.25228">
        <ele>828</ele>
        <time>2015-12-06T09:26:45Z</time>
      </trkpt>
      <trkpt lat="44.13471" lon="3.2523">
        <ele>828</ele>
        <time>2015-12-06T09:26:46Z</time>
      </trkpt>
      <trkpt lat="44.13471" lon="3.25232">
        <ele>827</ele>
        <time>2015-12-06T09:26:47Z</time>
      </trkpt>
      <trkpt lat="44.13472" lon="3.25233">
        <ele>827</ele>
        <time>2015-12-06T09:26:48Z</time>
      </trkpt>
      <trkpt lat="44.13473" lon="3.25234">
        <ele>827</ele>
        <time>2015-12-06T09:26:49Z</time>
      </trkpt>
      <trkpt lat="44.13474" lon="3.25235">
        <ele>827.5</ele>
        <time>2015-12-06T09:26:50Z</time>
      </trkpt>
      <trkpt lat="44.13475" lon="3.25236">
        <ele>827</ele>
        <time>2015-12-06T09:26:51Z</time>
      </trkpt>
      <trkpt lat="44.13475" lon="3.25238">
        <ele>827</ele>
        <time>2015-12-06T09:26:52Z</time>
      </trkpt>
      <trkpt lat="44.13476" lon="3.25239">
        <ele>827</ele>
        <time>2015-12-06T09:26:53Z</time>
      </trkpt>
      <trkpt lat="44.13477" lon="3.2524">
        <ele>827</ele>
        <time>2015-12-06T09:26:54Z</time>
      </trkpt>
      <trkpt lat="44.13478" lon="3.25241">
        <ele>827</ele>
        <time>2015-12-06T09:26:55Z</time>
      </trkpt>
      <trkpt lat="44.13479" lon="3.25242">
        <ele>827</ele>
        <time>2015-12-06T09:26:56Z</time>
      </trkpt>
      <trkpt lat="44.1348" lon="3.25243">
        <ele>827</ele>
        <time>2015-12-06T09:26:57Z</time>
      </trkpt>
      <trkpt lat="44.13481" lon="3.25243">
        <ele>826.5</ele>
        <time>2015-12-06T09:26:58Z</time>
      </trkpt>
      <trkpt lat="44.13482" lon="3.25244">
        <ele>826.5</ele>
        <time>2015-12-06T09:26:59Z</time>
      </trkpt>
      <trkpt lat="44.13483" lon="3.25244">
        <ele>826.5</ele>
        <time>2015-12-06T09:27:00Z</time>
      </trkpt>
      <trkpt lat="44.13484" lon="3.25245">
        <ele>827</ele>
        <time>2015-12-06T09:27:01Z</time>
      </trkpt>
      <trkpt lat="44.13485" lon="3.25246">
        <ele>826.5</ele>
        <time>2015-12-06T09:27:02Z</time>
      </trkpt>
      <trkpt lat="44.13486" lon="3.25247">
        <ele>826.5</ele>
        <time>2015-12-06T09:27:03Z</time>
      </trkpt>
      <trkpt lat="44.13487" lon="3.25249">
        <ele>826.5</ele>
        <time>2015-12-06T09:27:04Z</time>
      </trkpt>
      <trkpt lat="44.13488" lon="3.2525">
        <ele>826.5</ele>
        <time>2015-12-06T09:27:05Z</time>
      </trkpt>
      <trkpt lat="44.13489" lon="3.25252">
        <ele>826.5</ele>
        <time>2015-12-06T09:27:06Z</time>
      </trkpt>
      <trkpt lat="44.1349" lon="3.25253">
        <ele>826.5</ele>
        <time>2015-12-06T09:27:07Z</time>
      </trkpt>
      <trkpt lat="44.13491" lon="3.25255">
        <ele>826.5</ele>
        <time>2015-12-06T09:27:08Z</time>
      </trkpt>
      <trkpt lat="44.13491" lon="3.25256">
        <ele>826.5</ele>
        <time>2015-12-06T09:27:09Z</time>
      </trkpt>
      <trkpt lat="44.13492" lon="3.25257">
        <ele>826.5</ele>
        <time>2015-12-06T09:27:10Z</time>
      </trkpt>
      <trkpt lat="44.13493" lon="3.25258">
        <ele>827</ele>
        <time>2015-12-06T09:27:11Z</time>
      </trkpt>
      <trkpt lat="44.13495" lon="3.25259">
        <ele>827</ele>
        <time>2015-12-06T09:27:12Z</time>
      </trkpt>
      <trkpt lat="44.13496" lon="3.2526">
        <ele>827</ele>
        <time>2015-12-06T09:27:13Z</time>
      </trkpt>
      <trkpt lat="44.13497" lon="3.25261">
        <ele>827.5</ele>
        <time>2015-12-06T09:27:14Z</time>
      </trkpt>
      <trkpt lat="44.13498" lon="3.25262">
        <ele>827.5</ele>
        <time>2015-12-06T09:27:15Z</time>
      </trkpt>
      <trkpt lat="44.13498" lon="3.25263">
        <ele>827.5</ele>
        <time>2015-12-06T09:27:16Z</time>
      </trkpt>
      <trkpt lat="44.13499" lon="3.25263">
        <ele>827.5</ele>
        <time>2015-12-06T09:27:17Z</time>
      </trkpt>
      <trkpt lat="44.13499" lon="3.25262">
        <ele>827.5</ele>
        <time>2015-12-06T09:27:18Z</time>
      </trkpt>
      <trkpt lat="44.13499" lon="3.25262">
        <ele>827.5</ele>
        <time>2015-12-06T09:27:19Z</time>
      </trkpt>
      <trkpt lat="44.13499" lon="3.25261">
        <ele>827.5</ele>
        <time>2015-12-06T09:27:20Z</time>
      </trkpt>
      <trkpt lat="44.13498" lon="3.2526">
        <ele>827</ele>
        <time>2015-12-06T09:27:21Z</time>
      </trkpt>
      <trkpt lat="44.13498" lon="3.2526">
        <ele>826.5</ele>
        <time>2015-12-06T09:27:22Z</time>
      </trkpt>
      <trkpt lat="44.13498" lon="3.25259">
        <ele>826</ele>
        <time>2015-12-06T09:27:23Z</time>
      </trkpt>
      <trkpt lat="44.13498" lon="3.25259">
        <ele>826</ele>
        <time>2015-12-06T09:27:24Z</time>
      </trkpt>
      <trkpt lat="44.13499" lon="3.25259">
        <ele>826</ele>
        <time>2015-12-06T09:27:25Z</time>
      </trkpt>
      <trkpt lat="44.13499" lon="3.2526">
        <ele>826</ele>
        <time>2015-12-06T09:27:26Z</time>
      </trkpt>
      <trkpt lat="44.135" lon="3.25261">
        <ele>826.5</ele>
        <time>2015-12-06T09:27:27Z</time>
      </trkpt>
      <trkpt lat="44.135" lon="3.25263">
        <ele>826.5</ele>
        <time>2015-12-06T09:27:28Z</time>
      </trkpt>
      <trkpt lat="44.13501" lon="3.25265">
        <ele>826</ele>
        <time>2015-12-06T09:27:29Z</time>
      </trkpt>
      <trkpt lat="44.13502" lon="3.25266">
        <ele>826.5</ele>
        <time>2015-12-06T09:27:30Z</time>
      </trkpt>
      <trkpt lat="44.13502" lon="3.25268">
        <ele>826.5</ele>
        <time>2015-12-06T09:27:31Z</time>
      </trkpt>
      <trkpt lat="44.13504" lon="3.25269">
        <ele>827</ele>
        <time>2015-12-06T09:27:32Z</time>
      </trkpt>
      <trkpt lat="44.13505" lon="3.2527">
        <ele>827</ele>
        <time>2015-12-06T09:27:33Z</time>
      </trkpt>
      <trkpt lat="44.13506" lon="3.25271">
        <ele>827.5</ele>
        <time>2015-12-06T09:27:34Z</time>
      </trkpt>
      <trkpt lat="44.13507" lon="3.25273">
        <ele>827</ele>
        <time>2015-12-06T09:27:35Z</time>
      </trkpt>
      <trkpt lat="44.13508" lon="3.25275">
        <ele>827.5</ele>
        <time>2015-12-06T09:27:36Z</time>
      </trkpt>
      <trkpt lat="44.13509" lon="3.25276">
        <ele>827.5</ele>
        <time>2015-12-06T09:27:37Z</time>
      </trkpt>
      <trkpt lat="44.1351" lon="3.25278">
        <ele>828</ele>
        <time>2015-12-06T09:27:38Z</time>
      </trkpt>
      <trkpt lat="44.13511" lon="3.25279">
        <ele>828.5</ele>
        <time>2015-12-06T09:27:39Z</time>
      </trkpt>
      <trkpt lat="44.13512" lon="3.25281">
        <ele>828.5</ele>
        <time>2015-12-06T09:27:40Z</time>
      </trkpt>
      <trkpt lat="44.13513" lon="3.25284">
        <ele>828</ele>
        <time>2015-12-06T09:27:41Z</time>
      </trkpt>
      <trkpt lat="44.13515" lon="3.25286">
        <ele>828.5</ele>
        <time>2015-12-06T09:27:42Z</time>
      </trkpt>
      <trkpt lat="44.13518" lon="3.25288">
        <ele>828.5</ele>
        <time>2015-12-06T09:27:43Z</time>
      </trkpt>
      <trkpt lat="44.1352" lon="3.25291">
        <ele>829</ele>
        <time>2015-12-06T09:27:44Z</time>
      </trkpt>
      <trkpt lat="44.13522" lon="3.25293">
        <ele>829</ele>
        <time>2015-12-06T09:27:45Z</time>
      </trkpt>
      <trkpt lat="44.13523" lon="3.25294">
        <ele>829.5</ele>
        <time>2015-12-06T09:27:46Z</time>
      </trkpt>
      <trkpt lat="44.13525" lon="3.25296">
        <ele>829.5</ele>
        <time>2015-12-06T09:27:47Z</time>
      </trkpt>
      <trkpt lat="44.13526" lon="3.25297">
        <ele>830.5</ele>
        <time>2015-12-06T09:27:48Z</time>
      </trkpt>
      <trkpt lat="44.13528" lon="3.25298">
        <ele>830.5</ele>
        <time>2015-12-06T09:27:49Z</time>
      </trkpt>
      <trkpt lat="44.13529" lon="3.25299">
        <ele>831</ele>
        <time>2015-12-06T09:27:50Z</time>
      </trkpt>
      <trkpt lat="44.1353" lon="3.253">
        <ele>831.5</ele>
        <time>2015-12-06T09:27:51Z</time>
      </trkpt>
      <trkpt lat="44.13532" lon="3.25302">
        <ele>831.5</ele>
        <time>2015-12-06T09:27:52Z</time>
      </trkpt>
      <trkpt lat="44.13533" lon="3.25302">
        <ele>832</ele>
        <time>2015-12-06T09:27:53Z</time>
      </trkpt>
      <trkpt lat="44.13535" lon="3.25304">
        <ele>832</ele>
        <time>2015-12-06T09:27:54Z</time>
      </trkpt>
      <trkpt lat="44.13536" lon="3.25305">
        <ele>832.5</ele>
        <time>2015-12-06T09:27:55Z</time>
      </trkpt>
      <trkpt lat="44.13538" lon="3.25306">
        <ele>832.5</ele>
        <time>2015-12-06T09:27:56Z</time>
      </trkpt>
      <trkpt lat="44.13539" lon="3.25308">
        <ele>833</ele>
        <time>2015-12-06T09:27:57Z</time>
      </trkpt>
      <trkpt lat="44.13541" lon="3.2531">
        <ele>833.5</ele>
        <time>2015-12-06T09:27:58Z</time>
      </trkpt>
      <trkpt lat="44.13543" lon="3.25312">
        <ele>833.5</ele>
        <time>2015-12-06T09:27:59Z</time>
      </trkpt>
      <trkpt lat="44.13544" lon="3.25313">
        <ele>834</ele>
        <time>2015-12-06T09:28:00Z</time>
      </trkpt>
      <trkpt lat="44.13546" lon="3.25315">
        <ele>834</ele>
        <time>2015-12-06T09:28:01Z</time>
      </trkpt>
      <trkpt lat="44.13548" lon="3.25318">
        <ele>834.5</ele>
        <time>2015-12-06T09:28:02Z</time>
      </trkpt>
      <trkpt lat="44.13549" lon="3.2532">
        <ele>834.5</ele>
        <time>2015-12-06T09:28:03Z</time>
      </trkpt>
      <trkpt lat="44.13551" lon="3.25322">
        <ele>834.5</ele>
        <time>2015-12-06T09:28:04Z</time>
      </trkpt>
      <trkpt lat="44.13552" lon="3.25324">
        <ele>834.5</ele>
        <time>2015-12-06T09:28:05Z</time>
      </trkpt>
      <trkpt lat="44.13554" lon="3.25326">
        <ele>834.5</ele>
        <time>2015-12-06T09:28:06Z</time>
      </trkpt>
      <trkpt lat="44.13555" lon="3.25329">
        <ele>834.5</ele>
        <time>2015-12-06T09:28:07Z</time>
      </trkpt>
      <trkpt lat="44.13557" lon="3.2533">
        <ele>835</ele>
        <time>2015-12-06T09:28:08Z</time>
      </trkpt>
      <trkpt lat="44.13559" lon="3.25332">
        <ele>835</ele>
        <time>2015-12-06T09:28:09Z</time>
      </trkpt>
      <trkpt lat="44.13561" lon="3.25334">
        <ele>835</ele>
        <time>2015-12-06T09:28:10Z</time>
      </trkpt>
      <trkpt lat="44.13563" lon="3.25335">
        <ele>835.5</ele>
        <time>2015-12-06T09:28:11Z</time>
      </trkpt>
      <trkpt lat="44.13564" lon="3.25336">
        <ele>836</ele>
        <time>2015-12-06T09:28:12Z</time>
      </trkpt>
      <trkpt lat="44.13566" lon="3.25338">
        <ele>836</ele>
        <time>2015-12-06T09:28:13Z</time>
      </trkpt>
      <trkpt lat="44.13568" lon="3.25339">
        <ele>836.5</ele>
        <time>2015-12-06T09:28:14Z</time>
      </trkpt>
      <trkpt lat="44.13569" lon="3.2534">
        <ele>836.5</ele>
        <time>2015-12-06T09:28:15Z</time>
      </trkpt>
      <trkpt lat="44.1357" lon="3.2534">
        <ele>837</ele>
        <time>2015-12-06T09:28:16Z</time>
      </trkpt>
      <trkpt lat="44.13571" lon="3.2534">
        <ele>837.5</ele>
        <time>2015-12-06T09:28:17Z</time>
      </trkpt>
      <trkpt lat="44.13571" lon="3.25339">
        <ele>837.5</ele>
        <time>2015-12-06T09:28:18Z</time>
      </trkpt>
      <trkpt lat="44.13572" lon="3.25339">
        <ele>838</ele>
        <time>2015-12-06T09:28:19Z</time>
      </trkpt>
      <trkpt lat="44.13572" lon="3.25338">
        <ele>838.5</ele>
        <time>2015-12-06T09:28:20Z</time>
      </trkpt>
      <trkpt lat="44.13573" lon="3.25338">
        <ele>839</ele>
        <time>2015-12-06T09:28:21Z</time>
      </trkpt>
      <trkpt lat="44.13573" lon="3.25338">
        <ele>839</ele>
        <time>2015-12-06T09:28:22Z</time>
      </trkpt>
      <trkpt lat="44.13574" lon="3.2534">
        <ele>837.5</ele>
        <time>2015-12-06T09:28:35Z</time>
      </trkpt>
      <trkpt lat="44.13577" lon="3.25341">
        <ele>837</ele>
        <time>2015-12-06T09:28:37Z</time>
      </trkpt>
      <trkpt lat="44.1358" lon="3.25342">
        <ele>836.5</ele>
        <time>2015-12-06T09:28:38Z</time>
      </trkpt>
      <trkpt lat="44.13583" lon="3.25343">
        <ele>836</ele>
        <time>2015-12-06T09:28:39Z</time>
      </trkpt>
      <trkpt lat="44.13588" lon="3.25343">
        <ele>835.5</ele>
        <time>2015-12-06T09:28:40Z</time>
      </trkpt>
      <trkpt lat="44.13593" lon="3.25343">
        <ele>835.5</ele>
        <time>2015-12-06T09:28:40Z</time>
      </trkpt>
      <trkpt lat="44.13598" lon="3.25343">
        <ele>835.5</ele>
        <time>2015-12-06T09:28:42Z</time>
      </trkpt>
      <trkpt lat="44.13603" lon="3.25343">
        <ele>835.5</ele>
        <time>2015-12-06T09:28:42Z</time>
      </trkpt>
      <trkpt lat="44.13607" lon="3.25342">
        <ele>836</ele>
        <time>2015-12-06T09:28:43Z</time>
      </trkpt>
      <trkpt lat="44.13611" lon="3.25342">
        <ele>836</ele>
        <time>2015-12-06T09:28:44Z</time>
      </trkpt>
      <trkpt lat="44.13613" lon="3.25342">
        <ele>836</ele>
        <time>2015-12-06T09:28:45Z</time>
      </trkpt>
      <trkpt lat="44.13615" lon="3.25341">
        <ele>836</ele>
        <time>2015-12-06T09:28:46Z</time>
      </trkpt>
      <trkpt lat="44.13616" lon="3.25341">
        <ele>836</ele>
        <time>2015-12-06T09:28:47Z</time>
      </trkpt>
      <trkpt lat="44.13617" lon="3.25341">
        <ele>836.5</ele>
        <time>2015-12-06T09:28:48Z</time>
      </trkpt>
      <trkpt lat="44.13619" lon="3.25341">
        <ele>836.5</ele>
        <time>2015-12-06T09:28:49Z</time>
      </trkpt>
      <trkpt lat="44.1362" lon="3.25341">
        <ele>836</ele>
        <time>2015-12-06T09:28:50Z</time>
      </trkpt>
      <trkpt lat="44.13622" lon="3.25341">
        <ele>836</ele>
        <time>2015-12-06T09:28:51Z</time>
      </trkpt>
      <trkpt lat="44.13623" lon="3.25341">
        <ele>836</ele>
        <time>2015-12-06T09:28:52Z</time>
      </trkpt>
      <trkpt lat="44.13625" lon="3.2534">
        <ele>835.5</ele>
        <time>2015-12-06T09:28:53Z</time>
      </trkpt>
      <trkpt lat="44.13626" lon="3.2534">
        <ele>836</ele>
        <time>2015-12-06T09:28:54Z</time>
      </trkpt>
      <trkpt lat="44.13627" lon="3.25339">
        <ele>836</ele>
        <time>2015-12-06T09:28:55Z</time>
      </trkpt>
      <trkpt lat="44.13628" lon="3.25338">
        <ele>836</ele>
        <time>2015-12-06T09:28:56Z</time>
      </trkpt>
      <trkpt lat="44.13628" lon="3.25337">
        <ele>836</ele>
        <time>2015-12-06T09:28:57Z</time>
      </trkpt>
      <trkpt lat="44.13629" lon="3.25336">
        <ele>836</ele>
        <time>2015-12-06T09:28:58Z</time>
      </trkpt>
      <trkpt lat="44.13629" lon="3.25335">
        <ele>836.5</ele>
        <time>2015-12-06T09:28:59Z</time>
      </trkpt>
      <trkpt lat="44.13629" lon="3.25335">
        <ele>836.5</ele>
        <time>2015-12-06T09:29:00Z</time>
      </trkpt>
      <trkpt lat="44.13629" lon="3.25334">
        <ele>836</ele>
        <time>2015-12-06T09:29:02Z</time>
      </trkpt>
      <trkpt lat="44.13629" lon="3.25334">
        <ele>836.5</ele>
        <time>2015-12-06T09:29:05Z</time>
      </trkpt>
      <trkpt lat="44.1363" lon="3.25332">
        <ele>837.5</ele>
        <time>2015-12-06T09:29:17Z</time>
      </trkpt>
      <trkpt lat="44.1363" lon="3.25335">
        <ele>836.5</ele>
        <time>2015-12-06T09:29:19Z</time>
      </trkpt>
      <trkpt lat="44.1363" lon="3.25337">
        <ele>836</ele>
        <time>2015-12-06T09:29:20Z</time>
      </trkpt>
      <trkpt lat="44.13631" lon="3.25338">
        <ele>836.5</ele>
        <time>2015-12-06T09:29:21Z</time>
      </trkpt>
      <trkpt lat="44.13631" lon="3.25338">
        <ele>836.5</ele>
        <time>2015-12-06T09:29:22Z</time>
      </trkpt>
      <trkpt lat="44.13632" lon="3.25339">
        <ele>836</ele>
        <time>2015-12-06T09:29:23Z</time>
      </trkpt>
      <trkpt lat="44.13633" lon="3.2534">
        <ele>836</ele>
        <time>2015-12-06T09:29:24Z</time>
      </trkpt>
      <trkpt lat="44.13634" lon="3.2534">
        <ele>835.5</ele>
        <time>2015-12-06T09:29:25Z</time>
      </trkpt>
      <trkpt lat="44.13635" lon="3.2534">
        <ele>834.5</ele>
        <time>2015-12-06T09:29:26Z</time>
      </trkpt>
      <trkpt lat="44.13636" lon="3.2534">
        <ele>834</ele>
        <time>2015-12-06T09:29:27Z</time>
      </trkpt>
      <trkpt lat="44.13637" lon="3.2534">
        <ele>834</ele>
        <time>2015-12-06T09:29:29Z</time>
      </trkpt>
      <trkpt lat="44.13638" lon="3.2534">
        <ele>834.5</ele>
        <time>2015-12-06T09:29:29Z</time>
      </trkpt>
      <trkpt lat="44.13639" lon="3.25339">
        <ele>834.5</ele>
        <time>2015-12-06T09:29:30Z</time>
      </trkpt>
      <trkpt lat="44.1364" lon="3.25339">
        <ele>834.5</ele>
        <time>2015-12-06T09:29:31Z</time>
      </trkpt>
      <trkpt lat="44.13642" lon="3.25338">
        <ele>835</ele>
        <time>2015-12-06T09:29:32Z</time>
      </trkpt>
      <trkpt lat="44.13643" lon="3.25338">
        <ele>836</ele>
        <time>2015-12-06T09:29:33Z</time>
      </trkpt>
      <trkpt lat="44.13644" lon="3.25338">
        <ele>836.5</ele>
        <time>2015-12-06T09:29:34Z</time>
      </trkpt>
      <trkpt lat="44.13645" lon="3.25338">
        <ele>836</ele>
        <time>2015-12-06T09:29:35Z</time>
      </trkpt>
      <trkpt lat="44.13647" lon="3.25338">
        <ele>835</ele>
        <time>2015-12-06T09:29:36Z</time>
      </trkpt>
      <trkpt lat="44.13648" lon="3.25338">
        <ele>835.5</ele>
        <time>2015-12-06T09:29:37Z</time>
      </trkpt>
      <trkpt lat="44.13649" lon="3.25337">
        <ele>835.5</ele>
        <time>2015-12-06T09:29:38Z</time>
      </trkpt>
      <trkpt lat="44.1365" lon="3.25337">
        <ele>836</ele>
        <time>2015-12-06T09:29:39Z</time>
      </trkpt>
      <trkpt lat="44.13651" lon="3.25336">
        <ele>835.5</ele>
        <time>2015-12-06T09:29:40Z</time>
      </trkpt>
      <trkpt lat="44.13652" lon="3.25338">
        <ele>835.5</ele>
        <time>2015-12-06T09:29:41Z</time>
      </trkpt>
      <trkpt lat="44.13653" lon="3.25338">
        <ele>835</ele>
        <time>2015-12-06T09:29:42Z</time>
      </trkpt>
      <trkpt lat="44.13654" lon="3.25338">
        <ele>835.5</ele>
        <time>2015-12-06T09:29:43Z</time>
      </trkpt>
      <trkpt lat="44.13654" lon="3.25338">
        <ele>836</ele>
        <time>2015-12-06T09:29:44Z</time>
      </trkpt>
      <trkpt lat="44.13655" lon="3.25337">
        <ele>836.5</ele>
        <time>2015-12-06T09:29:45Z</time>
      </trkpt>
      <trkpt lat="44.13655" lon="3.25335">
        <ele>837</ele>
        <time>2015-12-06T09:29:46Z</time>
      </trkpt>
      <trkpt lat="44.13656" lon="3.25334">
        <ele>837</ele>
        <time>2015-12-06T09:29:47Z</time>
      </trkpt>
      <trkpt lat="44.13657" lon="3.25335">
        <ele>836.5</ele>
        <time>2015-12-06T09:29:50Z</time>
      </trkpt>
      <trkpt lat="44.13657" lon="3.25335">
        <ele>836</ele>
        <time>2015-12-06T09:29:53Z</time>
      </trkpt>
      <trkpt lat="44.13659" lon="3.25334">
        <ele>836.5</ele>
        <time>2015-12-06T09:29:55Z</time>
      </trkpt>
      <trkpt lat="44.1366" lon="3.25333">
        <ele>837</ele>
        <time>2015-12-06T09:29:56Z</time>
      </trkpt>
      <trkpt lat="44.13662" lon="3.25332">
        <ele>837</ele>
        <time>2015-12-06T09:29:57Z</time>
      </trkpt>
      <trkpt lat="44.13664" lon="3.25331">
        <ele>837.5</ele>
        <time>2015-12-06T09:29:58Z</time>
      </trkpt>
      <trkpt lat="44.13667" lon="3.2533">
        <ele>838</ele>
        <time>2015-12-06T09:29:59Z</time>
      </trkpt>
      <trkpt lat="44.13669" lon="3.25329">
        <ele>838.5</ele>
        <time>2015-12-06T09:30:00Z</time>
      </trkpt>
      <trkpt lat="44.13671" lon="3.25328">
        <ele>839.5</ele>
        <time>2015-12-06T09:30:01Z</time>
      </trkpt>
      <trkpt lat="44.13673" lon="3.25331">
        <ele>838.5</ele>
        <time>2015-12-06T09:30:02Z</time>
      </trkpt>
      <trkpt lat="44.13674" lon="3.25331">
        <ele>838.5</ele>
        <time>2015-12-06T09:30:03Z</time>
      </trkpt>
      <trkpt lat="44.13676" lon="3.25331">
        <ele>838.5</ele>
        <time>2015-12-06T09:30:04Z</time>
      </trkpt>
      <trkpt lat="44.13678" lon="3.25332">
        <ele>839</ele>
        <time>2015-12-06T09:30:06Z</time>
      </trkpt>
      <trkpt lat="44.1368" lon="3.25331">
        <ele>839.5</ele>
        <time>2015-12-06T09:30:06Z</time>
      </trkpt>
      <trkpt lat="44.13682" lon="3.25332">
        <ele>839.5</ele>
        <time>2015-12-06T09:30:07Z</time>
      </trkpt>
      <trkpt lat="44.13684" lon="3.25331">
        <ele>840</ele>
        <time>2015-12-06T09:30:08Z</time>
      </trkpt>
      <trkpt lat="44.13685" lon="3.25331">
        <ele>841</ele>
        <time>2015-12-06T09:30:09Z</time>
      </trkpt>
      <trkpt lat="44.13686" lon="3.25331">
        <ele>841.5</ele>
        <time>2015-12-06T09:30:10Z</time>
      </trkpt>
      <trkpt lat="44.13688" lon="3.25331">
        <ele>841.5</ele>
        <time>2015-12-06T09:30:11Z</time>
      </trkpt>
      <trkpt lat="44.1369" lon="3.25332">
        <ele>841.5</ele>
        <time>2015-12-06T09:30:12Z</time>
      </trkpt>
      <trkpt lat="44.13692" lon="3.25332">
        <ele>841</ele>
        <time>2015-12-06T09:30:13Z</time>
      </trkpt>
      <trkpt lat="44.13693" lon="3.25331">
        <ele>841.5</ele>
        <time>2015-12-06T09:30:14Z</time>
      </trkpt>
      <trkpt lat="44.13695" lon="3.25332">
        <ele>841.5</ele>
        <time>2015-12-06T09:30:15Z</time>
      </trkpt>
      <trkpt lat="44.13697" lon="3.25332">
        <ele>841.5</ele>
        <time>2015-12-06T09:30:16Z</time>
      </trkpt>
      <trkpt lat="44.13699" lon="3.25333">
        <ele>841</ele>
        <time>2015-12-06T09:30:17Z</time>
      </trkpt>
      <trkpt lat="44.13701" lon="3.25335">
        <ele>840.5</ele>
        <time>2015-12-06T09:30:18Z</time>
      </trkpt>
      <trkpt lat="44.13702" lon="3.25335">
        <ele>840.5</ele>
        <time>2015-12-06T09:30:19Z</time>
      </trkpt>
      <trkpt lat="44.13704" lon="3.25335">
        <ele>841</ele>
        <time>2015-12-06T09:30:20Z</time>
      </trkpt>
      <trkpt lat="44.13706" lon="3.25335">
        <ele>841</ele>
        <time>2015-12-06T09:30:21Z</time>
      </trkpt>
      <trkpt lat="44.13707" lon="3.25337">
        <ele>841</ele>
        <time>2015-12-06T09:30:22Z</time>
      </trkpt>
      <trkpt lat="44.13708" lon="3.25336">
        <ele>841</ele>
        <time>2015-12-06T09:30:23Z</time>
      </trkpt>
      <trkpt lat="44.1371" lon="3.25337">
        <ele>841</ele>
        <time>2015-12-06T09:30:24Z</time>
      </trkpt>
      <trkpt lat="44.13712" lon="3.25336">
        <ele>841.5</ele>
        <time>2015-12-06T09:30:25Z</time>
      </trkpt>
      <trkpt lat="44.13712" lon="3.25334">
        <ele>841.5</ele>
        <time>2015-12-06T09:30:26Z</time>
      </trkpt>
      <trkpt lat="44.13712" lon="3.25334">
        <ele>843</ele>
        <time>2015-12-06T09:30:27Z</time>
      </trkpt>
      <trkpt lat="44.13714" lon="3.25333">
        <ele>843</ele>
        <time>2015-12-06T09:30:28Z</time>
      </trkpt>
      <trkpt lat="44.13715" lon="3.25333">
        <ele>843.5</ele>
        <time>2015-12-06T09:30:29Z</time>
      </trkpt>
      <trkpt lat="44.13716" lon="3.25332">
        <ele>844</ele>
        <time>2015-12-06T09:30:30Z</time>
      </trkpt>
      <trkpt lat="44.13718" lon="3.25331">
        <ele>844</ele>
        <time>2015-12-06T09:30:31Z</time>
      </trkpt>
      <trkpt lat="44.1372" lon="3.25331">
        <ele>844.5</ele>
        <time>2015-12-06T09:30:32Z</time>
      </trkpt>
      <trkpt lat="44.13722" lon="3.25331">
        <ele>845</ele>
        <time>2015-12-06T09:30:33Z</time>
      </trkpt>
      <trkpt lat="44.13724" lon="3.2533">
        <ele>845</ele>
        <time>2015-12-06T09:30:34Z</time>
      </trkpt>
      <trkpt lat="44.13726" lon="3.2533">
        <ele>845.5</ele>
        <time>2015-12-06T09:30:35Z</time>
      </trkpt>
      <trkpt lat="44.13729" lon="3.25331">
        <ele>845.5</ele>
        <time>2015-12-06T09:30:36Z</time>
      </trkpt>
      <trkpt lat="44.1373" lon="3.2533">
        <ele>846</ele>
        <time>2015-12-06T09:30:37Z</time>
      </trkpt>
      <trkpt lat="44.13732" lon="3.25331">
        <ele>845.5</ele>
        <time>2015-12-06T09:30:38Z</time>
      </trkpt>
      <trkpt lat="44.13734" lon="3.25332">
        <ele>845</ele>
        <time>2015-12-06T09:30:39Z</time>
      </trkpt>
      <trkpt lat="44.13736" lon="3.25332">
        <ele>844</ele>
        <time>2015-12-06T09:30:40Z</time>
      </trkpt>
      <trkpt lat="44.13738" lon="3.25332">
        <ele>844</ele>
        <time>2015-12-06T09:30:41Z</time>
      </trkpt>
      <trkpt lat="44.1374" lon="3.25332">
        <ele>844</ele>
        <time>2015-12-06T09:30:42Z</time>
      </trkpt>
      <trkpt lat="44.13742" lon="3.25332">
        <ele>844.5</ele>
        <time>2015-12-06T09:30:43Z</time>
      </trkpt>
      <trkpt lat="44.13743" lon="3.25332">
        <ele>845</ele>
        <time>2015-12-06T09:30:44Z</time>
      </trkpt>
      <trkpt lat="44.13745" lon="3.25331">
        <ele>845.5</ele>
        <time>2015-12-06T09:30:45Z</time>
      </trkpt>
      <trkpt lat="44.13746" lon="3.2533">
        <ele>846</ele>
        <time>2015-12-06T09:30:46Z</time>
      </trkpt>
      <trkpt lat="44.13748" lon="3.2533">
        <ele>846</ele>
        <time>2015-12-06T09:30:47Z</time>
      </trkpt>
      <trkpt lat="44.1375" lon="3.2533">
        <ele>846.5</ele>
        <time>2015-12-06T09:30:48Z</time>
      </trkpt>
      <trkpt lat="44.13751" lon="3.2533">
        <ele>847</ele>
        <time>2015-12-06T09:30:49Z</time>
      </trkpt>
      <trkpt lat="44.13753" lon="3.2533">
        <ele>846.5</ele>
        <time>2015-12-06T09:30:50Z</time>
      </trkpt>
      <trkpt lat="44.13755" lon="3.2533">
        <ele>847</ele>
        <time>2015-12-06T09:30:51Z</time>
      </trkpt>
      <trkpt lat="44.13757" lon="3.2533">
        <ele>846.5</ele>
        <time>2015-12-06T09:30:52Z</time>
      </trkpt>
      <trkpt lat="44.13759" lon="3.2533">
        <ele>846.5</ele>
        <time>2015-12-06T09:30:53Z</time>
      </trkpt>
      <trkpt lat="44.13761" lon="3.25329">
        <ele>846</ele>
        <time>2015-12-06T09:30:54Z</time>
      </trkpt>
      <trkpt lat="44.13763" lon="3.25329">
        <ele>846</ele>
        <time>2015-12-06T09:30:55Z</time>
      </trkpt>
      <trkpt lat="44.13765" lon="3.25329">
        <ele>846</ele>
        <time>2015-12-06T09:30:56Z</time>
      </trkpt>
      <trkpt lat="44.13767" lon="3.25328">
        <ele>846</ele>
        <time>2015-12-06T09:30:57Z</time>
      </trkpt>
      <trkpt lat="44.13769" lon="3.25327">
        <ele>847</ele>
        <time>2015-12-06T09:30:58Z</time>
      </trkpt>
      <trkpt lat="44.13771" lon="3.25326">
        <ele>847.5</ele>
        <time>2015-12-06T09:30:59Z</time>
      </trkpt>
      <trkpt lat="44.13773" lon="3.25326">
        <ele>847.5</ele>
        <time>2015-12-06T09:31:00Z</time>
      </trkpt>
      <trkpt lat="44.13776" lon="3.25327">
        <ele>847</ele>
        <time>2015-12-06T09:31:01Z</time>
      </trkpt>
      <trkpt lat="44.13777" lon="3.25327">
        <ele>847.5</ele>
        <time>2015-12-06T09:31:02Z</time>
      </trkpt>
      <trkpt lat="44.13779" lon="3.25327">
        <ele>847.5</ele>
        <time>2015-12-06T09:31:03Z</time>
      </trkpt>
      <trkpt lat="44.13781" lon="3.25327">
        <ele>847</ele>
        <time>2015-12-06T09:31:04Z</time>
      </trkpt>
      <trkpt lat="44.13783" lon="3.25326">
        <ele>847.5</ele>
        <time>2015-12-06T09:31:05Z</time>
      </trkpt>
      <trkpt lat="44.13785" lon="3.25325">
        <ele>847.5</ele>
        <time>2015-12-06T09:31:06Z</time>
      </trkpt>
      <trkpt lat="44.13787" lon="3.25324">
        <ele>848</ele>
        <time>2015-12-06T09:31:07Z</time>
      </trkpt>
      <trkpt lat="44.13789" lon="3.25324">
        <ele>848.5</ele>
        <time>2015-12-06T09:31:08Z</time>
      </trkpt>
      <trkpt lat="44.13791" lon="3.25324">
        <ele>849</ele>
        <time>2015-12-06T09:31:09Z</time>
      </trkpt>
      <trkpt lat="44.13794" lon="3.25324">
        <ele>849</ele>
        <time>2015-12-06T09:31:10Z</time>
      </trkpt>
      <trkpt lat="44.13796" lon="3.25324">
        <ele>849</ele>
        <time>2015-12-06T09:31:11Z</time>
      </trkpt>
      <trkpt lat="44.13798" lon="3.25324">
        <ele>849</ele>
        <time>2015-12-06T09:31:12Z</time>
      </trkpt>
      <trkpt lat="44.13799" lon="3.25323">
        <ele>849.5</ele>
        <time>2015-12-06T09:31:13Z</time>
      </trkpt>
      <trkpt lat="44.13801" lon="3.25323">
        <ele>849.5</ele>
        <time>2015-12-06T09:31:14Z</time>
      </trkpt>
      <trkpt lat="44.13803" lon="3.25323">
        <ele>849.5</ele>
        <time>2015-12-06T09:31:15Z</time>
      </trkpt>
      <trkpt lat="44.13804" lon="3.25322">
        <ele>850</ele>
        <time>2015-12-06T09:31:16Z</time>
      </trkpt>
      <trkpt lat="44.13806" lon="3.25322">
        <ele>850</ele>
        <time>2015-12-06T09:31:17Z</time>
      </trkpt>
      <trkpt lat="44.13807" lon="3.25321">
        <ele>850.5</ele>
        <time>2015-12-06T09:31:18Z</time>
      </trkpt>
      <trkpt lat="44.13809" lon="3.25321">
        <ele>850.5</ele>
        <time>2015-12-06T09:31:19Z</time>
      </trkpt>
      <trkpt lat="44.1381" lon="3.25321">
        <ele>851</ele>
        <time>2015-12-06T09:31:20Z</time>
      </trkpt>
      <trkpt lat="44.13812" lon="3.2532">
        <ele>851</ele>
        <time>2015-12-06T09:31:21Z</time>
      </trkpt>
      <trkpt lat="44.13813" lon="3.2532">
        <ele>851.5</ele>
        <time>2015-12-06T09:31:22Z</time>
      </trkpt>
      <trkpt lat="44.13815" lon="3.25319">
        <ele>851.5</ele>
        <time>2015-12-06T09:31:23Z</time>
      </trkpt>
      <trkpt lat="44.13816" lon="3.25318">
        <ele>852</ele>
        <time>2015-12-06T09:31:24Z</time>
      </trkpt>
      <trkpt lat="44.13818" lon="3.25318">
        <ele>851.5</ele>
        <time>2015-12-06T09:31:25Z</time>
      </trkpt>
      <trkpt lat="44.13819" lon="3.25318">
        <ele>851.5</ele>
        <time>2015-12-06T09:31:26Z</time>
      </trkpt>
      <trkpt lat="44.13821" lon="3.25318">
        <ele>851.5</ele>
        <time>2015-12-06T09:31:27Z</time>
      </trkpt>
      <trkpt lat="44.13823" lon="3.25317">
        <ele>852</ele>
        <time>2015-12-06T09:31:28Z</time>
      </trkpt>
      <trkpt lat="44.13825" lon="3.25317">
        <ele>852</ele>
        <time>2015-12-06T09:31:29Z</time>
      </trkpt>
      <trkpt lat="44.13826" lon="3.25317">
        <ele>852.5</ele>
        <time>2015-12-06T09:31:30Z</time>
      </trkpt>
      <trkpt lat="44.13828" lon="3.25316">
        <ele>852.5</ele>
        <time>2015-12-06T09:31:31Z</time>
      </trkpt>
      <trkpt lat="44.1383" lon="3.25316">
        <ele>853</ele>
        <time>2015-12-06T09:31:32Z</time>
      </trkpt>
      <trkpt lat="44.13831" lon="3.25316">
        <ele>853</ele>
        <time>2015-12-06T09:31:33Z</time>
      </trkpt>
      <trkpt lat="44.13833" lon="3.25316">
        <ele>853</ele>
        <time>2015-12-06T09:31:34Z</time>
      </trkpt>
      <trkpt lat="44.13834" lon="3.25315">
        <ele>853</ele>
        <time>2015-12-06T09:31:35Z</time>
      </trkpt>
      <trkpt lat="44.13835" lon="3.25314">
        <ele>853.5</ele>
        <time>2015-12-06T09:31:36Z</time>
      </trkpt>
      <trkpt lat="44.13836" lon="3.25314">
        <ele>853.5</ele>
        <time>2015-12-06T09:31:37Z</time>
      </trkpt>
      <trkpt lat="44.13837" lon="3.25313">
        <ele>854</ele>
        <time>2015-12-06T09:31:38Z</time>
      </trkpt>
      <trkpt lat="44.13838" lon="3.25311">
        <ele>854.5</ele>
        <time>2015-12-06T09:31:39Z</time>
      </trkpt>
      <trkpt lat="44.13838" lon="3.25309">
        <ele>855</ele>
        <time>2015-12-06T09:31:40Z</time>
      </trkpt>
      <trkpt lat="44.13838" lon="3.25307">
        <ele>855</ele>
        <time>2015-12-06T09:31:41Z</time>
      </trkpt>
      <trkpt lat="44.13839" lon="3.25305">
        <ele>855</ele>
        <time>2015-12-06T09:31:42Z</time>
      </trkpt>
      <trkpt lat="44.13839" lon="3.25303">
        <ele>856</ele>
        <time>2015-12-06T09:31:43Z</time>
      </trkpt>
      <trkpt lat="44.1384" lon="3.25302">
        <ele>855.5</ele>
        <time>2015-12-06T09:31:44Z</time>
      </trkpt>
      <trkpt lat="44.1384" lon="3.25299">
        <ele>856</ele>
        <time>2015-12-06T09:31:45Z</time>
      </trkpt>
      <trkpt lat="44.13841" lon="3.25297">
        <ele>856</ele>
        <time>2015-12-06T09:31:46Z</time>
      </trkpt>
      <trkpt lat="44.13842" lon="3.25295">
        <ele>856</ele>
        <time>2015-12-06T09:31:47Z</time>
      </trkpt>
      <trkpt lat="44.13842" lon="3.25293">
        <ele>856.5</ele>
        <time>2015-12-06T09:31:48Z</time>
      </trkpt>
      <trkpt lat="44.13843" lon="3.2529">
        <ele>856.5</ele>
        <time>2015-12-06T09:31:49Z</time>
      </trkpt>
      <trkpt lat="44.13843" lon="3.25288">
        <ele>856.5</ele>
        <time>2015-12-06T09:31:50Z</time>
      </trkpt>
      <trkpt lat="44.13844" lon="3.25286">
        <ele>856.5</ele>
        <time>2015-12-06T09:31:51Z</time>
      </trkpt>
      <trkpt lat="44.13845" lon="3.25284">
        <ele>856</ele>
        <time>2015-12-06T09:31:52Z</time>
      </trkpt>
      <trkpt lat="44.13846" lon="3.25281">
        <ele>856</ele>
        <time>2015-12-06T09:31:53Z</time>
      </trkpt>
      <trkpt lat="44.13847" lon="3.25279">
        <ele>855.5</ele>
        <time>2015-12-06T09:31:54Z</time>
      </trkpt>
      <trkpt lat="44.13847" lon="3.25276">
        <ele>855.5</ele>
        <time>2015-12-06T09:31:55Z</time>
      </trkpt>
      <trkpt lat="44.13848" lon="3.25274">
        <ele>855.5</ele>
        <time>2015-12-06T09:31:56Z</time>
      </trkpt>
      <trkpt lat="44.13848" lon="3.25271">
        <ele>855.5</ele>
        <time>2015-12-06T09:31:57Z</time>
      </trkpt>
      <trkpt lat="44.13849" lon="3.25268">
        <ele>856</ele>
        <time>2015-12-06T09:31:58Z</time>
      </trkpt>
      <trkpt lat="44.13849" lon="3.25266">
        <ele>856</ele>
        <time>2015-12-06T09:31:59Z</time>
      </trkpt>
      <trkpt lat="44.1385" lon="3.25263">
        <ele>856</ele>
        <time>2015-12-06T09:32:00Z</time>
      </trkpt>
      <trkpt lat="44.13851" lon="3.2526">
        <ele>856</ele>
        <time>2015-12-06T09:32:01Z</time>
      </trkpt>
      <trkpt lat="44.13851" lon="3.25257">
        <ele>856.5</ele>
        <time>2015-12-06T09:32:02Z</time>
      </trkpt>
      <trkpt lat="44.13851" lon="3.25254">
        <ele>856.5</ele>
        <time>2015-12-06T09:32:03Z</time>
      </trkpt>
      <trkpt lat="44.13852" lon="3.25252">
        <ele>856</ele>
        <time>2015-12-06T09:32:04Z</time>
      </trkpt>
      <trkpt lat="44.13854" lon="3.25249">
        <ele>855</ele>
        <time>2015-12-06T09:32:05Z</time>
      </trkpt>
      <trkpt lat="44.13855" lon="3.25245">
        <ele>855</ele>
        <time>2015-12-06T09:32:06Z</time>
      </trkpt>
      <trkpt lat="44.13856" lon="3.25242">
        <ele>855</ele>
        <time>2015-12-06T09:32:07Z</time>
      </trkpt>
      <trkpt lat="44.13857" lon="3.2524">
        <ele>854.5</ele>
        <time>2015-12-06T09:32:08Z</time>
      </trkpt>
      <trkpt lat="44.13857" lon="3.25237">
        <ele>854.5</ele>
        <time>2015-12-06T09:32:09Z</time>
      </trkpt>
      <trkpt lat="44.13858" lon="3.25234">
        <ele>854.5</ele>
        <time>2015-12-06T09:32:10Z</time>
      </trkpt>
      <trkpt lat="44.13858" lon="3.25231">
        <ele>854.5</ele>
        <time>2015-12-06T09:32:11Z</time>
      </trkpt>
      <trkpt lat="44.13858" lon="3.25228">
        <ele>855</ele>
        <time>2015-12-06T09:32:12Z</time>
      </trkpt>
      <trkpt lat="44.13859" lon="3.25225">
        <ele>855</ele>
        <time>2015-12-06T09:32:13Z</time>
      </trkpt>
      <trkpt lat="44.13859" lon="3.25222">
        <ele>854.5</ele>
        <time>2015-12-06T09:32:14Z</time>
      </trkpt>
      <trkpt lat="44.1386" lon="3.25218">
        <ele>854.5</ele>
        <time>2015-12-06T09:32:15Z</time>
      </trkpt>
      <trkpt lat="44.1386" lon="3.25214">
        <ele>854</ele>
        <time>2015-12-06T09:32:16Z</time>
      </trkpt>
      <trkpt lat="44.1386" lon="3.25211">
        <ele>854.5</ele>
        <time>2015-12-06T09:32:17Z</time>
      </trkpt>
      <trkpt lat="44.13863" lon="3.25208">
        <ele>853</ele>
        <time>2015-12-06T09:32:18Z</time>
      </trkpt>
      <trkpt lat="44.13864" lon="3.25205">
        <ele>852.5</ele>
        <time>2015-12-06T09:32:19Z</time>
      </trkpt>
      <trkpt lat="44.13866" lon="3.25203">
        <ele>851.5</ele>
        <time>2015-12-06T09:32:20Z</time>
      </trkpt>
      <trkpt lat="44.13867" lon="3.25201">
        <ele>850.5</ele>
        <time>2015-12-06T09:32:21Z</time>
      </trkpt>
      <trkpt lat="44.13868" lon="3.25198">
        <ele>850.5</ele>
        <time>2015-12-06T09:32:22Z</time>
      </trkpt>
      <trkpt lat="44.13869" lon="3.25195">
        <ele>850</ele>
        <time>2015-12-06T09:32:23Z</time>
      </trkpt>
      <trkpt lat="44.13869" lon="3.25193">
        <ele>850.5</ele>
        <time>2015-12-06T09:32:24Z</time>
      </trkpt>
      <trkpt lat="44.13869" lon="3.2519">
        <ele>850.5</ele>
        <time>2015-12-06T09:32:25Z</time>
      </trkpt>
      <trkpt lat="44.1387" lon="3.25188">
        <ele>850</ele>
        <time>2015-12-06T09:32:26Z</time>
      </trkpt>
      <trkpt lat="44.13871" lon="3.25186">
        <ele>850</ele>
        <time>2015-12-06T09:32:27Z</time>
      </trkpt>
      <trkpt lat="44.13872" lon="3.25183">
        <ele>849.5</ele>
        <time>2015-12-06T09:32:28Z</time>
      </trkpt>
      <trkpt lat="44.13872" lon="3.25181">
        <ele>850</ele>
        <time>2015-12-06T09:32:29Z</time>
      </trkpt>
      <trkpt lat="44.13872" lon="3.25179">
        <ele>850</ele>
        <time>2015-12-06T09:32:30Z</time>
      </trkpt>
      <trkpt lat="44.13872" lon="3.25176">
        <ele>850.5</ele>
        <time>2015-12-06T09:32:31Z</time>
      </trkpt>
      <trkpt lat="44.13872" lon="3.25174">
        <ele>851</ele>
        <time>2015-12-06T09:32:32Z</time>
      </trkpt>
      <trkpt lat="44.13872" lon="3.25171">
        <ele>851</ele>
        <time>2015-12-06T09:32:33Z</time>
      </trkpt>
      <trkpt lat="44.13872" lon="3.25169">
        <ele>851.5</ele>
        <time>2015-12-06T09:32:34Z</time>
      </trkpt>
      <trkpt lat="44.13872" lon="3.25167">
        <ele>851.5</ele>
        <time>2015-12-06T09:32:35Z</time>
      </trkpt>
      <trkpt lat="44.13872" lon="3.25165">
        <ele>851.5</ele>
        <time>2015-12-06T09:32:36Z</time>
      </trkpt>
      <trkpt lat="44.13872" lon="3.25162">
        <ele>852</ele>
        <time>2015-12-06T09:32:37Z</time>
      </trkpt>
      <trkpt lat="44.13872" lon="3.25161">
        <ele>852.5</ele>
        <time>2015-12-06T09:32:38Z</time>
      </trkpt>
      <trkpt lat="44.13871" lon="3.25159">
        <ele>852.5</ele>
        <time>2015-12-06T09:32:39Z</time>
      </trkpt>
      <trkpt lat="44.13871" lon="3.25157">
        <ele>853</ele>
        <time>2015-12-06T09:32:40Z</time>
      </trkpt>
      <trkpt lat="44.13871" lon="3.25155">
        <ele>853</ele>
        <time>2015-12-06T09:32:41Z</time>
      </trkpt>
      <trkpt lat="44.13871" lon="3.25153">
        <ele>853</ele>
        <time>2015-12-06T09:32:42Z</time>
      </trkpt>
      <trkpt lat="44.13871" lon="3.25151">
        <ele>853</ele>
        <time>2015-12-06T09:32:43Z</time>
      </trkpt>
      <trkpt lat="44.13871" lon="3.2515">
        <ele>853.5</ele>
        <time>2015-12-06T09:32:44Z</time>
      </trkpt>
      <trkpt lat="44.13871" lon="3.25147">
        <ele>853.5</ele>
        <time>2015-12-06T09:32:44Z</time>
      </trkpt>
      <trkpt lat="44.13871" lon="3.25145">
        <ele>853</ele>
        <time>2015-12-06T09:32:45Z</time>
      </trkpt>
      <trkpt lat="44.1387" lon="3.25143">
        <ele>853</ele>
        <time>2015-12-06T09:32:46Z</time>
      </trkpt>
      <trkpt lat="44.1387" lon="3.25141">
        <ele>853</ele>
        <time>2015-12-06T09:32:47Z</time>
      </trkpt>
      <trkpt lat="44.13869" lon="3.25139">
        <ele>853.5</ele>
        <time>2015-12-06T09:32:48Z</time>
      </trkpt>
      <trkpt lat="44.13869" lon="3.25138">
        <ele>853.5</ele>
        <time>2015-12-06T09:32:49Z</time>
      </trkpt>
      <trkpt lat="44.13869" lon="3.25136">
        <ele>853.5</ele>
        <time>2015-12-06T09:32:50Z</time>
      </trkpt>
      <trkpt lat="44.13868" lon="3.25134">
        <ele>853.5</ele>
        <time>2015-12-06T09:32:51Z</time>
      </trkpt>
      <trkpt lat="44.13867" lon="3.25132">
        <ele>853.5</ele>
        <time>2015-12-06T09:32:52Z</time>
      </trkpt>
      <trkpt lat="44.13867" lon="3.2513">
        <ele>853.5</ele>
        <time>2015-12-06T09:32:54Z</time>
      </trkpt>
      <trkpt lat="44.13867" lon="3.25128">
        <ele>854</ele>
        <time>2015-12-06T09:32:54Z</time>
      </trkpt>
      <trkpt lat="44.13866" lon="3.25126">
        <ele>854</ele>
        <time>2015-12-06T09:32:55Z</time>
      </trkpt>
      <trkpt lat="44.13866" lon="3.25124">
        <ele>854.5</ele>
        <time>2015-12-06T09:32:56Z</time>
      </trkpt>
      <trkpt lat="44.13866" lon="3.25122">
        <ele>855</ele>
        <time>2015-12-06T09:32:57Z</time>
      </trkpt>
      <trkpt lat="44.13866" lon="3.2512">
        <ele>855</ele>
        <time>2015-12-06T09:32:58Z</time>
      </trkpt>
      <trkpt lat="44.13867" lon="3.25117">
        <ele>855</ele>
        <time>2015-12-06T09:33:00Z</time>
      </trkpt>
      <trkpt lat="44.13867" lon="3.25115">
        <ele>855</ele>
        <time>2015-12-06T09:33:00Z</time>
      </trkpt>
      <trkpt lat="44.13867" lon="3.25112">
        <ele>854.5</ele>
        <time>2015-12-06T09:33:01Z</time>
      </trkpt>
      <trkpt lat="44.13868" lon="3.2511">
        <ele>854.5</ele>
        <time>2015-12-06T09:33:02Z</time>
      </trkpt>
      <trkpt lat="44.13869" lon="3.25108">
        <ele>854</ele>
        <time>2015-12-06T09:33:03Z</time>
      </trkpt>
      <trkpt lat="44.13869" lon="3.25106">
        <ele>854.5</ele>
        <time>2015-12-06T09:33:04Z</time>
      </trkpt>
      <trkpt lat="44.1387" lon="3.25103">
        <ele>854.5</ele>
        <time>2015-12-06T09:33:05Z</time>
      </trkpt>
      <trkpt lat="44.13871" lon="3.25101">
        <ele>854.5</ele>
        <time>2015-12-06T09:33:06Z</time>
      </trkpt>
      <trkpt lat="44.13872" lon="3.251">
        <ele>854.5</ele>
        <time>2015-12-06T09:33:08Z</time>
      </trkpt>
      <trkpt lat="44.13873" lon="3.25098">
        <ele>854.5</ele>
        <time>2015-12-06T09:33:08Z</time>
      </trkpt>
      <trkpt lat="44.13874" lon="3.25096">
        <ele>854.5</ele>
        <time>2015-12-06T09:33:09Z</time>
      </trkpt>
      <trkpt lat="44.13875" lon="3.25094">
        <ele>855</ele>
        <time>2015-12-06T09:33:10Z</time>
      </trkpt>
      <trkpt lat="44.13876" lon="3.25092">
        <ele>855</ele>
        <time>2015-12-06T09:33:12Z</time>
      </trkpt>
      <trkpt lat="44.13877" lon="3.2509">
        <ele>855</ele>
        <time>2015-12-06T09:33:12Z</time>
      </trkpt>
      <trkpt lat="44.13878" lon="3.25088">
        <ele>855</ele>
        <time>2015-12-06T09:33:13Z</time>
      </trkpt>
      <trkpt lat="44.13879" lon="3.25086">
        <ele>854.5</ele>
        <time>2015-12-06T09:33:14Z</time>
      </trkpt>
      <trkpt lat="44.1388" lon="3.25084">
        <ele>855</ele>
        <time>2015-12-06T09:33:15Z</time>
      </trkpt>
      <trkpt lat="44.13881" lon="3.25082">
        <ele>855</ele>
        <time>2015-12-06T09:33:17Z</time>
      </trkpt>
      <trkpt lat="44.13881" lon="3.2508">
        <ele>855.5</ele>
        <time>2015-12-06T09:33:17Z</time>
      </trkpt>
      <trkpt lat="44.13882" lon="3.25077">
        <ele>855</ele>
        <time>2015-12-06T09:33:18Z</time>
      </trkpt>
      <trkpt lat="44.13883" lon="3.25076">
        <ele>855</ele>
        <time>2015-12-06T09:33:19Z</time>
      </trkpt>
      <trkpt lat="44.13884" lon="3.25074">
        <ele>855.5</ele>
        <time>2015-12-06T09:33:20Z</time>
      </trkpt>
      <trkpt lat="44.13885" lon="3.25072">
        <ele>855.5</ele>
        <time>2015-12-06T09:33:21Z</time>
      </trkpt>
      <trkpt lat="44.13886" lon="3.2507">
        <ele>855</ele>
        <time>2015-12-06T09:33:23Z</time>
      </trkpt>
      <trkpt lat="44.13887" lon="3.25068">
        <ele>855</ele>
        <time>2015-12-06T09:33:23Z</time>
      </trkpt>
      <trkpt lat="44.13889" lon="3.25066">
        <ele>855</ele>
        <time>2015-12-06T09:33:24Z</time>
      </trkpt>
      <trkpt lat="44.1389" lon="3.25064">
        <ele>855</ele>
        <time>2015-12-06T09:33:25Z</time>
      </trkpt>
      <trkpt lat="44.13891" lon="3.25062">
        <ele>855</ele>
        <time>2015-12-06T09:33:26Z</time>
      </trkpt>
      <trkpt lat="44.13892" lon="3.2506">
        <ele>855</ele>
        <time>2015-12-06T09:33:27Z</time>
      </trkpt>
      <trkpt lat="44.13894" lon="3.25059">
        <ele>855</ele>
        <time>2015-12-06T09:33:28Z</time>
      </trkpt>
      <trkpt lat="44.13895" lon="3.25057">
        <ele>855</ele>
        <time>2015-12-06T09:33:29Z</time>
      </trkpt>
      <trkpt lat="44.13896" lon="3.25056">
        <ele>855</ele>
        <time>2015-12-06T09:33:30Z</time>
      </trkpt>
      <trkpt lat="44.13897" lon="3.25054">
        <ele>855.5</ele>
        <time>2015-12-06T09:33:31Z</time>
      </trkpt>
      <trkpt lat="44.13898" lon="3.25053">
        <ele>855.5</ele>
        <time>2015-12-06T09:33:32Z</time>
      </trkpt>
      <trkpt lat="44.13899" lon="3.25052">
        <ele>855.5</ele>
        <time>2015-12-06T09:33:33Z</time>
      </trkpt>
      <trkpt lat="44.139" lon="3.2505">
        <ele>855.5</ele>
        <time>2015-12-06T09:33:34Z</time>
      </trkpt>
      <trkpt lat="44.13902" lon="3.25048">
        <ele>855.5</ele>
        <time>2015-12-06T09:33:35Z</time>
      </trkpt>
      <trkpt lat="44.13903" lon="3.25046">
        <ele>856</ele>
        <time>2015-12-06T09:33:36Z</time>
      </trkpt>
      <trkpt lat="44.13904" lon="3.25044">
        <ele>856</ele>
        <time>2015-12-06T09:33:37Z</time>
      </trkpt>
      <trkpt lat="44.13905" lon="3.25042">
        <ele>856</ele>
        <time>2015-12-06T09:33:38Z</time>
      </trkpt>
      <trkpt lat="44.13907" lon="3.2504">
        <ele>856.5</ele>
        <time>2015-12-06T09:33:39Z</time>
      </trkpt>
      <trkpt lat="44.13908" lon="3.25039">
        <ele>856.5</ele>
        <time>2015-12-06T09:33:40Z</time>
      </trkpt>
      <trkpt lat="44.13909" lon="3.25037">
        <ele>856.5</ele>
        <time>2015-12-06T09:33:41Z</time>
      </trkpt>
      <trkpt lat="44.1391" lon="3.25035">
        <ele>857</ele>
        <time>2015-12-06T09:33:42Z</time>
      </trkpt>
      <trkpt lat="44.13911" lon="3.25034">
        <ele>857.5</ele>
        <time>2015-12-06T09:33:43Z</time>
      </trkpt>
      <trkpt lat="44.13913" lon="3.25032">
        <ele>858</ele>
        <time>2015-12-06T09:33:45Z</time>
      </trkpt>
      <trkpt lat="44.13914" lon="3.25031">
        <ele>858.5</ele>
        <time>2015-12-06T09:33:45Z</time>
      </trkpt>
      <trkpt lat="44.13915" lon="3.25029">
        <ele>859</ele>
        <time>2015-12-06T09:33:46Z</time>
      </trkpt>
      <trkpt lat="44.13916" lon="3.25028">
        <ele>859</ele>
        <time>2015-12-06T09:33:47Z</time>
      </trkpt>
      <trkpt lat="44.13918" lon="3.25026">
        <ele>859</ele>
        <time>2015-12-06T09:33:48Z</time>
      </trkpt>
      <trkpt lat="44.13919" lon="3.25025">
        <ele>859.5</ele>
        <time>2015-12-06T09:33:49Z</time>
      </trkpt>
      <trkpt lat="44.1392" lon="3.25023">
        <ele>860</ele>
        <time>2015-12-06T09:33:50Z</time>
      </trkpt>
      <trkpt lat="44.13922" lon="3.25021">
        <ele>860</ele>
        <time>2015-12-06T09:33:51Z</time>
      </trkpt>
      <trkpt lat="44.13923" lon="3.2502">
        <ele>860</ele>
        <time>2015-12-06T09:33:52Z</time>
      </trkpt>
      <trkpt lat="44.13924" lon="3.25019">
        <ele>860.5</ele>
        <time>2015-12-06T09:33:53Z</time>
      </trkpt>
      <trkpt lat="44.13926" lon="3.25017">
        <ele>860.5</ele>
        <time>2015-12-06T09:33:54Z</time>
      </trkpt>
      <trkpt lat="44.13927" lon="3.25015">
        <ele>861</ele>
        <time>2015-12-06T09:33:55Z</time>
      </trkpt>
      <trkpt lat="44.13929" lon="3.25014">
        <ele>860.5</ele>
        <time>2015-12-06T09:33:56Z</time>
      </trkpt>
      <trkpt lat="44.1393" lon="3.25012">
        <ele>861</ele>
        <time>2015-12-06T09:33:57Z</time>
      </trkpt>
      <trkpt lat="44.13932" lon="3.2501">
        <ele>861</ele>
        <time>2015-12-06T09:33:58Z</time>
      </trkpt>
      <trkpt lat="44.13933" lon="3.25009">
        <ele>861</ele>
        <time>2015-12-06T09:33:59Z</time>
      </trkpt>
      <trkpt lat="44.13935" lon="3.25007">
        <ele>861</ele>
        <time>2015-12-06T09:34:00Z</time>
      </trkpt>
      <trkpt lat="44.13937" lon="3.25006">
        <ele>861</ele>
        <time>2015-12-06T09:34:01Z</time>
      </trkpt>
      <trkpt lat="44.13938" lon="3.25005">
        <ele>861.5</ele>
        <time>2015-12-06T09:34:02Z</time>
      </trkpt>
      <trkpt lat="44.1394" lon="3.25003">
        <ele>861.5</ele>
        <time>2015-12-06T09:34:03Z</time>
      </trkpt>
      <trkpt lat="44.13941" lon="3.25002">
        <ele>861.5</ele>
        <time>2015-12-06T09:34:04Z</time>
      </trkpt>
      <trkpt lat="44.13943" lon="3.25">
        <ele>861.5</ele>
        <time>2015-12-06T09:34:05Z</time>
      </trkpt>
      <trkpt lat="44.13945" lon="3.24999">
        <ele>861.5</ele>
        <time>2015-12-06T09:34:06Z</time>
      </trkpt>
      <trkpt lat="44.13946" lon="3.24998">
        <ele>861.5</ele>
        <time>2015-12-06T09:34:07Z</time>
      </trkpt>
      <trkpt lat="44.13947" lon="3.24996">
        <ele>861.5</ele>
        <time>2015-12-06T09:34:08Z</time>
      </trkpt>
      <trkpt lat="44.13949" lon="3.24995">
        <ele>861.5</ele>
        <time>2015-12-06T09:34:09Z</time>
      </trkpt>
      <trkpt lat="44.1395" lon="3.24994">
        <ele>861.5</ele>
        <time>2015-12-06T09:34:10Z</time>
      </trkpt>
      <trkpt lat="44.13952" lon="3.24993">
        <ele>861.5</ele>
        <time>2015-12-06T09:34:11Z</time>
      </trkpt>
      <trkpt lat="44.13953" lon="3.24991">
        <ele>861.5</ele>
        <time>2015-12-06T09:34:12Z</time>
      </trkpt>
      <trkpt lat="44.13955" lon="3.24989">
        <ele>861.5</ele>
        <time>2015-12-06T09:34:13Z</time>
      </trkpt>
      <trkpt lat="44.13956" lon="3.24988">
        <ele>861</ele>
        <time>2015-12-06T09:34:14Z</time>
      </trkpt>
      <trkpt lat="44.13958" lon="3.24986">
        <ele>861</ele>
        <time>2015-12-06T09:34:15Z</time>
      </trkpt>
      <trkpt lat="44.13959" lon="3.24985">
        <ele>861</ele>
        <time>2015-12-06T09:34:16Z</time>
      </trkpt>
      <trkpt lat="44.13961" lon="3.24984">
        <ele>861</ele>
        <time>2015-12-06T09:34:17Z</time>
      </trkpt>
      <trkpt lat="44.13962" lon="3.24982">
        <ele>861.5</ele>
        <time>2015-12-06T09:34:18Z</time>
      </trkpt>
      <trkpt lat="44.13963" lon="3.2498">
        <ele>861.5</ele>
        <time>2015-12-06T09:34:19Z</time>
      </trkpt>
      <trkpt lat="44.13964" lon="3.24979">
        <ele>862</ele>
        <time>2015-12-06T09:34:20Z</time>
      </trkpt>
      <trkpt lat="44.13965" lon="3.24977">
        <ele>862</ele>
        <time>2015-12-06T09:34:21Z</time>
      </trkpt>
      <trkpt lat="44.13967" lon="3.24976">
        <ele>862</ele>
        <time>2015-12-06T09:34:22Z</time>
      </trkpt>
      <trkpt lat="44.13968" lon="3.24974">
        <ele>862.5</ele>
        <time>2015-12-06T09:34:23Z</time>
      </trkpt>
      <trkpt lat="44.1397" lon="3.24973">
        <ele>863</ele>
        <time>2015-12-06T09:34:24Z</time>
      </trkpt>
      <trkpt lat="44.13971" lon="3.24971">
        <ele>863.5</ele>
        <time>2015-12-06T09:34:25Z</time>
      </trkpt>
      <trkpt lat="44.13972" lon="3.2497">
        <ele>864</ele>
        <time>2015-12-06T09:34:26Z</time>
      </trkpt>
      <trkpt lat="44.13974" lon="3.24969">
        <ele>864</ele>
        <time>2015-12-06T09:34:27Z</time>
      </trkpt>
      <trkpt lat="44.13975" lon="3.24967">
        <ele>864</ele>
        <time>2015-12-06T09:34:28Z</time>
      </trkpt>
      <trkpt lat="44.13977" lon="3.24966">
        <ele>864.5</ele>
        <time>2015-12-06T09:34:29Z</time>
      </trkpt>
      <trkpt lat="44.13978" lon="3.24964">
        <ele>864.5</ele>
        <time>2015-12-06T09:34:30Z</time>
      </trkpt>
      <trkpt lat="44.13979" lon="3.24963">
        <ele>864.5</ele>
        <time>2015-12-06T09:34:31Z</time>
      </trkpt>
      <trkpt lat="44.13981" lon="3.24961">
        <ele>865</ele>
        <time>2015-12-06T09:34:32Z</time>
      </trkpt>
      <trkpt lat="44.13982" lon="3.24959">
        <ele>865</ele>
        <time>2015-12-06T09:34:33Z</time>
      </trkpt>
      <trkpt lat="44.13983" lon="3.24957">
        <ele>865</ele>
        <time>2015-12-06T09:34:34Z</time>
      </trkpt>
      <trkpt lat="44.13984" lon="3.24955">
        <ele>865.5</ele>
        <time>2015-12-06T09:34:35Z</time>
      </trkpt>
      <trkpt lat="44.13986" lon="3.24953">
        <ele>865.5</ele>
        <time>2015-12-06T09:34:36Z</time>
      </trkpt>
      <trkpt lat="44.13987" lon="3.24951">
        <ele>865.5</ele>
        <time>2015-12-06T09:34:37Z</time>
      </trkpt>
      <trkpt lat="44.13989" lon="3.24949">
        <ele>865.5</ele>
        <time>2015-12-06T09:34:38Z</time>
      </trkpt>
      <trkpt lat="44.1399" lon="3.24947">
        <ele>865.5</ele>
        <time>2015-12-06T09:34:39Z</time>
      </trkpt>
      <trkpt lat="44.13991" lon="3.24944">
        <ele>865.5</ele>
        <time>2015-12-06T09:34:40Z</time>
      </trkpt>
      <trkpt lat="44.13992" lon="3.24942">
        <ele>865.5</ele>
        <time>2015-12-06T09:34:41Z</time>
      </trkpt>
      <trkpt lat="44.13993" lon="3.2494">
        <ele>865.5</ele>
        <time>2015-12-06T09:34:42Z</time>
      </trkpt>
      <trkpt lat="44.13995" lon="3.24937">
        <ele>865.5</ele>
        <time>2015-12-06T09:34:43Z</time>
      </trkpt>
      <trkpt lat="44.13995" lon="3.24935">
        <ele>866</ele>
        <time>2015-12-06T09:34:44Z</time>
      </trkpt>
      <trkpt lat="44.13996" lon="3.24933">
        <ele>866</ele>
        <time>2015-12-06T09:34:45Z</time>
      </trkpt>
      <trkpt lat="44.13997" lon="3.24931">
        <ele>866</ele>
        <time>2015-12-06T09:34:46Z</time>
      </trkpt>
      <trkpt lat="44.13998" lon="3.24928">
        <ele>866</ele>
        <time>2015-12-06T09:34:47Z</time>
      </trkpt>
      <trkpt lat="44.13999" lon="3.24925">
        <ele>866.5</ele>
        <time>2015-12-06T09:34:48Z</time>
      </trkpt>
      <trkpt lat="44.14" lon="3.24923">
        <ele>866.5</ele>
        <time>2015-12-06T09:34:49Z</time>
      </trkpt>
      <trkpt lat="44.14001" lon="3.2492">
        <ele>866.5</ele>
        <time>2015-12-06T09:34:50Z</time>
      </trkpt>
      <trkpt lat="44.14002" lon="3.24917">
        <ele>866.5</ele>
        <time>2015-12-06T09:34:51Z</time>
      </trkpt>
      <trkpt lat="44.14002" lon="3.24914">
        <ele>867</ele>
        <time>2015-12-06T09:34:52Z</time>
      </trkpt>
      <trkpt lat="44.14003" lon="3.24911">
        <ele>867</ele>
        <time>2015-12-06T09:34:53Z</time>
      </trkpt>
      <trkpt lat="44.14003" lon="3.24909">
        <ele>866.5</ele>
        <time>2015-12-06T09:34:54Z</time>
      </trkpt>
      <trkpt lat="44.14004" lon="3.24906">
        <ele>866.5</ele>
        <time>2015-12-06T09:34:55Z</time>
      </trkpt>
      <trkpt lat="44.14005" lon="3.24903">
        <ele>866.5</ele>
        <time>2015-12-06T09:34:56Z</time>
      </trkpt>
      <trkpt lat="44.14003" lon="3.249">
        <ele>868</ele>
        <time>2015-12-06T09:34:57Z</time>
      </trkpt>
      <trkpt lat="44.14003" lon="3.24897">
        <ele>868.5</ele>
        <time>2015-12-06T09:34:58Z</time>
      </trkpt>
      <trkpt lat="44.14004" lon="3.24895">
        <ele>868.5</ele>
        <time>2015-12-06T09:34:59Z</time>
      </trkpt>
      <trkpt lat="44.14004" lon="3.24892">
        <ele>869</ele>
        <time>2015-12-06T09:35:00Z</time>
      </trkpt>
      <trkpt lat="44.14004" lon="3.24889">
        <ele>868.5</ele>
        <time>2015-12-06T09:35:01Z</time>
      </trkpt>
      <trkpt lat="44.14004" lon="3.24886">
        <ele>868.5</ele>
        <time>2015-12-06T09:35:02Z</time>
      </trkpt>
      <trkpt lat="44.14004" lon="3.24884">
        <ele>868.5</ele>
        <time>2015-12-06T09:35:03Z</time>
      </trkpt>
      <trkpt lat="44.14005" lon="3.24882">
        <ele>868</ele>
        <time>2015-12-06T09:35:04Z</time>
      </trkpt>
      <trkpt lat="44.14005" lon="3.2488">
        <ele>868</ele>
        <time>2015-12-06T09:35:05Z</time>
      </trkpt>
      <trkpt lat="44.14004" lon="3.24878">
        <ele>868.5</ele>
        <time>2015-12-06T09:35:06Z</time>
      </trkpt>
      <trkpt lat="44.14003" lon="3.24875">
        <ele>868</ele>
        <time>2015-12-06T09:35:07Z</time>
      </trkpt>
      <trkpt lat="44.14002" lon="3.24873">
        <ele>868</ele>
        <time>2015-12-06T09:35:08Z</time>
      </trkpt>
      <trkpt lat="44.14002" lon="3.24871">
        <ele>867.5</ele>
        <time>2015-12-06T09:35:09Z</time>
      </trkpt>
      <trkpt lat="44.14001" lon="3.24869">
        <ele>867.5</ele>
        <time>2015-12-06T09:35:10Z</time>
      </trkpt>
      <trkpt lat="44.13999" lon="3.24867">
        <ele>867.5</ele>
        <time>2015-12-06T09:35:11Z</time>
      </trkpt>
      <trkpt lat="44.13998" lon="3.24865">
        <ele>867.5</ele>
        <time>2015-12-06T09:35:12Z</time>
      </trkpt>
      <trkpt lat="44.13997" lon="3.24864">
        <ele>867.5</ele>
        <time>2015-12-06T09:35:13Z</time>
      </trkpt>
      <trkpt lat="44.13996" lon="3.24863">
        <ele>867</ele>
        <time>2015-12-06T09:35:14Z</time>
      </trkpt>
      <trkpt lat="44.13995" lon="3.24862">
        <ele>866.5</ele>
        <time>2015-12-06T09:35:15Z</time>
      </trkpt>
      <trkpt lat="44.13994" lon="3.24861">
        <ele>866.5</ele>
        <time>2015-12-06T09:35:16Z</time>
      </trkpt>
      <trkpt lat="44.13992" lon="3.2486">
        <ele>866.5</ele>
        <time>2015-12-06T09:35:17Z</time>
      </trkpt>
      <trkpt lat="44.13991" lon="3.24858">
        <ele>866.5</ele>
        <time>2015-12-06T09:35:18Z</time>
      </trkpt>
      <trkpt lat="44.1399" lon="3.24857">
        <ele>866.5</ele>
        <time>2015-12-06T09:35:19Z</time>
      </trkpt>
      <trkpt lat="44.13989" lon="3.24855">
        <ele>866</ele>
        <time>2015-12-06T09:35:20Z</time>
      </trkpt>
      <trkpt lat="44.13987" lon="3.24854">
        <ele>866</ele>
        <time>2015-12-06T09:35:21Z</time>
      </trkpt>
      <trkpt lat="44.13986" lon="3.24852">
        <ele>866</ele>
        <time>2015-12-06T09:35:22Z</time>
      </trkpt>
      <trkpt lat="44.13985" lon="3.2485">
        <ele>865</ele>
        <time>2015-12-06T09:35:23Z</time>
      </trkpt>
      <trkpt lat="44.13983" lon="3.24848">
        <ele>865.5</ele>
        <time>2015-12-06T09:35:24Z</time>
      </trkpt>
      <trkpt lat="44.13981" lon="3.24846">
        <ele>865</ele>
        <time>2015-12-06T09:35:25Z</time>
      </trkpt>
      <trkpt lat="44.13979" lon="3.24844">
        <ele>865</ele>
        <time>2015-12-06T09:35:26Z</time>
      </trkpt>
      <trkpt lat="44.13977" lon="3.24843">
        <ele>865</ele>
        <time>2015-12-06T09:35:27Z</time>
      </trkpt>
      <trkpt lat="44.13975" lon="3.2484">
        <ele>864.5</ele>
        <time>2015-12-06T09:35:28Z</time>
      </trkpt>
      <trkpt lat="44.13973" lon="3.24838">
        <ele>864</ele>
        <time>2015-12-06T09:35:29Z</time>
      </trkpt>
      <trkpt lat="44.1397" lon="3.24836">
        <ele>864.5</ele>
        <time>2015-12-06T09:35:30Z</time>
      </trkpt>
      <trkpt lat="44.13967" lon="3.24834">
        <ele>864.5</ele>
        <time>2015-12-06T09:35:31Z</time>
      </trkpt>
      <trkpt lat="44.13965" lon="3.24832">
        <ele>864.5</ele>
        <time>2015-12-06T09:35:32Z</time>
      </trkpt>
      <trkpt lat="44.13962" lon="3.24829">
        <ele>865</ele>
        <time>2015-12-06T09:35:33Z</time>
      </trkpt>
      <trkpt lat="44.13959" lon="3.24827">
        <ele>865.5</ele>
        <time>2015-12-06T09:35:34Z</time>
      </trkpt>
      <trkpt lat="44.13955" lon="3.24825">
        <ele>865.5</ele>
        <time>2015-12-06T09:35:35Z</time>
      </trkpt>
      <trkpt lat="44.13952" lon="3.24823">
        <ele>865</ele>
        <time>2015-12-06T09:35:36Z</time>
      </trkpt>
      <trkpt lat="44.13949" lon="3.24821">
        <ele>865</ele>
        <time>2015-12-06T09:35:37Z</time>
      </trkpt>
      <trkpt lat="44.13945" lon="3.24819">
        <ele>865.5</ele>
        <time>2015-12-06T09:35:38Z</time>
      </trkpt>
      <trkpt lat="44.13942" lon="3.24817">
        <ele>865.5</ele>
        <time>2015-12-06T09:35:39Z</time>
      </trkpt>
      <trkpt lat="44.13939" lon="3.24815">
        <ele>865.5</ele>
        <time>2015-12-06T09:35:40Z</time>
      </trkpt>
      <trkpt lat="44.13936" lon="3.24813">
        <ele>865.5</ele>
        <time>2015-12-06T09:35:41Z</time>
      </trkpt>
      <trkpt lat="44.13933" lon="3.24811">
        <ele>865.5</ele>
        <time>2015-12-06T09:35:42Z</time>
      </trkpt>
      <trkpt lat="44.13931" lon="3.24808">
        <ele>865.5</ele>
        <time>2015-12-06T09:35:43Z</time>
      </trkpt>
      <trkpt lat="44.13928" lon="3.24805">
        <ele>865.5</ele>
        <time>2015-12-06T09:35:44Z</time>
      </trkpt>
      <trkpt lat="44.13926" lon="3.24803">
        <ele>865</ele>
        <time>2015-12-06T09:35:45Z</time>
      </trkpt>
      <trkpt lat="44.13923" lon="3.24799">
        <ele>864.5</ele>
        <time>2015-12-06T09:35:46Z</time>
      </trkpt>
      <trkpt lat="44.13921" lon="3.24796">
        <ele>864</ele>
        <time>2015-12-06T09:35:47Z</time>
      </trkpt>
      <trkpt lat="44.13919" lon="3.24793">
        <ele>863</ele>
        <time>2015-12-06T09:35:48Z</time>
      </trkpt>
      <trkpt lat="44.13917" lon="3.2479">
        <ele>863</ele>
        <time>2015-12-06T09:35:49Z</time>
      </trkpt>
      <trkpt lat="44.13914" lon="3.24788">
        <ele>863.5</ele>
        <time>2015-12-06T09:35:50Z</time>
      </trkpt>
      <trkpt lat="44.13912" lon="3.24785">
        <ele>863</ele>
        <time>2015-12-06T09:35:51Z</time>
      </trkpt>
      <trkpt lat="44.1391" lon="3.24782">
        <ele>863</ele>
        <time>2015-12-06T09:35:52Z</time>
      </trkpt>
      <trkpt lat="44.13908" lon="3.2478">
        <ele>863</ele>
        <time>2015-12-06T09:35:53Z</time>
      </trkpt>
      <trkpt lat="44.13906" lon="3.24777">
        <ele>863</ele>
        <time>2015-12-06T09:35:54Z</time>
      </trkpt>
      <trkpt lat="44.13904" lon="3.24774">
        <ele>863</ele>
        <time>2015-12-06T09:35:55Z</time>
      </trkpt>
      <trkpt lat="44.13903" lon="3.2477">
        <ele>863</ele>
        <time>2015-12-06T09:35:56Z</time>
      </trkpt>
      <trkpt lat="44.13901" lon="3.24767">
        <ele>863.5</ele>
        <time>2015-12-06T09:35:57Z</time>
      </trkpt>
      <trkpt lat="44.13901" lon="3.24765">
        <ele>863.5</ele>
        <time>2015-12-06T09:35:58Z</time>
      </trkpt>
      <trkpt lat="44.139" lon="3.24761">
        <ele>863.5</ele>
        <time>2015-12-06T09:35:59Z</time>
      </trkpt>
      <trkpt lat="44.13899" lon="3.24758">
        <ele>863.5</ele>
        <time>2015-12-06T09:36:00Z</time>
      </trkpt>
      <trkpt lat="44.13899" lon="3.24753">
        <ele>863.5</ele>
        <time>2015-12-06T09:36:01Z</time>
      </trkpt>
      <trkpt lat="44.13899" lon="3.24749">
        <ele>863.5</ele>
        <time>2015-12-06T09:36:02Z</time>
      </trkpt>
      <trkpt lat="44.13899" lon="3.24744">
        <ele>863.5</ele>
        <time>2015-12-06T09:36:03Z</time>
      </trkpt>
      <trkpt lat="44.139" lon="3.24739">
        <ele>863</ele>
        <time>2015-12-06T09:36:04Z</time>
      </trkpt>
      <trkpt lat="44.13901" lon="3.24734">
        <ele>863</ele>
        <time>2015-12-06T09:36:05Z</time>
      </trkpt>
      <trkpt lat="44.13902" lon="3.2473">
        <ele>863.5</ele>
        <time>2015-12-06T09:36:06Z</time>
      </trkpt>
      <trkpt lat="44.13903" lon="3.24726">
        <ele>863.5</ele>
        <time>2015-12-06T09:36:07Z</time>
      </trkpt>
      <trkpt lat="44.13904" lon="3.24722">
        <ele>863.5</ele>
        <time>2015-12-06T09:36:08Z</time>
      </trkpt>
      <trkpt lat="44.13904" lon="3.2472">
        <ele>864.5</ele>
        <time>2015-12-06T09:36:09Z</time>
      </trkpt>
      <trkpt lat="44.13905" lon="3.24716">
        <ele>864</ele>
        <time>2015-12-06T09:36:10Z</time>
      </trkpt>
      <trkpt lat="44.13906" lon="3.24713">
        <ele>864</ele>
        <time>2015-12-06T09:36:11Z</time>
      </trkpt>
      <trkpt lat="44.13906" lon="3.24709">
        <ele>864.5</ele>
        <time>2015-12-06T09:36:12Z</time>
      </trkpt>
      <trkpt lat="44.13907" lon="3.24705">
        <ele>864</ele>
        <time>2015-12-06T09:36:13Z</time>
      </trkpt>
      <trkpt lat="44.13907" lon="3.24701">
        <ele>864</ele>
        <time>2015-12-06T09:36:14Z</time>
      </trkpt>
      <trkpt lat="44.13908" lon="3.24697">
        <ele>863.5</ele>
        <time>2015-12-06T09:36:15Z</time>
      </trkpt>
      <trkpt lat="44.13908" lon="3.24693">
        <ele>863</ele>
        <time>2015-12-06T09:36:16Z</time>
      </trkpt>
      <trkpt lat="44.13909" lon="3.24688">
        <ele>862.5</ele>
        <time>2015-12-06T09:36:17Z</time>
      </trkpt>
      <trkpt lat="44.1391" lon="3.24685">
        <ele>862.5</ele>
        <time>2015-12-06T09:36:17Z</time>
      </trkpt>
      <trkpt lat="44.13911" lon="3.24682">
        <ele>862.5</ele>
        <time>2015-12-06T09:36:18Z</time>
      </trkpt>
      <trkpt lat="44.13913" lon="3.24679">
        <ele>862.5</ele>
        <time>2015-12-06T09:36:19Z</time>
      </trkpt>
      <trkpt lat="44.13915" lon="3.24676">
        <ele>862.5</ele>
        <time>2015-12-06T09:36:20Z</time>
      </trkpt>
      <trkpt lat="44.13917" lon="3.24674">
        <ele>862.5</ele>
        <time>2015-12-06T09:36:21Z</time>
      </trkpt>
      <trkpt lat="44.13919" lon="3.24671">
        <ele>863</ele>
        <time>2015-12-06T09:36:22Z</time>
      </trkpt>
      <trkpt lat="44.13921" lon="3.24668">
        <ele>863</ele>
        <time>2015-12-06T09:36:23Z</time>
      </trkpt>
      <trkpt lat="44.13923" lon="3.24666">
        <ele>863</ele>
        <time>2015-12-06T09:36:24Z</time>
      </trkpt>
      <trkpt lat="44.13924" lon="3.24663">
        <ele>863.5</ele>
        <time>2015-12-06T09:36:25Z</time>
      </trkpt>
      <trkpt lat="44.13925" lon="3.24661">
        <ele>863.5</ele>
        <time>2015-12-06T09:36:26Z</time>
      </trkpt>
      <trkpt lat="44.13926" lon="3.24659">
        <ele>864</ele>
        <time>2015-12-06T09:36:27Z</time>
      </trkpt>
      <trkpt lat="44.13927" lon="3.24657">
        <ele>864.5</ele>
        <time>2015-12-06T09:36:28Z</time>
      </trkpt>
      <trkpt lat="44.13927" lon="3.24655">
        <ele>865</ele>
        <time>2015-12-06T09:36:29Z</time>
      </trkpt>
      <trkpt lat="44.13929" lon="3.24653">
        <ele>865.5</ele>
        <time>2015-12-06T09:36:30Z</time>
      </trkpt>
      <trkpt lat="44.1393" lon="3.2465">
        <ele>865</ele>
        <time>2015-12-06T09:36:31Z</time>
      </trkpt>
      <trkpt lat="44.13932" lon="3.24648">
        <ele>865.5</ele>
        <time>2015-12-06T09:36:32Z</time>
      </trkpt>
      <trkpt lat="44.13934" lon="3.24646">
        <ele>865</ele>
        <time>2015-12-06T09:36:33Z</time>
      </trkpt>
      <trkpt lat="44.13937" lon="3.24644">
        <ele>865</ele>
        <time>2015-12-06T09:36:34Z</time>
      </trkpt>
      <trkpt lat="44.13939" lon="3.24642">
        <ele>865</ele>
        <time>2015-12-06T09:36:35Z</time>
      </trkpt>
      <trkpt lat="44.13941" lon="3.24641">
        <ele>865</ele>
        <time>2015-12-06T09:36:36Z</time>
      </trkpt>
      <trkpt lat="44.13943" lon="3.24639">
        <ele>865.5</ele>
        <time>2015-12-06T09:36:38Z</time>
      </trkpt>
      <trkpt lat="44.13945" lon="3.24638">
        <ele>865</ele>
        <time>2015-12-06T09:36:38Z</time>
      </trkpt>
      <trkpt lat="44.13947" lon="3.24637">
        <ele>865</ele>
        <time>2015-12-06T09:36:39Z</time>
      </trkpt>
      <trkpt lat="44.13949" lon="3.24637">
        <ele>865</ele>
        <time>2015-12-06T09:36:40Z</time>
      </trkpt>
      <trkpt lat="44.13952" lon="3.24636">
        <ele>865</ele>
        <time>2015-12-06T09:36:41Z</time>
      </trkpt>
      <trkpt lat="44.13954" lon="3.24635">
        <ele>865</ele>
        <time>2015-12-06T09:36:43Z</time>
      </trkpt>
      <trkpt lat="44.13956" lon="3.24635">
        <ele>865</ele>
        <time>2015-12-06T09:36:43Z</time>
      </trkpt>
      <trkpt lat="44.13959" lon="3.24634">
        <ele>865</ele>
        <time>2015-12-06T09:36:44Z</time>
      </trkpt>
      <trkpt lat="44.13961" lon="3.24635">
        <ele>865</ele>
        <time>2015-12-06T09:36:45Z</time>
      </trkpt>
      <trkpt lat="44.13963" lon="3.24637">
        <ele>865</ele>
        <time>2015-12-06T09:36:46Z</time>
      </trkpt>
      <trkpt lat="44.13966" lon="3.24639">
        <ele>865</ele>
        <time>2015-12-06T09:36:47Z</time>
      </trkpt>
      <trkpt lat="44.13968" lon="3.24641">
        <ele>865.5</ele>
        <time>2015-12-06T09:36:48Z</time>
      </trkpt>
      <trkpt lat="44.13969" lon="3.24643">
        <ele>865</ele>
        <time>2015-12-06T09:36:49Z</time>
      </trkpt>
      <trkpt lat="44.13971" lon="3.24645">
        <ele>865</ele>
        <time>2015-12-06T09:36:50Z</time>
      </trkpt>
      <trkpt lat="44.13973" lon="3.24645">
        <ele>865</ele>
        <time>2015-12-06T09:36:51Z</time>
      </trkpt>
      <trkpt lat="44.13975" lon="3.24646">
        <ele>865.5</ele>
        <time>2015-12-06T09:36:52Z</time>
      </trkpt>
      <trkpt lat="44.13977" lon="3.24646">
        <ele>865.5</ele>
        <time>2015-12-06T09:36:53Z</time>
      </trkpt>
      <trkpt lat="44.13979" lon="3.24646">
        <ele>865.5</ele>
        <time>2015-12-06T09:36:54Z</time>
      </trkpt>
      <trkpt lat="44.13981" lon="3.24647">
        <ele>865.5</ele>
        <time>2015-12-06T09:36:56Z</time>
      </trkpt>
      <trkpt lat="44.13983" lon="3.24647">
        <ele>865.5</ele>
        <time>2015-12-06T09:36:56Z</time>
      </trkpt>
      <trkpt lat="44.13985" lon="3.24648">
        <ele>864.5</ele>
        <time>2015-12-06T09:36:57Z</time>
      </trkpt>
      <trkpt lat="44.13988" lon="3.24649">
        <ele>864.5</ele>
        <time>2015-12-06T09:36:58Z</time>
      </trkpt>
      <trkpt lat="44.1399" lon="3.2465">
        <ele>864.5</ele>
        <time>2015-12-06T09:36:59Z</time>
      </trkpt>
      <trkpt lat="44.13992" lon="3.2465">
        <ele>864.5</ele>
        <time>2015-12-06T09:37:00Z</time>
      </trkpt>
      <trkpt lat="44.13994" lon="3.24651">
        <ele>864.5</ele>
        <time>2015-12-06T09:37:01Z</time>
      </trkpt>
      <trkpt lat="44.13996" lon="3.24654">
        <ele>862.5</ele>
        <time>2015-12-06T09:37:02Z</time>
      </trkpt>
      <trkpt lat="44.13998" lon="3.24657">
        <ele>860.5</ele>
        <time>2015-12-06T09:37:03Z</time>
      </trkpt>
      <trkpt lat="44.14" lon="3.2466">
        <ele>860.5</ele>
        <time>2015-12-06T09:37:04Z</time>
      </trkpt>
      <trkpt lat="44.14001" lon="3.24658">
        <ele>861</ele>
        <time>2015-12-06T09:37:05Z</time>
      </trkpt>
      <trkpt lat="44.14002" lon="3.24657">
        <ele>861.5</ele>
        <time>2015-12-06T09:37:06Z</time>
      </trkpt>
      <trkpt lat="44.14004" lon="3.24656">
        <ele>862.5</ele>
        <time>2015-12-06T09:37:07Z</time>
      </trkpt>
      <trkpt lat="44.14005" lon="3.24654">
        <ele>863.5</ele>
        <time>2015-12-06T09:37:08Z</time>
      </trkpt>
      <trkpt lat="44.14006" lon="3.24652">
        <ele>864.5</ele>
        <time>2015-12-06T09:37:09Z</time>
      </trkpt>
      <trkpt lat="44.14008" lon="3.24649">
        <ele>866</ele>
        <time>2015-12-06T09:37:10Z</time>
      </trkpt>
      <trkpt lat="44.14009" lon="3.24647">
        <ele>867.5</ele>
        <time>2015-12-06T09:37:11Z</time>
      </trkpt>
      <trkpt lat="44.1401" lon="3.24645">
        <ele>868.5</ele>
        <time>2015-12-06T09:37:12Z</time>
      </trkpt>
      <trkpt lat="44.14012" lon="3.24643">
        <ele>868.5</ele>
        <time>2015-12-06T09:37:13Z</time>
      </trkpt>
      <trkpt lat="44.14014" lon="3.24642">
        <ele>868.5</ele>
        <time>2015-12-06T09:37:14Z</time>
      </trkpt>
      <trkpt lat="44.14016" lon="3.24641">
        <ele>869</ele>
        <time>2015-12-06T09:37:15Z</time>
      </trkpt>
      <trkpt lat="44.14018" lon="3.24639">
        <ele>869</ele>
        <time>2015-12-06T09:37:16Z</time>
      </trkpt>
      <trkpt lat="44.1402" lon="3.24638">
        <ele>868.5</ele>
        <time>2015-12-06T09:37:17Z</time>
      </trkpt>
      <trkpt lat="44.14022" lon="3.24636">
        <ele>868.5</ele>
        <time>2015-12-06T09:37:18Z</time>
      </trkpt>
      <trkpt lat="44.14024" lon="3.24634">
        <ele>868.5</ele>
        <time>2015-12-06T09:37:19Z</time>
      </trkpt>
      <trkpt lat="44.14026" lon="3.24633">
        <ele>869</ele>
        <time>2015-12-06T09:37:21Z</time>
      </trkpt>
      <trkpt lat="44.14026" lon="3.24632">
        <ele>869.5</ele>
        <time>2015-12-06T09:37:21Z</time>
      </trkpt>
      <trkpt lat="44.14028" lon="3.24631">
        <ele>870</ele>
        <time>2015-12-06T09:37:22Z</time>
      </trkpt>
      <trkpt lat="44.1403" lon="3.2463">
        <ele>869.5</ele>
        <time>2015-12-06T09:37:23Z</time>
      </trkpt>
      <trkpt lat="44.14031" lon="3.24629">
        <ele>869.5</ele>
        <time>2015-12-06T09:37:24Z</time>
      </trkpt>
      <trkpt lat="44.14033" lon="3.24628">
        <ele>869.5</ele>
        <time>2015-12-06T09:37:25Z</time>
      </trkpt>
      <trkpt lat="44.14035" lon="3.24628">
        <ele>869</ele>
        <time>2015-12-06T09:37:26Z</time>
      </trkpt>
      <trkpt lat="44.14038" lon="3.24629">
        <ele>868</ele>
        <time>2015-12-06T09:37:27Z</time>
      </trkpt>
      <trkpt lat="44.14042" lon="3.24629">
        <ele>868.5</ele>
        <time>2015-12-06T09:37:28Z</time>
      </trkpt>
      <trkpt lat="44.14043" lon="3.24632">
        <ele>869.5</ele>
        <time>2015-12-06T09:37:29Z</time>
      </trkpt>
      <trkpt lat="44.14046" lon="3.24632">
        <ele>869</ele>
        <time>2015-12-06T09:37:30Z</time>
      </trkpt>
      <trkpt lat="44.14048" lon="3.2463">
        <ele>868</ele>
        <time>2015-12-06T09:37:31Z</time>
      </trkpt>
      <trkpt lat="44.1405" lon="3.24628">
        <ele>867.5</ele>
        <time>2015-12-06T09:37:32Z</time>
      </trkpt>
      <trkpt lat="44.14052" lon="3.24626">
        <ele>868</ele>
        <time>2015-12-06T09:37:33Z</time>
      </trkpt>
      <trkpt lat="44.14054" lon="3.24624">
        <ele>867.5</ele>
        <time>2015-12-06T09:37:34Z</time>
      </trkpt>
      <trkpt lat="44.14057" lon="3.24621">
        <ele>867.5</ele>
        <time>2015-12-06T09:37:35Z</time>
      </trkpt>
      <trkpt lat="44.14058" lon="3.24619">
        <ele>867.5</ele>
        <time>2015-12-06T09:37:36Z</time>
      </trkpt>
      <trkpt lat="44.1406" lon="3.24617">
        <ele>867.5</ele>
        <time>2015-12-06T09:37:37Z</time>
      </trkpt>
      <trkpt lat="44.14062" lon="3.24614">
        <ele>867.5</ele>
        <time>2015-12-06T09:37:38Z</time>
      </trkpt>
      <trkpt lat="44.14064" lon="3.24612">
        <ele>868</ele>
        <time>2015-12-06T09:37:39Z</time>
      </trkpt>
      <trkpt lat="44.14066" lon="3.24609">
        <ele>868</ele>
        <time>2015-12-06T09:37:40Z</time>
      </trkpt>
      <trkpt lat="44.14068" lon="3.24607">
        <ele>868</ele>
        <time>2015-12-06T09:37:41Z</time>
      </trkpt>
      <trkpt lat="44.1407" lon="3.24605">
        <ele>868.5</ele>
        <time>2015-12-06T09:37:42Z</time>
      </trkpt>
      <trkpt lat="44.14072" lon="3.24602">
        <ele>868.5</ele>
        <time>2015-12-06T09:37:43Z</time>
      </trkpt>
      <trkpt lat="44.14074" lon="3.24599">
        <ele>869</ele>
        <time>2015-12-06T09:37:44Z</time>
      </trkpt>
      <trkpt lat="44.14076" lon="3.24597">
        <ele>869</ele>
        <time>2015-12-06T09:37:45Z</time>
      </trkpt>
      <trkpt lat="44.14078" lon="3.24595">
        <ele>869.5</ele>
        <time>2015-12-06T09:37:46Z</time>
      </trkpt>
      <trkpt lat="44.1408" lon="3.24592">
        <ele>869.5</ele>
        <time>2015-12-06T09:37:47Z</time>
      </trkpt>
      <trkpt lat="44.14082" lon="3.24589">
        <ele>869.5</ele>
        <time>2015-12-06T09:37:48Z</time>
      </trkpt>
      <trkpt lat="44.14084" lon="3.24587">
        <ele>869.5</ele>
        <time>2015-12-06T09:37:49Z</time>
      </trkpt>
      <trkpt lat="44.14086" lon="3.24584">
        <ele>870</ele>
        <time>2015-12-06T09:37:50Z</time>
      </trkpt>
      <trkpt lat="44.14088" lon="3.24581">
        <ele>870</ele>
        <time>2015-12-06T09:37:51Z</time>
      </trkpt>
      <trkpt lat="44.1409" lon="3.24579">
        <ele>870</ele>
        <time>2015-12-06T09:37:52Z</time>
      </trkpt>
      <trkpt lat="44.14092" lon="3.24577">
        <ele>870</ele>
        <time>2015-12-06T09:37:53Z</time>
      </trkpt>
      <trkpt lat="44.14094" lon="3.24574">
        <ele>870</ele>
        <time>2015-12-06T09:37:54Z</time>
      </trkpt>
      <trkpt lat="44.14096" lon="3.24572">
        <ele>870</ele>
        <time>2015-12-06T09:37:55Z</time>
      </trkpt>
      <trkpt lat="44.14098" lon="3.2457">
        <ele>870</ele>
        <time>2015-12-06T09:37:56Z</time>
      </trkpt>
      <trkpt lat="44.141" lon="3.24567">
        <ele>870.5</ele>
        <time>2015-12-06T09:37:57Z</time>
      </trkpt>
      <trkpt lat="44.14102" lon="3.24565">
        <ele>870.5</ele>
        <time>2015-12-06T09:37:58Z</time>
      </trkpt>
      <trkpt lat="44.14104" lon="3.24563">
        <ele>870.5</ele>
        <time>2015-12-06T09:37:59Z</time>
      </trkpt>
      <trkpt lat="44.14107" lon="3.2456">
        <ele>870.5</ele>
        <time>2015-12-06T09:38:00Z</time>
      </trkpt>
      <trkpt lat="44.14109" lon="3.24557">
        <ele>870.5</ele>
        <time>2015-12-06T09:38:01Z</time>
      </trkpt>
      <trkpt lat="44.14111" lon="3.24555">
        <ele>870.5</ele>
        <time>2015-12-06T09:38:02Z</time>
      </trkpt>
      <trkpt lat="44.14114" lon="3.24552">
        <ele>870.5</ele>
        <time>2015-12-06T09:38:03Z</time>
      </trkpt>
      <trkpt lat="44.14116" lon="3.24549">
        <ele>870.5</ele>
        <time>2015-12-06T09:38:04Z</time>
      </trkpt>
      <trkpt lat="44.14118" lon="3.24546">
        <ele>871</ele>
        <time>2015-12-06T09:38:05Z</time>
      </trkpt>
      <trkpt lat="44.1412" lon="3.24544">
        <ele>871</ele>
        <time>2015-12-06T09:38:06Z</time>
      </trkpt>
      <trkpt lat="44.14122" lon="3.24541">
        <ele>871.5</ele>
        <time>2015-12-06T09:38:07Z</time>
      </trkpt>
      <trkpt lat="44.14125" lon="3.24538">
        <ele>871</ele>
        <time>2015-12-06T09:38:08Z</time>
      </trkpt>
      <trkpt lat="44.14127" lon="3.24535">
        <ele>871.5</ele>
        <time>2015-12-06T09:38:09Z</time>
      </trkpt>
      <trkpt lat="44.1413" lon="3.24532">
        <ele>871.5</ele>
        <time>2015-12-06T09:38:10Z</time>
      </trkpt>
      <trkpt lat="44.14132" lon="3.2453">
        <ele>872</ele>
        <time>2015-12-06T09:38:11Z</time>
      </trkpt>
      <trkpt lat="44.14135" lon="3.24526">
        <ele>871</ele>
        <time>2015-12-06T09:38:12Z</time>
      </trkpt>
      <trkpt lat="44.14138" lon="3.24523">
        <ele>871</ele>
        <time>2015-12-06T09:38:13Z</time>
      </trkpt>
      <trkpt lat="44.14141" lon="3.2452">
        <ele>871.5</ele>
        <time>2015-12-06T09:38:14Z</time>
      </trkpt>
      <trkpt lat="44.14144" lon="3.24517">
        <ele>871.5</ele>
        <time>2015-12-06T09:38:15Z</time>
      </trkpt>
      <trkpt lat="44.14146" lon="3.24514">
        <ele>872</ele>
        <time>2015-12-06T09:38:16Z</time>
      </trkpt>
      <trkpt lat="44.14149" lon="3.2451">
        <ele>872</ele>
        <time>2015-12-06T09:38:17Z</time>
      </trkpt>
      <trkpt lat="44.14152" lon="3.24507">
        <ele>872</ele>
        <time>2015-12-06T09:38:18Z</time>
      </trkpt>
      <trkpt lat="44.14155" lon="3.24504">
        <ele>872.5</ele>
        <time>2015-12-06T09:38:19Z</time>
      </trkpt>
      <trkpt lat="44.14158" lon="3.24501">
        <ele>873</ele>
        <time>2015-12-06T09:38:20Z</time>
      </trkpt>
      <trkpt lat="44.14161" lon="3.24498">
        <ele>873</ele>
        <time>2015-12-06T09:38:21Z</time>
      </trkpt>
      <trkpt lat="44.14164" lon="3.24495">
        <ele>873</ele>
        <time>2015-12-06T09:38:22Z</time>
      </trkpt>
      <trkpt lat="44.14166" lon="3.24492">
        <ele>873</ele>
        <time>2015-12-06T09:38:23Z</time>
      </trkpt>
      <trkpt lat="44.14169" lon="3.24489">
        <ele>873.5</ele>
        <time>2015-12-06T09:38:24Z</time>
      </trkpt>
      <trkpt lat="44.14171" lon="3.24486">
        <ele>873.5</ele>
        <time>2015-12-06T09:38:25Z</time>
      </trkpt>
      <trkpt lat="44.14173" lon="3.24483">
        <ele>874</ele>
        <time>2015-12-06T09:38:26Z</time>
      </trkpt>
      <trkpt lat="44.14176" lon="3.24481">
        <ele>874</ele>
        <time>2015-12-06T09:38:27Z</time>
      </trkpt>
      <trkpt lat="44.14179" lon="3.24478">
        <ele>874.5</ele>
        <time>2015-12-06T09:38:28Z</time>
      </trkpt>
      <trkpt lat="44.14181" lon="3.24475">
        <ele>874.5</ele>
        <time>2015-12-06T09:38:29Z</time>
      </trkpt>
      <trkpt lat="44.14184" lon="3.24473">
        <ele>874.5</ele>
        <time>2015-12-06T09:38:30Z</time>
      </trkpt>
      <trkpt lat="44.14186" lon="3.2447">
        <ele>875</ele>
        <time>2015-12-06T09:38:31Z</time>
      </trkpt>
      <trkpt lat="44.14189" lon="3.24468">
        <ele>875</ele>
        <time>2015-12-06T09:38:32Z</time>
      </trkpt>
      <trkpt lat="44.14191" lon="3.24465">
        <ele>875</ele>
        <time>2015-12-06T09:38:33Z</time>
      </trkpt>
      <trkpt lat="44.14194" lon="3.24462">
        <ele>875</ele>
        <time>2015-12-06T09:38:34Z</time>
      </trkpt>
      <trkpt lat="44.14196" lon="3.2446">
        <ele>875</ele>
        <time>2015-12-06T09:38:35Z</time>
      </trkpt>
      <trkpt lat="44.14199" lon="3.24457">
        <ele>875</ele>
        <time>2015-12-06T09:38:36Z</time>
      </trkpt>
      <trkpt lat="44.14201" lon="3.24455">
        <ele>874.5</ele>
        <time>2015-12-06T09:38:37Z</time>
      </trkpt>
      <trkpt lat="44.14204" lon="3.24453">
        <ele>875</ele>
        <time>2015-12-06T09:38:38Z</time>
      </trkpt>
      <trkpt lat="44.14206" lon="3.2445">
        <ele>875</ele>
        <time>2015-12-06T09:38:39Z</time>
      </trkpt>
      <trkpt lat="44.14209" lon="3.24448">
        <ele>874.5</ele>
        <time>2015-12-06T09:38:40Z</time>
      </trkpt>
      <trkpt lat="44.14211" lon="3.24446">
        <ele>874.5</ele>
        <time>2015-12-06T09:38:41Z</time>
      </trkpt>
      <trkpt lat="44.14214" lon="3.24444">
        <ele>874</ele>
        <time>2015-12-06T09:38:42Z</time>
      </trkpt>
      <trkpt lat="44.14216" lon="3.24442">
        <ele>874.5</ele>
        <time>2015-12-06T09:38:43Z</time>
      </trkpt>
      <trkpt lat="44.14219" lon="3.2444">
        <ele>874.5</ele>
        <time>2015-12-06T09:38:44Z</time>
      </trkpt>
      <trkpt lat="44.14221" lon="3.24437">
        <ele>874.5</ele>
        <time>2015-12-06T09:38:45Z</time>
      </trkpt>
      <trkpt lat="44.14223" lon="3.24435">
        <ele>874</ele>
        <time>2015-12-06T09:38:46Z</time>
      </trkpt>
      <trkpt lat="44.14225" lon="3.24433">
        <ele>874.5</ele>
        <time>2015-12-06T09:38:47Z</time>
      </trkpt>
      <trkpt lat="44.14227" lon="3.24431">
        <ele>874.5</ele>
        <time>2015-12-06T09:38:48Z</time>
      </trkpt>
      <trkpt lat="44.14229" lon="3.24429">
        <ele>875</ele>
        <time>2015-12-06T09:38:49Z</time>
      </trkpt>
      <trkpt lat="44.14231" lon="3.24427">
        <ele>875</ele>
        <time>2015-12-06T09:38:50Z</time>
      </trkpt>
      <trkpt lat="44.14233" lon="3.24425">
        <ele>875.5</ele>
        <time>2015-12-06T09:38:51Z</time>
      </trkpt>
      <trkpt lat="44.14235" lon="3.24422">
        <ele>875.5</ele>
        <time>2015-12-06T09:38:52Z</time>
      </trkpt>
      <trkpt lat="44.14237" lon="3.2442">
        <ele>876</ele>
        <time>2015-12-06T09:38:53Z</time>
      </trkpt>
      <trkpt lat="44.1424" lon="3.24417">
        <ele>876</ele>
        <time>2015-12-06T09:38:54Z</time>
      </trkpt>
      <trkpt lat="44.14242" lon="3.24415">
        <ele>876</ele>
        <time>2015-12-06T09:38:55Z</time>
      </trkpt>
      <trkpt lat="44.14244" lon="3.24413">
        <ele>876.5</ele>
        <time>2015-12-06T09:38:56Z</time>
      </trkpt>
      <trkpt lat="44.14246" lon="3.24411">
        <ele>876.5</ele>
        <time>2015-12-06T09:38:57Z</time>
      </trkpt>
      <trkpt lat="44.14248" lon="3.24409">
        <ele>877.5</ele>
        <time>2015-12-06T09:38:58Z</time>
      </trkpt>
      <trkpt lat="44.1425" lon="3.24406">
        <ele>877.5</ele>
        <time>2015-12-06T09:38:59Z</time>
      </trkpt>
      <trkpt lat="44.14252" lon="3.24404">
        <ele>878</ele>
        <time>2015-12-06T09:39:00Z</time>
      </trkpt>
      <trkpt lat="44.14255" lon="3.24402">
        <ele>878</ele>
        <time>2015-12-06T09:39:01Z</time>
      </trkpt>
      <trkpt lat="44.14257" lon="3.244">
        <ele>878</ele>
        <time>2015-12-06T09:39:02Z</time>
      </trkpt>
      <trkpt lat="44.14259" lon="3.24398">
        <ele>878.5</ele>
        <time>2015-12-06T09:39:03Z</time>
      </trkpt>
      <trkpt lat="44.14261" lon="3.24396">
        <ele>878.5</ele>
        <time>2015-12-06T09:39:04Z</time>
      </trkpt>
      <trkpt lat="44.14263" lon="3.24393">
        <ele>878.5</ele>
        <time>2015-12-06T09:39:05Z</time>
      </trkpt>
      <trkpt lat="44.14265" lon="3.24391">
        <ele>878.5</ele>
        <time>2015-12-06T09:39:06Z</time>
      </trkpt>
      <trkpt lat="44.14267" lon="3.24389">
        <ele>879</ele>
        <time>2015-12-06T09:39:07Z</time>
      </trkpt>
      <trkpt lat="44.14269" lon="3.24387">
        <ele>879</ele>
        <time>2015-12-06T09:39:08Z</time>
      </trkpt>
      <trkpt lat="44.14271" lon="3.24385">
        <ele>879</ele>
        <time>2015-12-06T09:39:09Z</time>
      </trkpt>
      <trkpt lat="44.14274" lon="3.24382">
        <ele>879</ele>
        <time>2015-12-06T09:39:10Z</time>
      </trkpt>
      <trkpt lat="44.14276" lon="3.2438">
        <ele>879.5</ele>
        <time>2015-12-06T09:39:11Z</time>
      </trkpt>
      <trkpt lat="44.14279" lon="3.24378">
        <ele>879.5</ele>
        <time>2015-12-06T09:39:12Z</time>
      </trkpt>
      <trkpt lat="44.14281" lon="3.24375">
        <ele>879.5</ele>
        <time>2015-12-06T09:39:13Z</time>
      </trkpt>
      <trkpt lat="44.14283" lon="3.24372">
        <ele>879.5</ele>
        <time>2015-12-06T09:39:14Z</time>
      </trkpt>
      <trkpt lat="44.14285" lon="3.2437">
        <ele>880</ele>
        <time>2015-12-06T09:39:15Z</time>
      </trkpt>
      <trkpt lat="44.14288" lon="3.24368">
        <ele>880</ele>
        <time>2015-12-06T09:39:16Z</time>
      </trkpt>
      <trkpt lat="44.1429" lon="3.24365">
        <ele>880</ele>
        <time>2015-12-06T09:39:17Z</time>
      </trkpt>
      <trkpt lat="44.14292" lon="3.24363">
        <ele>880</ele>
        <time>2015-12-06T09:39:18Z</time>
      </trkpt>
      <trkpt lat="44.14294" lon="3.24361">
        <ele>880.5</ele>
        <time>2015-12-06T09:39:19Z</time>
      </trkpt>
      <trkpt lat="44.14297" lon="3.24359">
        <ele>880</ele>
        <time>2015-12-06T09:39:20Z</time>
      </trkpt>
      <trkpt lat="44.14298" lon="3.24356">
        <ele>880.5</ele>
        <time>2015-12-06T09:39:21Z</time>
      </trkpt>
      <trkpt lat="44.14301" lon="3.24354">
        <ele>880.5</ele>
        <time>2015-12-06T09:39:22Z</time>
      </trkpt>
      <trkpt lat="44.14303" lon="3.24352">
        <ele>881</ele>
        <time>2015-12-06T09:39:23Z</time>
      </trkpt>
      <trkpt lat="44.14305" lon="3.2435">
        <ele>881</ele>
        <time>2015-12-06T09:39:24Z</time>
      </trkpt>
      <trkpt lat="44.14307" lon="3.24348">
        <ele>881</ele>
        <time>2015-12-06T09:39:25Z</time>
      </trkpt>
      <trkpt lat="44.14309" lon="3.24345">
        <ele>881.5</ele>
        <time>2015-12-06T09:39:26Z</time>
      </trkpt>
      <trkpt lat="44.14311" lon="3.24343">
        <ele>881.5</ele>
        <time>2015-12-06T09:39:27Z</time>
      </trkpt>
      <trkpt lat="44.14311" lon="3.2434">
        <ele>881</ele>
        <time>2015-12-06T09:39:28Z</time>
      </trkpt>
      <trkpt lat="44.14313" lon="3.24337">
        <ele>881</ele>
        <time>2015-12-06T09:39:29Z</time>
      </trkpt>
      <trkpt lat="44.14315" lon="3.24335">
        <ele>880.5</ele>
        <time>2015-12-06T09:39:30Z</time>
      </trkpt>
      <trkpt lat="44.14317" lon="3.24334">
        <ele>881</ele>
        <time>2015-12-06T09:39:31Z</time>
      </trkpt>
      <trkpt lat="44.14319" lon="3.24332">
        <ele>881</ele>
        <time>2015-12-06T09:39:32Z</time>
      </trkpt>
      <trkpt lat="44.14321" lon="3.2433">
        <ele>880.5</ele>
        <time>2015-12-06T09:39:33Z</time>
      </trkpt>
      <trkpt lat="44.14324" lon="3.24328">
        <ele>880.5</ele>
        <time>2015-12-06T09:39:34Z</time>
      </trkpt>
      <trkpt lat="44.14326" lon="3.24326">
        <ele>881</ele>
        <time>2015-12-06T09:39:35Z</time>
      </trkpt>
      <trkpt lat="44.14328" lon="3.24324">
        <ele>881</ele>
        <time>2015-12-06T09:39:36Z</time>
      </trkpt>
      <trkpt lat="44.1433" lon="3.24322">
        <ele>881</ele>
        <time>2015-12-06T09:39:37Z</time>
      </trkpt>
      <trkpt lat="44.14332" lon="3.2432">
        <ele>881</ele>
        <time>2015-12-06T09:39:38Z</time>
      </trkpt>
      <trkpt lat="44.14334" lon="3.24318">
        <ele>881</ele>
        <time>2015-12-06T09:39:39Z</time>
      </trkpt>
      <trkpt lat="44.14337" lon="3.24316">
        <ele>881</ele>
        <time>2015-12-06T09:39:40Z</time>
      </trkpt>
      <trkpt lat="44.14339" lon="3.24313">
        <ele>881.5</ele>
        <time>2015-12-06T09:39:41Z</time>
      </trkpt>
      <trkpt lat="44.14341" lon="3.24311">
        <ele>882</ele>
        <time>2015-12-06T09:39:42Z</time>
      </trkpt>
      <trkpt lat="44.14343" lon="3.24309">
        <ele>883</ele>
        <time>2015-12-06T09:39:43Z</time>
      </trkpt>
      <trkpt lat="44.14345" lon="3.24307">
        <ele>883.5</ele>
        <time>2015-12-06T09:39:44Z</time>
      </trkpt>
      <trkpt lat="44.14347" lon="3.24305">
        <ele>883.5</ele>
        <time>2015-12-06T09:39:45Z</time>
      </trkpt>
      <trkpt lat="44.14349" lon="3.24303">
        <ele>884</ele>
        <time>2015-12-06T09:39:46Z</time>
      </trkpt>
      <trkpt lat="44.14351" lon="3.24301">
        <ele>884</ele>
        <time>2015-12-06T09:39:46Z</time>
      </trkpt>
      <trkpt lat="44.14353" lon="3.243">
        <ele>883.5</ele>
        <time>2015-12-06T09:39:48Z</time>
      </trkpt>
      <trkpt lat="44.14355" lon="3.24298">
        <ele>883.5</ele>
        <time>2015-12-06T09:39:48Z</time>
      </trkpt>
      <trkpt lat="44.14357" lon="3.24296">
        <ele>884</ele>
        <time>2015-12-06T09:39:49Z</time>
      </trkpt>
      <trkpt lat="44.14359" lon="3.24294">
        <ele>884</ele>
        <time>2015-12-06T09:39:50Z</time>
      </trkpt>
      <trkpt lat="44.14361" lon="3.24292">
        <ele>885</ele>
        <time>2015-12-06T09:39:51Z</time>
      </trkpt>
      <trkpt lat="44.14363" lon="3.2429">
        <ele>885.5</ele>
        <time>2015-12-06T09:39:53Z</time>
      </trkpt>
      <trkpt lat="44.14365" lon="3.24288">
        <ele>885.5</ele>
        <time>2015-12-06T09:39:53Z</time>
      </trkpt>
      <trkpt lat="44.14367" lon="3.24286">
        <ele>886</ele>
        <time>2015-12-06T09:39:54Z</time>
      </trkpt>
      <trkpt lat="44.14369" lon="3.24284">
        <ele>886</ele>
        <time>2015-12-06T09:39:55Z</time>
      </trkpt>
      <trkpt lat="44.14371" lon="3.24282">
        <ele>886</ele>
        <time>2015-12-06T09:39:56Z</time>
      </trkpt>
      <trkpt lat="44.14373" lon="3.2428">
        <ele>886</ele>
        <time>2015-12-06T09:39:57Z</time>
      </trkpt>
      <trkpt lat="44.14375" lon="3.24278">
        <ele>886</ele>
        <time>2015-12-06T09:39:58Z</time>
      </trkpt>
      <trkpt lat="44.14377" lon="3.24276">
        <ele>886.5</ele>
        <time>2015-12-06T09:40:00Z</time>
      </trkpt>
      <trkpt lat="44.14379" lon="3.24274">
        <ele>886.5</ele>
        <time>2015-12-06T09:40:00Z</time>
      </trkpt>
      <trkpt lat="44.14381" lon="3.24271">
        <ele>887</ele>
        <time>2015-12-06T09:40:01Z</time>
      </trkpt>
      <trkpt lat="44.14382" lon="3.24269">
        <ele>887</ele>
        <time>2015-12-06T09:40:03Z</time>
      </trkpt>
      <trkpt lat="44.14384" lon="3.24267">
        <ele>887.5</ele>
        <time>2015-12-06T09:40:03Z</time>
      </trkpt>
      <trkpt lat="44.14386" lon="3.24265">
        <ele>887.5</ele>
        <time>2015-12-06T09:40:04Z</time>
      </trkpt>
      <trkpt lat="44.14388" lon="3.24262">
        <ele>888</ele>
        <time>2015-12-06T09:40:05Z</time>
      </trkpt>
      <trkpt lat="44.1439" lon="3.2426">
        <ele>888.5</ele>
        <time>2015-12-06T09:40:06Z</time>
      </trkpt>
      <trkpt lat="44.14392" lon="3.24258">
        <ele>888.5</ele>
        <time>2015-12-06T09:40:07Z</time>
      </trkpt>
      <trkpt lat="44.14394" lon="3.24256">
        <ele>888.5</ele>
        <time>2015-12-06T09:40:08Z</time>
      </trkpt>
      <trkpt lat="44.14396" lon="3.24254">
        <ele>888.5</ele>
        <time>2015-12-06T09:40:09Z</time>
      </trkpt>
      <trkpt lat="44.14398" lon="3.24252">
        <ele>888.5</ele>
        <time>2015-12-06T09:40:10Z</time>
      </trkpt>
      <trkpt lat="44.14399" lon="3.2425">
        <ele>888.5</ele>
        <time>2015-12-06T09:40:11Z</time>
      </trkpt>
      <trkpt lat="44.14402" lon="3.24248">
        <ele>888.5</ele>
        <time>2015-12-06T09:40:12Z</time>
      </trkpt>
      <trkpt lat="44.14404" lon="3.24247">
        <ele>889</ele>
        <time>2015-12-06T09:40:13Z</time>
      </trkpt>
      <trkpt lat="44.14406" lon="3.24245">
        <ele>889</ele>
        <time>2015-12-06T09:40:14Z</time>
      </trkpt>
      <trkpt lat="44.14408" lon="3.24243">
        <ele>889.5</ele>
        <time>2015-12-06T09:40:15Z</time>
      </trkpt>
      <trkpt lat="44.1441" lon="3.24241">
        <ele>889.5</ele>
        <time>2015-12-06T09:40:16Z</time>
      </trkpt>
      <trkpt lat="44.14412" lon="3.24239">
        <ele>889.5</ele>
        <time>2015-12-06T09:40:17Z</time>
      </trkpt>
      <trkpt lat="44.14414" lon="3.24237">
        <ele>890</ele>
        <time>2015-12-06T09:40:18Z</time>
      </trkpt>
      <trkpt lat="44.14416" lon="3.24236">
        <ele>890</ele>
        <time>2015-12-06T09:40:19Z</time>
      </trkpt>
      <trkpt lat="44.14418" lon="3.24234">
        <ele>890.5</ele>
        <time>2015-12-06T09:40:20Z</time>
      </trkpt>
      <trkpt lat="44.1442" lon="3.24232">
        <ele>891</ele>
        <time>2015-12-06T09:40:21Z</time>
      </trkpt>
      <trkpt lat="44.14423" lon="3.24231">
        <ele>891.5</ele>
        <time>2015-12-06T09:40:22Z</time>
      </trkpt>
      <trkpt lat="44.14425" lon="3.2423">
        <ele>891.5</ele>
        <time>2015-12-06T09:40:23Z</time>
      </trkpt>
      <trkpt lat="44.14427" lon="3.24229">
        <ele>892</ele>
        <time>2015-12-06T09:40:24Z</time>
      </trkpt>
      <trkpt lat="44.14429" lon="3.24228">
        <ele>892</ele>
        <time>2015-12-06T09:40:25Z</time>
      </trkpt>
      <trkpt lat="44.14432" lon="3.24227">
        <ele>892.5</ele>
        <time>2015-12-06T09:40:26Z</time>
      </trkpt>
      <trkpt lat="44.14434" lon="3.24226">
        <ele>892.5</ele>
        <time>2015-12-06T09:40:27Z</time>
      </trkpt>
      <trkpt lat="44.14436" lon="3.24225">
        <ele>892.5</ele>
        <time>2015-12-06T09:40:29Z</time>
      </trkpt>
      <trkpt lat="44.14439" lon="3.24224">
        <ele>892.5</ele>
        <time>2015-12-06T09:40:30Z</time>
      </trkpt>
      <trkpt lat="44.14441" lon="3.24224">
        <ele>893</ele>
        <time>2015-12-06T09:40:31Z</time>
      </trkpt>
      <trkpt lat="44.14443" lon="3.24223">
        <ele>893</ele>
        <time>2015-12-06T09:40:31Z</time>
      </trkpt>
      <trkpt lat="44.14445" lon="3.24223">
        <ele>893</ele>
        <time>2015-12-06T09:40:32Z</time>
      </trkpt>
      <trkpt lat="44.14448" lon="3.24222">
        <ele>893.5</ele>
        <time>2015-12-06T09:40:33Z</time>
      </trkpt>
      <trkpt lat="44.1445" lon="3.24222">
        <ele>893.5</ele>
        <time>2015-12-06T09:40:34Z</time>
      </trkpt>
      <trkpt lat="44.14452" lon="3.24222">
        <ele>893.5</ele>
        <time>2015-12-06T09:40:35Z</time>
      </trkpt>
      <trkpt lat="44.14455" lon="3.24221">
        <ele>893.5</ele>
        <time>2015-12-06T09:40:36Z</time>
      </trkpt>
      <trkpt lat="44.14457" lon="3.24222">
        <ele>893.5</ele>
        <time>2015-12-06T09:40:37Z</time>
      </trkpt>
      <trkpt lat="44.1446" lon="3.24223">
        <ele>893</ele>
        <time>2015-12-06T09:40:38Z</time>
      </trkpt>
      <trkpt lat="44.14462" lon="3.24223">
        <ele>892.5</ele>
        <time>2015-12-06T09:40:39Z</time>
      </trkpt>
      <trkpt lat="44.14465" lon="3.24224">
        <ele>892.5</ele>
        <time>2015-12-06T09:40:40Z</time>
      </trkpt>
      <trkpt lat="44.14467" lon="3.24224">
        <ele>892.5</ele>
        <time>2015-12-06T09:40:41Z</time>
      </trkpt>
      <trkpt lat="44.14469" lon="3.24224">
        <ele>893</ele>
        <time>2015-12-06T09:40:42Z</time>
      </trkpt>
      <trkpt lat="44.14471" lon="3.24224">
        <ele>893</ele>
        <time>2015-12-06T09:40:44Z</time>
      </trkpt>
      <trkpt lat="44.14476" lon="3.24224">
        <ele>893.5</ele>
        <time>2015-12-06T09:40:45Z</time>
      </trkpt>
      <trkpt lat="44.14478" lon="3.24225">
        <ele>893</ele>
        <time>2015-12-06T09:40:46Z</time>
      </trkpt>
      <trkpt lat="44.1448" lon="3.24225">
        <ele>892.5</ele>
        <time>2015-12-06T09:40:47Z</time>
      </trkpt>
      <trkpt lat="44.14482" lon="3.24225">
        <ele>892.5</ele>
        <time>2015-12-06T09:40:48Z</time>
      </trkpt>
      <trkpt lat="44.14484" lon="3.24224">
        <ele>893</ele>
        <time>2015-12-06T09:40:49Z</time>
      </trkpt>
      <trkpt lat="44.14486" lon="3.24222">
        <ele>893.5</ele>
        <time>2015-12-06T09:40:50Z</time>
      </trkpt>
      <trkpt lat="44.14488" lon="3.2422">
        <ele>894</ele>
        <time>2015-12-06T09:40:51Z</time>
      </trkpt>
      <trkpt lat="44.14489" lon="3.24217">
        <ele>894</ele>
        <time>2015-12-06T09:40:52Z</time>
      </trkpt>
      <trkpt lat="44.1449" lon="3.24215">
        <ele>894.5</ele>
        <time>2015-12-06T09:40:53Z</time>
      </trkpt>
      <trkpt lat="44.14491" lon="3.24212">
        <ele>894</ele>
        <time>2015-12-06T09:40:54Z</time>
      </trkpt>
      <trkpt lat="44.14491" lon="3.24209">
        <ele>894.5</ele>
        <time>2015-12-06T09:40:55Z</time>
      </trkpt>
      <trkpt lat="44.14491" lon="3.24206">
        <ele>894.5</ele>
        <time>2015-12-06T09:40:56Z</time>
      </trkpt>
      <trkpt lat="44.14492" lon="3.24202">
        <ele>896</ele>
        <time>2015-12-06T09:40:57Z</time>
      </trkpt>
      <trkpt lat="44.14492" lon="3.242">
        <ele>896</ele>
        <time>2015-12-06T09:40:58Z</time>
      </trkpt>
      <trkpt lat="44.14492" lon="3.24198">
        <ele>896.5</ele>
        <time>2015-12-06T09:40:59Z</time>
      </trkpt>
      <trkpt lat="44.14492" lon="3.24195">
        <ele>897</ele>
        <time>2015-12-06T09:41:00Z</time>
      </trkpt>
      <trkpt lat="44.14492" lon="3.24191">
        <ele>897</ele>
        <time>2015-12-06T09:41:01Z</time>
      </trkpt>
      <trkpt lat="44.14493" lon="3.24188">
        <ele>898</ele>
        <time>2015-12-06T09:41:02Z</time>
      </trkpt>
      <trkpt lat="44.14492" lon="3.24184">
        <ele>897</ele>
        <time>2015-12-06T09:41:03Z</time>
      </trkpt>
      <trkpt lat="44.14492" lon="3.24181">
        <ele>896.5</ele>
        <time>2015-12-06T09:41:04Z</time>
      </trkpt>
      <trkpt lat="44.14492" lon="3.24178">
        <ele>896.5</ele>
        <time>2015-12-06T09:41:05Z</time>
      </trkpt>
      <trkpt lat="44.14493" lon="3.24174">
        <ele>896.5</ele>
        <time>2015-12-06T09:41:06Z</time>
      </trkpt>
      <trkpt lat="44.14493" lon="3.2417">
        <ele>897</ele>
        <time>2015-12-06T09:41:07Z</time>
      </trkpt>
      <trkpt lat="44.14493" lon="3.24167">
        <ele>897.5</ele>
        <time>2015-12-06T09:41:08Z</time>
      </trkpt>
      <trkpt lat="44.14493" lon="3.24163">
        <ele>897.5</ele>
        <time>2015-12-06T09:41:09Z</time>
      </trkpt>
      <trkpt lat="44.14493" lon="3.2416">
        <ele>898</ele>
        <time>2015-12-06T09:41:10Z</time>
      </trkpt>
      <trkpt lat="44.14493" lon="3.24157">
        <ele>898.5</ele>
        <time>2015-12-06T09:41:11Z</time>
      </trkpt>
      <trkpt lat="44.14493" lon="3.24154">
        <ele>899</ele>
        <time>2015-12-06T09:41:12Z</time>
      </trkpt>
      <trkpt lat="44.14493" lon="3.2415">
        <ele>899.5</ele>
        <time>2015-12-06T09:41:13Z</time>
      </trkpt>
      <trkpt lat="44.14493" lon="3.24147">
        <ele>900.5</ele>
        <time>2015-12-06T09:41:14Z</time>
      </trkpt>
      <trkpt lat="44.14493" lon="3.24145">
        <ele>901.5</ele>
        <time>2015-12-06T09:41:15Z</time>
      </trkpt>
      <trkpt lat="44.14493" lon="3.24141">
        <ele>902</ele>
        <time>2015-12-06T09:41:16Z</time>
      </trkpt>
      <trkpt lat="44.14493" lon="3.24137">
        <ele>901.5</ele>
        <time>2015-12-06T09:41:17Z</time>
      </trkpt>
      <trkpt lat="44.14494" lon="3.24133">
        <ele>901.5</ele>
        <time>2015-12-06T09:41:18Z</time>
      </trkpt>
      <trkpt lat="44.14494" lon="3.2413">
        <ele>902</ele>
        <time>2015-12-06T09:41:19Z</time>
      </trkpt>
      <trkpt lat="44.14494" lon="3.24126">
        <ele>902</ele>
        <time>2015-12-06T09:41:20Z</time>
      </trkpt>
      <trkpt lat="44.14495" lon="3.24122">
        <ele>902</ele>
        <time>2015-12-06T09:41:21Z</time>
      </trkpt>
      <trkpt lat="44.14496" lon="3.24118">
        <ele>901.5</ele>
        <time>2015-12-06T09:41:22Z</time>
      </trkpt>
      <trkpt lat="44.14496" lon="3.24114">
        <ele>901.5</ele>
        <time>2015-12-06T09:41:23Z</time>
      </trkpt>
      <trkpt lat="44.14497" lon="3.2411">
        <ele>901.5</ele>
        <time>2015-12-06T09:41:24Z</time>
      </trkpt>
      <trkpt lat="44.14497" lon="3.24105">
        <ele>901</ele>
        <time>2015-12-06T09:41:25Z</time>
      </trkpt>
      <trkpt lat="44.14498" lon="3.24101">
        <ele>901</ele>
        <time>2015-12-06T09:41:26Z</time>
      </trkpt>
      <trkpt lat="44.14499" lon="3.24096">
        <ele>900.5</ele>
        <time>2015-12-06T09:41:27Z</time>
      </trkpt>
      <trkpt lat="44.145" lon="3.24092">
        <ele>900.5</ele>
        <time>2015-12-06T09:41:28Z</time>
      </trkpt>
      <trkpt lat="44.14501" lon="3.24087">
        <ele>900.5</ele>
        <time>2015-12-06T09:41:29Z</time>
      </trkpt>
      <trkpt lat="44.14501" lon="3.24082">
        <ele>900</ele>
        <time>2015-12-06T09:41:30Z</time>
      </trkpt>
      <trkpt lat="44.14502" lon="3.24076">
        <ele>900</ele>
        <time>2015-12-06T09:41:31Z</time>
      </trkpt>
      <trkpt lat="44.14503" lon="3.24071">
        <ele>900</ele>
        <time>2015-12-06T09:41:32Z</time>
      </trkpt>
      <trkpt lat="44.14504" lon="3.24066">
        <ele>899.5</ele>
        <time>2015-12-06T09:41:33Z</time>
      </trkpt>
      <trkpt lat="44.14505" lon="3.24061">
        <ele>899.5</ele>
        <time>2015-12-06T09:41:34Z</time>
      </trkpt>
      <trkpt lat="44.14505" lon="3.24055">
        <ele>899.5</ele>
        <time>2015-12-06T09:41:35Z</time>
      </trkpt>
      <trkpt lat="44.14506" lon="3.2405">
        <ele>899</ele>
        <time>2015-12-06T09:41:36Z</time>
      </trkpt>
      <trkpt lat="44.14507" lon="3.24044">
        <ele>899</ele>
        <time>2015-12-06T09:41:37Z</time>
      </trkpt>
      <trkpt lat="44.14508" lon="3.24039">
        <ele>899</ele>
        <time>2015-12-06T09:41:38Z</time>
      </trkpt>
      <trkpt lat="44.14509" lon="3.24034">
        <ele>898.5</ele>
        <time>2015-12-06T09:41:39Z</time>
      </trkpt>
      <trkpt lat="44.14509" lon="3.24029">
        <ele>899</ele>
        <time>2015-12-06T09:41:40Z</time>
      </trkpt>
      <trkpt lat="44.1451" lon="3.24023">
        <ele>898.5</ele>
        <time>2015-12-06T09:41:41Z</time>
      </trkpt>
      <trkpt lat="44.1451" lon="3.24018">
        <ele>899</ele>
        <time>2015-12-06T09:41:42Z</time>
      </trkpt>
      <trkpt lat="44.14511" lon="3.24012">
        <ele>899</ele>
        <time>2015-12-06T09:41:43Z</time>
      </trkpt>
      <trkpt lat="44.14512" lon="3.24007">
        <ele>899</ele>
        <time>2015-12-06T09:41:44Z</time>
      </trkpt>
      <trkpt lat="44.14512" lon="3.24001">
        <ele>898.5</ele>
        <time>2015-12-06T09:41:45Z</time>
      </trkpt>
      <trkpt lat="44.14513" lon="3.23996">
        <ele>899</ele>
        <time>2015-12-06T09:41:46Z</time>
      </trkpt>
      <trkpt lat="44.14514" lon="3.23991">
        <ele>899</ele>
        <time>2015-12-06T09:41:47Z</time>
      </trkpt>
      <trkpt lat="44.14515" lon="3.23985">
        <ele>898.5</ele>
        <time>2015-12-06T09:41:48Z</time>
      </trkpt>
      <trkpt lat="44.14515" lon="3.2398">
        <ele>898.5</ele>
        <time>2015-12-06T09:41:49Z</time>
      </trkpt>
      <trkpt lat="44.14516" lon="3.23974">
        <ele>898.5</ele>
        <time>2015-12-06T09:41:50Z</time>
      </trkpt>
      <trkpt lat="44.14517" lon="3.23969">
        <ele>898.5</ele>
        <time>2015-12-06T09:41:51Z</time>
      </trkpt>
      <trkpt lat="44.14518" lon="3.23964">
        <ele>898.5</ele>
        <time>2015-12-06T09:41:52Z</time>
      </trkpt>
      <trkpt lat="44.14519" lon="3.23959">
        <ele>898.5</ele>
        <time>2015-12-06T09:41:53Z</time>
      </trkpt>
      <trkpt lat="44.14519" lon="3.23953">
        <ele>898.5</ele>
        <time>2015-12-06T09:41:54Z</time>
      </trkpt>
      <trkpt lat="44.1452" lon="3.23948">
        <ele>898.5</ele>
        <time>2015-12-06T09:41:55Z</time>
      </trkpt>
      <trkpt lat="44.1452" lon="3.23943">
        <ele>898.5</ele>
        <time>2015-12-06T09:41:56Z</time>
      </trkpt>
      <trkpt lat="44.14521" lon="3.23938">
        <ele>898</ele>
        <time>2015-12-06T09:41:57Z</time>
      </trkpt>
      <trkpt lat="44.14521" lon="3.23934">
        <ele>899</ele>
        <time>2015-12-06T09:41:58Z</time>
      </trkpt>
      <trkpt lat="44.14521" lon="3.2393">
        <ele>899.5</ele>
        <time>2015-12-06T09:41:59Z</time>
      </trkpt>
      <trkpt lat="44.14521" lon="3.23925">
        <ele>899.5</ele>
        <time>2015-12-06T09:42:00Z</time>
      </trkpt>
      <trkpt lat="44.14522" lon="3.2392">
        <ele>899.5</ele>
        <time>2015-12-06T09:42:01Z</time>
      </trkpt>
      <trkpt lat="44.14522" lon="3.23916">
        <ele>900</ele>
        <time>2015-12-06T09:42:02Z</time>
      </trkpt>
      <trkpt lat="44.14523" lon="3.23911">
        <ele>899.5</ele>
        <time>2015-12-06T09:42:03Z</time>
      </trkpt>
      <trkpt lat="44.14524" lon="3.23907">
        <ele>900</ele>
        <time>2015-12-06T09:42:04Z</time>
      </trkpt>
      <trkpt lat="44.14525" lon="3.23903">
        <ele>900</ele>
        <time>2015-12-06T09:42:05Z</time>
      </trkpt>
      <trkpt lat="44.14526" lon="3.23898">
        <ele>900</ele>
        <time>2015-12-06T09:42:06Z</time>
      </trkpt>
      <trkpt lat="44.14527" lon="3.23894">
        <ele>900</ele>
        <time>2015-12-06T09:42:07Z</time>
      </trkpt>
      <trkpt lat="44.14528" lon="3.2389">
        <ele>900</ele>
        <time>2015-12-06T09:42:08Z</time>
      </trkpt>
      <trkpt lat="44.1453" lon="3.23886">
        <ele>900</ele>
        <time>2015-12-06T09:42:09Z</time>
      </trkpt>
      <trkpt lat="44.14531" lon="3.23882">
        <ele>900.5</ele>
        <time>2015-12-06T09:42:10Z</time>
      </trkpt>
      <trkpt lat="44.14532" lon="3.23878">
        <ele>900.5</ele>
        <time>2015-12-06T09:42:11Z</time>
      </trkpt>
      <trkpt lat="44.14534" lon="3.23874">
        <ele>900.5</ele>
        <time>2015-12-06T09:42:12Z</time>
      </trkpt>
      <trkpt lat="44.14535" lon="3.2387">
        <ele>900.5</ele>
        <time>2015-12-06T09:42:13Z</time>
      </trkpt>
      <trkpt lat="44.14537" lon="3.23867">
        <ele>900.5</ele>
        <time>2015-12-06T09:42:14Z</time>
      </trkpt>
      <trkpt lat="44.14538" lon="3.23863">
        <ele>900.5</ele>
        <time>2015-12-06T09:42:15Z</time>
      </trkpt>
      <trkpt lat="44.1454" lon="3.23859">
        <ele>900.5</ele>
        <time>2015-12-06T09:42:16Z</time>
      </trkpt>
      <trkpt lat="44.14542" lon="3.23854">
        <ele>900</ele>
        <time>2015-12-06T09:42:17Z</time>
      </trkpt>
      <trkpt lat="44.14543" lon="3.23849">
        <ele>900</ele>
        <time>2015-12-06T09:42:18Z</time>
      </trkpt>
      <trkpt lat="44.14545" lon="3.23844">
        <ele>899.5</ele>
        <time>2015-12-06T09:42:19Z</time>
      </trkpt>
      <trkpt lat="44.14547" lon="3.23839">
        <ele>899.5</ele>
        <time>2015-12-06T09:42:20Z</time>
      </trkpt>
      <trkpt lat="44.14549" lon="3.23835">
        <ele>899.5</ele>
        <time>2015-12-06T09:42:21Z</time>
      </trkpt>
      <trkpt lat="44.14551" lon="3.2383">
        <ele>899.5</ele>
        <time>2015-12-06T09:42:22Z</time>
      </trkpt>
      <trkpt lat="44.14553" lon="3.23825">
        <ele>899</ele>
        <time>2015-12-06T09:42:23Z</time>
      </trkpt>
      <trkpt lat="44.14555" lon="3.23821">
        <ele>899</ele>
        <time>2015-12-06T09:42:24Z</time>
      </trkpt>
      <trkpt lat="44.14556" lon="3.23816">
        <ele>899.5</ele>
        <time>2015-12-06T09:42:25Z</time>
      </trkpt>
      <trkpt lat="44.14558" lon="3.23812">
        <ele>899.5</ele>
        <time>2015-12-06T09:42:26Z</time>
      </trkpt>
      <trkpt lat="44.14559" lon="3.23808">
        <ele>899.5</ele>
        <time>2015-12-06T09:42:27Z</time>
      </trkpt>
      <trkpt lat="44.1456" lon="3.23804">
        <ele>900</ele>
        <time>2015-12-06T09:42:28Z</time>
      </trkpt>
      <trkpt lat="44.14562" lon="3.238">
        <ele>899.5</ele>
        <time>2015-12-06T09:42:29Z</time>
      </trkpt>
      <trkpt lat="44.14563" lon="3.23796">
        <ele>900</ele>
        <time>2015-12-06T09:42:30Z</time>
      </trkpt>
      <trkpt lat="44.14564" lon="3.23792">
        <ele>900</ele>
        <time>2015-12-06T09:42:31Z</time>
      </trkpt>
      <trkpt lat="44.14566" lon="3.23788">
        <ele>900</ele>
        <time>2015-12-06T09:42:32Z</time>
      </trkpt>
      <trkpt lat="44.14567" lon="3.23784">
        <ele>900</ele>
        <time>2015-12-06T09:42:33Z</time>
      </trkpt>
      <trkpt lat="44.14569" lon="3.23781">
        <ele>900</ele>
        <time>2015-12-06T09:42:34Z</time>
      </trkpt>
      <trkpt lat="44.14571" lon="3.23777">
        <ele>900</ele>
        <time>2015-12-06T09:42:35Z</time>
      </trkpt>
      <trkpt lat="44.14572" lon="3.23773">
        <ele>899.5</ele>
        <time>2015-12-06T09:42:36Z</time>
      </trkpt>
      <trkpt lat="44.14574" lon="3.2377">
        <ele>899.5</ele>
        <time>2015-12-06T09:42:37Z</time>
      </trkpt>
      <trkpt lat="44.14576" lon="3.23766">
        <ele>899.5</ele>
        <time>2015-12-06T09:42:38Z</time>
      </trkpt>
      <trkpt lat="44.14578" lon="3.23763">
        <ele>899.5</ele>
        <time>2015-12-06T09:42:39Z</time>
      </trkpt>
      <trkpt lat="44.1458" lon="3.23759">
        <ele>899</ele>
        <time>2015-12-06T09:42:40Z</time>
      </trkpt>
      <trkpt lat="44.14582" lon="3.23755">
        <ele>898.5</ele>
        <time>2015-12-06T09:42:41Z</time>
      </trkpt>
      <trkpt lat="44.14584" lon="3.23751">
        <ele>898</ele>
        <time>2015-12-06T09:42:42Z</time>
      </trkpt>
      <trkpt lat="44.14586" lon="3.23747">
        <ele>898</ele>
        <time>2015-12-06T09:42:43Z</time>
      </trkpt>
      <trkpt lat="44.14587" lon="3.23743">
        <ele>897.5</ele>
        <time>2015-12-06T09:42:44Z</time>
      </trkpt>
      <trkpt lat="44.1459" lon="3.23738">
        <ele>897.5</ele>
        <time>2015-12-06T09:42:45Z</time>
      </trkpt>
      <trkpt lat="44.14592" lon="3.23733">
        <ele>897</ele>
        <time>2015-12-06T09:42:46Z</time>
      </trkpt>
      <trkpt lat="44.14595" lon="3.23727">
        <ele>896.5</ele>
        <time>2015-12-06T09:42:47Z</time>
      </trkpt>
      <trkpt lat="44.14597" lon="3.23721">
        <ele>896</ele>
        <time>2015-12-06T09:42:48Z</time>
      </trkpt>
      <trkpt lat="44.146" lon="3.23714">
        <ele>896</ele>
        <time>2015-12-06T09:42:49Z</time>
      </trkpt>
      <trkpt lat="44.14603" lon="3.23708">
        <ele>896</ele>
        <time>2015-12-06T09:42:50Z</time>
      </trkpt>
      <trkpt lat="44.14607" lon="3.23702">
        <ele>896.5</ele>
        <time>2015-12-06T09:42:51Z</time>
      </trkpt>
      <trkpt lat="44.14611" lon="3.23697">
        <ele>895.5</ele>
        <time>2015-12-06T09:42:52Z</time>
      </trkpt>
      <trkpt lat="44.14616" lon="3.23692">
        <ele>895.5</ele>
        <time>2015-12-06T09:42:53Z</time>
      </trkpt>
      <trkpt lat="44.1462" lon="3.23688">
        <ele>895</ele>
        <time>2015-12-06T09:42:54Z</time>
      </trkpt>
      <trkpt lat="44.14624" lon="3.23684">
        <ele>895</ele>
        <time>2015-12-06T09:42:55Z</time>
      </trkpt>
      <trkpt lat="44.14629" lon="3.2368">
        <ele>895</ele>
        <time>2015-12-06T09:42:56Z</time>
      </trkpt>
      <trkpt lat="44.14633" lon="3.23676">
        <ele>895</ele>
        <time>2015-12-06T09:42:57Z</time>
      </trkpt>
      <trkpt lat="44.14637" lon="3.23671">
        <ele>895</ele>
        <time>2015-12-06T09:42:58Z</time>
      </trkpt>
      <trkpt lat="44.1464" lon="3.23665">
        <ele>894.5</ele>
        <time>2015-12-06T09:42:59Z</time>
      </trkpt>
      <trkpt lat="44.14641" lon="3.23659">
        <ele>893</ele>
        <time>2015-12-06T09:43:00Z</time>
      </trkpt>
      <trkpt lat="44.14639" lon="3.23651">
        <ele>891.5</ele>
        <time>2015-12-06T09:43:01Z</time>
      </trkpt>
      <trkpt lat="44.14636" lon="3.23644">
        <ele>890.5</ele>
        <time>2015-12-06T09:43:02Z</time>
      </trkpt>
      <trkpt lat="44.14631" lon="3.2364">
        <ele>890.5</ele>
        <time>2015-12-06T09:43:03Z</time>
      </trkpt>
      <trkpt lat="44.14627" lon="3.23633">
        <ele>890</ele>
        <time>2015-12-06T09:43:04Z</time>
      </trkpt>
      <trkpt lat="44.14624" lon="3.23626">
        <ele>890</ele>
        <time>2015-12-06T09:43:05Z</time>
      </trkpt>
      <trkpt lat="44.14621" lon="3.23617">
        <ele>889.5</ele>
        <time>2015-12-06T09:43:06Z</time>
      </trkpt>
      <trkpt lat="44.14619" lon="3.2361">
        <ele>889.5</ele>
        <time>2015-12-06T09:43:07Z</time>
      </trkpt>
      <trkpt lat="44.14616" lon="3.23603">
        <ele>889</ele>
        <time>2015-12-06T09:43:08Z</time>
      </trkpt>
      <trkpt lat="44.14612" lon="3.23597">
        <ele>889</ele>
        <time>2015-12-06T09:43:09Z</time>
      </trkpt>
      <trkpt lat="44.14607" lon="3.23592">
        <ele>888.5</ele>
        <time>2015-12-06T09:43:10Z</time>
      </trkpt>
      <trkpt lat="44.14603" lon="3.23589">
        <ele>888</ele>
        <time>2015-12-06T09:43:11Z</time>
      </trkpt>
      <trkpt lat="44.14598" lon="3.23586">
        <ele>887.5</ele>
        <time>2015-12-06T09:43:12Z</time>
      </trkpt>
      <trkpt lat="44.14592" lon="3.23582">
        <ele>886.5</ele>
        <time>2015-12-06T09:43:12Z</time>
      </trkpt>
      <trkpt lat="44.14587" lon="3.2358">
        <ele>886.5</ele>
        <time>2015-12-06T09:43:13Z</time>
      </trkpt>
      <trkpt lat="44.1458" lon="3.23578">
        <ele>885.5</ele>
        <time>2015-12-06T09:43:14Z</time>
      </trkpt>
      <trkpt lat="44.14574" lon="3.23575">
        <ele>884.5</ele>
        <time>2015-12-06T09:43:15Z</time>
      </trkpt>
      <trkpt lat="44.14567" lon="3.23574">
        <ele>883.5</ele>
        <time>2015-12-06T09:43:16Z</time>
      </trkpt>
      <trkpt lat="44.14558" lon="3.23575">
        <ele>883</ele>
        <time>2015-12-06T09:43:17Z</time>
      </trkpt>
      <trkpt lat="44.14549" lon="3.23574">
        <ele>882</ele>
        <time>2015-12-06T09:43:19Z</time>
      </trkpt>
      <trkpt lat="44.14539" lon="3.23573">
        <ele>880.5</ele>
        <time>2015-12-06T09:43:19Z</time>
      </trkpt>
      <trkpt lat="44.14529" lon="3.2357">
        <ele>879.5</ele>
        <time>2015-12-06T09:43:20Z</time>
      </trkpt>
      <trkpt lat="44.14518" lon="3.23567">
        <ele>879</ele>
        <time>2015-12-06T09:43:21Z</time>
      </trkpt>
      <trkpt lat="44.14508" lon="3.23564">
        <ele>878.5</ele>
        <time>2015-12-06T09:43:22Z</time>
      </trkpt>
      <trkpt lat="44.14497" lon="3.23559">
        <ele>878.5</ele>
        <time>2015-12-06T09:43:23Z</time>
      </trkpt>
      <trkpt lat="44.14487" lon="3.23555">
        <ele>878</ele>
        <time>2015-12-06T09:43:24Z</time>
      </trkpt>
      <trkpt lat="44.14477" lon="3.23552">
        <ele>878</ele>
        <time>2015-12-06T09:43:25Z</time>
      </trkpt>
      <trkpt lat="44.14467" lon="3.23551">
        <ele>876</ele>
        <time>2015-12-06T09:43:26Z</time>
      </trkpt>
      <trkpt lat="44.14456" lon="3.23551">
        <ele>876.5</ele>
        <time>2015-12-06T09:43:27Z</time>
      </trkpt>
      <trkpt lat="44.14446" lon="3.23551">
        <ele>876.5</ele>
        <time>2015-12-06T09:43:28Z</time>
      </trkpt>
      <trkpt lat="44.14436" lon="3.2355">
        <ele>876.5</ele>
        <time>2015-12-06T09:43:29Z</time>
      </trkpt>
      <trkpt lat="44.14426" lon="3.23548">
        <ele>876.5</ele>
        <time>2015-12-06T09:43:30Z</time>
      </trkpt>
      <trkpt lat="44.14416" lon="3.23546">
        <ele>876</ele>
        <time>2015-12-06T09:43:31Z</time>
      </trkpt>
      <trkpt lat="44.14405" lon="3.23543">
        <ele>875.5</ele>
        <time>2015-12-06T09:43:32Z</time>
      </trkpt>
      <trkpt lat="44.14395" lon="3.23541">
        <ele>875.5</ele>
        <time>2015-12-06T09:43:33Z</time>
      </trkpt>
      <trkpt lat="44.14384" lon="3.23539">
        <ele>875.5</ele>
        <time>2015-12-06T09:43:34Z</time>
      </trkpt>
      <trkpt lat="44.14373" lon="3.23538">
        <ele>875</ele>
        <time>2015-12-06T09:43:35Z</time>
      </trkpt>
      <trkpt lat="44.14363" lon="3.23538">
        <ele>875</ele>
        <time>2015-12-06T09:43:36Z</time>
      </trkpt>
      <trkpt lat="44.14353" lon="3.23537">
        <ele>875.5</ele>
        <time>2015-12-06T09:43:37Z</time>
      </trkpt>
      <trkpt lat="44.14343" lon="3.23537">
        <ele>876</ele>
        <time>2015-12-06T09:43:38Z</time>
      </trkpt>
      <trkpt lat="44.14334" lon="3.23536">
        <ele>877</ele>
        <time>2015-12-06T09:43:39Z</time>
      </trkpt>
      <trkpt lat="44.14326" lon="3.23534">
        <ele>877</ele>
        <time>2015-12-06T09:43:40Z</time>
      </trkpt>
      <trkpt lat="44.14319" lon="3.23532">
        <ele>878</ele>
        <time>2015-12-06T09:43:41Z</time>
      </trkpt>
      <trkpt lat="44.14312" lon="3.23529">
        <ele>878.5</ele>
        <time>2015-12-06T09:43:42Z</time>
      </trkpt>
      <trkpt lat="44.14305" lon="3.23526">
        <ele>879</ele>
        <time>2015-12-06T09:43:43Z</time>
      </trkpt>
      <trkpt lat="44.14299" lon="3.23523">
        <ele>879.5</ele>
        <time>2015-12-06T09:43:44Z</time>
      </trkpt>
      <trkpt lat="44.14294" lon="3.23519">
        <ele>880.5</ele>
        <time>2015-12-06T09:43:45Z</time>
      </trkpt>
      <trkpt lat="44.14288" lon="3.23516">
        <ele>880.5</ele>
        <time>2015-12-06T09:43:46Z</time>
      </trkpt>
      <trkpt lat="44.14283" lon="3.23513">
        <ele>881.5</ele>
        <time>2015-12-06T09:43:47Z</time>
      </trkpt>
      <trkpt lat="44.14278" lon="3.23511">
        <ele>881.5</ele>
        <time>2015-12-06T09:43:48Z</time>
      </trkpt>
      <trkpt lat="44.14273" lon="3.23509">
        <ele>882</ele>
        <time>2015-12-06T09:43:49Z</time>
      </trkpt>
      <trkpt lat="44.14269" lon="3.23507">
        <ele>882.5</ele>
        <time>2015-12-06T09:43:50Z</time>
      </trkpt>
      <trkpt lat="44.14266" lon="3.23506">
        <ele>883</ele>
        <time>2015-12-06T09:43:51Z</time>
      </trkpt>
      <trkpt lat="44.14264" lon="3.23505">
        <ele>883</ele>
        <time>2015-12-06T09:43:52Z</time>
      </trkpt>
      <trkpt lat="44.14261" lon="3.23505">
        <ele>883</ele>
        <time>2015-12-06T09:43:54Z</time>
      </trkpt>
      <trkpt lat="44.14259" lon="3.23504">
        <ele>883</ele>
        <time>2015-12-06T09:43:54Z</time>
      </trkpt>
      <trkpt lat="44.14256" lon="3.23503">
        <ele>883.5</ele>
        <time>2015-12-06T09:43:55Z</time>
      </trkpt>
      <trkpt lat="44.14253" lon="3.23503">
        <ele>884</ele>
        <time>2015-12-06T09:43:56Z</time>
      </trkpt>
      <trkpt lat="44.14251" lon="3.23503">
        <ele>884</ele>
        <time>2015-12-06T09:43:57Z</time>
      </trkpt>
      <trkpt lat="44.14249" lon="3.23503">
        <ele>884</ele>
        <time>2015-12-06T09:43:58Z</time>
      </trkpt>
      <trkpt lat="44.14247" lon="3.23503">
        <ele>884</ele>
        <time>2015-12-06T09:43:59Z</time>
      </trkpt>
      <trkpt lat="44.14244" lon="3.23503">
        <ele>884.5</ele>
        <time>2015-12-06T09:44:00Z</time>
      </trkpt>
      <trkpt lat="44.14242" lon="3.23502">
        <ele>884.5</ele>
        <time>2015-12-06T09:44:01Z</time>
      </trkpt>
      <trkpt lat="44.1424" lon="3.23502">
        <ele>885</ele>
        <time>2015-12-06T09:44:02Z</time>
      </trkpt>
      <trkpt lat="44.14238" lon="3.23502">
        <ele>885.5</ele>
        <time>2015-12-06T09:44:03Z</time>
      </trkpt>
      <trkpt lat="44.14235" lon="3.23502">
        <ele>885.5</ele>
        <time>2015-12-06T09:44:04Z</time>
      </trkpt>
      <trkpt lat="44.14233" lon="3.23502">
        <ele>886</ele>
        <time>2015-12-06T09:44:05Z</time>
      </trkpt>
      <trkpt lat="44.1423" lon="3.23502">
        <ele>885.5</ele>
        <time>2015-12-06T09:44:06Z</time>
      </trkpt>
      <trkpt lat="44.14228" lon="3.23502">
        <ele>885.5</ele>
        <time>2015-12-06T09:44:07Z</time>
      </trkpt>
      <trkpt lat="44.14226" lon="3.23502">
        <ele>886</ele>
        <time>2015-12-06T09:44:08Z</time>
      </trkpt>
      <trkpt lat="44.14224" lon="3.23502">
        <ele>886.5</ele>
        <time>2015-12-06T09:44:09Z</time>
      </trkpt>
      <trkpt lat="44.14222" lon="3.23503">
        <ele>887</ele>
        <time>2015-12-06T09:44:10Z</time>
      </trkpt>
      <trkpt lat="44.14219" lon="3.23503">
        <ele>887</ele>
        <time>2015-12-06T09:44:11Z</time>
      </trkpt>
      <trkpt lat="44.14217" lon="3.23504">
        <ele>887</ele>
        <time>2015-12-06T09:44:12Z</time>
      </trkpt>
      <trkpt lat="44.14215" lon="3.23505">
        <ele>887.5</ele>
        <time>2015-12-06T09:44:13Z</time>
      </trkpt>
      <trkpt lat="44.14213" lon="3.23505">
        <ele>888</ele>
        <time>2015-12-06T09:44:14Z</time>
      </trkpt>
      <trkpt lat="44.14211" lon="3.23506">
        <ele>888.5</ele>
        <time>2015-12-06T09:44:15Z</time>
      </trkpt>
      <trkpt lat="44.14209" lon="3.23507">
        <ele>888.5</ele>
        <time>2015-12-06T09:44:16Z</time>
      </trkpt>
      <trkpt lat="44.14207" lon="3.23508">
        <ele>888.5</ele>
        <time>2015-12-06T09:44:17Z</time>
      </trkpt>
      <trkpt lat="44.14206" lon="3.23508">
        <ele>888</ele>
        <time>2015-12-06T09:44:18Z</time>
      </trkpt>
      <trkpt lat="44.14204" lon="3.23509">
        <ele>888</ele>
        <time>2015-12-06T09:44:19Z</time>
      </trkpt>
      <trkpt lat="44.14203" lon="3.2351">
        <ele>888.5</ele>
        <time>2015-12-06T09:44:20Z</time>
      </trkpt>
      <trkpt lat="44.14201" lon="3.23511">
        <ele>888.5</ele>
        <time>2015-12-06T09:44:21Z</time>
      </trkpt>
      <trkpt lat="44.142" lon="3.23512">
        <ele>888</ele>
        <time>2015-12-06T09:44:22Z</time>
      </trkpt>
      <trkpt lat="44.14198" lon="3.23512">
        <ele>888</ele>
        <time>2015-12-06T09:44:23Z</time>
      </trkpt>
      <trkpt lat="44.14196" lon="3.23514">
        <ele>888</ele>
        <time>2015-12-06T09:44:24Z</time>
      </trkpt>
      <trkpt lat="44.14195" lon="3.23515">
        <ele>888</ele>
        <time>2015-12-06T09:44:25Z</time>
      </trkpt>
      <trkpt lat="44.14194" lon="3.23517">
        <ele>888.5</ele>
        <time>2015-12-06T09:44:26Z</time>
      </trkpt>
      <trkpt lat="44.14193" lon="3.23517">
        <ele>889</ele>
        <time>2015-12-06T09:44:27Z</time>
      </trkpt>
      <trkpt lat="44.14192" lon="3.23518">
        <ele>889</ele>
        <time>2015-12-06T09:44:28Z</time>
      </trkpt>
      <trkpt lat="44.14191" lon="3.23518">
        <ele>888.5</ele>
        <time>2015-12-06T09:44:29Z</time>
      </trkpt>
      <trkpt lat="44.1419" lon="3.23518">
        <ele>888.5</ele>
        <time>2015-12-06T09:44:30Z</time>
      </trkpt>
      <trkpt lat="44.14189" lon="3.23517">
        <ele>888.5</ele>
        <time>2015-12-06T09:44:31Z</time>
      </trkpt>
      <trkpt lat="44.14187" lon="3.23516">
        <ele>888.5</ele>
        <time>2015-12-06T09:44:32Z</time>
      </trkpt>
      <trkpt lat="44.14184" lon="3.23516">
        <ele>889.5</ele>
        <time>2015-12-06T09:44:33Z</time>
      </trkpt>
      <trkpt lat="44.14182" lon="3.23516">
        <ele>888.5</ele>
        <time>2015-12-06T09:44:34Z</time>
      </trkpt>
      <trkpt lat="44.1418" lon="3.23516">
        <ele>888</ele>
        <time>2015-12-06T09:44:35Z</time>
      </trkpt>
      <trkpt lat="44.14178" lon="3.23516">
        <ele>888</ele>
        <time>2015-12-06T09:44:36Z</time>
      </trkpt>
      <trkpt lat="44.14175" lon="3.23516">
        <ele>888.5</ele>
        <time>2015-12-06T09:44:37Z</time>
      </trkpt>
      <trkpt lat="44.14173" lon="3.23516">
        <ele>888.5</ele>
        <time>2015-12-06T09:44:38Z</time>
      </trkpt>
      <trkpt lat="44.14171" lon="3.23515">
        <ele>888.5</ele>
        <time>2015-12-06T09:44:39Z</time>
      </trkpt>
      <trkpt lat="44.14168" lon="3.23515">
        <ele>889.5</ele>
        <time>2015-12-06T09:44:40Z</time>
      </trkpt>
      <trkpt lat="44.14166" lon="3.23514">
        <ele>890</ele>
        <time>2015-12-06T09:44:41Z</time>
      </trkpt>
      <trkpt lat="44.14164" lon="3.23513">
        <ele>890</ele>
        <time>2015-12-06T09:44:42Z</time>
      </trkpt>
      <trkpt lat="44.14162" lon="3.23512">
        <ele>890.5</ele>
        <time>2015-12-06T09:44:43Z</time>
      </trkpt>
      <trkpt lat="44.1416" lon="3.23511">
        <ele>891</ele>
        <time>2015-12-06T09:44:44Z</time>
      </trkpt>
      <trkpt lat="44.14158" lon="3.23509">
        <ele>891.5</ele>
        <time>2015-12-06T09:44:45Z</time>
      </trkpt>
      <trkpt lat="44.14156" lon="3.23508">
        <ele>891.5</ele>
        <time>2015-12-06T09:44:46Z</time>
      </trkpt>
      <trkpt lat="44.14153" lon="3.23507">
        <ele>891.5</ele>
        <time>2015-12-06T09:44:47Z</time>
      </trkpt>
      <trkpt lat="44.14151" lon="3.23506">
        <ele>892</ele>
        <time>2015-12-06T09:44:48Z</time>
      </trkpt>
      <trkpt lat="44.14149" lon="3.23505">
        <ele>892</ele>
        <time>2015-12-06T09:44:49Z</time>
      </trkpt>
      <trkpt lat="44.14147" lon="3.23504">
        <ele>892.5</ele>
        <time>2015-12-06T09:44:50Z</time>
      </trkpt>
      <trkpt lat="44.14145" lon="3.23502">
        <ele>892</ele>
        <time>2015-12-06T09:44:51Z</time>
      </trkpt>
      <trkpt lat="44.14143" lon="3.235">
        <ele>891.5</ele>
        <time>2015-12-06T09:44:52Z</time>
      </trkpt>
      <trkpt lat="44.14141" lon="3.23499">
        <ele>891.5</ele>
        <time>2015-12-06T09:44:53Z</time>
      </trkpt>
      <trkpt lat="44.14138" lon="3.23497">
        <ele>891</ele>
        <time>2015-12-06T09:44:54Z</time>
      </trkpt>
      <trkpt lat="44.14136" lon="3.23496">
        <ele>891</ele>
        <time>2015-12-06T09:44:55Z</time>
      </trkpt>
      <trkpt lat="44.14134" lon="3.23494">
        <ele>891</ele>
        <time>2015-12-06T09:44:56Z</time>
      </trkpt>
      <trkpt lat="44.14131" lon="3.23493">
        <ele>891.5</ele>
        <time>2015-12-06T09:44:57Z</time>
      </trkpt>
      <trkpt lat="44.14129" lon="3.23492">
        <ele>891.5</ele>
        <time>2015-12-06T09:44:58Z</time>
      </trkpt>
      <trkpt lat="44.14127" lon="3.23491">
        <ele>891</ele>
        <time>2015-12-06T09:44:59Z</time>
      </trkpt>
      <trkpt lat="44.14125" lon="3.23489">
        <ele>891</ele>
        <time>2015-12-06T09:45:00Z</time>
      </trkpt>
      <trkpt lat="44.14123" lon="3.23487">
        <ele>891</ele>
        <time>2015-12-06T09:45:01Z</time>
      </trkpt>
      <trkpt lat="44.14121" lon="3.23486">
        <ele>891</ele>
        <time>2015-12-06T09:45:02Z</time>
      </trkpt>
      <trkpt lat="44.14119" lon="3.23484">
        <ele>890.5</ele>
        <time>2015-12-06T09:45:03Z</time>
      </trkpt>
      <trkpt lat="44.14116" lon="3.23483">
        <ele>890.5</ele>
        <time>2015-12-06T09:45:04Z</time>
      </trkpt>
      <trkpt lat="44.14114" lon="3.23481">
        <ele>890.5</ele>
        <time>2015-12-06T09:45:05Z</time>
      </trkpt>
      <trkpt lat="44.14112" lon="3.2348">
        <ele>891</ele>
        <time>2015-12-06T09:45:06Z</time>
      </trkpt>
      <trkpt lat="44.1411" lon="3.23479">
        <ele>891</ele>
        <time>2015-12-06T09:45:07Z</time>
      </trkpt>
      <trkpt lat="44.14108" lon="3.23479">
        <ele>891.5</ele>
        <time>2015-12-06T09:45:08Z</time>
      </trkpt>
      <trkpt lat="44.14105" lon="3.23478">
        <ele>891.5</ele>
        <time>2015-12-06T09:45:09Z</time>
      </trkpt>
      <trkpt lat="44.14101" lon="3.23477">
        <ele>892</ele>
        <time>2015-12-06T09:45:11Z</time>
      </trkpt>
      <trkpt lat="44.14098" lon="3.23476">
        <ele>891.5</ele>
        <time>2015-12-06T09:45:12Z</time>
      </trkpt>
      <trkpt lat="44.14096" lon="3.23476">
        <ele>891.5</ele>
        <time>2015-12-06T09:45:13Z</time>
      </trkpt>
      <trkpt lat="44.14093" lon="3.23476">
        <ele>891.5</ele>
        <time>2015-12-06T09:45:14Z</time>
      </trkpt>
      <trkpt lat="44.1409" lon="3.23476">
        <ele>891.5</ele>
        <time>2015-12-06T09:45:15Z</time>
      </trkpt>
      <trkpt lat="44.14088" lon="3.23477">
        <ele>891.5</ele>
        <time>2015-12-06T09:45:16Z</time>
      </trkpt>
      <trkpt lat="44.14086" lon="3.23476">
        <ele>892</ele>
        <time>2015-12-06T09:45:17Z</time>
      </trkpt>
      <trkpt lat="44.14083" lon="3.23476">
        <ele>892.5</ele>
        <time>2015-12-06T09:45:18Z</time>
      </trkpt>
      <trkpt lat="44.14081" lon="3.23476">
        <ele>892.5</ele>
        <time>2015-12-06T09:45:19Z</time>
      </trkpt>
      <trkpt lat="44.14078" lon="3.23476">
        <ele>893</ele>
        <time>2015-12-06T09:45:20Z</time>
      </trkpt>
      <trkpt lat="44.14075" lon="3.23476">
        <ele>893</ele>
        <time>2015-12-06T09:45:21Z</time>
      </trkpt>
      <trkpt lat="44.14073" lon="3.23475">
        <ele>892.5</ele>
        <time>2015-12-06T09:45:22Z</time>
      </trkpt>
      <trkpt lat="44.1407" lon="3.23475">
        <ele>892.5</ele>
        <time>2015-12-06T09:45:23Z</time>
      </trkpt>
      <trkpt lat="44.14067" lon="3.23474">
        <ele>892.5</ele>
        <time>2015-12-06T09:45:24Z</time>
      </trkpt>
      <trkpt lat="44.14064" lon="3.23473">
        <ele>893</ele>
        <time>2015-12-06T09:45:25Z</time>
      </trkpt>
      <trkpt lat="44.14061" lon="3.23472">
        <ele>893</ele>
        <time>2015-12-06T09:45:26Z</time>
      </trkpt>
      <trkpt lat="44.14059" lon="3.23472">
        <ele>893.5</ele>
        <time>2015-12-06T09:45:27Z</time>
      </trkpt>
      <trkpt lat="44.14056" lon="3.2347">
        <ele>894</ele>
        <time>2015-12-06T09:45:28Z</time>
      </trkpt>
      <trkpt lat="44.14054" lon="3.23469">
        <ele>894</ele>
        <time>2015-12-06T09:45:29Z</time>
      </trkpt>
      <trkpt lat="44.14051" lon="3.23468">
        <ele>894.5</ele>
        <time>2015-12-06T09:45:30Z</time>
      </trkpt>
      <trkpt lat="44.14049" lon="3.23467">
        <ele>894</ele>
        <time>2015-12-06T09:45:31Z</time>
      </trkpt>
      <trkpt lat="44.14046" lon="3.23466">
        <ele>894</ele>
        <time>2015-12-06T09:45:32Z</time>
      </trkpt>
      <trkpt lat="44.14044" lon="3.23465">
        <ele>894</ele>
        <time>2015-12-06T09:45:33Z</time>
      </trkpt>
      <trkpt lat="44.14042" lon="3.23465">
        <ele>894.5</ele>
        <time>2015-12-06T09:45:34Z</time>
      </trkpt>
      <trkpt lat="44.1404" lon="3.23465">
        <ele>895</ele>
        <time>2015-12-06T09:45:35Z</time>
      </trkpt>
      <trkpt lat="44.14037" lon="3.23465">
        <ele>895</ele>
        <time>2015-12-06T09:45:36Z</time>
      </trkpt>
      <trkpt lat="44.14035" lon="3.23464">
        <ele>895</ele>
        <time>2015-12-06T09:45:37Z</time>
      </trkpt>
      <trkpt lat="44.14032" lon="3.23464">
        <ele>895.5</ele>
        <time>2015-12-06T09:45:38Z</time>
      </trkpt>
      <trkpt lat="44.1403" lon="3.23463">
        <ele>895</ele>
        <time>2015-12-06T09:45:39Z</time>
      </trkpt>
      <trkpt lat="44.14027" lon="3.23464">
        <ele>895.5</ele>
        <time>2015-12-06T09:45:40Z</time>
      </trkpt>
      <trkpt lat="44.14024" lon="3.23464">
        <ele>896</ele>
        <time>2015-12-06T09:45:41Z</time>
      </trkpt>
      <trkpt lat="44.14022" lon="3.23465">
        <ele>896.5</ele>
        <time>2015-12-06T09:45:42Z</time>
      </trkpt>
      <trkpt lat="44.14019" lon="3.23465">
        <ele>897.5</ele>
        <time>2015-12-06T09:45:43Z</time>
      </trkpt>
      <trkpt lat="44.14017" lon="3.23464">
        <ele>897.5</ele>
        <time>2015-12-06T09:45:44Z</time>
      </trkpt>
      <trkpt lat="44.14015" lon="3.23465">
        <ele>898</ele>
        <time>2015-12-06T09:45:45Z</time>
      </trkpt>
      <trkpt lat="44.14012" lon="3.23465">
        <ele>898.5</ele>
        <time>2015-12-06T09:45:46Z</time>
      </trkpt>
      <trkpt lat="44.1401" lon="3.23464">
        <ele>898.5</ele>
        <time>2015-12-06T09:45:47Z</time>
      </trkpt>
      <trkpt lat="44.14008" lon="3.23464">
        <ele>898.5</ele>
        <time>2015-12-06T09:45:48Z</time>
      </trkpt>
      <trkpt lat="44.14005" lon="3.23464">
        <ele>898.5</ele>
        <time>2015-12-06T09:45:49Z</time>
      </trkpt>
      <trkpt lat="44.14002" lon="3.23463">
        <ele>898.5</ele>
        <time>2015-12-06T09:45:50Z</time>
      </trkpt>
      <trkpt lat="44.13998" lon="3.23462">
        <ele>898</ele>
        <time>2015-12-06T09:45:51Z</time>
      </trkpt>
      <trkpt lat="44.13994" lon="3.23461">
        <ele>898</ele>
        <time>2015-12-06T09:45:52Z</time>
      </trkpt>
      <trkpt lat="44.13991" lon="3.23459">
        <ele>897.5</ele>
        <time>2015-12-06T09:45:53Z</time>
      </trkpt>
      <trkpt lat="44.13988" lon="3.23458">
        <ele>897.5</ele>
        <time>2015-12-06T09:45:54Z</time>
      </trkpt>
      <trkpt lat="44.13985" lon="3.23458">
        <ele>897.5</ele>
        <time>2015-12-06T09:45:55Z</time>
      </trkpt>
      <trkpt lat="44.13982" lon="3.23458">
        <ele>897.5</ele>
        <time>2015-12-06T09:45:56Z</time>
      </trkpt>
      <trkpt lat="44.13979" lon="3.23457">
        <ele>897.5</ele>
        <time>2015-12-06T09:45:57Z</time>
      </trkpt>
      <trkpt lat="44.13977" lon="3.23456">
        <ele>897</ele>
        <time>2015-12-06T09:45:58Z</time>
      </trkpt>
      <trkpt lat="44.13975" lon="3.23455">
        <ele>896.5</ele>
        <time>2015-12-06T09:45:59Z</time>
      </trkpt>
      <trkpt lat="44.13973" lon="3.23455">
        <ele>896</ele>
        <time>2015-12-06T09:46:00Z</time>
      </trkpt>
      <trkpt lat="44.13971" lon="3.23454">
        <ele>896</ele>
        <time>2015-12-06T09:46:01Z</time>
      </trkpt>
      <trkpt lat="44.13969" lon="3.23453">
        <ele>895.5</ele>
        <time>2015-12-06T09:46:02Z</time>
      </trkpt>
      <trkpt lat="44.13967" lon="3.23452">
        <ele>895.5</ele>
        <time>2015-12-06T09:46:03Z</time>
      </trkpt>
      <trkpt lat="44.13965" lon="3.23452">
        <ele>895.5</ele>
        <time>2015-12-06T09:46:04Z</time>
      </trkpt>
      <trkpt lat="44.13963" lon="3.23453">
        <ele>895.5</ele>
        <time>2015-12-06T09:46:05Z</time>
      </trkpt>
      <trkpt lat="44.13961" lon="3.23453">
        <ele>895</ele>
        <time>2015-12-06T09:46:06Z</time>
      </trkpt>
      <trkpt lat="44.13958" lon="3.23452">
        <ele>895</ele>
        <time>2015-12-06T09:46:07Z</time>
      </trkpt>
      <trkpt lat="44.13955" lon="3.23451">
        <ele>895</ele>
        <time>2015-12-06T09:46:08Z</time>
      </trkpt>
      <trkpt lat="44.13953" lon="3.23451">
        <ele>895</ele>
        <time>2015-12-06T09:46:09Z</time>
      </trkpt>
      <trkpt lat="44.13951" lon="3.2345">
        <ele>895</ele>
        <time>2015-12-06T09:46:10Z</time>
      </trkpt>
      <trkpt lat="44.1395" lon="3.23448">
        <ele>894.5</ele>
        <time>2015-12-06T09:46:11Z</time>
      </trkpt>
      <trkpt lat="44.1395" lon="3.23447">
        <ele>895</ele>
        <time>2015-12-06T09:46:12Z</time>
      </trkpt>
      <trkpt lat="44.13949" lon="3.23448">
        <ele>895.5</ele>
        <time>2015-12-06T09:46:37Z</time>
      </trkpt>
      <trkpt lat="44.13947" lon="3.23447">
        <ele>893.5</ele>
        <time>2015-12-06T09:47:06Z</time>
      </trkpt>
      <trkpt lat="44.13944" lon="3.23443">
        <ele>891.5</ele>
        <time>2015-12-06T09:47:37Z</time>
      </trkpt>
      <trkpt lat="44.13943" lon="3.23443">
        <ele>891.5</ele>
        <time>2015-12-06T09:47:39Z</time>
      </trkpt>
      <trkpt lat="44.13942" lon="3.23444">
        <ele>891.5</ele>
        <time>2015-12-06T09:47:40Z</time>
      </trkpt>
      <trkpt lat="44.13942" lon="3.23445">
        <ele>891.5</ele>
        <time>2015-12-06T09:47:41Z</time>
      </trkpt>
      <trkpt lat="44.1394" lon="3.23446">
        <ele>891.5</ele>
        <time>2015-12-06T09:47:42Z</time>
      </trkpt>
      <trkpt lat="44.13939" lon="3.23446">
        <ele>891.5</ele>
        <time>2015-12-06T09:47:43Z</time>
      </trkpt>
      <trkpt lat="44.13936" lon="3.23445">
        <ele>891.5</ele>
        <time>2015-12-06T09:47:44Z</time>
      </trkpt>
      <trkpt lat="44.13934" lon="3.23442">
        <ele>890</ele>
        <time>2015-12-06T09:47:45Z</time>
      </trkpt>
      <trkpt lat="44.13932" lon="3.23437">
        <ele>889</ele>
        <time>2015-12-06T09:47:46Z</time>
      </trkpt>
      <trkpt lat="44.13932" lon="3.23431">
        <ele>890.5</ele>
        <time>2015-12-06T09:47:47Z</time>
      </trkpt>
      <trkpt lat="44.13932" lon="3.23425">
        <ele>890.5</ele>
        <time>2015-12-06T09:47:48Z</time>
      </trkpt>
      <trkpt lat="44.13932" lon="3.2342">
        <ele>890.5</ele>
        <time>2015-12-06T09:47:49Z</time>
      </trkpt>
      <trkpt lat="44.13933" lon="3.23415">
        <ele>890.5</ele>
        <time>2015-12-06T09:47:50Z</time>
      </trkpt>
      <trkpt lat="44.13934" lon="3.2341">
        <ele>890</ele>
        <time>2015-12-06T09:47:51Z</time>
      </trkpt>
      <trkpt lat="44.13935" lon="3.23404">
        <ele>889.5</ele>
        <time>2015-12-06T09:47:52Z</time>
      </trkpt>
      <trkpt lat="44.13936" lon="3.23399">
        <ele>889</ele>
        <time>2015-12-06T09:47:53Z</time>
      </trkpt>
      <trkpt lat="44.13937" lon="3.23394">
        <ele>888.5</ele>
        <time>2015-12-06T09:47:54Z</time>
      </trkpt>
      <trkpt lat="44.13938" lon="3.23389">
        <ele>888.5</ele>
        <time>2015-12-06T09:47:55Z</time>
      </trkpt>
      <trkpt lat="44.13938" lon="3.23384">
        <ele>888</ele>
        <time>2015-12-06T09:47:56Z</time>
      </trkpt>
      <trkpt lat="44.13937" lon="3.23379">
        <ele>888</ele>
        <time>2015-12-06T09:47:57Z</time>
      </trkpt>
      <trkpt lat="44.13936" lon="3.23375">
        <ele>888.5</ele>
        <time>2015-12-06T09:47:58Z</time>
      </trkpt>
      <trkpt lat="44.13935" lon="3.2337">
        <ele>887.5</ele>
        <time>2015-12-06T09:47:59Z</time>
      </trkpt>
      <trkpt lat="44.13933" lon="3.23366">
        <ele>887.5</ele>
        <time>2015-12-06T09:48:00Z</time>
      </trkpt>
      <trkpt lat="44.13929" lon="3.23364">
        <ele>888.5</ele>
        <time>2015-12-06T09:48:01Z</time>
      </trkpt>
      <trkpt lat="44.13924" lon="3.23362">
        <ele>887.5</ele>
        <time>2015-12-06T09:48:02Z</time>
      </trkpt>
      <trkpt lat="44.13921" lon="3.23355">
        <ele>886</ele>
        <time>2015-12-06T09:48:03Z</time>
      </trkpt>
      <trkpt lat="44.13917" lon="3.23346">
        <ele>887</ele>
        <time>2015-12-06T09:48:05Z</time>
      </trkpt>
      <trkpt lat="44.13918" lon="3.2334">
        <ele>890</ele>
        <time>2015-12-06T09:48:07Z</time>
      </trkpt>
      <trkpt lat="44.13919" lon="3.23337">
        <ele>890.5</ele>
        <time>2015-12-06T09:48:08Z</time>
      </trkpt>
      <trkpt lat="44.13919" lon="3.23335">
        <ele>891.5</ele>
        <time>2015-12-06T09:48:09Z</time>
      </trkpt>
      <trkpt lat="44.13921" lon="3.23333">
        <ele>892</ele>
        <time>2015-12-06T09:48:10Z</time>
      </trkpt>
      <trkpt lat="44.13922" lon="3.23331">
        <ele>892.5</ele>
        <time>2015-12-06T09:48:11Z</time>
      </trkpt>
      <trkpt lat="44.13923" lon="3.2333">
        <ele>892.5</ele>
        <time>2015-12-06T09:48:12Z</time>
      </trkpt>
      <trkpt lat="44.13924" lon="3.23327">
        <ele>893</ele>
        <time>2015-12-06T09:48:13Z</time>
      </trkpt>
      <trkpt lat="44.13924" lon="3.23325">
        <ele>893</ele>
        <time>2015-12-06T09:48:14Z</time>
      </trkpt>
      <trkpt lat="44.13925" lon="3.23322">
        <ele>893</ele>
        <time>2015-12-06T09:48:14Z</time>
      </trkpt>
      <trkpt lat="44.13926" lon="3.23318">
        <ele>893</ele>
        <time>2015-12-06T09:48:15Z</time>
      </trkpt>
      <trkpt lat="44.13927" lon="3.23314">
        <ele>893</ele>
        <time>2015-12-06T09:48:16Z</time>
      </trkpt>
      <trkpt lat="44.13927" lon="3.23309">
        <ele>893</ele>
        <time>2015-12-06T09:48:17Z</time>
      </trkpt>
      <trkpt lat="44.13928" lon="3.23304">
        <ele>893</ele>
        <time>2015-12-06T09:48:18Z</time>
      </trkpt>
      <trkpt lat="44.13928" lon="3.23299">
        <ele>893.5</ele>
        <time>2015-12-06T09:48:19Z</time>
      </trkpt>
      <trkpt lat="44.13928" lon="3.23294">
        <ele>893.5</ele>
        <time>2015-12-06T09:48:20Z</time>
      </trkpt>
      <trkpt lat="44.13928" lon="3.23289">
        <ele>893.5</ele>
        <time>2015-12-06T09:48:21Z</time>
      </trkpt>
      <trkpt lat="44.13928" lon="3.23285">
        <ele>893.5</ele>
        <time>2015-12-06T09:48:22Z</time>
      </trkpt>
      <trkpt lat="44.13928" lon="3.23281">
        <ele>894</ele>
        <time>2015-12-06T09:48:23Z</time>
      </trkpt>
      <trkpt lat="44.13929" lon="3.23277">
        <ele>894</ele>
        <time>2015-12-06T09:48:24Z</time>
      </trkpt>
      <trkpt lat="44.13929" lon="3.23273">
        <ele>894.5</ele>
        <time>2015-12-06T09:48:25Z</time>
      </trkpt>
      <trkpt lat="44.1393" lon="3.23269">
        <ele>894.5</ele>
        <time>2015-12-06T09:48:26Z</time>
      </trkpt>
      <trkpt lat="44.13931" lon="3.23266">
        <ele>894.5</ele>
        <time>2015-12-06T09:48:27Z</time>
      </trkpt>
      <trkpt lat="44.13932" lon="3.23262">
        <ele>894.5</ele>
        <time>2015-12-06T09:48:28Z</time>
      </trkpt>
      <trkpt lat="44.13933" lon="3.23258">
        <ele>894.5</ele>
        <time>2015-12-06T09:48:29Z</time>
      </trkpt>
      <trkpt lat="44.13935" lon="3.23254">
        <ele>894</ele>
        <time>2015-12-06T09:48:30Z</time>
      </trkpt>
      <trkpt lat="44.13936" lon="3.2325">
        <ele>894</ele>
        <time>2015-12-06T09:48:31Z</time>
      </trkpt>
      <trkpt lat="44.13938" lon="3.23246">
        <ele>894</ele>
        <time>2015-12-06T09:48:32Z</time>
      </trkpt>
      <trkpt lat="44.13941" lon="3.23242">
        <ele>893.5</ele>
        <time>2015-12-06T09:48:33Z</time>
      </trkpt>
      <trkpt lat="44.13943" lon="3.23237">
        <ele>893.5</ele>
        <time>2015-12-06T09:48:34Z</time>
      </trkpt>
      <trkpt lat="44.13946" lon="3.23232">
        <ele>893.5</ele>
        <time>2015-12-06T09:48:35Z</time>
      </trkpt>
      <trkpt lat="44.13949" lon="3.23227">
        <ele>893</ele>
        <time>2015-12-06T09:48:36Z</time>
      </trkpt>
      <trkpt lat="44.13952" lon="3.23222">
        <ele>893</ele>
        <time>2015-12-06T09:48:37Z</time>
      </trkpt>
      <trkpt lat="44.13955" lon="3.23217">
        <ele>893</ele>
        <time>2015-12-06T09:48:38Z</time>
      </trkpt>
      <trkpt lat="44.13958" lon="3.23212">
        <ele>892.5</ele>
        <time>2015-12-06T09:48:39Z</time>
      </trkpt>
      <trkpt lat="44.13961" lon="3.23207">
        <ele>893</ele>
        <time>2015-12-06T09:48:40Z</time>
      </trkpt>
      <trkpt lat="44.13963" lon="3.23203">
        <ele>893</ele>
        <time>2015-12-06T09:48:41Z</time>
      </trkpt>
      <trkpt lat="44.13966" lon="3.23198">
        <ele>893</ele>
        <time>2015-12-06T09:48:42Z</time>
      </trkpt>
      <trkpt lat="44.13968" lon="3.23194">
        <ele>894</ele>
        <time>2015-12-06T09:48:43Z</time>
      </trkpt>
      <trkpt lat="44.13971" lon="3.23191">
        <ele>894</ele>
        <time>2015-12-06T09:48:44Z</time>
      </trkpt>
      <trkpt lat="44.13974" lon="3.23187">
        <ele>894.5</ele>
        <time>2015-12-06T09:48:45Z</time>
      </trkpt>
      <trkpt lat="44.13976" lon="3.23184">
        <ele>894.5</ele>
        <time>2015-12-06T09:48:46Z</time>
      </trkpt>
      <trkpt lat="44.13978" lon="3.23181">
        <ele>894.5</ele>
        <time>2015-12-06T09:48:47Z</time>
      </trkpt>
      <trkpt lat="44.1398" lon="3.23177">
        <ele>894</ele>
        <time>2015-12-06T09:48:48Z</time>
      </trkpt>
      <trkpt lat="44.13982" lon="3.23175">
        <ele>894</ele>
        <time>2015-12-06T09:48:49Z</time>
      </trkpt>
      <trkpt lat="44.13984" lon="3.23171">
        <ele>894.5</ele>
        <time>2015-12-06T09:48:50Z</time>
      </trkpt>
      <trkpt lat="44.13985" lon="3.23168">
        <ele>894.5</ele>
        <time>2015-12-06T09:48:51Z</time>
      </trkpt>
      <trkpt lat="44.13987" lon="3.23164">
        <ele>894</ele>
        <time>2015-12-06T09:48:52Z</time>
      </trkpt>
      <trkpt lat="44.13989" lon="3.2316">
        <ele>894</ele>
        <time>2015-12-06T09:48:53Z</time>
      </trkpt>
      <trkpt lat="44.13991" lon="3.23157">
        <ele>893.5</ele>
        <time>2015-12-06T09:48:54Z</time>
      </trkpt>
      <trkpt lat="44.13992" lon="3.23153">
        <ele>893.5</ele>
        <time>2015-12-06T09:48:55Z</time>
      </trkpt>
      <trkpt lat="44.13994" lon="3.23149">
        <ele>893.5</ele>
        <time>2015-12-06T09:48:56Z</time>
      </trkpt>
      <trkpt lat="44.13995" lon="3.23144">
        <ele>893</ele>
        <time>2015-12-06T09:48:57Z</time>
      </trkpt>
      <trkpt lat="44.13995" lon="3.23139">
        <ele>893</ele>
        <time>2015-12-06T09:48:58Z</time>
      </trkpt>
      <trkpt lat="44.13995" lon="3.23134">
        <ele>893.5</ele>
        <time>2015-12-06T09:48:59Z</time>
      </trkpt>
      <trkpt lat="44.13994" lon="3.23129">
        <ele>894.5</ele>
        <time>2015-12-06T09:49:00Z</time>
      </trkpt>
      <trkpt lat="44.13993" lon="3.23123">
        <ele>894.5</ele>
        <time>2015-12-06T09:49:01Z</time>
      </trkpt>
      <trkpt lat="44.13991" lon="3.23116">
        <ele>894.5</ele>
        <time>2015-12-06T09:49:02Z</time>
      </trkpt>
      <trkpt lat="44.13989" lon="3.23108">
        <ele>894.5</ele>
        <time>2015-12-06T09:49:03Z</time>
      </trkpt>
      <trkpt lat="44.13988" lon="3.231">
        <ele>894.5</ele>
        <time>2015-12-06T09:49:04Z</time>
      </trkpt>
      <trkpt lat="44.13986" lon="3.23092">
        <ele>894.5</ele>
        <time>2015-12-06T09:49:05Z</time>
      </trkpt>
      <trkpt lat="44.13984" lon="3.23084">
        <ele>895</ele>
        <time>2015-12-06T09:49:06Z</time>
      </trkpt>
      <trkpt lat="44.13983" lon="3.23076">
        <ele>896</ele>
        <time>2015-12-06T09:49:07Z</time>
      </trkpt>
      <trkpt lat="44.13981" lon="3.23069">
        <ele>896</ele>
        <time>2015-12-06T09:49:08Z</time>
      </trkpt>
      <trkpt lat="44.13979" lon="3.23061">
        <ele>895.5</ele>
        <time>2015-12-06T09:49:09Z</time>
      </trkpt>
      <trkpt lat="44.13977" lon="3.23053">
        <ele>895</ele>
        <time>2015-12-06T09:49:10Z</time>
      </trkpt>
      <trkpt lat="44.13975" lon="3.23044">
        <ele>894.5</ele>
        <time>2015-12-06T09:49:11Z</time>
      </trkpt>
      <trkpt lat="44.13974" lon="3.23035">
        <ele>894.5</ele>
        <time>2015-12-06T09:49:12Z</time>
      </trkpt>
      <trkpt lat="44.13975" lon="3.23025">
        <ele>895.5</ele>
        <time>2015-12-06T09:49:13Z</time>
      </trkpt>
      <trkpt lat="44.13977" lon="3.23017">
        <ele>896</ele>
        <time>2015-12-06T09:49:14Z</time>
      </trkpt>
      <trkpt lat="44.1398" lon="3.2301">
        <ele>896.5</ele>
        <time>2015-12-06T09:49:15Z</time>
      </trkpt>
      <trkpt lat="44.13983" lon="3.23003">
        <ele>896.5</ele>
        <time>2015-12-06T09:49:16Z</time>
      </trkpt>
      <trkpt lat="44.13986" lon="3.22998">
        <ele>896.5</ele>
        <time>2015-12-06T09:49:17Z</time>
      </trkpt>
      <trkpt lat="44.13989" lon="3.22993">
        <ele>897.5</ele>
        <time>2015-12-06T09:49:18Z</time>
      </trkpt>
      <trkpt lat="44.13989" lon="3.22987">
        <ele>897</ele>
        <time>2015-12-06T09:49:19Z</time>
      </trkpt>
      <trkpt lat="44.1399" lon="3.22983">
        <ele>897</ele>
        <time>2015-12-06T09:49:20Z</time>
      </trkpt>
      <trkpt lat="44.13991" lon="3.2298">
        <ele>897</ele>
        <time>2015-12-06T09:49:21Z</time>
      </trkpt>
      <trkpt lat="44.13992" lon="3.22978">
        <ele>896.5</ele>
        <time>2015-12-06T09:49:22Z</time>
      </trkpt>
      <trkpt lat="44.13993" lon="3.22976">
        <ele>896.5</ele>
        <time>2015-12-06T09:49:23Z</time>
      </trkpt>
      <trkpt lat="44.13994" lon="3.22975">
        <ele>896.5</ele>
        <time>2015-12-06T09:49:24Z</time>
      </trkpt>
      <trkpt lat="44.13994" lon="3.22974">
        <ele>896.5</ele>
        <time>2015-12-06T09:49:25Z</time>
      </trkpt>
      <trkpt lat="44.13995" lon="3.22973">
        <ele>897</ele>
        <time>2015-12-06T09:49:26Z</time>
      </trkpt>
      <trkpt lat="44.13995" lon="3.22971">
        <ele>897</ele>
        <time>2015-12-06T09:49:27Z</time>
      </trkpt>
      <trkpt lat="44.13995" lon="3.2297">
        <ele>897</ele>
        <time>2015-12-06T09:49:28Z</time>
      </trkpt>
      <trkpt lat="44.13996" lon="3.22969">
        <ele>896.5</ele>
        <time>2015-12-06T09:49:29Z</time>
      </trkpt>
      <trkpt lat="44.13996" lon="3.22967">
        <ele>896</ele>
        <time>2015-12-06T09:49:30Z</time>
      </trkpt>
      <trkpt lat="44.13997" lon="3.22963">
        <ele>896.5</ele>
        <time>2015-12-06T09:49:10Z</time>
      </trkpt>
      <trkpt lat="44.13997" lon="3.22963">
        <ele>896.5</ele>
        <time>2015-12-06T09:49:12Z</time>
      </trkpt>
      <trkpt lat="44.13996" lon="3.22962">
        <ele>896.5</ele>
        <time>2015-12-06T09:49:13Z</time>
      </trkpt>
      <trkpt lat="44.13996" lon="3.22961">
        <ele>896.5</ele>
        <time>2015-12-06T09:49:14Z</time>
      </trkpt>
      <trkpt lat="44.13995" lon="3.22961">
        <ele>896.5</ele>
        <time>2015-12-06T09:49:15Z</time>
      </trkpt>
      <trkpt lat="44.13995" lon="3.2296">
        <ele>896.5</ele>
        <time>2015-12-06T09:49:16Z</time>
      </trkpt>
      <trkpt lat="44.13994" lon="3.2296">
        <ele>896.5</ele>
        <time>2015-12-06T09:49:17Z</time>
      </trkpt>
      <trkpt lat="44.13994" lon="3.22959">
        <ele>897</ele>
        <time>2015-12-06T09:49:18Z</time>
      </trkpt>
      <trkpt lat="44.13993" lon="3.22959">
        <ele>897</ele>
        <time>2015-12-06T09:49:19Z</time>
      </trkpt>
      <trkpt lat="44.13993" lon="3.22959">
        <ele>897</ele>
        <time>2015-12-06T09:49:20Z</time>
      </trkpt>
      <trkpt lat="44.13992" lon="3.22958">
        <ele>897</ele>
        <time>2015-12-06T09:49:21Z</time>
      </trkpt>
      <trkpt lat="44.13992" lon="3.22958">
        <ele>897</ele>
        <time>2015-12-06T09:49:22Z</time>
      </trkpt>
      <trkpt lat="44.13993" lon="3.2296">
        <ele>897</ele>
        <time>2015-12-06T09:49:25Z</time>
      </trkpt>
      <trkpt lat="44.13993" lon="3.2296">
        <ele>897</ele>
        <time>2015-12-06T09:49:27Z</time>
      </trkpt>
      <trkpt lat="44.13995" lon="3.22962">
        <ele>894.5</ele>
        <time>2015-12-06T09:49:33Z</time>
      </trkpt>
      <trkpt lat="44.13996" lon="3.22962">
        <ele>893</ele>
        <time>2015-12-06T09:49:36Z</time>
      </trkpt>
      <trkpt lat="44.13996" lon="3.22962">
        <ele>891.5</ele>
        <time>2015-12-06T09:49:51Z</time>
      </trkpt>
      <trkpt lat="44.13995" lon="3.22962">
        <ele>892.5</ele>
        <time>2015-12-06T09:49:53Z</time>
      </trkpt>
      <trkpt lat="44.13995" lon="3.22962">
        <ele>892.5</ele>
        <time>2015-12-06T09:49:55Z</time>
      </trkpt>
      <trkpt lat="44.13994" lon="3.2296">
        <ele>892.5</ele>
        <time>2015-12-06T09:49:57Z</time>
      </trkpt>
      <trkpt lat="44.13993" lon="3.22959">
        <ele>892.5</ele>
        <time>2015-12-06T09:49:58Z</time>
      </trkpt>
      <trkpt lat="44.13991" lon="3.22959">
        <ele>892.5</ele>
        <time>2015-12-06T09:49:59Z</time>
      </trkpt>
      <trkpt lat="44.13989" lon="3.22958">
        <ele>892.5</ele>
        <time>2015-12-06T09:50:00Z</time>
      </trkpt>
      <trkpt lat="44.13987" lon="3.22958">
        <ele>892.5</ele>
        <time>2015-12-06T09:50:01Z</time>
      </trkpt>
      <trkpt lat="44.13986" lon="3.22957">
        <ele>892.5</ele>
        <time>2015-12-06T09:50:02Z</time>
      </trkpt>
      <trkpt lat="44.13984" lon="3.22956">
        <ele>892.5</ele>
        <time>2015-12-06T09:50:03Z</time>
      </trkpt>
      <trkpt lat="44.13982" lon="3.22956">
        <ele>892.5</ele>
        <time>2015-12-06T09:50:04Z</time>
      </trkpt>
      <trkpt lat="44.1398" lon="3.22956">
        <ele>892.5</ele>
        <time>2015-12-06T09:50:04Z</time>
      </trkpt>
      <trkpt lat="44.13978" lon="3.22956">
        <ele>893</ele>
        <time>2015-12-06T09:50:05Z</time>
      </trkpt>
      <trkpt lat="44.13976" lon="3.22956">
        <ele>893</ele>
        <time>2015-12-06T09:50:06Z</time>
      </trkpt>
      <trkpt lat="44.13974" lon="3.22957">
        <ele>893</ele>
        <time>2015-12-06T09:50:07Z</time>
      </trkpt>
      <trkpt lat="44.13971" lon="3.22958">
        <ele>893</ele>
        <time>2015-12-06T09:50:08Z</time>
      </trkpt>
      <trkpt lat="44.13969" lon="3.22958">
        <ele>892.5</ele>
        <time>2015-12-06T09:50:10Z</time>
      </trkpt>
      <trkpt lat="44.13966" lon="3.22958">
        <ele>891.5</ele>
        <time>2015-12-06T09:50:11Z</time>
      </trkpt>
      <trkpt lat="44.13962" lon="3.22958">
        <ele>891.5</ele>
        <time>2015-12-06T09:50:11Z</time>
      </trkpt>
      <trkpt lat="44.13958" lon="3.22958">
        <ele>891</ele>
        <time>2015-12-06T09:50:12Z</time>
      </trkpt>
      <trkpt lat="44.13955" lon="3.22955">
        <ele>890.5</ele>
        <time>2015-12-06T09:50:14Z</time>
      </trkpt>
      <trkpt lat="44.13952" lon="3.22952">
        <ele>890</ele>
        <time>2015-12-06T09:50:14Z</time>
      </trkpt>
      <trkpt lat="44.1395" lon="3.22948">
        <ele>891</ele>
        <time>2015-12-06T09:50:15Z</time>
      </trkpt>
      <trkpt lat="44.13947" lon="3.22945">
        <ele>891.5</ele>
        <time>2015-12-06T09:50:16Z</time>
      </trkpt>
      <trkpt lat="44.13945" lon="3.22941">
        <ele>891</ele>
        <time>2015-12-06T09:50:18Z</time>
      </trkpt>
      <trkpt lat="44.13943" lon="3.22937">
        <ele>891</ele>
        <time>2015-12-06T09:50:18Z</time>
      </trkpt>
      <trkpt lat="44.13942" lon="3.22933">
        <ele>891</ele>
        <time>2015-12-06T09:50:19Z</time>
      </trkpt>
      <trkpt lat="44.13941" lon="3.2293">
        <ele>891.5</ele>
        <time>2015-12-06T09:50:20Z</time>
      </trkpt>
      <trkpt lat="44.1394" lon="3.22927">
        <ele>892.5</ele>
        <time>2015-12-06T09:50:22Z</time>
      </trkpt>
      <trkpt lat="44.13941" lon="3.22922">
        <ele>892</ele>
        <time>2015-12-06T09:50:22Z</time>
      </trkpt>
      <trkpt lat="44.1394" lon="3.22919">
        <ele>892.5</ele>
        <time>2015-12-06T09:50:23Z</time>
      </trkpt>
      <trkpt lat="44.1394" lon="3.22916">
        <ele>892.5</ele>
        <time>2015-12-06T09:50:24Z</time>
      </trkpt>
      <trkpt lat="44.13939" lon="3.22913">
        <ele>893</ele>
        <time>2015-12-06T09:50:25Z</time>
      </trkpt>
      <trkpt lat="44.13938" lon="3.22909">
        <ele>893</ele>
        <time>2015-12-06T09:50:26Z</time>
      </trkpt>
      <trkpt lat="44.13936" lon="3.22907">
        <ele>893</ele>
        <time>2015-12-06T09:50:27Z</time>
      </trkpt>
      <trkpt lat="44.13935" lon="3.22905">
        <ele>893.5</ele>
        <time>2015-12-06T09:50:29Z</time>
      </trkpt>
      <trkpt lat="44.13933" lon="3.22904">
        <ele>894.5</ele>
        <time>2015-12-06T09:50:29Z</time>
      </trkpt>
      <trkpt lat="44.13931" lon="3.22903">
        <ele>895</ele>
        <time>2015-12-06T09:50:30Z</time>
      </trkpt>
      <trkpt lat="44.1393" lon="3.22903">
        <ele>895.5</ele>
        <time>2015-12-06T09:50:31Z</time>
      </trkpt>
      <trkpt lat="44.13929" lon="3.22903">
        <ele>896</ele>
        <time>2015-12-06T09:50:32Z</time>
      </trkpt>
      <trkpt lat="44.13928" lon="3.22903">
        <ele>896</ele>
        <time>2015-12-06T09:50:33Z</time>
      </trkpt>
      <trkpt lat="44.13927" lon="3.22903">
        <ele>896</ele>
        <time>2015-12-06T09:50:34Z</time>
      </trkpt>
      <trkpt lat="44.13926" lon="3.22903">
        <ele>896.5</ele>
        <time>2015-12-06T09:50:35Z</time>
      </trkpt>
      <trkpt lat="44.13925" lon="3.22903">
        <ele>896.5</ele>
        <time>2015-12-06T09:50:36Z</time>
      </trkpt>
      <trkpt lat="44.13925" lon="3.22903">
        <ele>896</ele>
        <time>2015-12-06T09:50:37Z</time>
      </trkpt>
      <trkpt lat="44.13924" lon="3.22902">
        <ele>896.5</ele>
        <time>2015-12-06T09:50:40Z</time>
      </trkpt>
      <trkpt lat="44.13923" lon="3.22901">
        <ele>896</ele>
        <time>2015-12-06T09:50:47Z</time>
      </trkpt>
      <trkpt lat="44.13923" lon="3.22901">
        <ele>896</ele>
        <time>2015-12-06T09:50:56Z</time>
      </trkpt>
      <trkpt lat="44.13922" lon="3.22898">
        <ele>895</ele>
        <time>2015-12-06T09:51:16Z</time>
      </trkpt>
      <trkpt lat="44.13921" lon="3.22898">
        <ele>894</ele>
        <time>2015-12-06T09:51:20Z</time>
      </trkpt>
      <trkpt lat="44.13921" lon="3.229">
        <ele>892</ele>
        <time>2015-12-06T09:51:22Z</time>
      </trkpt>
      <trkpt lat="44.1392" lon="3.229">
        <ele>891.5</ele>
        <time>2015-12-06T09:51:23Z</time>
      </trkpt>
      <trkpt lat="44.13919" lon="3.22901">
        <ele>890.5</ele>
        <time>2015-12-06T09:51:24Z</time>
      </trkpt>
      <trkpt lat="44.13917" lon="3.22901">
        <ele>890</ele>
        <time>2015-12-06T09:51:25Z</time>
      </trkpt>
      <trkpt lat="44.13916" lon="3.22901">
        <ele>889.5</ele>
        <time>2015-12-06T09:51:26Z</time>
      </trkpt>
      <trkpt lat="44.13914" lon="3.22901">
        <ele>889.5</ele>
        <time>2015-12-06T09:51:27Z</time>
      </trkpt>
      <trkpt lat="44.13913" lon="3.22901">
        <ele>890</ele>
        <time>2015-12-06T09:51:28Z</time>
      </trkpt>
      <trkpt lat="44.13912" lon="3.22901">
        <ele>890.5</ele>
        <time>2015-12-06T09:51:29Z</time>
      </trkpt>
      <trkpt lat="44.13911" lon="3.22901">
        <ele>890.5</ele>
        <time>2015-12-06T09:51:30Z</time>
      </trkpt>
      <trkpt lat="44.1391" lon="3.22902">
        <ele>891</ele>
        <time>2015-12-06T09:51:31Z</time>
      </trkpt>
      <trkpt lat="44.13908" lon="3.22902">
        <ele>891</ele>
        <time>2015-12-06T09:51:32Z</time>
      </trkpt>
      <trkpt lat="44.13907" lon="3.22902">
        <ele>891</ele>
        <time>2015-12-06T09:51:33Z</time>
      </trkpt>
      <trkpt lat="44.13905" lon="3.22903">
        <ele>891.5</ele>
        <time>2015-12-06T09:51:34Z</time>
      </trkpt>
      <trkpt lat="44.13903" lon="3.22903">
        <ele>891.5</ele>
        <time>2015-12-06T09:51:35Z</time>
      </trkpt>
      <trkpt lat="44.13901" lon="3.22904">
        <ele>891.5</ele>
        <time>2015-12-06T09:51:36Z</time>
      </trkpt>
      <trkpt lat="44.139" lon="3.22904">
        <ele>892</ele>
        <time>2015-12-06T09:51:37Z</time>
      </trkpt>
      <trkpt lat="44.13898" lon="3.22904">
        <ele>892</ele>
        <time>2015-12-06T09:51:38Z</time>
      </trkpt>
      <trkpt lat="44.13897" lon="3.22905">
        <ele>892</ele>
        <time>2015-12-06T09:51:39Z</time>
      </trkpt>
      <trkpt lat="44.13896" lon="3.22905">
        <ele>892</ele>
        <time>2015-12-06T09:51:40Z</time>
      </trkpt>
      <trkpt lat="44.13895" lon="3.22905">
        <ele>892</ele>
        <time>2015-12-06T09:51:41Z</time>
      </trkpt>
      <trkpt lat="44.13895" lon="3.22905">
        <ele>891.5</ele>
        <time>2015-12-06T09:51:42Z</time>
      </trkpt>
      <trkpt lat="44.13894" lon="3.22906">
        <ele>892</ele>
        <time>2015-12-06T09:51:43Z</time>
      </trkpt>
      <trkpt lat="44.13894" lon="3.22907">
        <ele>891.5</ele>
        <time>2015-12-06T09:51:44Z</time>
      </trkpt>
      <trkpt lat="44.13893" lon="3.22907">
        <ele>892</ele>
        <time>2015-12-06T09:51:47Z</time>
      </trkpt>
      <trkpt lat="44.13892" lon="3.22906">
        <ele>892.5</ele>
        <time>2015-12-06T09:51:49Z</time>
      </trkpt>
      <trkpt lat="44.13891" lon="3.22905">
        <ele>892.5</ele>
        <time>2015-12-06T09:51:50Z</time>
      </trkpt>
      <trkpt lat="44.13891" lon="3.22905">
        <ele>892.5</ele>
        <time>2015-12-06T09:51:51Z</time>
      </trkpt>
      <trkpt lat="44.13891" lon="3.22905">
        <ele>892.5</ele>
        <time>2015-12-06T09:51:53Z</time>
      </trkpt>
      <trkpt lat="44.13889" lon="3.22906">
        <ele>893</ele>
        <time>2015-12-06T09:51:55Z</time>
      </trkpt>
      <trkpt lat="44.13888" lon="3.22907">
        <ele>893</ele>
        <time>2015-12-06T09:51:56Z</time>
      </trkpt>
      <trkpt lat="44.13887" lon="3.22907">
        <ele>893.5</ele>
        <time>2015-12-06T09:51:57Z</time>
      </trkpt>
      <trkpt lat="44.13887" lon="3.22908">
        <ele>895</ele>
        <time>2015-12-06T09:51:59Z</time>
      </trkpt>
      <trkpt lat="44.13886" lon="3.22909">
        <ele>895.5</ele>
        <time>2015-12-06T09:52:01Z</time>
      </trkpt>
      <trkpt lat="44.13885" lon="3.22909">
        <ele>896</ele>
        <time>2015-12-06T09:52:02Z</time>
      </trkpt>
      <trkpt lat="44.13884" lon="3.22909">
        <ele>896.5</ele>
        <time>2015-12-06T09:52:03Z</time>
      </trkpt>
      <trkpt lat="44.13883" lon="3.22909">
        <ele>896.5</ele>
        <time>2015-12-06T09:52:04Z</time>
      </trkpt>
      <trkpt lat="44.13882" lon="3.22909">
        <ele>897</ele>
        <time>2015-12-06T09:52:05Z</time>
      </trkpt>
      <trkpt lat="44.1388" lon="3.22909">
        <ele>896.5</ele>
        <time>2015-12-06T09:52:06Z</time>
      </trkpt>
      <trkpt lat="44.13878" lon="3.2291">
        <ele>896.5</ele>
        <time>2015-12-06T09:52:07Z</time>
      </trkpt>
      <trkpt lat="44.13877" lon="3.22912">
        <ele>896.5</ele>
        <time>2015-12-06T09:52:08Z</time>
      </trkpt>
      <trkpt lat="44.13876" lon="3.22913">
        <ele>896.5</ele>
        <time>2015-12-06T09:52:09Z</time>
      </trkpt>
      <trkpt lat="44.13874" lon="3.22914">
        <ele>897</ele>
        <time>2015-12-06T09:52:10Z</time>
      </trkpt>
      <trkpt lat="44.13872" lon="3.22916">
        <ele>897</ele>
        <time>2015-12-06T09:52:11Z</time>
      </trkpt>
      <trkpt lat="44.13871" lon="3.22916">
        <ele>897.5</ele>
        <time>2015-12-06T09:52:12Z</time>
      </trkpt>
      <trkpt lat="44.1387" lon="3.22917">
        <ele>898</ele>
        <time>2015-12-06T09:52:13Z</time>
      </trkpt>
      <trkpt lat="44.13868" lon="3.22918">
        <ele>898</ele>
        <time>2015-12-06T09:52:14Z</time>
      </trkpt>
      <trkpt lat="44.13867" lon="3.2292">
        <ele>898</ele>
        <time>2015-12-06T09:52:15Z</time>
      </trkpt>
      <trkpt lat="44.13866" lon="3.22922">
        <ele>898.5</ele>
        <time>2015-12-06T09:52:16Z</time>
      </trkpt>
      <trkpt lat="44.13865" lon="3.22924">
        <ele>899</ele>
        <time>2015-12-06T09:52:17Z</time>
      </trkpt>
      <trkpt lat="44.13864" lon="3.22926">
        <ele>900</ele>
        <time>2015-12-06T09:52:18Z</time>
      </trkpt>
      <trkpt lat="44.13863" lon="3.22927">
        <ele>900.5</ele>
        <time>2015-12-06T09:52:19Z</time>
      </trkpt>
      <trkpt lat="44.13862" lon="3.22929">
        <ele>901</ele>
        <time>2015-12-06T09:52:20Z</time>
      </trkpt>
      <trkpt lat="44.13861" lon="3.22931">
        <ele>901.5</ele>
        <time>2015-12-06T09:52:21Z</time>
      </trkpt>
      <trkpt lat="44.1386" lon="3.22933">
        <ele>902.5</ele>
        <time>2015-12-06T09:52:22Z</time>
      </trkpt>
      <trkpt lat="44.13858" lon="3.22934">
        <ele>902.5</ele>
        <time>2015-12-06T09:52:23Z</time>
      </trkpt>
      <trkpt lat="44.13857" lon="3.22935">
        <ele>903</ele>
        <time>2015-12-06T09:52:24Z</time>
      </trkpt>
      <trkpt lat="44.13855" lon="3.22936">
        <ele>903.5</ele>
        <time>2015-12-06T09:52:25Z</time>
      </trkpt>
      <trkpt lat="44.13854" lon="3.22937">
        <ele>903.5</ele>
        <time>2015-12-06T09:52:26Z</time>
      </trkpt>
      <trkpt lat="44.1386" lon="3.22937">
        <ele>907.5</ele>
        <time>2015-12-06T09:52:29Z</time>
      </trkpt>
      <trkpt lat="44.13859" lon="3.22938">
        <ele>908</ele>
        <time>2015-12-06T09:52:31Z</time>
      </trkpt>
      <trkpt lat="44.13859" lon="3.22939">
        <ele>908</ele>
        <time>2015-12-06T09:52:32Z</time>
      </trkpt>
      <trkpt lat="44.13859" lon="3.2294">
        <ele>908.5</ele>
        <time>2015-12-06T09:52:33Z</time>
      </trkpt>
      <trkpt lat="44.13858" lon="3.2294">
        <ele>908.5</ele>
        <time>2015-12-06T09:52:34Z</time>
      </trkpt>
      <trkpt lat="44.13857" lon="3.22939">
        <ele>908</ele>
        <time>2015-12-06T09:52:35Z</time>
      </trkpt>
      <trkpt lat="44.13857" lon="3.22939">
        <ele>908</ele>
        <time>2015-12-06T09:52:36Z</time>
      </trkpt>
      <trkpt lat="44.13856" lon="3.22938">
        <ele>908</ele>
        <time>2015-12-06T09:52:37Z</time>
      </trkpt>
      <trkpt lat="44.13855" lon="3.22937">
        <ele>907.5</ele>
        <time>2015-12-06T09:52:38Z</time>
      </trkpt>
      <trkpt lat="44.13855" lon="3.22936">
        <ele>907.5</ele>
        <time>2015-12-06T09:52:39Z</time>
      </trkpt>
      <trkpt lat="44.13854" lon="3.22936">
        <ele>907.5</ele>
        <time>2015-12-06T09:52:40Z</time>
      </trkpt>
      <trkpt lat="44.13853" lon="3.22935">
        <ele>907.5</ele>
        <time>2015-12-06T09:52:41Z</time>
      </trkpt>
      <trkpt lat="44.13853" lon="3.22935">
        <ele>907.5</ele>
        <time>2015-12-06T09:52:42Z</time>
      </trkpt>
      <trkpt lat="44.13852" lon="3.22934">
        <ele>907</ele>
        <time>2015-12-06T09:52:43Z</time>
      </trkpt>
      <trkpt lat="44.13851" lon="3.22933">
        <ele>907</ele>
        <time>2015-12-06T09:52:44Z</time>
      </trkpt>
      <trkpt lat="44.1385" lon="3.22932">
        <ele>907.5</ele>
        <time>2015-12-06T09:52:45Z</time>
      </trkpt>
      <trkpt lat="44.13849" lon="3.22931">
        <ele>907</ele>
        <time>2015-12-06T09:52:46Z</time>
      </trkpt>
      <trkpt lat="44.13849" lon="3.22931">
        <ele>906.5</ele>
        <time>2015-12-06T09:52:47Z</time>
      </trkpt>
      <trkpt lat="44.13848" lon="3.2293">
        <ele>906.5</ele>
        <time>2015-12-06T09:52:48Z</time>
      </trkpt>
      <trkpt lat="44.13847" lon="3.22929">
        <ele>906</ele>
        <time>2015-12-06T09:52:49Z</time>
      </trkpt>
      <trkpt lat="44.13846" lon="3.22929">
        <ele>906</ele>
        <time>2015-12-06T09:52:50Z</time>
      </trkpt>
      <trkpt lat="44.13845" lon="3.22929">
        <ele>907</ele>
        <time>2015-12-06T09:52:51Z</time>
      </trkpt>
      <trkpt lat="44.13844" lon="3.22928">
        <ele>907</ele>
        <time>2015-12-06T09:52:52Z</time>
      </trkpt>
      <trkpt lat="44.13843" lon="3.22927">
        <ele>907</ele>
        <time>2015-12-06T09:52:53Z</time>
      </trkpt>
      <trkpt lat="44.13842" lon="3.22926">
        <ele>907</ele>
        <time>2015-12-06T09:52:54Z</time>
      </trkpt>
      <trkpt lat="44.13842" lon="3.22925">
        <ele>906.5</ele>
        <time>2015-12-06T09:52:55Z</time>
      </trkpt>
      <trkpt lat="44.13841" lon="3.22925">
        <ele>906</ele>
        <time>2015-12-06T09:52:56Z</time>
      </trkpt>
      <trkpt lat="44.1384" lon="3.22925">
        <ele>905.5</ele>
        <time>2015-12-06T09:52:57Z</time>
      </trkpt>
      <trkpt lat="44.1384" lon="3.22926">
        <ele>905.5</ele>
        <time>2015-12-06T09:53:01Z</time>
      </trkpt>
      <trkpt lat="44.1384" lon="3.22926">
        <ele>904.5</ele>
        <time>2015-12-06T09:53:03Z</time>
      </trkpt>
      <trkpt lat="44.13841" lon="3.22926">
        <ele>905.5</ele>
        <time>2015-12-06T09:53:04Z</time>
      </trkpt>
      <trkpt lat="44.1384" lon="3.22926">
        <ele>905.5</ele>
        <time>2015-12-06T09:53:05Z</time>
      </trkpt>
      <trkpt lat="44.1384" lon="3.22926">
        <ele>906</ele>
        <time>2015-12-06T09:53:06Z</time>
      </trkpt>
      <trkpt lat="44.13839" lon="3.22926">
        <ele>906</ele>
        <time>2015-12-06T09:53:07Z</time>
      </trkpt>
      <trkpt lat="44.13838" lon="3.22926">
        <ele>906.5</ele>
        <time>2015-12-06T09:53:08Z</time>
      </trkpt>
      <trkpt lat="44.13838" lon="3.22925">
        <ele>906.5</ele>
        <time>2015-12-06T09:53:09Z</time>
      </trkpt>
      <trkpt lat="44.13838" lon="3.22925">
        <ele>906.5</ele>
        <time>2015-12-06T09:53:10Z</time>
      </trkpt>
      <trkpt lat="44.13837" lon="3.22925">
        <ele>906.5</ele>
        <time>2015-12-06T09:53:11Z</time>
      </trkpt>
      <trkpt lat="44.13836" lon="3.22924">
        <ele>907</ele>
        <time>2015-12-06T09:53:25Z</time>
      </trkpt>
      <trkpt lat="44.13839" lon="3.22925">
        <ele>907</ele>
        <time>2015-12-06T09:58:13Z</time>
      </trkpt>
      <trkpt lat="44.13839" lon="3.22924">
        <ele>907.5</ele>
        <time>2015-12-06T09:57:40Z</time>
      </trkpt>
      <trkpt lat="44.13839" lon="3.22923">
        <ele>907</ele>
        <time>2015-12-06T09:58:05Z</time>
      </trkpt>
      <trkpt lat="44.13839" lon="3.22923">
        <ele>907</ele>
        <time>2015-12-06T09:58:09Z</time>
      </trkpt>
      <trkpt lat="44.13838" lon="3.22922">
        <ele>908</ele>
        <time>2015-12-06T09:57:40Z</time>
      </trkpt>
      <trkpt lat="44.13839" lon="3.22923">
        <ele>908</ele>
        <time>2015-12-06T09:57:47Z</time>
      </trkpt>
      <trkpt lat="44.1384" lon="3.22923">
        <ele>908</ele>
        <time>2015-12-06T09:57:49Z</time>
      </trkpt>
      <trkpt lat="44.13841" lon="3.22923">
        <ele>908.5</ele>
        <time>2015-12-06T09:57:50Z</time>
      </trkpt>
      <trkpt lat="44.13841" lon="3.22922">
        <ele>908.5</ele>
        <time>2015-12-06T09:57:51Z</time>
      </trkpt>
      <trkpt lat="44.13842" lon="3.22923">
        <ele>908</ele>
        <time>2015-12-06T09:57:52Z</time>
      </trkpt>
      <trkpt lat="44.13843" lon="3.22923">
        <ele>907.5</ele>
        <time>2015-12-06T09:57:53Z</time>
      </trkpt>
      <trkpt lat="44.13843" lon="3.22922">
        <ele>907.5</ele>
        <time>2015-12-06T09:57:54Z</time>
      </trkpt>
      <trkpt lat="44.13843" lon="3.22923">
        <ele>907</ele>
        <time>2015-12-06T09:57:59Z</time>
      </trkpt>
      <trkpt lat="44.13843" lon="3.22925">
        <ele>905.5</ele>
        <time>2015-12-06T09:58:01Z</time>
      </trkpt>
      <trkpt lat="44.13843" lon="3.22927">
        <ele>904.5</ele>
        <time>2015-12-06T09:58:02Z</time>
      </trkpt>
      <trkpt lat="44.13843" lon="3.22928">
        <ele>903.5</ele>
        <time>2015-12-06T09:58:03Z</time>
      </trkpt>
      <trkpt lat="44.13843" lon="3.22929">
        <ele>903</ele>
        <time>2015-12-06T09:58:04Z</time>
      </trkpt>
      <trkpt lat="44.13843" lon="3.22931">
        <ele>903</ele>
        <time>2015-12-06T09:58:05Z</time>
      </trkpt>
      <trkpt lat="44.13844" lon="3.22932">
        <ele>902.5</ele>
        <time>2015-12-06T09:58:06Z</time>
      </trkpt>
      <trkpt lat="44.13844" lon="3.22933">
        <ele>901.5</ele>
        <time>2015-12-06T09:58:07Z</time>
      </trkpt>
      <trkpt lat="44.13844" lon="3.22934">
        <ele>901.5</ele>
        <time>2015-12-06T09:58:08Z</time>
      </trkpt>
      <trkpt lat="44.13844" lon="3.22934">
        <ele>900.5</ele>
        <time>2015-12-06T09:58:10Z</time>
      </trkpt>
      <trkpt lat="44.13844" lon="3.22934">
        <ele>900.5</ele>
        <time>2015-12-06T09:58:14Z</time>
      </trkpt>
      <trkpt lat="44.13846" lon="3.22933">
        <ele>900</ele>
        <time>2015-12-06T09:58:17Z</time>
      </trkpt>
      <trkpt lat="44.13846" lon="3.22932">
        <ele>901.5</ele>
        <time>2015-12-06T09:58:19Z</time>
      </trkpt>
      <trkpt lat="44.13846" lon="3.22932">
        <ele>901</ele>
        <time>2015-12-06T09:58:20Z</time>
      </trkpt>
      <trkpt lat="44.13847" lon="3.22929">
        <ele>899</ele>
        <time>2015-12-06T09:58:22Z</time>
      </trkpt>
      <trkpt lat="44.13847" lon="3.22929">
        <ele>899</ele>
        <time>2015-12-06T09:58:23Z</time>
      </trkpt>
      <trkpt lat="44.13847" lon="3.22928">
        <ele>899</ele>
        <time>2015-12-06T09:58:24Z</time>
      </trkpt>
      <trkpt lat="44.13847" lon="3.22927">
        <ele>899.5</ele>
        <time>2015-12-06T09:58:25Z</time>
      </trkpt>
      <trkpt lat="44.13849" lon="3.22929">
        <ele>902</ele>
        <time>2015-12-06T09:58:37Z</time>
      </trkpt>
      <trkpt lat="44.13851" lon="3.22933">
        <ele>904</ele>
        <time>2015-12-06T09:58:39Z</time>
      </trkpt>
      <trkpt lat="44.13851" lon="3.22937">
        <ele>904</ele>
        <time>2015-12-06T09:58:40Z</time>
      </trkpt>
      <trkpt lat="44.1385" lon="3.22941">
        <ele>903.5</ele>
        <time>2015-12-06T09:58:41Z</time>
      </trkpt>
      <trkpt lat="44.13849" lon="3.22956">
        <ele>902</ele>
        <time>2015-12-06T09:58:43Z</time>
      </trkpt>
      <trkpt lat="44.13845" lon="3.22963">
        <ele>900.5</ele>
        <time>2015-12-06T09:58:44Z</time>
      </trkpt>
      <trkpt lat="44.13842" lon="3.22973">
        <ele>899</ele>
        <time>2015-12-06T10:01:12Z</time>
      </trkpt>
      <trkpt lat="44.13841" lon="3.22976">
        <ele>898.5</ele>
        <time>2015-12-06T10:01:13Z</time>
      </trkpt>
      <trkpt lat="44.13839" lon="3.2298">
        <ele>898.5</ele>
        <time>2015-12-06T10:01:14Z</time>
      </trkpt>
      <trkpt lat="44.13837" lon="3.22983">
        <ele>898.5</ele>
        <time>2015-12-06T10:01:15Z</time>
      </trkpt>
      <trkpt lat="44.13834" lon="3.22987">
        <ele>898</ele>
        <time>2015-12-06T10:01:16Z</time>
      </trkpt>
      <trkpt lat="44.13831" lon="3.2299">
        <ele>898</ele>
        <time>2015-12-06T10:01:17Z</time>
      </trkpt>
      <trkpt lat="44.13829" lon="3.22993">
        <ele>897.5</ele>
        <time>2015-12-06T10:01:18Z</time>
      </trkpt>
      <trkpt lat="44.13827" lon="3.22996">
        <ele>897.5</ele>
        <time>2015-12-06T10:01:19Z</time>
      </trkpt>
      <trkpt lat="44.13826" lon="3.22998">
        <ele>898</ele>
        <time>2015-12-06T10:01:20Z</time>
      </trkpt>
      <trkpt lat="44.13826" lon="3.23001">
        <ele>898</ele>
        <time>2015-12-06T10:01:21Z</time>
      </trkpt>
      <trkpt lat="44.13824" lon="3.23004">
        <ele>898</ele>
        <time>2015-12-06T10:01:22Z</time>
      </trkpt>
      <trkpt lat="44.13822" lon="3.23006">
        <ele>898</ele>
        <time>2015-12-06T10:01:23Z</time>
      </trkpt>
      <trkpt lat="44.1382" lon="3.23008">
        <ele>898</ele>
        <time>2015-12-06T10:01:24Z</time>
      </trkpt>
      <trkpt lat="44.13817" lon="3.23009">
        <ele>897.5</ele>
        <time>2015-12-06T10:01:25Z</time>
      </trkpt>
      <trkpt lat="44.13815" lon="3.23007">
        <ele>897.5</ele>
        <time>2015-12-06T10:01:26Z</time>
      </trkpt>
      <trkpt lat="44.13812" lon="3.23006">
        <ele>897</ele>
        <time>2015-12-06T10:01:27Z</time>
      </trkpt>
      <trkpt lat="44.13809" lon="3.23004">
        <ele>897</ele>
        <time>2015-12-06T10:01:28Z</time>
      </trkpt>
      <trkpt lat="44.13805" lon="3.23002">
        <ele>895</ele>
        <time>2015-12-06T10:01:29Z</time>
      </trkpt>
      <trkpt lat="44.13802" lon="3.23002">
        <ele>894</ele>
        <time>2015-12-06T10:01:30Z</time>
      </trkpt>
      <trkpt lat="44.13797" lon="3.23003">
        <ele>893.5</ele>
        <time>2015-12-06T10:01:31Z</time>
      </trkpt>
      <trkpt lat="44.13792" lon="3.23007">
        <ele>893</ele>
        <time>2015-12-06T10:01:32Z</time>
      </trkpt>
      <trkpt lat="44.13788" lon="3.23011">
        <ele>893</ele>
        <time>2015-12-06T10:01:33Z</time>
      </trkpt>
      <trkpt lat="44.13785" lon="3.23015">
        <ele>893</ele>
        <time>2015-12-06T10:01:34Z</time>
      </trkpt>
      <trkpt lat="44.13783" lon="3.23017">
        <ele>891</ele>
        <time>2015-12-06T10:01:36Z</time>
      </trkpt>
      <trkpt lat="44.13783" lon="3.23018">
        <ele>892</ele>
        <time>2015-12-06T10:01:43Z</time>
      </trkpt>
      <trkpt lat="44.13783" lon="3.23016">
        <ele>891.5</ele>
        <time>2015-12-06T10:01:45Z</time>
      </trkpt>
      <trkpt lat="44.13782" lon="3.23016">
        <ele>891.5</ele>
        <time>2015-12-06T10:01:46Z</time>
      </trkpt>
      <trkpt lat="44.1378" lon="3.23015">
        <ele>890.5</ele>
        <time>2015-12-06T10:02:13Z</time>
      </trkpt>
      <trkpt lat="44.13781" lon="3.23013">
        <ele>890</ele>
        <time>2015-12-06T10:02:15Z</time>
      </trkpt>
      <trkpt lat="44.13782" lon="3.23012">
        <ele>890</ele>
        <time>2015-12-06T10:02:16Z</time>
      </trkpt>
      <trkpt lat="44.13782" lon="3.23011">
        <ele>889.5</ele>
        <time>2015-12-06T10:02:17Z</time>
      </trkpt>
      <trkpt lat="44.13783" lon="3.23011">
        <ele>890</ele>
        <time>2015-12-06T10:02:18Z</time>
      </trkpt>
      <trkpt lat="44.13784" lon="3.2301">
        <ele>890</ele>
        <time>2015-12-06T10:02:19Z</time>
      </trkpt>
      <trkpt lat="44.13784" lon="3.2301">
        <ele>890</ele>
        <time>2015-12-06T10:02:20Z</time>
      </trkpt>
      <trkpt lat="44.13785" lon="3.23008">
        <ele>890</ele>
        <time>2015-12-06T10:02:21Z</time>
      </trkpt>
      <trkpt lat="44.13786" lon="3.23008">
        <ele>890</ele>
        <time>2015-12-06T10:02:22Z</time>
      </trkpt>
      <trkpt lat="44.13786" lon="3.23007">
        <ele>889.5</ele>
        <time>2015-12-06T10:02:23Z</time>
      </trkpt>
      <trkpt lat="44.13786" lon="3.23006">
        <ele>889.5</ele>
        <time>2015-12-06T10:02:24Z</time>
      </trkpt>
      <trkpt lat="44.13786" lon="3.23005">
        <ele>889.5</ele>
        <time>2015-12-06T10:02:25Z</time>
      </trkpt>
      <trkpt lat="44.13787" lon="3.23004">
        <ele>889.5</ele>
        <time>2015-12-06T10:02:26Z</time>
      </trkpt>
      <trkpt lat="44.13788" lon="3.23003">
        <ele>889</ele>
        <time>2015-12-06T10:02:27Z</time>
      </trkpt>
      <trkpt lat="44.13789" lon="3.23002">
        <ele>888.5</ele>
        <time>2015-12-06T10:02:28Z</time>
      </trkpt>
      <trkpt lat="44.1379" lon="3.23003">
        <ele>888.5</ele>
        <time>2015-12-06T10:02:29Z</time>
      </trkpt>
      <trkpt lat="44.1379" lon="3.23003">
        <ele>888</ele>
        <time>2015-12-06T10:02:30Z</time>
      </trkpt>
      <trkpt lat="44.13791" lon="3.23002">
        <ele>888</ele>
        <time>2015-12-06T10:02:31Z</time>
      </trkpt>
      <trkpt lat="44.13792" lon="3.23003">
        <ele>888</ele>
        <time>2015-12-06T10:02:32Z</time>
      </trkpt>
      <trkpt lat="44.13793" lon="3.23003">
        <ele>889</ele>
        <time>2015-12-06T10:02:33Z</time>
      </trkpt>
      <trkpt lat="44.13794" lon="3.23002">
        <ele>889.5</ele>
        <time>2015-12-06T10:02:34Z</time>
      </trkpt>
      <trkpt lat="44.13795" lon="3.23001">
        <ele>891</ele>
        <time>2015-12-06T10:02:35Z</time>
      </trkpt>
      <trkpt lat="44.13796" lon="3.23001">
        <ele>891</ele>
        <time>2015-12-06T10:02:36Z</time>
      </trkpt>
      <trkpt lat="44.13797" lon="3.23001">
        <ele>891.5</ele>
        <time>2015-12-06T10:02:37Z</time>
      </trkpt>
      <trkpt lat="44.13798" lon="3.23001">
        <ele>891.5</ele>
        <time>2015-12-06T10:02:38Z</time>
      </trkpt>
      <trkpt lat="44.138" lon="3.23">
        <ele>892.5</ele>
        <time>2015-12-06T10:02:39Z</time>
      </trkpt>
      <trkpt lat="44.138" lon="3.23001">
        <ele>892.5</ele>
        <time>2015-12-06T10:02:40Z</time>
      </trkpt>
      <trkpt lat="44.13801" lon="3.23001">
        <ele>892.5</ele>
        <time>2015-12-06T10:02:41Z</time>
      </trkpt>
      <trkpt lat="44.13803" lon="3.23002">
        <ele>892.5</ele>
        <time>2015-12-06T10:02:42Z</time>
      </trkpt>
      <trkpt lat="44.13803" lon="3.23002">
        <ele>892.5</ele>
        <time>2015-12-06T10:02:43Z</time>
      </trkpt>
      <trkpt lat="44.13805" lon="3.23003">
        <ele>893</ele>
        <time>2015-12-06T10:02:44Z</time>
      </trkpt>
      <trkpt lat="44.13806" lon="3.23003">
        <ele>894</ele>
        <time>2015-12-06T10:02:45Z</time>
      </trkpt>
      <trkpt lat="44.13806" lon="3.23001">
        <ele>896</ele>
        <time>2015-12-06T10:02:46Z</time>
      </trkpt>
      <trkpt lat="44.13807" lon="3.23001">
        <ele>896.5</ele>
        <time>2015-12-06T10:02:47Z</time>
      </trkpt>
      <trkpt lat="44.13808" lon="3.23001">
        <ele>897</ele>
        <time>2015-12-06T10:02:48Z</time>
      </trkpt>
      <trkpt lat="44.13809" lon="3.23001">
        <ele>898</ele>
        <time>2015-12-06T10:02:49Z</time>
      </trkpt>
      <trkpt lat="44.1381" lon="3.23001">
        <ele>898</ele>
        <time>2015-12-06T10:02:50Z</time>
      </trkpt>
      <trkpt lat="44.1381" lon="3.23001">
        <ele>898</ele>
        <time>2015-12-06T10:02:51Z</time>
      </trkpt>
      <trkpt lat="44.13811" lon="3.23002">
        <ele>897</ele>
        <time>2015-12-06T10:02:52Z</time>
      </trkpt>
      <trkpt lat="44.13811" lon="3.23002">
        <ele>897.5</ele>
        <time>2015-12-06T10:02:53Z</time>
      </trkpt>
      <trkpt lat="44.13812" lon="3.23002">
        <ele>897</ele>
        <time>2015-12-06T10:02:54Z</time>
      </trkpt>
      <trkpt lat="44.13812" lon="3.23004">
        <ele>896.5</ele>
        <time>2015-12-06T10:03:13Z</time>
      </trkpt>
      <trkpt lat="44.13812" lon="3.23006">
        <ele>896</ele>
        <time>2015-12-06T10:03:17Z</time>
      </trkpt>
      <trkpt lat="44.13812" lon="3.23007">
        <ele>895.5</ele>
        <time>2015-12-06T10:03:19Z</time>
      </trkpt>
      <trkpt lat="44.13811" lon="3.23007">
        <ele>895</ele>
        <time>2015-12-06T10:03:20Z</time>
      </trkpt>
      <trkpt lat="44.1381" lon="3.23007">
        <ele>894</ele>
        <time>2015-12-06T10:03:21Z</time>
      </trkpt>
      <trkpt lat="44.13809" lon="3.23007">
        <ele>894</ele>
        <time>2015-12-06T10:03:22Z</time>
      </trkpt>
      <trkpt lat="44.13809" lon="3.23007">
        <ele>893.5</ele>
        <time>2015-12-06T10:03:23Z</time>
      </trkpt>
      <trkpt lat="44.13808" lon="3.23007">
        <ele>893.5</ele>
        <time>2015-12-06T10:03:24Z</time>
      </trkpt>
      <trkpt lat="44.13808" lon="3.23007">
        <ele>893</ele>
        <time>2015-12-06T10:03:25Z</time>
      </trkpt>
      <trkpt lat="44.13807" lon="3.23007">
        <ele>893</ele>
        <time>2015-12-06T10:03:26Z</time>
      </trkpt>
      <trkpt lat="44.13806" lon="3.23006">
        <ele>893</ele>
        <time>2015-12-06T10:03:27Z</time>
      </trkpt>
      <trkpt lat="44.13805" lon="3.23007">
        <ele>893</ele>
        <time>2015-12-06T10:03:28Z</time>
      </trkpt>
      <trkpt lat="44.13804" lon="3.23006">
        <ele>892.5</ele>
        <time>2015-12-06T10:03:29Z</time>
      </trkpt>
      <trkpt lat="44.13803" lon="3.23006">
        <ele>891.5</ele>
        <time>2015-12-06T10:03:30Z</time>
      </trkpt>
      <trkpt lat="44.13802" lon="3.23005">
        <ele>891.5</ele>
        <time>2015-12-06T10:03:31Z</time>
      </trkpt>
      <trkpt lat="44.13799" lon="3.23004">
        <ele>891</ele>
        <time>2015-12-06T10:03:32Z</time>
      </trkpt>
      <trkpt lat="44.13796" lon="3.23002">
        <ele>890.5</ele>
        <time>2015-12-06T10:03:33Z</time>
      </trkpt>
      <trkpt lat="44.13793" lon="3.23002">
        <ele>889.5</ele>
        <time>2015-12-06T10:03:34Z</time>
      </trkpt>
      <trkpt lat="44.1379" lon="3.23005">
        <ele>890.5</ele>
        <time>2015-12-06T10:03:35Z</time>
      </trkpt>
      <trkpt lat="44.13785" lon="3.23009">
        <ele>889.5</ele>
        <time>2015-12-06T10:03:36Z</time>
      </trkpt>
      <trkpt lat="44.13781" lon="3.23014">
        <ele>888.5</ele>
        <time>2015-12-06T10:03:37Z</time>
      </trkpt>
      <trkpt lat="44.13777" lon="3.2302">
        <ele>888.5</ele>
        <time>2015-12-06T10:03:38Z</time>
      </trkpt>
      <trkpt lat="44.13777" lon="3.23027">
        <ele>889</ele>
        <time>2015-12-06T10:03:39Z</time>
      </trkpt>
      <trkpt lat="44.13775" lon="3.23035">
        <ele>888.5</ele>
        <time>2015-12-06T10:03:40Z</time>
      </trkpt>
      <trkpt lat="44.13774" lon="3.23042">
        <ele>888.5</ele>
        <time>2015-12-06T10:03:41Z</time>
      </trkpt>
      <trkpt lat="44.13773" lon="3.23049">
        <ele>889</ele>
        <time>2015-12-06T10:03:42Z</time>
      </trkpt>
      <trkpt lat="44.13771" lon="3.23053">
        <ele>889</ele>
        <time>2015-12-06T10:03:43Z</time>
      </trkpt>
      <trkpt lat="44.1377" lon="3.2306">
        <ele>889.5</ele>
        <time>2015-12-06T10:03:44Z</time>
      </trkpt>
      <trkpt lat="44.13768" lon="3.23064">
        <ele>890.5</ele>
        <time>2015-12-06T10:03:45Z</time>
      </trkpt>
      <trkpt lat="44.13766" lon="3.23066">
        <ele>891.5</ele>
        <time>2015-12-06T10:03:46Z</time>
      </trkpt>
      <trkpt lat="44.13767" lon="3.23082">
        <ele>888</ele>
        <time>2015-12-06T10:03:48Z</time>
      </trkpt>
      <trkpt lat="44.13766" lon="3.23089">
        <ele>888.5</ele>
        <time>2015-12-06T10:03:49Z</time>
      </trkpt>
      <trkpt lat="44.13766" lon="3.23095">
        <ele>890.5</ele>
        <time>2015-12-06T10:03:50Z</time>
      </trkpt>
      <trkpt lat="44.13765" lon="3.23102">
        <ele>891</ele>
        <time>2015-12-06T10:03:51Z</time>
      </trkpt>
      <trkpt lat="44.13764" lon="3.23109">
        <ele>891</ele>
        <time>2015-12-06T10:03:52Z</time>
      </trkpt>
      <trkpt lat="44.13763" lon="3.23115">
        <ele>891.5</ele>
        <time>2015-12-06T10:03:53Z</time>
      </trkpt>
      <trkpt lat="44.13761" lon="3.23119">
        <ele>892</ele>
        <time>2015-12-06T10:03:54Z</time>
      </trkpt>
      <trkpt lat="44.1376" lon="3.23123">
        <ele>892.5</ele>
        <time>2015-12-06T10:03:55Z</time>
      </trkpt>
      <trkpt lat="44.13759" lon="3.23126">
        <ele>892.5</ele>
        <time>2015-12-06T10:03:56Z</time>
      </trkpt>
      <trkpt lat="44.13759" lon="3.23128">
        <ele>893</ele>
        <time>2015-12-06T10:03:57Z</time>
      </trkpt>
      <trkpt lat="44.13758" lon="3.2313">
        <ele>893</ele>
        <time>2015-12-06T10:03:58Z</time>
      </trkpt>
      <trkpt lat="44.13758" lon="3.23132">
        <ele>893</ele>
        <time>2015-12-06T10:03:59Z</time>
      </trkpt>
      <trkpt lat="44.13757" lon="3.23133">
        <ele>893</ele>
        <time>2015-12-06T10:04:00Z</time>
      </trkpt>
      <trkpt lat="44.13756" lon="3.23135">
        <ele>893</ele>
        <time>2015-12-06T10:04:01Z</time>
      </trkpt>
      <trkpt lat="44.13755" lon="3.23136">
        <ele>893</ele>
        <time>2015-12-06T10:04:02Z</time>
      </trkpt>
      <trkpt lat="44.13755" lon="3.23137">
        <ele>892.5</ele>
        <time>2015-12-06T10:04:03Z</time>
      </trkpt>
      <trkpt lat="44.13754" lon="3.23137">
        <ele>892</ele>
        <time>2015-12-06T10:04:04Z</time>
      </trkpt>
      <trkpt lat="44.13754" lon="3.23138">
        <ele>892</ele>
        <time>2015-12-06T10:04:05Z</time>
      </trkpt>
      <trkpt lat="44.13754" lon="3.23139">
        <ele>892</ele>
        <time>2015-12-06T10:04:06Z</time>
      </trkpt>
      <trkpt lat="44.13754" lon="3.2314">
        <ele>892</ele>
        <time>2015-12-06T10:04:07Z</time>
      </trkpt>
      <trkpt lat="44.13754" lon="3.2314">
        <ele>892</ele>
        <time>2015-12-06T10:04:10Z</time>
      </trkpt>
      <trkpt lat="44.13754" lon="3.23141">
        <ele>891</ele>
        <time>2015-12-06T10:04:13Z</time>
      </trkpt>
      <trkpt lat="44.13754" lon="3.23142">
        <ele>890</ele>
        <time>2015-12-06T10:04:20Z</time>
      </trkpt>
      <trkpt lat="44.13754" lon="3.23142">
        <ele>889.5</ele>
        <time>2015-12-06T10:04:22Z</time>
      </trkpt>
      <trkpt lat="44.13753" lon="3.23143">
        <ele>889.5</ele>
        <time>2015-12-06T10:04:23Z</time>
      </trkpt>
      <trkpt lat="44.13755" lon="3.23142">
        <ele>891</ele>
        <time>2015-12-06T10:04:31Z</time>
      </trkpt>
      <trkpt lat="44.13759" lon="3.23144">
        <ele>891.5</ele>
        <time>2015-12-06T10:04:33Z</time>
      </trkpt>
      <trkpt lat="44.13759" lon="3.23145">
        <ele>892.5</ele>
        <time>2015-12-06T10:04:34Z</time>
      </trkpt>
      <trkpt lat="44.13758" lon="3.23147">
        <ele>892</ele>
        <time>2015-12-06T10:04:35Z</time>
      </trkpt>
      <trkpt lat="44.13756" lon="3.2315">
        <ele>892</ele>
        <time>2015-12-06T10:04:36Z</time>
      </trkpt>
      <trkpt lat="44.13748" lon="3.23157">
        <ele>888.5</ele>
        <time>2015-12-06T10:04:38Z</time>
      </trkpt>
      <trkpt lat="44.13743" lon="3.2316">
        <ele>889</ele>
        <time>2015-12-06T10:04:39Z</time>
      </trkpt>
      <trkpt lat="44.13742" lon="3.23168">
        <ele>889.5</ele>
        <time>2015-12-06T10:04:40Z</time>
      </trkpt>
      <trkpt lat="44.13739" lon="3.23174">
        <ele>889.5</ele>
        <time>2015-12-06T10:04:41Z</time>
      </trkpt>
      <trkpt lat="44.13736" lon="3.23179">
        <ele>889.5</ele>
        <time>2015-12-06T10:04:42Z</time>
      </trkpt>
      <trkpt lat="44.13729" lon="3.23185">
        <ele>892</ele>
        <time>2015-12-06T10:04:44Z</time>
      </trkpt>
      <trkpt lat="44.13721" lon="3.23191">
        <ele>891</ele>
        <time>2015-12-06T10:04:46Z</time>
      </trkpt>
      <trkpt lat="44.13716" lon="3.23194">
        <ele>892.5</ele>
        <time>2015-12-06T10:04:47Z</time>
      </trkpt>
      <trkpt lat="44.13712" lon="3.23198">
        <ele>893.5</ele>
        <time>2015-12-06T10:04:48Z</time>
      </trkpt>
      <trkpt lat="44.13706" lon="3.23201">
        <ele>894</ele>
        <time>2015-12-06T10:04:49Z</time>
      </trkpt>
      <trkpt lat="44.13701" lon="3.23206">
        <ele>893</ele>
        <time>2015-12-06T10:04:50Z</time>
      </trkpt>
      <trkpt lat="44.13696" lon="3.2321">
        <ele>891.5</ele>
        <time>2015-12-06T10:04:51Z</time>
      </trkpt>
      <trkpt lat="44.13693" lon="3.23213">
        <ele>891.5</ele>
        <time>2015-12-06T10:04:52Z</time>
      </trkpt>
      <trkpt lat="44.13688" lon="3.23217">
        <ele>892</ele>
        <time>2015-12-06T10:04:53Z</time>
      </trkpt>
      <trkpt lat="44.13685" lon="3.2322">
        <ele>891.5</ele>
        <time>2015-12-06T10:04:54Z</time>
      </trkpt>
      <trkpt lat="44.13683" lon="3.23224">
        <ele>891</ele>
        <time>2015-12-06T10:04:55Z</time>
      </trkpt>
      <trkpt lat="44.13681" lon="3.23229">
        <ele>890</ele>
        <time>2015-12-06T10:04:56Z</time>
      </trkpt>
      <trkpt lat="44.13679" lon="3.23231">
        <ele>891</ele>
        <time>2015-12-06T10:04:56Z</time>
      </trkpt>
      <trkpt lat="44.13678" lon="3.23233">
        <ele>892</ele>
        <time>2015-12-06T10:04:57Z</time>
      </trkpt>
      <trkpt lat="44.13675" lon="3.23236">
        <ele>891</ele>
        <time>2015-12-06T10:04:58Z</time>
      </trkpt>
      <trkpt lat="44.13672" lon="3.23239">
        <ele>890</ele>
        <time>2015-12-06T10:04:59Z</time>
      </trkpt>
      <trkpt lat="44.1367" lon="3.23242">
        <ele>889.5</ele>
        <time>2015-12-06T10:05:00Z</time>
      </trkpt>
      <trkpt lat="44.13667" lon="3.23244">
        <ele>892</ele>
        <time>2015-12-06T10:05:01Z</time>
      </trkpt>
      <trkpt lat="44.13664" lon="3.23246">
        <ele>892.5</ele>
        <time>2015-12-06T10:05:02Z</time>
      </trkpt>
      <trkpt lat="44.13661" lon="3.23249">
        <ele>892.5</ele>
        <time>2015-12-06T10:05:03Z</time>
      </trkpt>
      <trkpt lat="44.13657" lon="3.23251">
        <ele>891.5</ele>
        <time>2015-12-06T10:05:04Z</time>
      </trkpt>
      <trkpt lat="44.13652" lon="3.23255">
        <ele>889</ele>
        <time>2015-12-06T10:05:05Z</time>
      </trkpt>
      <trkpt lat="44.13648" lon="3.23255">
        <ele>890</ele>
        <time>2015-12-06T10:05:06Z</time>
      </trkpt>
      <trkpt lat="44.13644" lon="3.23259">
        <ele>888</ele>
        <time>2015-12-06T10:05:07Z</time>
      </trkpt>
      <trkpt lat="44.1364" lon="3.23261">
        <ele>888</ele>
        <time>2015-12-06T10:05:08Z</time>
      </trkpt>
      <trkpt lat="44.13635" lon="3.23264">
        <ele>886.5</ele>
        <time>2015-12-06T10:05:09Z</time>
      </trkpt>
      <trkpt lat="44.13631" lon="3.23266">
        <ele>886</ele>
        <time>2015-12-06T10:05:10Z</time>
      </trkpt>
      <trkpt lat="44.13627" lon="3.23269">
        <ele>886.5</ele>
        <time>2015-12-06T10:05:11Z</time>
      </trkpt>
      <trkpt lat="44.13624" lon="3.2327">
        <ele>886.5</ele>
        <time>2015-12-06T10:05:12Z</time>
      </trkpt>
      <trkpt lat="44.13616" lon="3.23276">
        <ele>887</ele>
        <time>2015-12-06T10:05:14Z</time>
      </trkpt>
      <trkpt lat="44.13611" lon="3.23278">
        <ele>886</ele>
        <time>2015-12-06T10:05:15Z</time>
      </trkpt>
      <trkpt lat="44.13606" lon="3.23282">
        <ele>885.5</ele>
        <time>2015-12-06T10:05:16Z</time>
      </trkpt>
      <trkpt lat="44.13602" lon="3.23287">
        <ele>885</ele>
        <time>2015-12-06T10:05:17Z</time>
      </trkpt>
      <trkpt lat="44.13598" lon="3.23291">
        <ele>886</ele>
        <time>2015-12-06T10:05:18Z</time>
      </trkpt>
      <trkpt lat="44.13594" lon="3.23294">
        <ele>885.5</ele>
        <time>2015-12-06T10:05:19Z</time>
      </trkpt>
      <trkpt lat="44.13593" lon="3.23304">
        <ele>886</ele>
        <time>2015-12-06T10:05:21Z</time>
      </trkpt>
      <trkpt lat="44.13589" lon="3.23307">
        <ele>886</ele>
        <time>2015-12-06T10:05:22Z</time>
      </trkpt>
      <trkpt lat="44.13586" lon="3.2331">
        <ele>885</ele>
        <time>2015-12-06T10:05:23Z</time>
      </trkpt>
      <trkpt lat="44.13585" lon="3.23314">
        <ele>885</ele>
        <time>2015-12-06T10:05:24Z</time>
      </trkpt>
      <trkpt lat="44.13582" lon="3.23317">
        <ele>884</ele>
        <time>2015-12-06T10:05:25Z</time>
      </trkpt>
      <trkpt lat="44.1358" lon="3.23318">
        <ele>884</ele>
        <time>2015-12-06T10:05:26Z</time>
      </trkpt>
      <trkpt lat="44.13579" lon="3.23319">
        <ele>884.5</ele>
        <time>2015-12-06T10:05:27Z</time>
      </trkpt>
      <trkpt lat="44.13584" lon="3.23324">
        <ele>883</ele>
        <time>2015-12-06T10:05:29Z</time>
      </trkpt>
      <trkpt lat="44.13585" lon="3.23324">
        <ele>883</ele>
        <time>2015-12-06T10:05:30Z</time>
      </trkpt>
      <trkpt lat="44.13584" lon="3.23324">
        <ele>883</ele>
        <time>2015-12-06T10:05:31Z</time>
      </trkpt>
      <trkpt lat="44.13583" lon="3.23325">
        <ele>883</ele>
        <time>2015-12-06T10:05:33Z</time>
      </trkpt>
      <trkpt lat="44.13581" lon="3.23327">
        <ele>883</ele>
        <time>2015-12-06T10:05:34Z</time>
      </trkpt>
      <trkpt lat="44.1358" lon="3.2333">
        <ele>883.5</ele>
        <time>2015-12-06T10:05:35Z</time>
      </trkpt>
      <trkpt lat="44.13578" lon="3.23332">
        <ele>883</ele>
        <time>2015-12-06T10:05:36Z</time>
      </trkpt>
      <trkpt lat="44.13576" lon="3.23336">
        <ele>884</ele>
        <time>2015-12-06T10:05:37Z</time>
      </trkpt>
      <trkpt lat="44.13573" lon="3.23339">
        <ele>883.5</ele>
        <time>2015-12-06T10:05:38Z</time>
      </trkpt>
      <trkpt lat="44.1357" lon="3.23343">
        <ele>883.5</ele>
        <time>2015-12-06T10:05:39Z</time>
      </trkpt>
      <trkpt lat="44.13567" lon="3.23348">
        <ele>883</ele>
        <time>2015-12-06T10:05:40Z</time>
      </trkpt>
      <trkpt lat="44.13564" lon="3.23353">
        <ele>883</ele>
        <time>2015-12-06T10:05:41Z</time>
      </trkpt>
      <trkpt lat="44.13561" lon="3.2336">
        <ele>883.5</ele>
        <time>2015-12-06T10:05:42Z</time>
      </trkpt>
      <trkpt lat="44.13558" lon="3.23366">
        <ele>884</ele>
        <time>2015-12-06T10:05:43Z</time>
      </trkpt>
      <trkpt lat="44.13556" lon="3.23373">
        <ele>884</ele>
        <time>2015-12-06T10:05:44Z</time>
      </trkpt>
      <trkpt lat="44.13556" lon="3.2338">
        <ele>884</ele>
        <time>2015-12-06T10:05:45Z</time>
      </trkpt>
      <trkpt lat="44.13556" lon="3.23388">
        <ele>883.5</ele>
        <time>2015-12-06T10:05:46Z</time>
      </trkpt>
      <trkpt lat="44.13557" lon="3.23394">
        <ele>883.5</ele>
        <time>2015-12-06T10:05:47Z</time>
      </trkpt>
      <trkpt lat="44.13557" lon="3.23401">
        <ele>883</ele>
        <time>2015-12-06T10:05:48Z</time>
      </trkpt>
      <trkpt lat="44.13555" lon="3.23407">
        <ele>882</ele>
        <time>2015-12-06T10:05:49Z</time>
      </trkpt>
      <trkpt lat="44.13553" lon="3.23415">
        <ele>881</ele>
        <time>2015-12-06T10:05:50Z</time>
      </trkpt>
      <trkpt lat="44.1355" lon="3.23425">
        <ele>880</ele>
        <time>2015-12-06T10:05:51Z</time>
      </trkpt>
      <trkpt lat="44.13548" lon="3.23435">
        <ele>878.5</ele>
        <time>2015-12-06T10:05:52Z</time>
      </trkpt>
      <trkpt lat="44.13546" lon="3.23445">
        <ele>877.5</ele>
        <time>2015-12-06T10:05:53Z</time>
      </trkpt>
      <trkpt lat="44.13544" lon="3.23454">
        <ele>876.5</ele>
        <time>2015-12-06T10:05:54Z</time>
      </trkpt>
      <trkpt lat="44.1354" lon="3.23462">
        <ele>875.5</ele>
        <time>2015-12-06T10:05:55Z</time>
      </trkpt>
      <trkpt lat="44.13536" lon="3.2347">
        <ele>874.5</ele>
        <time>2015-12-06T10:05:56Z</time>
      </trkpt>
      <trkpt lat="44.13534" lon="3.2348">
        <ele>873</ele>
        <time>2015-12-06T10:05:57Z</time>
      </trkpt>
      <trkpt lat="44.13531" lon="3.23491">
        <ele>872</ele>
        <time>2015-12-06T10:05:58Z</time>
      </trkpt>
      <trkpt lat="44.13527" lon="3.23501">
        <ele>871.5</ele>
        <time>2015-12-06T10:05:59Z</time>
      </trkpt>
      <trkpt lat="44.13523" lon="3.23512">
        <ele>870.5</ele>
        <time>2015-12-06T10:06:00Z</time>
      </trkpt>
      <trkpt lat="44.13519" lon="3.23522">
        <ele>869.5</ele>
        <time>2015-12-06T10:06:01Z</time>
      </trkpt>
      <trkpt lat="44.13515" lon="3.2353">
        <ele>868.5</ele>
        <time>2015-12-06T10:06:02Z</time>
      </trkpt>
      <trkpt lat="44.13509" lon="3.23529">
        <ele>865</ele>
        <time>2015-12-06T10:06:06Z</time>
      </trkpt>
      <trkpt lat="44.13506" lon="3.23528">
        <ele>864.5</ele>
        <time>2015-12-06T10:06:07Z</time>
      </trkpt>
      <trkpt lat="44.13495" lon="3.23533">
        <ele>861.5</ele>
        <time>2015-12-06T10:06:09Z</time>
      </trkpt>
      <trkpt lat="44.13487" lon="3.23549">
        <ele>863.5</ele>
        <time>2015-12-06T10:06:11Z</time>
      </trkpt>
      <trkpt lat="44.13485" lon="3.23558">
        <ele>863</ele>
        <time>2015-12-06T10:06:12Z</time>
      </trkpt>
      <trkpt lat="44.13482" lon="3.23568">
        <ele>862.5</ele>
        <time>2015-12-06T10:06:13Z</time>
      </trkpt>
      <trkpt lat="44.13481" lon="3.2358">
        <ele>860.5</ele>
        <time>2015-12-06T10:06:14Z</time>
      </trkpt>
      <trkpt lat="44.13479" lon="3.23591">
        <ele>859.5</ele>
        <time>2015-12-06T10:06:15Z</time>
      </trkpt>
      <trkpt lat="44.13477" lon="3.23601">
        <ele>858</ele>
        <time>2015-12-06T10:06:16Z</time>
      </trkpt>
      <trkpt lat="44.13481" lon="3.23616">
        <ele>858</ele>
        <time>2015-12-06T10:06:18Z</time>
      </trkpt>
      <trkpt lat="44.1348" lon="3.23624">
        <ele>856.5</ele>
        <time>2015-12-06T10:06:19Z</time>
      </trkpt>
      <trkpt lat="44.13477" lon="3.2363">
        <ele>856</ele>
        <time>2015-12-06T10:06:20Z</time>
      </trkpt>
      <trkpt lat="44.13473" lon="3.23632">
        <ele>856</ele>
        <time>2015-12-06T10:06:21Z</time>
      </trkpt>
      <trkpt lat="44.13469" lon="3.23634">
        <ele>857.5</ele>
        <time>2015-12-06T10:06:22Z</time>
      </trkpt>
      <trkpt lat="44.13464" lon="3.23636">
        <ele>858.5</ele>
        <time>2015-12-06T10:06:23Z</time>
      </trkpt>
      <trkpt lat="44.13459" lon="3.2364">
        <ele>858</ele>
        <time>2015-12-06T10:06:24Z</time>
      </trkpt>
      <trkpt lat="44.13456" lon="3.23645">
        <ele>858.5</ele>
        <time>2015-12-06T10:06:25Z</time>
      </trkpt>
      <trkpt lat="44.1345" lon="3.2365">
        <ele>857.5</ele>
        <time>2015-12-06T10:06:26Z</time>
      </trkpt>
      <trkpt lat="44.13445" lon="3.23654">
        <ele>857</ele>
        <time>2015-12-06T10:06:27Z</time>
      </trkpt>
      <trkpt lat="44.13438" lon="3.23657">
        <ele>857</ele>
        <time>2015-12-06T10:06:28Z</time>
      </trkpt>
      <trkpt lat="44.13432" lon="3.2366">
        <ele>857</ele>
        <time>2015-12-06T10:06:29Z</time>
      </trkpt>
      <trkpt lat="44.13425" lon="3.23662">
        <ele>856.5</ele>
        <time>2015-12-06T10:06:30Z</time>
      </trkpt>
      <trkpt lat="44.13419" lon="3.23664">
        <ele>856</ele>
        <time>2015-12-06T10:06:31Z</time>
      </trkpt>
      <trkpt lat="44.13412" lon="3.23663">
        <ele>855</ele>
        <time>2015-12-06T10:06:32Z</time>
      </trkpt>
      <trkpt lat="44.13406" lon="3.23661">
        <ele>855</ele>
        <time>2015-12-06T10:06:33Z</time>
      </trkpt>
      <trkpt lat="44.134" lon="3.23657">
        <ele>853.5</ele>
        <time>2015-12-06T10:06:34Z</time>
      </trkpt>
      <trkpt lat="44.13395" lon="3.23651">
        <ele>851.5</ele>
        <time>2015-12-06T10:06:35Z</time>
      </trkpt>
      <trkpt lat="44.13391" lon="3.23645">
        <ele>850.5</ele>
        <time>2015-12-06T10:06:36Z</time>
      </trkpt>
      <trkpt lat="44.13386" lon="3.2364">
        <ele>850</ele>
        <time>2015-12-06T10:06:37Z</time>
      </trkpt>
      <trkpt lat="44.13383" lon="3.23637">
        <ele>849.5</ele>
        <time>2015-12-06T10:06:38Z</time>
      </trkpt>
      <trkpt lat="44.13378" lon="3.23638">
        <ele>850.5</ele>
        <time>2015-12-06T10:06:39Z</time>
      </trkpt>
      <trkpt lat="44.13375" lon="3.23637">
        <ele>850</ele>
        <time>2015-12-06T10:06:40Z</time>
      </trkpt>
      <trkpt lat="44.1337" lon="3.23638">
        <ele>851.5</ele>
        <time>2015-12-06T10:06:41Z</time>
      </trkpt>
      <trkpt lat="44.13366" lon="3.23639">
        <ele>852</ele>
        <time>2015-12-06T10:06:42Z</time>
      </trkpt>
      <trkpt lat="44.13361" lon="3.23639">
        <ele>851.5</ele>
        <time>2015-12-06T10:06:43Z</time>
      </trkpt>
      <trkpt lat="44.13357" lon="3.23638">
        <ele>851.5</ele>
        <time>2015-12-06T10:06:44Z</time>
      </trkpt>
      <trkpt lat="44.13353" lon="3.23638">
        <ele>851.5</ele>
        <time>2015-12-06T10:06:45Z</time>
      </trkpt>
      <trkpt lat="44.1335" lon="3.23637">
        <ele>851.5</ele>
        <time>2015-12-06T10:06:46Z</time>
      </trkpt>
      <trkpt lat="44.13348" lon="3.23637">
        <ele>851.5</ele>
        <time>2015-12-06T10:06:47Z</time>
      </trkpt>
      <trkpt lat="44.13347" lon="3.23637">
        <ele>851</ele>
        <time>2015-12-06T10:06:48Z</time>
      </trkpt>
      <trkpt lat="44.13346" lon="3.23636">
        <ele>850.5</ele>
        <time>2015-12-06T10:06:49Z</time>
      </trkpt>
      <trkpt lat="44.13344" lon="3.23636">
        <ele>850</ele>
        <time>2015-12-06T10:06:53Z</time>
      </trkpt>
      <trkpt lat="44.13344" lon="3.23637">
        <ele>850.5</ele>
        <time>2015-12-06T10:06:54Z</time>
      </trkpt>
      <trkpt lat="44.13343" lon="3.23639">
        <ele>852</ele>
        <time>2015-12-06T10:06:57Z</time>
      </trkpt>
      <trkpt lat="44.1334" lon="3.2364">
        <ele>852.5</ele>
        <time>2015-12-06T10:07:01Z</time>
      </trkpt>
      <trkpt lat="44.13339" lon="3.23643">
        <ele>854.5</ele>
        <time>2015-12-06T10:07:02Z</time>
      </trkpt>
      <trkpt lat="44.13338" lon="3.23645">
        <ele>856.5</ele>
        <time>2015-12-06T10:07:05Z</time>
      </trkpt>
      <trkpt lat="44.13337" lon="3.23645">
        <ele>856.5</ele>
        <time>2015-12-06T10:07:06Z</time>
      </trkpt>
      <trkpt lat="44.13335" lon="3.23645">
        <ele>856.5</ele>
        <time>2015-12-06T10:07:07Z</time>
      </trkpt>
      <trkpt lat="44.13332" lon="3.23645">
        <ele>857</ele>
        <time>2015-12-06T10:07:08Z</time>
      </trkpt>
      <trkpt lat="44.13329" lon="3.23645">
        <ele>856.5</ele>
        <time>2015-12-06T10:07:09Z</time>
      </trkpt>
      <trkpt lat="44.13325" lon="3.23646">
        <ele>855</ele>
        <time>2015-12-06T10:07:10Z</time>
      </trkpt>
      <trkpt lat="44.13322" lon="3.23649">
        <ele>854.5</ele>
        <time>2015-12-06T10:07:11Z</time>
      </trkpt>
      <trkpt lat="44.1332" lon="3.23651">
        <ele>855</ele>
        <time>2015-12-06T10:07:12Z</time>
      </trkpt>
      <trkpt lat="44.13317" lon="3.23652">
        <ele>853</ele>
        <time>2015-12-06T10:07:13Z</time>
      </trkpt>
      <trkpt lat="44.13314" lon="3.23654">
        <ele>852.5</ele>
        <time>2015-12-06T10:07:14Z</time>
      </trkpt>
      <trkpt lat="44.13315" lon="3.23656">
        <ele>854</ele>
        <time>2015-12-06T10:07:15Z</time>
      </trkpt>
      <trkpt lat="44.13314" lon="3.2366">
        <ele>853</ele>
        <time>2015-12-06T10:07:16Z</time>
      </trkpt>
      <trkpt lat="44.13314" lon="3.23662">
        <ele>852.5</ele>
        <time>2015-12-06T10:07:17Z</time>
      </trkpt>
      <trkpt lat="44.13313" lon="3.23666">
        <ele>852.5</ele>
        <time>2015-12-06T10:07:18Z</time>
      </trkpt>
      <trkpt lat="44.13312" lon="3.23668">
        <ele>852</ele>
        <time>2015-12-06T10:07:19Z</time>
      </trkpt>
      <trkpt lat="44.13313" lon="3.23672">
        <ele>852.5</ele>
        <time>2015-12-06T10:07:20Z</time>
      </trkpt>
      <trkpt lat="44.13312" lon="3.23677">
        <ele>853</ele>
        <time>2015-12-06T10:07:21Z</time>
      </trkpt>
      <trkpt lat="44.1331" lon="3.23681">
        <ele>853.5</ele>
        <time>2015-12-06T10:07:22Z</time>
      </trkpt>
      <trkpt lat="44.13308" lon="3.23685">
        <ele>852.5</ele>
        <time>2015-12-06T10:07:23Z</time>
      </trkpt>
      <trkpt lat="44.13306" lon="3.23691">
        <ele>850.5</ele>
        <time>2015-12-06T10:07:24Z</time>
      </trkpt>
      <trkpt lat="44.13305" lon="3.23697">
        <ele>848.5</ele>
        <time>2015-12-06T10:07:25Z</time>
      </trkpt>
      <trkpt lat="44.13304" lon="3.23703">
        <ele>847.5</ele>
        <time>2015-12-06T10:07:26Z</time>
      </trkpt>
      <trkpt lat="44.13303" lon="3.23709">
        <ele>848</ele>
        <time>2015-12-06T10:07:27Z</time>
      </trkpt>
      <trkpt lat="44.13303" lon="3.23715">
        <ele>847.5</ele>
        <time>2015-12-06T10:07:28Z</time>
      </trkpt>
      <trkpt lat="44.13303" lon="3.23729">
        <ele>847.5</ele>
        <time>2015-12-06T10:07:30Z</time>
      </trkpt>
      <trkpt lat="44.13301" lon="3.23736">
        <ele>846.5</ele>
        <time>2015-12-06T10:07:31Z</time>
      </trkpt>
      <trkpt lat="44.13302" lon="3.23742">
        <ele>845.5</ele>
        <time>2015-12-06T10:07:32Z</time>
      </trkpt>
      <trkpt lat="44.13302" lon="3.23749">
        <ele>843.5</ele>
        <time>2015-12-06T10:07:33Z</time>
      </trkpt>
      <trkpt lat="44.13303" lon="3.23753">
        <ele>842.5</ele>
        <time>2015-12-06T10:07:34Z</time>
      </trkpt>
      <trkpt lat="44.13305" lon="3.23756">
        <ele>842</ele>
        <time>2015-12-06T10:07:35Z</time>
      </trkpt>
      <trkpt lat="44.13307" lon="3.23758">
        <ele>842.5</ele>
        <time>2015-12-06T10:07:36Z</time>
      </trkpt>
      <trkpt lat="44.13309" lon="3.23761">
        <ele>842.5</ele>
        <time>2015-12-06T10:07:37Z</time>
      </trkpt>
      <trkpt lat="44.13311" lon="3.23763">
        <ele>843.5</ele>
        <time>2015-12-06T10:07:38Z</time>
      </trkpt>
      <trkpt lat="44.13313" lon="3.23767">
        <ele>844</ele>
        <time>2015-12-06T10:07:39Z</time>
      </trkpt>
      <trkpt lat="44.13315" lon="3.2377">
        <ele>844</ele>
        <time>2015-12-06T10:07:40Z</time>
      </trkpt>
      <trkpt lat="44.13317" lon="3.23773">
        <ele>844</ele>
        <time>2015-12-06T10:07:41Z</time>
      </trkpt>
      <trkpt lat="44.13319" lon="3.23776">
        <ele>844.5</ele>
        <time>2015-12-06T10:07:42Z</time>
      </trkpt>
      <trkpt lat="44.13322" lon="3.2378">
        <ele>843.5</ele>
        <time>2015-12-06T10:07:43Z</time>
      </trkpt>
      <trkpt lat="44.13324" lon="3.23784">
        <ele>844</ele>
        <time>2015-12-06T10:07:44Z</time>
      </trkpt>
      <trkpt lat="44.13326" lon="3.23787">
        <ele>843.5</ele>
        <time>2015-12-06T10:07:45Z</time>
      </trkpt>
      <trkpt lat="44.13329" lon="3.23791">
        <ele>842.5</ele>
        <time>2015-12-06T10:07:46Z</time>
      </trkpt>
      <trkpt lat="44.13331" lon="3.23794">
        <ele>843</ele>
        <time>2015-12-06T10:07:47Z</time>
      </trkpt>
      <trkpt lat="44.13333" lon="3.23799">
        <ele>842</ele>
        <time>2015-12-06T10:07:48Z</time>
      </trkpt>
      <trkpt lat="44.13335" lon="3.23803">
        <ele>842</ele>
        <time>2015-12-06T10:07:49Z</time>
      </trkpt>
      <trkpt lat="44.13338" lon="3.23809">
        <ele>842</ele>
        <time>2015-12-06T10:07:50Z</time>
      </trkpt>
      <trkpt lat="44.1334" lon="3.23814">
        <ele>842</ele>
        <time>2015-12-06T10:07:51Z</time>
      </trkpt>
      <trkpt lat="44.13342" lon="3.23818">
        <ele>842</ele>
        <time>2015-12-06T10:07:52Z</time>
      </trkpt>
      <trkpt lat="44.13344" lon="3.23822">
        <ele>841.5</ele>
        <time>2015-12-06T10:07:53Z</time>
      </trkpt>
      <trkpt lat="44.13346" lon="3.23827">
        <ele>842.5</ele>
        <time>2015-12-06T10:07:54Z</time>
      </trkpt>
      <trkpt lat="44.13348" lon="3.23833">
        <ele>842.5</ele>
        <time>2015-12-06T10:07:55Z</time>
      </trkpt>
      <trkpt lat="44.13349" lon="3.23839">
        <ele>842.5</ele>
        <time>2015-12-06T10:07:56Z</time>
      </trkpt>
      <trkpt lat="44.1335" lon="3.23846">
        <ele>841</ele>
        <time>2015-12-06T10:07:57Z</time>
      </trkpt>
      <trkpt lat="44.13352" lon="3.23853">
        <ele>840.5</ele>
        <time>2015-12-06T10:07:58Z</time>
      </trkpt>
      <trkpt lat="44.13353" lon="3.2386">
        <ele>840</ele>
        <time>2015-12-06T10:07:59Z</time>
      </trkpt>
      <trkpt lat="44.13353" lon="3.23866">
        <ele>839</ele>
        <time>2015-12-06T10:08:00Z</time>
      </trkpt>
      <trkpt lat="44.13353" lon="3.23871">
        <ele>838</ele>
        <time>2015-12-06T10:08:01Z</time>
      </trkpt>
      <trkpt lat="44.13352" lon="3.23877">
        <ele>837.5</ele>
        <time>2015-12-06T10:08:02Z</time>
      </trkpt>
      <trkpt lat="44.13352" lon="3.23883">
        <ele>837</ele>
        <time>2015-12-06T10:08:03Z</time>
      </trkpt>
      <trkpt lat="44.13351" lon="3.23888">
        <ele>836</ele>
        <time>2015-12-06T10:08:04Z</time>
      </trkpt>
      <trkpt lat="44.1335" lon="3.23894">
        <ele>836</ele>
        <time>2015-12-06T10:08:05Z</time>
      </trkpt>
      <trkpt lat="44.13349" lon="3.23897">
        <ele>834.5</ele>
        <time>2015-12-06T10:08:06Z</time>
      </trkpt>
      <trkpt lat="44.13348" lon="3.23901">
        <ele>833</ele>
        <time>2015-12-06T10:08:07Z</time>
      </trkpt>
      <trkpt lat="44.1335" lon="3.23908">
        <ele>834.5</ele>
        <time>2015-12-06T10:08:08Z</time>
      </trkpt>
      <trkpt lat="44.13349" lon="3.23913">
        <ele>833.5</ele>
        <time>2015-12-06T10:08:09Z</time>
      </trkpt>
      <trkpt lat="44.13348" lon="3.23919">
        <ele>833</ele>
        <time>2015-12-06T10:08:11Z</time>
      </trkpt>
      <trkpt lat="44.13348" lon="3.23922">
        <ele>833.5</ele>
        <time>2015-12-06T10:08:12Z</time>
      </trkpt>
      <trkpt lat="44.13349" lon="3.23925">
        <ele>833.5</ele>
        <time>2015-12-06T10:08:13Z</time>
      </trkpt>
      <trkpt lat="44.13349" lon="3.23929">
        <ele>833.5</ele>
        <time>2015-12-06T10:08:14Z</time>
      </trkpt>
      <trkpt lat="44.13349" lon="3.23931">
        <ele>834.5</ele>
        <time>2015-12-06T10:08:15Z</time>
      </trkpt>
      <trkpt lat="44.13349" lon="3.23933">
        <ele>835</ele>
        <time>2015-12-06T10:08:16Z</time>
      </trkpt>
      <trkpt lat="44.13348" lon="3.23936">
        <ele>834.5</ele>
        <time>2015-12-06T10:08:17Z</time>
      </trkpt>
      <trkpt lat="44.13347" lon="3.23938">
        <ele>833.5</ele>
        <time>2015-12-06T10:08:18Z</time>
      </trkpt>
      <trkpt lat="44.13345" lon="3.2394">
        <ele>832</ele>
        <time>2015-12-06T10:08:19Z</time>
      </trkpt>
      <trkpt lat="44.13344" lon="3.23941">
        <ele>831</ele>
        <time>2015-12-06T10:08:20Z</time>
      </trkpt>
      <trkpt lat="44.13344" lon="3.23944">
        <ele>830</ele>
        <time>2015-12-06T10:08:21Z</time>
      </trkpt>
      <trkpt lat="44.13344" lon="3.23946">
        <ele>828.5</ele>
        <time>2015-12-06T10:08:22Z</time>
      </trkpt>
      <trkpt lat="44.13352" lon="3.23945">
        <ele>829.5</ele>
        <time>2015-12-06T10:08:24Z</time>
      </trkpt>
      <trkpt lat="44.13355" lon="3.23946">
        <ele>831.5</ele>
        <time>2015-12-06T10:08:25Z</time>
      </trkpt>
      <trkpt lat="44.13358" lon="3.23949">
        <ele>831.5</ele>
        <time>2015-12-06T10:08:26Z</time>
      </trkpt>
      <trkpt lat="44.13359" lon="3.23963">
        <ele>824.5</ele>
        <time>2015-12-06T10:08:28Z</time>
      </trkpt>
      <trkpt lat="44.13359" lon="3.2397">
        <ele>824</ele>
        <time>2015-12-06T10:08:29Z</time>
      </trkpt>
      <trkpt lat="44.13358" lon="3.23975">
        <ele>823</ele>
        <time>2015-12-06T10:08:30Z</time>
      </trkpt>
      <trkpt lat="44.13358" lon="3.23976">
        <ele>823.5</ele>
        <time>2015-12-06T10:08:33Z</time>
      </trkpt>
      <trkpt lat="44.13359" lon="3.23981">
        <ele>822.5</ele>
        <time>2015-12-06T10:08:35Z</time>
      </trkpt>
      <trkpt lat="44.13358" lon="3.23982">
        <ele>823</ele>
        <time>2015-12-06T10:08:36Z</time>
      </trkpt>
      <trkpt lat="44.13357" lon="3.23984">
        <ele>822.5</ele>
        <time>2015-12-06T10:08:37Z</time>
      </trkpt>
      <trkpt lat="44.13356" lon="3.23986">
        <ele>822</ele>
        <time>2015-12-06T10:08:38Z</time>
      </trkpt>
      <trkpt lat="44.13355" lon="3.23987">
        <ele>823</ele>
        <time>2015-12-06T10:08:39Z</time>
      </trkpt>
      <trkpt lat="44.13355" lon="3.23994">
        <ele>819</ele>
        <time>2015-12-06T10:08:41Z</time>
      </trkpt>
      <trkpt lat="44.13354" lon="3.23996">
        <ele>818</ele>
        <time>2015-12-06T10:08:42Z</time>
      </trkpt>
      <trkpt lat="44.13354" lon="3.23998">
        <ele>817.5</ele>
        <time>2015-12-06T10:08:43Z</time>
      </trkpt>
      <trkpt lat="44.13353" lon="3.24">
        <ele>817</ele>
        <time>2015-12-06T10:08:44Z</time>
      </trkpt>
      <trkpt lat="44.13353" lon="3.24002">
        <ele>817</ele>
        <time>2015-12-06T10:08:45Z</time>
      </trkpt>
      <trkpt lat="44.13352" lon="3.24003">
        <ele>816.5</ele>
        <time>2015-12-06T10:08:46Z</time>
      </trkpt>
      <trkpt lat="44.13352" lon="3.24005">
        <ele>816.5</ele>
        <time>2015-12-06T10:08:47Z</time>
      </trkpt>
      <trkpt lat="44.13351" lon="3.24006">
        <ele>817.5</ele>
        <time>2015-12-06T10:08:48Z</time>
      </trkpt>
      <trkpt lat="44.13351" lon="3.24008">
        <ele>818</ele>
        <time>2015-12-06T10:08:49Z</time>
      </trkpt>
      <trkpt lat="44.1335" lon="3.24009">
        <ele>818.5</ele>
        <time>2015-12-06T10:08:50Z</time>
      </trkpt>
      <trkpt lat="44.13349" lon="3.24011">
        <ele>819</ele>
        <time>2015-12-06T10:08:51Z</time>
      </trkpt>
      <trkpt lat="44.13349" lon="3.24012">
        <ele>819.5</ele>
        <time>2015-12-06T10:08:52Z</time>
      </trkpt>
      <trkpt lat="44.13348" lon="3.24013">
        <ele>819</ele>
        <time>2015-12-06T10:08:53Z</time>
      </trkpt>
      <trkpt lat="44.13347" lon="3.24014">
        <ele>818.5</ele>
        <time>2015-12-06T10:08:54Z</time>
      </trkpt>
      <trkpt lat="44.13346" lon="3.24015">
        <ele>818.5</ele>
        <time>2015-12-06T10:08:55Z</time>
      </trkpt>
      <trkpt lat="44.13346" lon="3.24016">
        <ele>819</ele>
        <time>2015-12-06T10:08:56Z</time>
      </trkpt>
      <trkpt lat="44.13345" lon="3.24018">
        <ele>819</ele>
        <time>2015-12-06T10:08:57Z</time>
      </trkpt>
      <trkpt lat="44.13344" lon="3.24018">
        <ele>817</ele>
        <time>2015-12-06T10:08:58Z</time>
      </trkpt>
      <trkpt lat="44.13344" lon="3.24019">
        <ele>817</ele>
        <time>2015-12-06T10:08:59Z</time>
      </trkpt>
      <trkpt lat="44.13344" lon="3.2402">
        <ele>817.5</ele>
        <time>2015-12-06T10:09:00Z</time>
      </trkpt>
      <trkpt lat="44.13343" lon="3.24022">
        <ele>818.5</ele>
        <time>2015-12-06T10:09:01Z</time>
      </trkpt>
      <trkpt lat="44.13343" lon="3.24023">
        <ele>819</ele>
        <time>2015-12-06T10:09:02Z</time>
      </trkpt>
      <trkpt lat="44.13343" lon="3.24024">
        <ele>819</ele>
        <time>2015-12-06T10:09:03Z</time>
      </trkpt>
      <trkpt lat="44.13342" lon="3.24027">
        <ele>821</ele>
        <time>2015-12-06T10:09:04Z</time>
      </trkpt>
      <trkpt lat="44.13342" lon="3.24029">
        <ele>821.5</ele>
        <time>2015-12-06T10:09:05Z</time>
      </trkpt>
      <trkpt lat="44.13342" lon="3.2403">
        <ele>821.5</ele>
        <time>2015-12-06T10:09:06Z</time>
      </trkpt>
      <trkpt lat="44.13342" lon="3.24031">
        <ele>821.5</ele>
        <time>2015-12-06T10:09:07Z</time>
      </trkpt>
      <trkpt lat="44.1334" lon="3.24032">
        <ele>820.5</ele>
        <time>2015-12-06T10:09:08Z</time>
      </trkpt>
      <trkpt lat="44.13339" lon="3.24033">
        <ele>820.5</ele>
        <time>2015-12-06T10:09:09Z</time>
      </trkpt>
      <trkpt lat="44.13339" lon="3.24035">
        <ele>821</ele>
        <time>2015-12-06T10:09:10Z</time>
      </trkpt>
      <trkpt lat="44.13338" lon="3.24036">
        <ele>820.5</ele>
        <time>2015-12-06T10:09:11Z</time>
      </trkpt>
      <trkpt lat="44.13336" lon="3.24039">
        <ele>821</ele>
        <time>2015-12-06T10:09:12Z</time>
      </trkpt>
      <trkpt lat="44.13335" lon="3.24041">
        <ele>821</ele>
        <time>2015-12-06T10:09:13Z</time>
      </trkpt>
      <trkpt lat="44.13334" lon="3.24044">
        <ele>821</ele>
        <time>2015-12-06T10:09:14Z</time>
      </trkpt>
      <trkpt lat="44.13332" lon="3.24047">
        <ele>821.5</ele>
        <time>2015-12-06T10:09:15Z</time>
      </trkpt>
      <trkpt lat="44.13329" lon="3.24049">
        <ele>820.5</ele>
        <time>2015-12-06T10:09:16Z</time>
      </trkpt>
      <trkpt lat="44.13328" lon="3.24052">
        <ele>821</ele>
        <time>2015-12-06T10:09:17Z</time>
      </trkpt>
      <trkpt lat="44.13325" lon="3.24054">
        <ele>819.5</ele>
        <time>2015-12-06T10:09:18Z</time>
      </trkpt>
      <trkpt lat="44.13323" lon="3.24056">
        <ele>819</ele>
        <time>2015-12-06T10:09:19Z</time>
      </trkpt>
      <trkpt lat="44.13322" lon="3.24059">
        <ele>818.5</ele>
        <time>2015-12-06T10:09:20Z</time>
      </trkpt>
      <trkpt lat="44.13321" lon="3.24061">
        <ele>818.5</ele>
        <time>2015-12-06T10:09:21Z</time>
      </trkpt>
      <trkpt lat="44.1332" lon="3.24063">
        <ele>819</ele>
        <time>2015-12-06T10:09:22Z</time>
      </trkpt>
      <trkpt lat="44.13319" lon="3.24066">
        <ele>819.5</ele>
        <time>2015-12-06T10:09:23Z</time>
      </trkpt>
      <trkpt lat="44.13318" lon="3.24068">
        <ele>819.5</ele>
        <time>2015-12-06T10:09:24Z</time>
      </trkpt>
      <trkpt lat="44.13318" lon="3.2407">
        <ele>820</ele>
        <time>2015-12-06T10:09:25Z</time>
      </trkpt>
      <trkpt lat="44.13318" lon="3.24072">
        <ele>820.5</ele>
        <time>2015-12-06T10:09:26Z</time>
      </trkpt>
      <trkpt lat="44.13317" lon="3.24075">
        <ele>820.5</ele>
        <time>2015-12-06T10:09:27Z</time>
      </trkpt>
      <trkpt lat="44.13317" lon="3.24077">
        <ele>821</ele>
        <time>2015-12-06T10:09:28Z</time>
      </trkpt>
      <trkpt lat="44.13316" lon="3.24079">
        <ele>821</ele>
        <time>2015-12-06T10:09:29Z</time>
      </trkpt>
      <trkpt lat="44.13316" lon="3.24081">
        <ele>821.5</ele>
        <time>2015-12-06T10:09:30Z</time>
      </trkpt>
      <trkpt lat="44.13316" lon="3.24083">
        <ele>822</ele>
        <time>2015-12-06T10:09:31Z</time>
      </trkpt>
      <trkpt lat="44.13315" lon="3.24085">
        <ele>822</ele>
        <time>2015-12-06T10:09:32Z</time>
      </trkpt>
      <trkpt lat="44.13314" lon="3.24087">
        <ele>822.5</ele>
        <time>2015-12-06T10:09:33Z</time>
      </trkpt>
      <trkpt lat="44.13314" lon="3.24089">
        <ele>823</ele>
        <time>2015-12-06T10:09:34Z</time>
      </trkpt>
      <trkpt lat="44.13313" lon="3.24091">
        <ele>823</ele>
        <time>2015-12-06T10:09:35Z</time>
      </trkpt>
      <trkpt lat="44.13313" lon="3.24094">
        <ele>823.5</ele>
        <time>2015-12-06T10:09:36Z</time>
      </trkpt>
      <trkpt lat="44.13312" lon="3.24096">
        <ele>823.5</ele>
        <time>2015-12-06T10:09:37Z</time>
      </trkpt>
      <trkpt lat="44.13311" lon="3.24099">
        <ele>824</ele>
        <time>2015-12-06T10:09:38Z</time>
      </trkpt>
      <trkpt lat="44.1331" lon="3.24101">
        <ele>824</ele>
        <time>2015-12-06T10:09:39Z</time>
      </trkpt>
      <trkpt lat="44.13309" lon="3.24103">
        <ele>824.5</ele>
        <time>2015-12-06T10:09:40Z</time>
      </trkpt>
      <trkpt lat="44.13309" lon="3.24105">
        <ele>824.5</ele>
        <time>2015-12-06T10:09:41Z</time>
      </trkpt>
      <trkpt lat="44.13308" lon="3.24106">
        <ele>824.5</ele>
        <time>2015-12-06T10:09:42Z</time>
      </trkpt>
      <trkpt lat="44.13308" lon="3.24108">
        <ele>824</ele>
        <time>2015-12-06T10:09:43Z</time>
      </trkpt>
      <trkpt lat="44.13308" lon="3.24109">
        <ele>824</ele>
        <time>2015-12-06T10:09:44Z</time>
      </trkpt>
      <trkpt lat="44.13308" lon="3.2411">
        <ele>824</ele>
        <time>2015-12-06T10:09:45Z</time>
      </trkpt>
      <trkpt lat="44.13308" lon="3.2411">
        <ele>824</ele>
        <time>2015-12-06T10:09:46Z</time>
      </trkpt>
      <trkpt lat="44.13307" lon="3.24111">
        <ele>824</ele>
        <time>2015-12-06T10:09:47Z</time>
      </trkpt>
      <trkpt lat="44.13307" lon="3.24112">
        <ele>824.5</ele>
        <time>2015-12-06T10:09:49Z</time>
      </trkpt>
      <trkpt lat="44.13309" lon="3.24113">
        <ele>825</ele>
        <time>2015-12-06T10:10:01Z</time>
      </trkpt>
      <trkpt lat="44.13309" lon="3.24115">
        <ele>824</ele>
        <time>2015-12-06T10:10:03Z</time>
      </trkpt>
      <trkpt lat="44.13308" lon="3.24116">
        <ele>824</ele>
        <time>2015-12-06T10:10:04Z</time>
      </trkpt>
      <trkpt lat="44.13308" lon="3.24119">
        <ele>824.5</ele>
        <time>2015-12-06T10:10:05Z</time>
      </trkpt>
      <trkpt lat="44.13308" lon="3.24121">
        <ele>824.5</ele>
        <time>2015-12-06T10:10:06Z</time>
      </trkpt>
      <trkpt lat="44.13308" lon="3.24124">
        <ele>824.5</ele>
        <time>2015-12-06T10:10:07Z</time>
      </trkpt>
      <trkpt lat="44.13307" lon="3.24127">
        <ele>825.5</ele>
        <time>2015-12-06T10:10:08Z</time>
      </trkpt>
      <trkpt lat="44.13307" lon="3.2413">
        <ele>825</ele>
        <time>2015-12-06T10:10:09Z</time>
      </trkpt>
      <trkpt lat="44.13306" lon="3.24135">
        <ele>824</ele>
        <time>2015-12-06T10:10:10Z</time>
      </trkpt>
      <trkpt lat="44.13305" lon="3.2414">
        <ele>824</ele>
        <time>2015-12-06T10:10:11Z</time>
      </trkpt>
      <trkpt lat="44.13306" lon="3.24145">
        <ele>824.5</ele>
        <time>2015-12-06T10:10:12Z</time>
      </trkpt>
      <trkpt lat="44.13309" lon="3.2415">
        <ele>824</ele>
        <time>2015-12-06T10:10:13Z</time>
      </trkpt>
      <trkpt lat="44.13311" lon="3.24157">
        <ele>824</ele>
        <time>2015-12-06T10:10:14Z</time>
      </trkpt>
      <trkpt lat="44.13314" lon="3.24163">
        <ele>824</ele>
        <time>2015-12-06T10:10:15Z</time>
      </trkpt>
      <trkpt lat="44.13318" lon="3.24169">
        <ele>824</ele>
        <time>2015-12-06T10:10:16Z</time>
      </trkpt>
      <trkpt lat="44.13322" lon="3.24177">
        <ele>823</ele>
        <time>2015-12-06T10:10:17Z</time>
      </trkpt>
      <trkpt lat="44.13325" lon="3.24184">
        <ele>823</ele>
        <time>2015-12-06T10:10:18Z</time>
      </trkpt>
      <trkpt lat="44.13332" lon="3.24187">
        <ele>825</ele>
        <time>2015-12-06T10:10:19Z</time>
      </trkpt>
      <trkpt lat="44.13337" lon="3.24198">
        <ele>825.5</ele>
        <time>2015-12-06T10:10:21Z</time>
      </trkpt>
      <trkpt lat="44.13334" lon="3.24201">
        <ele>824.5</ele>
        <time>2015-12-06T10:10:22Z</time>
      </trkpt>
      <trkpt lat="44.13331" lon="3.24203">
        <ele>826.5</ele>
        <time>2015-12-06T10:10:23Z</time>
      </trkpt>
      <trkpt lat="44.13328" lon="3.24206">
        <ele>826.5</ele>
        <time>2015-12-06T10:10:24Z</time>
      </trkpt>
      <trkpt lat="44.13327" lon="3.24211">
        <ele>825.5</ele>
        <time>2015-12-06T10:10:25Z</time>
      </trkpt>
      <trkpt lat="44.13324" lon="3.24215">
        <ele>826</ele>
        <time>2015-12-06T10:10:26Z</time>
      </trkpt>
      <trkpt lat="44.1332" lon="3.24218">
        <ele>825</ele>
        <time>2015-12-06T10:10:27Z</time>
      </trkpt>
      <trkpt lat="44.13316" lon="3.24221">
        <ele>823.5</ele>
        <time>2015-12-06T10:10:28Z</time>
      </trkpt>
      <trkpt lat="44.13313" lon="3.24226">
        <ele>824</ele>
        <time>2015-12-06T10:10:29Z</time>
      </trkpt>
      <trkpt lat="44.13309" lon="3.24231">
        <ele>824</ele>
        <time>2015-12-06T10:10:31Z</time>
      </trkpt>
      <trkpt lat="44.13307" lon="3.24233">
        <ele>823</ele>
        <time>2015-12-06T10:10:32Z</time>
      </trkpt>
      <trkpt lat="44.133" lon="3.24239">
        <ele>820</ele>
        <time>2015-12-06T10:10:34Z</time>
      </trkpt>
      <trkpt lat="44.13295" lon="3.24242">
        <ele>820</ele>
        <time>2015-12-06T10:10:35Z</time>
      </trkpt>
      <trkpt lat="44.1329" lon="3.2424">
        <ele>819.5</ele>
        <time>2015-12-06T10:10:36Z</time>
      </trkpt>
      <trkpt lat="44.13285" lon="3.24239">
        <ele>819</ele>
        <time>2015-12-06T10:10:37Z</time>
      </trkpt>
      <trkpt lat="44.1328" lon="3.24239">
        <ele>818.5</ele>
        <time>2015-12-06T10:10:38Z</time>
      </trkpt>
      <trkpt lat="44.13275" lon="3.24239">
        <ele>818</ele>
        <time>2015-12-06T10:10:39Z</time>
      </trkpt>
      <trkpt lat="44.1327" lon="3.2424">
        <ele>817.5</ele>
        <time>2015-12-06T10:10:40Z</time>
      </trkpt>
      <trkpt lat="44.13266" lon="3.24243">
        <ele>817</ele>
        <time>2015-12-06T10:10:41Z</time>
      </trkpt>
      <trkpt lat="44.13262" lon="3.24246">
        <ele>816</ele>
        <time>2015-12-06T10:10:42Z</time>
      </trkpt>
      <trkpt lat="44.1326" lon="3.24249">
        <ele>814.5</ele>
        <time>2015-12-06T10:10:43Z</time>
      </trkpt>
      <trkpt lat="44.13257" lon="3.24252">
        <ele>814</ele>
        <time>2015-12-06T10:10:44Z</time>
      </trkpt>
      <trkpt lat="44.13248" lon="3.24256">
        <ele>812</ele>
        <time>2015-12-06T10:10:46Z</time>
      </trkpt>
      <trkpt lat="44.13244" lon="3.24258">
        <ele>811.5</ele>
        <time>2015-12-06T10:10:47Z</time>
      </trkpt>
      <trkpt lat="44.1324" lon="3.24262">
        <ele>810.5</ele>
        <time>2015-12-06T10:10:48Z</time>
      </trkpt>
      <trkpt lat="44.13236" lon="3.24266">
        <ele>809.5</ele>
        <time>2015-12-06T10:10:49Z</time>
      </trkpt>
      <trkpt lat="44.13232" lon="3.24269">
        <ele>808</ele>
        <time>2015-12-06T10:10:50Z</time>
      </trkpt>
      <trkpt lat="44.13227" lon="3.24274">
        <ele>806.5</ele>
        <time>2015-12-06T10:10:51Z</time>
      </trkpt>
      <trkpt lat="44.13222" lon="3.24278">
        <ele>806</ele>
        <time>2015-12-06T10:10:52Z</time>
      </trkpt>
      <trkpt lat="44.13217" lon="3.24281">
        <ele>805</ele>
        <time>2015-12-06T10:10:53Z</time>
      </trkpt>
      <trkpt lat="44.13212" lon="3.24285">
        <ele>804</ele>
        <time>2015-12-06T10:10:54Z</time>
      </trkpt>
      <trkpt lat="44.13207" lon="3.24286">
        <ele>802</ele>
        <time>2015-12-06T10:10:56Z</time>
      </trkpt>
      <trkpt lat="44.13204" lon="3.24288">
        <ele>801</ele>
        <time>2015-12-06T10:10:57Z</time>
      </trkpt>
      <trkpt lat="44.13201" lon="3.24289">
        <ele>801</ele>
        <time>2015-12-06T10:10:58Z</time>
      </trkpt>
      <trkpt lat="44.13198" lon="3.2429">
        <ele>800</ele>
        <time>2015-12-06T10:10:59Z</time>
      </trkpt>
      <trkpt lat="44.13194" lon="3.24291">
        <ele>799</ele>
        <time>2015-12-06T10:11:00Z</time>
      </trkpt>
      <trkpt lat="44.1319" lon="3.24292">
        <ele>799</ele>
        <time>2015-12-06T10:11:01Z</time>
      </trkpt>
      <trkpt lat="44.13186" lon="3.24293">
        <ele>799</ele>
        <time>2015-12-06T10:11:02Z</time>
      </trkpt>
      <trkpt lat="44.13183" lon="3.24293">
        <ele>798</ele>
        <time>2015-12-06T10:11:03Z</time>
      </trkpt>
      <trkpt lat="44.13181" lon="3.24295">
        <ele>798.5</ele>
        <time>2015-12-06T10:11:04Z</time>
      </trkpt>
      <trkpt lat="44.13178" lon="3.24297">
        <ele>797.5</ele>
        <time>2015-12-06T10:11:05Z</time>
      </trkpt>
      <trkpt lat="44.13176" lon="3.24298">
        <ele>797</ele>
        <time>2015-12-06T10:11:06Z</time>
      </trkpt>
      <trkpt lat="44.13174" lon="3.24297">
        <ele>797.5</ele>
        <time>2015-12-06T10:11:07Z</time>
      </trkpt>
      <trkpt lat="44.13172" lon="3.24295">
        <ele>795.5</ele>
        <time>2015-12-06T10:11:08Z</time>
      </trkpt>
      <trkpt lat="44.13169" lon="3.24295">
        <ele>795</ele>
        <time>2015-12-06T10:11:09Z</time>
      </trkpt>
      <trkpt lat="44.13158" lon="3.24292">
        <ele>795</ele>
        <time>2015-12-06T10:11:11Z</time>
      </trkpt>
      <trkpt lat="44.13152" lon="3.24293">
        <ele>794.5</ele>
        <time>2015-12-06T10:11:12Z</time>
      </trkpt>
      <trkpt lat="44.13147" lon="3.24294">
        <ele>794.5</ele>
        <time>2015-12-06T10:11:13Z</time>
      </trkpt>
      <trkpt lat="44.13141" lon="3.24295">
        <ele>793</ele>
        <time>2015-12-06T10:11:14Z</time>
      </trkpt>
      <trkpt lat="44.13134" lon="3.24296">
        <ele>791.5</ele>
        <time>2015-12-06T10:11:15Z</time>
      </trkpt>
      <trkpt lat="44.13128" lon="3.24298">
        <ele>791.5</ele>
        <time>2015-12-06T10:11:16Z</time>
      </trkpt>
      <trkpt lat="44.13123" lon="3.243">
        <ele>791</ele>
        <time>2015-12-06T10:11:17Z</time>
      </trkpt>
      <trkpt lat="44.1312" lon="3.24302">
        <ele>791.5</ele>
        <time>2015-12-06T10:11:18Z</time>
      </trkpt>
      <trkpt lat="44.13118" lon="3.24304">
        <ele>790.5</ele>
        <time>2015-12-06T10:11:20Z</time>
      </trkpt>
      <trkpt lat="44.1312" lon="3.24302">
        <ele>790.5</ele>
        <time>2015-12-06T10:11:21Z</time>
      </trkpt>
      <trkpt lat="44.13121" lon="3.24302">
        <ele>791</ele>
        <time>2015-12-06T10:11:22Z</time>
      </trkpt>
      <trkpt lat="44.13122" lon="3.24302">
        <ele>791</ele>
        <time>2015-12-06T10:11:23Z</time>
      </trkpt>
      <trkpt lat="44.13122" lon="3.24302">
        <ele>791</ele>
        <time>2015-12-06T10:11:25Z</time>
      </trkpt>
      <trkpt lat="44.13119" lon="3.24299">
        <ele>790.5</ele>
        <time>2015-12-06T10:11:27Z</time>
      </trkpt>
      <trkpt lat="44.13118" lon="3.243">
        <ele>791.5</ele>
        <time>2015-12-06T10:11:28Z</time>
      </trkpt>
      <trkpt lat="44.13118" lon="3.243">
        <ele>791</ele>
        <time>2015-12-06T10:11:29Z</time>
      </trkpt>
      <trkpt lat="44.13117" lon="3.24299">
        <ele>790.5</ele>
        <time>2015-12-06T10:11:32Z</time>
      </trkpt>
      <trkpt lat="44.13117" lon="3.24298">
        <ele>790</ele>
        <time>2015-12-06T10:11:34Z</time>
      </trkpt>
      <trkpt lat="44.13116" lon="3.24299">
        <ele>788.5</ele>
        <time>2015-12-06T10:11:36Z</time>
      </trkpt>
      <trkpt lat="44.13118" lon="3.24297">
        <ele>783</ele>
        <time>2015-12-06T10:11:38Z</time>
      </trkpt>
      <trkpt lat="44.1312" lon="3.24294">
        <ele>781</ele>
        <time>2015-12-06T10:11:39Z</time>
      </trkpt>
      <trkpt lat="44.13122" lon="3.24292">
        <ele>780</ele>
        <time>2015-12-06T10:11:39Z</time>
      </trkpt>
      <trkpt lat="44.13125" lon="3.24291">
        <ele>778.5</ele>
        <time>2015-12-06T10:11:40Z</time>
      </trkpt>
      <trkpt lat="44.13127" lon="3.24291">
        <ele>777.5</ele>
        <time>2015-12-06T10:11:41Z</time>
      </trkpt>
      <trkpt lat="44.13131" lon="3.24291">
        <ele>775.5</ele>
        <time>2015-12-06T10:11:43Z</time>
      </trkpt>
      <trkpt lat="44.13136" lon="3.2429">
        <ele>774</ele>
        <time>2015-12-06T10:11:43Z</time>
      </trkpt>
      <trkpt lat="44.13141" lon="3.24292">
        <ele>774.5</ele>
        <time>2015-12-06T10:11:44Z</time>
      </trkpt>
      <trkpt lat="44.13145" lon="3.24295">
        <ele>774.5</ele>
        <time>2015-12-06T10:11:45Z</time>
      </trkpt>
      <trkpt lat="44.13149" lon="3.243">
        <ele>774</ele>
        <time>2015-12-06T10:11:46Z</time>
      </trkpt>
      <trkpt lat="44.13152" lon="3.24305">
        <ele>773.5</ele>
        <time>2015-12-06T10:11:47Z</time>
      </trkpt>
      <trkpt lat="44.13156" lon="3.2431">
        <ele>774</ele>
        <time>2015-12-06T10:11:48Z</time>
      </trkpt>
      <trkpt lat="44.13159" lon="3.24315">
        <ele>773</ele>
        <time>2015-12-06T10:11:49Z</time>
      </trkpt>
      <trkpt lat="44.1316" lon="3.2432">
        <ele>774.5</ele>
        <time>2015-12-06T10:11:50Z</time>
      </trkpt>
      <trkpt lat="44.13158" lon="3.24322">
        <ele>776</ele>
        <time>2015-12-06T10:11:51Z</time>
      </trkpt>
      <trkpt lat="44.13157" lon="3.24323">
        <ele>776.5</ele>
        <time>2015-12-06T10:11:52Z</time>
      </trkpt>
      <trkpt lat="44.13155" lon="3.24323">
        <ele>778</ele>
        <time>2015-12-06T10:11:53Z</time>
      </trkpt>
      <trkpt lat="44.13154" lon="3.24324">
        <ele>777.5</ele>
        <time>2015-12-06T10:11:54Z</time>
      </trkpt>
      <trkpt lat="44.13153" lon="3.24325">
        <ele>778</ele>
        <time>2015-12-06T10:11:55Z</time>
      </trkpt>
      <trkpt lat="44.13152" lon="3.24326">
        <ele>777</ele>
        <time>2015-12-06T10:11:56Z</time>
      </trkpt>
      <trkpt lat="44.13151" lon="3.24327">
        <ele>777</ele>
        <time>2015-12-06T10:11:57Z</time>
      </trkpt>
      <trkpt lat="44.1315" lon="3.24328">
        <ele>776.5</ele>
        <time>2015-12-06T10:11:58Z</time>
      </trkpt>
      <trkpt lat="44.13148" lon="3.24329">
        <ele>776.5</ele>
        <time>2015-12-06T10:11:59Z</time>
      </trkpt>
      <trkpt lat="44.13147" lon="3.24331">
        <ele>776.5</ele>
        <time>2015-12-06T10:12:00Z</time>
      </trkpt>
      <trkpt lat="44.13142" lon="3.24336">
        <ele>776</ele>
        <time>2015-12-06T10:12:02Z</time>
      </trkpt>
      <trkpt lat="44.13139" lon="3.24338">
        <ele>777.5</ele>
        <time>2015-12-06T10:12:03Z</time>
      </trkpt>
      <trkpt lat="44.13137" lon="3.24341">
        <ele>777.5</ele>
        <time>2015-12-06T10:12:04Z</time>
      </trkpt>
      <trkpt lat="44.13136" lon="3.24345">
        <ele>778</ele>
        <time>2015-12-06T10:12:05Z</time>
      </trkpt>
      <trkpt lat="44.13134" lon="3.24348">
        <ele>778.5</ele>
        <time>2015-12-06T10:12:06Z</time>
      </trkpt>
      <trkpt lat="44.13133" lon="3.24351">
        <ele>780</ele>
        <time>2015-12-06T10:12:07Z</time>
      </trkpt>
      <trkpt lat="44.1313" lon="3.24355">
        <ele>780</ele>
        <time>2015-12-06T10:12:09Z</time>
      </trkpt>
      <trkpt lat="44.13128" lon="3.24362">
        <ele>780.5</ele>
        <time>2015-12-06T10:12:09Z</time>
      </trkpt>
      <trkpt lat="44.13126" lon="3.24367">
        <ele>781</ele>
        <time>2015-12-06T10:12:10Z</time>
      </trkpt>
      <trkpt lat="44.13123" lon="3.24372">
        <ele>781</ele>
        <time>2015-12-06T10:12:11Z</time>
      </trkpt>
      <trkpt lat="44.13121" lon="3.24377">
        <ele>780.5</ele>
        <time>2015-12-06T10:12:12Z</time>
      </trkpt>
      <trkpt lat="44.13118" lon="3.24382">
        <ele>780.5</ele>
        <time>2015-12-06T10:12:13Z</time>
      </trkpt>
      <trkpt lat="44.13117" lon="3.24387">
        <ele>780.5</ele>
        <time>2015-12-06T10:12:14Z</time>
      </trkpt>
      <trkpt lat="44.13116" lon="3.2439">
        <ele>781</ele>
        <time>2015-12-06T10:12:15Z</time>
      </trkpt>
      <trkpt lat="44.13114" lon="3.24394">
        <ele>780</ele>
        <time>2015-12-06T10:12:16Z</time>
      </trkpt>
      <trkpt lat="44.13111" lon="3.24397">
        <ele>779.5</ele>
        <time>2015-12-06T10:12:17Z</time>
      </trkpt>
      <trkpt lat="44.13108" lon="3.24401">
        <ele>778</ele>
        <time>2015-12-06T10:12:19Z</time>
      </trkpt>
      <trkpt lat="44.13105" lon="3.24405">
        <ele>776.5</ele>
        <time>2015-12-06T10:12:19Z</time>
      </trkpt>
      <trkpt lat="44.131" lon="3.24406">
        <ele>778</ele>
        <time>2015-12-06T10:12:20Z</time>
      </trkpt>
      <trkpt lat="44.13096" lon="3.24409">
        <ele>777.5</ele>
        <time>2015-12-06T10:12:22Z</time>
      </trkpt>
      <trkpt lat="44.13091" lon="3.24412">
        <ele>776.5</ele>
        <time>2015-12-06T10:12:22Z</time>
      </trkpt>
      <trkpt lat="44.13087" lon="3.24416">
        <ele>776</ele>
        <time>2015-12-06T10:12:23Z</time>
      </trkpt>
      <trkpt lat="44.13084" lon="3.2442">
        <ele>775.5</ele>
        <time>2015-12-06T10:12:24Z</time>
      </trkpt>
      <trkpt lat="44.13082" lon="3.24421">
        <ele>777</ele>
        <time>2015-12-06T10:12:25Z</time>
      </trkpt>
      <trkpt lat="44.1308" lon="3.24423">
        <ele>775</ele>
        <time>2015-12-06T10:12:26Z</time>
      </trkpt>
      <trkpt lat="44.13079" lon="3.24425">
        <ele>775</ele>
        <time>2015-12-06T10:12:27Z</time>
      </trkpt>
      <trkpt lat="44.13079" lon="3.24425">
        <ele>775</ele>
        <time>2015-12-06T10:12:28Z</time>
      </trkpt>
      <trkpt lat="44.13077" lon="3.24429">
        <ele>767.5</ele>
        <time>2015-12-06T10:12:52Z</time>
      </trkpt>
      <trkpt lat="44.13076" lon="3.24429">
        <ele>768</ele>
        <time>2015-12-06T10:12:55Z</time>
      </trkpt>
      <trkpt lat="44.13076" lon="3.24429">
        <ele>768.5</ele>
        <time>2015-12-06T10:12:57Z</time>
      </trkpt>
      <trkpt lat="44.13077" lon="3.24432">
        <ele>767</ele>
        <time>2015-12-06T10:12:58Z</time>
      </trkpt>
      <trkpt lat="44.13077" lon="3.24433">
        <ele>766.5</ele>
        <time>2015-12-06T10:12:59Z</time>
      </trkpt>
      <trkpt lat="44.13078" lon="3.24438">
        <ele>764.5</ele>
        <time>2015-12-06T10:13:06Z</time>
      </trkpt>
      <trkpt lat="44.13076" lon="3.2444">
        <ele>764</ele>
        <time>2015-12-06T10:13:19Z</time>
      </trkpt>
      <trkpt lat="44.13071" lon="3.24445">
        <ele>764.5</ele>
        <time>2015-12-06T10:13:21Z</time>
      </trkpt>
      <trkpt lat="44.1307" lon="3.24449">
        <ele>766</ele>
        <time>2015-12-06T10:13:22Z</time>
      </trkpt>
      <trkpt lat="44.13062" lon="3.24454">
        <ele>766.5</ele>
        <time>2015-12-06T10:13:24Z</time>
      </trkpt>
      <trkpt lat="44.13058" lon="3.24455">
        <ele>766.5</ele>
        <time>2015-12-06T10:13:25Z</time>
      </trkpt>
      <trkpt lat="44.13053" lon="3.24457">
        <ele>766</ele>
        <time>2015-12-06T10:13:26Z</time>
      </trkpt>
      <trkpt lat="44.13047" lon="3.24459">
        <ele>767</ele>
        <time>2015-12-06T10:13:27Z</time>
      </trkpt>
      <trkpt lat="44.13042" lon="3.24462">
        <ele>766</ele>
        <time>2015-12-06T10:13:28Z</time>
      </trkpt>
      <trkpt lat="44.13038" lon="3.24469">
        <ele>764.5</ele>
        <time>2015-12-06T10:13:29Z</time>
      </trkpt>
      <trkpt lat="44.13035" lon="3.24474">
        <ele>763</ele>
        <time>2015-12-06T10:13:30Z</time>
      </trkpt>
      <trkpt lat="44.13032" lon="3.24476">
        <ele>762</ele>
        <time>2015-12-06T10:13:31Z</time>
      </trkpt>
      <trkpt lat="44.13031" lon="3.24477">
        <ele>762</ele>
        <time>2015-12-06T10:13:32Z</time>
      </trkpt>
      <trkpt lat="44.13027" lon="3.24484">
        <ele>756</ele>
        <time>2015-12-06T10:13:34Z</time>
      </trkpt>
      <trkpt lat="44.13017" lon="3.24489">
        <ele>752</ele>
        <time>2015-12-06T10:13:36Z</time>
      </trkpt>
      <trkpt lat="44.13012" lon="3.24491">
        <ele>751</ele>
        <time>2015-12-06T10:13:37Z</time>
      </trkpt>
      <trkpt lat="44.13005" lon="3.24491">
        <ele>751</ele>
        <time>2015-12-06T10:13:38Z</time>
      </trkpt>
      <trkpt lat="44.13" lon="3.24491">
        <ele>750.5</ele>
        <time>2015-12-06T10:13:39Z</time>
      </trkpt>
      <trkpt lat="44.12995" lon="3.2449">
        <ele>748.5</ele>
        <time>2015-12-06T10:13:40Z</time>
      </trkpt>
      <trkpt lat="44.1299" lon="3.2449">
        <ele>747.5</ele>
        <time>2015-12-06T10:13:41Z</time>
      </trkpt>
      <trkpt lat="44.12984" lon="3.24488">
        <ele>748.5</ele>
        <time>2015-12-06T10:13:42Z</time>
      </trkpt>
      <trkpt lat="44.1298" lon="3.24489">
        <ele>747.5</ele>
        <time>2015-12-06T10:13:43Z</time>
      </trkpt>
      <trkpt lat="44.12975" lon="3.2449">
        <ele>747</ele>
        <time>2015-12-06T10:13:44Z</time>
      </trkpt>
      <trkpt lat="44.12972" lon="3.24491">
        <ele>747.5</ele>
        <time>2015-12-06T10:13:45Z</time>
      </trkpt>
      <trkpt lat="44.12969" lon="3.24493">
        <ele>747</ele>
        <time>2015-12-06T10:13:46Z</time>
      </trkpt>
      <trkpt lat="44.12966" lon="3.24494">
        <ele>746.5</ele>
        <time>2015-12-06T10:13:47Z</time>
      </trkpt>
      <trkpt lat="44.12961" lon="3.24495">
        <ele>747.5</ele>
        <time>2015-12-06T10:13:48Z</time>
      </trkpt>
      <trkpt lat="44.12957" lon="3.24496">
        <ele>746.5</ele>
        <time>2015-12-06T10:13:49Z</time>
      </trkpt>
      <trkpt lat="44.12951" lon="3.24501">
        <ele>746.5</ele>
        <time>2015-12-06T10:13:50Z</time>
      </trkpt>
      <trkpt lat="44.12946" lon="3.24502">
        <ele>746.5</ele>
        <time>2015-12-06T10:13:51Z</time>
      </trkpt>
      <trkpt lat="44.12942" lon="3.24503">
        <ele>747.5</ele>
        <time>2015-12-06T10:13:52Z</time>
      </trkpt>
      <trkpt lat="44.1294" lon="3.245">
        <ele>747.5</ele>
        <time>2015-12-06T10:13:54Z</time>
      </trkpt>
      <trkpt lat="44.12938" lon="3.24496">
        <ele>747</ele>
        <time>2015-12-06T10:13:55Z</time>
      </trkpt>
      <trkpt lat="44.12937" lon="3.24492">
        <ele>747.5</ele>
        <time>2015-12-06T10:13:56Z</time>
      </trkpt>
      <trkpt lat="44.12937" lon="3.24488">
        <ele>747.5</ele>
        <time>2015-12-06T10:13:58Z</time>
      </trkpt>
      <trkpt lat="44.12939" lon="3.24487">
        <ele>747</ele>
        <time>2015-12-06T10:13:59Z</time>
      </trkpt>
      <trkpt lat="44.12939" lon="3.24485">
        <ele>747</ele>
        <time>2015-12-06T10:14:00Z</time>
      </trkpt>
      <trkpt lat="44.12939" lon="3.24485">
        <ele>746</ele>
        <time>2015-12-06T10:14:01Z</time>
      </trkpt>
      <trkpt lat="44.12938" lon="3.24482">
        <ele>746.5</ele>
        <time>2015-12-06T10:14:02Z</time>
      </trkpt>
      <trkpt lat="44.1293" lon="3.24478">
        <ele>745</ele>
        <time>2015-12-06T10:14:04Z</time>
      </trkpt>
      <trkpt lat="44.12926" lon="3.24477">
        <ele>744.5</ele>
        <time>2015-12-06T10:14:05Z</time>
      </trkpt>
      <trkpt lat="44.1292" lon="3.24477">
        <ele>743</ele>
        <time>2015-12-06T10:14:06Z</time>
      </trkpt>
      <trkpt lat="44.12915" lon="3.24478">
        <ele>742</ele>
        <time>2015-12-06T10:14:07Z</time>
      </trkpt>
      <trkpt lat="44.1291" lon="3.24478">
        <ele>741.5</ele>
        <time>2015-12-06T10:14:08Z</time>
      </trkpt>
      <trkpt lat="44.12904" lon="3.24479">
        <ele>741</ele>
        <time>2015-12-06T10:14:09Z</time>
      </trkpt>
      <trkpt lat="44.12898" lon="3.24479">
        <ele>740</ele>
        <time>2015-12-06T10:14:10Z</time>
      </trkpt>
      <trkpt lat="44.12895" lon="3.24482">
        <ele>739.5</ele>
        <time>2015-12-06T10:14:11Z</time>
      </trkpt>
      <trkpt lat="44.12891" lon="3.24484">
        <ele>738.5</ele>
        <time>2015-12-06T10:14:12Z</time>
      </trkpt>
      <trkpt lat="44.12888" lon="3.24486">
        <ele>735</ele>
        <time>2015-12-06T10:14:14Z</time>
      </trkpt>
      <trkpt lat="44.12886" lon="3.24484">
        <ele>734.5</ele>
        <time>2015-12-06T10:14:15Z</time>
      </trkpt>
      <trkpt lat="44.12885" lon="3.24482">
        <ele>735</ele>
        <time>2015-12-06T10:14:16Z</time>
      </trkpt>
      <trkpt lat="44.12883" lon="3.24481">
        <ele>733.5</ele>
        <time>2015-12-06T10:14:17Z</time>
      </trkpt>
      <trkpt lat="44.12883" lon="3.2448">
        <ele>734.5</ele>
        <time>2015-12-06T10:14:18Z</time>
      </trkpt>
      <trkpt lat="44.12881" lon="3.2448">
        <ele>733</ele>
        <time>2015-12-06T10:14:19Z</time>
      </trkpt>
      <trkpt lat="44.12881" lon="3.2448">
        <ele>732</ele>
        <time>2015-12-06T10:14:20Z</time>
      </trkpt>
      <trkpt lat="44.1288" lon="3.24481">
        <ele>731.5</ele>
        <time>2015-12-06T10:14:21Z</time>
      </trkpt>
      <trkpt lat="44.12879" lon="3.2449">
        <ele>719.5</ele>
        <time>2015-12-06T10:14:24Z</time>
      </trkpt>
      <trkpt lat="44.12877" lon="3.24491">
        <ele>717</ele>
        <time>2015-12-06T10:14:26Z</time>
      </trkpt>
      <trkpt lat="44.12874" lon="3.24487">
        <ele>719</ele>
        <time>2015-12-06T10:14:34Z</time>
      </trkpt>
      <trkpt lat="44.12874" lon="3.24487">
        <ele>718</ele>
        <time>2015-12-06T10:14:36Z</time>
      </trkpt>
      <trkpt lat="44.12874" lon="3.24486">
        <ele>718</ele>
        <time>2015-12-06T10:14:37Z</time>
      </trkpt>
      <trkpt lat="44.12875" lon="3.24484">
        <ele>717.5</ele>
        <time>2015-12-06T10:14:38Z</time>
      </trkpt>
      <trkpt lat="44.12878" lon="3.24482">
        <ele>717</ele>
        <time>2015-12-06T10:14:39Z</time>
      </trkpt>
      <trkpt lat="44.1288" lon="3.24478">
        <ele>717</ele>
        <time>2015-12-06T10:14:40Z</time>
      </trkpt>
      <trkpt lat="44.12884" lon="3.24475">
        <ele>717.5</ele>
        <time>2015-12-06T10:14:41Z</time>
      </trkpt>
      <trkpt lat="44.12887" lon="3.24473">
        <ele>717.5</ele>
        <time>2015-12-06T10:14:42Z</time>
      </trkpt>
      <trkpt lat="44.12889" lon="3.24472">
        <ele>717.5</ele>
        <time>2015-12-06T10:14:43Z</time>
      </trkpt>
      <trkpt lat="44.12892" lon="3.2447">
        <ele>717</ele>
        <time>2015-12-06T10:14:44Z</time>
      </trkpt>
      <trkpt lat="44.12894" lon="3.24468">
        <ele>716.5</ele>
        <time>2015-12-06T10:14:45Z</time>
      </trkpt>
      <trkpt lat="44.12897" lon="3.24467">
        <ele>716.5</ele>
        <time>2015-12-06T10:14:46Z</time>
      </trkpt>
      <trkpt lat="44.12899" lon="3.24466">
        <ele>717</ele>
        <time>2015-12-06T10:14:47Z</time>
      </trkpt>
      <trkpt lat="44.12902" lon="3.24466">
        <ele>717</ele>
        <time>2015-12-06T10:14:48Z</time>
      </trkpt>
      <trkpt lat="44.12905" lon="3.24466">
        <ele>717</ele>
        <time>2015-12-06T10:14:49Z</time>
      </trkpt>
      <trkpt lat="44.12908" lon="3.24465">
        <ele>717</ele>
        <time>2015-12-06T10:14:50Z</time>
      </trkpt>
      <trkpt lat="44.1291" lon="3.24464">
        <ele>717.5</ele>
        <time>2015-12-06T10:14:51Z</time>
      </trkpt>
      <trkpt lat="44.12912" lon="3.24462">
        <ele>717.5</ele>
        <time>2015-12-06T10:14:52Z</time>
      </trkpt>
      <trkpt lat="44.12915" lon="3.2446">
        <ele>717.5</ele>
        <time>2015-12-06T10:14:53Z</time>
      </trkpt>
      <trkpt lat="44.12919" lon="3.24457">
        <ele>716.5</ele>
        <time>2015-12-06T10:14:54Z</time>
      </trkpt>
      <trkpt lat="44.12924" lon="3.24454">
        <ele>716.5</ele>
        <time>2015-12-06T10:14:55Z</time>
      </trkpt>
      <trkpt lat="44.12929" lon="3.24451">
        <ele>716</ele>
        <time>2015-12-06T10:14:56Z</time>
      </trkpt>
      <trkpt lat="44.12935" lon="3.24447">
        <ele>715</ele>
        <time>2015-12-06T10:14:57Z</time>
      </trkpt>
      <trkpt lat="44.12941" lon="3.24443">
        <ele>714.5</ele>
        <time>2015-12-06T10:14:58Z</time>
      </trkpt>
      <trkpt lat="44.12946" lon="3.24437">
        <ele>714</ele>
        <time>2015-12-06T10:14:59Z</time>
      </trkpt>
      <trkpt lat="44.12952" lon="3.24432">
        <ele>713.5</ele>
        <time>2015-12-06T10:15:00Z</time>
      </trkpt>
      <trkpt lat="44.12958" lon="3.24426">
        <ele>712.5</ele>
        <time>2015-12-06T10:15:01Z</time>
      </trkpt>
      <trkpt lat="44.12964" lon="3.24421">
        <ele>711</ele>
        <time>2015-12-06T10:15:02Z</time>
      </trkpt>
      <trkpt lat="44.1297" lon="3.24414">
        <ele>710.5</ele>
        <time>2015-12-06T10:15:03Z</time>
      </trkpt>
      <trkpt lat="44.12976" lon="3.24408">
        <ele>710.5</ele>
        <time>2015-12-06T10:15:04Z</time>
      </trkpt>
      <trkpt lat="44.12981" lon="3.24401">
        <ele>711</ele>
        <time>2015-12-06T10:15:05Z</time>
      </trkpt>
      <trkpt lat="44.12986" lon="3.24395">
        <ele>711.5</ele>
        <time>2015-12-06T10:15:06Z</time>
      </trkpt>
      <trkpt lat="44.12991" lon="3.24389">
        <ele>711</ele>
        <time>2015-12-06T10:15:07Z</time>
      </trkpt>
      <trkpt lat="44.12996" lon="3.24383">
        <ele>710.5</ele>
        <time>2015-12-06T10:15:08Z</time>
      </trkpt>
      <trkpt lat="44.12998" lon="3.24376">
        <ele>710.5</ele>
        <time>2015-12-06T10:15:09Z</time>
      </trkpt>
      <trkpt lat="44.12996" lon="3.24369">
        <ele>709.5</ele>
        <time>2015-12-06T10:15:11Z</time>
      </trkpt>
      <trkpt lat="44.12994" lon="3.24369">
        <ele>709.5</ele>
        <time>2015-12-06T10:15:12Z</time>
      </trkpt>
      <trkpt lat="44.12991" lon="3.24367">
        <ele>709.5</ele>
        <time>2015-12-06T10:15:13Z</time>
      </trkpt>
      <trkpt lat="44.12987" lon="3.2437">
        <ele>709</ele>
        <time>2015-12-06T10:15:14Z</time>
      </trkpt>
      <trkpt lat="44.12975" lon="3.24371">
        <ele>708</ele>
        <time>2015-12-06T10:15:16Z</time>
      </trkpt>
      <trkpt lat="44.1297" lon="3.24369">
        <ele>709</ele>
        <time>2015-12-06T10:15:17Z</time>
      </trkpt>
      <trkpt lat="44.12963" lon="3.24367">
        <ele>709</ele>
        <time>2015-12-06T10:15:18Z</time>
      </trkpt>
      <trkpt lat="44.12957" lon="3.24362">
        <ele>707.5</ele>
        <time>2015-12-06T10:15:19Z</time>
      </trkpt>
      <trkpt lat="44.12951" lon="3.24355">
        <ele>706</ele>
        <time>2015-12-06T10:15:20Z</time>
      </trkpt>
      <trkpt lat="44.1294" lon="3.24345">
        <ele>704</ele>
        <time>2015-12-06T10:15:22Z</time>
      </trkpt>
      <trkpt lat="44.12934" lon="3.24338">
        <ele>703.5</ele>
        <time>2015-12-06T10:15:23Z</time>
      </trkpt>
      <trkpt lat="44.12928" lon="3.24332">
        <ele>702</ele>
        <time>2015-12-06T10:15:24Z</time>
      </trkpt>
      <trkpt lat="44.12923" lon="3.24324">
        <ele>701</ele>
        <time>2015-12-06T10:15:25Z</time>
      </trkpt>
      <trkpt lat="44.12917" lon="3.24318">
        <ele>700.5</ele>
        <time>2015-12-06T10:15:26Z</time>
      </trkpt>
      <trkpt lat="44.12912" lon="3.24313">
        <ele>700</ele>
        <time>2015-12-06T10:15:27Z</time>
      </trkpt>
      <trkpt lat="44.12908" lon="3.24298">
        <ele>699.5</ele>
        <time>2015-12-06T10:15:29Z</time>
      </trkpt>
      <trkpt lat="44.12907" lon="3.24288">
        <ele>699</ele>
        <time>2015-12-06T10:15:30Z</time>
      </trkpt>
      <trkpt lat="44.12907" lon="3.24278">
        <ele>698</ele>
        <time>2015-12-06T10:15:31Z</time>
      </trkpt>
      <trkpt lat="44.12907" lon="3.24268">
        <ele>697.5</ele>
        <time>2015-12-06T10:15:32Z</time>
      </trkpt>
      <trkpt lat="44.12908" lon="3.24259">
        <ele>698</ele>
        <time>2015-12-06T10:15:33Z</time>
      </trkpt>
      <trkpt lat="44.12908" lon="3.24249">
        <ele>699.5</ele>
        <time>2015-12-06T10:15:34Z</time>
      </trkpt>
      <trkpt lat="44.12909" lon="3.24239">
        <ele>699.5</ele>
        <time>2015-12-06T10:15:35Z</time>
      </trkpt>
      <trkpt lat="44.1291" lon="3.24229">
        <ele>699</ele>
        <time>2015-12-06T10:15:36Z</time>
      </trkpt>
      <trkpt lat="44.12912" lon="3.24219">
        <ele>698.5</ele>
        <time>2015-12-06T10:15:37Z</time>
      </trkpt>
      <trkpt lat="44.12913" lon="3.2421">
        <ele>699</ele>
        <time>2015-12-06T10:15:38Z</time>
      </trkpt>
      <trkpt lat="44.12914" lon="3.24199">
        <ele>698.5</ele>
        <time>2015-12-06T10:15:39Z</time>
      </trkpt>
      <trkpt lat="44.12915" lon="3.24188">
        <ele>698</ele>
        <time>2015-12-06T10:15:40Z</time>
      </trkpt>
      <trkpt lat="44.12917" lon="3.24179">
        <ele>697.5</ele>
        <time>2015-12-06T10:15:41Z</time>
      </trkpt>
      <trkpt lat="44.12918" lon="3.2417">
        <ele>698</ele>
        <time>2015-12-06T10:15:42Z</time>
      </trkpt>
      <trkpt lat="44.12919" lon="3.24162">
        <ele>698</ele>
        <time>2015-12-06T10:15:43Z</time>
      </trkpt>
      <trkpt lat="44.1292" lon="3.24153">
        <ele>697.5</ele>
        <time>2015-12-06T10:15:44Z</time>
      </trkpt>
      <trkpt lat="44.12921" lon="3.24145">
        <ele>696.5</ele>
        <time>2015-12-06T10:15:45Z</time>
      </trkpt>
      <trkpt lat="44.12924" lon="3.24137">
        <ele>695.5</ele>
        <time>2015-12-06T10:15:46Z</time>
      </trkpt>
      <trkpt lat="44.12931" lon="3.24132">
        <ele>693</ele>
        <time>2015-12-06T10:15:47Z</time>
      </trkpt>
      <trkpt lat="44.12936" lon="3.24128">
        <ele>693</ele>
        <time>2015-12-06T10:15:48Z</time>
      </trkpt>
      <trkpt lat="44.1294" lon="3.24124">
        <ele>693</ele>
        <time>2015-12-06T10:15:49Z</time>
      </trkpt>
      <trkpt lat="44.12937" lon="3.24117">
        <ele>693</ele>
        <time>2015-12-06T10:15:51Z</time>
      </trkpt>
      <trkpt lat="44.12935" lon="3.24114">
        <ele>693</ele>
        <time>2015-12-06T10:15:52Z</time>
      </trkpt>
      <trkpt lat="44.12934" lon="3.24112">
        <ele>693</ele>
        <time>2015-12-06T10:15:53Z</time>
      </trkpt>
      <trkpt lat="44.12932" lon="3.24112">
        <ele>694</ele>
        <time>2015-12-06T10:15:54Z</time>
      </trkpt>
      <trkpt lat="44.12931" lon="3.24112">
        <ele>695.5</ele>
        <time>2015-12-06T10:15:56Z</time>
      </trkpt>
      <trkpt lat="44.1293" lon="3.24113">
        <ele>694</ele>
        <time>2015-12-06T10:15:58Z</time>
      </trkpt>
      <trkpt lat="44.12928" lon="3.24111">
        <ele>695</ele>
        <time>2015-12-06T10:15:59Z</time>
      </trkpt>
      <trkpt lat="44.12926" lon="3.2411">
        <ele>696</ele>
        <time>2015-12-06T10:16:00Z</time>
      </trkpt>
      <trkpt lat="44.12924" lon="3.24108">
        <ele>695</ele>
        <time>2015-12-06T10:16:01Z</time>
      </trkpt>
      <trkpt lat="44.12915" lon="3.24099">
        <ele>695</ele>
        <time>2015-12-06T10:16:03Z</time>
      </trkpt>
      <trkpt lat="44.12911" lon="3.24094">
        <ele>694.5</ele>
        <time>2015-12-06T10:16:04Z</time>
      </trkpt>
      <trkpt lat="44.12908" lon="3.2409">
        <ele>695</ele>
        <time>2015-12-06T10:16:05Z</time>
      </trkpt>
      <trkpt lat="44.12902" lon="3.24091">
        <ele>695</ele>
        <time>2015-12-06T10:16:07Z</time>
      </trkpt>
      <trkpt lat="44.129" lon="3.24093">
        <ele>696.5</ele>
        <time>2015-12-06T10:16:08Z</time>
      </trkpt>
      <trkpt lat="44.12896" lon="3.24095">
        <ele>696.5</ele>
        <time>2015-12-06T10:16:08Z</time>
      </trkpt>
      <trkpt lat="44.12893" lon="3.24099">
        <ele>699</ele>
        <time>2015-12-06T10:16:09Z</time>
      </trkpt>
      <trkpt lat="44.12888" lon="3.24102">
        <ele>699.5</ele>
        <time>2015-12-06T10:16:11Z</time>
      </trkpt>
      <trkpt lat="44.12883" lon="3.24105">
        <ele>700.5</ele>
        <time>2015-12-06T10:16:11Z</time>
      </trkpt>
      <trkpt lat="44.12877" lon="3.24108">
        <ele>701</ele>
        <time>2015-12-06T10:16:12Z</time>
      </trkpt>
      <trkpt lat="44.12872" lon="3.24111">
        <ele>701.5</ele>
        <time>2015-12-06T10:16:13Z</time>
      </trkpt>
      <trkpt lat="44.12867" lon="3.24114">
        <ele>700</ele>
        <time>2015-12-06T10:16:14Z</time>
      </trkpt>
      <trkpt lat="44.12862" lon="3.24115">
        <ele>701.5</ele>
        <time>2015-12-06T10:16:15Z</time>
      </trkpt>
      <trkpt lat="44.12858" lon="3.24116">
        <ele>702</ele>
        <time>2015-12-06T10:16:16Z</time>
      </trkpt>
      <trkpt lat="44.12854" lon="3.24118">
        <ele>701.5</ele>
        <time>2015-12-06T10:16:17Z</time>
      </trkpt>
      <trkpt lat="44.12849" lon="3.24119">
        <ele>701.5</ele>
        <time>2015-12-06T10:16:18Z</time>
      </trkpt>
      <trkpt lat="44.12845" lon="3.24119">
        <ele>701</ele>
        <time>2015-12-06T10:16:20Z</time>
      </trkpt>
      <trkpt lat="44.1284" lon="3.24119">
        <ele>701</ele>
        <time>2015-12-06T10:16:20Z</time>
      </trkpt>
      <trkpt lat="44.12835" lon="3.24121">
        <ele>700.5</ele>
        <time>2015-12-06T10:16:21Z</time>
      </trkpt>
      <trkpt lat="44.1283" lon="3.24123">
        <ele>701</ele>
        <time>2015-12-06T10:16:22Z</time>
      </trkpt>
      <trkpt lat="44.12824" lon="3.24126">
        <ele>700</ele>
        <time>2015-12-06T10:16:23Z</time>
      </trkpt>
      <trkpt lat="44.12819" lon="3.24131">
        <ele>701.5</ele>
        <time>2015-12-06T10:16:24Z</time>
      </trkpt>
      <trkpt lat="44.12814" lon="3.24134">
        <ele>702.5</ele>
        <time>2015-12-06T10:16:25Z</time>
      </trkpt>
      <trkpt lat="44.12809" lon="3.24136">
        <ele>703.5</ele>
        <time>2015-12-06T10:16:26Z</time>
      </trkpt>
      <trkpt lat="44.12803" lon="3.24139">
        <ele>703</ele>
        <time>2015-12-06T10:16:27Z</time>
      </trkpt>
      <trkpt lat="44.12797" lon="3.24143">
        <ele>700.5</ele>
        <time>2015-12-06T10:16:28Z</time>
      </trkpt>
      <trkpt lat="44.12793" lon="3.24151">
        <ele>700</ele>
        <time>2015-12-06T10:16:29Z</time>
      </trkpt>
      <trkpt lat="44.12787" lon="3.24157">
        <ele>698</ele>
        <time>2015-12-06T10:16:30Z</time>
      </trkpt>
      <trkpt lat="44.12781" lon="3.24163">
        <ele>696.5</ele>
        <time>2015-12-06T10:16:32Z</time>
      </trkpt>
      <trkpt lat="44.12776" lon="3.2417">
        <ele>695.5</ele>
        <time>2015-12-06T10:16:32Z</time>
      </trkpt>
      <trkpt lat="44.1277" lon="3.24177">
        <ele>694</ele>
        <time>2015-12-06T10:16:33Z</time>
      </trkpt>
      <trkpt lat="44.1276" lon="3.24183">
        <ele>694</ele>
        <time>2015-12-06T10:16:35Z</time>
      </trkpt>
      <trkpt lat="44.12752" lon="3.24183">
        <ele>693</ele>
        <time>2015-12-06T10:16:36Z</time>
      </trkpt>
      <trkpt lat="44.12744" lon="3.24183">
        <ele>691.5</ele>
        <time>2015-12-06T10:16:37Z</time>
      </trkpt>
      <trkpt lat="44.12736" lon="3.24183">
        <ele>690</ele>
        <time>2015-12-06T10:16:38Z</time>
      </trkpt>
      <trkpt lat="44.12727" lon="3.24182">
        <ele>688.5</ele>
        <time>2015-12-06T10:16:39Z</time>
      </trkpt>
      <trkpt lat="44.12718" lon="3.24181">
        <ele>686</ele>
        <time>2015-12-06T10:16:40Z</time>
      </trkpt>
      <trkpt lat="44.12708" lon="3.2418">
        <ele>684</ele>
        <time>2015-12-06T10:16:41Z</time>
      </trkpt>
      <trkpt lat="44.12699" lon="3.24179">
        <ele>682.5</ele>
        <time>2015-12-06T10:16:42Z</time>
      </trkpt>
      <trkpt lat="44.12689" lon="3.24178">
        <ele>683</ele>
        <time>2015-12-06T10:16:43Z</time>
      </trkpt>
      <trkpt lat="44.12675" lon="3.24172">
        <ele>682</ele>
        <time>2015-12-06T10:16:45Z</time>
      </trkpt>
      <trkpt lat="44.12668" lon="3.2417">
        <ele>682</ele>
        <time>2015-12-06T10:16:47Z</time>
      </trkpt>
      <trkpt lat="44.12661" lon="3.24159">
        <ele>683</ele>
        <time>2015-12-06T10:16:48Z</time>
      </trkpt>
      <trkpt lat="44.12659" lon="3.24145">
        <ele>682</ele>
        <time>2015-12-06T10:16:50Z</time>
      </trkpt>
      <trkpt lat="44.12658" lon="3.24136">
        <ele>682</ele>
        <time>2015-12-06T10:16:51Z</time>
      </trkpt>
      <trkpt lat="44.12658" lon="3.24128">
        <ele>681.5</ele>
        <time>2015-12-06T10:16:52Z</time>
      </trkpt>
      <trkpt lat="44.12657" lon="3.24119">
        <ele>681</ele>
        <time>2015-12-06T10:16:53Z</time>
      </trkpt>
      <trkpt lat="44.12655" lon="3.2411">
        <ele>680.5</ele>
        <time>2015-12-06T10:16:54Z</time>
      </trkpt>
      <trkpt lat="44.12651" lon="3.24102">
        <ele>677.5</ele>
        <time>2015-12-06T10:16:56Z</time>
      </trkpt>
      <trkpt lat="44.12643" lon="3.24104">
        <ele>678.5</ele>
        <time>2015-12-06T10:16:58Z</time>
      </trkpt>
      <trkpt lat="44.12636" lon="3.24103">
        <ele>679.5</ele>
        <time>2015-12-06T10:16:59Z</time>
      </trkpt>
      <trkpt lat="44.1263" lon="3.24101">
        <ele>680</ele>
        <time>2015-12-06T10:17:01Z</time>
      </trkpt>
      <trkpt lat="44.12624" lon="3.24098">
        <ele>680</ele>
        <time>2015-12-06T10:17:02Z</time>
      </trkpt>
      <trkpt lat="44.12619" lon="3.24099">
        <ele>682</ele>
        <time>2015-12-06T10:17:02Z</time>
      </trkpt>
      <trkpt lat="44.1261" lon="3.24099">
        <ele>684.5</ele>
        <time>2015-12-06T10:17:04Z</time>
      </trkpt>
      <trkpt lat="44.12596" lon="3.24098">
        <ele>683.5</ele>
        <time>2015-12-06T10:17:06Z</time>
      </trkpt>
      <trkpt lat="44.12587" lon="3.24098">
        <ele>683.5</ele>
        <time>2015-12-06T10:17:07Z</time>
      </trkpt>
      <trkpt lat="44.12581" lon="3.24096">
        <ele>683.5</ele>
        <time>2015-12-06T10:17:08Z</time>
      </trkpt>
      <trkpt lat="44.12567" lon="3.24095">
        <ele>682</ele>
        <time>2015-12-06T10:17:10Z</time>
      </trkpt>
      <trkpt lat="44.1256" lon="3.24098">
        <ele>683</ele>
        <time>2015-12-06T10:17:12Z</time>
      </trkpt>
      <trkpt lat="44.12554" lon="3.24098">
        <ele>681.5</ele>
        <time>2015-12-06T10:17:12Z</time>
      </trkpt>
      <trkpt lat="44.12548" lon="3.24099">
        <ele>681</ele>
        <time>2015-12-06T10:17:13Z</time>
      </trkpt>
      <trkpt lat="44.12542" lon="3.241">
        <ele>680</ele>
        <time>2015-12-06T10:17:14Z</time>
      </trkpt>
      <trkpt lat="44.12536" lon="3.24101">
        <ele>681</ele>
        <time>2015-12-06T10:17:15Z</time>
      </trkpt>
      <trkpt lat="44.12527" lon="3.24103">
        <ele>679.5</ele>
        <time>2015-12-06T10:17:17Z</time>
      </trkpt>
      <trkpt lat="44.1252" lon="3.24104">
        <ele>677.5</ele>
        <time>2015-12-06T10:17:19Z</time>
      </trkpt>
      <trkpt lat="44.12513" lon="3.24105">
        <ele>677.5</ele>
        <time>2015-12-06T10:17:19Z</time>
      </trkpt>
      <trkpt lat="44.12503" lon="3.24108">
        <ele>678</ele>
        <time>2015-12-06T10:17:21Z</time>
      </trkpt>
      <trkpt lat="44.12496" lon="3.24109">
        <ele>677.5</ele>
        <time>2015-12-06T10:17:22Z</time>
      </trkpt>
      <trkpt lat="44.1249" lon="3.24109">
        <ele>677.5</ele>
        <time>2015-12-06T10:17:23Z</time>
      </trkpt>
      <trkpt lat="44.12484" lon="3.24108">
        <ele>677.5</ele>
        <time>2015-12-06T10:17:24Z</time>
      </trkpt>
      <trkpt lat="44.12477" lon="3.24108">
        <ele>676.5</ele>
        <time>2015-12-06T10:17:25Z</time>
      </trkpt>
      <trkpt lat="44.12469" lon="3.2411">
        <ele>678.5</ele>
        <time>2015-12-06T10:17:26Z</time>
      </trkpt>
      <trkpt lat="44.12461" lon="3.2411">
        <ele>678</ele>
        <time>2015-12-06T10:17:27Z</time>
      </trkpt>
      <trkpt lat="44.12448" lon="3.24111">
        <ele>676.5</ele>
        <time>2015-12-06T10:17:29Z</time>
      </trkpt>
      <trkpt lat="44.12442" lon="3.24111">
        <ele>676</ele>
        <time>2015-12-06T10:17:30Z</time>
      </trkpt>
      <trkpt lat="44.12435" lon="3.24111">
        <ele>675</ele>
        <time>2015-12-06T10:17:31Z</time>
      </trkpt>
      <trkpt lat="44.12428" lon="3.24111">
        <ele>674.5</ele>
        <time>2015-12-06T10:17:32Z</time>
      </trkpt>
      <trkpt lat="44.12422" lon="3.2411">
        <ele>674.5</ele>
        <time>2015-12-06T10:17:33Z</time>
      </trkpt>
      <trkpt lat="44.12415" lon="3.24108">
        <ele>674</ele>
        <time>2015-12-06T10:17:34Z</time>
      </trkpt>
      <trkpt lat="44.12409" lon="3.24104">
        <ele>672.5</ele>
        <time>2015-12-06T10:17:35Z</time>
      </trkpt>
      <trkpt lat="44.12402" lon="3.24098">
        <ele>670</ele>
        <time>2015-12-06T10:17:36Z</time>
      </trkpt>
      <trkpt lat="44.12396" lon="3.24092">
        <ele>669.5</ele>
        <time>2015-12-06T10:17:37Z</time>
      </trkpt>
      <trkpt lat="44.12382" lon="3.2408">
        <ele>665.5</ele>
        <time>2015-12-06T10:17:39Z</time>
      </trkpt>
      <trkpt lat="44.12375" lon="3.24072">
        <ele>663</ele>
        <time>2015-12-06T10:17:40Z</time>
      </trkpt>
      <trkpt lat="44.12369" lon="3.24067">
        <ele>662.5</ele>
        <time>2015-12-06T10:17:41Z</time>
      </trkpt>
      <trkpt lat="44.12362" lon="3.2406">
        <ele>660.5</ele>
        <time>2015-12-06T10:17:42Z</time>
      </trkpt>
      <trkpt lat="44.12352" lon="3.24053">
        <ele>660.5</ele>
        <time>2015-12-06T10:17:44Z</time>
      </trkpt>
      <trkpt lat="44.12348" lon="3.24047">
        <ele>659.5</ele>
        <time>2015-12-06T10:17:45Z</time>
      </trkpt>
      <trkpt lat="44.12346" lon="3.2404">
        <ele>658.5</ele>
        <time>2015-12-06T10:17:46Z</time>
      </trkpt>
      <trkpt lat="44.12342" lon="3.24028">
        <ele>657</ele>
        <time>2015-12-06T10:17:48Z</time>
      </trkpt>
      <trkpt lat="44.12341" lon="3.24014">
        <ele>653.5</ele>
        <time>2015-12-06T10:17:50Z</time>
      </trkpt>
      <trkpt lat="44.1234" lon="3.23996">
        <ele>652.5</ele>
        <time>2015-12-06T10:17:52Z</time>
      </trkpt>
      <trkpt lat="44.12338" lon="3.23986">
        <ele>652</ele>
        <time>2015-12-06T10:17:53Z</time>
      </trkpt>
      <trkpt lat="44.12336" lon="3.2397">
        <ele>651</ele>
        <time>2015-12-06T10:17:55Z</time>
      </trkpt>
      <trkpt lat="44.12334" lon="3.23959">
        <ele>651</ele>
        <time>2015-12-06T10:17:56Z</time>
      </trkpt>
      <trkpt lat="44.12333" lon="3.23949">
        <ele>650.5</ele>
        <time>2015-12-06T10:17:57Z</time>
      </trkpt>
      <trkpt lat="44.12332" lon="3.23938">
        <ele>648.5</ele>
        <time>2015-12-06T10:17:58Z</time>
      </trkpt>
      <trkpt lat="44.12331" lon="3.23927">
        <ele>647</ele>
        <time>2015-12-06T10:17:59Z</time>
      </trkpt>
      <trkpt lat="44.12331" lon="3.23916">
        <ele>646</ele>
        <time>2015-12-06T10:18:00Z</time>
      </trkpt>
      <trkpt lat="44.12328" lon="3.239">
        <ele>646</ele>
        <time>2015-12-06T10:18:02Z</time>
      </trkpt>
      <trkpt lat="44.12327" lon="3.2389">
        <ele>645.5</ele>
        <time>2015-12-06T10:18:03Z</time>
      </trkpt>
      <trkpt lat="44.12325" lon="3.23881">
        <ele>646.5</ele>
        <time>2015-12-06T10:18:04Z</time>
      </trkpt>
      <trkpt lat="44.12324" lon="3.23872">
        <ele>646</ele>
        <time>2015-12-06T10:18:05Z</time>
      </trkpt>
      <trkpt lat="44.12325" lon="3.23861">
        <ele>644.5</ele>
        <time>2015-12-06T10:18:06Z</time>
      </trkpt>
      <trkpt lat="44.12325" lon="3.23849">
        <ele>644</ele>
        <time>2015-12-06T10:18:07Z</time>
      </trkpt>
      <trkpt lat="44.12327" lon="3.23831">
        <ele>645</ele>
        <time>2015-12-06T10:18:09Z</time>
      </trkpt>
      <trkpt lat="44.12328" lon="3.23822">
        <ele>644.5</ele>
        <time>2015-12-06T10:18:10Z</time>
      </trkpt>
      <trkpt lat="44.12329" lon="3.23812">
        <ele>643.5</ele>
        <time>2015-12-06T10:18:11Z</time>
      </trkpt>
      <trkpt lat="44.12329" lon="3.23803">
        <ele>643</ele>
        <time>2015-12-06T10:18:12Z</time>
      </trkpt>
      <trkpt lat="44.12327" lon="3.23794">
        <ele>642.5</ele>
        <time>2015-12-06T10:18:13Z</time>
      </trkpt>
      <trkpt lat="44.12324" lon="3.23775">
        <ele>640.5</ele>
        <time>2015-12-06T10:18:15Z</time>
      </trkpt>
      <trkpt lat="44.12322" lon="3.23767">
        <ele>639</ele>
        <time>2015-12-06T10:18:16Z</time>
      </trkpt>
      <trkpt lat="44.12319" lon="3.23758">
        <ele>639</ele>
        <time>2015-12-06T10:18:17Z</time>
      </trkpt>
      <trkpt lat="44.12316" lon="3.23749">
        <ele>638</ele>
        <time>2015-12-06T10:18:18Z</time>
      </trkpt>
      <trkpt lat="44.12314" lon="3.2374">
        <ele>636.5</ele>
        <time>2015-12-06T10:18:19Z</time>
      </trkpt>
      <trkpt lat="44.12312" lon="3.23732">
        <ele>635</ele>
        <time>2015-12-06T10:18:20Z</time>
      </trkpt>
      <trkpt lat="44.12305" lon="3.23722">
        <ele>633.5</ele>
        <time>2015-12-06T10:18:22Z</time>
      </trkpt>
      <trkpt lat="44.12305" lon="3.23718">
        <ele>633</ele>
        <time>2015-12-06T10:18:23Z</time>
      </trkpt>
      <trkpt lat="44.12304" lon="3.23719">
        <ele>634</ele>
        <time>2015-12-06T10:18:24Z</time>
      </trkpt>
      <trkpt lat="44.12305" lon="3.23721">
        <ele>634.5</ele>
        <time>2015-12-06T10:18:27Z</time>
      </trkpt>
      <trkpt lat="44.123" lon="3.23717">
        <ele>635</ele>
        <time>2015-12-06T10:18:37Z</time>
      </trkpt>
      <trkpt lat="44.12299" lon="3.23706">
        <ele>631</ele>
        <time>2015-12-06T10:18:46Z</time>
      </trkpt>
      <trkpt lat="44.12298" lon="3.23704">
        <ele>631</ele>
        <time>2015-12-06T10:18:48Z</time>
      </trkpt>
      <trkpt lat="44.12297" lon="3.23701">
        <ele>631</ele>
        <time>2015-12-06T10:18:49Z</time>
      </trkpt>
      <trkpt lat="44.12297" lon="3.23698">
        <ele>631.5</ele>
        <time>2015-12-06T10:18:50Z</time>
      </trkpt>
      <trkpt lat="44.12296" lon="3.23694">
        <ele>631.5</ele>
        <time>2015-12-06T10:18:51Z</time>
      </trkpt>
      <trkpt lat="44.12296" lon="3.23691">
        <ele>633</ele>
        <time>2015-12-06T10:18:52Z</time>
      </trkpt>
      <trkpt lat="44.12295" lon="3.23686">
        <ele>633.5</ele>
        <time>2015-12-06T10:18:53Z</time>
      </trkpt>
      <trkpt lat="44.12294" lon="3.23681">
        <ele>634</ele>
        <time>2015-12-06T10:18:54Z</time>
      </trkpt>
      <trkpt lat="44.12293" lon="3.23673">
        <ele>633</ele>
        <time>2015-12-06T10:18:55Z</time>
      </trkpt>
      <trkpt lat="44.12293" lon="3.23666">
        <ele>631.5</ele>
        <time>2015-12-06T10:18:56Z</time>
      </trkpt>
      <trkpt lat="44.12291" lon="3.23646">
        <ele>633</ele>
        <time>2015-12-06T10:18:58Z</time>
      </trkpt>
      <trkpt lat="44.1229" lon="3.23637">
        <ele>635</ele>
        <time>2015-12-06T10:18:59Z</time>
      </trkpt>
      <trkpt lat="44.12292" lon="3.23625">
        <ele>636.5</ele>
        <time>2015-12-06T10:19:01Z</time>
      </trkpt>
      <trkpt lat="44.12291" lon="3.23605">
        <ele>636</ele>
        <time>2015-12-06T10:19:03Z</time>
      </trkpt>
      <trkpt lat="44.12291" lon="3.23596">
        <ele>636.5</ele>
        <time>2015-12-06T10:19:04Z</time>
      </trkpt>
      <trkpt lat="44.12291" lon="3.23589">
        <ele>636</ele>
        <time>2015-12-06T10:19:05Z</time>
      </trkpt>
      <trkpt lat="44.12292" lon="3.23583">
        <ele>634.5</ele>
        <time>2015-12-06T10:19:06Z</time>
      </trkpt>
      <trkpt lat="44.12292" lon="3.23578">
        <ele>636</ele>
        <time>2015-12-06T10:19:07Z</time>
      </trkpt>
      <trkpt lat="44.12294" lon="3.23573">
        <ele>635.5</ele>
        <time>2015-12-06T10:19:08Z</time>
      </trkpt>
      <trkpt lat="44.12296" lon="3.23574">
        <ele>635</ele>
        <time>2015-12-06T10:19:09Z</time>
      </trkpt>
      <trkpt lat="44.12299" lon="3.23573">
        <ele>634</ele>
        <time>2015-12-06T10:19:10Z</time>
      </trkpt>
      <trkpt lat="44.12299" lon="3.2357">
        <ele>635.5</ele>
        <time>2015-12-06T10:19:11Z</time>
      </trkpt>
      <trkpt lat="44.123" lon="3.23565">
        <ele>637.5</ele>
        <time>2015-12-06T10:19:12Z</time>
      </trkpt>
      <trkpt lat="44.12301" lon="3.2356">
        <ele>637.5</ele>
        <time>2015-12-06T10:19:13Z</time>
      </trkpt>
      <trkpt lat="44.12302" lon="3.23555">
        <ele>638.5</ele>
        <time>2015-12-06T10:19:14Z</time>
      </trkpt>
      <trkpt lat="44.12302" lon="3.23549">
        <ele>639.5</ele>
        <time>2015-12-06T10:19:15Z</time>
      </trkpt>
      <trkpt lat="44.12304" lon="3.23543">
        <ele>639</ele>
        <time>2015-12-06T10:19:16Z</time>
      </trkpt>
      <trkpt lat="44.12306" lon="3.23537">
        <ele>639</ele>
        <time>2015-12-06T10:19:17Z</time>
      </trkpt>
      <trkpt lat="44.12307" lon="3.23531">
        <ele>640.5</ele>
        <time>2015-12-06T10:19:18Z</time>
      </trkpt>
      <trkpt lat="44.12308" lon="3.23525">
        <ele>642</ele>
        <time>2015-12-06T10:19:19Z</time>
      </trkpt>
      <trkpt lat="44.12309" lon="3.23521">
        <ele>641.5</ele>
        <time>2015-12-06T10:19:20Z</time>
      </trkpt>
      <trkpt lat="44.12311" lon="3.23517">
        <ele>641.5</ele>
        <time>2015-12-06T10:19:21Z</time>
      </trkpt>
      <trkpt lat="44.1231" lon="3.23513">
        <ele>642.5</ele>
        <time>2015-12-06T10:19:22Z</time>
      </trkpt>
      <trkpt lat="44.1231" lon="3.23506">
        <ele>642.5</ele>
        <time>2015-12-06T10:19:23Z</time>
      </trkpt>
      <trkpt lat="44.1231" lon="3.23503">
        <ele>642</ele>
        <time>2015-12-06T10:19:24Z</time>
      </trkpt>
      <trkpt lat="44.12309" lon="3.23499">
        <ele>643</ele>
        <time>2015-12-06T10:19:25Z</time>
      </trkpt>
      <trkpt lat="44.1231" lon="3.23495">
        <ele>643.5</ele>
        <time>2015-12-06T10:19:26Z</time>
      </trkpt>
      <trkpt lat="44.12312" lon="3.23486">
        <ele>643</ele>
        <time>2015-12-06T10:19:28Z</time>
      </trkpt>
      <trkpt lat="44.12311" lon="3.23482">
        <ele>642.5</ele>
        <time>2015-12-06T10:19:29Z</time>
      </trkpt>
      <trkpt lat="44.1231" lon="3.2347">
        <ele>646.5</ele>
        <time>2015-12-06T10:19:31Z</time>
      </trkpt>
      <trkpt lat="44.1231" lon="3.23464">
        <ele>647</ele>
        <time>2015-12-06T10:19:32Z</time>
      </trkpt>
      <trkpt lat="44.12309" lon="3.2345">
        <ele>647.5</ele>
        <time>2015-12-06T10:19:34Z</time>
      </trkpt>
      <trkpt lat="44.12309" lon="3.23445">
        <ele>647.5</ele>
        <time>2015-12-06T10:19:35Z</time>
      </trkpt>
      <trkpt lat="44.12308" lon="3.23433">
        <ele>651.5</ele>
        <time>2015-12-06T10:19:37Z</time>
      </trkpt>
      <trkpt lat="44.12309" lon="3.23427">
        <ele>651.5</ele>
        <time>2015-12-06T10:19:38Z</time>
      </trkpt>
      <trkpt lat="44.1231" lon="3.23422">
        <ele>651.5</ele>
        <time>2015-12-06T10:19:39Z</time>
      </trkpt>
      <trkpt lat="44.12312" lon="3.23418">
        <ele>651.5</ele>
        <time>2015-12-06T10:19:40Z</time>
      </trkpt>
      <trkpt lat="44.12312" lon="3.23413">
        <ele>651.5</ele>
        <time>2015-12-06T10:19:41Z</time>
      </trkpt>
      <trkpt lat="44.12312" lon="3.23407">
        <ele>652</ele>
        <time>2015-12-06T10:19:42Z</time>
      </trkpt>
      <trkpt lat="44.12312" lon="3.23402">
        <ele>654</ele>
        <time>2015-12-06T10:19:43Z</time>
      </trkpt>
      <trkpt lat="44.12313" lon="3.23398">
        <ele>654.5</ele>
        <time>2015-12-06T10:19:44Z</time>
      </trkpt>
      <trkpt lat="44.12314" lon="3.23395">
        <ele>656</ele>
        <time>2015-12-06T10:19:45Z</time>
      </trkpt>
      <trkpt lat="44.12315" lon="3.23391">
        <ele>657.5</ele>
        <time>2015-12-06T10:19:46Z</time>
      </trkpt>
      <trkpt lat="44.12317" lon="3.23385">
        <ele>657.5</ele>
        <time>2015-12-06T10:19:47Z</time>
      </trkpt>
      <trkpt lat="44.1232" lon="3.2338">
        <ele>657.5</ele>
        <time>2015-12-06T10:19:48Z</time>
      </trkpt>
      <trkpt lat="44.12327" lon="3.23369">
        <ele>651</ele>
        <time>2015-12-06T10:19:50Z</time>
      </trkpt>
      <trkpt lat="44.12332" lon="3.23364">
        <ele>646</ele>
        <time>2015-12-06T10:19:51Z</time>
      </trkpt>
      <trkpt lat="44.12334" lon="3.23359">
        <ele>647</ele>
        <time>2015-12-06T10:19:52Z</time>
      </trkpt>
      <trkpt lat="44.12335" lon="3.23353">
        <ele>649.5</ele>
        <time>2015-12-06T10:19:53Z</time>
      </trkpt>
      <trkpt lat="44.12337" lon="3.23348">
        <ele>650</ele>
        <time>2015-12-06T10:19:54Z</time>
      </trkpt>
      <trkpt lat="44.12344" lon="3.23336">
        <ele>644.5</ele>
        <time>2015-12-06T10:19:56Z</time>
      </trkpt>
      <trkpt lat="44.12349" lon="3.2333">
        <ele>638.5</ele>
        <time>2015-12-06T10:19:57Z</time>
      </trkpt>
      <trkpt lat="44.12353" lon="3.23325">
        <ele>637</ele>
        <time>2015-12-06T10:19:58Z</time>
      </trkpt>
      <trkpt lat="44.12354" lon="3.2332">
        <ele>636</ele>
        <time>2015-12-06T10:20:00Z</time>
      </trkpt>
      <trkpt lat="44.12353" lon="3.23317">
        <ele>635.5</ele>
        <time>2015-12-06T10:20:01Z</time>
      </trkpt>
      <trkpt lat="44.12352" lon="3.23314">
        <ele>635.5</ele>
        <time>2015-12-06T10:20:02Z</time>
      </trkpt>
      <trkpt lat="44.12349" lon="3.23305">
        <ele>632.5</ele>
        <time>2015-12-06T10:20:04Z</time>
      </trkpt>
      <trkpt lat="44.12347" lon="3.23302">
        <ele>632</ele>
        <time>2015-12-06T10:20:05Z</time>
      </trkpt>
      <trkpt lat="44.12345" lon="3.23297">
        <ele>630.5</ele>
        <time>2015-12-06T10:20:06Z</time>
      </trkpt>
      <trkpt lat="44.12343" lon="3.23293">
        <ele>630</ele>
        <time>2015-12-06T10:20:07Z</time>
      </trkpt>
      <trkpt lat="44.12344" lon="3.23287">
        <ele>627.5</ele>
        <time>2015-12-06T10:20:08Z</time>
      </trkpt>
      <trkpt lat="44.12345" lon="3.2328">
        <ele>629.5</ele>
        <time>2015-12-06T10:20:09Z</time>
      </trkpt>
      <trkpt lat="44.12345" lon="3.2327">
        <ele>631</ele>
        <time>2015-12-06T10:20:11Z</time>
      </trkpt>
      <trkpt lat="44.12343" lon="3.23267">
        <ele>633.5</ele>
        <time>2015-12-06T10:20:12Z</time>
      </trkpt>
      <trkpt lat="44.12343" lon="3.23263">
        <ele>634.5</ele>
        <time>2015-12-06T10:20:13Z</time>
      </trkpt>
      <trkpt lat="44.12344" lon="3.23261">
        <ele>635</ele>
        <time>2015-12-06T10:20:14Z</time>
      </trkpt>
      <trkpt lat="44.12346" lon="3.2326">
        <ele>634</ele>
        <time>2015-12-06T10:20:15Z</time>
      </trkpt>
      <trkpt lat="44.12349" lon="3.23263">
        <ele>632</ele>
        <time>2015-12-06T10:20:16Z</time>
      </trkpt>
      <trkpt lat="44.12352" lon="3.23266">
        <ele>630.5</ele>
        <time>2015-12-06T10:20:17Z</time>
      </trkpt>
      <trkpt lat="44.12355" lon="3.23268">
        <ele>628.5</ele>
        <time>2015-12-06T10:20:18Z</time>
      </trkpt>
      <trkpt lat="44.12357" lon="3.23269">
        <ele>627</ele>
        <time>2015-12-06T10:20:19Z</time>
      </trkpt>
      <trkpt lat="44.12359" lon="3.23272">
        <ele>624.5</ele>
        <time>2015-12-06T10:20:20Z</time>
      </trkpt>
      <trkpt lat="44.12363" lon="3.23273">
        <ele>620.5</ele>
        <time>2015-12-06T10:20:21Z</time>
      </trkpt>
      <trkpt lat="44.12366" lon="3.23275">
        <ele>618</ele>
        <time>2015-12-06T10:20:22Z</time>
      </trkpt>
      <trkpt lat="44.12369" lon="3.23275">
        <ele>617</ele>
        <time>2015-12-06T10:20:23Z</time>
      </trkpt>
      <trkpt lat="44.12372" lon="3.23273">
        <ele>617</ele>
        <time>2015-12-06T10:20:24Z</time>
      </trkpt>
      <trkpt lat="44.12375" lon="3.23271">
        <ele>617</ele>
        <time>2015-12-06T10:20:25Z</time>
      </trkpt>
      <trkpt lat="44.12379" lon="3.2327">
        <ele>616</ele>
        <time>2015-12-06T10:20:26Z</time>
      </trkpt>
      <trkpt lat="44.12383" lon="3.23268">
        <ele>616.5</ele>
        <time>2015-12-06T10:20:27Z</time>
      </trkpt>
      <trkpt lat="44.12386" lon="3.23265">
        <ele>617</ele>
        <time>2015-12-06T10:20:28Z</time>
      </trkpt>
      <trkpt lat="44.12389" lon="3.23263">
        <ele>617</ele>
        <time>2015-12-06T10:20:29Z</time>
      </trkpt>
      <trkpt lat="44.12394" lon="3.23262">
        <ele>615</ele>
        <time>2015-12-06T10:20:30Z</time>
      </trkpt>
      <trkpt lat="44.12398" lon="3.2326">
        <ele>613.5</ele>
        <time>2015-12-06T10:20:31Z</time>
      </trkpt>
      <trkpt lat="44.12402" lon="3.23257">
        <ele>613.5</ele>
        <time>2015-12-06T10:20:32Z</time>
      </trkpt>
      <trkpt lat="44.12405" lon="3.23257">
        <ele>613</ele>
        <time>2015-12-06T10:20:33Z</time>
      </trkpt>
      <trkpt lat="44.12408" lon="3.23257">
        <ele>612.5</ele>
        <time>2015-12-06T10:20:34Z</time>
      </trkpt>
      <trkpt lat="44.1241" lon="3.23256">
        <ele>612</ele>
        <time>2015-12-06T10:20:34Z</time>
      </trkpt>
      <trkpt lat="44.12413" lon="3.23255">
        <ele>610.5</ele>
        <time>2015-12-06T10:20:35Z</time>
      </trkpt>
      <trkpt lat="44.12416" lon="3.23253">
        <ele>609.5</ele>
        <time>2015-12-06T10:20:36Z</time>
      </trkpt>
      <trkpt lat="44.1242" lon="3.23249">
        <ele>610</ele>
        <time>2015-12-06T10:20:37Z</time>
      </trkpt>
      <trkpt lat="44.12424" lon="3.23245">
        <ele>612.5</ele>
        <time>2015-12-06T10:20:38Z</time>
      </trkpt>
      <trkpt lat="44.12428" lon="3.23242">
        <ele>612.5</ele>
        <time>2015-12-06T10:20:40Z</time>
      </trkpt>
      <trkpt lat="44.12432" lon="3.23239">
        <ele>612</ele>
        <time>2015-12-06T10:20:40Z</time>
      </trkpt>
      <trkpt lat="44.12436" lon="3.23236">
        <ele>611.5</ele>
        <time>2015-12-06T10:20:41Z</time>
      </trkpt>
      <trkpt lat="44.1244" lon="3.23234">
        <ele>612</ele>
        <time>2015-12-06T10:20:43Z</time>
      </trkpt>
      <trkpt lat="44.12444" lon="3.23231">
        <ele>612</ele>
        <time>2015-12-06T10:20:43Z</time>
      </trkpt>
      <trkpt lat="44.12449" lon="3.23229">
        <ele>611</ele>
        <time>2015-12-06T10:20:44Z</time>
      </trkpt>
      <trkpt lat="44.12454" lon="3.23226">
        <ele>609.5</ele>
        <time>2015-12-06T10:20:45Z</time>
      </trkpt>
      <trkpt lat="44.12458" lon="3.23222">
        <ele>609</ele>
        <time>2015-12-06T10:20:46Z</time>
      </trkpt>
      <trkpt lat="44.12462" lon="3.23219">
        <ele>607</ele>
        <time>2015-12-06T10:20:48Z</time>
      </trkpt>
      <trkpt lat="44.12463" lon="3.23218">
        <ele>606.5</ele>
        <time>2015-12-06T10:20:50Z</time>
      </trkpt>
      <trkpt lat="44.12464" lon="3.23217">
        <ele>606</ele>
        <time>2015-12-06T10:20:50Z</time>
      </trkpt>
      <trkpt lat="44.12465" lon="3.23215">
        <ele>604</ele>
        <time>2015-12-06T10:20:52Z</time>
      </trkpt>
      <trkpt lat="44.12464" lon="3.23214">
        <ele>604.5</ele>
        <time>2015-12-06T10:20:52Z</time>
      </trkpt>
      <trkpt lat="44.12463" lon="3.23214">
        <ele>604.5</ele>
        <time>2015-12-06T10:20:53Z</time>
      </trkpt>
      <trkpt lat="44.12462" lon="3.23215">
        <ele>604</ele>
        <time>2015-12-06T10:20:54Z</time>
      </trkpt>
      <trkpt lat="44.1246" lon="3.23216">
        <ele>602</ele>
        <time>2015-12-06T10:20:55Z</time>
      </trkpt>
      <trkpt lat="44.12457" lon="3.23216">
        <ele>601.5</ele>
        <time>2015-12-06T10:20:56Z</time>
      </trkpt>
      <trkpt lat="44.12453" lon="3.23214">
        <ele>601.5</ele>
        <time>2015-12-06T10:20:57Z</time>
      </trkpt>
      <trkpt lat="44.12449" lon="3.23213">
        <ele>600</ele>
        <time>2015-12-06T10:20:58Z</time>
      </trkpt>
      <trkpt lat="44.12444" lon="3.23211">
        <ele>602</ele>
        <time>2015-12-06T10:20:59Z</time>
      </trkpt>
      <trkpt lat="44.12439" lon="3.2321">
        <ele>603.5</ele>
        <time>2015-12-06T10:21:00Z</time>
      </trkpt>
      <trkpt lat="44.12435" lon="3.2321">
        <ele>603</ele>
        <time>2015-12-06T10:21:01Z</time>
      </trkpt>
      <trkpt lat="44.1243" lon="3.2321">
        <ele>602</ele>
        <time>2015-12-06T10:21:02Z</time>
      </trkpt>
      <trkpt lat="44.12424" lon="3.23209">
        <ele>601.5</ele>
        <time>2015-12-06T10:21:03Z</time>
      </trkpt>
      <trkpt lat="44.12418" lon="3.23207">
        <ele>601.5</ele>
        <time>2015-12-06T10:21:04Z</time>
      </trkpt>
      <trkpt lat="44.12412" lon="3.23205">
        <ele>600</ele>
        <time>2015-12-06T10:21:05Z</time>
      </trkpt>
      <trkpt lat="44.12408" lon="3.232">
        <ele>600</ele>
        <time>2015-12-06T10:21:06Z</time>
      </trkpt>
      <trkpt lat="44.12404" lon="3.23195">
        <ele>599.5</ele>
        <time>2015-12-06T10:21:07Z</time>
      </trkpt>
      <trkpt lat="44.12399" lon="3.23193">
        <ele>599</ele>
        <time>2015-12-06T10:21:08Z</time>
      </trkpt>
      <trkpt lat="44.12393" lon="3.23194">
        <ele>599</ele>
        <time>2015-12-06T10:21:10Z</time>
      </trkpt>
      <trkpt lat="44.12382" lon="3.23183">
        <ele>596.5</ele>
        <time>2015-12-06T10:21:11Z</time>
      </trkpt>
      <trkpt lat="44.12377" lon="3.23187">
        <ele>591.5</ele>
        <time>2015-12-06T10:21:13Z</time>
      </trkpt>
      <trkpt lat="44.12367" lon="3.2318">
        <ele>593</ele>
        <time>2015-12-06T10:21:16Z</time>
      </trkpt>
      <trkpt lat="44.12362" lon="3.23174">
        <ele>589.5</ele>
        <time>2015-12-06T10:21:17Z</time>
      </trkpt>
      <trkpt lat="44.12358" lon="3.23169">
        <ele>589</ele>
        <time>2015-12-06T10:21:18Z</time>
      </trkpt>
      <trkpt lat="44.12351" lon="3.23169">
        <ele>587.5</ele>
        <time>2015-12-06T10:21:20Z</time>
      </trkpt>
      <trkpt lat="44.12351" lon="3.23174">
        <ele>585.5</ele>
        <time>2015-12-06T10:21:21Z</time>
      </trkpt>
      <trkpt lat="44.12349" lon="3.23174">
        <ele>585.5</ele>
        <time>2015-12-06T10:21:22Z</time>
      </trkpt>
      <trkpt lat="44.12347" lon="3.23174">
        <ele>584.5</ele>
        <time>2015-12-06T10:21:23Z</time>
      </trkpt>
      <trkpt lat="44.12345" lon="3.23175">
        <ele>583.5</ele>
        <time>2015-12-06T10:21:24Z</time>
      </trkpt>
      <trkpt lat="44.12343" lon="3.23174">
        <ele>582.5</ele>
        <time>2015-12-06T10:21:25Z</time>
      </trkpt>
      <trkpt lat="44.12342" lon="3.23173">
        <ele>583</ele>
        <time>2015-12-06T10:21:26Z</time>
      </trkpt>
      <trkpt lat="44.12343" lon="3.23171">
        <ele>582.5</ele>
        <time>2015-12-06T10:21:27Z</time>
      </trkpt>
      <trkpt lat="44.12345" lon="3.23171">
        <ele>582</ele>
        <time>2015-12-06T10:21:28Z</time>
      </trkpt>
      <trkpt lat="44.12347" lon="3.2317">
        <ele>582</ele>
        <time>2015-12-06T10:21:29Z</time>
      </trkpt>
      <trkpt lat="44.12349" lon="3.23168">
        <ele>581.5</ele>
        <time>2015-12-06T10:21:30Z</time>
      </trkpt>
      <trkpt lat="44.1235" lon="3.23165">
        <ele>582</ele>
        <time>2015-12-06T10:21:31Z</time>
      </trkpt>
      <trkpt lat="44.12353" lon="3.23162">
        <ele>583</ele>
        <time>2015-12-06T10:21:32Z</time>
      </trkpt>
      <trkpt lat="44.12355" lon="3.23162">
        <ele>582</ele>
        <time>2015-12-06T10:21:33Z</time>
      </trkpt>
      <trkpt lat="44.12356" lon="3.23162">
        <ele>581</ele>
        <time>2015-12-06T10:21:34Z</time>
      </trkpt>
      <trkpt lat="44.12356" lon="3.23162">
        <ele>581.5</ele>
        <time>2015-12-06T10:21:35Z</time>
      </trkpt>
      <trkpt lat="44.12356" lon="3.23161">
        <ele>581.5</ele>
        <time>2015-12-06T10:21:36Z</time>
      </trkpt>
      <trkpt lat="44.12357" lon="3.2316">
        <ele>582.5</ele>
        <time>2015-12-06T10:21:37Z</time>
      </trkpt>
      <trkpt lat="44.12359" lon="3.23159">
        <ele>583</ele>
        <time>2015-12-06T10:21:38Z</time>
      </trkpt>
      <trkpt lat="44.12361" lon="3.23158">
        <ele>582.5</ele>
        <time>2015-12-06T10:21:39Z</time>
      </trkpt>
      <trkpt lat="44.12364" lon="3.23158">
        <ele>581.5</ele>
        <time>2015-12-06T10:21:40Z</time>
      </trkpt>
      <trkpt lat="44.12365" lon="3.23156">
        <ele>579.5</ele>
        <time>2015-12-06T10:21:41Z</time>
      </trkpt>
      <trkpt lat="44.12368" lon="3.23155">
        <ele>577.5</ele>
        <time>2015-12-06T10:21:42Z</time>
      </trkpt>
      <trkpt lat="44.12372" lon="3.23155">
        <ele>575.5</ele>
        <time>2015-12-06T10:21:43Z</time>
      </trkpt>
      <trkpt lat="44.12377" lon="3.23155">
        <ele>574</ele>
        <time>2015-12-06T10:21:44Z</time>
      </trkpt>
      <trkpt lat="44.12382" lon="3.23154">
        <ele>572.5</ele>
        <time>2015-12-06T10:21:45Z</time>
      </trkpt>
      <trkpt lat="44.12386" lon="3.23153">
        <ele>571.5</ele>
        <time>2015-12-06T10:21:46Z</time>
      </trkpt>
      <trkpt lat="44.12391" lon="3.23153">
        <ele>570.5</ele>
        <time>2015-12-06T10:21:47Z</time>
      </trkpt>
      <trkpt lat="44.12395" lon="3.23151">
        <ele>572.5</ele>
        <time>2015-12-06T10:21:48Z</time>
      </trkpt>
      <trkpt lat="44.12399" lon="3.2315">
        <ele>572</ele>
        <time>2015-12-06T10:21:49Z</time>
      </trkpt>
      <trkpt lat="44.12402" lon="3.2315">
        <ele>571</ele>
        <time>2015-12-06T10:21:50Z</time>
      </trkpt>
      <trkpt lat="44.12405" lon="3.23149">
        <ele>571</ele>
        <time>2015-12-06T10:21:51Z</time>
      </trkpt>
      <trkpt lat="44.12406" lon="3.23147">
        <ele>570.5</ele>
        <time>2015-12-06T10:21:52Z</time>
      </trkpt>
      <trkpt lat="44.12406" lon="3.23145">
        <ele>570</ele>
        <time>2015-12-06T10:21:53Z</time>
      </trkpt>
      <trkpt lat="44.12406" lon="3.23144">
        <ele>568</ele>
        <time>2015-12-06T10:21:54Z</time>
      </trkpt>
      <trkpt lat="44.12405" lon="3.23144">
        <ele>568</ele>
        <time>2015-12-06T10:21:55Z</time>
      </trkpt>
      <trkpt lat="44.12398" lon="3.23141">
        <ele>568.5</ele>
        <time>2015-12-06T10:21:57Z</time>
      </trkpt>
      <trkpt lat="44.12389" lon="3.23137">
        <ele>568.5</ele>
        <time>2015-12-06T10:21:59Z</time>
      </trkpt>
      <trkpt lat="44.12385" lon="3.23138">
        <ele>568.5</ele>
        <time>2015-12-06T10:22:00Z</time>
      </trkpt>
      <trkpt lat="44.1238" lon="3.23137">
        <ele>568</ele>
        <time>2015-12-06T10:22:01Z</time>
      </trkpt>
      <trkpt lat="44.12376" lon="3.23136">
        <ele>567</ele>
        <time>2015-12-06T10:22:02Z</time>
      </trkpt>
      <trkpt lat="44.12364" lon="3.23127">
        <ele>568.5</ele>
        <time>2015-12-06T10:22:04Z</time>
      </trkpt>
      <trkpt lat="44.12359" lon="3.23127">
        <ele>567</ele>
        <time>2015-12-06T10:22:05Z</time>
      </trkpt>
      <trkpt lat="44.12353" lon="3.23125">
        <ele>567</ele>
        <time>2015-12-06T10:22:06Z</time>
      </trkpt>
      <trkpt lat="44.12348" lon="3.23124">
        <ele>565.5</ele>
        <time>2015-12-06T10:22:07Z</time>
      </trkpt>
      <trkpt lat="44.12344" lon="3.23125">
        <ele>562.5</ele>
        <time>2015-12-06T10:22:08Z</time>
      </trkpt>
      <trkpt lat="44.12343" lon="3.23129">
        <ele>562</ele>
        <time>2015-12-06T10:22:09Z</time>
      </trkpt>
      <trkpt lat="44.12342" lon="3.23134">
        <ele>558</ele>
        <time>2015-12-06T10:22:10Z</time>
      </trkpt>
      <trkpt lat="44.1234" lon="3.23135">
        <ele>557.5</ele>
        <time>2015-12-06T10:22:11Z</time>
      </trkpt>
      <trkpt lat="44.12338" lon="3.23134">
        <ele>556.5</ele>
        <time>2015-12-06T10:22:12Z</time>
      </trkpt>
      <trkpt lat="44.12337" lon="3.23136">
        <ele>557.5</ele>
        <time>2015-12-06T10:22:13Z</time>
      </trkpt>
      <trkpt lat="44.12335" lon="3.23138">
        <ele>557.5</ele>
        <time>2015-12-06T10:22:14Z</time>
      </trkpt>
      <trkpt lat="44.12332" lon="3.2314">
        <ele>558</ele>
        <time>2015-12-06T10:22:15Z</time>
      </trkpt>
      <trkpt lat="44.12329" lon="3.23143">
        <ele>557</ele>
        <time>2015-12-06T10:22:16Z</time>
      </trkpt>
      <trkpt lat="44.12327" lon="3.23145">
        <ele>557</ele>
        <time>2015-12-06T10:22:17Z</time>
      </trkpt>
      <trkpt lat="44.12325" lon="3.23146">
        <ele>557</ele>
        <time>2015-12-06T10:22:18Z</time>
      </trkpt>
      <trkpt lat="44.12323" lon="3.23144">
        <ele>557</ele>
        <time>2015-12-06T10:22:19Z</time>
      </trkpt>
      <trkpt lat="44.12324" lon="3.23141">
        <ele>557</ele>
        <time>2015-12-06T10:22:20Z</time>
      </trkpt>
      <trkpt lat="44.12325" lon="3.23137">
        <ele>557</ele>
        <time>2015-12-06T10:22:21Z</time>
      </trkpt>
      <trkpt lat="44.12328" lon="3.23134">
        <ele>557.5</ele>
        <time>2015-12-06T10:22:22Z</time>
      </trkpt>
      <trkpt lat="44.12332" lon="3.23132">
        <ele>558</ele>
        <time>2015-12-06T10:22:23Z</time>
      </trkpt>
      <trkpt lat="44.12335" lon="3.23126">
        <ele>559.5</ele>
        <time>2015-12-06T10:22:24Z</time>
      </trkpt>
      <trkpt lat="44.12339" lon="3.23121">
        <ele>561.5</ele>
        <time>2015-12-06T10:22:25Z</time>
      </trkpt>
      <trkpt lat="44.12343" lon="3.23117">
        <ele>561</ele>
        <time>2015-12-06T10:22:26Z</time>
      </trkpt>
      <trkpt lat="44.12347" lon="3.23113">
        <ele>560.5</ele>
        <time>2015-12-06T10:22:27Z</time>
      </trkpt>
      <trkpt lat="44.12351" lon="3.2311">
        <ele>560</ele>
        <time>2015-12-06T10:22:28Z</time>
      </trkpt>
      <trkpt lat="44.12354" lon="3.23106">
        <ele>559</ele>
        <time>2015-12-06T10:22:29Z</time>
      </trkpt>
      <trkpt lat="44.12358" lon="3.23103">
        <ele>558.5</ele>
        <time>2015-12-06T10:22:30Z</time>
      </trkpt>
      <trkpt lat="44.12362" lon="3.23101">
        <ele>558.5</ele>
        <time>2015-12-06T10:22:31Z</time>
      </trkpt>
      <trkpt lat="44.12367" lon="3.231">
        <ele>558</ele>
        <time>2015-12-06T10:22:32Z</time>
      </trkpt>
      <trkpt lat="44.12371" lon="3.23099">
        <ele>557</ele>
        <time>2015-12-06T10:22:33Z</time>
      </trkpt>
      <trkpt lat="44.12378" lon="3.23098">
        <ele>556</ele>
        <time>2015-12-06T10:22:35Z</time>
      </trkpt>
      <trkpt lat="44.12382" lon="3.23097">
        <ele>554.5</ele>
        <time>2015-12-06T10:22:36Z</time>
      </trkpt>
      <trkpt lat="44.12387" lon="3.23095">
        <ele>554</ele>
        <time>2015-12-06T10:22:37Z</time>
      </trkpt>
      <trkpt lat="44.12391" lon="3.23095">
        <ele>552.5</ele>
        <time>2015-12-06T10:22:38Z</time>
      </trkpt>
      <trkpt lat="44.12395" lon="3.23095">
        <ele>551.5</ele>
        <time>2015-12-06T10:22:39Z</time>
      </trkpt>
      <trkpt lat="44.12398" lon="3.23095">
        <ele>550.5</ele>
        <time>2015-12-06T10:22:40Z</time>
      </trkpt>
      <trkpt lat="44.12401" lon="3.23096">
        <ele>548.5</ele>
        <time>2015-12-06T10:22:41Z</time>
      </trkpt>
      <trkpt lat="44.12403" lon="3.23095">
        <ele>547</ele>
        <time>2015-12-06T10:22:42Z</time>
      </trkpt>
      <trkpt lat="44.12404" lon="3.23094">
        <ele>547</ele>
        <time>2015-12-06T10:22:43Z</time>
      </trkpt>
      <trkpt lat="44.12403" lon="3.23092">
        <ele>548.5</ele>
        <time>2015-12-06T10:22:44Z</time>
      </trkpt>
      <trkpt lat="44.12402" lon="3.23091">
        <ele>548</ele>
        <time>2015-12-06T10:22:45Z</time>
      </trkpt>
      <trkpt lat="44.124" lon="3.23088">
        <ele>549.5</ele>
        <time>2015-12-06T10:22:46Z</time>
      </trkpt>
      <trkpt lat="44.12398" lon="3.23084">
        <ele>549.5</ele>
        <time>2015-12-06T10:22:47Z</time>
      </trkpt>
      <trkpt lat="44.12386" lon="3.23081">
        <ele>547</ele>
        <time>2015-12-06T10:22:49Z</time>
      </trkpt>
      <trkpt lat="44.12382" lon="3.23081">
        <ele>545.5</ele>
        <time>2015-12-06T10:22:51Z</time>
      </trkpt>
      <trkpt lat="44.1238" lon="3.23081">
        <ele>543.5</ele>
        <time>2015-12-06T10:22:52Z</time>
      </trkpt>
      <trkpt lat="44.12379" lon="3.23081">
        <ele>540.5</ele>
        <time>2015-12-06T10:22:53Z</time>
      </trkpt>
      <trkpt lat="44.12378" lon="3.2308">
        <ele>539.5</ele>
        <time>2015-12-06T10:22:54Z</time>
      </trkpt>
      <trkpt lat="44.12377" lon="3.23079">
        <ele>539.5</ele>
        <time>2015-12-06T10:22:55Z</time>
      </trkpt>
      <trkpt lat="44.12376" lon="3.23078">
        <ele>539</ele>
        <time>2015-12-06T10:22:56Z</time>
      </trkpt>
      <trkpt lat="44.12375" lon="3.23078">
        <ele>538.5</ele>
        <time>2015-12-06T10:22:57Z</time>
      </trkpt>
      <trkpt lat="44.12374" lon="3.23077">
        <ele>536.5</ele>
        <time>2015-12-06T10:22:58Z</time>
      </trkpt>
      <trkpt lat="44.12373" lon="3.23076">
        <ele>533.5</ele>
        <time>2015-12-06T10:22:59Z</time>
      </trkpt>
      <trkpt lat="44.12372" lon="3.23075">
        <ele>533</ele>
        <time>2015-12-06T10:23:00Z</time>
      </trkpt>
      <trkpt lat="44.12371" lon="3.23075">
        <ele>533</ele>
        <time>2015-12-06T10:23:01Z</time>
      </trkpt>
      <trkpt lat="44.12369" lon="3.23074">
        <ele>532.5</ele>
        <time>2015-12-06T10:23:02Z</time>
      </trkpt>
      <trkpt lat="44.12367" lon="3.23072">
        <ele>532.5</ele>
        <time>2015-12-06T10:23:03Z</time>
      </trkpt>
      <trkpt lat="44.12364" lon="3.2307">
        <ele>532.5</ele>
        <time>2015-12-06T10:23:04Z</time>
      </trkpt>
      <trkpt lat="44.12362" lon="3.23069">
        <ele>532.5</ele>
        <time>2015-12-06T10:23:05Z</time>
      </trkpt>
      <trkpt lat="44.1236" lon="3.23068">
        <ele>532.5</ele>
        <time>2015-12-06T10:23:06Z</time>
      </trkpt>
      <trkpt lat="44.12361" lon="3.23066">
        <ele>532.5</ele>
        <time>2015-12-06T10:23:07Z</time>
      </trkpt>
      <trkpt lat="44.12361" lon="3.23066">
        <ele>532.5</ele>
        <time>2015-12-06T10:23:08Z</time>
      </trkpt>
      <trkpt lat="44.12363" lon="3.23066">
        <ele>531</ele>
        <time>2015-12-06T10:23:09Z</time>
      </trkpt>
      <trkpt lat="44.12365" lon="3.23066">
        <ele>531</ele>
        <time>2015-12-06T10:23:10Z</time>
      </trkpt>
      <trkpt lat="44.12367" lon="3.23065">
        <ele>530</ele>
        <time>2015-12-06T10:23:11Z</time>
      </trkpt>
      <trkpt lat="44.1237" lon="3.23065">
        <ele>529.5</ele>
        <time>2015-12-06T10:23:12Z</time>
      </trkpt>
      <trkpt lat="44.12373" lon="3.23065">
        <ele>529</ele>
        <time>2015-12-06T10:23:13Z</time>
      </trkpt>
      <trkpt lat="44.12376" lon="3.23064">
        <ele>528.5</ele>
        <time>2015-12-06T10:23:14Z</time>
      </trkpt>
      <trkpt lat="44.1238" lon="3.23065">
        <ele>527.5</ele>
        <time>2015-12-06T10:23:15Z</time>
      </trkpt>
      <trkpt lat="44.12383" lon="3.23066">
        <ele>526</ele>
        <time>2015-12-06T10:23:16Z</time>
      </trkpt>
      <trkpt lat="44.12385" lon="3.23066">
        <ele>526</ele>
        <time>2015-12-06T10:23:17Z</time>
      </trkpt>
      <trkpt lat="44.12387" lon="3.23064">
        <ele>525.5</ele>
        <time>2015-12-06T10:23:18Z</time>
      </trkpt>
      <trkpt lat="44.1239" lon="3.23062">
        <ele>525.5</ele>
        <time>2015-12-06T10:23:19Z</time>
      </trkpt>
      <trkpt lat="44.12393" lon="3.23059">
        <ele>525.5</ele>
        <time>2015-12-06T10:23:20Z</time>
      </trkpt>
      <trkpt lat="44.12396" lon="3.23058">
        <ele>525</ele>
        <time>2015-12-06T10:23:21Z</time>
      </trkpt>
      <trkpt lat="44.124" lon="3.23059">
        <ele>525</ele>
        <time>2015-12-06T10:23:22Z</time>
      </trkpt>
      <trkpt lat="44.12404" lon="3.23059">
        <ele>524</ele>
        <time>2015-12-06T10:23:23Z</time>
      </trkpt>
      <trkpt lat="44.12408" lon="3.23056">
        <ele>524</ele>
        <time>2015-12-06T10:23:24Z</time>
      </trkpt>
      <trkpt lat="44.12412" lon="3.23054">
        <ele>523.5</ele>
        <time>2015-12-06T10:23:25Z</time>
      </trkpt>
      <trkpt lat="44.12416" lon="3.23049">
        <ele>524</ele>
        <time>2015-12-06T10:23:26Z</time>
      </trkpt>
      <trkpt lat="44.12419" lon="3.23044">
        <ele>523.5</ele>
        <time>2015-12-06T10:23:27Z</time>
      </trkpt>
      <trkpt lat="44.12422" lon="3.23038">
        <ele>524</ele>
        <time>2015-12-06T10:23:28Z</time>
      </trkpt>
      <trkpt lat="44.1242" lon="3.23031">
        <ele>525.5</ele>
        <time>2015-12-06T10:23:29Z</time>
      </trkpt>
      <trkpt lat="44.12422" lon="3.23024">
        <ele>526</ele>
        <time>2015-12-06T10:23:30Z</time>
      </trkpt>
      <trkpt lat="44.12424" lon="3.23016">
        <ele>525.5</ele>
        <time>2015-12-06T10:23:31Z</time>
      </trkpt>
      <trkpt lat="44.12425" lon="3.23009">
        <ele>526</ele>
        <time>2015-12-06T10:23:32Z</time>
      </trkpt>
      <trkpt lat="44.12426" lon="3.23001">
        <ele>526</ele>
        <time>2015-12-06T10:23:33Z</time>
      </trkpt>
      <trkpt lat="44.12425" lon="3.22996">
        <ele>526.5</ele>
        <time>2015-12-06T10:23:34Z</time>
      </trkpt>
      <trkpt lat="44.12425" lon="3.2299">
        <ele>527.5</ele>
        <time>2015-12-06T10:23:35Z</time>
      </trkpt>
      <trkpt lat="44.12424" lon="3.22986">
        <ele>527.5</ele>
        <time>2015-12-06T10:23:36Z</time>
      </trkpt>
      <trkpt lat="44.12424" lon="3.22982">
        <ele>527.5</ele>
        <time>2015-12-06T10:23:37Z</time>
      </trkpt>
      <trkpt lat="44.12427" lon="3.22979">
        <ele>527.5</ele>
        <time>2015-12-06T10:23:38Z</time>
      </trkpt>
      <trkpt lat="44.12429" lon="3.22972">
        <ele>527</ele>
        <time>2015-12-06T10:23:39Z</time>
      </trkpt>
      <trkpt lat="44.1243" lon="3.22966">
        <ele>527.5</ele>
        <time>2015-12-06T10:23:40Z</time>
      </trkpt>
      <trkpt lat="44.12432" lon="3.2296">
        <ele>528</ele>
        <time>2015-12-06T10:23:41Z</time>
      </trkpt>
      <trkpt lat="44.12434" lon="3.22956">
        <ele>529</ele>
        <time>2015-12-06T10:23:42Z</time>
      </trkpt>
      <trkpt lat="44.12435" lon="3.22951">
        <ele>530.5</ele>
        <time>2015-12-06T10:23:43Z</time>
      </trkpt>
      <trkpt lat="44.12436" lon="3.22946">
        <ele>531.5</ele>
        <time>2015-12-06T10:23:44Z</time>
      </trkpt>
      <trkpt lat="44.12437" lon="3.22941">
        <ele>531</ele>
        <time>2015-12-06T10:23:45Z</time>
      </trkpt>
      <trkpt lat="44.12439" lon="3.22938">
        <ele>529.5</ele>
        <time>2015-12-06T10:23:46Z</time>
      </trkpt>
      <trkpt lat="44.12446" lon="3.22927">
        <ele>531.5</ele>
        <time>2015-12-06T10:23:48Z</time>
      </trkpt>
      <trkpt lat="44.12448" lon="3.22921">
        <ele>531</ele>
        <time>2015-12-06T10:23:49Z</time>
      </trkpt>
      <trkpt lat="44.12451" lon="3.22916">
        <ele>530.5</ele>
        <time>2015-12-06T10:23:50Z</time>
      </trkpt>
      <trkpt lat="44.12454" lon="3.2291">
        <ele>530</ele>
        <time>2015-12-06T10:23:51Z</time>
      </trkpt>
      <trkpt lat="44.12457" lon="3.22902">
        <ele>530</ele>
        <time>2015-12-06T10:23:52Z</time>
      </trkpt>
      <trkpt lat="44.12461" lon="3.22896">
        <ele>530</ele>
        <time>2015-12-06T10:23:53Z</time>
      </trkpt>
      <trkpt lat="44.12465" lon="3.22892">
        <ele>532</ele>
        <time>2015-12-06T10:23:54Z</time>
      </trkpt>
      <trkpt lat="44.12468" lon="3.22887">
        <ele>531.5</ele>
        <time>2015-12-06T10:23:55Z</time>
      </trkpt>
      <trkpt lat="44.12472" lon="3.22884">
        <ele>530.5</ele>
        <time>2015-12-06T10:23:56Z</time>
      </trkpt>
      <trkpt lat="44.12476" lon="3.22882">
        <ele>530.5</ele>
        <time>2015-12-06T10:23:57Z</time>
      </trkpt>
      <trkpt lat="44.12478" lon="3.2288">
        <ele>532</ele>
        <time>2015-12-06T10:23:59Z</time>
      </trkpt>
      <trkpt lat="44.12479" lon="3.22879">
        <ele>533</ele>
        <time>2015-12-06T10:24:00Z</time>
      </trkpt>
      <trkpt lat="44.1248" lon="3.22878">
        <ele>532.5</ele>
        <time>2015-12-06T10:24:01Z</time>
      </trkpt>
      <trkpt lat="44.12482" lon="3.22878">
        <ele>531</ele>
        <time>2015-12-06T10:24:02Z</time>
      </trkpt>
      <trkpt lat="44.12485" lon="3.22878">
        <ele>530</ele>
        <time>2015-12-06T10:24:03Z</time>
      </trkpt>
      <trkpt lat="44.12489" lon="3.22881">
        <ele>527</ele>
        <time>2015-12-06T10:24:04Z</time>
      </trkpt>
      <trkpt lat="44.1249" lon="3.22882">
        <ele>527.5</ele>
        <time>2015-12-06T10:24:05Z</time>
      </trkpt>
      <trkpt lat="44.12493" lon="3.2288">
        <ele>529</ele>
        <time>2015-12-06T10:24:06Z</time>
      </trkpt>
      <trkpt lat="44.12495" lon="3.22878">
        <ele>529</ele>
        <time>2015-12-06T10:24:07Z</time>
      </trkpt>
      <trkpt lat="44.12497" lon="3.22878">
        <ele>527</ele>
        <time>2015-12-06T10:24:08Z</time>
      </trkpt>
      <trkpt lat="44.12499" lon="3.22878">
        <ele>526</ele>
        <time>2015-12-06T10:24:09Z</time>
      </trkpt>
      <trkpt lat="44.12498" lon="3.22868">
        <ele>527.5</ele>
        <time>2015-12-06T10:24:11Z</time>
      </trkpt>
      <trkpt lat="44.12499" lon="3.22865">
        <ele>528</ele>
        <time>2015-12-06T10:24:12Z</time>
      </trkpt>
      <trkpt lat="44.12505" lon="3.22853">
        <ele>526</ele>
        <time>2015-12-06T10:24:14Z</time>
      </trkpt>
      <trkpt lat="44.12505" lon="3.22844">
        <ele>526.5</ele>
        <time>2015-12-06T10:24:16Z</time>
      </trkpt>
      <trkpt lat="44.12505" lon="3.2284">
        <ele>526.5</ele>
        <time>2015-12-06T10:24:17Z</time>
      </trkpt>
      <trkpt lat="44.12505" lon="3.22835">
        <ele>528</ele>
        <time>2015-12-06T10:24:17Z</time>
      </trkpt>
      <trkpt lat="44.12505" lon="3.2283">
        <ele>527.5</ele>
        <time>2015-12-06T10:24:18Z</time>
      </trkpt>
      <trkpt lat="44.12505" lon="3.22826">
        <ele>530</ele>
        <time>2015-12-06T10:24:25Z</time>
      </trkpt>
      <trkpt lat="44.12504" lon="3.22822">
        <ele>530</ele>
        <time>2015-12-06T10:24:26Z</time>
      </trkpt>
      <trkpt lat="44.12503" lon="3.22819">
        <ele>530</ele>
        <time>2015-12-06T10:24:27Z</time>
      </trkpt>
      <trkpt lat="44.12501" lon="3.22815">
        <ele>532</ele>
        <time>2015-12-06T10:24:28Z</time>
      </trkpt>
      <trkpt lat="44.125" lon="3.22809">
        <ele>533.5</ele>
        <time>2015-12-06T10:24:29Z</time>
      </trkpt>
      <trkpt lat="44.12499" lon="3.22803">
        <ele>533.5</ele>
        <time>2015-12-06T10:24:30Z</time>
      </trkpt>
      <trkpt lat="44.12499" lon="3.22797">
        <ele>532.5</ele>
        <time>2015-12-06T10:24:31Z</time>
      </trkpt>
      <trkpt lat="44.12502" lon="3.22791">
        <ele>532</ele>
        <time>2015-12-06T10:24:32Z</time>
      </trkpt>
      <trkpt lat="44.12503" lon="3.22786">
        <ele>532</ele>
        <time>2015-12-06T10:24:33Z</time>
      </trkpt>
      <trkpt lat="44.12503" lon="3.22778">
        <ele>533.5</ele>
        <time>2015-12-06T10:24:34Z</time>
      </trkpt>
      <trkpt lat="44.12504" lon="3.22769">
        <ele>534</ele>
        <time>2015-12-06T10:24:35Z</time>
      </trkpt>
      <trkpt lat="44.12506" lon="3.2276">
        <ele>534.5</ele>
        <time>2015-12-06T10:24:36Z</time>
      </trkpt>
      <trkpt lat="44.12509" lon="3.22751">
        <ele>534</ele>
        <time>2015-12-06T10:24:37Z</time>
      </trkpt>
      <trkpt lat="44.12512" lon="3.22742">
        <ele>534.5</ele>
        <time>2015-12-06T10:24:38Z</time>
      </trkpt>
      <trkpt lat="44.12516" lon="3.22735">
        <ele>534</ele>
        <time>2015-12-06T10:24:39Z</time>
      </trkpt>
      <trkpt lat="44.1252" lon="3.22728">
        <ele>533.5</ele>
        <time>2015-12-06T10:24:40Z</time>
      </trkpt>
      <trkpt lat="44.12524" lon="3.22719">
        <ele>532.5</ele>
        <time>2015-12-06T10:24:41Z</time>
      </trkpt>
      <trkpt lat="44.12532" lon="3.227">
        <ele>533.5</ele>
        <time>2015-12-06T10:24:43Z</time>
      </trkpt>
      <trkpt lat="44.12536" lon="3.22693">
        <ele>534</ele>
        <time>2015-12-06T10:24:44Z</time>
      </trkpt>
      <trkpt lat="44.1254" lon="3.22688">
        <ele>535</ele>
        <time>2015-12-06T10:24:45Z</time>
      </trkpt>
      <trkpt lat="44.12544" lon="3.22683">
        <ele>535.5</ele>
        <time>2015-12-06T10:24:46Z</time>
      </trkpt>
      <trkpt lat="44.12548" lon="3.22677">
        <ele>536.5</ele>
        <time>2015-12-06T10:24:47Z</time>
      </trkpt>
      <trkpt lat="44.12551" lon="3.22672">
        <ele>537</ele>
        <time>2015-12-06T10:24:48Z</time>
      </trkpt>
      <trkpt lat="44.12553" lon="3.22669">
        <ele>537.5</ele>
        <time>2015-12-06T10:24:49Z</time>
      </trkpt>
      <trkpt lat="44.12555" lon="3.22665">
        <ele>537.5</ele>
        <time>2015-12-06T10:24:50Z</time>
      </trkpt>
      <trkpt lat="44.12556" lon="3.22661">
        <ele>537.5</ele>
        <time>2015-12-06T10:24:51Z</time>
      </trkpt>
      <trkpt lat="44.12556" lon="3.22657">
        <ele>538</ele>
        <time>2015-12-06T10:24:52Z</time>
      </trkpt>
      <trkpt lat="44.12555" lon="3.22653">
        <ele>538</ele>
        <time>2015-12-06T10:24:53Z</time>
      </trkpt>
      <trkpt lat="44.12555" lon="3.22652">
        <ele>538.5</ele>
        <time>2015-12-06T10:24:55Z</time>
      </trkpt>
      <trkpt lat="44.12555" lon="3.22651">
        <ele>538.5</ele>
        <time>2015-12-06T10:24:56Z</time>
      </trkpt>
      <trkpt lat="44.12554" lon="3.2265">
        <ele>538.5</ele>
        <time>2015-12-06T10:24:57Z</time>
      </trkpt>
      <trkpt lat="44.12554" lon="3.22649">
        <ele>538</ele>
        <time>2015-12-06T10:24:58Z</time>
      </trkpt>
      <trkpt lat="44.12553" lon="3.22649">
        <ele>538</ele>
        <time>2015-12-06T10:25:00Z</time>
      </trkpt>
      <trkpt lat="44.12552" lon="3.22649">
        <ele>539</ele>
        <time>2015-12-06T10:25:01Z</time>
      </trkpt>
      <trkpt lat="44.12552" lon="3.22648">
        <ele>538.5</ele>
        <time>2015-12-06T10:25:02Z</time>
      </trkpt>
      <trkpt lat="44.12552" lon="3.22648">
        <ele>537</ele>
        <time>2015-12-06T10:25:03Z</time>
      </trkpt>
      <trkpt lat="44.12552" lon="3.22648">
        <ele>536.5</ele>
        <time>2015-12-06T10:25:04Z</time>
      </trkpt>
      <trkpt lat="44.12552" lon="3.22648">
        <ele>535</ele>
        <time>2015-12-06T10:25:05Z</time>
      </trkpt>
      <trkpt lat="44.12551" lon="3.22648">
        <ele>534.5</ele>
        <time>2015-12-06T10:25:06Z</time>
      </trkpt>
      <trkpt lat="44.12551" lon="3.22647">
        <ele>535.5</ele>
        <time>2015-12-06T10:25:07Z</time>
      </trkpt>
      <trkpt lat="44.1255" lon="3.22647">
        <ele>536.5</ele>
        <time>2015-12-06T10:25:08Z</time>
      </trkpt>
      <trkpt lat="44.1255" lon="3.22647">
        <ele>535</ele>
        <time>2015-12-06T10:25:09Z</time>
      </trkpt>
      <trkpt lat="44.12549" lon="3.22646">
        <ele>535</ele>
        <time>2015-12-06T10:25:10Z</time>
      </trkpt>
      <trkpt lat="44.1255" lon="3.22645">
        <ele>532</ele>
        <time>2015-12-06T10:25:11Z</time>
      </trkpt>
      <trkpt lat="44.12549" lon="3.22645">
        <ele>530</ele>
        <time>2015-12-06T10:25:12Z</time>
      </trkpt>
      <trkpt lat="44.12549" lon="3.22643">
        <ele>528</ele>
        <time>2015-12-06T10:25:13Z</time>
      </trkpt>
      <trkpt lat="44.12549" lon="3.22644">
        <ele>527</ele>
        <time>2015-12-06T10:25:14Z</time>
      </trkpt>
      <trkpt lat="44.12548" lon="3.22643">
        <ele>528</ele>
        <time>2015-12-06T10:25:15Z</time>
      </trkpt>
      <trkpt lat="44.12547" lon="3.22642">
        <ele>528</ele>
        <time>2015-12-06T10:25:16Z</time>
      </trkpt>
      <trkpt lat="44.12547" lon="3.22642">
        <ele>528.5</ele>
        <time>2015-12-06T10:25:17Z</time>
      </trkpt>
      <trkpt lat="44.12546" lon="3.2264">
        <ele>528</ele>
        <time>2015-12-06T10:25:18Z</time>
      </trkpt>
      <trkpt lat="44.12547" lon="3.2264">
        <ele>527</ele>
        <time>2015-12-06T10:25:19Z</time>
      </trkpt>
      <trkpt lat="44.12547" lon="3.22639">
        <ele>525.5</ele>
        <time>2015-12-06T10:25:20Z</time>
      </trkpt>
      <trkpt lat="44.12544" lon="3.22632">
        <ele>525</ele>
        <time>2015-12-06T10:25:22Z</time>
      </trkpt>
      <trkpt lat="44.12544" lon="3.22629">
        <ele>524.5</ele>
        <time>2015-12-06T10:25:23Z</time>
      </trkpt>
      <trkpt lat="44.12543" lon="3.22625">
        <ele>524.5</ele>
        <time>2015-12-06T10:25:24Z</time>
      </trkpt>
      <trkpt lat="44.12544" lon="3.22621">
        <ele>522.5</ele>
        <time>2015-12-06T10:25:25Z</time>
      </trkpt>
      <trkpt lat="44.12545" lon="3.22618">
        <ele>521</ele>
        <time>2015-12-06T10:25:26Z</time>
      </trkpt>
      <trkpt lat="44.12546" lon="3.22614">
        <ele>519</ele>
        <time>2015-12-06T10:25:27Z</time>
      </trkpt>
      <trkpt lat="44.12547" lon="3.2261">
        <ele>518.5</ele>
        <time>2015-12-06T10:25:28Z</time>
      </trkpt>
      <trkpt lat="44.12547" lon="3.22606">
        <ele>519</ele>
        <time>2015-12-06T10:25:29Z</time>
      </trkpt>
      <trkpt lat="44.12548" lon="3.22602">
        <ele>518.5</ele>
        <time>2015-12-06T10:25:30Z</time>
      </trkpt>
      <trkpt lat="44.12549" lon="3.22602">
        <ele>518.5</ele>
        <time>2015-12-06T10:25:31Z</time>
      </trkpt>
      <trkpt lat="44.1255" lon="3.22599">
        <ele>519.5</ele>
        <time>2015-12-06T10:25:32Z</time>
      </trkpt>
      <trkpt lat="44.1255" lon="3.22596">
        <ele>518.5</ele>
        <time>2015-12-06T10:25:34Z</time>
      </trkpt>
      <trkpt lat="44.1255" lon="3.22593">
        <ele>519</ele>
        <time>2015-12-06T10:25:35Z</time>
      </trkpt>
      <trkpt lat="44.12549" lon="3.22588">
        <ele>520</ele>
        <time>2015-12-06T10:25:36Z</time>
      </trkpt>
      <trkpt lat="44.1255" lon="3.22584">
        <ele>518.5</ele>
        <time>2015-12-06T10:25:37Z</time>
      </trkpt>
      <trkpt lat="44.12549" lon="3.22579">
        <ele>520</ele>
        <time>2015-12-06T10:25:38Z</time>
      </trkpt>
      <trkpt lat="44.12551" lon="3.2258">
        <ele>520</ele>
        <time>2015-12-06T10:25:39Z</time>
      </trkpt>
      <trkpt lat="44.1255" lon="3.22571">
        <ele>520</ele>
        <time>2015-12-06T10:25:41Z</time>
      </trkpt>
      <trkpt lat="44.1255" lon="3.22567">
        <ele>520.5</ele>
        <time>2015-12-06T10:25:42Z</time>
      </trkpt>
      <trkpt lat="44.12548" lon="3.22563">
        <ele>521.5</ele>
        <time>2015-12-06T10:25:43Z</time>
      </trkpt>
      <trkpt lat="44.12547" lon="3.22558">
        <ele>522.5</ele>
        <time>2015-12-06T10:25:44Z</time>
      </trkpt>
      <trkpt lat="44.12545" lon="3.22553">
        <ele>525</ele>
        <time>2015-12-06T10:25:45Z</time>
      </trkpt>
      <trkpt lat="44.12545" lon="3.22549">
        <ele>525.5</ele>
        <time>2015-12-06T10:25:46Z</time>
      </trkpt>
      <trkpt lat="44.12544" lon="3.22544">
        <ele>525.5</ele>
        <time>2015-12-06T10:25:47Z</time>
      </trkpt>
      <trkpt lat="44.12543" lon="3.2254">
        <ele>526.5</ele>
        <time>2015-12-06T10:25:48Z</time>
      </trkpt>
      <trkpt lat="44.12543" lon="3.22534">
        <ele>526.5</ele>
        <time>2015-12-06T10:25:49Z</time>
      </trkpt>
      <trkpt lat="44.12542" lon="3.22529">
        <ele>527</ele>
        <time>2015-12-06T10:25:50Z</time>
      </trkpt>
      <trkpt lat="44.12541" lon="3.22523">
        <ele>529</ele>
        <time>2015-12-06T10:25:51Z</time>
      </trkpt>
      <trkpt lat="44.12541" lon="3.22517">
        <ele>529.5</ele>
        <time>2015-12-06T10:25:52Z</time>
      </trkpt>
      <trkpt lat="44.12541" lon="3.22512">
        <ele>530.5</ele>
        <time>2015-12-06T10:25:53Z</time>
      </trkpt>
      <trkpt lat="44.12541" lon="3.22507">
        <ele>531</ele>
        <time>2015-12-06T10:25:54Z</time>
      </trkpt>
      <trkpt lat="44.12542" lon="3.22507">
        <ele>531</ele>
        <time>2015-12-06T10:25:56Z</time>
      </trkpt>
      <trkpt lat="44.12543" lon="3.22506">
        <ele>531.5</ele>
        <time>2015-12-06T10:25:57Z</time>
      </trkpt>
      <trkpt lat="44.12541" lon="3.22498">
        <ele>533</ele>
        <time>2015-12-06T10:25:59Z</time>
      </trkpt>
      <trkpt lat="44.1254" lon="3.22493">
        <ele>533</ele>
        <time>2015-12-06T10:26:00Z</time>
      </trkpt>
      <trkpt lat="44.12538" lon="3.22488">
        <ele>532</ele>
        <time>2015-12-06T10:26:01Z</time>
      </trkpt>
      <trkpt lat="44.12536" lon="3.2248">
        <ele>532</ele>
        <time>2015-12-06T10:26:02Z</time>
      </trkpt>
      <trkpt lat="44.12534" lon="3.22471">
        <ele>531.5</ele>
        <time>2015-12-06T10:26:03Z</time>
      </trkpt>
      <trkpt lat="44.12531" lon="3.22463">
        <ele>531</ele>
        <time>2015-12-06T10:26:04Z</time>
      </trkpt>
      <trkpt lat="44.12528" lon="3.22454">
        <ele>530.5</ele>
        <time>2015-12-06T10:26:05Z</time>
      </trkpt>
      <trkpt lat="44.12524" lon="3.22445">
        <ele>530</ele>
        <time>2015-12-06T10:26:06Z</time>
      </trkpt>
      <trkpt lat="44.12521" lon="3.22436">
        <ele>528</ele>
        <time>2015-12-06T10:26:07Z</time>
      </trkpt>
      <trkpt lat="44.12518" lon="3.22427">
        <ele>527</ele>
        <time>2015-12-06T10:26:08Z</time>
      </trkpt>
      <trkpt lat="44.12515" lon="3.22418">
        <ele>526.5</ele>
        <time>2015-12-06T10:26:09Z</time>
      </trkpt>
      <trkpt lat="44.12514" lon="3.22402">
        <ele>525</ele>
        <time>2015-12-06T10:26:11Z</time>
      </trkpt>
      <trkpt lat="44.12519" lon="3.22402">
        <ele>518</ele>
        <time>2015-12-06T10:26:18Z</time>
      </trkpt>
      <trkpt lat="44.12519" lon="3.224">
        <ele>518</ele>
        <time>2015-12-06T10:26:20Z</time>
      </trkpt>
      <trkpt lat="44.12524" lon="3.22398">
        <ele>508</ele>
        <time>2015-12-06T10:26:24Z</time>
      </trkpt>
      <trkpt lat="44.12529" lon="3.22395">
        <ele>497</ele>
        <time>2015-12-06T10:26:26Z</time>
      </trkpt>
      <trkpt lat="44.12534" lon="3.22391">
        <ele>493.5</ele>
        <time>2015-12-06T10:26:28Z</time>
      </trkpt>
      <trkpt lat="44.12535" lon="3.22389">
        <ele>492.5</ele>
        <time>2015-12-06T10:26:29Z</time>
      </trkpt>
      <trkpt lat="44.12537" lon="3.22377">
        <ele>487.5</ele>
        <time>2015-12-06T10:26:38Z</time>
      </trkpt>
      <trkpt lat="44.12538" lon="3.22373">
        <ele>486.5</ele>
        <time>2015-12-06T10:26:40Z</time>
      </trkpt>
      <trkpt lat="44.12539" lon="3.22367">
        <ele>481.5</ele>
        <time>2015-12-06T10:26:53Z</time>
      </trkpt>
      <trkpt lat="44.12539" lon="3.22366">
        <ele>483.5</ele>
        <time>2015-12-06T10:26:55Z</time>
      </trkpt>
      <trkpt lat="44.12539" lon="3.22364">
        <ele>484.5</ele>
        <time>2015-12-06T10:26:56Z</time>
      </trkpt>
      <trkpt lat="44.12538" lon="3.22362">
        <ele>485</ele>
        <time>2015-12-06T10:26:57Z</time>
      </trkpt>
      <trkpt lat="44.12539" lon="3.2236">
        <ele>485</ele>
        <time>2015-12-06T10:26:58Z</time>
      </trkpt>
      <trkpt lat="44.12539" lon="3.22359">
        <ele>484.5</ele>
        <time>2015-12-06T10:26:59Z</time>
      </trkpt>
      <trkpt lat="44.12538" lon="3.22356">
        <ele>486.5</ele>
        <time>2015-12-06T10:27:00Z</time>
      </trkpt>
      <trkpt lat="44.12538" lon="3.22356">
        <ele>487</ele>
        <time>2015-12-06T10:27:04Z</time>
      </trkpt>
      <trkpt lat="44.12538" lon="3.22355">
        <ele>486</ele>
        <time>2015-12-06T10:27:07Z</time>
      </trkpt>
      <trkpt lat="44.12539" lon="3.22355">
        <ele>485</ele>
        <time>2015-12-06T10:27:09Z</time>
      </trkpt>
      <trkpt lat="44.12538" lon="3.22355">
        <ele>484.5</ele>
        <time>2015-12-06T10:27:10Z</time>
      </trkpt>
      <trkpt lat="44.12537" lon="3.22355">
        <ele>484.5</ele>
        <time>2015-12-06T10:27:11Z</time>
      </trkpt>
      <trkpt lat="44.12537" lon="3.22355">
        <ele>483.5</ele>
        <time>2015-12-06T10:27:12Z</time>
      </trkpt>
      <trkpt lat="44.12537" lon="3.22354">
        <ele>483</ele>
        <time>2015-12-06T10:27:13Z</time>
      </trkpt>
      <trkpt lat="44.12537" lon="3.22354">
        <ele>483</ele>
        <time>2015-12-06T10:27:15Z</time>
      </trkpt>
      <trkpt lat="44.12539" lon="3.22351">
        <ele>482.5</ele>
        <time>2015-12-06T10:27:17Z</time>
      </trkpt>
      <trkpt lat="44.1254" lon="3.2235">
        <ele>482.5</ele>
        <time>2015-12-06T10:27:18Z</time>
      </trkpt>
      <trkpt lat="44.1254" lon="3.22349">
        <ele>482.5</ele>
        <time>2015-12-06T10:27:19Z</time>
      </trkpt>
      <trkpt lat="44.1254" lon="3.22349">
        <ele>483</ele>
        <time>2015-12-06T10:27:22Z</time>
      </trkpt>
      <trkpt lat="44.1254" lon="3.2235">
        <ele>483</ele>
        <time>2015-12-06T10:27:24Z</time>
      </trkpt>
      <trkpt lat="44.1254" lon="3.22347">
        <ele>485</ele>
        <time>2015-12-06T10:27:50Z</time>
      </trkpt>
      <trkpt lat="44.1254" lon="3.22344">
        <ele>483</ele>
        <time>2015-12-06T10:28:01Z</time>
      </trkpt>
      <trkpt lat="44.12541" lon="3.22343">
        <ele>481.5</ele>
        <time>2015-12-06T10:28:08Z</time>
      </trkpt>
      <trkpt lat="44.1254" lon="3.22342">
        <ele>482</ele>
        <time>2015-12-06T10:28:11Z</time>
      </trkpt>
      <trkpt lat="44.1254" lon="3.22342">
        <ele>484</ele>
        <time>2015-12-06T10:28:20Z</time>
      </trkpt>
      <trkpt lat="44.12539" lon="3.22342">
        <ele>486</ele>
        <time>2015-12-06T10:28:22Z</time>
      </trkpt>
      <trkpt lat="44.12539" lon="3.22343">
        <ele>486</ele>
        <time>2015-12-06T10:28:23Z</time>
      </trkpt>
      <trkpt lat="44.12539" lon="3.22344">
        <ele>486</ele>
        <time>2015-12-06T10:28:24Z</time>
      </trkpt>
      <trkpt lat="44.12539" lon="3.22345">
        <ele>486</ele>
        <time>2015-12-06T10:28:25Z</time>
      </trkpt>
      <trkpt lat="44.12539" lon="3.22346">
        <ele>485</ele>
        <time>2015-12-06T10:28:26Z</time>
      </trkpt>
      <trkpt lat="44.1254" lon="3.22347">
        <ele>483.5</ele>
        <time>2015-12-06T10:28:27Z</time>
      </trkpt>
      <trkpt lat="44.1254" lon="3.22348">
        <ele>483.5</ele>
        <time>2015-12-06T10:28:28Z</time>
      </trkpt>
      <trkpt lat="44.1254" lon="3.22349">
        <ele>483</ele>
        <time>2015-12-06T10:28:29Z</time>
      </trkpt>
      <trkpt lat="44.1254" lon="3.22351">
        <ele>482.5</ele>
        <time>2015-12-06T10:28:30Z</time>
      </trkpt>
      <trkpt lat="44.12541" lon="3.22352">
        <ele>482</ele>
        <time>2015-12-06T10:28:31Z</time>
      </trkpt>
      <trkpt lat="44.12541" lon="3.22353">
        <ele>482</ele>
        <time>2015-12-06T10:28:32Z</time>
      </trkpt>
      <trkpt lat="44.1254" lon="3.22354">
        <ele>481.5</ele>
        <time>2015-12-06T10:28:33Z</time>
      </trkpt>
      <trkpt lat="44.1254" lon="3.22354">
        <ele>481</ele>
        <time>2015-12-06T10:28:35Z</time>
      </trkpt>
      <trkpt lat="44.1254" lon="3.22354">
        <ele>480.5</ele>
        <time>2015-12-06T10:28:37Z</time>
      </trkpt>
      <trkpt lat="44.1254" lon="3.22355">
        <ele>480</ele>
        <time>2015-12-06T10:28:38Z</time>
      </trkpt>
      <trkpt lat="44.1254" lon="3.22354">
        <ele>480</ele>
        <time>2015-12-06T10:28:39Z</time>
      </trkpt>
      <trkpt lat="44.1254" lon="3.22354">
        <ele>479.5</ele>
        <time>2015-12-06T10:28:40Z</time>
      </trkpt>
      <trkpt lat="44.1254" lon="3.22353">
        <ele>478.5</ele>
        <time>2015-12-06T10:28:41Z</time>
      </trkpt>
      <trkpt lat="44.1254" lon="3.22353">
        <ele>479</ele>
        <time>2015-12-06T10:28:42Z</time>
      </trkpt>
      <trkpt lat="44.12541" lon="3.22354">
        <ele>479.5</ele>
        <time>2015-12-06T10:28:43Z</time>
      </trkpt>
      <trkpt lat="44.1254" lon="3.22353">
        <ele>481</ele>
        <time>2015-12-06T10:28:44Z</time>
      </trkpt>
      <trkpt lat="44.1254" lon="3.22353">
        <ele>481.5</ele>
        <time>2015-12-06T10:28:45Z</time>
      </trkpt>
      <trkpt lat="44.1254" lon="3.22354">
        <ele>482</ele>
        <time>2015-12-06T10:28:47Z</time>
      </trkpt>
      <trkpt lat="44.12539" lon="3.22354">
        <ele>481</ele>
        <time>2015-12-06T10:28:49Z</time>
      </trkpt>
      <trkpt lat="44.12539" lon="3.22354">
        <ele>481.5</ele>
        <time>2015-12-06T10:28:50Z</time>
      </trkpt>
      <trkpt lat="44.12539" lon="3.22353">
        <ele>481.5</ele>
        <time>2015-12-06T10:28:51Z</time>
      </trkpt>
      <trkpt lat="44.1254" lon="3.22354">
        <ele>482</ele>
        <time>2015-12-06T10:28:56Z</time>
      </trkpt>
      <trkpt lat="44.12541" lon="3.22355">
        <ele>483</ele>
        <time>2015-12-06T10:29:06Z</time>
      </trkpt>
      <trkpt lat="44.12541" lon="3.22355">
        <ele>483</ele>
        <time>2015-12-06T10:29:09Z</time>
      </trkpt>
      <trkpt lat="44.12542" lon="3.22354">
        <ele>483</ele>
        <time>2015-12-06T10:29:11Z</time>
      </trkpt>
      <trkpt lat="44.12542" lon="3.22353">
        <ele>484</ele>
        <time>2015-12-06T10:29:12Z</time>
      </trkpt>
      <trkpt lat="44.12542" lon="3.22354">
        <ele>484</ele>
        <time>2015-12-06T10:29:14Z</time>
      </trkpt>
      <trkpt lat="44.12541" lon="3.22354">
        <ele>484</ele>
        <time>2015-12-06T10:29:16Z</time>
      </trkpt>
      <trkpt lat="44.12541" lon="3.22353">
        <ele>485</ele>
        <time>2015-12-06T10:29:17Z</time>
      </trkpt>
      <trkpt lat="44.1254" lon="3.22353">
        <ele>485.5</ele>
        <time>2015-12-06T10:29:18Z</time>
      </trkpt>
      <trkpt lat="44.1254" lon="3.22354">
        <ele>485.5</ele>
        <time>2015-12-06T10:29:19Z</time>
      </trkpt>
      <trkpt lat="44.12541" lon="3.22354">
        <ele>486</ele>
        <time>2015-12-06T10:29:20Z</time>
      </trkpt>
      <trkpt lat="44.1254" lon="3.22355">
        <ele>486</ele>
        <time>2015-12-06T10:29:21Z</time>
      </trkpt>
      <trkpt lat="44.1254" lon="3.22355">
        <ele>486</ele>
        <time>2015-12-06T10:29:22Z</time>
      </trkpt>
      <trkpt lat="44.1254" lon="3.22354">
        <ele>486</ele>
        <time>2015-12-06T10:29:32Z</time>
      </trkpt>
      <trkpt lat="44.12537" lon="3.22352">
        <ele>482.5</ele>
        <time>2015-12-06T10:29:55Z</time>
      </trkpt>
      <trkpt lat="44.12537" lon="3.22348">
        <ele>483.5</ele>
        <time>2015-12-06T10:29:27Z</time>
      </trkpt>
      <trkpt lat="44.12537" lon="3.22348">
        <ele>482.5</ele>
        <time>2015-12-06T10:29:50Z</time>
      </trkpt>
      <trkpt lat="44.12534" lon="3.22346">
        <ele>482</ele>
        <time>2015-12-06T10:29:43Z</time>
      </trkpt>
      <trkpt lat="44.12534" lon="3.22344">
        <ele>483.5</ele>
        <time>2015-12-06T10:29:48Z</time>
      </trkpt>
      <trkpt lat="44.12535" lon="3.22346">
        <ele>483</ele>
        <time>2015-12-06T10:29:50Z</time>
      </trkpt>
      <trkpt lat="44.12536" lon="3.22345">
        <ele>483.5</ele>
        <time>2015-12-06T10:29:52Z</time>
      </trkpt>
      <trkpt lat="44.12538" lon="3.22344">
        <ele>485</ele>
        <time>2015-12-06T10:29:54Z</time>
      </trkpt>
      <trkpt lat="44.1254" lon="3.22345">
        <ele>486</ele>
        <time>2015-12-06T10:29:55Z</time>
      </trkpt>
      <trkpt lat="44.12541" lon="3.22346">
        <ele>486.5</ele>
        <time>2015-12-06T10:29:56Z</time>
      </trkpt>
      <trkpt lat="44.12541" lon="3.22347">
        <ele>486</ele>
        <time>2015-12-06T10:29:57Z</time>
      </trkpt>
      <trkpt lat="44.12542" lon="3.22349">
        <ele>486</ele>
        <time>2015-12-06T10:29:58Z</time>
      </trkpt>
      <trkpt lat="44.12542" lon="3.2235">
        <ele>486</ele>
        <time>2015-12-06T10:29:59Z</time>
      </trkpt>
      <trkpt lat="44.12542" lon="3.2235">
        <ele>486</ele>
        <time>2015-12-06T10:30:00Z</time>
      </trkpt>
      <trkpt lat="44.12543" lon="3.22351">
        <ele>486</ele>
        <time>2015-12-06T10:30:01Z</time>
      </trkpt>
      <trkpt lat="44.12543" lon="3.22352">
        <ele>485</ele>
        <time>2015-12-06T10:30:02Z</time>
      </trkpt>
      <trkpt lat="44.12544" lon="3.22353">
        <ele>485.5</ele>
        <time>2015-12-06T10:30:03Z</time>
      </trkpt>
      <trkpt lat="44.12544" lon="3.22353">
        <ele>486.5</ele>
        <time>2015-12-06T10:30:04Z</time>
      </trkpt>
      <trkpt lat="44.12545" lon="3.22353">
        <ele>488</ele>
        <time>2015-12-06T10:30:08Z</time>
      </trkpt>
      <trkpt lat="44.12546" lon="3.22354">
        <ele>488.5</ele>
        <time>2015-12-06T10:30:10Z</time>
      </trkpt>
      <trkpt lat="44.12546" lon="3.22355">
        <ele>488.5</ele>
        <time>2015-12-06T10:30:11Z</time>
      </trkpt>
      <trkpt lat="44.12545" lon="3.22355">
        <ele>488</ele>
        <time>2015-12-06T10:30:13Z</time>
      </trkpt>
      <trkpt lat="44.12544" lon="3.22355">
        <ele>489</ele>
        <time>2015-12-06T10:30:16Z</time>
      </trkpt>
      <trkpt lat="44.12545" lon="3.22356">
        <ele>489</ele>
        <time>2015-12-06T10:30:24Z</time>
      </trkpt>
      <trkpt lat="44.12543" lon="3.22357">
        <ele>490.5</ele>
        <time>2015-12-06T10:30:26Z</time>
      </trkpt>
      <trkpt lat="44.12542" lon="3.22358">
        <ele>491</ele>
        <time>2015-12-06T10:30:27Z</time>
      </trkpt>
      <trkpt lat="44.12542" lon="3.22358">
        <ele>490.5</ele>
        <time>2015-12-06T10:30:28Z</time>
      </trkpt>
      <trkpt lat="44.12541" lon="3.2236">
        <ele>492</ele>
        <time>2015-12-06T10:30:35Z</time>
      </trkpt>
      <trkpt lat="44.12542" lon="3.2236">
        <ele>491</ele>
        <time>2015-12-06T10:30:41Z</time>
      </trkpt>
      <trkpt lat="44.12543" lon="3.2236">
        <ele>492</ele>
        <time>2015-12-06T10:31:00Z</time>
      </trkpt>
      <trkpt lat="44.12543" lon="3.22359">
        <ele>492</ele>
        <time>2015-12-06T10:31:02Z</time>
      </trkpt>
      <trkpt lat="44.12543" lon="3.22357">
        <ele>492</ele>
        <time>2015-12-06T10:31:03Z</time>
      </trkpt>
      <trkpt lat="44.12543" lon="3.22356">
        <ele>491.5</ele>
        <time>2015-12-06T10:31:04Z</time>
      </trkpt>
      <trkpt lat="44.12542" lon="3.22354">
        <ele>492</ele>
        <time>2015-12-06T10:31:05Z</time>
      </trkpt>
      <trkpt lat="44.12542" lon="3.22353">
        <ele>492.5</ele>
        <time>2015-12-06T10:31:06Z</time>
      </trkpt>
      <trkpt lat="44.1254" lon="3.22353">
        <ele>492</ele>
        <time>2015-12-06T10:31:07Z</time>
      </trkpt>
      <trkpt lat="44.1254" lon="3.22353">
        <ele>490.5</ele>
        <time>2015-12-06T10:31:08Z</time>
      </trkpt>
      <trkpt lat="44.1254" lon="3.22354">
        <ele>489</ele>
        <time>2015-12-06T10:31:09Z</time>
      </trkpt>
      <trkpt lat="44.1254" lon="3.22356">
        <ele>488.5</ele>
        <time>2015-12-06T10:31:10Z</time>
      </trkpt>
      <trkpt lat="44.1254" lon="3.22359">
        <ele>487.5</ele>
        <time>2015-12-06T10:31:12Z</time>
      </trkpt>
      <trkpt lat="44.12541" lon="3.2236">
        <ele>489</ele>
        <time>2015-12-06T10:31:26Z</time>
      </trkpt>
      <trkpt lat="44.1254" lon="3.22357">
        <ele>490.5</ele>
        <time>2015-12-06T10:31:28Z</time>
      </trkpt>
      <trkpt lat="44.1254" lon="3.22355">
        <ele>491.5</ele>
        <time>2015-12-06T10:31:29Z</time>
      </trkpt>
      <trkpt lat="44.12539" lon="3.22355">
        <ele>491</ele>
        <time>2015-12-06T10:31:30Z</time>
      </trkpt>
      <trkpt lat="44.12539" lon="3.22354">
        <ele>491.5</ele>
        <time>2015-12-06T10:31:31Z</time>
      </trkpt>
      <trkpt lat="44.12538" lon="3.22353">
        <ele>491.5</ele>
        <time>2015-12-06T10:31:32Z</time>
      </trkpt>
      <trkpt lat="44.12537" lon="3.22354">
        <ele>489</ele>
        <time>2015-12-06T10:31:51Z</time>
      </trkpt>
      <trkpt lat="44.12537" lon="3.22355">
        <ele>488.5</ele>
        <time>2015-12-06T10:31:55Z</time>
      </trkpt>
      <trkpt lat="44.12535" lon="3.22354">
        <ele>488</ele>
        <time>2015-12-06T10:31:57Z</time>
      </trkpt>
      <trkpt lat="44.12535" lon="3.22354">
        <ele>488</ele>
        <time>2015-12-06T10:31:58Z</time>
      </trkpt>
      <trkpt lat="44.12534" lon="3.22355">
        <ele>488</ele>
        <time>2015-12-06T10:32:00Z</time>
      </trkpt>
      <trkpt lat="44.12534" lon="3.22354">
        <ele>487.5</ele>
        <time>2015-12-06T10:32:04Z</time>
      </trkpt>
      <trkpt lat="44.12536" lon="3.22353">
        <ele>488</ele>
        <time>2015-12-06T10:32:06Z</time>
      </trkpt>
      <trkpt lat="44.12536" lon="3.22352">
        <ele>488</ele>
        <time>2015-12-06T10:32:07Z</time>
      </trkpt>
      <trkpt lat="44.12535" lon="3.22349">
        <ele>486.5</ele>
        <time>2015-12-06T10:32:32Z</time>
      </trkpt>
      <trkpt lat="44.12536" lon="3.22351">
        <ele>486</ele>
        <time>2015-12-06T10:32:48Z</time>
      </trkpt>
      <trkpt lat="44.12537" lon="3.22351">
        <ele>487.5</ele>
        <time>2015-12-06T10:32:50Z</time>
      </trkpt>
      <trkpt lat="44.12536" lon="3.22351">
        <ele>487.5</ele>
        <time>2015-12-06T10:32:51Z</time>
      </trkpt>
      <trkpt lat="44.12536" lon="3.22353">
        <ele>487.5</ele>
        <time>2015-12-06T10:32:53Z</time>
      </trkpt>
      <trkpt lat="44.12535" lon="3.22353">
        <ele>485.5</ele>
        <time>2015-12-06T10:33:05Z</time>
      </trkpt>
      <trkpt lat="44.12535" lon="3.22354">
        <ele>484</ele>
        <time>2015-12-06T10:33:09Z</time>
      </trkpt>
      <trkpt lat="44.12534" lon="3.22355">
        <ele>482</ele>
        <time>2015-12-06T10:33:12Z</time>
      </trkpt>
      <trkpt lat="44.12534" lon="3.22357">
        <ele>481</ele>
        <time>2015-12-06T10:33:14Z</time>
      </trkpt>
      <trkpt lat="44.12534" lon="3.22359">
        <ele>479</ele>
        <time>2015-12-06T10:33:17Z</time>
      </trkpt>
      <trkpt lat="44.12534" lon="3.22361">
        <ele>478.5</ele>
        <time>2015-12-06T10:33:21Z</time>
      </trkpt>
      <trkpt lat="44.12534" lon="3.22362">
        <ele>477</ele>
        <time>2015-12-06T10:33:25Z</time>
      </trkpt>
      <trkpt lat="44.12534" lon="3.22362">
        <ele>477.5</ele>
        <time>2015-12-06T10:33:28Z</time>
      </trkpt>
      <trkpt lat="44.12531" lon="3.22362">
        <ele>475.5</ele>
        <time>2015-12-06T10:33:35Z</time>
      </trkpt>
      <trkpt lat="44.12531" lon="3.22365">
        <ele>475.5</ele>
        <time>2015-12-06T10:33:37Z</time>
      </trkpt>
      <trkpt lat="44.1253" lon="3.22362">
        <ele>475.5</ele>
        <time>2015-12-06T10:33:38Z</time>
      </trkpt>
      <trkpt lat="44.1253" lon="3.22361">
        <ele>476</ele>
        <time>2015-12-06T10:33:38Z</time>
      </trkpt>
      <trkpt lat="44.1253" lon="3.2236">
        <ele>476.5</ele>
        <time>2015-12-06T10:33:39Z</time>
      </trkpt>
      <trkpt lat="44.1253" lon="3.22359">
        <ele>477.5</ele>
        <time>2015-12-06T10:33:40Z</time>
      </trkpt>
      <trkpt lat="44.1253" lon="3.22358">
        <ele>478</ele>
        <time>2015-12-06T10:33:41Z</time>
      </trkpt>
      <trkpt lat="44.1253" lon="3.22357">
        <ele>478.5</ele>
        <time>2015-12-06T10:33:42Z</time>
      </trkpt>
      <trkpt lat="44.1253" lon="3.22358">
        <ele>478</ele>
        <time>2015-12-06T10:33:43Z</time>
      </trkpt>
      <trkpt lat="44.12531" lon="3.22357">
        <ele>478.5</ele>
        <time>2015-12-06T10:33:44Z</time>
      </trkpt>
      <trkpt lat="44.12532" lon="3.22358">
        <ele>479.5</ele>
        <time>2015-12-06T10:33:45Z</time>
      </trkpt>
      <trkpt lat="44.12532" lon="3.2236">
        <ele>479</ele>
        <time>2015-12-06T10:33:46Z</time>
      </trkpt>
      <trkpt lat="44.12532" lon="3.22361">
        <ele>479</ele>
        <time>2015-12-06T10:33:47Z</time>
      </trkpt>
      <trkpt lat="44.12531" lon="3.22361">
        <ele>478</ele>
        <time>2015-12-06T10:33:48Z</time>
      </trkpt>
      <trkpt lat="44.12532" lon="3.22361">
        <ele>477.5</ele>
        <time>2015-12-06T10:33:50Z</time>
      </trkpt>
      <trkpt lat="44.1253" lon="3.2236">
        <ele>476</ele>
        <time>2015-12-06T10:33:52Z</time>
      </trkpt>
      <trkpt lat="44.1253" lon="3.22357">
        <ele>475.5</ele>
        <time>2015-12-06T10:33:56Z</time>
      </trkpt>
      <trkpt lat="44.1253" lon="3.22356">
        <ele>475</ele>
        <time>2015-12-06T10:33:58Z</time>
      </trkpt>
      <trkpt lat="44.1253" lon="3.22356">
        <ele>474.5</ele>
        <time>2015-12-06T10:33:59Z</time>
      </trkpt>
      <trkpt lat="44.12534" lon="3.22353">
        <ele>482.5</ele>
        <time>2015-12-06T10:34:03Z</time>
      </trkpt>
      <trkpt lat="44.12535" lon="3.22351">
        <ele>486</ele>
        <time>2015-12-06T10:34:05Z</time>
      </trkpt>
      <trkpt lat="44.12536" lon="3.22351">
        <ele>486.5</ele>
        <time>2015-12-06T10:34:08Z</time>
      </trkpt>
      <trkpt lat="44.12536" lon="3.22354">
        <ele>486.5</ele>
        <time>2015-12-06T10:34:14Z</time>
      </trkpt>
      <trkpt lat="44.12537" lon="3.22352">
        <ele>489</ele>
        <time>2015-12-06T10:34:16Z</time>
      </trkpt>
      <trkpt lat="44.12539" lon="3.22357">
        <ele>488.5</ele>
        <time>2015-12-06T10:34:37Z</time>
      </trkpt>
      <trkpt lat="44.12539" lon="3.22358">
        <ele>487.5</ele>
        <time>2015-12-06T10:34:39Z</time>
      </trkpt>
      <trkpt lat="44.12539" lon="3.22358">
        <ele>486.5</ele>
        <time>2015-12-06T10:34:40Z</time>
      </trkpt>
      <trkpt lat="44.1254" lon="3.2236">
        <ele>485</ele>
        <time>2015-12-06T10:34:42Z</time>
      </trkpt>
      <trkpt lat="44.12541" lon="3.22359">
        <ele>484.5</ele>
        <time>2015-12-06T10:34:42Z</time>
      </trkpt>
      <trkpt lat="44.12541" lon="3.22359">
        <ele>484</ele>
        <time>2015-12-06T10:34:43Z</time>
      </trkpt>
      <trkpt lat="44.12542" lon="3.22359">
        <ele>483.5</ele>
        <time>2015-12-06T10:34:44Z</time>
      </trkpt>
      <trkpt lat="44.12543" lon="3.22358">
        <ele>483.5</ele>
        <time>2015-12-06T10:34:46Z</time>
      </trkpt>
      <trkpt lat="44.12544" lon="3.22357">
        <ele>483</ele>
        <time>2015-12-06T10:34:46Z</time>
      </trkpt>
      <trkpt lat="44.12544" lon="3.22356">
        <ele>483.5</ele>
        <time>2015-12-06T10:34:47Z</time>
      </trkpt>
      <trkpt lat="44.12543" lon="3.22354">
        <ele>482</ele>
        <time>2015-12-06T10:34:49Z</time>
      </trkpt>
      <trkpt lat="44.12542" lon="3.22354">
        <ele>481.5</ele>
        <time>2015-12-06T10:34:51Z</time>
      </trkpt>
      <trkpt lat="44.12543" lon="3.22354">
        <ele>481.5</ele>
        <time>2015-12-06T10:34:52Z</time>
      </trkpt>
      <trkpt lat="44.12542" lon="3.22354">
        <ele>483</ele>
        <time>2015-12-06T10:34:55Z</time>
      </trkpt>
      <trkpt lat="44.12543" lon="3.22354">
        <ele>484.5</ele>
        <time>2015-12-06T10:34:58Z</time>
      </trkpt>
      <trkpt lat="44.12544" lon="3.22354">
        <ele>483.5</ele>
        <time>2015-12-06T10:35:06Z</time>
      </trkpt>
      <trkpt lat="44.12544" lon="3.22354">
        <ele>484</ele>
        <time>2015-12-06T10:35:09Z</time>
      </trkpt>
      <trkpt lat="44.12544" lon="3.22354">
        <ele>482.5</ele>
        <time>2015-12-06T10:35:10Z</time>
      </trkpt>
      <trkpt lat="44.12544" lon="3.22353">
        <ele>482.5</ele>
        <time>2015-12-06T10:35:11Z</time>
      </trkpt>
      <trkpt lat="44.12543" lon="3.22353">
        <ele>481.5</ele>
        <time>2015-12-06T10:35:12Z</time>
      </trkpt>
      <trkpt lat="44.12542" lon="3.22353">
        <ele>480.5</ele>
        <time>2015-12-06T10:35:13Z</time>
      </trkpt>
      <trkpt lat="44.12542" lon="3.22352">
        <ele>480.5</ele>
        <time>2015-12-06T10:35:14Z</time>
      </trkpt>
      <trkpt lat="44.12542" lon="3.22351">
        <ele>480.5</ele>
        <time>2015-12-06T10:35:15Z</time>
      </trkpt>
      <trkpt lat="44.12541" lon="3.2235">
        <ele>480.5</ele>
        <time>2015-12-06T10:35:16Z</time>
      </trkpt>
      <trkpt lat="44.12541" lon="3.22349">
        <ele>481</ele>
        <time>2015-12-06T10:35:17Z</time>
      </trkpt>
      <trkpt lat="44.12541" lon="3.22348">
        <ele>481</ele>
        <time>2015-12-06T10:35:18Z</time>
      </trkpt>
      <trkpt lat="44.1254" lon="3.22347">
        <ele>481</ele>
        <time>2015-12-06T10:35:19Z</time>
      </trkpt>
      <trkpt lat="44.12541" lon="3.22348">
        <ele>478</ele>
        <time>2015-12-06T10:35:33Z</time>
      </trkpt>
      <trkpt lat="44.12541" lon="3.22349">
        <ele>476.5</ele>
        <time>2015-12-06T10:35:35Z</time>
      </trkpt>
      <trkpt lat="44.12541" lon="3.22349">
        <ele>475</ele>
        <time>2015-12-06T10:35:36Z</time>
      </trkpt>
      <trkpt lat="44.12542" lon="3.22351">
        <ele>475</ele>
        <time>2015-12-06T10:35:40Z</time>
      </trkpt>
      <trkpt lat="44.12541" lon="3.22351">
        <ele>476</ele>
        <time>2015-12-06T10:35:42Z</time>
      </trkpt>
      <trkpt lat="44.12541" lon="3.22352">
        <ele>475.5</ele>
        <time>2015-12-06T10:35:43Z</time>
      </trkpt>
      <trkpt lat="44.12541" lon="3.22353">
        <ele>476</ele>
        <time>2015-12-06T10:35:44Z</time>
      </trkpt>
      <trkpt lat="44.12542" lon="3.22354">
        <ele>475.5</ele>
        <time>2015-12-06T10:35:46Z</time>
      </trkpt>
      <trkpt lat="44.12543" lon="3.22355">
        <ele>473</ele>
        <time>2015-12-06T10:35:49Z</time>
      </trkpt>
      <trkpt lat="44.12543" lon="3.22355">
        <ele>473</ele>
        <time>2015-12-06T10:35:51Z</time>
      </trkpt>
      <trkpt lat="44.12543" lon="3.22356">
        <ele>472.5</ele>
        <time>2015-12-06T10:35:52Z</time>
      </trkpt>
      <trkpt lat="44.12543" lon="3.22357">
        <ele>472</ele>
        <time>2015-12-06T10:35:53Z</time>
      </trkpt>
      <trkpt lat="44.12544" lon="3.22357">
        <ele>471</ele>
        <time>2015-12-06T10:35:56Z</time>
      </trkpt>
      <trkpt lat="44.12544" lon="3.22357">
        <ele>470.5</ele>
        <time>2015-12-06T10:35:58Z</time>
      </trkpt>
      <trkpt lat="44.12544" lon="3.22357">
        <ele>470.5</ele>
        <time>2015-12-06T10:36:00Z</time>
      </trkpt>
      <trkpt lat="44.12544" lon="3.22358">
        <ele>470</ele>
        <time>2015-12-06T10:36:02Z</time>
      </trkpt>
      <trkpt lat="44.12543" lon="3.22358">
        <ele>471.5</ele>
        <time>2015-12-06T10:36:03Z</time>
      </trkpt>
      <trkpt lat="44.12543" lon="3.22357">
        <ele>473</ele>
        <time>2015-12-06T10:36:06Z</time>
      </trkpt>
      <trkpt lat="44.12542" lon="3.22356">
        <ele>474.5</ele>
        <time>2015-12-06T10:36:08Z</time>
      </trkpt>
      <trkpt lat="44.12541" lon="3.22355">
        <ele>475</ele>
        <time>2015-12-06T10:36:09Z</time>
      </trkpt>
      <trkpt lat="44.12541" lon="3.22355">
        <ele>475.5</ele>
        <time>2015-12-06T10:36:10Z</time>
      </trkpt>
      <trkpt lat="44.12541" lon="3.22356">
        <ele>475.5</ele>
        <time>2015-12-06T10:36:11Z</time>
      </trkpt>
      <trkpt lat="44.12539" lon="3.22351">
        <ele>478.5</ele>
        <time>2015-12-06T10:36:18Z</time>
      </trkpt>
      <trkpt lat="44.12538" lon="3.22351">
        <ele>481</ele>
        <time>2015-12-06T10:36:20Z</time>
      </trkpt>
      <trkpt lat="44.12537" lon="3.2235">
        <ele>484</ele>
        <time>2015-12-06T10:36:21Z</time>
      </trkpt>
      <trkpt lat="44.12536" lon="3.22349">
        <ele>486</ele>
        <time>2015-12-06T10:36:22Z</time>
      </trkpt>
      <trkpt lat="44.12534" lon="3.22348">
        <ele>490</ele>
        <time>2015-12-06T10:36:24Z</time>
      </trkpt>
      <trkpt lat="44.12533" lon="3.22348">
        <ele>491.5</ele>
        <time>2015-12-06T10:36:27Z</time>
      </trkpt>
      <trkpt lat="44.12533" lon="3.22348">
        <ele>491.5</ele>
        <time>2015-12-06T10:36:29Z</time>
      </trkpt>
      <trkpt lat="44.12533" lon="3.22347">
        <ele>492</ele>
        <time>2015-12-06T10:36:30Z</time>
      </trkpt>
      <trkpt lat="44.12533" lon="3.22348">
        <ele>491</ele>
        <time>2015-12-06T10:36:31Z</time>
      </trkpt>
      <trkpt lat="44.12534" lon="3.22349">
        <ele>491</ele>
        <time>2015-12-06T10:36:35Z</time>
      </trkpt>
      <trkpt lat="44.12537" lon="3.22353">
        <ele>486</ele>
        <time>2015-12-06T10:36:44Z</time>
      </trkpt>
      <trkpt lat="44.12538" lon="3.22353">
        <ele>485.5</ele>
        <time>2015-12-06T10:36:46Z</time>
      </trkpt>
      <trkpt lat="44.12539" lon="3.22353">
        <ele>485</ele>
        <time>2015-12-06T10:36:47Z</time>
      </trkpt>
      <trkpt lat="44.1254" lon="3.22354">
        <ele>484.5</ele>
        <time>2015-12-06T10:36:49Z</time>
      </trkpt>
      <trkpt lat="44.12541" lon="3.22356">
        <ele>482</ele>
        <time>2015-12-06T10:36:51Z</time>
      </trkpt>
      <trkpt lat="44.12542" lon="3.22358">
        <ele>482</ele>
        <time>2015-12-06T10:36:54Z</time>
      </trkpt>
      <trkpt lat="44.12543" lon="3.22358">
        <ele>482</ele>
        <time>2015-12-06T10:36:57Z</time>
      </trkpt>
      <trkpt lat="44.12542" lon="3.22358">
        <ele>480.5</ele>
        <time>2015-12-06T10:37:02Z</time>
      </trkpt>
      <trkpt lat="44.12541" lon="3.22358">
        <ele>480</ele>
        <time>2015-12-06T10:37:04Z</time>
      </trkpt>
      <trkpt lat="44.12543" lon="3.22356">
        <ele>479</ele>
        <time>2015-12-06T10:37:10Z</time>
      </trkpt>
      <trkpt lat="44.12543" lon="3.22356">
        <ele>480</ele>
        <time>2015-12-06T10:37:12Z</time>
      </trkpt>
      <trkpt lat="44.12543" lon="3.22355">
        <ele>481</ele>
        <time>2015-12-06T10:37:13Z</time>
      </trkpt>
      <trkpt lat="44.12543" lon="3.22355">
        <ele>482</ele>
        <time>2015-12-06T10:37:14Z</time>
      </trkpt>
      <trkpt lat="44.12544" lon="3.22354">
        <ele>482.5</ele>
        <time>2015-12-06T10:37:15Z</time>
      </trkpt>
      <trkpt lat="44.12544" lon="3.22352">
        <ele>483</ele>
        <time>2015-12-06T10:37:16Z</time>
      </trkpt>
      <trkpt lat="44.12544" lon="3.22349">
        <ele>483.5</ele>
        <time>2015-12-06T10:37:17Z</time>
      </trkpt>
      <trkpt lat="44.12542" lon="3.22346">
        <ele>484.5</ele>
        <time>2015-12-06T10:37:23Z</time>
      </trkpt>
      <trkpt lat="44.12541" lon="3.22344">
        <ele>484.5</ele>
        <time>2015-12-06T10:37:25Z</time>
      </trkpt>
      <trkpt lat="44.12541" lon="3.22344">
        <ele>484</ele>
        <time>2015-12-06T10:37:26Z</time>
      </trkpt>
      <trkpt lat="44.1254" lon="3.22343">
        <ele>484</ele>
        <time>2015-12-06T10:37:27Z</time>
      </trkpt>
      <trkpt lat="44.12539" lon="3.22343">
        <ele>484</ele>
        <time>2015-12-06T10:37:28Z</time>
      </trkpt>
      <trkpt lat="44.12538" lon="3.22342">
        <ele>484.5</ele>
        <time>2015-12-06T10:37:30Z</time>
      </trkpt>
      <trkpt lat="44.12538" lon="3.22343">
        <ele>484.5</ele>
        <time>2015-12-06T10:37:35Z</time>
      </trkpt>
      <trkpt lat="44.12539" lon="3.22344">
        <ele>484.5</ele>
        <time>2015-12-06T10:37:38Z</time>
      </trkpt>
      <trkpt lat="44.12539" lon="3.22345">
        <ele>485</ele>
        <time>2015-12-06T10:37:44Z</time>
      </trkpt>
      <trkpt lat="44.12539" lon="3.22343">
        <ele>484.5</ele>
        <time>2015-12-06T10:37:46Z</time>
      </trkpt>
      <trkpt lat="44.12539" lon="3.22341">
        <ele>484</ele>
        <time>2015-12-06T10:37:47Z</time>
      </trkpt>
      <trkpt lat="44.1254" lon="3.2234">
        <ele>483</ele>
        <time>2015-12-06T10:37:48Z</time>
      </trkpt>
      <trkpt lat="44.12541" lon="3.22339">
        <ele>482.5</ele>
        <time>2015-12-06T10:37:49Z</time>
      </trkpt>
      <trkpt lat="44.12542" lon="3.22338">
        <ele>482</ele>
        <time>2015-12-06T10:37:50Z</time>
      </trkpt>
      <trkpt lat="44.12543" lon="3.22337">
        <ele>481.5</ele>
        <time>2015-12-06T10:37:51Z</time>
      </trkpt>
      <trkpt lat="44.12544" lon="3.22337">
        <ele>481.5</ele>
        <time>2015-12-06T10:37:52Z</time>
      </trkpt>
      <trkpt lat="44.12545" lon="3.22336">
        <ele>481</ele>
        <time>2015-12-06T10:37:53Z</time>
      </trkpt>
      <trkpt lat="44.12546" lon="3.22335">
        <ele>481</ele>
        <time>2015-12-06T10:37:54Z</time>
      </trkpt>
      <trkpt lat="44.12547" lon="3.22335">
        <ele>481</ele>
        <time>2015-12-06T10:37:55Z</time>
      </trkpt>
      <trkpt lat="44.12548" lon="3.22335">
        <ele>481</ele>
        <time>2015-12-06T10:37:56Z</time>
      </trkpt>
      <trkpt lat="44.12549" lon="3.22335">
        <ele>480.5</ele>
        <time>2015-12-06T10:37:57Z</time>
      </trkpt>
      <trkpt lat="44.12551" lon="3.22335">
        <ele>480</ele>
        <time>2015-12-06T10:37:58Z</time>
      </trkpt>
      <trkpt lat="44.12553" lon="3.22335">
        <ele>480.5</ele>
        <time>2015-12-06T10:37:59Z</time>
      </trkpt>
      <trkpt lat="44.12556" lon="3.22334">
        <ele>480</ele>
        <time>2015-12-06T10:38:00Z</time>
      </trkpt>
      <trkpt lat="44.12558" lon="3.22334">
        <ele>479.5</ele>
        <time>2015-12-06T10:38:01Z</time>
      </trkpt>
      <trkpt lat="44.12561" lon="3.22334">
        <ele>479.5</ele>
        <time>2015-12-06T10:38:02Z</time>
      </trkpt>
      <trkpt lat="44.12562" lon="3.22334">
        <ele>479</ele>
        <time>2015-12-06T10:38:03Z</time>
      </trkpt>
      <trkpt lat="44.12564" lon="3.22334">
        <ele>478.5</ele>
        <time>2015-12-06T10:38:04Z</time>
      </trkpt>
      <trkpt lat="44.12566" lon="3.22334">
        <ele>478</ele>
        <time>2015-12-06T10:38:05Z</time>
      </trkpt>
      <trkpt lat="44.12567" lon="3.22333">
        <ele>478</ele>
        <time>2015-12-06T10:38:06Z</time>
      </trkpt>
      <trkpt lat="44.12569" lon="3.22333">
        <ele>478</ele>
        <time>2015-12-06T10:38:07Z</time>
      </trkpt>
      <trkpt lat="44.1257" lon="3.22332">
        <ele>478</ele>
        <time>2015-12-06T10:38:08Z</time>
      </trkpt>
      <trkpt lat="44.12572" lon="3.22331">
        <ele>478.5</ele>
        <time>2015-12-06T10:38:09Z</time>
      </trkpt>
      <trkpt lat="44.12573" lon="3.22331">
        <ele>478.5</ele>
        <time>2015-12-06T10:38:10Z</time>
      </trkpt>
      <trkpt lat="44.12574" lon="3.2233">
        <ele>479</ele>
        <time>2015-12-06T10:38:11Z</time>
      </trkpt>
      <trkpt lat="44.12575" lon="3.22328">
        <ele>479.5</ele>
        <time>2015-12-06T10:38:12Z</time>
      </trkpt>
      <trkpt lat="44.12575" lon="3.22327">
        <ele>480.5</ele>
        <time>2015-12-06T10:38:13Z</time>
      </trkpt>
      <trkpt lat="44.12575" lon="3.22325">
        <ele>480.5</ele>
        <time>2015-12-06T10:38:14Z</time>
      </trkpt>
      <trkpt lat="44.12575" lon="3.22324">
        <ele>480</ele>
        <time>2015-12-06T10:38:15Z</time>
      </trkpt>
      <trkpt lat="44.12574" lon="3.22321">
        <ele>480</ele>
        <time>2015-12-06T10:38:16Z</time>
      </trkpt>
      <trkpt lat="44.1257" lon="3.22311">
        <ele>479</ele>
        <time>2015-12-06T10:38:18Z</time>
      </trkpt>
      <trkpt lat="44.12568" lon="3.22306">
        <ele>479</ele>
        <time>2015-12-06T10:38:19Z</time>
      </trkpt>
      <trkpt lat="44.12567" lon="3.22303">
        <ele>478</ele>
        <time>2015-12-06T10:38:20Z</time>
      </trkpt>
      <trkpt lat="44.12566" lon="3.22301">
        <ele>477.5</ele>
        <time>2015-12-06T10:38:21Z</time>
      </trkpt>
      <trkpt lat="44.12565" lon="3.22299">
        <ele>477</ele>
        <time>2015-12-06T10:38:22Z</time>
      </trkpt>
      <trkpt lat="44.12565" lon="3.22298">
        <ele>476.5</ele>
        <time>2015-12-06T10:38:23Z</time>
      </trkpt>
      <trkpt lat="44.12565" lon="3.22297">
        <ele>476</ele>
        <time>2015-12-06T10:38:24Z</time>
      </trkpt>
      <trkpt lat="44.12563" lon="3.22296">
        <ele>476.5</ele>
        <time>2015-12-06T10:38:25Z</time>
      </trkpt>
      <trkpt lat="44.12562" lon="3.22296">
        <ele>476.5</ele>
        <time>2015-12-06T10:38:26Z</time>
      </trkpt>
      <trkpt lat="44.12561" lon="3.22296">
        <ele>476.5</ele>
        <time>2015-12-06T10:38:27Z</time>
      </trkpt>
      <trkpt lat="44.1256" lon="3.22297">
        <ele>476.5</ele>
        <time>2015-12-06T10:38:28Z</time>
      </trkpt>
      <trkpt lat="44.12559" lon="3.22298">
        <ele>476.5</ele>
        <time>2015-12-06T10:38:29Z</time>
      </trkpt>
      <trkpt lat="44.12558" lon="3.22297">
        <ele>474.5</ele>
        <time>2015-12-06T10:38:30Z</time>
      </trkpt>
      <trkpt lat="44.12557" lon="3.22298">
        <ele>474</ele>
        <time>2015-12-06T10:38:31Z</time>
      </trkpt>
      <trkpt lat="44.12556" lon="3.22298">
        <ele>474.5</ele>
        <time>2015-12-06T10:38:32Z</time>
      </trkpt>
      <trkpt lat="44.12555" lon="3.22298">
        <ele>474.5</ele>
        <time>2015-12-06T10:38:33Z</time>
      </trkpt>
      <trkpt lat="44.12554" lon="3.223">
        <ele>474.5</ele>
        <time>2015-12-06T10:38:34Z</time>
      </trkpt>
      <trkpt lat="44.12552" lon="3.22301">
        <ele>474.5</ele>
        <time>2015-12-06T10:38:35Z</time>
      </trkpt>
      <trkpt lat="44.12551" lon="3.22299">
        <ele>474.5</ele>
        <time>2015-12-06T10:38:36Z</time>
      </trkpt>
      <trkpt lat="44.1255" lon="3.22302">
        <ele>474.5</ele>
        <time>2015-12-06T10:38:38Z</time>
      </trkpt>
      <trkpt lat="44.12549" lon="3.22299">
        <ele>473</ele>
        <time>2015-12-06T10:38:40Z</time>
      </trkpt>
      <trkpt lat="44.12548" lon="3.22298">
        <ele>473</ele>
        <time>2015-12-06T10:38:41Z</time>
      </trkpt>
      <trkpt lat="44.12548" lon="3.22299">
        <ele>473</ele>
        <time>2015-12-06T10:38:42Z</time>
      </trkpt>
      <trkpt lat="44.12548" lon="3.223">
        <ele>471.5</ele>
        <time>2015-12-06T10:38:43Z</time>
      </trkpt>
      <trkpt lat="44.12552" lon="3.22303">
        <ele>469</ele>
        <time>2015-12-06T10:38:45Z</time>
      </trkpt>
      <trkpt lat="44.12554" lon="3.22304">
        <ele>469</ele>
        <time>2015-12-06T10:38:46Z</time>
      </trkpt>
      <trkpt lat="44.12555" lon="3.22303">
        <ele>468.5</ele>
        <time>2015-12-06T10:38:47Z</time>
      </trkpt>
      <trkpt lat="44.12555" lon="3.22303">
        <ele>467.5</ele>
        <time>2015-12-06T10:38:48Z</time>
      </trkpt>
      <trkpt lat="44.12557" lon="3.22295">
        <ele>468</ele>
        <time>2015-12-06T10:38:50Z</time>
      </trkpt>
      <trkpt lat="44.12555" lon="3.22294">
        <ele>470</ele>
        <time>2015-12-06T10:38:52Z</time>
      </trkpt>
      <trkpt lat="44.12555" lon="3.22294">
        <ele>470</ele>
        <time>2015-12-06T10:38:53Z</time>
      </trkpt>
      <trkpt lat="44.12554" lon="3.22295">
        <ele>469.5</ele>
        <time>2015-12-06T10:38:54Z</time>
      </trkpt>
      <trkpt lat="44.12552" lon="3.22295">
        <ele>469.5</ele>
        <time>2015-12-06T10:38:55Z</time>
      </trkpt>
      <trkpt lat="44.12551" lon="3.22297">
        <ele>468</ele>
        <time>2015-12-06T10:38:56Z</time>
      </trkpt>
      <trkpt lat="44.12549" lon="3.22296">
        <ele>467.5</ele>
        <time>2015-12-06T10:38:57Z</time>
      </trkpt>
      <trkpt lat="44.12547" lon="3.22297">
        <ele>465.5</ele>
        <time>2015-12-06T10:38:58Z</time>
      </trkpt>
      <trkpt lat="44.12545" lon="3.22297">
        <ele>465</ele>
        <time>2015-12-06T10:38:59Z</time>
      </trkpt>
      <trkpt lat="44.12544" lon="3.22296">
        <ele>465</ele>
        <time>2015-12-06T10:39:00Z</time>
      </trkpt>
      <trkpt lat="44.12542" lon="3.22295">
        <ele>464.5</ele>
        <time>2015-12-06T10:39:01Z</time>
      </trkpt>
      <trkpt lat="44.1254" lon="3.22295">
        <ele>462.5</ele>
        <time>2015-12-06T10:39:02Z</time>
      </trkpt>
      <trkpt lat="44.12539" lon="3.22295">
        <ele>462</ele>
        <time>2015-12-06T10:39:03Z</time>
      </trkpt>
      <trkpt lat="44.12538" lon="3.22294">
        <ele>462</ele>
        <time>2015-12-06T10:39:04Z</time>
      </trkpt>
      <trkpt lat="44.12538" lon="3.22294">
        <ele>462.5</ele>
        <time>2015-12-06T10:39:05Z</time>
      </trkpt>
      <trkpt lat="44.12538" lon="3.22293">
        <ele>462.5</ele>
        <time>2015-12-06T10:39:06Z</time>
      </trkpt>
      <trkpt lat="44.12537" lon="3.2229">
        <ele>460</ele>
        <time>2015-12-06T10:39:35Z</time>
      </trkpt>
      <trkpt lat="44.12535" lon="3.22288">
        <ele>459.5</ele>
        <time>2015-12-06T10:39:37Z</time>
      </trkpt>
      <trkpt lat="44.12533" lon="3.22287">
        <ele>459.5</ele>
        <time>2015-12-06T10:39:38Z</time>
      </trkpt>
      <trkpt lat="44.12533" lon="3.22289">
        <ele>459.5</ele>
        <time>2015-12-06T10:39:39Z</time>
      </trkpt>
      <trkpt lat="44.12535" lon="3.2229">
        <ele>459</ele>
        <time>2015-12-06T10:39:40Z</time>
      </trkpt>
      <trkpt lat="44.12536" lon="3.22291">
        <ele>459</ele>
        <time>2015-12-06T10:39:41Z</time>
      </trkpt>
      <trkpt lat="44.12538" lon="3.22293">
        <ele>459</ele>
        <time>2015-12-06T10:39:42Z</time>
      </trkpt>
      <trkpt lat="44.1254" lon="3.22294">
        <ele>458.5</ele>
        <time>2015-12-06T10:39:43Z</time>
      </trkpt>
      <trkpt lat="44.12541" lon="3.22295">
        <ele>458.5</ele>
        <time>2015-12-06T10:39:44Z</time>
      </trkpt>
      <trkpt lat="44.12543" lon="3.22296">
        <ele>458.5</ele>
        <time>2015-12-06T10:39:45Z</time>
      </trkpt>
      <trkpt lat="44.12546" lon="3.22296">
        <ele>458.5</ele>
        <time>2015-12-06T10:39:46Z</time>
      </trkpt>
      <trkpt lat="44.12547" lon="3.22297">
        <ele>458.5</ele>
        <time>2015-12-06T10:39:47Z</time>
      </trkpt>
      <trkpt lat="44.12549" lon="3.22298">
        <ele>458</ele>
        <time>2015-12-06T10:39:48Z</time>
      </trkpt>
      <trkpt lat="44.1255" lon="3.22298">
        <ele>458</ele>
        <time>2015-12-06T10:39:49Z</time>
      </trkpt>
      <trkpt lat="44.12551" lon="3.22297">
        <ele>457.5</ele>
        <time>2015-12-06T10:39:50Z</time>
      </trkpt>
      <trkpt lat="44.12553" lon="3.22297">
        <ele>457.5</ele>
        <time>2015-12-06T10:39:51Z</time>
      </trkpt>
      <trkpt lat="44.12554" lon="3.22298">
        <ele>458</ele>
        <time>2015-12-06T10:39:52Z</time>
      </trkpt>
      <trkpt lat="44.12555" lon="3.22297">
        <ele>458.5</ele>
        <time>2015-12-06T10:39:53Z</time>
      </trkpt>
      <trkpt lat="44.12557" lon="3.22296">
        <ele>458.5</ele>
        <time>2015-12-06T10:39:54Z</time>
      </trkpt>
      <trkpt lat="44.12558" lon="3.22293">
        <ele>459</ele>
        <time>2015-12-06T10:39:55Z</time>
      </trkpt>
      <trkpt lat="44.1256" lon="3.22294">
        <ele>460</ele>
        <time>2015-12-06T10:39:56Z</time>
      </trkpt>
      <trkpt lat="44.12562" lon="3.22294">
        <ele>460.5</ele>
        <time>2015-12-06T10:39:57Z</time>
      </trkpt>
      <trkpt lat="44.12563" lon="3.22292">
        <ele>461</ele>
        <time>2015-12-06T10:39:58Z</time>
      </trkpt>
      <trkpt lat="44.12565" lon="3.22291">
        <ele>462.5</ele>
        <time>2015-12-06T10:39:59Z</time>
      </trkpt>
      <trkpt lat="44.12568" lon="3.22292">
        <ele>464</ele>
        <time>2015-12-06T10:40:00Z</time>
      </trkpt>
      <trkpt lat="44.12571" lon="3.22291">
        <ele>466.5</ele>
        <time>2015-12-06T10:40:01Z</time>
      </trkpt>
      <trkpt lat="44.12572" lon="3.22289">
        <ele>467</ele>
        <time>2015-12-06T10:40:02Z</time>
      </trkpt>
      <trkpt lat="44.12573" lon="3.22286">
        <ele>467.5</ele>
        <time>2015-12-06T10:40:03Z</time>
      </trkpt>
      <trkpt lat="44.12575" lon="3.22284">
        <ele>468.5</ele>
        <time>2015-12-06T10:40:04Z</time>
      </trkpt>
      <trkpt lat="44.12577" lon="3.22282">
        <ele>470.5</ele>
        <time>2015-12-06T10:40:05Z</time>
      </trkpt>
      <trkpt lat="44.1258" lon="3.22282">
        <ele>472</ele>
        <time>2015-12-06T10:40:06Z</time>
      </trkpt>
      <trkpt lat="44.12582" lon="3.22282">
        <ele>472.5</ele>
        <time>2015-12-06T10:40:07Z</time>
      </trkpt>
      <trkpt lat="44.12584" lon="3.22281">
        <ele>473.5</ele>
        <time>2015-12-06T10:40:08Z</time>
      </trkpt>
      <trkpt lat="44.12586" lon="3.22282">
        <ele>474</ele>
        <time>2015-12-06T10:40:09Z</time>
      </trkpt>
      <trkpt lat="44.12588" lon="3.22281">
        <ele>474</ele>
        <time>2015-12-06T10:40:10Z</time>
      </trkpt>
      <trkpt lat="44.1259" lon="3.22281">
        <ele>474.5</ele>
        <time>2015-12-06T10:40:11Z</time>
      </trkpt>
      <trkpt lat="44.12591" lon="3.2228">
        <ele>475</ele>
        <time>2015-12-06T10:40:12Z</time>
      </trkpt>
      <trkpt lat="44.12593" lon="3.22279">
        <ele>475</ele>
        <time>2015-12-06T10:40:13Z</time>
      </trkpt>
      <trkpt lat="44.12594" lon="3.22278">
        <ele>475</ele>
        <time>2015-12-06T10:40:14Z</time>
      </trkpt>
      <trkpt lat="44.12595" lon="3.22277">
        <ele>475</ele>
        <time>2015-12-06T10:40:15Z</time>
      </trkpt>
      <trkpt lat="44.12597" lon="3.22276">
        <ele>474.5</ele>
        <time>2015-12-06T10:40:16Z</time>
      </trkpt>
      <trkpt lat="44.12598" lon="3.22275">
        <ele>474.5</ele>
        <time>2015-12-06T10:40:17Z</time>
      </trkpt>
      <trkpt lat="44.126" lon="3.22275">
        <ele>474.5</ele>
        <time>2015-12-06T10:40:18Z</time>
      </trkpt>
      <trkpt lat="44.12602" lon="3.22274">
        <ele>474.5</ele>
        <time>2015-12-06T10:40:19Z</time>
      </trkpt>
      <trkpt lat="44.12603" lon="3.22273">
        <ele>475</ele>
        <time>2015-12-06T10:40:20Z</time>
      </trkpt>
      <trkpt lat="44.12605" lon="3.22272">
        <ele>474.5</ele>
        <time>2015-12-06T10:40:21Z</time>
      </trkpt>
      <trkpt lat="44.12607" lon="3.22271">
        <ele>474.5</ele>
        <time>2015-12-06T10:40:22Z</time>
      </trkpt>
      <trkpt lat="44.12608" lon="3.22271">
        <ele>474.5</ele>
        <time>2015-12-06T10:40:22Z</time>
      </trkpt>
      <trkpt lat="44.1261" lon="3.2227">
        <ele>474.5</ele>
        <time>2015-12-06T10:40:23Z</time>
      </trkpt>
      <trkpt lat="44.12611" lon="3.22269">
        <ele>474.5</ele>
        <time>2015-12-06T10:40:24Z</time>
      </trkpt>
      <trkpt lat="44.12613" lon="3.22269">
        <ele>474.5</ele>
        <time>2015-12-06T10:40:25Z</time>
      </trkpt>
      <trkpt lat="44.12615" lon="3.22268">
        <ele>474.5</ele>
        <time>2015-12-06T10:40:26Z</time>
      </trkpt>
      <trkpt lat="44.12616" lon="3.22268">
        <ele>474.5</ele>
        <time>2015-12-06T10:40:27Z</time>
      </trkpt>
      <trkpt lat="44.12618" lon="3.22267">
        <ele>474.5</ele>
        <time>2015-12-06T10:40:28Z</time>
      </trkpt>
      <trkpt lat="44.1262" lon="3.22268">
        <ele>474.5</ele>
        <time>2015-12-06T10:40:29Z</time>
      </trkpt>
      <trkpt lat="44.12622" lon="3.22269">
        <ele>474.5</ele>
        <time>2015-12-06T10:40:30Z</time>
      </trkpt>
      <trkpt lat="44.12623" lon="3.22268">
        <ele>474.5</ele>
        <time>2015-12-06T10:40:31Z</time>
      </trkpt>
      <trkpt lat="44.12624" lon="3.22269">
        <ele>475</ele>
        <time>2015-12-06T10:40:32Z</time>
      </trkpt>
      <trkpt lat="44.12625" lon="3.22271">
        <ele>475</ele>
        <time>2015-12-06T10:40:33Z</time>
      </trkpt>
      <trkpt lat="44.12627" lon="3.22274">
        <ele>475.5</ele>
        <time>2015-12-06T10:40:34Z</time>
      </trkpt>
      <trkpt lat="44.12627" lon="3.22277">
        <ele>475.5</ele>
        <time>2015-12-06T10:40:35Z</time>
      </trkpt>
      <trkpt lat="44.12627" lon="3.2228">
        <ele>475.5</ele>
        <time>2015-12-06T10:40:36Z</time>
      </trkpt>
      <trkpt lat="44.12626" lon="3.22284">
        <ele>476</ele>
        <time>2015-12-06T10:40:37Z</time>
      </trkpt>
      <trkpt lat="44.12625" lon="3.22286">
        <ele>476</ele>
        <time>2015-12-06T10:40:38Z</time>
      </trkpt>
      <trkpt lat="44.12624" lon="3.22289">
        <ele>476</ele>
        <time>2015-12-06T10:40:39Z</time>
      </trkpt>
      <trkpt lat="44.12623" lon="3.22291">
        <ele>476</ele>
        <time>2015-12-06T10:40:40Z</time>
      </trkpt>
      <trkpt lat="44.12621" lon="3.22293">
        <ele>476.5</ele>
        <time>2015-12-06T10:40:41Z</time>
      </trkpt>
      <trkpt lat="44.12619" lon="3.22295">
        <ele>476.5</ele>
        <time>2015-12-06T10:40:42Z</time>
      </trkpt>
      <trkpt lat="44.12617" lon="3.22298">
        <ele>476.5</ele>
        <time>2015-12-06T10:40:43Z</time>
      </trkpt>
      <trkpt lat="44.12616" lon="3.223">
        <ele>476.5</ele>
        <time>2015-12-06T10:40:44Z</time>
      </trkpt>
      <trkpt lat="44.12614" lon="3.223">
        <ele>477.5</ele>
        <time>2015-12-06T10:40:46Z</time>
      </trkpt>
      <trkpt lat="44.12611" lon="3.22302">
        <ele>477</ele>
        <time>2015-12-06T10:40:46Z</time>
      </trkpt>
      <trkpt lat="44.12609" lon="3.22303">
        <ele>477.5</ele>
        <time>2015-12-06T10:40:47Z</time>
      </trkpt>
      <trkpt lat="44.12608" lon="3.22305">
        <ele>477.5</ele>
        <time>2015-12-06T10:40:48Z</time>
      </trkpt>
      <trkpt lat="44.12606" lon="3.22307">
        <ele>477</ele>
        <time>2015-12-06T10:40:49Z</time>
      </trkpt>
      <trkpt lat="44.12604" lon="3.2231">
        <ele>477</ele>
        <time>2015-12-06T10:40:50Z</time>
      </trkpt>
      <trkpt lat="44.12602" lon="3.22312">
        <ele>477.5</ele>
        <time>2015-12-06T10:40:51Z</time>
      </trkpt>
      <trkpt lat="44.126" lon="3.22313">
        <ele>478</ele>
        <time>2015-12-06T10:40:52Z</time>
      </trkpt>
      <trkpt lat="44.12598" lon="3.22315">
        <ele>478.5</ele>
        <time>2015-12-06T10:40:53Z</time>
      </trkpt>
      <trkpt lat="44.12596" lon="3.22316">
        <ele>479</ele>
        <time>2015-12-06T10:40:54Z</time>
      </trkpt>
      <trkpt lat="44.12594" lon="3.22318">
        <ele>479.5</ele>
        <time>2015-12-06T10:40:55Z</time>
      </trkpt>
      <trkpt lat="44.12593" lon="3.2232">
        <ele>479.5</ele>
        <time>2015-12-06T10:40:56Z</time>
      </trkpt>
      <trkpt lat="44.12591" lon="3.22321">
        <ele>480</ele>
        <time>2015-12-06T10:40:58Z</time>
      </trkpt>
      <trkpt lat="44.12589" lon="3.22323">
        <ele>480</ele>
        <time>2015-12-06T10:40:58Z</time>
      </trkpt>
      <trkpt lat="44.12588" lon="3.22325">
        <ele>479.5</ele>
        <time>2015-12-06T10:40:59Z</time>
      </trkpt>
      <trkpt lat="44.12586" lon="3.22326">
        <ele>481</ele>
        <time>2015-12-06T10:41:00Z</time>
      </trkpt>
      <trkpt lat="44.12583" lon="3.22327">
        <ele>482</ele>
        <time>2015-12-06T10:41:01Z</time>
      </trkpt>
      <trkpt lat="44.12581" lon="3.22327">
        <ele>483.5</ele>
        <time>2015-12-06T10:41:02Z</time>
      </trkpt>
      <trkpt lat="44.12579" lon="3.22329">
        <ele>484</ele>
        <time>2015-12-06T10:41:03Z</time>
      </trkpt>
      <trkpt lat="44.12577" lon="3.2233">
        <ele>484</ele>
        <time>2015-12-06T10:41:04Z</time>
      </trkpt>
      <trkpt lat="44.12575" lon="3.22331">
        <ele>483.5</ele>
        <time>2015-12-06T10:41:05Z</time>
      </trkpt>
      <trkpt lat="44.12573" lon="3.22332">
        <ele>483.5</ele>
        <time>2015-12-06T10:41:06Z</time>
      </trkpt>
      <trkpt lat="44.12571" lon="3.22333">
        <ele>483.5</ele>
        <time>2015-12-06T10:41:07Z</time>
      </trkpt>
      <trkpt lat="44.12569" lon="3.22334">
        <ele>484</ele>
        <time>2015-12-06T10:41:08Z</time>
      </trkpt>
      <trkpt lat="44.12567" lon="3.22335">
        <ele>483</ele>
        <time>2015-12-06T10:41:09Z</time>
      </trkpt>
      <trkpt lat="44.12564" lon="3.22335">
        <ele>482.5</ele>
        <time>2015-12-06T10:41:10Z</time>
      </trkpt>
      <trkpt lat="44.12563" lon="3.22336">
        <ele>481.5</ele>
        <time>2015-12-06T10:41:11Z</time>
      </trkpt>
      <trkpt lat="44.12561" lon="3.22336">
        <ele>481</ele>
        <time>2015-12-06T10:41:12Z</time>
      </trkpt>
      <trkpt lat="44.12559" lon="3.22336">
        <ele>481</ele>
        <time>2015-12-06T10:41:13Z</time>
      </trkpt>
      <trkpt lat="44.12557" lon="3.22337">
        <ele>481</ele>
        <time>2015-12-06T10:41:14Z</time>
      </trkpt>
      <trkpt lat="44.12555" lon="3.22337">
        <ele>481</ele>
        <time>2015-12-06T10:41:15Z</time>
      </trkpt>
      <trkpt lat="44.12553" lon="3.22338">
        <ele>481.5</ele>
        <time>2015-12-06T10:41:16Z</time>
      </trkpt>
      <trkpt lat="44.12551" lon="3.22338">
        <ele>481.5</ele>
        <time>2015-12-06T10:41:17Z</time>
      </trkpt>
      <trkpt lat="44.12549" lon="3.2234">
        <ele>481</ele>
        <time>2015-12-06T10:41:18Z</time>
      </trkpt>
      <trkpt lat="44.12547" lon="3.22343">
        <ele>481</ele>
        <time>2015-12-06T10:41:19Z</time>
      </trkpt>
      <trkpt lat="44.12546" lon="3.22346">
        <ele>479.5</ele>
        <time>2015-12-06T10:41:20Z</time>
      </trkpt>
      <trkpt lat="44.12545" lon="3.22349">
        <ele>479</ele>
        <time>2015-12-06T10:41:21Z</time>
      </trkpt>
      <trkpt lat="44.12545" lon="3.22351">
        <ele>480.5</ele>
        <time>2015-12-06T10:41:22Z</time>
      </trkpt>
      <trkpt lat="44.12545" lon="3.22355">
        <ele>480</ele>
        <time>2015-12-06T10:41:23Z</time>
      </trkpt>
      <trkpt lat="44.12545" lon="3.22358">
        <ele>479.5</ele>
        <time>2015-12-06T10:41:24Z</time>
      </trkpt>
      <trkpt lat="44.12545" lon="3.22361">
        <ele>479</ele>
        <time>2015-12-06T10:41:25Z</time>
      </trkpt>
      <trkpt lat="44.12546" lon="3.22363">
        <ele>479</ele>
        <time>2015-12-06T10:41:26Z</time>
      </trkpt>
      <trkpt lat="44.12547" lon="3.22366">
        <ele>478.5</ele>
        <time>2015-12-06T10:41:27Z</time>
      </trkpt>
      <trkpt lat="44.12547" lon="3.22368">
        <ele>478.5</ele>
        <time>2015-12-06T10:41:28Z</time>
      </trkpt>
      <trkpt lat="44.12548" lon="3.22368">
        <ele>480.5</ele>
        <time>2015-12-06T10:41:29Z</time>
      </trkpt>
      <trkpt lat="44.12549" lon="3.2237">
        <ele>481</ele>
        <time>2015-12-06T10:41:30Z</time>
      </trkpt>
      <trkpt lat="44.1255" lon="3.22372">
        <ele>481.5</ele>
        <time>2015-12-06T10:41:31Z</time>
      </trkpt>
      <trkpt lat="44.12551" lon="3.22374">
        <ele>483</ele>
        <time>2015-12-06T10:41:32Z</time>
      </trkpt>
      <trkpt lat="44.12552" lon="3.22376">
        <ele>483.5</ele>
        <time>2015-12-06T10:41:33Z</time>
      </trkpt>
      <trkpt lat="44.12553" lon="3.22378">
        <ele>484.5</ele>
        <time>2015-12-06T10:41:34Z</time>
      </trkpt>
      <trkpt lat="44.12554" lon="3.2238">
        <ele>485.5</ele>
        <time>2015-12-06T10:41:35Z</time>
      </trkpt>
      <trkpt lat="44.12555" lon="3.22382">
        <ele>484.5</ele>
        <time>2015-12-06T10:41:36Z</time>
      </trkpt>
      <trkpt lat="44.12555" lon="3.22384">
        <ele>484.5</ele>
        <time>2015-12-06T10:41:37Z</time>
      </trkpt>
      <trkpt lat="44.12555" lon="3.22386">
        <ele>484</ele>
        <time>2015-12-06T10:41:38Z</time>
      </trkpt>
      <trkpt lat="44.12556" lon="3.22387">
        <ele>484.5</ele>
        <time>2015-12-06T10:41:39Z</time>
      </trkpt>
      <trkpt lat="44.12557" lon="3.22388">
        <ele>485.5</ele>
        <time>2015-12-06T10:41:40Z</time>
      </trkpt>
      <trkpt lat="44.12557" lon="3.22391">
        <ele>485.5</ele>
        <time>2015-12-06T10:41:41Z</time>
      </trkpt>
      <trkpt lat="44.12558" lon="3.22392">
        <ele>485.5</ele>
        <time>2015-12-06T10:41:42Z</time>
      </trkpt>
      <trkpt lat="44.12558" lon="3.22394">
        <ele>486</ele>
        <time>2015-12-06T10:41:43Z</time>
      </trkpt>
      <trkpt lat="44.12559" lon="3.22396">
        <ele>486.5</ele>
        <time>2015-12-06T10:41:44Z</time>
      </trkpt>
      <trkpt lat="44.1256" lon="3.22399">
        <ele>486.5</ele>
        <time>2015-12-06T10:41:45Z</time>
      </trkpt>
      <trkpt lat="44.1256" lon="3.22401">
        <ele>486</ele>
        <time>2015-12-06T10:41:46Z</time>
      </trkpt>
      <trkpt lat="44.1256" lon="3.22404">
        <ele>485</ele>
        <time>2015-12-06T10:41:47Z</time>
      </trkpt>
      <trkpt lat="44.12561" lon="3.22406">
        <ele>484.5</ele>
        <time>2015-12-06T10:41:48Z</time>
      </trkpt>
      <trkpt lat="44.12561" lon="3.22408">
        <ele>485.5</ele>
        <time>2015-12-06T10:41:49Z</time>
      </trkpt>
      <trkpt lat="44.12562" lon="3.2241">
        <ele>486</ele>
        <time>2015-12-06T10:41:50Z</time>
      </trkpt>
      <trkpt lat="44.12563" lon="3.22413">
        <ele>486</ele>
        <time>2015-12-06T10:41:51Z</time>
      </trkpt>
      <trkpt lat="44.12564" lon="3.22415">
        <ele>486.5</ele>
        <time>2015-12-06T10:41:52Z</time>
      </trkpt>
      <trkpt lat="44.12564" lon="3.22417">
        <ele>487</ele>
        <time>2015-12-06T10:41:53Z</time>
      </trkpt>
      <trkpt lat="44.12565" lon="3.22419">
        <ele>487.5</ele>
        <time>2015-12-06T10:41:54Z</time>
      </trkpt>
      <trkpt lat="44.12565" lon="3.22421">
        <ele>487.5</ele>
        <time>2015-12-06T10:41:55Z</time>
      </trkpt>
      <trkpt lat="44.12565" lon="3.22424">
        <ele>487.5</ele>
        <time>2015-12-06T10:41:56Z</time>
      </trkpt>
      <trkpt lat="44.12566" lon="3.22426">
        <ele>487.5</ele>
        <time>2015-12-06T10:41:57Z</time>
      </trkpt>
      <trkpt lat="44.12567" lon="3.22429">
        <ele>487.5</ele>
        <time>2015-12-06T10:41:58Z</time>
      </trkpt>
      <trkpt lat="44.12567" lon="3.22431">
        <ele>487.5</ele>
        <time>2015-12-06T10:41:59Z</time>
      </trkpt>
      <trkpt lat="44.12567" lon="3.22434">
        <ele>487.5</ele>
        <time>2015-12-06T10:42:00Z</time>
      </trkpt>
      <trkpt lat="44.12568" lon="3.22436">
        <ele>488.5</ele>
        <time>2015-12-06T10:42:01Z</time>
      </trkpt>
      <trkpt lat="44.12569" lon="3.22438">
        <ele>489.5</ele>
        <time>2015-12-06T10:42:02Z</time>
      </trkpt>
      <trkpt lat="44.12569" lon="3.22441">
        <ele>491</ele>
        <time>2015-12-06T10:42:03Z</time>
      </trkpt>
      <trkpt lat="44.1257" lon="3.22443">
        <ele>491</ele>
        <time>2015-12-06T10:42:04Z</time>
      </trkpt>
      <trkpt lat="44.1257" lon="3.22446">
        <ele>491</ele>
        <time>2015-12-06T10:42:05Z</time>
      </trkpt>
      <trkpt lat="44.1257" lon="3.22449">
        <ele>491</ele>
        <time>2015-12-06T10:42:06Z</time>
      </trkpt>
      <trkpt lat="44.1257" lon="3.22451">
        <ele>491.5</ele>
        <time>2015-12-06T10:42:07Z</time>
      </trkpt>
      <trkpt lat="44.12571" lon="3.22454">
        <ele>491.5</ele>
        <time>2015-12-06T10:42:08Z</time>
      </trkpt>
      <trkpt lat="44.12569" lon="3.22457">
        <ele>492</ele>
        <time>2015-12-06T10:42:09Z</time>
      </trkpt>
      <trkpt lat="44.12569" lon="3.22461">
        <ele>495.5</ele>
        <time>2015-12-06T10:42:11Z</time>
      </trkpt>
      <trkpt lat="44.12569" lon="3.22464">
        <ele>496</ele>
        <time>2015-12-06T10:42:12Z</time>
      </trkpt>
      <trkpt lat="44.1257" lon="3.22466">
        <ele>497.5</ele>
        <time>2015-12-06T10:42:13Z</time>
      </trkpt>
      <trkpt lat="44.12572" lon="3.22468">
        <ele>499.5</ele>
        <time>2015-12-06T10:42:14Z</time>
      </trkpt>
      <trkpt lat="44.12573" lon="3.22471">
        <ele>500.5</ele>
        <time>2015-12-06T10:42:15Z</time>
      </trkpt>
      <trkpt lat="44.12573" lon="3.22474">
        <ele>500.5</ele>
        <time>2015-12-06T10:42:16Z</time>
      </trkpt>
      <trkpt lat="44.12573" lon="3.22476">
        <ele>499.5</ele>
        <time>2015-12-06T10:42:17Z</time>
      </trkpt>
      <trkpt lat="44.12574" lon="3.2248">
        <ele>499.5</ele>
        <time>2015-12-06T10:42:18Z</time>
      </trkpt>
      <trkpt lat="44.12574" lon="3.22483">
        <ele>499</ele>
        <time>2015-12-06T10:42:19Z</time>
      </trkpt>
      <trkpt lat="44.12574" lon="3.22485">
        <ele>499.5</ele>
        <time>2015-12-06T10:42:20Z</time>
      </trkpt>
      <trkpt lat="44.12575" lon="3.22488">
        <ele>500.5</ele>
        <time>2015-12-06T10:42:21Z</time>
      </trkpt>
      <trkpt lat="44.12575" lon="3.22491">
        <ele>500</ele>
        <time>2015-12-06T10:42:22Z</time>
      </trkpt>
      <trkpt lat="44.12577" lon="3.22494">
        <ele>501</ele>
        <time>2015-12-06T10:42:23Z</time>
      </trkpt>
      <trkpt lat="44.12577" lon="3.22496">
        <ele>500</ele>
        <time>2015-12-06T10:42:24Z</time>
      </trkpt>
      <trkpt lat="44.12577" lon="3.22499">
        <ele>499.5</ele>
        <time>2015-12-06T10:42:25Z</time>
      </trkpt>
      <trkpt lat="44.12577" lon="3.22502">
        <ele>498.5</ele>
        <time>2015-12-06T10:42:26Z</time>
      </trkpt>
      <trkpt lat="44.12577" lon="3.22505">
        <ele>498.5</ele>
        <time>2015-12-06T10:42:27Z</time>
      </trkpt>
      <trkpt lat="44.12577" lon="3.22508">
        <ele>497.5</ele>
        <time>2015-12-06T10:42:28Z</time>
      </trkpt>
      <trkpt lat="44.12577" lon="3.2251">
        <ele>497.5</ele>
        <time>2015-12-06T10:42:29Z</time>
      </trkpt>
      <trkpt lat="44.12577" lon="3.22513">
        <ele>497.5</ele>
        <time>2015-12-06T10:42:30Z</time>
      </trkpt>
      <trkpt lat="44.12577" lon="3.22516">
        <ele>498</ele>
        <time>2015-12-06T10:42:31Z</time>
      </trkpt>
      <trkpt lat="44.12578" lon="3.22519">
        <ele>498</ele>
        <time>2015-12-06T10:42:32Z</time>
      </trkpt>
      <trkpt lat="44.12578" lon="3.22521">
        <ele>498</ele>
        <time>2015-12-06T10:42:33Z</time>
      </trkpt>
      <trkpt lat="44.12579" lon="3.22523">
        <ele>499</ele>
        <time>2015-12-06T10:42:34Z</time>
      </trkpt>
      <trkpt lat="44.1258" lon="3.22526">
        <ele>499.5</ele>
        <time>2015-12-06T10:42:35Z</time>
      </trkpt>
      <trkpt lat="44.1258" lon="3.22528">
        <ele>500.5</ele>
        <time>2015-12-06T10:42:36Z</time>
      </trkpt>
      <trkpt lat="44.12581" lon="3.2253">
        <ele>500.5</ele>
        <time>2015-12-06T10:42:37Z</time>
      </trkpt>
      <trkpt lat="44.12581" lon="3.22532">
        <ele>502</ele>
        <time>2015-12-06T10:42:38Z</time>
      </trkpt>
      <trkpt lat="44.12582" lon="3.22535">
        <ele>502.5</ele>
        <time>2015-12-06T10:42:39Z</time>
      </trkpt>
      <trkpt lat="44.12582" lon="3.22538">
        <ele>503</ele>
        <time>2015-12-06T10:42:40Z</time>
      </trkpt>
      <trkpt lat="44.12582" lon="3.2254">
        <ele>503.5</ele>
        <time>2015-12-06T10:42:41Z</time>
      </trkpt>
      <trkpt lat="44.12582" lon="3.22543">
        <ele>503.5</ele>
        <time>2015-12-06T10:42:42Z</time>
      </trkpt>
      <trkpt lat="44.12581" lon="3.22546">
        <ele>504</ele>
        <time>2015-12-06T10:42:43Z</time>
      </trkpt>
      <trkpt lat="44.12581" lon="3.22549">
        <ele>504</ele>
        <time>2015-12-06T10:42:44Z</time>
      </trkpt>
      <trkpt lat="44.12581" lon="3.22552">
        <ele>504.5</ele>
        <time>2015-12-06T10:42:45Z</time>
      </trkpt>
      <trkpt lat="44.1258" lon="3.22555">
        <ele>504</ele>
        <time>2015-12-06T10:42:46Z</time>
      </trkpt>
      <trkpt lat="44.1258" lon="3.22557">
        <ele>505</ele>
        <time>2015-12-06T10:42:47Z</time>
      </trkpt>
      <trkpt lat="44.1258" lon="3.2256">
        <ele>506.5</ele>
        <time>2015-12-06T10:42:48Z</time>
      </trkpt>
      <trkpt lat="44.1258" lon="3.22563">
        <ele>506.5</ele>
        <time>2015-12-06T10:42:49Z</time>
      </trkpt>
      <trkpt lat="44.12581" lon="3.22565">
        <ele>508.5</ele>
        <time>2015-12-06T10:42:50Z</time>
      </trkpt>
      <trkpt lat="44.1258" lon="3.22568">
        <ele>508</ele>
        <time>2015-12-06T10:42:51Z</time>
      </trkpt>
      <trkpt lat="44.12578" lon="3.22571">
        <ele>507.5</ele>
        <time>2015-12-06T10:42:52Z</time>
      </trkpt>
      <trkpt lat="44.12577" lon="3.22573">
        <ele>507.5</ele>
        <time>2015-12-06T10:42:53Z</time>
      </trkpt>
      <trkpt lat="44.12577" lon="3.22576">
        <ele>507.5</ele>
        <time>2015-12-06T10:42:54Z</time>
      </trkpt>
      <trkpt lat="44.12577" lon="3.22579">
        <ele>508</ele>
        <time>2015-12-06T10:42:55Z</time>
      </trkpt>
      <trkpt lat="44.12577" lon="3.22582">
        <ele>508.5</ele>
        <time>2015-12-06T10:42:56Z</time>
      </trkpt>
      <trkpt lat="44.12577" lon="3.22584">
        <ele>508</ele>
        <time>2015-12-06T10:42:57Z</time>
      </trkpt>
      <trkpt lat="44.12577" lon="3.22588">
        <ele>508</ele>
        <time>2015-12-06T10:42:58Z</time>
      </trkpt>
      <trkpt lat="44.12578" lon="3.22591">
        <ele>507.5</ele>
        <time>2015-12-06T10:42:59Z</time>
      </trkpt>
      <trkpt lat="44.12578" lon="3.22594">
        <ele>507.5</ele>
        <time>2015-12-06T10:43:00Z</time>
      </trkpt>
      <trkpt lat="44.1258" lon="3.22597">
        <ele>507</ele>
        <time>2015-12-06T10:43:01Z</time>
      </trkpt>
      <trkpt lat="44.12581" lon="3.22599">
        <ele>507</ele>
        <time>2015-12-06T10:43:02Z</time>
      </trkpt>
      <trkpt lat="44.12583" lon="3.22601">
        <ele>506.5</ele>
        <time>2015-12-06T10:43:03Z</time>
      </trkpt>
      <trkpt lat="44.12585" lon="3.22603">
        <ele>505.5</ele>
        <time>2015-12-06T10:43:04Z</time>
      </trkpt>
      <trkpt lat="44.12586" lon="3.22605">
        <ele>505</ele>
        <time>2015-12-06T10:43:05Z</time>
      </trkpt>
      <trkpt lat="44.12588" lon="3.22606">
        <ele>504</ele>
        <time>2015-12-06T10:43:06Z</time>
      </trkpt>
      <trkpt lat="44.1259" lon="3.22607">
        <ele>503.5</ele>
        <time>2015-12-06T10:43:07Z</time>
      </trkpt>
      <trkpt lat="44.12591" lon="3.22606">
        <ele>503</ele>
        <time>2015-12-06T10:43:08Z</time>
      </trkpt>
      <trkpt lat="44.12593" lon="3.22605">
        <ele>502.5</ele>
        <time>2015-12-06T10:43:09Z</time>
      </trkpt>
      <trkpt lat="44.12595" lon="3.22604">
        <ele>502</ele>
        <time>2015-12-06T10:43:10Z</time>
      </trkpt>
      <trkpt lat="44.12596" lon="3.22602">
        <ele>502</ele>
        <time>2015-12-06T10:43:11Z</time>
      </trkpt>
      <trkpt lat="44.12597" lon="3.22599">
        <ele>501.5</ele>
        <time>2015-12-06T10:43:12Z</time>
      </trkpt>
      <trkpt lat="44.12598" lon="3.22597">
        <ele>501.5</ele>
        <time>2015-12-06T10:43:13Z</time>
      </trkpt>
      <trkpt lat="44.12598" lon="3.22595">
        <ele>501.5</ele>
        <time>2015-12-06T10:43:14Z</time>
      </trkpt>
      <trkpt lat="44.12598" lon="3.22593">
        <ele>502</ele>
        <time>2015-12-06T10:43:15Z</time>
      </trkpt>
      <trkpt lat="44.12599" lon="3.2259">
        <ele>503</ele>
        <time>2015-12-06T10:43:16Z</time>
      </trkpt>
      <trkpt lat="44.12599" lon="3.22586">
        <ele>503</ele>
        <time>2015-12-06T10:43:17Z</time>
      </trkpt>
      <trkpt lat="44.126" lon="3.22584">
        <ele>503</ele>
        <time>2015-12-06T10:43:18Z</time>
      </trkpt>
      <trkpt lat="44.12602" lon="3.22581">
        <ele>502.5</ele>
        <time>2015-12-06T10:43:19Z</time>
      </trkpt>
      <trkpt lat="44.126" lon="3.22573">
        <ele>503</ele>
        <time>2015-12-06T10:43:21Z</time>
      </trkpt>
      <trkpt lat="44.126" lon="3.22569">
        <ele>503</ele>
        <time>2015-12-06T10:43:22Z</time>
      </trkpt>
      <trkpt lat="44.12599" lon="3.22565">
        <ele>503</ele>
        <time>2015-12-06T10:43:23Z</time>
      </trkpt>
      <trkpt lat="44.12599" lon="3.22562">
        <ele>502.5</ele>
        <time>2015-12-06T10:43:24Z</time>
      </trkpt>
      <trkpt lat="44.12598" lon="3.22561">
        <ele>502.5</ele>
        <time>2015-12-06T10:43:25Z</time>
      </trkpt>
      <trkpt lat="44.12596" lon="3.22559">
        <ele>503</ele>
        <time>2015-12-06T10:43:26Z</time>
      </trkpt>
      <trkpt lat="44.12596" lon="3.22556">
        <ele>503.5</ele>
        <time>2015-12-06T10:43:27Z</time>
      </trkpt>
      <trkpt lat="44.12595" lon="3.22553">
        <ele>505</ele>
        <time>2015-12-06T10:43:28Z</time>
      </trkpt>
      <trkpt lat="44.12595" lon="3.2255">
        <ele>504.5</ele>
        <time>2015-12-06T10:43:29Z</time>
      </trkpt>
      <trkpt lat="44.12595" lon="3.22547">
        <ele>505</ele>
        <time>2015-12-06T10:43:30Z</time>
      </trkpt>
      <trkpt lat="44.12595" lon="3.22545">
        <ele>505</ele>
        <time>2015-12-06T10:43:31Z</time>
      </trkpt>
      <trkpt lat="44.12595" lon="3.22543">
        <ele>504.5</ele>
        <time>2015-12-06T10:43:32Z</time>
      </trkpt>
      <trkpt lat="44.12595" lon="3.2254">
        <ele>504</ele>
        <time>2015-12-06T10:43:33Z</time>
      </trkpt>
      <trkpt lat="44.12596" lon="3.22537">
        <ele>503</ele>
        <time>2015-12-06T10:43:34Z</time>
      </trkpt>
      <trkpt lat="44.12596" lon="3.22535">
        <ele>502.5</ele>
        <time>2015-12-06T10:43:35Z</time>
      </trkpt>
      <trkpt lat="44.12596" lon="3.22532">
        <ele>503</ele>
        <time>2015-12-06T10:43:36Z</time>
      </trkpt>
      <trkpt lat="44.12596" lon="3.22529">
        <ele>503</ele>
        <time>2015-12-06T10:43:37Z</time>
      </trkpt>
      <trkpt lat="44.12597" lon="3.22527">
        <ele>501.5</ele>
        <time>2015-12-06T10:43:38Z</time>
      </trkpt>
      <trkpt lat="44.12598" lon="3.22525">
        <ele>501</ele>
        <time>2015-12-06T10:43:39Z</time>
      </trkpt>
      <trkpt lat="44.12598" lon="3.22522">
        <ele>500</ele>
        <time>2015-12-06T10:43:40Z</time>
      </trkpt>
      <trkpt lat="44.12599" lon="3.2252">
        <ele>499.5</ele>
        <time>2015-12-06T10:43:41Z</time>
      </trkpt>
      <trkpt lat="44.12599" lon="3.22518">
        <ele>499</ele>
        <time>2015-12-06T10:43:42Z</time>
      </trkpt>
      <trkpt lat="44.12599" lon="3.22515">
        <ele>500</ele>
        <time>2015-12-06T10:43:43Z</time>
      </trkpt>
      <trkpt lat="44.12599" lon="3.22513">
        <ele>500.5</ele>
        <time>2015-12-06T10:43:44Z</time>
      </trkpt>
      <trkpt lat="44.12598" lon="3.22512">
        <ele>500.5</ele>
        <time>2015-12-06T10:43:45Z</time>
      </trkpt>
      <trkpt lat="44.12597" lon="3.22509">
        <ele>502.5</ele>
        <time>2015-12-06T10:43:46Z</time>
      </trkpt>
      <trkpt lat="44.12597" lon="3.22507">
        <ele>502</ele>
        <time>2015-12-06T10:43:47Z</time>
      </trkpt>
      <trkpt lat="44.12597" lon="3.22505">
        <ele>503</ele>
        <time>2015-12-06T10:43:48Z</time>
      </trkpt>
      <trkpt lat="44.12597" lon="3.22502">
        <ele>503</ele>
        <time>2015-12-06T10:43:49Z</time>
      </trkpt>
      <trkpt lat="44.12598" lon="3.225">
        <ele>502.5</ele>
        <time>2015-12-06T10:43:50Z</time>
      </trkpt>
      <trkpt lat="44.12598" lon="3.22498">
        <ele>502.5</ele>
        <time>2015-12-06T10:43:51Z</time>
      </trkpt>
      <trkpt lat="44.12599" lon="3.22496">
        <ele>503</ele>
        <time>2015-12-06T10:43:52Z</time>
      </trkpt>
      <trkpt lat="44.12599" lon="3.22493">
        <ele>503</ele>
        <time>2015-12-06T10:43:53Z</time>
      </trkpt>
      <trkpt lat="44.12598" lon="3.2249">
        <ele>504</ele>
        <time>2015-12-06T10:43:54Z</time>
      </trkpt>
      <trkpt lat="44.12597" lon="3.22487">
        <ele>505.5</ele>
        <time>2015-12-06T10:43:55Z</time>
      </trkpt>
      <trkpt lat="44.12596" lon="3.22483">
        <ele>507.5</ele>
        <time>2015-12-06T10:43:56Z</time>
      </trkpt>
      <trkpt lat="44.12595" lon="3.2248">
        <ele>507.5</ele>
        <time>2015-12-06T10:43:57Z</time>
      </trkpt>
      <trkpt lat="44.12596" lon="3.22476">
        <ele>508.5</ele>
        <time>2015-12-06T10:43:58Z</time>
      </trkpt>
      <trkpt lat="44.12596" lon="3.22473">
        <ele>508.5</ele>
        <time>2015-12-06T10:43:59Z</time>
      </trkpt>
      <trkpt lat="44.12597" lon="3.22471">
        <ele>507.5</ele>
        <time>2015-12-06T10:44:00Z</time>
      </trkpt>
      <trkpt lat="44.12597" lon="3.22465">
        <ele>507.5</ele>
        <time>2015-12-06T10:44:02Z</time>
      </trkpt>
      <trkpt lat="44.12598" lon="3.22462">
        <ele>506.5</ele>
        <time>2015-12-06T10:44:02Z</time>
      </trkpt>
      <trkpt lat="44.12598" lon="3.2246">
        <ele>506.5</ele>
        <time>2015-12-06T10:44:04Z</time>
      </trkpt>
      <trkpt lat="44.12599" lon="3.22457">
        <ele>506</ele>
        <time>2015-12-06T10:44:04Z</time>
      </trkpt>
      <trkpt lat="44.126" lon="3.22455">
        <ele>504.5</ele>
        <time>2015-12-06T10:44:05Z</time>
      </trkpt>
      <trkpt lat="44.126" lon="3.22452">
        <ele>504</ele>
        <time>2015-12-06T10:44:06Z</time>
      </trkpt>
      <trkpt lat="44.12599" lon="3.2245">
        <ele>505</ele>
        <time>2015-12-06T10:44:07Z</time>
      </trkpt>
      <trkpt lat="44.12599" lon="3.22447">
        <ele>505</ele>
        <time>2015-12-06T10:44:08Z</time>
      </trkpt>
      <trkpt lat="44.12599" lon="3.22445">
        <ele>505</ele>
        <time>2015-12-06T10:44:09Z</time>
      </trkpt>
      <trkpt lat="44.126" lon="3.22442">
        <ele>505</ele>
        <time>2015-12-06T10:44:10Z</time>
      </trkpt>
      <trkpt lat="44.126" lon="3.2244">
        <ele>505.5</ele>
        <time>2015-12-06T10:44:11Z</time>
      </trkpt>
      <trkpt lat="44.126" lon="3.22438">
        <ele>505</ele>
        <time>2015-12-06T10:44:12Z</time>
      </trkpt>
      <trkpt lat="44.12599" lon="3.22435">
        <ele>506.5</ele>
        <time>2015-12-06T10:44:13Z</time>
      </trkpt>
      <trkpt lat="44.126" lon="3.22432">
        <ele>505.5</ele>
        <time>2015-12-06T10:44:14Z</time>
      </trkpt>
      <trkpt lat="44.126" lon="3.2243">
        <ele>506</ele>
        <time>2015-12-06T10:44:15Z</time>
      </trkpt>
      <trkpt lat="44.126" lon="3.22427">
        <ele>506.5</ele>
        <time>2015-12-06T10:44:16Z</time>
      </trkpt>
      <trkpt lat="44.126" lon="3.22425">
        <ele>506.5</ele>
        <time>2015-12-06T10:44:18Z</time>
      </trkpt>
      <trkpt lat="44.126" lon="3.22422">
        <ele>507.5</ele>
        <time>2015-12-06T10:44:18Z</time>
      </trkpt>
      <trkpt lat="44.126" lon="3.2242">
        <ele>507.5</ele>
        <time>2015-12-06T10:44:20Z</time>
      </trkpt>
      <trkpt lat="44.12599" lon="3.22417">
        <ele>509.5</ele>
        <time>2015-12-06T10:44:20Z</time>
      </trkpt>
      <trkpt lat="44.12598" lon="3.22414">
        <ele>511.5</ele>
        <time>2015-12-06T10:44:21Z</time>
      </trkpt>
      <trkpt lat="44.12598" lon="3.22412">
        <ele>513</ele>
        <time>2015-12-06T10:44:22Z</time>
      </trkpt>
      <trkpt lat="44.12597" lon="3.22409">
        <ele>515.5</ele>
        <time>2015-12-06T10:44:23Z</time>
      </trkpt>
      <trkpt lat="44.12597" lon="3.22407">
        <ele>516.5</ele>
        <time>2015-12-06T10:44:24Z</time>
      </trkpt>
      <trkpt lat="44.12598" lon="3.22404">
        <ele>516.5</ele>
        <time>2015-12-06T10:44:25Z</time>
      </trkpt>
      <trkpt lat="44.12599" lon="3.22402">
        <ele>515.5</ele>
        <time>2015-12-06T10:44:26Z</time>
      </trkpt>
      <trkpt lat="44.12601" lon="3.224">
        <ele>515.5</ele>
        <time>2015-12-06T10:44:27Z</time>
      </trkpt>
      <trkpt lat="44.12602" lon="3.22398">
        <ele>516</ele>
        <time>2015-12-06T10:44:28Z</time>
      </trkpt>
      <trkpt lat="44.12604" lon="3.22396">
        <ele>516</ele>
        <time>2015-12-06T10:44:29Z</time>
      </trkpt>
      <trkpt lat="44.12606" lon="3.22395">
        <ele>516</ele>
        <time>2015-12-06T10:44:30Z</time>
      </trkpt>
      <trkpt lat="44.12609" lon="3.22393">
        <ele>515.5</ele>
        <time>2015-12-06T10:44:31Z</time>
      </trkpt>
      <trkpt lat="44.12611" lon="3.22392">
        <ele>514.5</ele>
        <time>2015-12-06T10:44:32Z</time>
      </trkpt>
      <trkpt lat="44.12614" lon="3.2239">
        <ele>514</ele>
        <time>2015-12-06T10:44:33Z</time>
      </trkpt>
      <trkpt lat="44.12617" lon="3.22389">
        <ele>513</ele>
        <time>2015-12-06T10:44:34Z</time>
      </trkpt>
      <trkpt lat="44.12619" lon="3.22388">
        <ele>512</ele>
        <time>2015-12-06T10:44:35Z</time>
      </trkpt>
      <trkpt lat="44.12621" lon="3.22386">
        <ele>512.5</ele>
        <time>2015-12-06T10:44:36Z</time>
      </trkpt>
      <trkpt lat="44.12622" lon="3.22385">
        <ele>512.5</ele>
        <time>2015-12-06T10:44:37Z</time>
      </trkpt>
      <trkpt lat="44.12624" lon="3.22383">
        <ele>512.5</ele>
        <time>2015-12-06T10:44:38Z</time>
      </trkpt>
      <trkpt lat="44.12626" lon="3.22382">
        <ele>513</ele>
        <time>2015-12-06T10:44:39Z</time>
      </trkpt>
      <trkpt lat="44.12627" lon="3.2238">
        <ele>513</ele>
        <time>2015-12-06T10:44:40Z</time>
      </trkpt>
      <trkpt lat="44.12629" lon="3.22379">
        <ele>513</ele>
        <time>2015-12-06T10:44:41Z</time>
      </trkpt>
      <trkpt lat="44.12631" lon="3.22378">
        <ele>512.5</ele>
        <time>2015-12-06T10:44:42Z</time>
      </trkpt>
      <trkpt lat="44.12633" lon="3.22377">
        <ele>513</ele>
        <time>2015-12-06T10:44:43Z</time>
      </trkpt>
      <trkpt lat="44.12634" lon="3.22374">
        <ele>513</ele>
        <time>2015-12-06T10:44:44Z</time>
      </trkpt>
      <trkpt lat="44.12636" lon="3.22373">
        <ele>513</ele>
        <time>2015-12-06T10:44:45Z</time>
      </trkpt>
      <trkpt lat="44.12638" lon="3.22372">
        <ele>513</ele>
        <time>2015-12-06T10:44:46Z</time>
      </trkpt>
      <trkpt lat="44.1264" lon="3.22372">
        <ele>513</ele>
        <time>2015-12-06T10:44:47Z</time>
      </trkpt>
      <trkpt lat="44.12642" lon="3.2237">
        <ele>513</ele>
        <time>2015-12-06T10:44:48Z</time>
      </trkpt>
      <trkpt lat="44.12643" lon="3.22368">
        <ele>513.5</ele>
        <time>2015-12-06T10:44:50Z</time>
      </trkpt>
      <trkpt lat="44.12645" lon="3.22367">
        <ele>513.5</ele>
        <time>2015-12-06T10:44:50Z</time>
      </trkpt>
      <trkpt lat="44.12646" lon="3.22366">
        <ele>514</ele>
        <time>2015-12-06T10:44:51Z</time>
      </trkpt>
      <trkpt lat="44.12648" lon="3.22364">
        <ele>514.5</ele>
        <time>2015-12-06T10:44:52Z</time>
      </trkpt>
      <trkpt lat="44.12649" lon="3.22362">
        <ele>514.5</ele>
        <time>2015-12-06T10:44:53Z</time>
      </trkpt>
      <trkpt lat="44.12651" lon="3.2236">
        <ele>515</ele>
        <time>2015-12-06T10:44:54Z</time>
      </trkpt>
      <trkpt lat="44.12652" lon="3.22359">
        <ele>515</ele>
        <time>2015-12-06T10:44:55Z</time>
      </trkpt>
      <trkpt lat="44.12654" lon="3.22358">
        <ele>515</ele>
        <time>2015-12-06T10:44:56Z</time>
      </trkpt>
      <trkpt lat="44.12656" lon="3.22357">
        <ele>515.5</ele>
        <time>2015-12-06T10:44:57Z</time>
      </trkpt>
      <trkpt lat="44.12658" lon="3.22357">
        <ele>516</ele>
        <time>2015-12-06T10:44:58Z</time>
      </trkpt>
      <trkpt lat="44.12659" lon="3.22355">
        <ele>516.5</ele>
        <time>2015-12-06T10:44:59Z</time>
      </trkpt>
      <trkpt lat="44.12661" lon="3.22354">
        <ele>516.5</ele>
        <time>2015-12-06T10:45:00Z</time>
      </trkpt>
      <trkpt lat="44.12663" lon="3.22353">
        <ele>516.5</ele>
        <time>2015-12-06T10:45:01Z</time>
      </trkpt>
      <trkpt lat="44.12664" lon="3.22352">
        <ele>516.5</ele>
        <time>2015-12-06T10:45:02Z</time>
      </trkpt>
      <trkpt lat="44.12666" lon="3.22351">
        <ele>517</ele>
        <time>2015-12-06T10:45:03Z</time>
      </trkpt>
      <trkpt lat="44.12668" lon="3.2235">
        <ele>517</ele>
        <time>2015-12-06T10:45:04Z</time>
      </trkpt>
      <trkpt lat="44.12669" lon="3.22348">
        <ele>517</ele>
        <time>2015-12-06T10:45:05Z</time>
      </trkpt>
      <trkpt lat="44.12671" lon="3.22346">
        <ele>517</ele>
        <time>2015-12-06T10:45:07Z</time>
      </trkpt>
      <trkpt lat="44.12673" lon="3.22345">
        <ele>517.5</ele>
        <time>2015-12-06T10:45:07Z</time>
      </trkpt>
      <trkpt lat="44.12674" lon="3.22345">
        <ele>517.5</ele>
        <time>2015-12-06T10:45:08Z</time>
      </trkpt>
      <trkpt lat="44.12676" lon="3.22344">
        <ele>517.5</ele>
        <time>2015-12-06T10:45:09Z</time>
      </trkpt>
      <trkpt lat="44.12678" lon="3.22342">
        <ele>518</ele>
        <time>2015-12-06T10:45:10Z</time>
      </trkpt>
      <trkpt lat="44.1268" lon="3.22341">
        <ele>518</ele>
        <time>2015-12-06T10:45:11Z</time>
      </trkpt>
      <trkpt lat="44.12682" lon="3.2234">
        <ele>518</ele>
        <time>2015-12-06T10:45:12Z</time>
      </trkpt>
      <trkpt lat="44.12684" lon="3.22339">
        <ele>518</ele>
        <time>2015-12-06T10:45:13Z</time>
      </trkpt>
      <trkpt lat="44.12685" lon="3.22338">
        <ele>518</ele>
        <time>2015-12-06T10:45:14Z</time>
      </trkpt>
      <trkpt lat="44.12687" lon="3.22337">
        <ele>518.5</ele>
        <time>2015-12-06T10:45:15Z</time>
      </trkpt>
      <trkpt lat="44.12689" lon="3.22336">
        <ele>519</ele>
        <time>2015-12-06T10:45:16Z</time>
      </trkpt>
      <trkpt lat="44.1269" lon="3.22335">
        <ele>519</ele>
        <time>2015-12-06T10:45:17Z</time>
      </trkpt>
      <trkpt lat="44.12692" lon="3.22334">
        <ele>519.5</ele>
        <time>2015-12-06T10:45:18Z</time>
      </trkpt>
      <trkpt lat="44.12694" lon="3.22333">
        <ele>519.5</ele>
        <time>2015-12-06T10:45:19Z</time>
      </trkpt>
      <trkpt lat="44.12695" lon="3.22331">
        <ele>519.5</ele>
        <time>2015-12-06T10:45:20Z</time>
      </trkpt>
      <trkpt lat="44.12697" lon="3.2233">
        <ele>520</ele>
        <time>2015-12-06T10:45:21Z</time>
      </trkpt>
      <trkpt lat="44.12698" lon="3.2233">
        <ele>520.5</ele>
        <time>2015-12-06T10:45:22Z</time>
      </trkpt>
      <trkpt lat="44.12699" lon="3.22329">
        <ele>521</ele>
        <time>2015-12-06T10:45:23Z</time>
      </trkpt>
      <trkpt lat="44.127" lon="3.22328">
        <ele>521</ele>
        <time>2015-12-06T10:45:24Z</time>
      </trkpt>
      <trkpt lat="44.12701" lon="3.22326">
        <ele>521.5</ele>
        <time>2015-12-06T10:45:25Z</time>
      </trkpt>
      <trkpt lat="44.12702" lon="3.22326">
        <ele>521.5</ele>
        <time>2015-12-06T10:45:26Z</time>
      </trkpt>
      <trkpt lat="44.12704" lon="3.22325">
        <ele>521.5</ele>
        <time>2015-12-06T10:45:27Z</time>
      </trkpt>
      <trkpt lat="44.12705" lon="3.22325">
        <ele>522</ele>
        <time>2015-12-06T10:45:28Z</time>
      </trkpt>
      <trkpt lat="44.12706" lon="3.22324">
        <ele>522</ele>
        <time>2015-12-06T10:45:29Z</time>
      </trkpt>
      <trkpt lat="44.12707" lon="3.22323">
        <ele>522.5</ele>
        <time>2015-12-06T10:45:30Z</time>
      </trkpt>
      <trkpt lat="44.12708" lon="3.22322">
        <ele>523</ele>
        <time>2015-12-06T10:45:31Z</time>
      </trkpt>
      <trkpt lat="44.1271" lon="3.22321">
        <ele>523</ele>
        <time>2015-12-06T10:45:32Z</time>
      </trkpt>
      <trkpt lat="44.12711" lon="3.2232">
        <ele>523</ele>
        <time>2015-12-06T10:45:33Z</time>
      </trkpt>
      <trkpt lat="44.12713" lon="3.22319">
        <ele>523.5</ele>
        <time>2015-12-06T10:45:34Z</time>
      </trkpt>
      <trkpt lat="44.12714" lon="3.22318">
        <ele>523</ele>
        <time>2015-12-06T10:45:35Z</time>
      </trkpt>
      <trkpt lat="44.12715" lon="3.22317">
        <ele>523.5</ele>
        <time>2015-12-06T10:45:36Z</time>
      </trkpt>
      <trkpt lat="44.12717" lon="3.22316">
        <ele>523.5</ele>
        <time>2015-12-06T10:45:37Z</time>
      </trkpt>
      <trkpt lat="44.12718" lon="3.22315">
        <ele>523.5</ele>
        <time>2015-12-06T10:45:38Z</time>
      </trkpt>
      <trkpt lat="44.1272" lon="3.22315">
        <ele>524</ele>
        <time>2015-12-06T10:45:39Z</time>
      </trkpt>
      <trkpt lat="44.12721" lon="3.22314">
        <ele>524</ele>
        <time>2015-12-06T10:45:40Z</time>
      </trkpt>
      <trkpt lat="44.12722" lon="3.22313">
        <ele>524</ele>
        <time>2015-12-06T10:45:41Z</time>
      </trkpt>
      <trkpt lat="44.12723" lon="3.22311">
        <ele>524</ele>
        <time>2015-12-06T10:45:42Z</time>
      </trkpt>
      <trkpt lat="44.12725" lon="3.22311">
        <ele>524</ele>
        <time>2015-12-06T10:45:43Z</time>
      </trkpt>
      <trkpt lat="44.12726" lon="3.2231">
        <ele>524</ele>
        <time>2015-12-06T10:45:44Z</time>
      </trkpt>
      <trkpt lat="44.12727" lon="3.22309">
        <ele>524</ele>
        <time>2015-12-06T10:45:45Z</time>
      </trkpt>
      <trkpt lat="44.12728" lon="3.22308">
        <ele>524</ele>
        <time>2015-12-06T10:45:46Z</time>
      </trkpt>
      <trkpt lat="44.1273" lon="3.22307">
        <ele>524.5</ele>
        <time>2015-12-06T10:45:47Z</time>
      </trkpt>
      <trkpt lat="44.12731" lon="3.22306">
        <ele>524.5</ele>
        <time>2015-12-06T10:45:48Z</time>
      </trkpt>
      <trkpt lat="44.12732" lon="3.22305">
        <ele>524.5</ele>
        <time>2015-12-06T10:45:49Z</time>
      </trkpt>
      <trkpt lat="44.12733" lon="3.22303">
        <ele>524.5</ele>
        <time>2015-12-06T10:45:50Z</time>
      </trkpt>
      <trkpt lat="44.12735" lon="3.22302">
        <ele>524.5</ele>
        <time>2015-12-06T10:45:51Z</time>
      </trkpt>
      <trkpt lat="44.12736" lon="3.22301">
        <ele>525</ele>
        <time>2015-12-06T10:45:52Z</time>
      </trkpt>
      <trkpt lat="44.12737" lon="3.223">
        <ele>525</ele>
        <time>2015-12-06T10:45:53Z</time>
      </trkpt>
      <trkpt lat="44.12738" lon="3.22299">
        <ele>525</ele>
        <time>2015-12-06T10:45:54Z</time>
      </trkpt>
      <trkpt lat="44.1274" lon="3.22298">
        <ele>525</ele>
        <time>2015-12-06T10:45:55Z</time>
      </trkpt>
      <trkpt lat="44.12741" lon="3.22297">
        <ele>525</ele>
        <time>2015-12-06T10:45:56Z</time>
      </trkpt>
      <trkpt lat="44.12742" lon="3.22295">
        <ele>525.5</ele>
        <time>2015-12-06T10:45:57Z</time>
      </trkpt>
      <trkpt lat="44.12743" lon="3.22294">
        <ele>525.5</ele>
        <time>2015-12-06T10:45:58Z</time>
      </trkpt>
      <trkpt lat="44.12745" lon="3.22293">
        <ele>525.5</ele>
        <time>2015-12-06T10:45:59Z</time>
      </trkpt>
      <trkpt lat="44.12746" lon="3.22291">
        <ele>525.5</ele>
        <time>2015-12-06T10:46:00Z</time>
      </trkpt>
      <trkpt lat="44.12747" lon="3.2229">
        <ele>525.5</ele>
        <time>2015-12-06T10:46:01Z</time>
      </trkpt>
      <trkpt lat="44.12748" lon="3.22288">
        <ele>525.5</ele>
        <time>2015-12-06T10:46:02Z</time>
      </trkpt>
      <trkpt lat="44.12749" lon="3.22287">
        <ele>526</ele>
        <time>2015-12-06T10:46:03Z</time>
      </trkpt>
      <trkpt lat="44.12751" lon="3.22285">
        <ele>526</ele>
        <time>2015-12-06T10:46:04Z</time>
      </trkpt>
      <trkpt lat="44.12752" lon="3.22283">
        <ele>526</ele>
        <time>2015-12-06T10:46:05Z</time>
      </trkpt>
      <trkpt lat="44.12753" lon="3.22282">
        <ele>526</ele>
        <time>2015-12-06T10:46:06Z</time>
      </trkpt>
      <trkpt lat="44.12754" lon="3.2228">
        <ele>526</ele>
        <time>2015-12-06T10:46:07Z</time>
      </trkpt>
      <trkpt lat="44.12756" lon="3.22279">
        <ele>526</ele>
        <time>2015-12-06T10:46:08Z</time>
      </trkpt>
      <trkpt lat="44.12757" lon="3.22277">
        <ele>526</ele>
        <time>2015-12-06T10:46:09Z</time>
      </trkpt>
      <trkpt lat="44.12758" lon="3.22276">
        <ele>526</ele>
        <time>2015-12-06T10:46:10Z</time>
      </trkpt>
      <trkpt lat="44.12759" lon="3.22274">
        <ele>526.5</ele>
        <time>2015-12-06T10:46:11Z</time>
      </trkpt>
      <trkpt lat="44.1276" lon="3.22273">
        <ele>526.5</ele>
        <time>2015-12-06T10:46:12Z</time>
      </trkpt>
      <trkpt lat="44.12762" lon="3.22271">
        <ele>527</ele>
        <time>2015-12-06T10:46:13Z</time>
      </trkpt>
      <trkpt lat="44.12763" lon="3.2227">
        <ele>527</ele>
        <time>2015-12-06T10:46:14Z</time>
      </trkpt>
      <trkpt lat="44.12764" lon="3.22269">
        <ele>527</ele>
        <time>2015-12-06T10:46:15Z</time>
      </trkpt>
      <trkpt lat="44.12765" lon="3.22267">
        <ele>527</ele>
        <time>2015-12-06T10:46:16Z</time>
      </trkpt>
      <trkpt lat="44.12767" lon="3.22266">
        <ele>527.5</ele>
        <time>2015-12-06T10:46:17Z</time>
      </trkpt>
      <trkpt lat="44.12768" lon="3.22264">
        <ele>528</ele>
        <time>2015-12-06T10:46:18Z</time>
      </trkpt>
      <trkpt lat="44.12769" lon="3.22263">
        <ele>528</ele>
        <time>2015-12-06T10:46:19Z</time>
      </trkpt>
      <trkpt lat="44.1277" lon="3.22261">
        <ele>528.5</ele>
        <time>2015-12-06T10:46:20Z</time>
      </trkpt>
      <trkpt lat="44.12771" lon="3.22259">
        <ele>529</ele>
        <time>2015-12-06T10:46:21Z</time>
      </trkpt>
      <trkpt lat="44.12772" lon="3.22258">
        <ele>529.5</ele>
        <time>2015-12-06T10:46:22Z</time>
      </trkpt>
      <trkpt lat="44.12773" lon="3.22256">
        <ele>529.5</ele>
        <time>2015-12-06T10:46:23Z</time>
      </trkpt>
      <trkpt lat="44.12775" lon="3.22255">
        <ele>529.5</ele>
        <time>2015-12-06T10:46:24Z</time>
      </trkpt>
      <trkpt lat="44.12776" lon="3.22253">
        <ele>529.5</ele>
        <time>2015-12-06T10:46:25Z</time>
      </trkpt>
      <trkpt lat="44.12777" lon="3.22252">
        <ele>529.5</ele>
        <time>2015-12-06T10:46:26Z</time>
      </trkpt>
      <trkpt lat="44.12778" lon="3.2225">
        <ele>529.5</ele>
        <time>2015-12-06T10:46:27Z</time>
      </trkpt>
      <trkpt lat="44.12778" lon="3.22248">
        <ele>529.5</ele>
        <time>2015-12-06T10:46:28Z</time>
      </trkpt>
      <trkpt lat="44.12779" lon="3.22246">
        <ele>529</ele>
        <time>2015-12-06T10:46:29Z</time>
      </trkpt>
      <trkpt lat="44.12779" lon="3.22244">
        <ele>530</ele>
        <time>2015-12-06T10:46:30Z</time>
      </trkpt>
      <trkpt lat="44.1278" lon="3.22242">
        <ele>531</ele>
        <time>2015-12-06T10:46:31Z</time>
      </trkpt>
      <trkpt lat="44.12781" lon="3.2224">
        <ele>531</ele>
        <time>2015-12-06T10:46:32Z</time>
      </trkpt>
      <trkpt lat="44.12782" lon="3.22239">
        <ele>531.5</ele>
        <time>2015-12-06T10:46:33Z</time>
      </trkpt>
      <trkpt lat="44.12782" lon="3.22237">
        <ele>531.5</ele>
        <time>2015-12-06T10:46:34Z</time>
      </trkpt>
      <trkpt lat="44.12783" lon="3.22235">
        <ele>531</ele>
        <time>2015-12-06T10:46:35Z</time>
      </trkpt>
      <trkpt lat="44.12785" lon="3.22233">
        <ele>531</ele>
        <time>2015-12-06T10:46:36Z</time>
      </trkpt>
      <trkpt lat="44.12786" lon="3.22232">
        <ele>530.5</ele>
        <time>2015-12-06T10:46:37Z</time>
      </trkpt>
      <trkpt lat="44.12787" lon="3.2223">
        <ele>529.5</ele>
        <time>2015-12-06T10:46:38Z</time>
      </trkpt>
      <trkpt lat="44.12789" lon="3.22228">
        <ele>529.5</ele>
        <time>2015-12-06T10:46:39Z</time>
      </trkpt>
      <trkpt lat="44.1279" lon="3.22226">
        <ele>527.5</ele>
        <time>2015-12-06T10:46:40Z</time>
      </trkpt>
      <trkpt lat="44.12792" lon="3.22225">
        <ele>526.5</ele>
        <time>2015-12-06T10:46:41Z</time>
      </trkpt>
      <trkpt lat="44.12794" lon="3.22223">
        <ele>525.5</ele>
        <time>2015-12-06T10:46:42Z</time>
      </trkpt>
      <trkpt lat="44.12795" lon="3.22221">
        <ele>525</ele>
        <time>2015-12-06T10:46:43Z</time>
      </trkpt>
      <trkpt lat="44.12797" lon="3.2222">
        <ele>524.5</ele>
        <time>2015-12-06T10:46:44Z</time>
      </trkpt>
      <trkpt lat="44.12799" lon="3.22219">
        <ele>524</ele>
        <time>2015-12-06T10:46:45Z</time>
      </trkpt>
      <trkpt lat="44.128" lon="3.22217">
        <ele>524</ele>
        <time>2015-12-06T10:46:46Z</time>
      </trkpt>
      <trkpt lat="44.12801" lon="3.22215">
        <ele>524</ele>
        <time>2015-12-06T10:46:47Z</time>
      </trkpt>
      <trkpt lat="44.12801" lon="3.22213">
        <ele>524</ele>
        <time>2015-12-06T10:46:48Z</time>
      </trkpt>
      <trkpt lat="44.12802" lon="3.22212">
        <ele>524.5</ele>
        <time>2015-12-06T10:46:49Z</time>
      </trkpt>
      <trkpt lat="44.12804" lon="3.22211">
        <ele>524.5</ele>
        <time>2015-12-06T10:46:50Z</time>
      </trkpt>
      <trkpt lat="44.12806" lon="3.22211">
        <ele>524.5</ele>
        <time>2015-12-06T10:46:51Z</time>
      </trkpt>
      <trkpt lat="44.12808" lon="3.22211">
        <ele>524.5</ele>
        <time>2015-12-06T10:46:52Z</time>
      </trkpt>
      <trkpt lat="44.1281" lon="3.22211">
        <ele>524.5</ele>
        <time>2015-12-06T10:46:53Z</time>
      </trkpt>
      <trkpt lat="44.12811" lon="3.2221">
        <ele>524.5</ele>
        <time>2015-12-06T10:46:54Z</time>
      </trkpt>
      <trkpt lat="44.12813" lon="3.22209">
        <ele>524.5</ele>
        <time>2015-12-06T10:46:55Z</time>
      </trkpt>
      <trkpt lat="44.12815" lon="3.22209">
        <ele>525</ele>
        <time>2015-12-06T10:46:56Z</time>
      </trkpt>
      <trkpt lat="44.12817" lon="3.22209">
        <ele>525</ele>
        <time>2015-12-06T10:46:57Z</time>
      </trkpt>
      <trkpt lat="44.12818" lon="3.22209">
        <ele>525</ele>
        <time>2015-12-06T10:46:58Z</time>
      </trkpt>
      <trkpt lat="44.1282" lon="3.22208">
        <ele>525.5</ele>
        <time>2015-12-06T10:46:59Z</time>
      </trkpt>
      <trkpt lat="44.12822" lon="3.22208">
        <ele>525.5</ele>
        <time>2015-12-06T10:47:00Z</time>
      </trkpt>
      <trkpt lat="44.12823" lon="3.22208">
        <ele>526</ele>
        <time>2015-12-06T10:47:01Z</time>
      </trkpt>
      <trkpt lat="44.12825" lon="3.22209">
        <ele>526.5</ele>
        <time>2015-12-06T10:47:02Z</time>
      </trkpt>
      <trkpt lat="44.12826" lon="3.22208">
        <ele>526.5</ele>
        <time>2015-12-06T10:47:03Z</time>
      </trkpt>
      <trkpt lat="44.12828" lon="3.22208">
        <ele>527</ele>
        <time>2015-12-06T10:47:04Z</time>
      </trkpt>
      <trkpt lat="44.12829" lon="3.22207">
        <ele>527</ele>
        <time>2015-12-06T10:47:05Z</time>
      </trkpt>
      <trkpt lat="44.12831" lon="3.22207">
        <ele>527</ele>
        <time>2015-12-06T10:47:06Z</time>
      </trkpt>
      <trkpt lat="44.12833" lon="3.22208">
        <ele>527</ele>
        <time>2015-12-06T10:47:07Z</time>
      </trkpt>
      <trkpt lat="44.12834" lon="3.22208">
        <ele>527</ele>
        <time>2015-12-06T10:47:08Z</time>
      </trkpt>
      <trkpt lat="44.12836" lon="3.22208">
        <ele>527</ele>
        <time>2015-12-06T10:47:09Z</time>
      </trkpt>
      <trkpt lat="44.12837" lon="3.22208">
        <ele>527.5</ele>
        <time>2015-12-06T10:47:10Z</time>
      </trkpt>
      <trkpt lat="44.12839" lon="3.22209">
        <ele>527.5</ele>
        <time>2015-12-06T10:47:11Z</time>
      </trkpt>
      <trkpt lat="44.12841" lon="3.22211">
        <ele>528</ele>
        <time>2015-12-06T10:47:12Z</time>
      </trkpt>
      <trkpt lat="44.12843" lon="3.22211">
        <ele>528</ele>
        <time>2015-12-06T10:47:13Z</time>
      </trkpt>
      <trkpt lat="44.12844" lon="3.22211">
        <ele>528</ele>
        <time>2015-12-06T10:47:14Z</time>
      </trkpt>
      <trkpt lat="44.12845" lon="3.2221">
        <ele>528</ele>
        <time>2015-12-06T10:47:15Z</time>
      </trkpt>
      <trkpt lat="44.12847" lon="3.22211">
        <ele>528</ele>
        <time>2015-12-06T10:47:16Z</time>
      </trkpt>
      <trkpt lat="44.12849" lon="3.22211">
        <ele>528.5</ele>
        <time>2015-12-06T10:47:17Z</time>
      </trkpt>
      <trkpt lat="44.1285" lon="3.22211">
        <ele>528.5</ele>
        <time>2015-12-06T10:47:18Z</time>
      </trkpt>
      <trkpt lat="44.12852" lon="3.22211">
        <ele>528</ele>
        <time>2015-12-06T10:47:19Z</time>
      </trkpt>
      <trkpt lat="44.12853" lon="3.22211">
        <ele>528.5</ele>
        <time>2015-12-06T10:47:20Z</time>
      </trkpt>
      <trkpt lat="44.12855" lon="3.22211">
        <ele>528.5</ele>
        <time>2015-12-06T10:47:21Z</time>
      </trkpt>
      <trkpt lat="44.12856" lon="3.2221">
        <ele>528.5</ele>
        <time>2015-12-06T10:47:22Z</time>
      </trkpt>
      <trkpt lat="44.12858" lon="3.22208">
        <ele>528.5</ele>
        <time>2015-12-06T10:47:23Z</time>
      </trkpt>
      <trkpt lat="44.12859" lon="3.22207">
        <ele>529</ele>
        <time>2015-12-06T10:47:24Z</time>
      </trkpt>
      <trkpt lat="44.12861" lon="3.22207">
        <ele>529</ele>
        <time>2015-12-06T10:47:25Z</time>
      </trkpt>
      <trkpt lat="44.12863" lon="3.22208">
        <ele>529</ele>
        <time>2015-12-06T10:47:26Z</time>
      </trkpt>
      <trkpt lat="44.12864" lon="3.22208">
        <ele>529</ele>
        <time>2015-12-06T10:47:27Z</time>
      </trkpt>
      <trkpt lat="44.12866" lon="3.22208">
        <ele>529</ele>
        <time>2015-12-06T10:47:28Z</time>
      </trkpt>
      <trkpt lat="44.12867" lon="3.22208">
        <ele>529.5</ele>
        <time>2015-12-06T10:47:29Z</time>
      </trkpt>
      <trkpt lat="44.12869" lon="3.22209">
        <ele>530</ele>
        <time>2015-12-06T10:47:30Z</time>
      </trkpt>
      <trkpt lat="44.12871" lon="3.2221">
        <ele>530.5</ele>
        <time>2015-12-06T10:47:31Z</time>
      </trkpt>
      <trkpt lat="44.12872" lon="3.22209">
        <ele>530.5</ele>
        <time>2015-12-06T10:47:32Z</time>
      </trkpt>
      <trkpt lat="44.12873" lon="3.22209">
        <ele>531</ele>
        <time>2015-12-06T10:47:32Z</time>
      </trkpt>
      <trkpt lat="44.12875" lon="3.22209">
        <ele>531</ele>
        <time>2015-12-06T10:47:33Z</time>
      </trkpt>
      <trkpt lat="44.12877" lon="3.2221">
        <ele>531.5</ele>
        <time>2015-12-06T10:47:35Z</time>
      </trkpt>
      <trkpt lat="44.12878" lon="3.22207">
        <ele>531.5</ele>
        <time>2015-12-06T10:47:35Z</time>
      </trkpt>
      <trkpt lat="44.1288" lon="3.22208">
        <ele>531.5</ele>
        <time>2015-12-06T10:47:36Z</time>
      </trkpt>
      <trkpt lat="44.12882" lon="3.22209">
        <ele>532</ele>
        <time>2015-12-06T10:47:37Z</time>
      </trkpt>
      <trkpt lat="44.12883" lon="3.22209">
        <ele>532</ele>
        <time>2015-12-06T10:47:38Z</time>
      </trkpt>
      <trkpt lat="44.12885" lon="3.2221">
        <ele>532</ele>
        <time>2015-12-06T10:47:39Z</time>
      </trkpt>
      <trkpt lat="44.12887" lon="3.2221">
        <ele>532.5</ele>
        <time>2015-12-06T10:47:40Z</time>
      </trkpt>
      <trkpt lat="44.12888" lon="3.22211">
        <ele>532.5</ele>
        <time>2015-12-06T10:47:41Z</time>
      </trkpt>
      <trkpt lat="44.1289" lon="3.22212">
        <ele>533</ele>
        <time>2015-12-06T10:47:42Z</time>
      </trkpt>
      <trkpt lat="44.12891" lon="3.22212">
        <ele>533</ele>
        <time>2015-12-06T10:47:43Z</time>
      </trkpt>
      <trkpt lat="44.12893" lon="3.22211">
        <ele>533</ele>
        <time>2015-12-06T10:47:44Z</time>
      </trkpt>
      <trkpt lat="44.12894" lon="3.22211">
        <ele>533.5</ele>
        <time>2015-12-06T10:47:45Z</time>
      </trkpt>
      <trkpt lat="44.12895" lon="3.22212">
        <ele>533.5</ele>
        <time>2015-12-06T10:47:46Z</time>
      </trkpt>
      <trkpt lat="44.12897" lon="3.22212">
        <ele>534</ele>
        <time>2015-12-06T10:47:48Z</time>
      </trkpt>
      <trkpt lat="44.12899" lon="3.22213">
        <ele>534.5</ele>
        <time>2015-12-06T10:47:48Z</time>
      </trkpt>
      <trkpt lat="44.129" lon="3.22215">
        <ele>535</ele>
        <time>2015-12-06T10:47:49Z</time>
      </trkpt>
      <trkpt lat="44.12902" lon="3.22215">
        <ele>535.5</ele>
        <time>2015-12-06T10:47:50Z</time>
      </trkpt>
      <trkpt lat="44.12904" lon="3.22215">
        <ele>536</ele>
        <time>2015-12-06T10:47:51Z</time>
      </trkpt>
      <trkpt lat="44.12905" lon="3.22214">
        <ele>537</ele>
        <time>2015-12-06T10:47:52Z</time>
      </trkpt>
      <trkpt lat="44.12907" lon="3.22215">
        <ele>538</ele>
        <time>2015-12-06T10:47:53Z</time>
      </trkpt>
      <trkpt lat="44.12909" lon="3.22216">
        <ele>538.5</ele>
        <time>2015-12-06T10:47:54Z</time>
      </trkpt>
      <trkpt lat="44.12911" lon="3.22216">
        <ele>539</ele>
        <time>2015-12-06T10:47:55Z</time>
      </trkpt>
      <trkpt lat="44.12913" lon="3.22216">
        <ele>539.5</ele>
        <time>2015-12-06T10:47:56Z</time>
      </trkpt>
      <trkpt lat="44.12914" lon="3.22214">
        <ele>540</ele>
        <time>2015-12-06T10:47:57Z</time>
      </trkpt>
      <trkpt lat="44.12916" lon="3.22214">
        <ele>540.5</ele>
        <time>2015-12-06T10:47:58Z</time>
      </trkpt>
      <trkpt lat="44.12918" lon="3.22213">
        <ele>541</ele>
        <time>2015-12-06T10:47:59Z</time>
      </trkpt>
      <trkpt lat="44.12919" lon="3.22211">
        <ele>541</ele>
        <time>2015-12-06T10:48:00Z</time>
      </trkpt>
      <trkpt lat="44.1292" lon="3.22209">
        <ele>541.5</ele>
        <time>2015-12-06T10:48:01Z</time>
      </trkpt>
      <trkpt lat="44.12921" lon="3.22206">
        <ele>541.5</ele>
        <time>2015-12-06T10:48:02Z</time>
      </trkpt>
      <trkpt lat="44.12922" lon="3.22205">
        <ele>542</ele>
        <time>2015-12-06T10:48:04Z</time>
      </trkpt>
      <trkpt lat="44.12924" lon="3.22204">
        <ele>542</ele>
        <time>2015-12-06T10:48:04Z</time>
      </trkpt>
      <trkpt lat="44.12926" lon="3.22204">
        <ele>542.5</ele>
        <time>2015-12-06T10:48:05Z</time>
      </trkpt>
      <trkpt lat="44.12927" lon="3.22203">
        <ele>542.5</ele>
        <time>2015-12-06T10:48:06Z</time>
      </trkpt>
      <trkpt lat="44.12929" lon="3.22203">
        <ele>542.5</ele>
        <time>2015-12-06T10:48:07Z</time>
      </trkpt>
      <trkpt lat="44.1293" lon="3.22202">
        <ele>543</ele>
        <time>2015-12-06T10:48:08Z</time>
      </trkpt>
      <trkpt lat="44.12932" lon="3.22202">
        <ele>543</ele>
        <time>2015-12-06T10:48:09Z</time>
      </trkpt>
      <trkpt lat="44.12934" lon="3.22203">
        <ele>543</ele>
        <time>2015-12-06T10:48:10Z</time>
      </trkpt>
      <trkpt lat="44.12935" lon="3.22203">
        <ele>543.5</ele>
        <time>2015-12-06T10:48:11Z</time>
      </trkpt>
      <trkpt lat="44.12937" lon="3.22203">
        <ele>543.5</ele>
        <time>2015-12-06T10:48:12Z</time>
      </trkpt>
      <trkpt lat="44.12939" lon="3.22203">
        <ele>543.5</ele>
        <time>2015-12-06T10:48:13Z</time>
      </trkpt>
      <trkpt lat="44.1294" lon="3.22203">
        <ele>543.5</ele>
        <time>2015-12-06T10:48:14Z</time>
      </trkpt>
      <trkpt lat="44.12942" lon="3.22203">
        <ele>543.5</ele>
        <time>2015-12-06T10:48:15Z</time>
      </trkpt>
      <trkpt lat="44.12944" lon="3.22204">
        <ele>544</ele>
        <time>2015-12-06T10:48:16Z</time>
      </trkpt>
      <trkpt lat="44.12946" lon="3.22205">
        <ele>544</ele>
        <time>2015-12-06T10:48:17Z</time>
      </trkpt>
      <trkpt lat="44.12948" lon="3.22206">
        <ele>544.5</ele>
        <time>2015-12-06T10:48:18Z</time>
      </trkpt>
      <trkpt lat="44.1295" lon="3.22207">
        <ele>544.5</ele>
        <time>2015-12-06T10:48:19Z</time>
      </trkpt>
      <trkpt lat="44.12951" lon="3.22206">
        <ele>544.5</ele>
        <time>2015-12-06T10:48:20Z</time>
      </trkpt>
      <trkpt lat="44.12953" lon="3.22207">
        <ele>545</ele>
        <time>2015-12-06T10:48:21Z</time>
      </trkpt>
      <trkpt lat="44.12956" lon="3.22209">
        <ele>545.5</ele>
        <time>2015-12-06T10:48:22Z</time>
      </trkpt>
      <trkpt lat="44.12957" lon="3.22209">
        <ele>545.5</ele>
        <time>2015-12-06T10:48:23Z</time>
      </trkpt>
      <trkpt lat="44.12959" lon="3.22211">
        <ele>545.5</ele>
        <time>2015-12-06T10:48:24Z</time>
      </trkpt>
      <trkpt lat="44.12961" lon="3.22211">
        <ele>546</ele>
        <time>2015-12-06T10:48:25Z</time>
      </trkpt>
      <trkpt lat="44.12963" lon="3.2221">
        <ele>546</ele>
        <time>2015-12-06T10:48:26Z</time>
      </trkpt>
      <trkpt lat="44.12964" lon="3.2221">
        <ele>546</ele>
        <time>2015-12-06T10:48:27Z</time>
      </trkpt>
      <trkpt lat="44.12966" lon="3.22209">
        <ele>546.5</ele>
        <time>2015-12-06T10:48:28Z</time>
      </trkpt>
      <trkpt lat="44.12968" lon="3.22209">
        <ele>546.5</ele>
        <time>2015-12-06T10:48:29Z</time>
      </trkpt>
      <trkpt lat="44.12969" lon="3.22208">
        <ele>546.5</ele>
        <time>2015-12-06T10:48:30Z</time>
      </trkpt>
      <trkpt lat="44.12971" lon="3.22208">
        <ele>547</ele>
        <time>2015-12-06T10:48:31Z</time>
      </trkpt>
      <trkpt lat="44.12973" lon="3.22208">
        <ele>547</ele>
        <time>2015-12-06T10:48:32Z</time>
      </trkpt>
      <trkpt lat="44.12974" lon="3.22208">
        <ele>547</ele>
        <time>2015-12-06T10:48:33Z</time>
      </trkpt>
      <trkpt lat="44.12976" lon="3.22207">
        <ele>547</ele>
        <time>2015-12-06T10:48:34Z</time>
      </trkpt>
      <trkpt lat="44.12978" lon="3.22207">
        <ele>547.5</ele>
        <time>2015-12-06T10:48:35Z</time>
      </trkpt>
      <trkpt lat="44.1298" lon="3.22207">
        <ele>547.5</ele>
        <time>2015-12-06T10:48:36Z</time>
      </trkpt>
      <trkpt lat="44.12981" lon="3.22207">
        <ele>547.5</ele>
        <time>2015-12-06T10:48:37Z</time>
      </trkpt>
      <trkpt lat="44.12983" lon="3.22207">
        <ele>547.5</ele>
        <time>2015-12-06T10:48:38Z</time>
      </trkpt>
      <trkpt lat="44.12984" lon="3.22207">
        <ele>548</ele>
        <time>2015-12-06T10:48:39Z</time>
      </trkpt>
      <trkpt lat="44.12986" lon="3.22206">
        <ele>548</ele>
        <time>2015-12-06T10:48:40Z</time>
      </trkpt>
      <trkpt lat="44.12988" lon="3.22207">
        <ele>548</ele>
        <time>2015-12-06T10:48:41Z</time>
      </trkpt>
      <trkpt lat="44.12989" lon="3.22206">
        <ele>548</ele>
        <time>2015-12-06T10:48:42Z</time>
      </trkpt>
      <trkpt lat="44.12991" lon="3.22206">
        <ele>548.5</ele>
        <time>2015-12-06T10:48:43Z</time>
      </trkpt>
      <trkpt lat="44.12992" lon="3.22206">
        <ele>548.5</ele>
        <time>2015-12-06T10:48:44Z</time>
      </trkpt>
      <trkpt lat="44.12994" lon="3.22207">
        <ele>549</ele>
        <time>2015-12-06T10:48:45Z</time>
      </trkpt>
      <trkpt lat="44.12996" lon="3.22207">
        <ele>549</ele>
        <time>2015-12-06T10:48:46Z</time>
      </trkpt>
      <trkpt lat="44.12997" lon="3.22207">
        <ele>549.5</ele>
        <time>2015-12-06T10:48:47Z</time>
      </trkpt>
      <trkpt lat="44.12999" lon="3.22206">
        <ele>549.5</ele>
        <time>2015-12-06T10:48:48Z</time>
      </trkpt>
      <trkpt lat="44.13001" lon="3.22207">
        <ele>550</ele>
        <time>2015-12-06T10:48:49Z</time>
      </trkpt>
      <trkpt lat="44.13002" lon="3.22206">
        <ele>550</ele>
        <time>2015-12-06T10:48:50Z</time>
      </trkpt>
      <trkpt lat="44.13004" lon="3.22205">
        <ele>550</ele>
        <time>2015-12-06T10:48:51Z</time>
      </trkpt>
      <trkpt lat="44.13005" lon="3.22205">
        <ele>550.5</ele>
        <time>2015-12-06T10:48:52Z</time>
      </trkpt>
      <trkpt lat="44.13007" lon="3.22204">
        <ele>550.5</ele>
        <time>2015-12-06T10:48:53Z</time>
      </trkpt>
      <trkpt lat="44.13008" lon="3.22203">
        <ele>551</ele>
        <time>2015-12-06T10:48:54Z</time>
      </trkpt>
      <trkpt lat="44.1301" lon="3.22202">
        <ele>551</ele>
        <time>2015-12-06T10:48:55Z</time>
      </trkpt>
      <trkpt lat="44.13011" lon="3.22201">
        <ele>551.5</ele>
        <time>2015-12-06T10:48:56Z</time>
      </trkpt>
      <trkpt lat="44.13013" lon="3.222">
        <ele>551.5</ele>
        <time>2015-12-06T10:48:57Z</time>
      </trkpt>
      <trkpt lat="44.13014" lon="3.22199">
        <ele>552</ele>
        <time>2015-12-06T10:48:58Z</time>
      </trkpt>
      <trkpt lat="44.13016" lon="3.22198">
        <ele>552.5</ele>
        <time>2015-12-06T10:48:59Z</time>
      </trkpt>
      <trkpt lat="44.13017" lon="3.22197">
        <ele>552.5</ele>
        <time>2015-12-06T10:49:00Z</time>
      </trkpt>
      <trkpt lat="44.13019" lon="3.22196">
        <ele>553</ele>
        <time>2015-12-06T10:49:01Z</time>
      </trkpt>
      <trkpt lat="44.1302" lon="3.22195">
        <ele>553</ele>
        <time>2015-12-06T10:49:02Z</time>
      </trkpt>
      <trkpt lat="44.13021" lon="3.22194">
        <ele>553.5</ele>
        <time>2015-12-06T10:49:03Z</time>
      </trkpt>
      <trkpt lat="44.13023" lon="3.22192">
        <ele>553.5</ele>
        <time>2015-12-06T10:49:04Z</time>
      </trkpt>
      <trkpt lat="44.13024" lon="3.2219">
        <ele>554</ele>
        <time>2015-12-06T10:49:05Z</time>
      </trkpt>
      <trkpt lat="44.13025" lon="3.22189">
        <ele>554</ele>
        <time>2015-12-06T10:49:06Z</time>
      </trkpt>
      <trkpt lat="44.13026" lon="3.22187">
        <ele>554.5</ele>
        <time>2015-12-06T10:49:07Z</time>
      </trkpt>
      <trkpt lat="44.13028" lon="3.22186">
        <ele>554.5</ele>
        <time>2015-12-06T10:49:08Z</time>
      </trkpt>
      <trkpt lat="44.13029" lon="3.22184">
        <ele>554.5</ele>
        <time>2015-12-06T10:49:09Z</time>
      </trkpt>
      <trkpt lat="44.1303" lon="3.22182">
        <ele>554.5</ele>
        <time>2015-12-06T10:49:10Z</time>
      </trkpt>
      <trkpt lat="44.1303" lon="3.2218">
        <ele>555</ele>
        <time>2015-12-06T10:49:11Z</time>
      </trkpt>
      <trkpt lat="44.13031" lon="3.22178">
        <ele>555</ele>
        <time>2015-12-06T10:49:12Z</time>
      </trkpt>
      <trkpt lat="44.13032" lon="3.22176">
        <ele>555</ele>
        <time>2015-12-06T10:49:13Z</time>
      </trkpt>
      <trkpt lat="44.13033" lon="3.22175">
        <ele>555</ele>
        <time>2015-12-06T10:49:14Z</time>
      </trkpt>
      <trkpt lat="44.13034" lon="3.22173">
        <ele>556</ele>
        <time>2015-12-06T10:49:15Z</time>
      </trkpt>
      <trkpt lat="44.13034" lon="3.22171">
        <ele>556</ele>
        <time>2015-12-06T10:49:16Z</time>
      </trkpt>
      <trkpt lat="44.13035" lon="3.22169">
        <ele>556.5</ele>
        <time>2015-12-06T10:49:17Z</time>
      </trkpt>
      <trkpt lat="44.13036" lon="3.22167">
        <ele>556.5</ele>
        <time>2015-12-06T10:49:18Z</time>
      </trkpt>
      <trkpt lat="44.13037" lon="3.22166">
        <ele>557</ele>
        <time>2015-12-06T10:49:19Z</time>
      </trkpt>
      <trkpt lat="44.13038" lon="3.22164">
        <ele>557</ele>
        <time>2015-12-06T10:49:20Z</time>
      </trkpt>
      <trkpt lat="44.13039" lon="3.22162">
        <ele>557.5</ele>
        <time>2015-12-06T10:49:21Z</time>
      </trkpt>
      <trkpt lat="44.1304" lon="3.22161">
        <ele>557.5</ele>
        <time>2015-12-06T10:49:22Z</time>
      </trkpt>
      <trkpt lat="44.1304" lon="3.22159">
        <ele>558</ele>
        <time>2015-12-06T10:49:23Z</time>
      </trkpt>
      <trkpt lat="44.13041" lon="3.22157">
        <ele>558</ele>
        <time>2015-12-06T10:49:24Z</time>
      </trkpt>
      <trkpt lat="44.13042" lon="3.22155">
        <ele>558</ele>
        <time>2015-12-06T10:49:25Z</time>
      </trkpt>
      <trkpt lat="44.13042" lon="3.22153">
        <ele>559</ele>
        <time>2015-12-06T10:49:26Z</time>
      </trkpt>
      <trkpt lat="44.13043" lon="3.22152">
        <ele>559</ele>
        <time>2015-12-06T10:49:27Z</time>
      </trkpt>
      <trkpt lat="44.13045" lon="3.22146">
        <ele>559.5</ele>
        <time>2015-12-06T10:49:29Z</time>
      </trkpt>
      <trkpt lat="44.13046" lon="3.22144">
        <ele>560</ele>
        <time>2015-12-06T10:49:30Z</time>
      </trkpt>
      <trkpt lat="44.13047" lon="3.22142">
        <ele>559.5</ele>
        <time>2015-12-06T10:49:31Z</time>
      </trkpt>
      <trkpt lat="44.13048" lon="3.2214">
        <ele>559.5</ele>
        <time>2015-12-06T10:49:32Z</time>
      </trkpt>
      <trkpt lat="44.13049" lon="3.22138">
        <ele>560</ele>
        <time>2015-12-06T10:49:33Z</time>
      </trkpt>
      <trkpt lat="44.1305" lon="3.22136">
        <ele>560</ele>
        <time>2015-12-06T10:49:34Z</time>
      </trkpt>
      <trkpt lat="44.1305" lon="3.22134">
        <ele>560.5</ele>
        <time>2015-12-06T10:49:35Z</time>
      </trkpt>
      <trkpt lat="44.13051" lon="3.22131">
        <ele>560</ele>
        <time>2015-12-06T10:49:36Z</time>
      </trkpt>
      <trkpt lat="44.13052" lon="3.22129">
        <ele>560.5</ele>
        <time>2015-12-06T10:49:37Z</time>
      </trkpt>
      <trkpt lat="44.13053" lon="3.22127">
        <ele>560.5</ele>
        <time>2015-12-06T10:49:38Z</time>
      </trkpt>
      <trkpt lat="44.13053" lon="3.22125">
        <ele>562</ele>
        <time>2015-12-06T10:49:39Z</time>
      </trkpt>
      <trkpt lat="44.13054" lon="3.22123">
        <ele>562</ele>
        <time>2015-12-06T10:49:40Z</time>
      </trkpt>
      <trkpt lat="44.13056" lon="3.22122">
        <ele>562</ele>
        <time>2015-12-06T10:49:41Z</time>
      </trkpt>
      <trkpt lat="44.13057" lon="3.2212">
        <ele>562.5</ele>
        <time>2015-12-06T10:49:42Z</time>
      </trkpt>
      <trkpt lat="44.13058" lon="3.22118">
        <ele>562.5</ele>
        <time>2015-12-06T10:49:43Z</time>
      </trkpt>
      <trkpt lat="44.13059" lon="3.22116">
        <ele>562.5</ele>
        <time>2015-12-06T10:49:44Z</time>
      </trkpt>
      <trkpt lat="44.13061" lon="3.22115">
        <ele>562</ele>
        <time>2015-12-06T10:49:45Z</time>
      </trkpt>
      <trkpt lat="44.13062" lon="3.22113">
        <ele>561</ele>
        <time>2015-12-06T10:49:46Z</time>
      </trkpt>
      <trkpt lat="44.13064" lon="3.22112">
        <ele>560</ele>
        <time>2015-12-06T10:49:47Z</time>
      </trkpt>
      <trkpt lat="44.13065" lon="3.2211">
        <ele>560</ele>
        <time>2015-12-06T10:49:48Z</time>
      </trkpt>
      <trkpt lat="44.13067" lon="3.22108">
        <ele>560</ele>
        <time>2015-12-06T10:49:49Z</time>
      </trkpt>
      <trkpt lat="44.13068" lon="3.22106">
        <ele>560</ele>
        <time>2015-12-06T10:49:50Z</time>
      </trkpt>
      <trkpt lat="44.13069" lon="3.22104">
        <ele>560</ele>
        <time>2015-12-06T10:49:51Z</time>
      </trkpt>
      <trkpt lat="44.13071" lon="3.22102">
        <ele>560</ele>
        <time>2015-12-06T10:49:52Z</time>
      </trkpt>
      <trkpt lat="44.13072" lon="3.22101">
        <ele>560</ele>
        <time>2015-12-06T10:49:53Z</time>
      </trkpt>
      <trkpt lat="44.13073" lon="3.22099">
        <ele>560</ele>
        <time>2015-12-06T10:49:54Z</time>
      </trkpt>
      <trkpt lat="44.13074" lon="3.22097">
        <ele>559.5</ele>
        <time>2015-12-06T10:49:55Z</time>
      </trkpt>
      <trkpt lat="44.13076" lon="3.22095">
        <ele>559</ele>
        <time>2015-12-06T10:49:56Z</time>
      </trkpt>
      <trkpt lat="44.13077" lon="3.22093">
        <ele>559</ele>
        <time>2015-12-06T10:49:57Z</time>
      </trkpt>
      <trkpt lat="44.13079" lon="3.22092">
        <ele>558</ele>
        <time>2015-12-06T10:49:58Z</time>
      </trkpt>
      <trkpt lat="44.13081" lon="3.2209">
        <ele>557</ele>
        <time>2015-12-06T10:49:59Z</time>
      </trkpt>
      <trkpt lat="44.13082" lon="3.22088">
        <ele>556.5</ele>
        <time>2015-12-06T10:50:00Z</time>
      </trkpt>
      <trkpt lat="44.13084" lon="3.22086">
        <ele>556.5</ele>
        <time>2015-12-06T10:50:01Z</time>
      </trkpt>
      <trkpt lat="44.13085" lon="3.22085">
        <ele>557</ele>
        <time>2015-12-06T10:50:02Z</time>
      </trkpt>
      <trkpt lat="44.13087" lon="3.22083">
        <ele>557</ele>
        <time>2015-12-06T10:50:03Z</time>
      </trkpt>
      <trkpt lat="44.13088" lon="3.22082">
        <ele>557</ele>
        <time>2015-12-06T10:50:04Z</time>
      </trkpt>
      <trkpt lat="44.13089" lon="3.2208">
        <ele>557.5</ele>
        <time>2015-12-06T10:50:05Z</time>
      </trkpt>
      <trkpt lat="44.13091" lon="3.22079">
        <ele>557.5</ele>
        <time>2015-12-06T10:50:06Z</time>
      </trkpt>
      <trkpt lat="44.13092" lon="3.22077">
        <ele>557</ele>
        <time>2015-12-06T10:50:07Z</time>
      </trkpt>
      <trkpt lat="44.13094" lon="3.22076">
        <ele>557</ele>
        <time>2015-12-06T10:50:08Z</time>
      </trkpt>
      <trkpt lat="44.13095" lon="3.22074">
        <ele>557.5</ele>
        <time>2015-12-06T10:50:09Z</time>
      </trkpt>
      <trkpt lat="44.13097" lon="3.22073">
        <ele>558</ele>
        <time>2015-12-06T10:50:10Z</time>
      </trkpt>
      <trkpt lat="44.13098" lon="3.22071">
        <ele>558</ele>
        <time>2015-12-06T10:50:11Z</time>
      </trkpt>
      <trkpt lat="44.131" lon="3.22069">
        <ele>558.5</ele>
        <time>2015-12-06T10:50:12Z</time>
      </trkpt>
      <trkpt lat="44.13101" lon="3.22066">
        <ele>558</ele>
        <time>2015-12-06T10:50:13Z</time>
      </trkpt>
      <trkpt lat="44.13102" lon="3.22065">
        <ele>558</ele>
        <time>2015-12-06T10:50:14Z</time>
      </trkpt>
      <trkpt lat="44.13104" lon="3.22064">
        <ele>557.5</ele>
        <time>2015-12-06T10:50:15Z</time>
      </trkpt>
      <trkpt lat="44.13106" lon="3.22062">
        <ele>557</ele>
        <time>2015-12-06T10:50:16Z</time>
      </trkpt>
      <trkpt lat="44.13107" lon="3.2206">
        <ele>557</ele>
        <time>2015-12-06T10:50:17Z</time>
      </trkpt>
      <trkpt lat="44.13109" lon="3.22059">
        <ele>557</ele>
        <time>2015-12-06T10:50:18Z</time>
      </trkpt>
      <trkpt lat="44.1311" lon="3.22057">
        <ele>558</ele>
        <time>2015-12-06T10:50:19Z</time>
      </trkpt>
      <trkpt lat="44.13112" lon="3.22056">
        <ele>558</ele>
        <time>2015-12-06T10:50:20Z</time>
      </trkpt>
      <trkpt lat="44.13114" lon="3.22055">
        <ele>558</ele>
        <time>2015-12-06T10:50:21Z</time>
      </trkpt>
      <trkpt lat="44.13115" lon="3.22054">
        <ele>558.5</ele>
        <time>2015-12-06T10:50:22Z</time>
      </trkpt>
      <trkpt lat="44.13117" lon="3.22054">
        <ele>558.5</ele>
        <time>2015-12-06T10:50:23Z</time>
      </trkpt>
      <trkpt lat="44.13119" lon="3.22053">
        <ele>558.5</ele>
        <time>2015-12-06T10:50:24Z</time>
      </trkpt>
      <trkpt lat="44.1312" lon="3.22052">
        <ele>558.5</ele>
        <time>2015-12-06T10:50:25Z</time>
      </trkpt>
      <trkpt lat="44.13122" lon="3.22051">
        <ele>559</ele>
        <time>2015-12-06T10:50:26Z</time>
      </trkpt>
      <trkpt lat="44.13124" lon="3.2205">
        <ele>559.5</ele>
        <time>2015-12-06T10:50:27Z</time>
      </trkpt>
      <trkpt lat="44.13125" lon="3.22049">
        <ele>560</ele>
        <time>2015-12-06T10:50:28Z</time>
      </trkpt>
      <trkpt lat="44.13127" lon="3.22048">
        <ele>560</ele>
        <time>2015-12-06T10:50:29Z</time>
      </trkpt>
      <trkpt lat="44.13129" lon="3.22047">
        <ele>560.5</ele>
        <time>2015-12-06T10:50:30Z</time>
      </trkpt>
      <trkpt lat="44.1313" lon="3.22046">
        <ele>561</ele>
        <time>2015-12-06T10:50:31Z</time>
      </trkpt>
      <trkpt lat="44.13131" lon="3.22045">
        <ele>562</ele>
        <time>2015-12-06T10:50:32Z</time>
      </trkpt>
      <trkpt lat="44.13134" lon="3.22047">
        <ele>561</ele>
        <time>2015-12-06T10:50:33Z</time>
      </trkpt>
      <trkpt lat="44.13136" lon="3.22047">
        <ele>561</ele>
        <time>2015-12-06T10:50:34Z</time>
      </trkpt>
      <trkpt lat="44.13137" lon="3.22046">
        <ele>561.5</ele>
        <time>2015-12-06T10:50:35Z</time>
      </trkpt>
      <trkpt lat="44.13139" lon="3.22044">
        <ele>562</ele>
        <time>2015-12-06T10:50:36Z</time>
      </trkpt>
      <trkpt lat="44.1314" lon="3.22043">
        <ele>562.5</ele>
        <time>2015-12-06T10:50:37Z</time>
      </trkpt>
      <trkpt lat="44.13141" lon="3.22042">
        <ele>562.5</ele>
        <time>2015-12-06T10:50:38Z</time>
      </trkpt>
      <trkpt lat="44.13143" lon="3.2204">
        <ele>562.5</ele>
        <time>2015-12-06T10:50:39Z</time>
      </trkpt>
      <trkpt lat="44.13145" lon="3.22039">
        <ele>562.5</ele>
        <time>2015-12-06T10:50:40Z</time>
      </trkpt>
      <trkpt lat="44.13146" lon="3.22037">
        <ele>562.5</ele>
        <time>2015-12-06T10:50:41Z</time>
      </trkpt>
      <trkpt lat="44.13147" lon="3.22035">
        <ele>562.5</ele>
        <time>2015-12-06T10:50:42Z</time>
      </trkpt>
      <trkpt lat="44.13148" lon="3.22032">
        <ele>562.5</ele>
        <time>2015-12-06T10:50:43Z</time>
      </trkpt>
      <trkpt lat="44.1315" lon="3.22029">
        <ele>562.5</ele>
        <time>2015-12-06T10:50:44Z</time>
      </trkpt>
      <trkpt lat="44.13151" lon="3.2202">
        <ele>560.5</ele>
        <time>2015-12-06T10:50:46Z</time>
      </trkpt>
      <trkpt lat="44.13153" lon="3.22019">
        <ele>561</ele>
        <time>2015-12-06T10:50:47Z</time>
      </trkpt>
      <trkpt lat="44.13154" lon="3.22018">
        <ele>561</ele>
        <time>2015-12-06T10:50:48Z</time>
      </trkpt>
      <trkpt lat="44.13156" lon="3.22017">
        <ele>561</ele>
        <time>2015-12-06T10:50:49Z</time>
      </trkpt>
      <trkpt lat="44.13157" lon="3.22015">
        <ele>561.5</ele>
        <time>2015-12-06T10:50:50Z</time>
      </trkpt>
      <trkpt lat="44.13158" lon="3.22013">
        <ele>561.5</ele>
        <time>2015-12-06T10:50:51Z</time>
      </trkpt>
      <trkpt lat="44.13159" lon="3.22011">
        <ele>561.5</ele>
        <time>2015-12-06T10:50:52Z</time>
      </trkpt>
      <trkpt lat="44.13161" lon="3.22009">
        <ele>562</ele>
        <time>2015-12-06T10:50:53Z</time>
      </trkpt>
      <trkpt lat="44.13162" lon="3.22007">
        <ele>562.5</ele>
        <time>2015-12-06T10:50:54Z</time>
      </trkpt>
      <trkpt lat="44.13164" lon="3.22006">
        <ele>563</ele>
        <time>2015-12-06T10:50:55Z</time>
      </trkpt>
      <trkpt lat="44.13165" lon="3.22004">
        <ele>562.5</ele>
        <time>2015-12-06T10:50:56Z</time>
      </trkpt>
      <trkpt lat="44.13166" lon="3.22001">
        <ele>562.5</ele>
        <time>2015-12-06T10:50:57Z</time>
      </trkpt>
      <trkpt lat="44.13168" lon="3.21999">
        <ele>562.5</ele>
        <time>2015-12-06T10:50:58Z</time>
      </trkpt>
      <trkpt lat="44.13169" lon="3.21996">
        <ele>562.5</ele>
        <time>2015-12-06T10:50:59Z</time>
      </trkpt>
      <trkpt lat="44.1317" lon="3.21993">
        <ele>563</ele>
        <time>2015-12-06T10:51:00Z</time>
      </trkpt>
      <trkpt lat="44.13171" lon="3.21992">
        <ele>563</ele>
        <time>2015-12-06T10:51:01Z</time>
      </trkpt>
      <trkpt lat="44.13173" lon="3.2199">
        <ele>563.5</ele>
        <time>2015-12-06T10:51:02Z</time>
      </trkpt>
      <trkpt lat="44.13175" lon="3.21989">
        <ele>563.5</ele>
        <time>2015-12-06T10:51:03Z</time>
      </trkpt>
      <trkpt lat="44.13176" lon="3.21988">
        <ele>564</ele>
        <time>2015-12-06T10:51:04Z</time>
      </trkpt>
      <trkpt lat="44.13178" lon="3.21987">
        <ele>565</ele>
        <time>2015-12-06T10:51:05Z</time>
      </trkpt>
      <trkpt lat="44.13179" lon="3.21985">
        <ele>565.5</ele>
        <time>2015-12-06T10:51:06Z</time>
      </trkpt>
      <trkpt lat="44.13181" lon="3.21984">
        <ele>566</ele>
        <time>2015-12-06T10:51:07Z</time>
      </trkpt>
      <trkpt lat="44.13183" lon="3.21985">
        <ele>566.5</ele>
        <time>2015-12-06T10:51:08Z</time>
      </trkpt>
      <trkpt lat="44.13184" lon="3.21983">
        <ele>567</ele>
        <time>2015-12-06T10:51:09Z</time>
      </trkpt>
      <trkpt lat="44.13185" lon="3.21981">
        <ele>567</ele>
        <time>2015-12-06T10:51:10Z</time>
      </trkpt>
      <trkpt lat="44.13188" lon="3.21977">
        <ele>567</ele>
        <time>2015-12-06T10:51:12Z</time>
      </trkpt>
      <trkpt lat="44.1319" lon="3.21976">
        <ele>567</ele>
        <time>2015-12-06T10:51:13Z</time>
      </trkpt>
      <trkpt lat="44.13191" lon="3.21975">
        <ele>567</ele>
        <time>2015-12-06T10:51:14Z</time>
      </trkpt>
      <trkpt lat="44.13193" lon="3.21973">
        <ele>567.5</ele>
        <time>2015-12-06T10:51:15Z</time>
      </trkpt>
      <trkpt lat="44.13195" lon="3.21972">
        <ele>567</ele>
        <time>2015-12-06T10:51:15Z</time>
      </trkpt>
      <trkpt lat="44.13196" lon="3.2197">
        <ele>567</ele>
        <time>2015-12-06T10:51:16Z</time>
      </trkpt>
      <trkpt lat="44.13198" lon="3.21969">
        <ele>567.5</ele>
        <time>2015-12-06T10:51:17Z</time>
      </trkpt>
      <trkpt lat="44.132" lon="3.21969">
        <ele>568</ele>
        <time>2015-12-06T10:51:18Z</time>
      </trkpt>
      <trkpt lat="44.13202" lon="3.21967">
        <ele>568</ele>
        <time>2015-12-06T10:51:19Z</time>
      </trkpt>
      <trkpt lat="44.13203" lon="3.21966">
        <ele>568</ele>
        <time>2015-12-06T10:51:20Z</time>
      </trkpt>
      <trkpt lat="44.13205" lon="3.21964">
        <ele>568</ele>
        <time>2015-12-06T10:51:21Z</time>
      </trkpt>
      <trkpt lat="44.13206" lon="3.21963">
        <ele>568</ele>
        <time>2015-12-06T10:51:22Z</time>
      </trkpt>
      <trkpt lat="44.13208" lon="3.21962">
        <ele>568</ele>
        <time>2015-12-06T10:51:23Z</time>
      </trkpt>
      <trkpt lat="44.13209" lon="3.2196">
        <ele>568.5</ele>
        <time>2015-12-06T10:51:24Z</time>
      </trkpt>
      <trkpt lat="44.13211" lon="3.2196">
        <ele>569</ele>
        <time>2015-12-06T10:51:25Z</time>
      </trkpt>
      <trkpt lat="44.13213" lon="3.21959">
        <ele>569.5</ele>
        <time>2015-12-06T10:51:27Z</time>
      </trkpt>
      <trkpt lat="44.13214" lon="3.21958">
        <ele>570</ele>
        <time>2015-12-06T10:51:27Z</time>
      </trkpt>
      <trkpt lat="44.13216" lon="3.21957">
        <ele>570.5</ele>
        <time>2015-12-06T10:51:29Z</time>
      </trkpt>
      <trkpt lat="44.13218" lon="3.21956">
        <ele>570.5</ele>
        <time>2015-12-06T10:51:29Z</time>
      </trkpt>
      <trkpt lat="44.13219" lon="3.21955">
        <ele>570.5</ele>
        <time>2015-12-06T10:51:31Z</time>
      </trkpt>
      <trkpt lat="44.13221" lon="3.21953">
        <ele>570.5</ele>
        <time>2015-12-06T10:51:31Z</time>
      </trkpt>
      <trkpt lat="44.13222" lon="3.21952">
        <ele>571</ele>
        <time>2015-12-06T10:51:32Z</time>
      </trkpt>
      <trkpt lat="44.13224" lon="3.21951">
        <ele>571</ele>
        <time>2015-12-06T10:51:33Z</time>
      </trkpt>
      <trkpt lat="44.13226" lon="3.21951">
        <ele>571.5</ele>
        <time>2015-12-06T10:51:35Z</time>
      </trkpt>
      <trkpt lat="44.13228" lon="3.2195">
        <ele>571.5</ele>
        <time>2015-12-06T10:51:35Z</time>
      </trkpt>
      <trkpt lat="44.1323" lon="3.21949">
        <ele>571.5</ele>
        <time>2015-12-06T10:51:36Z</time>
      </trkpt>
      <trkpt lat="44.13232" lon="3.21949">
        <ele>572</ele>
        <time>2015-12-06T10:51:37Z</time>
      </trkpt>
      <trkpt lat="44.13233" lon="3.21948">
        <ele>572.5</ele>
        <time>2015-12-06T10:51:38Z</time>
      </trkpt>
      <trkpt lat="44.13235" lon="3.21948">
        <ele>572.5</ele>
        <time>2015-12-06T10:51:39Z</time>
      </trkpt>
      <trkpt lat="44.13237" lon="3.21948">
        <ele>572.5</ele>
        <time>2015-12-06T10:51:40Z</time>
      </trkpt>
      <trkpt lat="44.1324" lon="3.21948">
        <ele>572.5</ele>
        <time>2015-12-06T10:51:41Z</time>
      </trkpt>
      <trkpt lat="44.13242" lon="3.21948">
        <ele>572.5</ele>
        <time>2015-12-06T10:51:42Z</time>
      </trkpt>
      <trkpt lat="44.13244" lon="3.21948">
        <ele>572.5</ele>
        <time>2015-12-06T10:51:43Z</time>
      </trkpt>
      <trkpt lat="44.13246" lon="3.21947">
        <ele>572.5</ele>
        <time>2015-12-06T10:51:44Z</time>
      </trkpt>
      <trkpt lat="44.13247" lon="3.21946">
        <ele>573</ele>
        <time>2015-12-06T10:51:45Z</time>
      </trkpt>
      <trkpt lat="44.13249" lon="3.21945">
        <ele>572.5</ele>
        <time>2015-12-06T10:51:46Z</time>
      </trkpt>
      <trkpt lat="44.13251" lon="3.21944">
        <ele>573</ele>
        <time>2015-12-06T10:51:47Z</time>
      </trkpt>
      <trkpt lat="44.13252" lon="3.21943">
        <ele>573</ele>
        <time>2015-12-06T10:51:48Z</time>
      </trkpt>
      <trkpt lat="44.13254" lon="3.21941">
        <ele>573.5</ele>
        <time>2015-12-06T10:51:50Z</time>
      </trkpt>
      <trkpt lat="44.13255" lon="3.21939">
        <ele>573.5</ele>
        <time>2015-12-06T10:51:50Z</time>
      </trkpt>
      <trkpt lat="44.13257" lon="3.21939">
        <ele>573.5</ele>
        <time>2015-12-06T10:51:52Z</time>
      </trkpt>
      <trkpt lat="44.13258" lon="3.21937">
        <ele>573</ele>
        <time>2015-12-06T10:51:52Z</time>
      </trkpt>
      <trkpt lat="44.1326" lon="3.21937">
        <ele>573</ele>
        <time>2015-12-06T10:51:53Z</time>
      </trkpt>
      <trkpt lat="44.13262" lon="3.21936">
        <ele>573.5</ele>
        <time>2015-12-06T10:51:54Z</time>
      </trkpt>
      <trkpt lat="44.13264" lon="3.21935">
        <ele>573.5</ele>
        <time>2015-12-06T10:51:55Z</time>
      </trkpt>
      <trkpt lat="44.13266" lon="3.21935">
        <ele>573.5</ele>
        <time>2015-12-06T10:51:56Z</time>
      </trkpt>
      <trkpt lat="44.13267" lon="3.21934">
        <ele>574</ele>
        <time>2015-12-06T10:51:57Z</time>
      </trkpt>
      <trkpt lat="44.13269" lon="3.21933">
        <ele>574</ele>
        <time>2015-12-06T10:51:58Z</time>
      </trkpt>
      <trkpt lat="44.13271" lon="3.21933">
        <ele>574.5</ele>
        <time>2015-12-06T10:51:59Z</time>
      </trkpt>
      <trkpt lat="44.13272" lon="3.21932">
        <ele>574.5</ele>
        <time>2015-12-06T10:52:00Z</time>
      </trkpt>
      <trkpt lat="44.13274" lon="3.21932">
        <ele>574.5</ele>
        <time>2015-12-06T10:52:01Z</time>
      </trkpt>
      <trkpt lat="44.13275" lon="3.2193">
        <ele>574.5</ele>
        <time>2015-12-06T10:52:02Z</time>
      </trkpt>
      <trkpt lat="44.13277" lon="3.2193">
        <ele>575</ele>
        <time>2015-12-06T10:52:03Z</time>
      </trkpt>
      <trkpt lat="44.13279" lon="3.21929">
        <ele>575</ele>
        <time>2015-12-06T10:52:04Z</time>
      </trkpt>
      <trkpt lat="44.13281" lon="3.21928">
        <ele>575</ele>
        <time>2015-12-06T10:52:05Z</time>
      </trkpt>
      <trkpt lat="44.13282" lon="3.21926">
        <ele>575</ele>
        <time>2015-12-06T10:52:06Z</time>
      </trkpt>
      <trkpt lat="44.13284" lon="3.21926">
        <ele>575</ele>
        <time>2015-12-06T10:52:07Z</time>
      </trkpt>
      <trkpt lat="44.13286" lon="3.21926">
        <ele>575</ele>
        <time>2015-12-06T10:52:08Z</time>
      </trkpt>
      <trkpt lat="44.13288" lon="3.21925">
        <ele>575</ele>
        <time>2015-12-06T10:52:09Z</time>
      </trkpt>
      <trkpt lat="44.1329" lon="3.21925">
        <ele>575</ele>
        <time>2015-12-06T10:52:10Z</time>
      </trkpt>
      <trkpt lat="44.13292" lon="3.21925">
        <ele>575</ele>
        <time>2015-12-06T10:52:11Z</time>
      </trkpt>
      <trkpt lat="44.13294" lon="3.21925">
        <ele>575.5</ele>
        <time>2015-12-06T10:52:12Z</time>
      </trkpt>
      <trkpt lat="44.13295" lon="3.21924">
        <ele>575.5</ele>
        <time>2015-12-06T10:52:13Z</time>
      </trkpt>
      <trkpt lat="44.13297" lon="3.21925">
        <ele>575.5</ele>
        <time>2015-12-06T10:52:14Z</time>
      </trkpt>
      <trkpt lat="44.13299" lon="3.21924">
        <ele>576</ele>
        <time>2015-12-06T10:52:15Z</time>
      </trkpt>
      <trkpt lat="44.13301" lon="3.21924">
        <ele>576</ele>
        <time>2015-12-06T10:52:16Z</time>
      </trkpt>
      <trkpt lat="44.13303" lon="3.21925">
        <ele>576.5</ele>
        <time>2015-12-06T10:52:17Z</time>
      </trkpt>
      <trkpt lat="44.13304" lon="3.21924">
        <ele>576.5</ele>
        <time>2015-12-06T10:52:18Z</time>
      </trkpt>
      <trkpt lat="44.13305" lon="3.21921">
        <ele>577</ele>
        <time>2015-12-06T10:52:19Z</time>
      </trkpt>
      <trkpt lat="44.13307" lon="3.21922">
        <ele>577</ele>
        <time>2015-12-06T10:52:20Z</time>
      </trkpt>
      <trkpt lat="44.13309" lon="3.21921">
        <ele>577</ele>
        <time>2015-12-06T10:52:21Z</time>
      </trkpt>
      <trkpt lat="44.13311" lon="3.21921">
        <ele>577.5</ele>
        <time>2015-12-06T10:52:22Z</time>
      </trkpt>
      <trkpt lat="44.13313" lon="3.21921">
        <ele>577.5</ele>
        <time>2015-12-06T10:52:23Z</time>
      </trkpt>
      <trkpt lat="44.13315" lon="3.21921">
        <ele>578</ele>
        <time>2015-12-06T10:52:24Z</time>
      </trkpt>
      <trkpt lat="44.13317" lon="3.21919">
        <ele>578</ele>
        <time>2015-12-06T10:52:25Z</time>
      </trkpt>
      <trkpt lat="44.13319" lon="3.21918">
        <ele>578</ele>
        <time>2015-12-06T10:52:26Z</time>
      </trkpt>
      <trkpt lat="44.1332" lon="3.21917">
        <ele>578.5</ele>
        <time>2015-12-06T10:52:27Z</time>
      </trkpt>
      <trkpt lat="44.13322" lon="3.21916">
        <ele>579</ele>
        <time>2015-12-06T10:52:28Z</time>
      </trkpt>
      <trkpt lat="44.13323" lon="3.21914">
        <ele>580</ele>
        <time>2015-12-06T10:52:29Z</time>
      </trkpt>
      <trkpt lat="44.13325" lon="3.21913">
        <ele>580</ele>
        <time>2015-12-06T10:52:30Z</time>
      </trkpt>
      <trkpt lat="44.13326" lon="3.21911">
        <ele>580.5</ele>
        <time>2015-12-06T10:52:31Z</time>
      </trkpt>
      <trkpt lat="44.13327" lon="3.21909">
        <ele>580.5</ele>
        <time>2015-12-06T10:52:32Z</time>
      </trkpt>
      <trkpt lat="44.13328" lon="3.21907">
        <ele>580</ele>
        <time>2015-12-06T10:52:33Z</time>
      </trkpt>
      <trkpt lat="44.13329" lon="3.21906">
        <ele>580</ele>
        <time>2015-12-06T10:52:34Z</time>
      </trkpt>
      <trkpt lat="44.1333" lon="3.21904">
        <ele>579.5</ele>
        <time>2015-12-06T10:52:35Z</time>
      </trkpt>
      <trkpt lat="44.13332" lon="3.21902">
        <ele>579.5</ele>
        <time>2015-12-06T10:52:36Z</time>
      </trkpt>
      <trkpt lat="44.13333" lon="3.219">
        <ele>579.5</ele>
        <time>2015-12-06T10:52:37Z</time>
      </trkpt>
      <trkpt lat="44.13334" lon="3.219">
        <ele>580</ele>
        <time>2015-12-06T10:52:38Z</time>
      </trkpt>
      <trkpt lat="44.13335" lon="3.21899">
        <ele>580</ele>
        <time>2015-12-06T10:52:39Z</time>
      </trkpt>
      <trkpt lat="44.13337" lon="3.21897">
        <ele>579.5</ele>
        <time>2015-12-06T10:52:40Z</time>
      </trkpt>
      <trkpt lat="44.13339" lon="3.21897">
        <ele>579.5</ele>
        <time>2015-12-06T10:52:41Z</time>
      </trkpt>
      <trkpt lat="44.1334" lon="3.21896">
        <ele>579.5</ele>
        <time>2015-12-06T10:52:42Z</time>
      </trkpt>
      <trkpt lat="44.13341" lon="3.21895">
        <ele>580.5</ele>
        <time>2015-12-06T10:52:43Z</time>
      </trkpt>
      <trkpt lat="44.13343" lon="3.21894">
        <ele>581</ele>
        <time>2015-12-06T10:52:44Z</time>
      </trkpt>
      <trkpt lat="44.13344" lon="3.21894">
        <ele>582.5</ele>
        <time>2015-12-06T10:52:45Z</time>
      </trkpt>
      <trkpt lat="44.13345" lon="3.21892">
        <ele>582.5</ele>
        <time>2015-12-06T10:52:46Z</time>
      </trkpt>
      <trkpt lat="44.13347" lon="3.21891">
        <ele>582.5</ele>
        <time>2015-12-06T10:52:47Z</time>
      </trkpt>
      <trkpt lat="44.13349" lon="3.2189">
        <ele>582.5</ele>
        <time>2015-12-06T10:52:48Z</time>
      </trkpt>
      <trkpt lat="44.1335" lon="3.21889">
        <ele>582.5</ele>
        <time>2015-12-06T10:52:49Z</time>
      </trkpt>
      <trkpt lat="44.13352" lon="3.21888">
        <ele>582.5</ele>
        <time>2015-12-06T10:52:50Z</time>
      </trkpt>
      <trkpt lat="44.13354" lon="3.21887">
        <ele>583</ele>
        <time>2015-12-06T10:52:51Z</time>
      </trkpt>
      <trkpt lat="44.13355" lon="3.21886">
        <ele>583</ele>
        <time>2015-12-06T10:52:52Z</time>
      </trkpt>
      <trkpt lat="44.13357" lon="3.21884">
        <ele>583</ele>
        <time>2015-12-06T10:52:53Z</time>
      </trkpt>
      <trkpt lat="44.13359" lon="3.21883">
        <ele>582.5</ele>
        <time>2015-12-06T10:52:54Z</time>
      </trkpt>
      <trkpt lat="44.1336" lon="3.21882">
        <ele>582</ele>
        <time>2015-12-06T10:52:55Z</time>
      </trkpt>
      <trkpt lat="44.13362" lon="3.2188">
        <ele>582</ele>
        <time>2015-12-06T10:52:56Z</time>
      </trkpt>
      <trkpt lat="44.13364" lon="3.21878">
        <ele>582</ele>
        <time>2015-12-06T10:52:57Z</time>
      </trkpt>
      <trkpt lat="44.13365" lon="3.21877">
        <ele>582</ele>
        <time>2015-12-06T10:52:58Z</time>
      </trkpt>
      <trkpt lat="44.13367" lon="3.21875">
        <ele>582</ele>
        <time>2015-12-06T10:52:59Z</time>
      </trkpt>
      <trkpt lat="44.13368" lon="3.21874">
        <ele>582.5</ele>
        <time>2015-12-06T10:53:00Z</time>
      </trkpt>
      <trkpt lat="44.1337" lon="3.21872">
        <ele>582.5</ele>
        <time>2015-12-06T10:53:01Z</time>
      </trkpt>
      <trkpt lat="44.13372" lon="3.21871">
        <ele>582.5</ele>
        <time>2015-12-06T10:53:02Z</time>
      </trkpt>
      <trkpt lat="44.13373" lon="3.21869">
        <ele>582.5</ele>
        <time>2015-12-06T10:53:03Z</time>
      </trkpt>
      <trkpt lat="44.13375" lon="3.21868">
        <ele>583</ele>
        <time>2015-12-06T10:53:04Z</time>
      </trkpt>
      <trkpt lat="44.13376" lon="3.21865">
        <ele>582.5</ele>
        <time>2015-12-06T10:53:05Z</time>
      </trkpt>
      <trkpt lat="44.13378" lon="3.21864">
        <ele>583.5</ele>
        <time>2015-12-06T10:53:06Z</time>
      </trkpt>
      <trkpt lat="44.13379" lon="3.21863">
        <ele>584</ele>
        <time>2015-12-06T10:53:07Z</time>
      </trkpt>
      <trkpt lat="44.13381" lon="3.21863">
        <ele>584.5</ele>
        <time>2015-12-06T10:53:08Z</time>
      </trkpt>
      <trkpt lat="44.13383" lon="3.21862">
        <ele>585</ele>
        <time>2015-12-06T10:53:09Z</time>
      </trkpt>
      <trkpt lat="44.13385" lon="3.21861">
        <ele>585</ele>
        <time>2015-12-06T10:53:10Z</time>
      </trkpt>
      <trkpt lat="44.13387" lon="3.2186">
        <ele>585</ele>
        <time>2015-12-06T10:53:11Z</time>
      </trkpt>
      <trkpt lat="44.13389" lon="3.21859">
        <ele>585.5</ele>
        <time>2015-12-06T10:53:12Z</time>
      </trkpt>
      <trkpt lat="44.1339" lon="3.21858">
        <ele>586</ele>
        <time>2015-12-06T10:53:13Z</time>
      </trkpt>
      <trkpt lat="44.13392" lon="3.21857">
        <ele>586.5</ele>
        <time>2015-12-06T10:53:14Z</time>
      </trkpt>
      <trkpt lat="44.13394" lon="3.21859">
        <ele>586.5</ele>
        <time>2015-12-06T10:53:15Z</time>
      </trkpt>
      <trkpt lat="44.13396" lon="3.21858">
        <ele>586.5</ele>
        <time>2015-12-06T10:53:16Z</time>
      </trkpt>
      <trkpt lat="44.13398" lon="3.21857">
        <ele>587</ele>
        <time>2015-12-06T10:53:17Z</time>
      </trkpt>
      <trkpt lat="44.134" lon="3.21856">
        <ele>587</ele>
        <time>2015-12-06T10:53:18Z</time>
      </trkpt>
      <trkpt lat="44.13403" lon="3.21853">
        <ele>587</ele>
        <time>2015-12-06T10:53:20Z</time>
      </trkpt>
      <trkpt lat="44.13405" lon="3.21852">
        <ele>587</ele>
        <time>2015-12-06T10:53:21Z</time>
      </trkpt>
      <trkpt lat="44.13407" lon="3.2185">
        <ele>587.5</ele>
        <time>2015-12-06T10:53:22Z</time>
      </trkpt>
      <trkpt lat="44.13408" lon="3.21849">
        <ele>587.5</ele>
        <time>2015-12-06T10:53:23Z</time>
      </trkpt>
      <trkpt lat="44.1341" lon="3.21848">
        <ele>588</ele>
        <time>2015-12-06T10:53:24Z</time>
      </trkpt>
      <trkpt lat="44.13412" lon="3.21847">
        <ele>588</ele>
        <time>2015-12-06T10:53:25Z</time>
      </trkpt>
      <trkpt lat="44.13413" lon="3.21846">
        <ele>588</ele>
        <time>2015-12-06T10:53:26Z</time>
      </trkpt>
      <trkpt lat="44.13415" lon="3.21845">
        <ele>588.5</ele>
        <time>2015-12-06T10:53:27Z</time>
      </trkpt>
      <trkpt lat="44.13416" lon="3.21843">
        <ele>589</ele>
        <time>2015-12-06T10:53:28Z</time>
      </trkpt>
      <trkpt lat="44.13418" lon="3.21842">
        <ele>589.5</ele>
        <time>2015-12-06T10:53:29Z</time>
      </trkpt>
      <trkpt lat="44.1342" lon="3.21841">
        <ele>589.5</ele>
        <time>2015-12-06T10:53:30Z</time>
      </trkpt>
      <trkpt lat="44.13422" lon="3.21839">
        <ele>590</ele>
        <time>2015-12-06T10:53:31Z</time>
      </trkpt>
      <trkpt lat="44.13423" lon="3.21837">
        <ele>590.5</ele>
        <time>2015-12-06T10:53:32Z</time>
      </trkpt>
      <trkpt lat="44.13424" lon="3.21835">
        <ele>591</ele>
        <time>2015-12-06T10:53:33Z</time>
      </trkpt>
      <trkpt lat="44.13426" lon="3.21833">
        <ele>591</ele>
        <time>2015-12-06T10:53:34Z</time>
      </trkpt>
      <trkpt lat="44.13427" lon="3.21832">
        <ele>591</ele>
        <time>2015-12-06T10:53:35Z</time>
      </trkpt>
      <trkpt lat="44.13429" lon="3.2183">
        <ele>591.5</ele>
        <time>2015-12-06T10:53:36Z</time>
      </trkpt>
      <trkpt lat="44.1343" lon="3.21828">
        <ele>592</ele>
        <time>2015-12-06T10:53:37Z</time>
      </trkpt>
      <trkpt lat="44.13432" lon="3.21827">
        <ele>592.5</ele>
        <time>2015-12-06T10:53:38Z</time>
      </trkpt>
      <trkpt lat="44.13433" lon="3.21825">
        <ele>592.5</ele>
        <time>2015-12-06T10:53:39Z</time>
      </trkpt>
      <trkpt lat="44.13435" lon="3.21823">
        <ele>592.5</ele>
        <time>2015-12-06T10:53:40Z</time>
      </trkpt>
      <trkpt lat="44.13436" lon="3.21821">
        <ele>592.5</ele>
        <time>2015-12-06T10:53:41Z</time>
      </trkpt>
      <trkpt lat="44.13438" lon="3.2182">
        <ele>592.5</ele>
        <time>2015-12-06T10:53:42Z</time>
      </trkpt>
      <trkpt lat="44.1344" lon="3.21819">
        <ele>592.5</ele>
        <time>2015-12-06T10:53:43Z</time>
      </trkpt>
      <trkpt lat="44.13441" lon="3.21818">
        <ele>592.5</ele>
        <time>2015-12-06T10:53:44Z</time>
      </trkpt>
      <trkpt lat="44.13442" lon="3.21816">
        <ele>593</ele>
        <time>2015-12-06T10:53:45Z</time>
      </trkpt>
      <trkpt lat="44.13444" lon="3.21815">
        <ele>593</ele>
        <time>2015-12-06T10:53:46Z</time>
      </trkpt>
      <trkpt lat="44.13446" lon="3.21814">
        <ele>593.5</ele>
        <time>2015-12-06T10:53:47Z</time>
      </trkpt>
      <trkpt lat="44.13447" lon="3.21813">
        <ele>594</ele>
        <time>2015-12-06T10:53:48Z</time>
      </trkpt>
      <trkpt lat="44.13449" lon="3.21812">
        <ele>594</ele>
        <time>2015-12-06T10:53:49Z</time>
      </trkpt>
      <trkpt lat="44.1345" lon="3.21811">
        <ele>594.5</ele>
        <time>2015-12-06T10:53:50Z</time>
      </trkpt>
      <trkpt lat="44.13452" lon="3.21809">
        <ele>595</ele>
        <time>2015-12-06T10:53:51Z</time>
      </trkpt>
      <trkpt lat="44.13453" lon="3.21807">
        <ele>595</ele>
        <time>2015-12-06T10:53:52Z</time>
      </trkpt>
      <trkpt lat="44.13455" lon="3.21806">
        <ele>595</ele>
        <time>2015-12-06T10:53:53Z</time>
      </trkpt>
      <trkpt lat="44.13456" lon="3.21805">
        <ele>595.5</ele>
        <time>2015-12-06T10:53:54Z</time>
      </trkpt>
      <trkpt lat="44.13458" lon="3.21804">
        <ele>596</ele>
        <time>2015-12-06T10:53:55Z</time>
      </trkpt>
      <trkpt lat="44.1346" lon="3.21806">
        <ele>597</ele>
        <time>2015-12-06T10:53:56Z</time>
      </trkpt>
      <trkpt lat="44.13461" lon="3.21804">
        <ele>596.5</ele>
        <time>2015-12-06T10:53:57Z</time>
      </trkpt>
      <trkpt lat="44.13463" lon="3.21803">
        <ele>597</ele>
        <time>2015-12-06T10:53:58Z</time>
      </trkpt>
      <trkpt lat="44.13465" lon="3.21802">
        <ele>597</ele>
        <time>2015-12-06T10:53:59Z</time>
      </trkpt>
      <trkpt lat="44.13467" lon="3.21802">
        <ele>597</ele>
        <time>2015-12-06T10:54:00Z</time>
      </trkpt>
      <trkpt lat="44.13468" lon="3.21801">
        <ele>597.5</ele>
        <time>2015-12-06T10:54:01Z</time>
      </trkpt>
      <trkpt lat="44.13474" lon="3.21803">
        <ele>595.5</ele>
        <time>2015-12-06T10:54:03Z</time>
      </trkpt>
      <trkpt lat="44.13476" lon="3.21805">
        <ele>596</ele>
        <time>2015-12-06T10:54:04Z</time>
      </trkpt>
      <trkpt lat="44.13478" lon="3.21805">
        <ele>596</ele>
        <time>2015-12-06T10:54:05Z</time>
      </trkpt>
      <trkpt lat="44.1348" lon="3.21804">
        <ele>596.5</ele>
        <time>2015-12-06T10:54:06Z</time>
      </trkpt>
      <trkpt lat="44.13482" lon="3.21803">
        <ele>596.5</ele>
        <time>2015-12-06T10:54:07Z</time>
      </trkpt>
      <trkpt lat="44.13483" lon="3.21802">
        <ele>596.5</ele>
        <time>2015-12-06T10:54:08Z</time>
      </trkpt>
      <trkpt lat="44.13485" lon="3.21802">
        <ele>597</ele>
        <time>2015-12-06T10:54:09Z</time>
      </trkpt>
      <trkpt lat="44.13487" lon="3.21802">
        <ele>597</ele>
        <time>2015-12-06T10:54:10Z</time>
      </trkpt>
      <trkpt lat="44.13489" lon="3.21801">
        <ele>597</ele>
        <time>2015-12-06T10:54:11Z</time>
      </trkpt>
      <trkpt lat="44.13491" lon="3.21801">
        <ele>597.5</ele>
        <time>2015-12-06T10:54:12Z</time>
      </trkpt>
      <trkpt lat="44.13493" lon="3.21801">
        <ele>597</ele>
        <time>2015-12-06T10:54:13Z</time>
      </trkpt>
      <trkpt lat="44.13495" lon="3.21801">
        <ele>597</ele>
        <time>2015-12-06T10:54:14Z</time>
      </trkpt>
      <trkpt lat="44.13497" lon="3.21801">
        <ele>597</ele>
        <time>2015-12-06T10:54:15Z</time>
      </trkpt>
      <trkpt lat="44.135" lon="3.21805">
        <ele>597</ele>
        <time>2015-12-06T10:54:16Z</time>
      </trkpt>
      <trkpt lat="44.13502" lon="3.21803">
        <ele>598.5</ele>
        <time>2015-12-06T10:54:18Z</time>
      </trkpt>
      <trkpt lat="44.13504" lon="3.21803">
        <ele>597.5</ele>
        <time>2015-12-06T10:54:19Z</time>
      </trkpt>
      <trkpt lat="44.13506" lon="3.21801">
        <ele>597</ele>
        <time>2015-12-06T10:54:20Z</time>
      </trkpt>
      <trkpt lat="44.13507" lon="3.21802">
        <ele>597.5</ele>
        <time>2015-12-06T10:54:21Z</time>
      </trkpt>
      <trkpt lat="44.13509" lon="3.21801">
        <ele>597.5</ele>
        <time>2015-12-06T10:54:22Z</time>
      </trkpt>
      <trkpt lat="44.1351" lon="3.21801">
        <ele>599</ele>
        <time>2015-12-06T10:54:23Z</time>
      </trkpt>
      <trkpt lat="44.13511" lon="3.218">
        <ele>599.5</ele>
        <time>2015-12-06T10:54:24Z</time>
      </trkpt>
      <trkpt lat="44.13513" lon="3.21801">
        <ele>600</ele>
        <time>2015-12-06T10:54:25Z</time>
      </trkpt>
      <trkpt lat="44.13515" lon="3.21802">
        <ele>600</ele>
        <time>2015-12-06T10:54:26Z</time>
      </trkpt>
      <trkpt lat="44.13517" lon="3.21802">
        <ele>600</ele>
        <time>2015-12-06T10:54:27Z</time>
      </trkpt>
      <trkpt lat="44.13519" lon="3.21802">
        <ele>600.5</ele>
        <time>2015-12-06T10:54:28Z</time>
      </trkpt>
      <trkpt lat="44.13521" lon="3.21802">
        <ele>601</ele>
        <time>2015-12-06T10:54:29Z</time>
      </trkpt>
      <trkpt lat="44.13523" lon="3.21802">
        <ele>600.5</ele>
        <time>2015-12-06T10:54:30Z</time>
      </trkpt>
      <trkpt lat="44.13525" lon="3.21802">
        <ele>600.5</ele>
        <time>2015-12-06T10:54:31Z</time>
      </trkpt>
      <trkpt lat="44.13527" lon="3.21801">
        <ele>602</ele>
        <time>2015-12-06T10:54:32Z</time>
      </trkpt>
      <trkpt lat="44.13528" lon="3.21802">
        <ele>602</ele>
        <time>2015-12-06T10:54:33Z</time>
      </trkpt>
      <trkpt lat="44.1353" lon="3.21801">
        <ele>603</ele>
        <time>2015-12-06T10:54:34Z</time>
      </trkpt>
      <trkpt lat="44.13532" lon="3.21802">
        <ele>603.5</ele>
        <time>2015-12-06T10:54:35Z</time>
      </trkpt>
      <trkpt lat="44.13533" lon="3.21801">
        <ele>604.5</ele>
        <time>2015-12-06T10:54:36Z</time>
      </trkpt>
      <trkpt lat="44.13533" lon="3.21799">
        <ele>606</ele>
        <time>2015-12-06T10:54:37Z</time>
      </trkpt>
      <trkpt lat="44.13535" lon="3.21799">
        <ele>605.5</ele>
        <time>2015-12-06T10:54:38Z</time>
      </trkpt>
      <trkpt lat="44.13537" lon="3.21798">
        <ele>604.5</ele>
        <time>2015-12-06T10:54:39Z</time>
      </trkpt>
      <trkpt lat="44.13539" lon="3.21799">
        <ele>604</ele>
        <time>2015-12-06T10:54:40Z</time>
      </trkpt>
      <trkpt lat="44.13541" lon="3.21798">
        <ele>603.5</ele>
        <time>2015-12-06T10:54:41Z</time>
      </trkpt>
      <trkpt lat="44.13543" lon="3.21799">
        <ele>603</ele>
        <time>2015-12-06T10:54:42Z</time>
      </trkpt>
      <trkpt lat="44.13545" lon="3.218">
        <ele>602.5</ele>
        <time>2015-12-06T10:54:42Z</time>
      </trkpt>
      <trkpt lat="44.13547" lon="3.218">
        <ele>602.5</ele>
        <time>2015-12-06T10:54:44Z</time>
      </trkpt>
      <trkpt lat="44.13549" lon="3.21801">
        <ele>602.5</ele>
        <time>2015-12-06T10:54:44Z</time>
      </trkpt>
      <trkpt lat="44.13551" lon="3.21801">
        <ele>602.5</ele>
        <time>2015-12-06T10:54:45Z</time>
      </trkpt>
      <trkpt lat="44.13553" lon="3.21801">
        <ele>602</ele>
        <time>2015-12-06T10:54:46Z</time>
      </trkpt>
      <trkpt lat="44.13555" lon="3.21802">
        <ele>602</ele>
        <time>2015-12-06T10:54:47Z</time>
      </trkpt>
      <trkpt lat="44.13557" lon="3.21802">
        <ele>602.5</ele>
        <time>2015-12-06T10:54:48Z</time>
      </trkpt>
      <trkpt lat="44.13558" lon="3.21802">
        <ele>602.5</ele>
        <time>2015-12-06T10:54:49Z</time>
      </trkpt>
      <trkpt lat="44.13561" lon="3.21803">
        <ele>602.5</ele>
        <time>2015-12-06T10:54:50Z</time>
      </trkpt>
      <trkpt lat="44.13562" lon="3.21803">
        <ele>602</ele>
        <time>2015-12-06T10:54:52Z</time>
      </trkpt>
      <trkpt lat="44.13564" lon="3.21803">
        <ele>602.5</ele>
        <time>2015-12-06T10:54:52Z</time>
      </trkpt>
      <trkpt lat="44.13566" lon="3.21803">
        <ele>602.5</ele>
        <time>2015-12-06T10:54:53Z</time>
      </trkpt>
      <trkpt lat="44.13568" lon="3.21803">
        <ele>603</ele>
        <time>2015-12-06T10:54:54Z</time>
      </trkpt>
      <trkpt lat="44.1357" lon="3.21803">
        <ele>603.5</ele>
        <time>2015-12-06T10:54:55Z</time>
      </trkpt>
      <trkpt lat="44.13572" lon="3.21803">
        <ele>604</ele>
        <time>2015-12-06T10:54:56Z</time>
      </trkpt>
      <trkpt lat="44.13574" lon="3.21803">
        <ele>604</ele>
        <time>2015-12-06T10:54:57Z</time>
      </trkpt>
      <trkpt lat="44.13576" lon="3.21803">
        <ele>604.5</ele>
        <time>2015-12-06T10:54:58Z</time>
      </trkpt>
      <trkpt lat="44.13578" lon="3.21804">
        <ele>605</ele>
        <time>2015-12-06T10:54:59Z</time>
      </trkpt>
      <trkpt lat="44.1358" lon="3.21805">
        <ele>605</ele>
        <time>2015-12-06T10:55:00Z</time>
      </trkpt>
      <trkpt lat="44.13582" lon="3.21805">
        <ele>605.5</ele>
        <time>2015-12-06T10:55:01Z</time>
      </trkpt>
      <trkpt lat="44.13584" lon="3.21805">
        <ele>606</ele>
        <time>2015-12-06T10:55:02Z</time>
      </trkpt>
      <trkpt lat="44.13585" lon="3.21802">
        <ele>607</ele>
        <time>2015-12-06T10:55:03Z</time>
      </trkpt>
      <trkpt lat="44.13587" lon="3.21801">
        <ele>607</ele>
        <time>2015-12-06T10:55:05Z</time>
      </trkpt>
      <trkpt lat="44.13589" lon="3.21802">
        <ele>607</ele>
        <time>2015-12-06T10:55:05Z</time>
      </trkpt>
      <trkpt lat="44.13591" lon="3.21802">
        <ele>607.5</ele>
        <time>2015-12-06T10:55:06Z</time>
      </trkpt>
      <trkpt lat="44.13593" lon="3.21801">
        <ele>607.5</ele>
        <time>2015-12-06T10:55:07Z</time>
      </trkpt>
      <trkpt lat="44.13595" lon="3.21801">
        <ele>607.5</ele>
        <time>2015-12-06T10:55:08Z</time>
      </trkpt>
      <trkpt lat="44.13597" lon="3.21801">
        <ele>607.5</ele>
        <time>2015-12-06T10:55:09Z</time>
      </trkpt>
      <trkpt lat="44.13599" lon="3.21801">
        <ele>607.5</ele>
        <time>2015-12-06T10:55:10Z</time>
      </trkpt>
      <trkpt lat="44.13601" lon="3.21801">
        <ele>608</ele>
        <time>2015-12-06T10:55:11Z</time>
      </trkpt>
      <trkpt lat="44.13603" lon="3.21801">
        <ele>608</ele>
        <time>2015-12-06T10:55:12Z</time>
      </trkpt>
      <trkpt lat="44.13605" lon="3.21801">
        <ele>608</ele>
        <time>2015-12-06T10:55:13Z</time>
      </trkpt>
      <trkpt lat="44.13607" lon="3.21802">
        <ele>608.5</ele>
        <time>2015-12-06T10:55:14Z</time>
      </trkpt>
      <trkpt lat="44.13609" lon="3.21802">
        <ele>608.5</ele>
        <time>2015-12-06T10:55:16Z</time>
      </trkpt>
      <trkpt lat="44.13611" lon="3.21802">
        <ele>608.5</ele>
        <time>2015-12-06T10:55:16Z</time>
      </trkpt>
      <trkpt lat="44.13614" lon="3.21803">
        <ele>608.5</ele>
        <time>2015-12-06T10:55:17Z</time>
      </trkpt>
      <trkpt lat="44.13616" lon="3.21803">
        <ele>608.5</ele>
        <time>2015-12-06T10:55:18Z</time>
      </trkpt>
      <trkpt lat="44.13617" lon="3.21804">
        <ele>608.5</ele>
        <time>2015-12-06T10:55:19Z</time>
      </trkpt>
      <trkpt lat="44.13619" lon="3.21804">
        <ele>609</ele>
        <time>2015-12-06T10:55:20Z</time>
      </trkpt>
      <trkpt lat="44.13621" lon="3.21804">
        <ele>609.5</ele>
        <time>2015-12-06T10:55:21Z</time>
      </trkpt>
      <trkpt lat="44.13623" lon="3.21804">
        <ele>609.5</ele>
        <time>2015-12-06T10:55:22Z</time>
      </trkpt>
      <trkpt lat="44.13624" lon="3.21804">
        <ele>609.5</ele>
        <time>2015-12-06T10:55:23Z</time>
      </trkpt>
      <trkpt lat="44.13626" lon="3.21805">
        <ele>610</ele>
        <time>2015-12-06T10:55:24Z</time>
      </trkpt>
      <trkpt lat="44.13628" lon="3.21805">
        <ele>610</ele>
        <time>2015-12-06T10:55:25Z</time>
      </trkpt>
      <trkpt lat="44.13631" lon="3.21807">
        <ele>610</ele>
        <time>2015-12-06T10:55:27Z</time>
      </trkpt>
      <trkpt lat="44.13632" lon="3.21806">
        <ele>610</ele>
        <time>2015-12-06T10:55:27Z</time>
      </trkpt>
      <trkpt lat="44.13634" lon="3.21807">
        <ele>610</ele>
        <time>2015-12-06T10:55:28Z</time>
      </trkpt>
      <trkpt lat="44.13636" lon="3.21808">
        <ele>610</ele>
        <time>2015-12-06T10:55:29Z</time>
      </trkpt>
      <trkpt lat="44.13638" lon="3.21808">
        <ele>609.5</ele>
        <time>2015-12-06T10:55:30Z</time>
      </trkpt>
      <trkpt lat="44.1364" lon="3.21809">
        <ele>609.5</ele>
        <time>2015-12-06T10:55:31Z</time>
      </trkpt>
      <trkpt lat="44.13642" lon="3.21809">
        <ele>609.5</ele>
        <time>2015-12-06T10:55:32Z</time>
      </trkpt>
      <trkpt lat="44.13643" lon="3.21807">
        <ele>609.5</ele>
        <time>2015-12-06T10:55:33Z</time>
      </trkpt>
      <trkpt lat="44.13644" lon="3.21805">
        <ele>610</ele>
        <time>2015-12-06T10:55:34Z</time>
      </trkpt>
      <trkpt lat="44.13646" lon="3.21806">
        <ele>610</ele>
        <time>2015-12-06T10:55:35Z</time>
      </trkpt>
      <trkpt lat="44.13648" lon="3.21805">
        <ele>610</ele>
        <time>2015-12-06T10:55:36Z</time>
      </trkpt>
      <trkpt lat="44.1365" lon="3.21805">
        <ele>610</ele>
        <time>2015-12-06T10:55:37Z</time>
      </trkpt>
      <trkpt lat="44.13651" lon="3.21805">
        <ele>610</ele>
        <time>2015-12-06T10:55:38Z</time>
      </trkpt>
      <trkpt lat="44.13652" lon="3.21805">
        <ele>610</ele>
        <time>2015-12-06T10:55:39Z</time>
      </trkpt>
      <trkpt lat="44.13653" lon="3.21805">
        <ele>610</ele>
        <time>2015-12-06T10:55:40Z</time>
      </trkpt>
      <trkpt lat="44.13655" lon="3.21803">
        <ele>610.5</ele>
        <time>2015-12-06T10:55:41Z</time>
      </trkpt>
      <trkpt lat="44.13656" lon="3.21802">
        <ele>610.5</ele>
        <time>2015-12-06T10:55:42Z</time>
      </trkpt>
      <trkpt lat="44.13657" lon="3.218">
        <ele>610.5</ele>
        <time>2015-12-06T10:55:43Z</time>
      </trkpt>
      <trkpt lat="44.13658" lon="3.21798">
        <ele>610.5</ele>
        <time>2015-12-06T10:55:44Z</time>
      </trkpt>
      <trkpt lat="44.13659" lon="3.21796">
        <ele>610.5</ele>
        <time>2015-12-06T10:55:45Z</time>
      </trkpt>
      <trkpt lat="44.1366" lon="3.21793">
        <ele>610.5</ele>
        <time>2015-12-06T10:55:46Z</time>
      </trkpt>
      <trkpt lat="44.13661" lon="3.2179">
        <ele>610.5</ele>
        <time>2015-12-06T10:55:47Z</time>
      </trkpt>
      <trkpt lat="44.13662" lon="3.21788">
        <ele>610.5</ele>
        <time>2015-12-06T10:55:48Z</time>
      </trkpt>
      <trkpt lat="44.13662" lon="3.21786">
        <ele>610.5</ele>
        <time>2015-12-06T10:55:49Z</time>
      </trkpt>
      <trkpt lat="44.13662" lon="3.21784">
        <ele>610.5</ele>
        <time>2015-12-06T10:55:50Z</time>
      </trkpt>
      <trkpt lat="44.13661" lon="3.21781">
        <ele>611.5</ele>
        <time>2015-12-06T10:55:51Z</time>
      </trkpt>
      <trkpt lat="44.13662" lon="3.2178">
        <ele>611.5</ele>
        <time>2015-12-06T10:55:52Z</time>
      </trkpt>
      <trkpt lat="44.13662" lon="3.2178">
        <ele>611.5</ele>
        <time>2015-12-06T10:55:53Z</time>
      </trkpt>
      <trkpt lat="44.13663" lon="3.21779">
        <ele>611.5</ele>
        <time>2015-12-06T10:55:54Z</time>
      </trkpt>
      <trkpt lat="44.13664" lon="3.21778">
        <ele>611</ele>
        <time>2015-12-06T10:55:55Z</time>
      </trkpt>
      <trkpt lat="44.13661" lon="3.21779">
        <ele>611</ele>
        <time>2015-12-06T10:55:56Z</time>
      </trkpt>
      <trkpt lat="44.1366" lon="3.21777">
        <ele>611</ele>
        <time>2015-12-06T10:55:57Z</time>
      </trkpt>
      <trkpt lat="44.13659" lon="3.21777">
        <ele>611.5</ele>
        <time>2015-12-06T10:55:58Z</time>
      </trkpt>
      <trkpt lat="44.13658" lon="3.21777">
        <ele>611.5</ele>
        <time>2015-12-06T10:55:59Z</time>
      </trkpt>
      <trkpt lat="44.13657" lon="3.21778">
        <ele>611</ele>
        <time>2015-12-06T10:56:00Z</time>
      </trkpt>
      <trkpt lat="44.13656" lon="3.21778">
        <ele>611</ele>
        <time>2015-12-06T10:56:01Z</time>
      </trkpt>
      <trkpt lat="44.13654" lon="3.21778">
        <ele>611</ele>
        <time>2015-12-06T10:56:02Z</time>
      </trkpt>
      <trkpt lat="44.13652" lon="3.21778">
        <ele>611.5</ele>
        <time>2015-12-06T10:56:03Z</time>
      </trkpt>
      <trkpt lat="44.1365" lon="3.21778">
        <ele>611.5</ele>
        <time>2015-12-06T10:56:04Z</time>
      </trkpt>
      <trkpt lat="44.13649" lon="3.21777">
        <ele>611.5</ele>
        <time>2015-12-06T10:56:05Z</time>
      </trkpt>
      <trkpt lat="44.13647" lon="3.21776">
        <ele>612</ele>
        <time>2015-12-06T10:56:06Z</time>
      </trkpt>
      <trkpt lat="44.13645" lon="3.21775">
        <ele>612.5</ele>
        <time>2015-12-06T10:56:07Z</time>
      </trkpt>
      <trkpt lat="44.13644" lon="3.21775">
        <ele>612.5</ele>
        <time>2015-12-06T10:56:08Z</time>
      </trkpt>
      <trkpt lat="44.13642" lon="3.21774">
        <ele>612.5</ele>
        <time>2015-12-06T10:56:09Z</time>
      </trkpt>
      <trkpt lat="44.13641" lon="3.21774">
        <ele>612.5</ele>
        <time>2015-12-06T10:56:10Z</time>
      </trkpt>
      <trkpt lat="44.13639" lon="3.21773">
        <ele>611.5</ele>
        <time>2015-12-06T10:56:11Z</time>
      </trkpt>
      <trkpt lat="44.13638" lon="3.21773">
        <ele>611.5</ele>
        <time>2015-12-06T10:56:12Z</time>
      </trkpt>
      <trkpt lat="44.13637" lon="3.21772">
        <ele>611</ele>
        <time>2015-12-06T10:56:13Z</time>
      </trkpt>
      <trkpt lat="44.13635" lon="3.21771">
        <ele>611</ele>
        <time>2015-12-06T10:56:14Z</time>
      </trkpt>
      <trkpt lat="44.13634" lon="3.21769">
        <ele>611</ele>
        <time>2015-12-06T10:56:15Z</time>
      </trkpt>
      <trkpt lat="44.13633" lon="3.21768">
        <ele>610.5</ele>
        <time>2015-12-06T10:56:16Z</time>
      </trkpt>
      <trkpt lat="44.13631" lon="3.21767">
        <ele>611</ele>
        <time>2015-12-06T10:56:17Z</time>
      </trkpt>
      <trkpt lat="44.13629" lon="3.21766">
        <ele>611.5</ele>
        <time>2015-12-06T10:56:18Z</time>
      </trkpt>
      <trkpt lat="44.13627" lon="3.21765">
        <ele>611.5</ele>
        <time>2015-12-06T10:56:19Z</time>
      </trkpt>
      <trkpt lat="44.13625" lon="3.21764">
        <ele>611.5</ele>
        <time>2015-12-06T10:56:20Z</time>
      </trkpt>
      <trkpt lat="44.13624" lon="3.21762">
        <ele>612.5</ele>
        <time>2015-12-06T10:56:21Z</time>
      </trkpt>
      <trkpt lat="44.13622" lon="3.21761">
        <ele>613.5</ele>
        <time>2015-12-06T10:56:22Z</time>
      </trkpt>
      <trkpt lat="44.1362" lon="3.21758">
        <ele>614</ele>
        <time>2015-12-06T10:56:23Z</time>
      </trkpt>
      <trkpt lat="44.13619" lon="3.21756">
        <ele>615.5</ele>
        <time>2015-12-06T10:56:24Z</time>
      </trkpt>
      <trkpt lat="44.13617" lon="3.21754">
        <ele>617</ele>
        <time>2015-12-06T10:56:25Z</time>
      </trkpt>
      <trkpt lat="44.13616" lon="3.21752">
        <ele>618</ele>
        <time>2015-12-06T10:56:26Z</time>
      </trkpt>
      <trkpt lat="44.13615" lon="3.2175">
        <ele>618.5</ele>
        <time>2015-12-06T10:56:27Z</time>
      </trkpt>
      <trkpt lat="44.13614" lon="3.21748">
        <ele>618.5</ele>
        <time>2015-12-06T10:56:28Z</time>
      </trkpt>
      <trkpt lat="44.13613" lon="3.21746">
        <ele>619.5</ele>
        <time>2015-12-06T10:56:29Z</time>
      </trkpt>
      <trkpt lat="44.13613" lon="3.21743">
        <ele>619.5</ele>
        <time>2015-12-06T10:56:30Z</time>
      </trkpt>
      <trkpt lat="44.13612" lon="3.21741">
        <ele>621</ele>
        <time>2015-12-06T10:56:31Z</time>
      </trkpt>
      <trkpt lat="44.13612" lon="3.21739">
        <ele>622</ele>
        <time>2015-12-06T10:56:32Z</time>
      </trkpt>
      <trkpt lat="44.13613" lon="3.21739">
        <ele>622.5</ele>
        <time>2015-12-06T10:56:33Z</time>
      </trkpt>
      <trkpt lat="44.13614" lon="3.21738">
        <ele>622.5</ele>
        <time>2015-12-06T10:56:34Z</time>
      </trkpt>
      <trkpt lat="44.13616" lon="3.21738">
        <ele>622</ele>
        <time>2015-12-06T10:56:35Z</time>
      </trkpt>
      <trkpt lat="44.13617" lon="3.21739">
        <ele>622.5</ele>
        <time>2015-12-06T10:56:36Z</time>
      </trkpt>
      <trkpt lat="44.13618" lon="3.21739">
        <ele>624</ele>
        <time>2015-12-06T10:56:37Z</time>
      </trkpt>
      <trkpt lat="44.1362" lon="3.21741">
        <ele>625</ele>
        <time>2015-12-06T10:56:38Z</time>
      </trkpt>
      <trkpt lat="44.13622" lon="3.21742">
        <ele>625</ele>
        <time>2015-12-06T10:56:39Z</time>
      </trkpt>
      <trkpt lat="44.13624" lon="3.21744">
        <ele>624</ele>
        <time>2015-12-06T10:56:40Z</time>
      </trkpt>
      <trkpt lat="44.13626" lon="3.21744">
        <ele>623.5</ele>
        <time>2015-12-06T10:56:41Z</time>
      </trkpt>
      <trkpt lat="44.13628" lon="3.21745">
        <ele>623.5</ele>
        <time>2015-12-06T10:56:42Z</time>
      </trkpt>
      <trkpt lat="44.1363" lon="3.21746">
        <ele>624</ele>
        <time>2015-12-06T10:56:43Z</time>
      </trkpt>
      <trkpt lat="44.13631" lon="3.21748">
        <ele>625.5</ele>
        <time>2015-12-06T10:56:44Z</time>
      </trkpt>
      <trkpt lat="44.13633" lon="3.21749">
        <ele>625.5</ele>
        <time>2015-12-06T10:56:45Z</time>
      </trkpt>
      <trkpt lat="44.13635" lon="3.2175">
        <ele>624</ele>
        <time>2015-12-06T10:56:46Z</time>
      </trkpt>
      <trkpt lat="44.13636" lon="3.21751">
        <ele>626</ele>
        <time>2015-12-06T10:56:47Z</time>
      </trkpt>
      <trkpt lat="44.13639" lon="3.21753">
        <ele>625</ele>
        <time>2015-12-06T10:56:48Z</time>
      </trkpt>
      <trkpt lat="44.13641" lon="3.21754">
        <ele>626</ele>
        <time>2015-12-06T10:56:49Z</time>
      </trkpt>
      <trkpt lat="44.13643" lon="3.21756">
        <ele>626.5</ele>
        <time>2015-12-06T10:56:50Z</time>
      </trkpt>
      <trkpt lat="44.13644" lon="3.21758">
        <ele>627</ele>
        <time>2015-12-06T10:56:51Z</time>
      </trkpt>
      <trkpt lat="44.13646" lon="3.21756">
        <ele>626.5</ele>
        <time>2015-12-06T10:56:52Z</time>
      </trkpt>
      <trkpt lat="44.13648" lon="3.21757">
        <ele>627</ele>
        <time>2015-12-06T10:56:53Z</time>
      </trkpt>
      <trkpt lat="44.1365" lon="3.21758">
        <ele>627</ele>
        <time>2015-12-06T10:56:54Z</time>
      </trkpt>
      <trkpt lat="44.13652" lon="3.21759">
        <ele>627.5</ele>
        <time>2015-12-06T10:56:55Z</time>
      </trkpt>
      <trkpt lat="44.13654" lon="3.2176">
        <ele>627.5</ele>
        <time>2015-12-06T10:56:56Z</time>
      </trkpt>
      <trkpt lat="44.13656" lon="3.21762">
        <ele>627.5</ele>
        <time>2015-12-06T10:56:57Z</time>
      </trkpt>
      <trkpt lat="44.13658" lon="3.21763">
        <ele>627.5</ele>
        <time>2015-12-06T10:56:58Z</time>
      </trkpt>
      <trkpt lat="44.1366" lon="3.21765">
        <ele>627.5</ele>
        <time>2015-12-06T10:56:59Z</time>
      </trkpt>
      <trkpt lat="44.13663" lon="3.21766">
        <ele>627.5</ele>
        <time>2015-12-06T10:57:00Z</time>
      </trkpt>
      <trkpt lat="44.13664" lon="3.21766">
        <ele>627.5</ele>
        <time>2015-12-06T10:57:01Z</time>
      </trkpt>
      <trkpt lat="44.13666" lon="3.21767">
        <ele>628.5</ele>
        <time>2015-12-06T10:57:02Z</time>
      </trkpt>
      <trkpt lat="44.13667" lon="3.21767">
        <ele>630</ele>
        <time>2015-12-06T10:57:03Z</time>
      </trkpt>
      <trkpt lat="44.13668" lon="3.21767">
        <ele>632</ele>
        <time>2015-12-06T10:57:04Z</time>
      </trkpt>
      <trkpt lat="44.13671" lon="3.21768">
        <ele>631</ele>
        <time>2015-12-06T10:57:05Z</time>
      </trkpt>
      <trkpt lat="44.13673" lon="3.21768">
        <ele>632</ele>
        <time>2015-12-06T10:57:06Z</time>
      </trkpt>
      <trkpt lat="44.13675" lon="3.21769">
        <ele>632.5</ele>
        <time>2015-12-06T10:57:07Z</time>
      </trkpt>
      <trkpt lat="44.13677" lon="3.21769">
        <ele>633.5</ele>
        <time>2015-12-06T10:57:08Z</time>
      </trkpt>
      <trkpt lat="44.13679" lon="3.2177">
        <ele>632.5</ele>
        <time>2015-12-06T10:57:09Z</time>
      </trkpt>
      <trkpt lat="44.13682" lon="3.21771">
        <ele>632.5</ele>
        <time>2015-12-06T10:57:10Z</time>
      </trkpt>
      <trkpt lat="44.13684" lon="3.21771">
        <ele>633</ele>
        <time>2015-12-06T10:57:11Z</time>
      </trkpt>
      <trkpt lat="44.13687" lon="3.21771">
        <ele>631.5</ele>
        <time>2015-12-06T10:57:12Z</time>
      </trkpt>
      <trkpt lat="44.1369" lon="3.21772">
        <ele>630</ele>
        <time>2015-12-06T10:57:13Z</time>
      </trkpt>
      <trkpt lat="44.13693" lon="3.21772">
        <ele>630</ele>
        <time>2015-12-06T10:57:14Z</time>
      </trkpt>
      <trkpt lat="44.13695" lon="3.21771">
        <ele>629.5</ele>
        <time>2015-12-06T10:57:15Z</time>
      </trkpt>
      <trkpt lat="44.13697" lon="3.21771">
        <ele>629.5</ele>
        <time>2015-12-06T10:57:16Z</time>
      </trkpt>
      <trkpt lat="44.13699" lon="3.2177">
        <ele>629.5</ele>
        <time>2015-12-06T10:57:17Z</time>
      </trkpt>
      <trkpt lat="44.13701" lon="3.21769">
        <ele>630</ele>
        <time>2015-12-06T10:57:18Z</time>
      </trkpt>
      <trkpt lat="44.13703" lon="3.21768">
        <ele>630</ele>
        <time>2015-12-06T10:57:19Z</time>
      </trkpt>
      <trkpt lat="44.13705" lon="3.21767">
        <ele>630</ele>
        <time>2015-12-06T10:57:20Z</time>
      </trkpt>
      <trkpt lat="44.13707" lon="3.21766">
        <ele>630.5</ele>
        <time>2015-12-06T10:57:21Z</time>
      </trkpt>
      <trkpt lat="44.13708" lon="3.21764">
        <ele>630.5</ele>
        <time>2015-12-06T10:57:22Z</time>
      </trkpt>
      <trkpt lat="44.1371" lon="3.21763">
        <ele>630.5</ele>
        <time>2015-12-06T10:57:23Z</time>
      </trkpt>
      <trkpt lat="44.13712" lon="3.21762">
        <ele>631</ele>
        <time>2015-12-06T10:57:24Z</time>
      </trkpt>
      <trkpt lat="44.13713" lon="3.2176">
        <ele>631</ele>
        <time>2015-12-06T10:57:25Z</time>
      </trkpt>
      <trkpt lat="44.13715" lon="3.21758">
        <ele>631</ele>
        <time>2015-12-06T10:57:26Z</time>
      </trkpt>
      <trkpt lat="44.13716" lon="3.21756">
        <ele>631.5</ele>
        <time>2015-12-06T10:57:27Z</time>
      </trkpt>
      <trkpt lat="44.13717" lon="3.21754">
        <ele>631.5</ele>
        <time>2015-12-06T10:57:28Z</time>
      </trkpt>
      <trkpt lat="44.13719" lon="3.21752">
        <ele>631.5</ele>
        <time>2015-12-06T10:57:29Z</time>
      </trkpt>
      <trkpt lat="44.13719" lon="3.2175">
        <ele>633.5</ele>
        <time>2015-12-06T10:57:30Z</time>
      </trkpt>
      <trkpt lat="44.1372" lon="3.21747">
        <ele>633.5</ele>
        <time>2015-12-06T10:57:31Z</time>
      </trkpt>
      <trkpt lat="44.13721" lon="3.21745">
        <ele>633.5</ele>
        <time>2015-12-06T10:57:32Z</time>
      </trkpt>
      <trkpt lat="44.13721" lon="3.21741">
        <ele>633.5</ele>
        <time>2015-12-06T10:57:33Z</time>
      </trkpt>
      <trkpt lat="44.13722" lon="3.21739">
        <ele>633.5</ele>
        <time>2015-12-06T10:57:34Z</time>
      </trkpt>
      <trkpt lat="44.13723" lon="3.21737">
        <ele>633.5</ele>
        <time>2015-12-06T10:57:35Z</time>
      </trkpt>
      <trkpt lat="44.13723" lon="3.21735">
        <ele>633.5</ele>
        <time>2015-12-06T10:57:36Z</time>
      </trkpt>
      <trkpt lat="44.13725" lon="3.21733">
        <ele>633.5</ele>
        <time>2015-12-06T10:57:37Z</time>
      </trkpt>
      <trkpt lat="44.13726" lon="3.21731">
        <ele>633</ele>
        <time>2015-12-06T10:57:38Z</time>
      </trkpt>
      <trkpt lat="44.13728" lon="3.21728">
        <ele>631.5</ele>
        <time>2015-12-06T10:57:39Z</time>
      </trkpt>
      <trkpt lat="44.1373" lon="3.21727">
        <ele>631</ele>
        <time>2015-12-06T10:57:40Z</time>
      </trkpt>
      <trkpt lat="44.13731" lon="3.21724">
        <ele>630.5</ele>
        <time>2015-12-06T10:57:41Z</time>
      </trkpt>
      <trkpt lat="44.13732" lon="3.21721">
        <ele>630.5</ele>
        <time>2015-12-06T10:57:42Z</time>
      </trkpt>
      <trkpt lat="44.13733" lon="3.21718">
        <ele>630</ele>
        <time>2015-12-06T10:57:43Z</time>
      </trkpt>
      <trkpt lat="44.13734" lon="3.21716">
        <ele>629.5</ele>
        <time>2015-12-06T10:57:44Z</time>
      </trkpt>
      <trkpt lat="44.13735" lon="3.21714">
        <ele>630.5</ele>
        <time>2015-12-06T10:57:45Z</time>
      </trkpt>
      <trkpt lat="44.13737" lon="3.21711">
        <ele>631.5</ele>
        <time>2015-12-06T10:57:46Z</time>
      </trkpt>
      <trkpt lat="44.13738" lon="3.21709">
        <ele>631.5</ele>
        <time>2015-12-06T10:57:47Z</time>
      </trkpt>
      <trkpt lat="44.13738" lon="3.21706">
        <ele>632</ele>
        <time>2015-12-06T10:57:48Z</time>
      </trkpt>
      <trkpt lat="44.13739" lon="3.21704">
        <ele>632</ele>
        <time>2015-12-06T10:57:49Z</time>
      </trkpt>
      <trkpt lat="44.13742" lon="3.21704">
        <ele>632.5</ele>
        <time>2015-12-06T10:57:50Z</time>
      </trkpt>
      <trkpt lat="44.13743" lon="3.21702">
        <ele>632.5</ele>
        <time>2015-12-06T10:57:51Z</time>
      </trkpt>
      <trkpt lat="44.13744" lon="3.217">
        <ele>632.5</ele>
        <time>2015-12-06T10:57:52Z</time>
      </trkpt>
      <trkpt lat="44.13745" lon="3.21698">
        <ele>632.5</ele>
        <time>2015-12-06T10:57:53Z</time>
      </trkpt>
      <trkpt lat="44.13746" lon="3.21696">
        <ele>632.5</ele>
        <time>2015-12-06T10:57:54Z</time>
      </trkpt>
      <trkpt lat="44.1375" lon="3.21696">
        <ele>632.5</ele>
        <time>2015-12-06T10:57:55Z</time>
      </trkpt>
      <trkpt lat="44.13752" lon="3.21696">
        <ele>632.5</ele>
        <time>2015-12-06T10:57:56Z</time>
      </trkpt>
      <trkpt lat="44.13755" lon="3.21696">
        <ele>633</ele>
        <time>2015-12-06T10:57:57Z</time>
      </trkpt>
      <trkpt lat="44.13756" lon="3.21696">
        <ele>633.5</ele>
        <time>2015-12-06T10:57:58Z</time>
      </trkpt>
      <trkpt lat="44.13757" lon="3.21695">
        <ele>633.5</ele>
        <time>2015-12-06T10:57:59Z</time>
      </trkpt>
      <trkpt lat="44.13758" lon="3.21695">
        <ele>633.5</ele>
        <time>2015-12-06T10:57:59Z</time>
      </trkpt>
      <trkpt lat="44.1376" lon="3.21695">
        <ele>634.5</ele>
        <time>2015-12-06T10:58:01Z</time>
      </trkpt>
      <trkpt lat="44.13761" lon="3.21695">
        <ele>635</ele>
        <time>2015-12-06T10:58:01Z</time>
      </trkpt>
      <trkpt lat="44.13768" lon="3.21697">
        <ele>635</ele>
        <time>2015-12-06T10:58:03Z</time>
      </trkpt>
      <trkpt lat="44.1377" lon="3.21697">
        <ele>634.5</ele>
        <time>2015-12-06T10:58:04Z</time>
      </trkpt>
      <trkpt lat="44.13773" lon="3.21699">
        <ele>635</ele>
        <time>2015-12-06T10:58:05Z</time>
      </trkpt>
      <trkpt lat="44.13775" lon="3.21699">
        <ele>635.5</ele>
        <time>2015-12-06T10:58:06Z</time>
      </trkpt>
      <trkpt lat="44.13777" lon="3.217">
        <ele>635.5</ele>
        <time>2015-12-06T10:58:07Z</time>
      </trkpt>
      <trkpt lat="44.13779" lon="3.217">
        <ele>635.5</ele>
        <time>2015-12-06T10:58:08Z</time>
      </trkpt>
      <trkpt lat="44.1378" lon="3.217">
        <ele>638</ele>
        <time>2015-12-06T10:58:09Z</time>
      </trkpt>
      <trkpt lat="44.13781" lon="3.21699">
        <ele>638.5</ele>
        <time>2015-12-06T10:58:10Z</time>
      </trkpt>
      <trkpt lat="44.13783" lon="3.21699">
        <ele>638.5</ele>
        <time>2015-12-06T10:58:11Z</time>
      </trkpt>
      <trkpt lat="44.13785" lon="3.217">
        <ele>639.5</ele>
        <time>2015-12-06T10:58:12Z</time>
      </trkpt>
      <trkpt lat="44.13785" lon="3.21699">
        <ele>642.5</ele>
        <time>2015-12-06T10:58:13Z</time>
      </trkpt>
      <trkpt lat="44.13785" lon="3.21698">
        <ele>644.5</ele>
        <time>2015-12-06T10:58:14Z</time>
      </trkpt>
      <trkpt lat="44.13786" lon="3.21698">
        <ele>645.5</ele>
        <time>2015-12-06T10:58:15Z</time>
      </trkpt>
      <trkpt lat="44.13791" lon="3.21701">
        <ele>643.5</ele>
        <time>2015-12-06T10:58:17Z</time>
      </trkpt>
      <trkpt lat="44.13793" lon="3.21703">
        <ele>643</ele>
        <time>2015-12-06T10:58:18Z</time>
      </trkpt>
      <trkpt lat="44.13795" lon="3.21704">
        <ele>641.5</ele>
        <time>2015-12-06T10:58:19Z</time>
      </trkpt>
      <trkpt lat="44.13797" lon="3.21704">
        <ele>640.5</ele>
        <time>2015-12-06T10:58:20Z</time>
      </trkpt>
      <trkpt lat="44.13799" lon="3.21706">
        <ele>640.5</ele>
        <time>2015-12-06T10:58:21Z</time>
      </trkpt>
      <trkpt lat="44.13801" lon="3.21708">
        <ele>639.5</ele>
        <time>2015-12-06T10:58:22Z</time>
      </trkpt>
      <trkpt lat="44.13803" lon="3.2171">
        <ele>639.5</ele>
        <time>2015-12-06T10:58:23Z</time>
      </trkpt>
      <trkpt lat="44.13805" lon="3.21712">
        <ele>640</ele>
        <time>2015-12-06T10:58:24Z</time>
      </trkpt>
      <trkpt lat="44.13807" lon="3.21714">
        <ele>640.5</ele>
        <time>2015-12-06T10:58:25Z</time>
      </trkpt>
      <trkpt lat="44.13809" lon="3.21715">
        <ele>638.5</ele>
        <time>2015-12-06T10:58:26Z</time>
      </trkpt>
      <trkpt lat="44.13815" lon="3.2172">
        <ele>636</ele>
        <time>2015-12-06T10:58:28Z</time>
      </trkpt>
      <trkpt lat="44.13816" lon="3.21722">
        <ele>636.5</ele>
        <time>2015-12-06T10:58:29Z</time>
      </trkpt>
      <trkpt lat="44.13818" lon="3.21722">
        <ele>637</ele>
        <time>2015-12-06T10:58:30Z</time>
      </trkpt>
      <trkpt lat="44.13819" lon="3.21723">
        <ele>638</ele>
        <time>2015-12-06T10:58:31Z</time>
      </trkpt>
      <trkpt lat="44.13821" lon="3.21725">
        <ele>637.5</ele>
        <time>2015-12-06T10:58:32Z</time>
      </trkpt>
      <trkpt lat="44.13824" lon="3.21727">
        <ele>637.5</ele>
        <time>2015-12-06T10:58:33Z</time>
      </trkpt>
      <trkpt lat="44.13827" lon="3.21729">
        <ele>634.5</ele>
        <time>2015-12-06T10:58:35Z</time>
      </trkpt>
      <trkpt lat="44.13829" lon="3.21731">
        <ele>633.5</ele>
        <time>2015-12-06T10:58:35Z</time>
      </trkpt>
      <trkpt lat="44.13831" lon="3.21732">
        <ele>632.5</ele>
        <time>2015-12-06T10:58:36Z</time>
      </trkpt>
      <trkpt lat="44.13833" lon="3.21733">
        <ele>631</ele>
        <time>2015-12-06T10:58:37Z</time>
      </trkpt>
      <trkpt lat="44.13835" lon="3.21733">
        <ele>631.5</ele>
        <time>2015-12-06T10:58:38Z</time>
      </trkpt>
      <trkpt lat="44.13836" lon="3.21734">
        <ele>632</ele>
        <time>2015-12-06T10:58:39Z</time>
      </trkpt>
      <trkpt lat="44.13837" lon="3.21736">
        <ele>632</ele>
        <time>2015-12-06T10:58:40Z</time>
      </trkpt>
      <trkpt lat="44.13842" lon="3.21739">
        <ele>633.5</ele>
        <time>2015-12-06T10:58:42Z</time>
      </trkpt>
      <trkpt lat="44.13843" lon="3.21739">
        <ele>635</ele>
        <time>2015-12-06T10:58:43Z</time>
      </trkpt>
      <trkpt lat="44.13843" lon="3.21739">
        <ele>636.5</ele>
        <time>2015-12-06T10:58:44Z</time>
      </trkpt>
      <trkpt lat="44.13844" lon="3.21739">
        <ele>638</ele>
        <time>2015-12-06T10:58:45Z</time>
      </trkpt>
      <trkpt lat="44.13846" lon="3.21739">
        <ele>638.5</ele>
        <time>2015-12-06T10:58:46Z</time>
      </trkpt>
      <trkpt lat="44.13847" lon="3.21739">
        <ele>639.5</ele>
        <time>2015-12-06T10:58:47Z</time>
      </trkpt>
      <trkpt lat="44.13849" lon="3.2174">
        <ele>639.5</ele>
        <time>2015-12-06T10:58:48Z</time>
      </trkpt>
      <trkpt lat="44.1385" lon="3.2174">
        <ele>640</ele>
        <time>2015-12-06T10:58:49Z</time>
      </trkpt>
      <trkpt lat="44.13851" lon="3.21739">
        <ele>641</ele>
        <time>2015-12-06T10:58:50Z</time>
      </trkpt>
      <trkpt lat="44.13852" lon="3.21738">
        <ele>642</ele>
        <time>2015-12-06T10:58:51Z</time>
      </trkpt>
      <trkpt lat="44.13854" lon="3.21738">
        <ele>643</ele>
        <time>2015-12-06T10:58:52Z</time>
      </trkpt>
      <trkpt lat="44.13855" lon="3.21737">
        <ele>643.5</ele>
        <time>2015-12-06T10:58:53Z</time>
      </trkpt>
      <trkpt lat="44.13856" lon="3.21736">
        <ele>646</ele>
        <time>2015-12-06T10:58:54Z</time>
      </trkpt>
      <trkpt lat="44.13856" lon="3.21734">
        <ele>648</ele>
        <time>2015-12-06T10:58:56Z</time>
      </trkpt>
      <trkpt lat="44.13857" lon="3.21732">
        <ele>648</ele>
        <time>2015-12-06T10:58:56Z</time>
      </trkpt>
      <trkpt lat="44.13859" lon="3.21731">
        <ele>648.5</ele>
        <time>2015-12-06T10:58:57Z</time>
      </trkpt>
      <trkpt lat="44.1386" lon="3.21729">
        <ele>649.5</ele>
        <time>2015-12-06T10:58:58Z</time>
      </trkpt>
      <trkpt lat="44.13861" lon="3.21727">
        <ele>650</ele>
        <time>2015-12-06T10:59:00Z</time>
      </trkpt>
      <trkpt lat="44.13863" lon="3.21724">
        <ele>649.5</ele>
        <time>2015-12-06T10:59:01Z</time>
      </trkpt>
      <trkpt lat="44.13865" lon="3.21723">
        <ele>650</ele>
        <time>2015-12-06T10:59:02Z</time>
      </trkpt>
      <trkpt lat="44.13866" lon="3.2172">
        <ele>650</ele>
        <time>2015-12-06T10:59:03Z</time>
      </trkpt>
      <trkpt lat="44.13867" lon="3.21718">
        <ele>649.5</ele>
        <time>2015-12-06T10:59:05Z</time>
      </trkpt>
      <trkpt lat="44.13867" lon="3.21715">
        <ele>650</ele>
        <time>2015-12-06T10:59:05Z</time>
      </trkpt>
      <trkpt lat="44.13867" lon="3.21713">
        <ele>648.5</ele>
        <time>2015-12-06T10:59:06Z</time>
      </trkpt>
      <trkpt lat="44.13868" lon="3.2171">
        <ele>649</ele>
        <time>2015-12-06T10:59:07Z</time>
      </trkpt>
      <trkpt lat="44.13868" lon="3.21707">
        <ele>648.5</ele>
        <time>2015-12-06T10:59:08Z</time>
      </trkpt>
      <trkpt lat="44.13869" lon="3.21705">
        <ele>648.5</ele>
        <time>2015-12-06T10:59:09Z</time>
      </trkpt>
      <trkpt lat="44.1387" lon="3.21703">
        <ele>648.5</ele>
        <time>2015-12-06T10:59:10Z</time>
      </trkpt>
      <trkpt lat="44.13871" lon="3.21701">
        <ele>648</ele>
        <time>2015-12-06T10:59:11Z</time>
      </trkpt>
      <trkpt lat="44.13873" lon="3.21698">
        <ele>648</ele>
        <time>2015-12-06T10:59:12Z</time>
      </trkpt>
      <trkpt lat="44.13874" lon="3.21697">
        <ele>648</ele>
        <time>2015-12-06T10:59:13Z</time>
      </trkpt>
      <trkpt lat="44.13875" lon="3.21695">
        <ele>647.5</ele>
        <time>2015-12-06T10:59:14Z</time>
      </trkpt>
      <trkpt lat="44.13876" lon="3.21693">
        <ele>647.5</ele>
        <time>2015-12-06T10:59:15Z</time>
      </trkpt>
      <trkpt lat="44.13876" lon="3.21691">
        <ele>647</ele>
        <time>2015-12-06T10:59:16Z</time>
      </trkpt>
      <trkpt lat="44.13877" lon="3.21688">
        <ele>647</ele>
        <time>2015-12-06T10:59:17Z</time>
      </trkpt>
      <trkpt lat="44.13878" lon="3.21686">
        <ele>647</ele>
        <time>2015-12-06T10:59:18Z</time>
      </trkpt>
      <trkpt lat="44.13878" lon="3.21684">
        <ele>646</ele>
        <time>2015-12-06T10:59:19Z</time>
      </trkpt>
      <trkpt lat="44.1388" lon="3.21681">
        <ele>646.5</ele>
        <time>2015-12-06T10:59:20Z</time>
      </trkpt>
      <trkpt lat="44.1388" lon="3.21679">
        <ele>646.5</ele>
        <time>2015-12-06T10:59:21Z</time>
      </trkpt>
      <trkpt lat="44.13882" lon="3.21677">
        <ele>646.5</ele>
        <time>2015-12-06T10:59:22Z</time>
      </trkpt>
      <trkpt lat="44.13884" lon="3.21676">
        <ele>646.5</ele>
        <time>2015-12-06T10:59:23Z</time>
      </trkpt>
      <trkpt lat="44.13886" lon="3.21676">
        <ele>648</ele>
        <time>2015-12-06T10:59:24Z</time>
      </trkpt>
      <trkpt lat="44.13887" lon="3.21673">
        <ele>647.5</ele>
        <time>2015-12-06T10:59:25Z</time>
      </trkpt>
      <trkpt lat="44.13888" lon="3.21671">
        <ele>648.5</ele>
        <time>2015-12-06T10:59:26Z</time>
      </trkpt>
      <trkpt lat="44.13889" lon="3.2167">
        <ele>648.5</ele>
        <time>2015-12-06T10:59:27Z</time>
      </trkpt>
      <trkpt lat="44.13891" lon="3.21668">
        <ele>650</ele>
        <time>2015-12-06T10:59:28Z</time>
      </trkpt>
      <trkpt lat="44.13892" lon="3.21666">
        <ele>650</ele>
        <time>2015-12-06T10:59:29Z</time>
      </trkpt>
      <trkpt lat="44.13894" lon="3.21665">
        <ele>651</ele>
        <time>2015-12-06T10:59:30Z</time>
      </trkpt>
      <trkpt lat="44.13896" lon="3.21664">
        <ele>651.5</ele>
        <time>2015-12-06T10:59:31Z</time>
      </trkpt>
      <trkpt lat="44.13897" lon="3.21662">
        <ele>651.5</ele>
        <time>2015-12-06T10:59:32Z</time>
      </trkpt>
      <trkpt lat="44.13899" lon="3.21661">
        <ele>653.5</ele>
        <time>2015-12-06T10:59:33Z</time>
      </trkpt>
      <trkpt lat="44.139" lon="3.21659">
        <ele>653.5</ele>
        <time>2015-12-06T10:59:34Z</time>
      </trkpt>
      <trkpt lat="44.13902" lon="3.21658">
        <ele>654.5</ele>
        <time>2015-12-06T10:59:35Z</time>
      </trkpt>
      <trkpt lat="44.13904" lon="3.21657">
        <ele>655.5</ele>
        <time>2015-12-06T10:59:36Z</time>
      </trkpt>
      <trkpt lat="44.13905" lon="3.21656">
        <ele>657</ele>
        <time>2015-12-06T10:59:37Z</time>
      </trkpt>
      <trkpt lat="44.13907" lon="3.21654">
        <ele>657</ele>
        <time>2015-12-06T10:59:38Z</time>
      </trkpt>
      <trkpt lat="44.13911" lon="3.21654">
        <ele>659.5</ele>
        <time>2015-12-06T10:59:39Z</time>
      </trkpt>
      <trkpt lat="44.13913" lon="3.21653">
        <ele>660</ele>
        <time>2015-12-06T10:59:40Z</time>
      </trkpt>
      <trkpt lat="44.13915" lon="3.21653">
        <ele>660</ele>
        <time>2015-12-06T10:59:41Z</time>
      </trkpt>
      <trkpt lat="44.13917" lon="3.21652">
        <ele>662</ele>
        <time>2015-12-06T10:59:42Z</time>
      </trkpt>
      <trkpt lat="44.13918" lon="3.21651">
        <ele>662</ele>
        <time>2015-12-06T10:59:43Z</time>
      </trkpt>
      <trkpt lat="44.1392" lon="3.2165">
        <ele>661.5</ele>
        <time>2015-12-06T10:59:44Z</time>
      </trkpt>
      <trkpt lat="44.13922" lon="3.2165">
        <ele>662</ele>
        <time>2015-12-06T10:59:45Z</time>
      </trkpt>
      <trkpt lat="44.13923" lon="3.2165">
        <ele>664</ele>
        <time>2015-12-06T10:59:46Z</time>
      </trkpt>
      <trkpt lat="44.13924" lon="3.21649">
        <ele>666</ele>
        <time>2015-12-06T10:59:47Z</time>
      </trkpt>
      <trkpt lat="44.13926" lon="3.21649">
        <ele>666.5</ele>
        <time>2015-12-06T10:59:48Z</time>
      </trkpt>
      <trkpt lat="44.13929" lon="3.2165">
        <ele>665.5</ele>
        <time>2015-12-06T10:59:49Z</time>
      </trkpt>
      <trkpt lat="44.13931" lon="3.2165">
        <ele>664.5</ele>
        <time>2015-12-06T10:59:50Z</time>
      </trkpt>
      <trkpt lat="44.13934" lon="3.2165">
        <ele>664.5</ele>
        <time>2015-12-06T10:59:51Z</time>
      </trkpt>
      <trkpt lat="44.13937" lon="3.21651">
        <ele>662</ele>
        <time>2015-12-06T10:59:52Z</time>
      </trkpt>
      <trkpt lat="44.13939" lon="3.21649">
        <ele>660.5</ele>
        <time>2015-12-06T10:59:53Z</time>
      </trkpt>
      <trkpt lat="44.13942" lon="3.21649">
        <ele>658</ele>
        <time>2015-12-06T10:59:54Z</time>
      </trkpt>
      <trkpt lat="44.13944" lon="3.2165">
        <ele>658.5</ele>
        <time>2015-12-06T10:59:55Z</time>
      </trkpt>
      <trkpt lat="44.13946" lon="3.21649">
        <ele>657</ele>
        <time>2015-12-06T10:59:56Z</time>
      </trkpt>
      <trkpt lat="44.13948" lon="3.21649">
        <ele>656.5</ele>
        <time>2015-12-06T10:59:57Z</time>
      </trkpt>
      <trkpt lat="44.1395" lon="3.2165">
        <ele>657</ele>
        <time>2015-12-06T10:59:58Z</time>
      </trkpt>
      <trkpt lat="44.13952" lon="3.2165">
        <ele>657.5</ele>
        <time>2015-12-06T10:59:59Z</time>
      </trkpt>
      <trkpt lat="44.13954" lon="3.2165">
        <ele>657.5</ele>
        <time>2015-12-06T11:00:00Z</time>
      </trkpt>
      <trkpt lat="44.13956" lon="3.21651">
        <ele>656.5</ele>
        <time>2015-12-06T11:00:01Z</time>
      </trkpt>
      <trkpt lat="44.13958" lon="3.21651">
        <ele>657</ele>
        <time>2015-12-06T11:00:02Z</time>
      </trkpt>
      <trkpt lat="44.1396" lon="3.21651">
        <ele>658</ele>
        <time>2015-12-06T11:00:03Z</time>
      </trkpt>
      <trkpt lat="44.13961" lon="3.21651">
        <ele>659</ele>
        <time>2015-12-06T11:00:04Z</time>
      </trkpt>
      <trkpt lat="44.13963" lon="3.21651">
        <ele>659.5</ele>
        <time>2015-12-06T11:00:05Z</time>
      </trkpt>
      <trkpt lat="44.13964" lon="3.21651">
        <ele>660.5</ele>
        <time>2015-12-06T11:00:06Z</time>
      </trkpt>
      <trkpt lat="44.13966" lon="3.21651">
        <ele>661</ele>
        <time>2015-12-06T11:00:07Z</time>
      </trkpt>
      <trkpt lat="44.13968" lon="3.21651">
        <ele>662.5</ele>
        <time>2015-12-06T11:00:08Z</time>
      </trkpt>
      <trkpt lat="44.1397" lon="3.21652">
        <ele>662</ele>
        <time>2015-12-06T11:00:09Z</time>
      </trkpt>
      <trkpt lat="44.13972" lon="3.21652">
        <ele>662.5</ele>
        <time>2015-12-06T11:00:10Z</time>
      </trkpt>
      <trkpt lat="44.13975" lon="3.21653">
        <ele>661</ele>
        <time>2015-12-06T11:00:11Z</time>
      </trkpt>
      <trkpt lat="44.13977" lon="3.21654">
        <ele>660</ele>
        <time>2015-12-06T11:00:12Z</time>
      </trkpt>
      <trkpt lat="44.1398" lon="3.21654">
        <ele>659.5</ele>
        <time>2015-12-06T11:00:13Z</time>
      </trkpt>
      <trkpt lat="44.13982" lon="3.21655">
        <ele>659</ele>
        <time>2015-12-06T11:00:14Z</time>
      </trkpt>
      <trkpt lat="44.13984" lon="3.21656">
        <ele>658.5</ele>
        <time>2015-12-06T11:00:15Z</time>
      </trkpt>
      <trkpt lat="44.13986" lon="3.21656">
        <ele>658.5</ele>
        <time>2015-12-06T11:00:16Z</time>
      </trkpt>
      <trkpt lat="44.13989" lon="3.21656">
        <ele>658</ele>
        <time>2015-12-06T11:00:17Z</time>
      </trkpt>
      <trkpt lat="44.13991" lon="3.21657">
        <ele>657.5</ele>
        <time>2015-12-06T11:00:18Z</time>
      </trkpt>
      <trkpt lat="44.13993" lon="3.21657">
        <ele>657.5</ele>
        <time>2015-12-06T11:00:19Z</time>
      </trkpt>
      <trkpt lat="44.13996" lon="3.21658">
        <ele>656.5</ele>
        <time>2015-12-06T11:00:20Z</time>
      </trkpt>
      <trkpt lat="44.13998" lon="3.21659">
        <ele>655.5</ele>
        <time>2015-12-06T11:00:21Z</time>
      </trkpt>
      <trkpt lat="44.14" lon="3.2166">
        <ele>656</ele>
        <time>2015-12-06T11:00:22Z</time>
      </trkpt>
      <trkpt lat="44.14002" lon="3.2166">
        <ele>656</ele>
        <time>2015-12-06T11:00:23Z</time>
      </trkpt>
      <trkpt lat="44.14003" lon="3.2166">
        <ele>657.5</ele>
        <time>2015-12-06T11:00:24Z</time>
      </trkpt>
      <trkpt lat="44.14005" lon="3.21659">
        <ele>657.5</ele>
        <time>2015-12-06T11:00:25Z</time>
      </trkpt>
      <trkpt lat="44.14007" lon="3.21659">
        <ele>657.5</ele>
        <time>2015-12-06T11:00:26Z</time>
      </trkpt>
      <trkpt lat="44.14009" lon="3.21659">
        <ele>657</ele>
        <time>2015-12-06T11:00:27Z</time>
      </trkpt>
      <trkpt lat="44.14011" lon="3.21659">
        <ele>656.5</ele>
        <time>2015-12-06T11:00:28Z</time>
      </trkpt>
      <trkpt lat="44.14013" lon="3.21659">
        <ele>657</ele>
        <time>2015-12-06T11:00:29Z</time>
      </trkpt>
      <trkpt lat="44.14015" lon="3.21658">
        <ele>655.5</ele>
        <time>2015-12-06T11:00:30Z</time>
      </trkpt>
      <trkpt lat="44.14017" lon="3.21659">
        <ele>657</ele>
        <time>2015-12-06T11:00:31Z</time>
      </trkpt>
      <trkpt lat="44.14019" lon="3.21658">
        <ele>656.5</ele>
        <time>2015-12-06T11:00:32Z</time>
      </trkpt>
      <trkpt lat="44.14021" lon="3.21658">
        <ele>656.5</ele>
        <time>2015-12-06T11:00:33Z</time>
      </trkpt>
      <trkpt lat="44.14023" lon="3.21658">
        <ele>656.5</ele>
        <time>2015-12-06T11:00:34Z</time>
      </trkpt>
      <trkpt lat="44.14025" lon="3.21657">
        <ele>656.5</ele>
        <time>2015-12-06T11:00:35Z</time>
      </trkpt>
      <trkpt lat="44.14026" lon="3.21657">
        <ele>658</ele>
        <time>2015-12-06T11:00:36Z</time>
      </trkpt>
      <trkpt lat="44.14028" lon="3.21657">
        <ele>657.5</ele>
        <time>2015-12-06T11:00:37Z</time>
      </trkpt>
      <trkpt lat="44.14031" lon="3.21656">
        <ele>657.5</ele>
        <time>2015-12-06T11:00:38Z</time>
      </trkpt>
      <trkpt lat="44.14032" lon="3.21656">
        <ele>658</ele>
        <time>2015-12-06T11:00:39Z</time>
      </trkpt>
      <trkpt lat="44.14034" lon="3.21655">
        <ele>659.5</ele>
        <time>2015-12-06T11:00:40Z</time>
      </trkpt>
      <trkpt lat="44.14035" lon="3.21655">
        <ele>661</ele>
        <time>2015-12-06T11:00:41Z</time>
      </trkpt>
      <trkpt lat="44.14036" lon="3.21652">
        <ele>662</ele>
        <time>2015-12-06T11:00:42Z</time>
      </trkpt>
      <trkpt lat="44.14037" lon="3.21651">
        <ele>663.5</ele>
        <time>2015-12-06T11:00:43Z</time>
      </trkpt>
      <trkpt lat="44.14039" lon="3.2165">
        <ele>665</ele>
        <time>2015-12-06T11:00:44Z</time>
      </trkpt>
      <trkpt lat="44.1404" lon="3.21648">
        <ele>666</ele>
        <time>2015-12-06T11:00:45Z</time>
      </trkpt>
      <trkpt lat="44.14041" lon="3.21648">
        <ele>669</ele>
        <time>2015-12-06T11:00:46Z</time>
      </trkpt>
      <trkpt lat="44.14042" lon="3.21647">
        <ele>671</ele>
        <time>2015-12-06T11:00:47Z</time>
      </trkpt>
      <trkpt lat="44.14044" lon="3.21647">
        <ele>673</ele>
        <time>2015-12-06T11:00:48Z</time>
      </trkpt>
      <trkpt lat="44.14046" lon="3.21647">
        <ele>672.5</ele>
        <time>2015-12-06T11:00:49Z</time>
      </trkpt>
      <trkpt lat="44.14048" lon="3.21646">
        <ele>672.5</ele>
        <time>2015-12-06T11:00:50Z</time>
      </trkpt>
      <trkpt lat="44.14049" lon="3.21646">
        <ele>674</ele>
        <time>2015-12-06T11:00:51Z</time>
      </trkpt>
      <trkpt lat="44.14051" lon="3.21644">
        <ele>673</ele>
        <time>2015-12-06T11:00:52Z</time>
      </trkpt>
      <trkpt lat="44.14053" lon="3.21643">
        <ele>671.5</ele>
        <time>2015-12-06T11:00:53Z</time>
      </trkpt>
      <trkpt lat="44.14055" lon="3.21641">
        <ele>670.5</ele>
        <time>2015-12-06T11:00:54Z</time>
      </trkpt>
      <trkpt lat="44.14057" lon="3.21641">
        <ele>670.5</ele>
        <time>2015-12-06T11:00:55Z</time>
      </trkpt>
      <trkpt lat="44.14059" lon="3.21641">
        <ele>671</ele>
        <time>2015-12-06T11:00:56Z</time>
      </trkpt>
      <trkpt lat="44.1406" lon="3.21641">
        <ele>671</ele>
        <time>2015-12-06T11:00:57Z</time>
      </trkpt>
      <trkpt lat="44.14062" lon="3.21641">
        <ele>670.5</ele>
        <time>2015-12-06T11:00:58Z</time>
      </trkpt>
      <trkpt lat="44.14064" lon="3.2164">
        <ele>670</ele>
        <time>2015-12-06T11:00:59Z</time>
      </trkpt>
      <trkpt lat="44.14066" lon="3.21639">
        <ele>670</ele>
        <time>2015-12-06T11:01:00Z</time>
      </trkpt>
      <trkpt lat="44.14068" lon="3.21638">
        <ele>669</ele>
        <time>2015-12-06T11:01:01Z</time>
      </trkpt>
      <trkpt lat="44.1407" lon="3.21638">
        <ele>668</ele>
        <time>2015-12-06T11:01:02Z</time>
      </trkpt>
      <trkpt lat="44.14072" lon="3.21638">
        <ele>668.5</ele>
        <time>2015-12-06T11:01:03Z</time>
      </trkpt>
      <trkpt lat="44.14073" lon="3.21637">
        <ele>668.5</ele>
        <time>2015-12-06T11:01:04Z</time>
      </trkpt>
      <trkpt lat="44.14075" lon="3.21636">
        <ele>668.5</ele>
        <time>2015-12-06T11:01:05Z</time>
      </trkpt>
      <trkpt lat="44.14077" lon="3.21636">
        <ele>668.5</ele>
        <time>2015-12-06T11:01:06Z</time>
      </trkpt>
      <trkpt lat="44.14078" lon="3.21636">
        <ele>669</ele>
        <time>2015-12-06T11:01:07Z</time>
      </trkpt>
      <trkpt lat="44.1408" lon="3.21635">
        <ele>669.5</ele>
        <time>2015-12-06T11:01:08Z</time>
      </trkpt>
      <trkpt lat="44.14081" lon="3.21634">
        <ele>670</ele>
        <time>2015-12-06T11:01:09Z</time>
      </trkpt>
      <trkpt lat="44.14083" lon="3.21634">
        <ele>670.5</ele>
        <time>2015-12-06T11:01:10Z</time>
      </trkpt>
      <trkpt lat="44.14084" lon="3.21634">
        <ele>672</ele>
        <time>2015-12-06T11:01:11Z</time>
      </trkpt>
      <trkpt lat="44.14086" lon="3.21635">
        <ele>670.5</ele>
        <time>2015-12-06T11:01:12Z</time>
      </trkpt>
      <trkpt lat="44.14088" lon="3.21635">
        <ele>670.5</ele>
        <time>2015-12-06T11:01:13Z</time>
      </trkpt>
      <trkpt lat="44.1409" lon="3.21635">
        <ele>670.5</ele>
        <time>2015-12-06T11:01:14Z</time>
      </trkpt>
      <trkpt lat="44.14092" lon="3.21635">
        <ele>670</ele>
        <time>2015-12-06T11:01:15Z</time>
      </trkpt>
      <trkpt lat="44.14094" lon="3.21634">
        <ele>670</ele>
        <time>2015-12-06T11:01:16Z</time>
      </trkpt>
      <trkpt lat="44.14096" lon="3.21633">
        <ele>669.5</ele>
        <time>2015-12-06T11:01:17Z</time>
      </trkpt>
      <trkpt lat="44.14098" lon="3.21632">
        <ele>669.5</ele>
        <time>2015-12-06T11:01:18Z</time>
      </trkpt>
      <trkpt lat="44.141" lon="3.21631">
        <ele>669.5</ele>
        <time>2015-12-06T11:01:19Z</time>
      </trkpt>
      <trkpt lat="44.14102" lon="3.2163">
        <ele>669.5</ele>
        <time>2015-12-06T11:01:20Z</time>
      </trkpt>
      <trkpt lat="44.14104" lon="3.21629">
        <ele>670</ele>
        <time>2015-12-06T11:01:21Z</time>
      </trkpt>
      <trkpt lat="44.14106" lon="3.21628">
        <ele>670</ele>
        <time>2015-12-06T11:01:22Z</time>
      </trkpt>
      <trkpt lat="44.14107" lon="3.21626">
        <ele>671</ele>
        <time>2015-12-06T11:01:23Z</time>
      </trkpt>
      <trkpt lat="44.14109" lon="3.21626">
        <ele>671.5</ele>
        <time>2015-12-06T11:01:24Z</time>
      </trkpt>
      <trkpt lat="44.14112" lon="3.21624">
        <ele>673.5</ele>
        <time>2015-12-06T11:01:26Z</time>
      </trkpt>
      <trkpt lat="44.14114" lon="3.21623">
        <ele>674</ele>
        <time>2015-12-06T11:01:27Z</time>
      </trkpt>
      <trkpt lat="44.14116" lon="3.21622">
        <ele>674</ele>
        <time>2015-12-06T11:01:28Z</time>
      </trkpt>
      <trkpt lat="44.14117" lon="3.2162">
        <ele>675</ele>
        <time>2015-12-06T11:01:29Z</time>
      </trkpt>
      <trkpt lat="44.14122" lon="3.21623">
        <ele>673</ele>
        <time>2015-12-06T11:01:31Z</time>
      </trkpt>
      <trkpt lat="44.14123" lon="3.21621">
        <ele>672.5</ele>
        <time>2015-12-06T11:01:32Z</time>
      </trkpt>
      <trkpt lat="44.14125" lon="3.2162">
        <ele>672</ele>
        <time>2015-12-06T11:01:33Z</time>
      </trkpt>
      <trkpt lat="44.14127" lon="3.2162">
        <ele>672.5</ele>
        <time>2015-12-06T11:01:34Z</time>
      </trkpt>
      <trkpt lat="44.14129" lon="3.21619">
        <ele>672.5</ele>
        <time>2015-12-06T11:01:35Z</time>
      </trkpt>
      <trkpt lat="44.14131" lon="3.21619">
        <ele>673</ele>
        <time>2015-12-06T11:01:36Z</time>
      </trkpt>
      <trkpt lat="44.14133" lon="3.21619">
        <ele>674.5</ele>
        <time>2015-12-06T11:01:37Z</time>
      </trkpt>
      <trkpt lat="44.14134" lon="3.21617">
        <ele>674.5</ele>
        <time>2015-12-06T11:01:38Z</time>
      </trkpt>
      <trkpt lat="44.14136" lon="3.21617">
        <ele>675.5</ele>
        <time>2015-12-06T11:01:39Z</time>
      </trkpt>
      <trkpt lat="44.14137" lon="3.21616">
        <ele>676.5</ele>
        <time>2015-12-06T11:01:40Z</time>
      </trkpt>
      <trkpt lat="44.14139" lon="3.21615">
        <ele>677</ele>
        <time>2015-12-06T11:01:41Z</time>
      </trkpt>
      <trkpt lat="44.14142" lon="3.21617">
        <ele>677</ele>
        <time>2015-12-06T11:01:42Z</time>
      </trkpt>
      <trkpt lat="44.14144" lon="3.21616">
        <ele>677.5</ele>
        <time>2015-12-06T11:01:43Z</time>
      </trkpt>
      <trkpt lat="44.14146" lon="3.21615">
        <ele>677</ele>
        <time>2015-12-06T11:01:44Z</time>
      </trkpt>
      <trkpt lat="44.14149" lon="3.21615">
        <ele>676.5</ele>
        <time>2015-12-06T11:01:45Z</time>
      </trkpt>
      <trkpt lat="44.14151" lon="3.21613">
        <ele>677</ele>
        <time>2015-12-06T11:01:46Z</time>
      </trkpt>
      <trkpt lat="44.14153" lon="3.21612">
        <ele>677</ele>
        <time>2015-12-06T11:01:47Z</time>
      </trkpt>
      <trkpt lat="44.14155" lon="3.21611">
        <ele>677.5</ele>
        <time>2015-12-06T11:01:48Z</time>
      </trkpt>
      <trkpt lat="44.14157" lon="3.21611">
        <ele>677</ele>
        <time>2015-12-06T11:01:49Z</time>
      </trkpt>
      <trkpt lat="44.14159" lon="3.21609">
        <ele>677</ele>
        <time>2015-12-06T11:01:50Z</time>
      </trkpt>
      <trkpt lat="44.14161" lon="3.21607">
        <ele>677.5</ele>
        <time>2015-12-06T11:01:50Z</time>
      </trkpt>
      <trkpt lat="44.14163" lon="3.21606">
        <ele>678</ele>
        <time>2015-12-06T11:01:52Z</time>
      </trkpt>
      <trkpt lat="44.14164" lon="3.21605">
        <ele>679.5</ele>
        <time>2015-12-06T11:01:52Z</time>
      </trkpt>
      <trkpt lat="44.14167" lon="3.21604">
        <ele>679.5</ele>
        <time>2015-12-06T11:01:54Z</time>
      </trkpt>
      <trkpt lat="44.14169" lon="3.21604">
        <ele>679.5</ele>
        <time>2015-12-06T11:01:54Z</time>
      </trkpt>
      <trkpt lat="44.14171" lon="3.21603">
        <ele>679</ele>
        <time>2015-12-06T11:01:56Z</time>
      </trkpt>
      <trkpt lat="44.14173" lon="3.21602">
        <ele>679.5</ele>
        <time>2015-12-06T11:01:56Z</time>
      </trkpt>
      <trkpt lat="44.14175" lon="3.21601">
        <ele>680</ele>
        <time>2015-12-06T11:01:57Z</time>
      </trkpt>
      <trkpt lat="44.14176" lon="3.216">
        <ele>680</ele>
        <time>2015-12-06T11:01:58Z</time>
      </trkpt>
      <trkpt lat="44.14178" lon="3.21598">
        <ele>680.5</ele>
        <time>2015-12-06T11:01:59Z</time>
      </trkpt>
      <trkpt lat="44.1418" lon="3.21597">
        <ele>680</ele>
        <time>2015-12-06T11:02:01Z</time>
      </trkpt>
      <trkpt lat="44.14182" lon="3.21597">
        <ele>679.5</ele>
        <time>2015-12-06T11:02:01Z</time>
      </trkpt>
      <trkpt lat="44.14185" lon="3.21596">
        <ele>679</ele>
        <time>2015-12-06T11:02:02Z</time>
      </trkpt>
      <trkpt lat="44.14187" lon="3.21595">
        <ele>679</ele>
        <time>2015-12-06T11:02:03Z</time>
      </trkpt>
      <trkpt lat="44.14189" lon="3.21594">
        <ele>679</ele>
        <time>2015-12-06T11:02:04Z</time>
      </trkpt>
      <trkpt lat="44.14192" lon="3.21595">
        <ele>678.5</ele>
        <time>2015-12-06T11:02:06Z</time>
      </trkpt>
      <trkpt lat="44.14194" lon="3.21594">
        <ele>678.5</ele>
        <time>2015-12-06T11:02:06Z</time>
      </trkpt>
      <trkpt lat="44.14196" lon="3.21593">
        <ele>678.5</ele>
        <time>2015-12-06T11:02:07Z</time>
      </trkpt>
      <trkpt lat="44.14197" lon="3.21592">
        <ele>679</ele>
        <time>2015-12-06T11:02:08Z</time>
      </trkpt>
      <trkpt lat="44.14199" lon="3.21592">
        <ele>679</ele>
        <time>2015-12-06T11:02:09Z</time>
      </trkpt>
      <trkpt lat="44.14201" lon="3.21592">
        <ele>679</ele>
        <time>2015-12-06T11:02:10Z</time>
      </trkpt>
      <trkpt lat="44.14203" lon="3.21593">
        <ele>679</ele>
        <time>2015-12-06T11:02:11Z</time>
      </trkpt>
      <trkpt lat="44.14206" lon="3.21593">
        <ele>678.5</ele>
        <time>2015-12-06T11:02:12Z</time>
      </trkpt>
      <trkpt lat="44.14208" lon="3.21593">
        <ele>678</ele>
        <time>2015-12-06T11:02:13Z</time>
      </trkpt>
      <trkpt lat="44.14211" lon="3.21593">
        <ele>677.5</ele>
        <time>2015-12-06T11:02:14Z</time>
      </trkpt>
      <trkpt lat="44.14213" lon="3.21593">
        <ele>678</ele>
        <time>2015-12-06T11:02:15Z</time>
      </trkpt>
      <trkpt lat="44.14215" lon="3.21594">
        <ele>677.5</ele>
        <time>2015-12-06T11:02:16Z</time>
      </trkpt>
      <trkpt lat="44.14217" lon="3.21594">
        <ele>677.5</ele>
        <time>2015-12-06T11:02:17Z</time>
      </trkpt>
      <trkpt lat="44.14219" lon="3.21595">
        <ele>677.5</ele>
        <time>2015-12-06T11:02:19Z</time>
      </trkpt>
      <trkpt lat="44.14221" lon="3.21595">
        <ele>677.5</ele>
        <time>2015-12-06T11:02:19Z</time>
      </trkpt>
      <trkpt lat="44.14223" lon="3.21596">
        <ele>677.5</ele>
        <time>2015-12-06T11:02:20Z</time>
      </trkpt>
      <trkpt lat="44.14226" lon="3.21596">
        <ele>677.5</ele>
        <time>2015-12-06T11:02:21Z</time>
      </trkpt>
      <trkpt lat="44.14228" lon="3.21597">
        <ele>678.5</ele>
        <time>2015-12-06T11:02:22Z</time>
      </trkpt>
      <trkpt lat="44.1423" lon="3.21597">
        <ele>679</ele>
        <time>2015-12-06T11:02:23Z</time>
      </trkpt>
      <trkpt lat="44.14232" lon="3.21597">
        <ele>679.5</ele>
        <time>2015-12-06T11:02:24Z</time>
      </trkpt>
      <trkpt lat="44.14235" lon="3.21597">
        <ele>680</ele>
        <time>2015-12-06T11:02:25Z</time>
      </trkpt>
      <trkpt lat="44.14237" lon="3.21596">
        <ele>681</ele>
        <time>2015-12-06T11:02:26Z</time>
      </trkpt>
      <trkpt lat="44.14239" lon="3.21595">
        <ele>681.5</ele>
        <time>2015-12-06T11:02:27Z</time>
      </trkpt>
      <trkpt lat="44.14241" lon="3.21595">
        <ele>682.5</ele>
        <time>2015-12-06T11:02:28Z</time>
      </trkpt>
      <trkpt lat="44.14242" lon="3.21593">
        <ele>683.5</ele>
        <time>2015-12-06T11:02:29Z</time>
      </trkpt>
      <trkpt lat="44.14244" lon="3.21592">
        <ele>684</ele>
        <time>2015-12-06T11:02:30Z</time>
      </trkpt>
      <trkpt lat="44.14246" lon="3.2159">
        <ele>684</ele>
        <time>2015-12-06T11:02:31Z</time>
      </trkpt>
      <trkpt lat="44.14249" lon="3.21588">
        <ele>684</ele>
        <time>2015-12-06T11:02:32Z</time>
      </trkpt>
      <trkpt lat="44.14251" lon="3.21586">
        <ele>684</ele>
        <time>2015-12-06T11:02:33Z</time>
      </trkpt>
      <trkpt lat="44.14253" lon="3.21584">
        <ele>684</ele>
        <time>2015-12-06T11:02:34Z</time>
      </trkpt>
      <trkpt lat="44.14255" lon="3.21582">
        <ele>684.5</ele>
        <time>2015-12-06T11:02:35Z</time>
      </trkpt>
      <trkpt lat="44.14257" lon="3.2158">
        <ele>684</ele>
        <time>2015-12-06T11:02:36Z</time>
      </trkpt>
      <trkpt lat="44.14258" lon="3.21578">
        <ele>684</ele>
        <time>2015-12-06T11:02:37Z</time>
      </trkpt>
      <trkpt lat="44.14261" lon="3.21577">
        <ele>684</ele>
        <time>2015-12-06T11:02:38Z</time>
      </trkpt>
      <trkpt lat="44.14262" lon="3.21575">
        <ele>684.5</ele>
        <time>2015-12-06T11:02:39Z</time>
      </trkpt>
      <trkpt lat="44.14264" lon="3.21573">
        <ele>684</ele>
        <time>2015-12-06T11:02:40Z</time>
      </trkpt>
      <trkpt lat="44.14266" lon="3.21572">
        <ele>684.5</ele>
        <time>2015-12-06T11:02:41Z</time>
      </trkpt>
      <trkpt lat="44.14268" lon="3.21571">
        <ele>684.5</ele>
        <time>2015-12-06T11:02:43Z</time>
      </trkpt>
      <trkpt lat="44.1427" lon="3.2157">
        <ele>684</ele>
        <time>2015-12-06T11:02:43Z</time>
      </trkpt>
      <trkpt lat="44.14272" lon="3.21569">
        <ele>684</ele>
        <time>2015-12-06T11:02:44Z</time>
      </trkpt>
      <trkpt lat="44.14275" lon="3.21568">
        <ele>684</ele>
        <time>2015-12-06T11:02:45Z</time>
      </trkpt>
      <trkpt lat="44.1428" lon="3.21568">
        <ele>685</ele>
        <time>2015-12-06T11:02:47Z</time>
      </trkpt>
      <trkpt lat="44.14283" lon="3.21569">
        <ele>685.5</ele>
        <time>2015-12-06T11:02:48Z</time>
      </trkpt>
      <trkpt lat="44.14286" lon="3.21569">
        <ele>686.5</ele>
        <time>2015-12-06T11:02:49Z</time>
      </trkpt>
      <trkpt lat="44.14289" lon="3.21569">
        <ele>688</ele>
        <time>2015-12-06T11:02:50Z</time>
      </trkpt>
      <trkpt lat="44.14292" lon="3.21568">
        <ele>689</ele>
        <time>2015-12-06T11:02:51Z</time>
      </trkpt>
      <trkpt lat="44.14294" lon="3.21568">
        <ele>689</ele>
        <time>2015-12-06T11:02:52Z</time>
      </trkpt>
      <trkpt lat="44.14297" lon="3.21568">
        <ele>689</ele>
        <time>2015-12-06T11:02:53Z</time>
      </trkpt>
      <trkpt lat="44.14299" lon="3.21569">
        <ele>689</ele>
        <time>2015-12-06T11:02:54Z</time>
      </trkpt>
      <trkpt lat="44.14302" lon="3.21569">
        <ele>689</ele>
        <time>2015-12-06T11:02:55Z</time>
      </trkpt>
      <trkpt lat="44.14304" lon="3.2157">
        <ele>688.5</ele>
        <time>2015-12-06T11:02:56Z</time>
      </trkpt>
      <trkpt lat="44.14307" lon="3.21571">
        <ele>688</ele>
        <time>2015-12-06T11:02:57Z</time>
      </trkpt>
      <trkpt lat="44.14309" lon="3.21571">
        <ele>688</ele>
        <time>2015-12-06T11:02:58Z</time>
      </trkpt>
      <trkpt lat="44.14311" lon="3.21572">
        <ele>688</ele>
        <time>2015-12-06T11:02:59Z</time>
      </trkpt>
      <trkpt lat="44.14313" lon="3.21573">
        <ele>688.5</ele>
        <time>2015-12-06T11:03:00Z</time>
      </trkpt>
      <trkpt lat="44.14315" lon="3.21575">
        <ele>688.5</ele>
        <time>2015-12-06T11:03:01Z</time>
      </trkpt>
      <trkpt lat="44.14317" lon="3.21577">
        <ele>688.5</ele>
        <time>2015-12-06T11:03:02Z</time>
      </trkpt>
      <trkpt lat="44.14319" lon="3.21578">
        <ele>688.5</ele>
        <time>2015-12-06T11:03:03Z</time>
      </trkpt>
      <trkpt lat="44.14321" lon="3.21581">
        <ele>688</ele>
        <time>2015-12-06T11:03:04Z</time>
      </trkpt>
      <trkpt lat="44.14322" lon="3.21583">
        <ele>689</ele>
        <time>2015-12-06T11:03:05Z</time>
      </trkpt>
      <trkpt lat="44.14324" lon="3.21585">
        <ele>687.5</ele>
        <time>2015-12-06T11:03:06Z</time>
      </trkpt>
      <trkpt lat="44.14326" lon="3.21588">
        <ele>687.5</ele>
        <time>2015-12-06T11:03:07Z</time>
      </trkpt>
      <trkpt lat="44.14328" lon="3.21591">
        <ele>687.5</ele>
        <time>2015-12-06T11:03:08Z</time>
      </trkpt>
      <trkpt lat="44.14329" lon="3.21593">
        <ele>688</ele>
        <time>2015-12-06T11:03:09Z</time>
      </trkpt>
      <trkpt lat="44.14331" lon="3.21596">
        <ele>688.5</ele>
        <time>2015-12-06T11:03:10Z</time>
      </trkpt>
      <trkpt lat="44.14331" lon="3.21598">
        <ele>690.5</ele>
        <time>2015-12-06T11:03:11Z</time>
      </trkpt>
      <trkpt lat="44.14332" lon="3.21601">
        <ele>693</ele>
        <time>2015-12-06T11:03:12Z</time>
      </trkpt>
      <trkpt lat="44.14333" lon="3.21604">
        <ele>694</ele>
        <time>2015-12-06T11:03:13Z</time>
      </trkpt>
      <trkpt lat="44.14335" lon="3.21607">
        <ele>696</ele>
        <time>2015-12-06T11:03:14Z</time>
      </trkpt>
      <trkpt lat="44.14336" lon="3.21609">
        <ele>697</ele>
        <time>2015-12-06T11:03:15Z</time>
      </trkpt>
      <trkpt lat="44.14337" lon="3.21611">
        <ele>696</ele>
        <time>2015-12-06T11:03:16Z</time>
      </trkpt>
      <trkpt lat="44.14338" lon="3.21611">
        <ele>696.5</ele>
        <time>2015-12-06T11:03:17Z</time>
      </trkpt>
      <trkpt lat="44.1434" lon="3.21612">
        <ele>696</ele>
        <time>2015-12-06T11:03:18Z</time>
      </trkpt>
      <trkpt lat="44.14342" lon="3.21614">
        <ele>695.5</ele>
        <time>2015-12-06T11:03:19Z</time>
      </trkpt>
      <trkpt lat="44.14344" lon="3.21616">
        <ele>696.5</ele>
        <time>2015-12-06T11:03:20Z</time>
      </trkpt>
      <trkpt lat="44.14346" lon="3.21618">
        <ele>696.5</ele>
        <time>2015-12-06T11:03:21Z</time>
      </trkpt>
      <trkpt lat="44.14348" lon="3.21621">
        <ele>696</ele>
        <time>2015-12-06T11:03:22Z</time>
      </trkpt>
      <trkpt lat="44.1435" lon="3.21623">
        <ele>695.5</ele>
        <time>2015-12-06T11:03:23Z</time>
      </trkpt>
      <trkpt lat="44.14353" lon="3.21626">
        <ele>695</ele>
        <time>2015-12-06T11:03:24Z</time>
      </trkpt>
      <trkpt lat="44.14356" lon="3.21628">
        <ele>695</ele>
        <time>2015-12-06T11:03:25Z</time>
      </trkpt>
      <trkpt lat="44.14358" lon="3.21631">
        <ele>695</ele>
        <time>2015-12-06T11:03:26Z</time>
      </trkpt>
      <trkpt lat="44.1436" lon="3.21633">
        <ele>695</ele>
        <time>2015-12-06T11:03:27Z</time>
      </trkpt>
      <trkpt lat="44.14362" lon="3.21636">
        <ele>695</ele>
        <time>2015-12-06T11:03:28Z</time>
      </trkpt>
      <trkpt lat="44.14364" lon="3.21638">
        <ele>695.5</ele>
        <time>2015-12-06T11:03:29Z</time>
      </trkpt>
      <trkpt lat="44.14366" lon="3.21638">
        <ele>695.5</ele>
        <time>2015-12-06T11:03:30Z</time>
      </trkpt>
      <trkpt lat="44.14372" lon="3.21643">
        <ele>695.5</ele>
        <time>2015-12-06T11:03:32Z</time>
      </trkpt>
      <trkpt lat="44.14375" lon="3.21646">
        <ele>695.5</ele>
        <time>2015-12-06T11:03:33Z</time>
      </trkpt>
      <trkpt lat="44.14378" lon="3.21648">
        <ele>695.5</ele>
        <time>2015-12-06T11:03:34Z</time>
      </trkpt>
      <trkpt lat="44.14381" lon="3.21649">
        <ele>696</ele>
        <time>2015-12-06T11:03:35Z</time>
      </trkpt>
      <trkpt lat="44.14384" lon="3.21651">
        <ele>696</ele>
        <time>2015-12-06T11:03:36Z</time>
      </trkpt>
      <trkpt lat="44.14386" lon="3.21652">
        <ele>695.5</ele>
        <time>2015-12-06T11:03:37Z</time>
      </trkpt>
      <trkpt lat="44.14389" lon="3.21653">
        <ele>695.5</ele>
        <time>2015-12-06T11:03:38Z</time>
      </trkpt>
      <trkpt lat="44.14392" lon="3.21654">
        <ele>696</ele>
        <time>2015-12-06T11:03:39Z</time>
      </trkpt>
      <trkpt lat="44.14395" lon="3.21655">
        <ele>696</ele>
        <time>2015-12-06T11:03:40Z</time>
      </trkpt>
      <trkpt lat="44.14397" lon="3.21656">
        <ele>697.5</ele>
        <time>2015-12-06T11:03:41Z</time>
      </trkpt>
      <trkpt lat="44.144" lon="3.21657">
        <ele>697.5</ele>
        <time>2015-12-06T11:03:42Z</time>
      </trkpt>
      <trkpt lat="44.14403" lon="3.21658">
        <ele>698</ele>
        <time>2015-12-06T11:03:43Z</time>
      </trkpt>
      <trkpt lat="44.14406" lon="3.2166">
        <ele>698</ele>
        <time>2015-12-06T11:03:44Z</time>
      </trkpt>
      <trkpt lat="44.14409" lon="3.2166">
        <ele>698</ele>
        <time>2015-12-06T11:03:45Z</time>
      </trkpt>
      <trkpt lat="44.14412" lon="3.21661">
        <ele>698</ele>
        <time>2015-12-06T11:03:46Z</time>
      </trkpt>
      <trkpt lat="44.14415" lon="3.21662">
        <ele>697.5</ele>
        <time>2015-12-06T11:03:47Z</time>
      </trkpt>
      <trkpt lat="44.14418" lon="3.21664">
        <ele>697.5</ele>
        <time>2015-12-06T11:03:48Z</time>
      </trkpt>
      <trkpt lat="44.14421" lon="3.21666">
        <ele>697.5</ele>
        <time>2015-12-06T11:03:49Z</time>
      </trkpt>
      <trkpt lat="44.14424" lon="3.21667">
        <ele>697.5</ele>
        <time>2015-12-06T11:03:50Z</time>
      </trkpt>
      <trkpt lat="44.14427" lon="3.21669">
        <ele>697.5</ele>
        <time>2015-12-06T11:03:51Z</time>
      </trkpt>
      <trkpt lat="44.1443" lon="3.2167">
        <ele>697</ele>
        <time>2015-12-06T11:03:52Z</time>
      </trkpt>
      <trkpt lat="44.14434" lon="3.21671">
        <ele>697.5</ele>
        <time>2015-12-06T11:03:53Z</time>
      </trkpt>
      <trkpt lat="44.14437" lon="3.21673">
        <ele>697.5</ele>
        <time>2015-12-06T11:03:54Z</time>
      </trkpt>
      <trkpt lat="44.1444" lon="3.21675">
        <ele>698</ele>
        <time>2015-12-06T11:03:55Z</time>
      </trkpt>
      <trkpt lat="44.14443" lon="3.21676">
        <ele>698</ele>
        <time>2015-12-06T11:03:56Z</time>
      </trkpt>
      <trkpt lat="44.14446" lon="3.21677">
        <ele>698</ele>
        <time>2015-12-06T11:03:57Z</time>
      </trkpt>
      <trkpt lat="44.14449" lon="3.21677">
        <ele>698</ele>
        <time>2015-12-06T11:03:58Z</time>
      </trkpt>
      <trkpt lat="44.14452" lon="3.21678">
        <ele>698</ele>
        <time>2015-12-06T11:03:59Z</time>
      </trkpt>
      <trkpt lat="44.14455" lon="3.21678">
        <ele>698</ele>
        <time>2015-12-06T11:04:00Z</time>
      </trkpt>
      <trkpt lat="44.14458" lon="3.21678">
        <ele>698</ele>
        <time>2015-12-06T11:04:01Z</time>
      </trkpt>
      <trkpt lat="44.14461" lon="3.21679">
        <ele>698.5</ele>
        <time>2015-12-06T11:04:02Z</time>
      </trkpt>
      <trkpt lat="44.14465" lon="3.2168">
        <ele>698</ele>
        <time>2015-12-06T11:04:03Z</time>
      </trkpt>
      <trkpt lat="44.14468" lon="3.21681">
        <ele>697.5</ele>
        <time>2015-12-06T11:04:04Z</time>
      </trkpt>
      <trkpt lat="44.14472" lon="3.21683">
        <ele>697.5</ele>
        <time>2015-12-06T11:04:05Z</time>
      </trkpt>
      <trkpt lat="44.14474" lon="3.21683">
        <ele>697.5</ele>
        <time>2015-12-06T11:04:06Z</time>
      </trkpt>
      <trkpt lat="44.14477" lon="3.21684">
        <ele>697.5</ele>
        <time>2015-12-06T11:04:07Z</time>
      </trkpt>
      <trkpt lat="44.14481" lon="3.21686">
        <ele>697</ele>
        <time>2015-12-06T11:04:08Z</time>
      </trkpt>
      <trkpt lat="44.14484" lon="3.21687">
        <ele>697</ele>
        <time>2015-12-06T11:04:09Z</time>
      </trkpt>
      <trkpt lat="44.14488" lon="3.21687">
        <ele>697</ele>
        <time>2015-12-06T11:04:10Z</time>
      </trkpt>
      <trkpt lat="44.14491" lon="3.21688">
        <ele>696.5</ele>
        <time>2015-12-06T11:04:11Z</time>
      </trkpt>
      <trkpt lat="44.14495" lon="3.21688">
        <ele>696</ele>
        <time>2015-12-06T11:04:12Z</time>
      </trkpt>
      <trkpt lat="44.14498" lon="3.21686">
        <ele>695.5</ele>
        <time>2015-12-06T11:04:13Z</time>
      </trkpt>
      <trkpt lat="44.14502" lon="3.21685">
        <ele>695</ele>
        <time>2015-12-06T11:04:14Z</time>
      </trkpt>
      <trkpt lat="44.14505" lon="3.21683">
        <ele>694.5</ele>
        <time>2015-12-06T11:04:15Z</time>
      </trkpt>
      <trkpt lat="44.14509" lon="3.21682">
        <ele>693.5</ele>
        <time>2015-12-06T11:04:16Z</time>
      </trkpt>
      <trkpt lat="44.14513" lon="3.2168">
        <ele>693.5</ele>
        <time>2015-12-06T11:04:17Z</time>
      </trkpt>
      <trkpt lat="44.14516" lon="3.21679">
        <ele>694.5</ele>
        <time>2015-12-06T11:04:18Z</time>
      </trkpt>
      <trkpt lat="44.14519" lon="3.21677">
        <ele>694.5</ele>
        <time>2015-12-06T11:04:19Z</time>
      </trkpt>
      <trkpt lat="44.14522" lon="3.21677">
        <ele>694.5</ele>
        <time>2015-12-06T11:04:20Z</time>
      </trkpt>
      <trkpt lat="44.14526" lon="3.21676">
        <ele>694.5</ele>
        <time>2015-12-06T11:04:21Z</time>
      </trkpt>
      <trkpt lat="44.14529" lon="3.21676">
        <ele>695</ele>
        <time>2015-12-06T11:04:22Z</time>
      </trkpt>
      <trkpt lat="44.14532" lon="3.21676">
        <ele>695.5</ele>
        <time>2015-12-06T11:04:23Z</time>
      </trkpt>
      <trkpt lat="44.14535" lon="3.21674">
        <ele>694.5</ele>
        <time>2015-12-06T11:04:24Z</time>
      </trkpt>
      <trkpt lat="44.14539" lon="3.21674">
        <ele>694</ele>
        <time>2015-12-06T11:04:25Z</time>
      </trkpt>
      <trkpt lat="44.14542" lon="3.21673">
        <ele>694</ele>
        <time>2015-12-06T11:04:26Z</time>
      </trkpt>
      <trkpt lat="44.14545" lon="3.21672">
        <ele>694</ele>
        <time>2015-12-06T11:04:27Z</time>
      </trkpt>
      <trkpt lat="44.14548" lon="3.21672">
        <ele>694</ele>
        <time>2015-12-06T11:04:28Z</time>
      </trkpt>
      <trkpt lat="44.14551" lon="3.21672">
        <ele>694</ele>
        <time>2015-12-06T11:04:29Z</time>
      </trkpt>
      <trkpt lat="44.14555" lon="3.21672">
        <ele>694.5</ele>
        <time>2015-12-06T11:04:30Z</time>
      </trkpt>
      <trkpt lat="44.14558" lon="3.21674">
        <ele>694</ele>
        <time>2015-12-06T11:04:31Z</time>
      </trkpt>
      <trkpt lat="44.14561" lon="3.21674">
        <ele>694</ele>
        <time>2015-12-06T11:04:32Z</time>
      </trkpt>
      <trkpt lat="44.14564" lon="3.21673">
        <ele>694.5</ele>
        <time>2015-12-06T11:04:33Z</time>
      </trkpt>
      <trkpt lat="44.14566" lon="3.21673">
        <ele>695</ele>
        <time>2015-12-06T11:04:34Z</time>
      </trkpt>
      <trkpt lat="44.14569" lon="3.21673">
        <ele>695</ele>
        <time>2015-12-06T11:04:35Z</time>
      </trkpt>
      <trkpt lat="44.14572" lon="3.21674">
        <ele>695</ele>
        <time>2015-12-06T11:04:36Z</time>
      </trkpt>
      <trkpt lat="44.14575" lon="3.21675">
        <ele>695.5</ele>
        <time>2015-12-06T11:04:37Z</time>
      </trkpt>
      <trkpt lat="44.14578" lon="3.21676">
        <ele>695.5</ele>
        <time>2015-12-06T11:04:38Z</time>
      </trkpt>
      <trkpt lat="44.14581" lon="3.21677">
        <ele>696</ele>
        <time>2015-12-06T11:04:39Z</time>
      </trkpt>
      <trkpt lat="44.14584" lon="3.21678">
        <ele>696</ele>
        <time>2015-12-06T11:04:40Z</time>
      </trkpt>
      <trkpt lat="44.14587" lon="3.21678">
        <ele>696</ele>
        <time>2015-12-06T11:04:41Z</time>
      </trkpt>
      <trkpt lat="44.1459" lon="3.21679">
        <ele>695.5</ele>
        <time>2015-12-06T11:04:42Z</time>
      </trkpt>
      <trkpt lat="44.14593" lon="3.2168">
        <ele>696</ele>
        <time>2015-12-06T11:04:43Z</time>
      </trkpt>
      <trkpt lat="44.14596" lon="3.2168">
        <ele>696</ele>
        <time>2015-12-06T11:04:44Z</time>
      </trkpt>
      <trkpt lat="44.14599" lon="3.21681">
        <ele>696</ele>
        <time>2015-12-06T11:04:45Z</time>
      </trkpt>
      <trkpt lat="44.14603" lon="3.21681">
        <ele>696.5</ele>
        <time>2015-12-06T11:04:46Z</time>
      </trkpt>
      <trkpt lat="44.14606" lon="3.2168">
        <ele>696.5</ele>
        <time>2015-12-06T11:04:47Z</time>
      </trkpt>
      <trkpt lat="44.14609" lon="3.21679">
        <ele>697.5</ele>
        <time>2015-12-06T11:04:48Z</time>
      </trkpt>
      <trkpt lat="44.14611" lon="3.21678">
        <ele>697.5</ele>
        <time>2015-12-06T11:04:49Z</time>
      </trkpt>
      <trkpt lat="44.14614" lon="3.21675">
        <ele>697.5</ele>
        <time>2015-12-06T11:04:50Z</time>
      </trkpt>
      <trkpt lat="44.14617" lon="3.21673">
        <ele>697.5</ele>
        <time>2015-12-06T11:04:51Z</time>
      </trkpt>
      <trkpt lat="44.14619" lon="3.21669">
        <ele>697.5</ele>
        <time>2015-12-06T11:04:52Z</time>
      </trkpt>
      <trkpt lat="44.14621" lon="3.21667">
        <ele>698</ele>
        <time>2015-12-06T11:04:53Z</time>
      </trkpt>
      <trkpt lat="44.14623" lon="3.21664">
        <ele>698</ele>
        <time>2015-12-06T11:04:54Z</time>
      </trkpt>
      <trkpt lat="44.14626" lon="3.21662">
        <ele>698</ele>
        <time>2015-12-06T11:04:55Z</time>
      </trkpt>
      <trkpt lat="44.14628" lon="3.21658">
        <ele>698</ele>
        <time>2015-12-06T11:04:56Z</time>
      </trkpt>
      <trkpt lat="44.1463" lon="3.21655">
        <ele>698.5</ele>
        <time>2015-12-06T11:04:57Z</time>
      </trkpt>
      <trkpt lat="44.14632" lon="3.21652">
        <ele>698.5</ele>
        <time>2015-12-06T11:04:58Z</time>
      </trkpt>
      <trkpt lat="44.14634" lon="3.2165">
        <ele>698.5</ele>
        <time>2015-12-06T11:04:59Z</time>
      </trkpt>
      <trkpt lat="44.14636" lon="3.21646">
        <ele>698.5</ele>
        <time>2015-12-06T11:05:00Z</time>
      </trkpt>
      <trkpt lat="44.14638" lon="3.21644">
        <ele>698.5</ele>
        <time>2015-12-06T11:05:01Z</time>
      </trkpt>
      <trkpt lat="44.1464" lon="3.21642">
        <ele>698</ele>
        <time>2015-12-06T11:05:02Z</time>
      </trkpt>
      <trkpt lat="44.14642" lon="3.2164">
        <ele>698.5</ele>
        <time>2015-12-06T11:05:03Z</time>
      </trkpt>
      <trkpt lat="44.14644" lon="3.21637">
        <ele>698.5</ele>
        <time>2015-12-06T11:05:04Z</time>
      </trkpt>
      <trkpt lat="44.14646" lon="3.21635">
        <ele>698.5</ele>
        <time>2015-12-06T11:05:05Z</time>
      </trkpt>
      <trkpt lat="44.14648" lon="3.21632">
        <ele>699</ele>
        <time>2015-12-06T11:05:06Z</time>
      </trkpt>
      <trkpt lat="44.1465" lon="3.2163">
        <ele>699</ele>
        <time>2015-12-06T11:05:07Z</time>
      </trkpt>
      <trkpt lat="44.14652" lon="3.21628">
        <ele>699</ele>
        <time>2015-12-06T11:05:08Z</time>
      </trkpt>
      <trkpt lat="44.14654" lon="3.21626">
        <ele>699</ele>
        <time>2015-12-06T11:05:09Z</time>
      </trkpt>
      <trkpt lat="44.14656" lon="3.21623">
        <ele>699</ele>
        <time>2015-12-06T11:05:10Z</time>
      </trkpt>
      <trkpt lat="44.14658" lon="3.21622">
        <ele>699.5</ele>
        <time>2015-12-06T11:05:11Z</time>
      </trkpt>
      <trkpt lat="44.1466" lon="3.21621">
        <ele>699.5</ele>
        <time>2015-12-06T11:05:12Z</time>
      </trkpt>
      <trkpt lat="44.14661" lon="3.21619">
        <ele>700</ele>
        <time>2015-12-06T11:05:13Z</time>
      </trkpt>
      <trkpt lat="44.14663" lon="3.21618">
        <ele>700</ele>
        <time>2015-12-06T11:05:14Z</time>
      </trkpt>
      <trkpt lat="44.14664" lon="3.21617">
        <ele>700</ele>
        <time>2015-12-06T11:05:15Z</time>
      </trkpt>
      <trkpt lat="44.14665" lon="3.21616">
        <ele>700.5</ele>
        <time>2015-12-06T11:05:16Z</time>
      </trkpt>
      <trkpt lat="44.14665" lon="3.21615">
        <ele>701</ele>
        <time>2015-12-06T11:05:16Z</time>
      </trkpt>
      <trkpt lat="44.14666" lon="3.21614">
        <ele>701</ele>
        <time>2015-12-06T11:05:17Z</time>
      </trkpt>
      <trkpt lat="44.14667" lon="3.21613">
        <ele>701</ele>
        <time>2015-12-06T11:05:18Z</time>
      </trkpt>
      <trkpt lat="44.14669" lon="3.21612">
        <ele>701</ele>
        <time>2015-12-06T11:05:19Z</time>
      </trkpt>
      <trkpt lat="44.1467" lon="3.21612">
        <ele>701</ele>
        <time>2015-12-06T11:05:20Z</time>
      </trkpt>
      <trkpt lat="44.14671" lon="3.21611">
        <ele>701</ele>
        <time>2015-12-06T11:05:21Z</time>
      </trkpt>
      <trkpt lat="44.14673" lon="3.2161">
        <ele>701</ele>
        <time>2015-12-06T11:05:22Z</time>
      </trkpt>
      <trkpt lat="44.14674" lon="3.21608">
        <ele>701.5</ele>
        <time>2015-12-06T11:05:23Z</time>
      </trkpt>
      <trkpt lat="44.14675" lon="3.21608">
        <ele>702</ele>
        <time>2015-12-06T11:05:24Z</time>
      </trkpt>
      <trkpt lat="44.14677" lon="3.21607">
        <ele>702</ele>
        <time>2015-12-06T11:05:25Z</time>
      </trkpt>
      <trkpt lat="44.14678" lon="3.21606">
        <ele>702</ele>
        <time>2015-12-06T11:05:26Z</time>
      </trkpt>
      <trkpt lat="44.14678" lon="3.21603">
        <ele>702.5</ele>
        <time>2015-12-06T11:05:27Z</time>
      </trkpt>
      <trkpt lat="44.14678" lon="3.21601">
        <ele>703</ele>
        <time>2015-12-06T11:05:28Z</time>
      </trkpt>
      <trkpt lat="44.14678" lon="3.21599">
        <ele>703</ele>
        <time>2015-12-06T11:05:29Z</time>
      </trkpt>
      <trkpt lat="44.14677" lon="3.21598">
        <ele>703</ele>
        <time>2015-12-06T11:05:30Z</time>
      </trkpt>
      <trkpt lat="44.14676" lon="3.21598">
        <ele>703</ele>
        <time>2015-12-06T11:05:31Z</time>
      </trkpt>
      <trkpt lat="44.14675" lon="3.21599">
        <ele>703</ele>
        <time>2015-12-06T11:05:32Z</time>
      </trkpt>
      <trkpt lat="44.14675" lon="3.216">
        <ele>702.5</ele>
        <time>2015-12-06T11:05:33Z</time>
      </trkpt>
      <trkpt lat="44.14674" lon="3.21601">
        <ele>702.5</ele>
        <time>2015-12-06T11:05:34Z</time>
      </trkpt>
      <trkpt lat="44.14675" lon="3.21604">
        <ele>702.5</ele>
        <time>2015-12-06T11:05:35Z</time>
      </trkpt>
      <trkpt lat="44.14674" lon="3.21606">
        <ele>702.5</ele>
        <time>2015-12-06T11:05:36Z</time>
      </trkpt>
      <trkpt lat="44.14673" lon="3.21607">
        <ele>703</ele>
        <time>2015-12-06T11:05:37Z</time>
      </trkpt>
      <trkpt lat="44.14672" lon="3.21606">
        <ele>703</ele>
        <time>2015-12-06T11:05:38Z</time>
      </trkpt>
      <trkpt lat="44.14672" lon="3.21607">
        <ele>703</ele>
        <time>2015-12-06T11:05:39Z</time>
      </trkpt>
      <trkpt lat="44.14671" lon="3.21608">
        <ele>703</ele>
        <time>2015-12-06T11:05:40Z</time>
      </trkpt>
      <trkpt lat="44.14672" lon="3.21609">
        <ele>703</ele>
        <time>2015-12-06T11:05:41Z</time>
      </trkpt>
      <trkpt lat="44.14676" lon="3.2161">
        <ele>702</ele>
        <time>2015-12-06T11:05:43Z</time>
      </trkpt>
      <trkpt lat="44.14677" lon="3.2161">
        <ele>702</ele>
        <time>2015-12-06T11:05:44Z</time>
      </trkpt>
      <trkpt lat="44.14678" lon="3.2161">
        <ele>702</ele>
        <time>2015-12-06T11:05:45Z</time>
      </trkpt>
      <trkpt lat="44.14679" lon="3.21611">
        <ele>702</ele>
        <time>2015-12-06T11:05:46Z</time>
      </trkpt>
      <trkpt lat="44.14681" lon="3.21612">
        <ele>701.5</ele>
        <time>2015-12-06T11:05:47Z</time>
      </trkpt>
      <trkpt lat="44.14682" lon="3.21613">
        <ele>701</ele>
        <time>2015-12-06T11:05:48Z</time>
      </trkpt>
      <trkpt lat="44.14683" lon="3.21613">
        <ele>700.5</ele>
        <time>2015-12-06T11:05:49Z</time>
      </trkpt>
      <trkpt lat="44.14684" lon="3.21612">
        <ele>700.5</ele>
        <time>2015-12-06T11:05:50Z</time>
      </trkpt>
      <trkpt lat="44.14684" lon="3.21612">
        <ele>701</ele>
        <time>2015-12-06T11:05:51Z</time>
      </trkpt>
      <trkpt lat="44.14685" lon="3.21611">
        <ele>701</ele>
        <time>2015-12-06T11:05:52Z</time>
      </trkpt>
      <trkpt lat="44.14685" lon="3.2161">
        <ele>700.5</ele>
        <time>2015-12-06T11:05:53Z</time>
      </trkpt>
      <trkpt lat="44.14684" lon="3.2161">
        <ele>700.5</ele>
        <time>2015-12-06T11:05:54Z</time>
      </trkpt>
      <trkpt lat="44.14683" lon="3.21609">
        <ele>701</ele>
        <time>2015-12-06T11:05:55Z</time>
      </trkpt>
      <trkpt lat="44.14682" lon="3.21608">
        <ele>701.5</ele>
        <time>2015-12-06T11:05:56Z</time>
      </trkpt>
      <trkpt lat="44.14681" lon="3.21609">
        <ele>701.5</ele>
        <time>2015-12-06T11:05:57Z</time>
      </trkpt>
      <trkpt lat="44.1468" lon="3.21609">
        <ele>701</ele>
        <time>2015-12-06T11:05:58Z</time>
      </trkpt>
      <trkpt lat="44.14679" lon="3.21611">
        <ele>701</ele>
        <time>2015-12-06T11:05:59Z</time>
      </trkpt>
      <trkpt lat="44.14679" lon="3.21614">
        <ele>700.5</ele>
        <time>2015-12-06T11:06:00Z</time>
      </trkpt>
      <trkpt lat="44.14679" lon="3.21617">
        <ele>700</ele>
        <time>2015-12-06T11:06:01Z</time>
      </trkpt>
      <trkpt lat="44.1468" lon="3.21618">
        <ele>700</ele>
        <time>2015-12-06T11:06:02Z</time>
      </trkpt>
      <trkpt lat="44.1468" lon="3.21614">
        <ele>700</ele>
        <time>2015-12-06T11:06:03Z</time>
      </trkpt>
      <trkpt lat="44.1468" lon="3.21616">
        <ele>696</ele>
        <time>2015-12-06T11:06:12Z</time>
      </trkpt>
      <trkpt lat="44.14683" lon="3.21613">
        <ele>701.5</ele>
        <time>2015-12-06T11:06:32Z</time>
      </trkpt>
      <trkpt lat="44.14683" lon="3.21614">
        <ele>700.5</ele>
        <time>2015-12-06T11:06:35Z</time>
      </trkpt>
      <trkpt lat="44.14684" lon="3.21617">
        <ele>699.5</ele>
        <time>2015-12-06T11:06:41Z</time>
      </trkpt>
      <trkpt lat="44.14683" lon="3.21616">
        <ele>699.5</ele>
        <time>2015-12-06T11:06:42Z</time>
      </trkpt>
      <trkpt lat="44.14684" lon="3.21617">
        <ele>700</ele>
        <time>2015-12-06T11:06:14Z</time>
      </trkpt>
      <trkpt lat="44.14684" lon="3.21617">
        <ele>700</ele>
        <time>2015-12-06T11:06:15Z</time>
      </trkpt>
      <trkpt lat="44.14684" lon="3.21617">
        <ele>700.5</ele>
        <time>2015-12-06T11:06:20Z</time>
      </trkpt>
      <trkpt lat="44.14684" lon="3.21617">
        <ele>700.5</ele>
        <time>2015-12-06T11:06:21Z</time>
      </trkpt>
      <trkpt lat="44.14684" lon="3.21616">
        <ele>702</ele>
        <time>2015-12-06T11:06:48Z</time>
      </trkpt>
      <trkpt lat="44.14685" lon="3.21617">
        <ele>701</ele>
        <time>2015-12-06T11:06:53Z</time>
      </trkpt>
      <trkpt lat="44.14685" lon="3.21617">
        <ele>700.5</ele>
        <time>2015-12-06T11:06:54Z</time>
      </trkpt>
      <trkpt lat="44.14686" lon="3.21617">
        <ele>701</ele>
        <time>2015-12-06T11:06:55Z</time>
      </trkpt>
      <trkpt lat="44.14686" lon="3.21617">
        <ele>701</ele>
        <time>2015-12-06T11:06:57Z</time>
      </trkpt>
      <trkpt lat="44.14685" lon="3.21615">
        <ele>701.5</ele>
        <time>2015-12-06T11:06:58Z</time>
      </trkpt>
      <trkpt lat="44.14684" lon="3.21613">
        <ele>701.5</ele>
        <time>2015-12-06T11:06:59Z</time>
      </trkpt>
      <trkpt lat="44.14683" lon="3.21611">
        <ele>702.5</ele>
        <time>2015-12-06T11:07:00Z</time>
      </trkpt>
      <trkpt lat="44.14683" lon="3.21608">
        <ele>703</ele>
        <time>2015-12-06T11:07:01Z</time>
      </trkpt>
      <trkpt lat="44.14682" lon="3.21606">
        <ele>704.5</ele>
        <time>2015-12-06T11:07:02Z</time>
      </trkpt>
      <trkpt lat="44.14682" lon="3.21604">
        <ele>706</ele>
        <time>2015-12-06T11:07:03Z</time>
      </trkpt>
      <trkpt lat="44.14683" lon="3.21602">
        <ele>706.5</ele>
        <time>2015-12-06T11:07:04Z</time>
      </trkpt>
      <trkpt lat="44.14683" lon="3.21601">
        <ele>706.5</ele>
        <time>2015-12-06T11:07:05Z</time>
      </trkpt>
      <trkpt lat="44.14684" lon="3.216">
        <ele>707</ele>
        <time>2015-12-06T11:07:06Z</time>
      </trkpt>
      <trkpt lat="44.14685" lon="3.21598">
        <ele>707.5</ele>
        <time>2015-12-06T11:07:07Z</time>
      </trkpt>
      <trkpt lat="44.14686" lon="3.21597">
        <ele>707</ele>
        <time>2015-12-06T11:07:08Z</time>
      </trkpt>
      <trkpt lat="44.14687" lon="3.21596">
        <ele>706</ele>
        <time>2015-12-06T11:07:09Z</time>
      </trkpt>
      <trkpt lat="44.14688" lon="3.21595">
        <ele>706</ele>
        <time>2015-12-06T11:07:10Z</time>
      </trkpt>
      <trkpt lat="44.14689" lon="3.21595">
        <ele>707</ele>
        <time>2015-12-06T11:07:11Z</time>
      </trkpt>
      <trkpt lat="44.14689" lon="3.21593">
        <ele>708</ele>
        <time>2015-12-06T11:07:12Z</time>
      </trkpt>
      <trkpt lat="44.14689" lon="3.21591">
        <ele>708</ele>
        <time>2015-12-06T11:07:13Z</time>
      </trkpt>
      <trkpt lat="44.14689" lon="3.2159">
        <ele>708</ele>
        <time>2015-12-06T11:07:14Z</time>
      </trkpt>
      <trkpt lat="44.14688" lon="3.21589">
        <ele>708</ele>
        <time>2015-12-06T11:07:15Z</time>
      </trkpt>
      <trkpt lat="44.14688" lon="3.21588">
        <ele>708</ele>
        <time>2015-12-06T11:07:16Z</time>
      </trkpt>
      <trkpt lat="44.14687" lon="3.21587">
        <ele>708</ele>
        <time>2015-12-06T11:07:17Z</time>
      </trkpt>
      <trkpt lat="44.14687" lon="3.21586">
        <ele>708</ele>
        <time>2015-12-06T11:07:18Z</time>
      </trkpt>
      <trkpt lat="44.14686" lon="3.21585">
        <ele>708.5</ele>
        <time>2015-12-06T11:07:19Z</time>
      </trkpt>
      <trkpt lat="44.14685" lon="3.21584">
        <ele>709</ele>
        <time>2015-12-06T11:07:20Z</time>
      </trkpt>
      <trkpt lat="44.14685" lon="3.21583">
        <ele>709</ele>
        <time>2015-12-06T11:07:21Z</time>
      </trkpt>
      <trkpt lat="44.14684" lon="3.21584">
        <ele>708.5</ele>
        <time>2015-12-06T11:07:22Z</time>
      </trkpt>
      <trkpt lat="44.14683" lon="3.21583">
        <ele>708</ele>
        <time>2015-12-06T11:07:23Z</time>
      </trkpt>
      <trkpt lat="44.14683" lon="3.21583">
        <ele>707.5</ele>
        <time>2015-12-06T11:07:24Z</time>
      </trkpt>
      <trkpt lat="44.14682" lon="3.21584">
        <ele>707.5</ele>
        <time>2015-12-06T11:07:25Z</time>
      </trkpt>
      <trkpt lat="44.14681" lon="3.21584">
        <ele>707.5</ele>
        <time>2015-12-06T11:07:26Z</time>
      </trkpt>
      <trkpt lat="44.14681" lon="3.21584">
        <ele>707.5</ele>
        <time>2015-12-06T11:07:27Z</time>
      </trkpt>
      <trkpt lat="44.1468" lon="3.21584">
        <ele>707.5</ele>
        <time>2015-12-06T11:07:28Z</time>
      </trkpt>
      <trkpt lat="44.14679" lon="3.21584">
        <ele>708</ele>
        <time>2015-12-06T11:07:29Z</time>
      </trkpt>
      <trkpt lat="44.14678" lon="3.21584">
        <ele>708</ele>
        <time>2015-12-06T11:07:30Z</time>
      </trkpt>
      <trkpt lat="44.14678" lon="3.21583">
        <ele>708</ele>
        <time>2015-12-06T11:07:30Z</time>
      </trkpt>
      <trkpt lat="44.14678" lon="3.21582">
        <ele>708</ele>
        <time>2015-12-06T11:07:31Z</time>
      </trkpt>
      <trkpt lat="44.14678" lon="3.21583">
        <ele>708</ele>
        <time>2015-12-06T11:07:33Z</time>
      </trkpt>
      <trkpt lat="44.14677" lon="3.21585">
        <ele>708</ele>
        <time>2015-12-06T11:07:34Z</time>
      </trkpt>
      <trkpt lat="44.14678" lon="3.21588">
        <ele>707.5</ele>
        <time>2015-12-06T11:07:35Z</time>
      </trkpt>
      <trkpt lat="44.14679" lon="3.21588">
        <ele>708</ele>
        <time>2015-12-06T11:07:36Z</time>
      </trkpt>
      <trkpt lat="44.14681" lon="3.21587">
        <ele>709.5</ele>
        <time>2015-12-06T11:07:37Z</time>
      </trkpt>
      <trkpt lat="44.14683" lon="3.21587">
        <ele>709.5</ele>
        <time>2015-12-06T11:07:38Z</time>
      </trkpt>
      <trkpt lat="44.14686" lon="3.21587">
        <ele>709.5</ele>
        <time>2015-12-06T11:07:39Z</time>
      </trkpt>
      <trkpt lat="44.14688" lon="3.21587">
        <ele>710</ele>
        <time>2015-12-06T11:07:40Z</time>
      </trkpt>
      <trkpt lat="44.14689" lon="3.21589">
        <ele>710</ele>
        <time>2015-12-06T11:07:41Z</time>
      </trkpt>
      <trkpt lat="44.1469" lon="3.2159">
        <ele>710.5</ele>
        <time>2015-12-06T11:07:42Z</time>
      </trkpt>
      <trkpt lat="44.14691" lon="3.21591">
        <ele>711.5</ele>
        <time>2015-12-06T11:07:43Z</time>
      </trkpt>
      <trkpt lat="44.14692" lon="3.21593">
        <ele>710</ele>
        <time>2015-12-06T11:07:44Z</time>
      </trkpt>
      <trkpt lat="44.14693" lon="3.21595">
        <ele>710</ele>
        <time>2015-12-06T11:07:45Z</time>
      </trkpt>
      <trkpt lat="44.14695" lon="3.21596">
        <ele>709.5</ele>
        <time>2015-12-06T11:07:46Z</time>
      </trkpt>
      <trkpt lat="44.14698" lon="3.21598">
        <ele>710.5</ele>
        <time>2015-12-06T11:07:47Z</time>
      </trkpt>
      <trkpt lat="44.14698" lon="3.21599">
        <ele>710.5</ele>
        <time>2015-12-06T11:07:48Z</time>
      </trkpt>
      <trkpt lat="44.14699" lon="3.216">
        <ele>710.5</ele>
        <time>2015-12-06T11:07:49Z</time>
      </trkpt>
      <trkpt lat="44.147" lon="3.21601">
        <ele>711</ele>
        <time>2015-12-06T11:07:50Z</time>
      </trkpt>
      <trkpt lat="44.14701" lon="3.21602">
        <ele>711</ele>
        <time>2015-12-06T11:07:51Z</time>
      </trkpt>
      <trkpt lat="44.14703" lon="3.21603">
        <ele>711.5</ele>
        <time>2015-12-06T11:07:52Z</time>
      </trkpt>
      <trkpt lat="44.14704" lon="3.21603">
        <ele>711.5</ele>
        <time>2015-12-06T11:07:53Z</time>
      </trkpt>
      <trkpt lat="44.14705" lon="3.21604">
        <ele>711.5</ele>
        <time>2015-12-06T11:07:54Z</time>
      </trkpt>
      <trkpt lat="44.14706" lon="3.21605">
        <ele>711</ele>
        <time>2015-12-06T11:07:55Z</time>
      </trkpt>
      <trkpt lat="44.14708" lon="3.21605">
        <ele>710</ele>
        <time>2015-12-06T11:07:56Z</time>
      </trkpt>
      <trkpt lat="44.14709" lon="3.21605">
        <ele>710.5</ele>
        <time>2015-12-06T11:07:57Z</time>
      </trkpt>
      <trkpt lat="44.14711" lon="3.21606">
        <ele>710.5</ele>
        <time>2015-12-06T11:07:58Z</time>
      </trkpt>
      <trkpt lat="44.14712" lon="3.21606">
        <ele>710.5</ele>
        <time>2015-12-06T11:07:59Z</time>
      </trkpt>
      <trkpt lat="44.14714" lon="3.21606">
        <ele>710.5</ele>
        <time>2015-12-06T11:08:00Z</time>
      </trkpt>
      <trkpt lat="44.14715" lon="3.21604">
        <ele>710</ele>
        <time>2015-12-06T11:08:01Z</time>
      </trkpt>
      <trkpt lat="44.14717" lon="3.21605">
        <ele>711</ele>
        <time>2015-12-06T11:08:02Z</time>
      </trkpt>
      <trkpt lat="44.14718" lon="3.21605">
        <ele>711.5</ele>
        <time>2015-12-06T11:08:03Z</time>
      </trkpt>
      <trkpt lat="44.1472" lon="3.21604">
        <ele>712.5</ele>
        <time>2015-12-06T11:08:04Z</time>
      </trkpt>
      <trkpt lat="44.14721" lon="3.21604">
        <ele>713</ele>
        <time>2015-12-06T11:08:05Z</time>
      </trkpt>
      <trkpt lat="44.14723" lon="3.21604">
        <ele>712.5</ele>
        <time>2015-12-06T11:08:06Z</time>
      </trkpt>
      <trkpt lat="44.14724" lon="3.21604">
        <ele>712.5</ele>
        <time>2015-12-06T11:08:07Z</time>
      </trkpt>
      <trkpt lat="44.14725" lon="3.21604">
        <ele>712.5</ele>
        <time>2015-12-06T11:08:08Z</time>
      </trkpt>
      <trkpt lat="44.14727" lon="3.21603">
        <ele>713</ele>
        <time>2015-12-06T11:08:09Z</time>
      </trkpt>
      <trkpt lat="44.14728" lon="3.21602">
        <ele>713</ele>
        <time>2015-12-06T11:08:10Z</time>
      </trkpt>
      <trkpt lat="44.14728" lon="3.216">
        <ele>713.5</ele>
        <time>2015-12-06T11:08:11Z</time>
      </trkpt>
      <trkpt lat="44.14728" lon="3.21598">
        <ele>713.5</ele>
        <time>2015-12-06T11:08:12Z</time>
      </trkpt>
      <trkpt lat="44.14726" lon="3.21597">
        <ele>714</ele>
        <time>2015-12-06T11:08:13Z</time>
      </trkpt>
      <trkpt lat="44.14725" lon="3.21596">
        <ele>714</ele>
        <time>2015-12-06T11:08:14Z</time>
      </trkpt>
      <trkpt lat="44.14724" lon="3.21595">
        <ele>714.5</ele>
        <time>2015-12-06T11:08:15Z</time>
      </trkpt>
      <trkpt lat="44.14722" lon="3.21595">
        <ele>715</ele>
        <time>2015-12-06T11:08:16Z</time>
      </trkpt>
      <trkpt lat="44.14721" lon="3.21594">
        <ele>715.5</ele>
        <time>2015-12-06T11:08:17Z</time>
      </trkpt>
      <trkpt lat="44.14719" lon="3.21593">
        <ele>716</ele>
        <time>2015-12-06T11:08:18Z</time>
      </trkpt>
      <trkpt lat="44.14718" lon="3.21592">
        <ele>716</ele>
        <time>2015-12-06T11:08:19Z</time>
      </trkpt>
      <trkpt lat="44.14717" lon="3.21591">
        <ele>716</ele>
        <time>2015-12-06T11:08:20Z</time>
      </trkpt>
      <trkpt lat="44.14715" lon="3.2159">
        <ele>716.5</ele>
        <time>2015-12-06T11:08:21Z</time>
      </trkpt>
      <trkpt lat="44.14714" lon="3.21589">
        <ele>716.5</ele>
        <time>2015-12-06T11:08:22Z</time>
      </trkpt>
      <trkpt lat="44.14713" lon="3.21588">
        <ele>717</ele>
        <time>2015-12-06T11:08:23Z</time>
      </trkpt>
      <trkpt lat="44.14712" lon="3.21588">
        <ele>717.5</ele>
        <time>2015-12-06T11:08:24Z</time>
      </trkpt>
      <trkpt lat="44.14711" lon="3.21587">
        <ele>717.5</ele>
        <time>2015-12-06T11:08:25Z</time>
      </trkpt>
      <trkpt lat="44.1471" lon="3.21587">
        <ele>718</ele>
        <time>2015-12-06T11:08:26Z</time>
      </trkpt>
      <trkpt lat="44.14709" lon="3.21587">
        <ele>718.5</ele>
        <time>2015-12-06T11:08:27Z</time>
      </trkpt>
      <trkpt lat="44.14709" lon="3.21587">
        <ele>718.5</ele>
        <time>2015-12-06T11:08:28Z</time>
      </trkpt>
      <trkpt lat="44.14709" lon="3.21584">
        <ele>720</ele>
        <time>2015-12-06T11:08:31Z</time>
      </trkpt>
      <trkpt lat="44.14708" lon="3.21584">
        <ele>720.5</ele>
        <time>2015-12-06T11:08:32Z</time>
      </trkpt>
      <trkpt lat="44.14708" lon="3.21584">
        <ele>720</ele>
        <time>2015-12-06T11:08:33Z</time>
      </trkpt>
      <trkpt lat="44.14708" lon="3.21583">
        <ele>720.5</ele>
        <time>2015-12-06T11:08:35Z</time>
      </trkpt>
      <trkpt lat="44.14707" lon="3.21583">
        <ele>720</ele>
        <time>2015-12-06T11:08:36Z</time>
      </trkpt>
      <trkpt lat="44.14707" lon="3.21583">
        <ele>720</ele>
        <time>2015-12-06T11:08:37Z</time>
      </trkpt>
      <trkpt lat="44.14707" lon="3.21582">
        <ele>719.5</ele>
        <time>2015-12-06T11:08:38Z</time>
      </trkpt>
      <trkpt lat="44.14707" lon="3.21582">
        <ele>719</ele>
        <time>2015-12-06T11:08:39Z</time>
      </trkpt>
      <trkpt lat="44.14707" lon="3.21581">
        <ele>719</ele>
        <time>2015-12-06T11:08:41Z</time>
      </trkpt>
      <trkpt lat="44.14707" lon="3.2158">
        <ele>720</ele>
        <time>2015-12-06T11:08:42Z</time>
      </trkpt>
      <trkpt lat="44.14707" lon="3.21579">
        <ele>720.5</ele>
        <time>2015-12-06T11:08:44Z</time>
      </trkpt>
      <trkpt lat="44.14708" lon="3.21577">
        <ele>720.5</ele>
        <time>2015-12-06T11:08:46Z</time>
      </trkpt>
      <trkpt lat="44.14709" lon="3.21576">
        <ele>720.5</ele>
        <time>2015-12-06T11:08:47Z</time>
      </trkpt>
      <trkpt lat="44.1471" lon="3.21574">
        <ele>720.5</ele>
        <time>2015-12-06T11:08:48Z</time>
      </trkpt>
      <trkpt lat="44.1471" lon="3.21574">
        <ele>721</ele>
        <time>2015-12-06T11:08:49Z</time>
      </trkpt>
      <trkpt lat="44.14711" lon="3.21573">
        <ele>721.5</ele>
        <time>2015-12-06T11:08:50Z</time>
      </trkpt>
      <trkpt lat="44.14712" lon="3.21572">
        <ele>721.5</ele>
        <time>2015-12-06T11:08:51Z</time>
      </trkpt>
      <trkpt lat="44.14713" lon="3.21572">
        <ele>721</ele>
        <time>2015-12-06T11:08:52Z</time>
      </trkpt>
      <trkpt lat="44.14714" lon="3.21571">
        <ele>720</ele>
        <time>2015-12-06T11:08:53Z</time>
      </trkpt>
      <trkpt lat="44.14715" lon="3.21571">
        <ele>720</ele>
        <time>2015-12-06T11:08:54Z</time>
      </trkpt>
      <trkpt lat="44.14716" lon="3.2157">
        <ele>720</ele>
        <time>2015-12-06T11:08:55Z</time>
      </trkpt>
      <trkpt lat="44.14717" lon="3.21569">
        <ele>720</ele>
        <time>2015-12-06T11:08:56Z</time>
      </trkpt>
      <trkpt lat="44.14718" lon="3.21569">
        <ele>720</ele>
        <time>2015-12-06T11:08:57Z</time>
      </trkpt>
      <trkpt lat="44.14719" lon="3.21568">
        <ele>719.5</ele>
        <time>2015-12-06T11:08:58Z</time>
      </trkpt>
      <trkpt lat="44.1472" lon="3.21568">
        <ele>720</ele>
        <time>2015-12-06T11:08:59Z</time>
      </trkpt>
      <trkpt lat="44.14721" lon="3.21568">
        <ele>720</ele>
        <time>2015-12-06T11:09:00Z</time>
      </trkpt>
      <trkpt lat="44.14722" lon="3.21567">
        <ele>720.5</ele>
        <time>2015-12-06T11:09:01Z</time>
      </trkpt>
      <trkpt lat="44.14722" lon="3.21566">
        <ele>721</ele>
        <time>2015-12-06T11:09:02Z</time>
      </trkpt>
      <trkpt lat="44.14723" lon="3.21565">
        <ele>721</ele>
        <time>2015-12-06T11:09:03Z</time>
      </trkpt>
      <trkpt lat="44.14724" lon="3.21565">
        <ele>721</ele>
        <time>2015-12-06T11:09:04Z</time>
      </trkpt>
      <trkpt lat="44.14724" lon="3.21564">
        <ele>720.5</ele>
        <time>2015-12-06T11:09:05Z</time>
      </trkpt>
      <trkpt lat="44.14725" lon="3.21564">
        <ele>720.5</ele>
        <time>2015-12-06T11:09:06Z</time>
      </trkpt>
      <trkpt lat="44.14726" lon="3.21564">
        <ele>720.5</ele>
        <time>2015-12-06T11:09:07Z</time>
      </trkpt>
      <trkpt lat="44.14727" lon="3.21563">
        <ele>720.5</ele>
        <time>2015-12-06T11:09:08Z</time>
      </trkpt>
      <trkpt lat="44.14727" lon="3.21563">
        <ele>720</ele>
        <time>2015-12-06T11:09:09Z</time>
      </trkpt>
      <trkpt lat="44.14728" lon="3.21562">
        <ele>720</ele>
        <time>2015-12-06T11:09:10Z</time>
      </trkpt>
      <trkpt lat="44.14729" lon="3.21561">
        <ele>720</ele>
        <time>2015-12-06T11:09:11Z</time>
      </trkpt>
      <trkpt lat="44.1473" lon="3.21561">
        <ele>720</ele>
        <time>2015-12-06T11:09:12Z</time>
      </trkpt>
      <trkpt lat="44.14731" lon="3.2156">
        <ele>720.5</ele>
        <time>2015-12-06T11:09:13Z</time>
      </trkpt>
      <trkpt lat="44.14732" lon="3.21559">
        <ele>720.5</ele>
        <time>2015-12-06T11:09:14Z</time>
      </trkpt>
      <trkpt lat="44.14733" lon="3.21559">
        <ele>720</ele>
        <time>2015-12-06T11:09:15Z</time>
      </trkpt>
      <trkpt lat="44.14734" lon="3.21558">
        <ele>720.5</ele>
        <time>2015-12-06T11:09:16Z</time>
      </trkpt>
      <trkpt lat="44.14734" lon="3.21557">
        <ele>721</ele>
        <time>2015-12-06T11:09:17Z</time>
      </trkpt>
      <trkpt lat="44.14735" lon="3.21557">
        <ele>721</ele>
        <time>2015-12-06T11:09:18Z</time>
      </trkpt>
      <trkpt lat="44.14736" lon="3.21556">
        <ele>721</ele>
        <time>2015-12-06T11:09:19Z</time>
      </trkpt>
      <trkpt lat="44.14737" lon="3.21556">
        <ele>721</ele>
        <time>2015-12-06T11:09:20Z</time>
      </trkpt>
      <trkpt lat="44.14738" lon="3.21556">
        <ele>721</ele>
        <time>2015-12-06T11:09:21Z</time>
      </trkpt>
      <trkpt lat="44.14738" lon="3.21555">
        <ele>721</ele>
        <time>2015-12-06T11:09:22Z</time>
      </trkpt>
      <trkpt lat="44.14739" lon="3.21555">
        <ele>721.5</ele>
        <time>2015-12-06T11:09:23Z</time>
      </trkpt>
      <trkpt lat="44.1474" lon="3.21555">
        <ele>721.5</ele>
        <time>2015-12-06T11:09:24Z</time>
      </trkpt>
      <trkpt lat="44.1474" lon="3.21554">
        <ele>722</ele>
        <time>2015-12-06T11:09:25Z</time>
      </trkpt>
      <trkpt lat="44.14741" lon="3.21554">
        <ele>722.5</ele>
        <time>2015-12-06T11:09:26Z</time>
      </trkpt>
      <trkpt lat="44.14742" lon="3.21554">
        <ele>723</ele>
        <time>2015-12-06T11:09:27Z</time>
      </trkpt>
      <trkpt lat="44.14742" lon="3.21553">
        <ele>722.5</ele>
        <time>2015-12-06T11:09:28Z</time>
      </trkpt>
      <trkpt lat="44.14743" lon="3.21553">
        <ele>723</ele>
        <time>2015-12-06T11:09:29Z</time>
      </trkpt>
      <trkpt lat="44.14744" lon="3.21553">
        <ele>723</ele>
        <time>2015-12-06T11:09:30Z</time>
      </trkpt>
      <trkpt lat="44.14745" lon="3.21553">
        <ele>723</ele>
        <time>2015-12-06T11:09:31Z</time>
      </trkpt>
      <trkpt lat="44.14746" lon="3.21552">
        <ele>723.5</ele>
        <time>2015-12-06T11:09:32Z</time>
      </trkpt>
      <trkpt lat="44.14746" lon="3.21551">
        <ele>723</ele>
        <time>2015-12-06T11:09:33Z</time>
      </trkpt>
      <trkpt lat="44.14747" lon="3.21551">
        <ele>723</ele>
        <time>2015-12-06T11:09:34Z</time>
      </trkpt>
      <trkpt lat="44.14747" lon="3.2155">
        <ele>724</ele>
        <time>2015-12-06T11:09:35Z</time>
      </trkpt>
      <trkpt lat="44.14747" lon="3.2155">
        <ele>724.5</ele>
        <time>2015-12-06T11:09:36Z</time>
      </trkpt>
      <trkpt lat="44.14748" lon="3.21549">
        <ele>725.5</ele>
        <time>2015-12-06T11:09:37Z</time>
      </trkpt>
      <trkpt lat="44.14748" lon="3.21548">
        <ele>726.5</ele>
        <time>2015-12-06T11:09:38Z</time>
      </trkpt>
      <trkpt lat="44.14748" lon="3.21547">
        <ele>727</ele>
        <time>2015-12-06T11:09:39Z</time>
      </trkpt>
      <trkpt lat="44.14748" lon="3.21547">
        <ele>727.5</ele>
        <time>2015-12-06T11:09:40Z</time>
      </trkpt>
      <trkpt lat="44.14749" lon="3.21547">
        <ele>727.5</ele>
        <time>2015-12-06T11:09:41Z</time>
      </trkpt>
      <trkpt lat="44.1475" lon="3.21547">
        <ele>727</ele>
        <time>2015-12-06T11:09:42Z</time>
      </trkpt>
      <trkpt lat="44.1475" lon="3.21546">
        <ele>728</ele>
        <time>2015-12-06T11:09:43Z</time>
      </trkpt>
      <trkpt lat="44.1475" lon="3.21546">
        <ele>728.5</ele>
        <time>2015-12-06T11:09:44Z</time>
      </trkpt>
      <trkpt lat="44.14751" lon="3.21545">
        <ele>727</ele>
        <time>2015-12-06T11:09:45Z</time>
      </trkpt>
      <trkpt lat="44.14751" lon="3.21545">
        <ele>726.5</ele>
        <time>2015-12-06T11:09:46Z</time>
      </trkpt>
      <trkpt lat="44.14751" lon="3.21544">
        <ele>726.5</ele>
        <time>2015-12-06T11:09:47Z</time>
      </trkpt>
      <trkpt lat="44.14752" lon="3.21543">
        <ele>726.5</ele>
        <time>2015-12-06T11:09:48Z</time>
      </trkpt>
      <trkpt lat="44.14753" lon="3.21543">
        <ele>725.5</ele>
        <time>2015-12-06T11:09:49Z</time>
      </trkpt>
      <trkpt lat="44.14752" lon="3.21542">
        <ele>724.5</ele>
        <time>2015-12-06T11:09:50Z</time>
      </trkpt>
      <trkpt lat="44.14752" lon="3.21542">
        <ele>723.5</ele>
        <time>2015-12-06T11:09:51Z</time>
      </trkpt>
      <trkpt lat="44.14754" lon="3.21542">
        <ele>724.5</ele>
        <time>2015-12-06T11:09:52Z</time>
      </trkpt>
      <trkpt lat="44.14754" lon="3.21541">
        <ele>724.5</ele>
        <time>2015-12-06T11:09:53Z</time>
      </trkpt>
      <trkpt lat="44.14755" lon="3.21541">
        <ele>724.5</ele>
        <time>2015-12-06T11:09:54Z</time>
      </trkpt>
      <trkpt lat="44.14756" lon="3.21541">
        <ele>724.5</ele>
        <time>2015-12-06T11:09:55Z</time>
      </trkpt>
      <trkpt lat="44.14757" lon="3.21542">
        <ele>723.5</ele>
        <time>2015-12-06T11:09:56Z</time>
      </trkpt>
      <trkpt lat="44.14758" lon="3.21541">
        <ele>724</ele>
        <time>2015-12-06T11:09:57Z</time>
      </trkpt>
      <trkpt lat="44.14759" lon="3.21541">
        <ele>723.5</ele>
        <time>2015-12-06T11:09:58Z</time>
      </trkpt>
      <trkpt lat="44.14759" lon="3.21541">
        <ele>724</ele>
        <time>2015-12-06T11:09:59Z</time>
      </trkpt>
      <trkpt lat="44.1476" lon="3.2154">
        <ele>724.5</ele>
        <time>2015-12-06T11:10:00Z</time>
      </trkpt>
      <trkpt lat="44.1476" lon="3.2154">
        <ele>725</ele>
        <time>2015-12-06T11:10:01Z</time>
      </trkpt>
      <trkpt lat="44.14761" lon="3.2154">
        <ele>725</ele>
        <time>2015-12-06T11:10:02Z</time>
      </trkpt>
      <trkpt lat="44.14761" lon="3.21539">
        <ele>726</ele>
        <time>2015-12-06T11:10:03Z</time>
      </trkpt>
      <trkpt lat="44.14762" lon="3.21538">
        <ele>725.5</ele>
        <time>2015-12-06T11:10:04Z</time>
      </trkpt>
      <trkpt lat="44.14762" lon="3.21537">
        <ele>726</ele>
        <time>2015-12-06T11:10:05Z</time>
      </trkpt>
      <trkpt lat="44.14763" lon="3.21537">
        <ele>726.5</ele>
        <time>2015-12-06T11:10:06Z</time>
      </trkpt>
      <trkpt lat="44.14764" lon="3.21537">
        <ele>725.5</ele>
        <time>2015-12-06T11:10:07Z</time>
      </trkpt>
      <trkpt lat="44.14765" lon="3.21536">
        <ele>726</ele>
        <time>2015-12-06T11:10:08Z</time>
      </trkpt>
      <trkpt lat="44.14766" lon="3.21535">
        <ele>726</ele>
        <time>2015-12-06T11:10:09Z</time>
      </trkpt>
      <trkpt lat="44.14766" lon="3.21535">
        <ele>726.5</ele>
        <time>2015-12-06T11:10:10Z</time>
      </trkpt>
      <trkpt lat="44.14767" lon="3.21534">
        <ele>727</ele>
        <time>2015-12-06T11:10:11Z</time>
      </trkpt>
      <trkpt lat="44.14768" lon="3.21534">
        <ele>726.5</ele>
        <time>2015-12-06T11:10:12Z</time>
      </trkpt>
      <trkpt lat="44.14768" lon="3.21534">
        <ele>726</ele>
        <time>2015-12-06T11:10:13Z</time>
      </trkpt>
      <trkpt lat="44.14769" lon="3.21534">
        <ele>725.5</ele>
        <time>2015-12-06T11:10:14Z</time>
      </trkpt>
      <trkpt lat="44.14769" lon="3.21533">
        <ele>725</ele>
        <time>2015-12-06T11:10:15Z</time>
      </trkpt>
      <trkpt lat="44.1477" lon="3.21533">
        <ele>725</ele>
        <time>2015-12-06T11:10:16Z</time>
      </trkpt>
      <trkpt lat="44.1477" lon="3.21533">
        <ele>725</ele>
        <time>2015-12-06T11:10:17Z</time>
      </trkpt>
      <trkpt lat="44.14771" lon="3.21532">
        <ele>725</ele>
        <time>2015-12-06T11:10:18Z</time>
      </trkpt>
      <trkpt lat="44.14771" lon="3.21531">
        <ele>725.5</ele>
        <time>2015-12-06T11:10:19Z</time>
      </trkpt>
      <trkpt lat="44.14772" lon="3.21531">
        <ele>726</ele>
        <time>2015-12-06T11:10:20Z</time>
      </trkpt>
      <trkpt lat="44.14773" lon="3.2153">
        <ele>726</ele>
        <time>2015-12-06T11:10:21Z</time>
      </trkpt>
      <trkpt lat="44.14773" lon="3.2153">
        <ele>726</ele>
        <time>2015-12-06T11:10:22Z</time>
      </trkpt>
      <trkpt lat="44.14774" lon="3.2153">
        <ele>726</ele>
        <time>2015-12-06T11:10:23Z</time>
      </trkpt>
      <trkpt lat="44.14775" lon="3.2153">
        <ele>726.5</ele>
        <time>2015-12-06T11:10:24Z</time>
      </trkpt>
      <trkpt lat="44.14775" lon="3.2153">
        <ele>727</ele>
        <time>2015-12-06T11:10:25Z</time>
      </trkpt>
      <trkpt lat="44.14775" lon="3.21529">
        <ele>727</ele>
        <time>2015-12-06T11:10:26Z</time>
      </trkpt>
      <trkpt lat="44.14776" lon="3.21528">
        <ele>727.5</ele>
        <time>2015-12-06T11:10:27Z</time>
      </trkpt>
      <trkpt lat="44.14777" lon="3.21527">
        <ele>728.5</ele>
        <time>2015-12-06T11:10:28Z</time>
      </trkpt>
      <trkpt lat="44.14777" lon="3.21526">
        <ele>729.5</ele>
        <time>2015-12-06T11:10:29Z</time>
      </trkpt>
      <trkpt lat="44.14777" lon="3.21526">
        <ele>729.5</ele>
        <time>2015-12-06T11:10:30Z</time>
      </trkpt>
      <trkpt lat="44.14778" lon="3.21525">
        <ele>730</ele>
        <time>2015-12-06T11:10:31Z</time>
      </trkpt>
      <trkpt lat="44.14778" lon="3.21525">
        <ele>730.5</ele>
        <time>2015-12-06T11:10:32Z</time>
      </trkpt>
      <trkpt lat="44.14779" lon="3.21524">
        <ele>731</ele>
        <time>2015-12-06T11:10:33Z</time>
      </trkpt>
      <trkpt lat="44.14779" lon="3.21524">
        <ele>731</ele>
        <time>2015-12-06T11:10:34Z</time>
      </trkpt>
      <trkpt lat="44.14779" lon="3.21523">
        <ele>731</ele>
        <time>2015-12-06T11:10:35Z</time>
      </trkpt>
      <trkpt lat="44.1478" lon="3.21523">
        <ele>731</ele>
        <time>2015-12-06T11:10:36Z</time>
      </trkpt>
      <trkpt lat="44.14781" lon="3.21523">
        <ele>731.5</ele>
        <time>2015-12-06T11:10:37Z</time>
      </trkpt>
      <trkpt lat="44.14781" lon="3.21522">
        <ele>732</ele>
        <time>2015-12-06T11:10:38Z</time>
      </trkpt>
      <trkpt lat="44.14782" lon="3.21522">
        <ele>732.5</ele>
        <time>2015-12-06T11:10:39Z</time>
      </trkpt>
      <trkpt lat="44.14782" lon="3.21521">
        <ele>733.5</ele>
        <time>2015-12-06T11:10:40Z</time>
      </trkpt>
      <trkpt lat="44.14783" lon="3.21521">
        <ele>733.5</ele>
        <time>2015-12-06T11:10:41Z</time>
      </trkpt>
      <trkpt lat="44.14784" lon="3.21521">
        <ele>734</ele>
        <time>2015-12-06T11:10:42Z</time>
      </trkpt>
      <trkpt lat="44.14785" lon="3.21521">
        <ele>734</ele>
        <time>2015-12-06T11:10:43Z</time>
      </trkpt>
      <trkpt lat="44.14786" lon="3.21521">
        <ele>734</ele>
        <time>2015-12-06T11:10:44Z</time>
      </trkpt>
      <trkpt lat="44.14787" lon="3.21521">
        <ele>734</ele>
        <time>2015-12-06T11:10:45Z</time>
      </trkpt>
      <trkpt lat="44.14788" lon="3.21521">
        <ele>734.5</ele>
        <time>2015-12-06T11:10:46Z</time>
      </trkpt>
      <trkpt lat="44.14788" lon="3.2152">
        <ele>735</ele>
        <time>2015-12-06T11:10:47Z</time>
      </trkpt>
      <trkpt lat="44.14789" lon="3.2152">
        <ele>735</ele>
        <time>2015-12-06T11:10:48Z</time>
      </trkpt>
      <trkpt lat="44.1479" lon="3.2152">
        <ele>735</ele>
        <time>2015-12-06T11:10:49Z</time>
      </trkpt>
      <trkpt lat="44.1479" lon="3.2152">
        <ele>735.5</ele>
        <time>2015-12-06T11:10:50Z</time>
      </trkpt>
      <trkpt lat="44.14791" lon="3.21519">
        <ele>736</ele>
        <time>2015-12-06T11:10:51Z</time>
      </trkpt>
      <trkpt lat="44.14791" lon="3.21519">
        <ele>737</ele>
        <time>2015-12-06T11:10:52Z</time>
      </trkpt>
      <trkpt lat="44.14792" lon="3.21518">
        <ele>737</ele>
        <time>2015-12-06T11:10:53Z</time>
      </trkpt>
      <trkpt lat="44.14793" lon="3.21518">
        <ele>737</ele>
        <time>2015-12-06T11:10:54Z</time>
      </trkpt>
      <trkpt lat="44.14793" lon="3.21517">
        <ele>737.5</ele>
        <time>2015-12-06T11:10:55Z</time>
      </trkpt>
      <trkpt lat="44.14794" lon="3.21516">
        <ele>738</ele>
        <time>2015-12-06T11:10:56Z</time>
      </trkpt>
      <trkpt lat="44.14794" lon="3.21516">
        <ele>739</ele>
        <time>2015-12-06T11:10:57Z</time>
      </trkpt>
      <trkpt lat="44.14794" lon="3.21515">
        <ele>739.5</ele>
        <time>2015-12-06T11:10:58Z</time>
      </trkpt>
      <trkpt lat="44.14795" lon="3.21514">
        <ele>739.5</ele>
        <time>2015-12-06T11:10:59Z</time>
      </trkpt>
      <trkpt lat="44.14795" lon="3.21513">
        <ele>740.5</ele>
        <time>2015-12-06T11:10:59Z</time>
      </trkpt>
      <trkpt lat="44.14795" lon="3.21513">
        <ele>741.5</ele>
        <time>2015-12-06T11:11:00Z</time>
      </trkpt>
      <trkpt lat="44.14795" lon="3.21512">
        <ele>742</ele>
        <time>2015-12-06T11:11:01Z</time>
      </trkpt>
      <trkpt lat="44.14795" lon="3.21512">
        <ele>743</ele>
        <time>2015-12-06T11:11:02Z</time>
      </trkpt>
      <trkpt lat="44.14796" lon="3.21511">
        <ele>743</ele>
        <time>2015-12-06T11:11:03Z</time>
      </trkpt>
      <trkpt lat="44.14797" lon="3.21511">
        <ele>743.5</ele>
        <time>2015-12-06T11:11:04Z</time>
      </trkpt>
      <trkpt lat="44.14797" lon="3.21511">
        <ele>743.5</ele>
        <time>2015-12-06T11:11:05Z</time>
      </trkpt>
      <trkpt lat="44.14798" lon="3.2151">
        <ele>743.5</ele>
        <time>2015-12-06T11:11:06Z</time>
      </trkpt>
      <trkpt lat="44.14799" lon="3.2151">
        <ele>744</ele>
        <time>2015-12-06T11:11:07Z</time>
      </trkpt>
      <trkpt lat="44.14799" lon="3.21509">
        <ele>744</ele>
        <time>2015-12-06T11:11:08Z</time>
      </trkpt>
      <trkpt lat="44.148" lon="3.21509">
        <ele>743</ele>
        <time>2015-12-06T11:11:09Z</time>
      </trkpt>
      <trkpt lat="44.14801" lon="3.21509">
        <ele>742.5</ele>
        <time>2015-12-06T11:11:10Z</time>
      </trkpt>
      <trkpt lat="44.14801" lon="3.21508">
        <ele>743</ele>
        <time>2015-12-06T11:11:11Z</time>
      </trkpt>
      <trkpt lat="44.14802" lon="3.21508">
        <ele>743.5</ele>
        <time>2015-12-06T11:11:12Z</time>
      </trkpt>
      <trkpt lat="44.14803" lon="3.21508">
        <ele>743.5</ele>
        <time>2015-12-06T11:11:13Z</time>
      </trkpt>
      <trkpt lat="44.14803" lon="3.21507">
        <ele>743.5</ele>
        <time>2015-12-06T11:11:14Z</time>
      </trkpt>
      <trkpt lat="44.14804" lon="3.21507">
        <ele>743.5</ele>
        <time>2015-12-06T11:11:15Z</time>
      </trkpt>
      <trkpt lat="44.14804" lon="3.21507">
        <ele>744</ele>
        <time>2015-12-06T11:11:16Z</time>
      </trkpt>
      <trkpt lat="44.14805" lon="3.21507">
        <ele>744</ele>
        <time>2015-12-06T11:11:17Z</time>
      </trkpt>
      <trkpt lat="44.14805" lon="3.21507">
        <ele>744</ele>
        <time>2015-12-06T11:11:18Z</time>
      </trkpt>
      <trkpt lat="44.14806" lon="3.21507">
        <ele>743.5</ele>
        <time>2015-12-06T11:11:19Z</time>
      </trkpt>
      <trkpt lat="44.14807" lon="3.21507">
        <ele>743.5</ele>
        <time>2015-12-06T11:11:20Z</time>
      </trkpt>
      <trkpt lat="44.14807" lon="3.21506">
        <ele>743.5</ele>
        <time>2015-12-06T11:11:21Z</time>
      </trkpt>
      <trkpt lat="44.14808" lon="3.21506">
        <ele>743.5</ele>
        <time>2015-12-06T11:11:22Z</time>
      </trkpt>
      <trkpt lat="44.14809" lon="3.21506">
        <ele>743.5</ele>
        <time>2015-12-06T11:11:23Z</time>
      </trkpt>
      <trkpt lat="44.1481" lon="3.21506">
        <ele>744</ele>
        <time>2015-12-06T11:11:24Z</time>
      </trkpt>
      <trkpt lat="44.1481" lon="3.21505">
        <ele>744.5</ele>
        <time>2015-12-06T11:11:25Z</time>
      </trkpt>
      <trkpt lat="44.14811" lon="3.21504">
        <ele>744.5</ele>
        <time>2015-12-06T11:11:26Z</time>
      </trkpt>
      <trkpt lat="44.14812" lon="3.21504">
        <ele>744</ele>
        <time>2015-12-06T11:11:27Z</time>
      </trkpt>
      <trkpt lat="44.14813" lon="3.21504">
        <ele>744</ele>
        <time>2015-12-06T11:11:28Z</time>
      </trkpt>
      <trkpt lat="44.14813" lon="3.21504">
        <ele>744</ele>
        <time>2015-12-06T11:11:29Z</time>
      </trkpt>
      <trkpt lat="44.14814" lon="3.21504">
        <ele>744.5</ele>
        <time>2015-12-06T11:11:30Z</time>
      </trkpt>
      <trkpt lat="44.14815" lon="3.21504">
        <ele>744.5</ele>
        <time>2015-12-06T11:11:31Z</time>
      </trkpt>
      <trkpt lat="44.14816" lon="3.21504">
        <ele>744.5</ele>
        <time>2015-12-06T11:11:35Z</time>
      </trkpt>
      <trkpt lat="44.14818" lon="3.21506">
        <ele>741.5</ele>
        <time>2015-12-06T11:11:43Z</time>
      </trkpt>
      <trkpt lat="44.14818" lon="3.21506">
        <ele>742.5</ele>
        <time>2015-12-06T11:11:52Z</time>
      </trkpt>
      <trkpt lat="44.14818" lon="3.21507">
        <ele>742</ele>
        <time>2015-12-06T11:11:54Z</time>
      </trkpt>
      <trkpt lat="44.14818" lon="3.21506">
        <ele>743</ele>
        <time>2015-12-06T11:11:55Z</time>
      </trkpt>
      <trkpt lat="44.14819" lon="3.21505">
        <ele>744</ele>
        <time>2015-12-06T11:11:56Z</time>
      </trkpt>
      <trkpt lat="44.14819" lon="3.21505">
        <ele>744</ele>
        <time>2015-12-06T11:11:57Z</time>
      </trkpt>
      <trkpt lat="44.1482" lon="3.21504">
        <ele>744.5</ele>
        <time>2015-12-06T11:11:58Z</time>
      </trkpt>
      <trkpt lat="44.1482" lon="3.21504">
        <ele>744</ele>
        <time>2015-12-06T11:11:59Z</time>
      </trkpt>
      <trkpt lat="44.14821" lon="3.21503">
        <ele>744</ele>
        <time>2015-12-06T11:12:00Z</time>
      </trkpt>
      <trkpt lat="44.14821" lon="3.21503">
        <ele>744.5</ele>
        <time>2015-12-06T11:12:01Z</time>
      </trkpt>
      <trkpt lat="44.14822" lon="3.21502">
        <ele>744.5</ele>
        <time>2015-12-06T11:12:02Z</time>
      </trkpt>
      <trkpt lat="44.14822" lon="3.21502">
        <ele>745</ele>
        <time>2015-12-06T11:12:03Z</time>
      </trkpt>
      <trkpt lat="44.14823" lon="3.21502">
        <ele>745.5</ele>
        <time>2015-12-06T11:12:04Z</time>
      </trkpt>
      <trkpt lat="44.14824" lon="3.21501">
        <ele>746</ele>
        <time>2015-12-06T11:12:05Z</time>
      </trkpt>
      <trkpt lat="44.14824" lon="3.21501">
        <ele>746.5</ele>
        <time>2015-12-06T11:12:06Z</time>
      </trkpt>
      <trkpt lat="44.14825" lon="3.215">
        <ele>746.5</ele>
        <time>2015-12-06T11:12:07Z</time>
      </trkpt>
      <trkpt lat="44.14825" lon="3.215">
        <ele>747</ele>
        <time>2015-12-06T11:12:08Z</time>
      </trkpt>
      <trkpt lat="44.14826" lon="3.215">
        <ele>747</ele>
        <time>2015-12-06T11:12:09Z</time>
      </trkpt>
      <trkpt lat="44.14826" lon="3.21499">
        <ele>747.5</ele>
        <time>2015-12-06T11:12:10Z</time>
      </trkpt>
      <trkpt lat="44.14827" lon="3.21499">
        <ele>747.5</ele>
        <time>2015-12-06T11:12:11Z</time>
      </trkpt>
      <trkpt lat="44.14828" lon="3.21499">
        <ele>748</ele>
        <time>2015-12-06T11:12:12Z</time>
      </trkpt>
      <trkpt lat="44.14828" lon="3.21498">
        <ele>748</ele>
        <time>2015-12-06T11:12:13Z</time>
      </trkpt>
      <trkpt lat="44.14829" lon="3.21498">
        <ele>748.5</ele>
        <time>2015-12-06T11:12:14Z</time>
      </trkpt>
      <trkpt lat="44.14829" lon="3.21497">
        <ele>748.5</ele>
        <time>2015-12-06T11:12:15Z</time>
      </trkpt>
      <trkpt lat="44.1483" lon="3.21497">
        <ele>748.5</ele>
        <time>2015-12-06T11:12:16Z</time>
      </trkpt>
      <trkpt lat="44.1483" lon="3.21497">
        <ele>748.5</ele>
        <time>2015-12-06T11:12:17Z</time>
      </trkpt>
      <trkpt lat="44.14831" lon="3.21496">
        <ele>748.5</ele>
        <time>2015-12-06T11:12:18Z</time>
      </trkpt>
      <trkpt lat="44.14832" lon="3.21496">
        <ele>748.5</ele>
        <time>2015-12-06T11:12:19Z</time>
      </trkpt>
      <trkpt lat="44.14832" lon="3.21496">
        <ele>748.5</ele>
        <time>2015-12-06T11:12:20Z</time>
      </trkpt>
      <trkpt lat="44.14833" lon="3.21495">
        <ele>749</ele>
        <time>2015-12-06T11:12:21Z</time>
      </trkpt>
      <trkpt lat="44.14834" lon="3.21495">
        <ele>749.5</ele>
        <time>2015-12-06T11:12:22Z</time>
      </trkpt>
      <trkpt lat="44.14834" lon="3.21495">
        <ele>750</ele>
        <time>2015-12-06T11:12:23Z</time>
      </trkpt>
      <trkpt lat="44.14835" lon="3.21495">
        <ele>750</ele>
        <time>2015-12-06T11:12:24Z</time>
      </trkpt>
      <trkpt lat="44.14836" lon="3.21494">
        <ele>750</ele>
        <time>2015-12-06T11:12:25Z</time>
      </trkpt>
      <trkpt lat="44.14836" lon="3.21493">
        <ele>751</ele>
        <time>2015-12-06T11:12:26Z</time>
      </trkpt>
      <trkpt lat="44.14837" lon="3.21493">
        <ele>751.5</ele>
        <time>2015-12-06T11:12:27Z</time>
      </trkpt>
      <trkpt lat="44.14838" lon="3.21493">
        <ele>751.5</ele>
        <time>2015-12-06T11:12:28Z</time>
      </trkpt>
      <trkpt lat="44.14839" lon="3.21492">
        <ele>751.5</ele>
        <time>2015-12-06T11:12:29Z</time>
      </trkpt>
      <trkpt lat="44.1484" lon="3.21492">
        <ele>751.5</ele>
        <time>2015-12-06T11:12:30Z</time>
      </trkpt>
      <trkpt lat="44.14841" lon="3.21491">
        <ele>751.5</ele>
        <time>2015-12-06T11:12:31Z</time>
      </trkpt>
      <trkpt lat="44.14842" lon="3.2149">
        <ele>751.5</ele>
        <time>2015-12-06T11:12:32Z</time>
      </trkpt>
      <trkpt lat="44.14842" lon="3.2149">
        <ele>751.5</ele>
        <time>2015-12-06T11:12:33Z</time>
      </trkpt>
      <trkpt lat="44.14844" lon="3.21488">
        <ele>751.5</ele>
        <time>2015-12-06T11:12:35Z</time>
      </trkpt>
      <trkpt lat="44.14845" lon="3.21487">
        <ele>751</ele>
        <time>2015-12-06T11:12:36Z</time>
      </trkpt>
      <trkpt lat="44.14845" lon="3.21486">
        <ele>751.5</ele>
        <time>2015-12-06T11:12:37Z</time>
      </trkpt>
      <trkpt lat="44.14846" lon="3.21484">
        <ele>751</ele>
        <time>2015-12-06T11:12:38Z</time>
      </trkpt>
      <trkpt lat="44.14846" lon="3.21484">
        <ele>751.5</ele>
        <time>2015-12-06T11:12:39Z</time>
      </trkpt>
      <trkpt lat="44.14847" lon="3.21483">
        <ele>751.5</ele>
        <time>2015-12-06T11:12:40Z</time>
      </trkpt>
      <trkpt lat="44.14848" lon="3.21483">
        <ele>752</ele>
        <time>2015-12-06T11:12:41Z</time>
      </trkpt>
      <trkpt lat="44.14849" lon="3.21482">
        <ele>752.5</ele>
        <time>2015-12-06T11:12:42Z</time>
      </trkpt>
      <trkpt lat="44.1485" lon="3.21481">
        <ele>752.5</ele>
        <time>2015-12-06T11:12:43Z</time>
      </trkpt>
      <trkpt lat="44.14851" lon="3.21481">
        <ele>752</ele>
        <time>2015-12-06T11:12:44Z</time>
      </trkpt>
      <trkpt lat="44.14852" lon="3.21479">
        <ele>752.5</ele>
        <time>2015-12-06T11:12:45Z</time>
      </trkpt>
      <trkpt lat="44.14853" lon="3.21479">
        <ele>752</ele>
        <time>2015-12-06T11:12:46Z</time>
      </trkpt>
      <trkpt lat="44.14853" lon="3.21478">
        <ele>752.5</ele>
        <time>2015-12-06T11:12:47Z</time>
      </trkpt>
      <trkpt lat="44.14855" lon="3.21477">
        <ele>752.5</ele>
        <time>2015-12-06T11:12:48Z</time>
      </trkpt>
      <trkpt lat="44.14856" lon="3.21476">
        <ele>752</ele>
        <time>2015-12-06T11:12:49Z</time>
      </trkpt>
      <trkpt lat="44.14857" lon="3.21475">
        <ele>751.5</ele>
        <time>2015-12-06T11:12:50Z</time>
      </trkpt>
      <trkpt lat="44.14858" lon="3.21475">
        <ele>752</ele>
        <time>2015-12-06T11:12:51Z</time>
      </trkpt>
      <trkpt lat="44.14859" lon="3.21474">
        <ele>751.5</ele>
        <time>2015-12-06T11:12:52Z</time>
      </trkpt>
      <trkpt lat="44.14859" lon="3.21474">
        <ele>752</ele>
        <time>2015-12-06T11:12:53Z</time>
      </trkpt>
      <trkpt lat="44.1486" lon="3.21473">
        <ele>752.5</ele>
        <time>2015-12-06T11:12:54Z</time>
      </trkpt>
      <trkpt lat="44.14861" lon="3.21472">
        <ele>752.5</ele>
        <time>2015-12-06T11:12:55Z</time>
      </trkpt>
      <trkpt lat="44.14862" lon="3.21471">
        <ele>753</ele>
        <time>2015-12-06T11:12:56Z</time>
      </trkpt>
      <trkpt lat="44.14863" lon="3.2147">
        <ele>753.5</ele>
        <time>2015-12-06T11:12:57Z</time>
      </trkpt>
      <trkpt lat="44.14863" lon="3.21469">
        <ele>753.5</ele>
        <time>2015-12-06T11:12:58Z</time>
      </trkpt>
      <trkpt lat="44.14864" lon="3.21469">
        <ele>753.5</ele>
        <time>2015-12-06T11:12:59Z</time>
      </trkpt>
      <trkpt lat="44.14865" lon="3.21469">
        <ele>753</ele>
        <time>2015-12-06T11:13:00Z</time>
      </trkpt>
      <trkpt lat="44.14866" lon="3.21469">
        <ele>753</ele>
        <time>2015-12-06T11:13:01Z</time>
      </trkpt>
      <trkpt lat="44.14867" lon="3.21469">
        <ele>753.5</ele>
        <time>2015-12-06T11:13:02Z</time>
      </trkpt>
      <trkpt lat="44.14868" lon="3.21469">
        <ele>753.5</ele>
        <time>2015-12-06T11:13:03Z</time>
      </trkpt>
      <trkpt lat="44.14868" lon="3.21469">
        <ele>753.5</ele>
        <time>2015-12-06T11:13:04Z</time>
      </trkpt>
      <trkpt lat="44.14868" lon="3.21468">
        <ele>753.5</ele>
        <time>2015-12-06T11:13:06Z</time>
      </trkpt>
      <trkpt lat="44.14869" lon="3.21468">
        <ele>753</ele>
        <time>2015-12-06T11:13:07Z</time>
      </trkpt>
      <trkpt lat="44.14869" lon="3.21468">
        <ele>753</ele>
        <time>2015-12-06T11:13:08Z</time>
      </trkpt>
      <trkpt lat="44.14871" lon="3.21468">
        <ele>752.5</ele>
        <time>2015-12-06T11:13:09Z</time>
      </trkpt>
      <trkpt lat="44.14872" lon="3.21467">
        <ele>753</ele>
        <time>2015-12-06T11:13:10Z</time>
      </trkpt>
      <trkpt lat="44.14874" lon="3.21468">
        <ele>753.5</ele>
        <time>2015-12-06T11:13:11Z</time>
      </trkpt>
      <trkpt lat="44.14875" lon="3.21467">
        <ele>753</ele>
        <time>2015-12-06T11:13:12Z</time>
      </trkpt>
      <trkpt lat="44.14877" lon="3.21467">
        <ele>753</ele>
        <time>2015-12-06T11:13:13Z</time>
      </trkpt>
      <trkpt lat="44.14878" lon="3.21467">
        <ele>753</ele>
        <time>2015-12-06T11:13:14Z</time>
      </trkpt>
      <trkpt lat="44.1488" lon="3.21466">
        <ele>753</ele>
        <time>2015-12-06T11:13:15Z</time>
      </trkpt>
      <trkpt lat="44.14881" lon="3.21466">
        <ele>753</ele>
        <time>2015-12-06T11:13:16Z</time>
      </trkpt>
      <trkpt lat="44.14883" lon="3.21467">
        <ele>753</ele>
        <time>2015-12-06T11:13:17Z</time>
      </trkpt>
      <trkpt lat="44.14885" lon="3.21466">
        <ele>752.5</ele>
        <time>2015-12-06T11:13:18Z</time>
      </trkpt>
      <trkpt lat="44.14886" lon="3.21467">
        <ele>752</ele>
        <time>2015-12-06T11:13:19Z</time>
      </trkpt>
      <trkpt lat="44.14888" lon="3.21466">
        <ele>752</ele>
        <time>2015-12-06T11:13:20Z</time>
      </trkpt>
      <trkpt lat="44.14889" lon="3.21466">
        <ele>752</ele>
        <time>2015-12-06T11:13:21Z</time>
      </trkpt>
      <trkpt lat="44.14891" lon="3.21466">
        <ele>752</ele>
        <time>2015-12-06T11:13:22Z</time>
      </trkpt>
      <trkpt lat="44.14893" lon="3.21466">
        <ele>751</ele>
        <time>2015-12-06T11:13:23Z</time>
      </trkpt>
      <trkpt lat="44.14895" lon="3.21467">
        <ele>751</ele>
        <time>2015-12-06T11:13:24Z</time>
      </trkpt>
      <trkpt lat="44.14896" lon="3.21466">
        <ele>751</ele>
        <time>2015-12-06T11:13:25Z</time>
      </trkpt>
      <trkpt lat="44.14897" lon="3.21466">
        <ele>751</ele>
        <time>2015-12-06T11:13:26Z</time>
      </trkpt>
      <trkpt lat="44.14898" lon="3.21465">
        <ele>752</ele>
        <time>2015-12-06T11:13:27Z</time>
      </trkpt>
      <trkpt lat="44.14899" lon="3.21464">
        <ele>752.5</ele>
        <time>2015-12-06T11:13:28Z</time>
      </trkpt>
      <trkpt lat="44.14901" lon="3.21464">
        <ele>754</ele>
        <time>2015-12-06T11:13:29Z</time>
      </trkpt>
      <trkpt lat="44.14902" lon="3.21463">
        <ele>754.5</ele>
        <time>2015-12-06T11:13:30Z</time>
      </trkpt>
      <trkpt lat="44.14904" lon="3.21463">
        <ele>754.5</ele>
        <time>2015-12-06T11:13:31Z</time>
      </trkpt>
      <trkpt lat="44.14905" lon="3.21463">
        <ele>755</ele>
        <time>2015-12-06T11:13:32Z</time>
      </trkpt>
      <trkpt lat="44.14907" lon="3.21461">
        <ele>758</ele>
        <time>2015-12-06T11:13:33Z</time>
      </trkpt>
      <trkpt lat="44.14908" lon="3.21461">
        <ele>761</ele>
        <time>2015-12-06T11:13:34Z</time>
      </trkpt>
      <trkpt lat="44.1491" lon="3.21461">
        <ele>764</ele>
        <time>2015-12-06T11:13:35Z</time>
      </trkpt>
      <trkpt lat="44.14911" lon="3.2146">
        <ele>764.5</ele>
        <time>2015-12-06T11:13:36Z</time>
      </trkpt>
      <trkpt lat="44.14913" lon="3.2146">
        <ele>765</ele>
        <time>2015-12-06T11:13:37Z</time>
      </trkpt>
      <trkpt lat="44.14915" lon="3.2146">
        <ele>765.5</ele>
        <time>2015-12-06T11:13:38Z</time>
      </trkpt>
      <trkpt lat="44.14916" lon="3.2146">
        <ele>766</ele>
        <time>2015-12-06T11:13:39Z</time>
      </trkpt>
      <trkpt lat="44.14918" lon="3.21459">
        <ele>766</ele>
        <time>2015-12-06T11:13:40Z</time>
      </trkpt>
      <trkpt lat="44.1492" lon="3.21458">
        <ele>765.5</ele>
        <time>2015-12-06T11:13:41Z</time>
      </trkpt>
      <trkpt lat="44.14921" lon="3.21458">
        <ele>766</ele>
        <time>2015-12-06T11:13:42Z</time>
      </trkpt>
      <trkpt lat="44.14922" lon="3.21456">
        <ele>767</ele>
        <time>2015-12-06T11:13:43Z</time>
      </trkpt>
      <trkpt lat="44.14924" lon="3.21455">
        <ele>768</ele>
        <time>2015-12-06T11:13:44Z</time>
      </trkpt>
      <trkpt lat="44.14925" lon="3.21454">
        <ele>769</ele>
        <time>2015-12-06T11:13:45Z</time>
      </trkpt>
      <trkpt lat="44.14927" lon="3.21452">
        <ele>768.5</ele>
        <time>2015-12-06T11:13:46Z</time>
      </trkpt>
      <trkpt lat="44.14928" lon="3.2145">
        <ele>769</ele>
        <time>2015-12-06T11:13:47Z</time>
      </trkpt>
      <trkpt lat="44.14929" lon="3.21449">
        <ele>769</ele>
        <time>2015-12-06T11:13:48Z</time>
      </trkpt>
      <trkpt lat="44.1493" lon="3.21446">
        <ele>769</ele>
        <time>2015-12-06T11:13:49Z</time>
      </trkpt>
      <trkpt lat="44.14931" lon="3.21445">
        <ele>768</ele>
        <time>2015-12-06T11:13:50Z</time>
      </trkpt>
      <trkpt lat="44.14932" lon="3.21443">
        <ele>768</ele>
        <time>2015-12-06T11:13:51Z</time>
      </trkpt>
      <trkpt lat="44.14933" lon="3.21441">
        <ele>768</ele>
        <time>2015-12-06T11:13:52Z</time>
      </trkpt>
      <trkpt lat="44.14934" lon="3.21439">
        <ele>767</ele>
        <time>2015-12-06T11:13:53Z</time>
      </trkpt>
      <trkpt lat="44.14935" lon="3.21437">
        <ele>767</ele>
        <time>2015-12-06T11:13:54Z</time>
      </trkpt>
      <trkpt lat="44.14937" lon="3.21435">
        <ele>765</ele>
        <time>2015-12-06T11:13:55Z</time>
      </trkpt>
      <trkpt lat="44.14938" lon="3.21434">
        <ele>764.5</ele>
        <time>2015-12-06T11:13:56Z</time>
      </trkpt>
      <trkpt lat="44.14939" lon="3.21433">
        <ele>764</ele>
        <time>2015-12-06T11:13:57Z</time>
      </trkpt>
      <trkpt lat="44.1494" lon="3.21432">
        <ele>763.5</ele>
        <time>2015-12-06T11:13:58Z</time>
      </trkpt>
      <trkpt lat="44.1494" lon="3.2143">
        <ele>763</ele>
        <time>2015-12-06T11:13:59Z</time>
      </trkpt>
      <trkpt lat="44.14941" lon="3.21428">
        <ele>764</ele>
        <time>2015-12-06T11:14:00Z</time>
      </trkpt>
      <trkpt lat="44.14942" lon="3.21426">
        <ele>765</ele>
        <time>2015-12-06T11:14:01Z</time>
      </trkpt>
      <trkpt lat="44.14943" lon="3.21424">
        <ele>766</ele>
        <time>2015-12-06T11:14:02Z</time>
      </trkpt>
      <trkpt lat="44.14944" lon="3.21423">
        <ele>765.5</ele>
        <time>2015-12-06T11:14:03Z</time>
      </trkpt>
      <trkpt lat="44.14945" lon="3.21422">
        <ele>764</ele>
        <time>2015-12-06T11:14:04Z</time>
      </trkpt>
      <trkpt lat="44.14945" lon="3.21421">
        <ele>763.5</ele>
        <time>2015-12-06T11:14:05Z</time>
      </trkpt>
      <trkpt lat="44.14946" lon="3.21419">
        <ele>763</ele>
        <time>2015-12-06T11:14:06Z</time>
      </trkpt>
      <trkpt lat="44.14947" lon="3.21417">
        <ele>762.5</ele>
        <time>2015-12-06T11:14:07Z</time>
      </trkpt>
      <trkpt lat="44.14948" lon="3.21415">
        <ele>763</ele>
        <time>2015-12-06T11:14:08Z</time>
      </trkpt>
      <trkpt lat="44.14948" lon="3.21413">
        <ele>763</ele>
        <time>2015-12-06T11:14:09Z</time>
      </trkpt>
      <trkpt lat="44.14948" lon="3.21411">
        <ele>763</ele>
        <time>2015-12-06T11:14:10Z</time>
      </trkpt>
      <trkpt lat="44.14949" lon="3.21409">
        <ele>762.5</ele>
        <time>2015-12-06T11:14:11Z</time>
      </trkpt>
      <trkpt lat="44.14949" lon="3.21408">
        <ele>762.5</ele>
        <time>2015-12-06T11:14:12Z</time>
      </trkpt>
      <trkpt lat="44.14949" lon="3.21406">
        <ele>762.5</ele>
        <time>2015-12-06T11:14:13Z</time>
      </trkpt>
      <trkpt lat="44.1495" lon="3.21405">
        <ele>762.5</ele>
        <time>2015-12-06T11:14:14Z</time>
      </trkpt>
      <trkpt lat="44.14951" lon="3.21405">
        <ele>763</ele>
        <time>2015-12-06T11:14:15Z</time>
      </trkpt>
      <trkpt lat="44.14951" lon="3.21403">
        <ele>764.5</ele>
        <time>2015-12-06T11:14:16Z</time>
      </trkpt>
      <trkpt lat="44.14952" lon="3.21401">
        <ele>764.5</ele>
        <time>2015-12-06T11:14:17Z</time>
      </trkpt>
      <trkpt lat="44.14952" lon="3.21399">
        <ele>764.5</ele>
        <time>2015-12-06T11:14:18Z</time>
      </trkpt>
      <trkpt lat="44.14952" lon="3.21397">
        <ele>765</ele>
        <time>2015-12-06T11:14:19Z</time>
      </trkpt>
      <trkpt lat="44.14953" lon="3.21396">
        <ele>765</ele>
        <time>2015-12-06T11:14:20Z</time>
      </trkpt>
      <trkpt lat="44.14953" lon="3.21394">
        <ele>765.5</ele>
        <time>2015-12-06T11:14:21Z</time>
      </trkpt>
      <trkpt lat="44.14954" lon="3.21393">
        <ele>764</ele>
        <time>2015-12-06T11:14:22Z</time>
      </trkpt>
      <trkpt lat="44.14955" lon="3.21392">
        <ele>761.5</ele>
        <time>2015-12-06T11:14:23Z</time>
      </trkpt>
      <trkpt lat="44.14955" lon="3.2139">
        <ele>763</ele>
        <time>2015-12-06T11:14:24Z</time>
      </trkpt>
      <trkpt lat="44.14956" lon="3.21389">
        <ele>761</ele>
        <time>2015-12-06T11:14:25Z</time>
      </trkpt>
      <trkpt lat="44.14956" lon="3.21387">
        <ele>761</ele>
        <time>2015-12-06T11:14:26Z</time>
      </trkpt>
      <trkpt lat="44.14955" lon="3.21387">
        <ele>761.5</ele>
        <time>2015-12-06T11:14:27Z</time>
      </trkpt>
      <trkpt lat="44.14954" lon="3.21385">
        <ele>767</ele>
        <time>2015-12-06T11:14:28Z</time>
      </trkpt>
      <trkpt lat="44.14955" lon="3.21385">
        <ele>767</ele>
        <time>2015-12-06T11:14:29Z</time>
      </trkpt>
      <trkpt lat="44.14956" lon="3.21384">
        <ele>766.5</ele>
        <time>2015-12-06T11:14:30Z</time>
      </trkpt>
      <trkpt lat="44.14956" lon="3.21383">
        <ele>766.5</ele>
        <time>2015-12-06T11:14:31Z</time>
      </trkpt>
      <trkpt lat="44.14956" lon="3.21381">
        <ele>767</ele>
        <time>2015-12-06T11:14:32Z</time>
      </trkpt>
      <trkpt lat="44.14956" lon="3.2138">
        <ele>767</ele>
        <time>2015-12-06T11:14:33Z</time>
      </trkpt>
      <trkpt lat="44.14957" lon="3.21379">
        <ele>765.5</ele>
        <time>2015-12-06T11:14:34Z</time>
      </trkpt>
      <trkpt lat="44.14957" lon="3.21377">
        <ele>766</ele>
        <time>2015-12-06T11:14:35Z</time>
      </trkpt>
      <trkpt lat="44.14958" lon="3.21376">
        <ele>764</ele>
        <time>2015-12-06T11:14:36Z</time>
      </trkpt>
      <trkpt lat="44.14959" lon="3.21375">
        <ele>761.5</ele>
        <time>2015-12-06T11:14:37Z</time>
      </trkpt>
      <trkpt lat="44.14959" lon="3.21373">
        <ele>761</ele>
        <time>2015-12-06T11:14:38Z</time>
      </trkpt>
      <trkpt lat="44.14959" lon="3.21372">
        <ele>762.5</ele>
        <time>2015-12-06T11:14:39Z</time>
      </trkpt>
      <trkpt lat="44.14959" lon="3.2137">
        <ele>763.5</ele>
        <time>2015-12-06T11:14:40Z</time>
      </trkpt>
      <trkpt lat="44.14959" lon="3.21369">
        <ele>764</ele>
        <time>2015-12-06T11:14:41Z</time>
      </trkpt>
      <trkpt lat="44.1496" lon="3.21368">
        <ele>762</ele>
        <time>2015-12-06T11:14:42Z</time>
      </trkpt>
      <trkpt lat="44.14961" lon="3.21366">
        <ele>761.5</ele>
        <time>2015-12-06T11:14:43Z</time>
      </trkpt>
      <trkpt lat="44.14961" lon="3.21365">
        <ele>761.5</ele>
        <time>2015-12-06T11:14:44Z</time>
      </trkpt>
      <trkpt lat="44.14962" lon="3.21363">
        <ele>761</ele>
        <time>2015-12-06T11:14:45Z</time>
      </trkpt>
      <trkpt lat="44.14962" lon="3.21362">
        <ele>759.5</ele>
        <time>2015-12-06T11:14:46Z</time>
      </trkpt>
      <trkpt lat="44.14962" lon="3.2136">
        <ele>760</ele>
        <time>2015-12-06T11:14:47Z</time>
      </trkpt>
      <trkpt lat="44.14962" lon="3.21358">
        <ele>761.5</ele>
        <time>2015-12-06T11:14:48Z</time>
      </trkpt>
      <trkpt lat="44.14962" lon="3.21356">
        <ele>761</ele>
        <time>2015-12-06T11:14:49Z</time>
      </trkpt>
      <trkpt lat="44.14962" lon="3.21353">
        <ele>760.5</ele>
        <time>2015-12-06T11:14:50Z</time>
      </trkpt>
      <trkpt lat="44.14963" lon="3.21351">
        <ele>759.5</ele>
        <time>2015-12-06T11:14:51Z</time>
      </trkpt>
      <trkpt lat="44.14962" lon="3.2135">
        <ele>761</ele>
        <time>2015-12-06T11:14:52Z</time>
      </trkpt>
      <trkpt lat="44.14962" lon="3.21348">
        <ele>761.5</ele>
        <time>2015-12-06T11:14:53Z</time>
      </trkpt>
      <trkpt lat="44.14962" lon="3.21346">
        <ele>762</ele>
        <time>2015-12-06T11:14:54Z</time>
      </trkpt>
      <trkpt lat="44.14962" lon="3.21344">
        <ele>763</ele>
        <time>2015-12-06T11:14:55Z</time>
      </trkpt>
      <trkpt lat="44.14962" lon="3.21342">
        <ele>764.5</ele>
        <time>2015-12-06T11:14:56Z</time>
      </trkpt>
      <trkpt lat="44.14962" lon="3.21341">
        <ele>765</ele>
        <time>2015-12-06T11:14:57Z</time>
      </trkpt>
      <trkpt lat="44.14962" lon="3.21339">
        <ele>766</ele>
        <time>2015-12-06T11:14:58Z</time>
      </trkpt>
      <trkpt lat="44.14962" lon="3.21338">
        <ele>765.5</ele>
        <time>2015-12-06T11:14:59Z</time>
      </trkpt>
      <trkpt lat="44.14963" lon="3.21336">
        <ele>766</ele>
        <time>2015-12-06T11:15:00Z</time>
      </trkpt>
      <trkpt lat="44.14963" lon="3.21335">
        <ele>767</ele>
        <time>2015-12-06T11:15:01Z</time>
      </trkpt>
      <trkpt lat="44.14963" lon="3.21333">
        <ele>767.5</ele>
        <time>2015-12-06T11:15:02Z</time>
      </trkpt>
      <trkpt lat="44.14964" lon="3.21331">
        <ele>768</ele>
        <time>2015-12-06T11:15:03Z</time>
      </trkpt>
      <trkpt lat="44.14964" lon="3.21329">
        <ele>767.5</ele>
        <time>2015-12-06T11:15:04Z</time>
      </trkpt>
      <trkpt lat="44.14964" lon="3.21328">
        <ele>768.5</ele>
        <time>2015-12-06T11:15:05Z</time>
      </trkpt>
      <trkpt lat="44.14965" lon="3.21326">
        <ele>769</ele>
        <time>2015-12-06T11:15:06Z</time>
      </trkpt>
      <trkpt lat="44.14965" lon="3.21325">
        <ele>769.5</ele>
        <time>2015-12-06T11:15:07Z</time>
      </trkpt>
      <trkpt lat="44.14965" lon="3.21323">
        <ele>769</ele>
        <time>2015-12-06T11:15:07Z</time>
      </trkpt>
      <trkpt lat="44.14966" lon="3.21321">
        <ele>769</ele>
        <time>2015-12-06T11:15:08Z</time>
      </trkpt>
      <trkpt lat="44.14966" lon="3.21319">
        <ele>768</ele>
        <time>2015-12-06T11:15:09Z</time>
      </trkpt>
      <trkpt lat="44.14966" lon="3.21318">
        <ele>768.5</ele>
        <time>2015-12-06T11:15:10Z</time>
      </trkpt>
      <trkpt lat="44.14966" lon="3.21316">
        <ele>768.5</ele>
        <time>2015-12-06T11:15:11Z</time>
      </trkpt>
      <trkpt lat="44.14967" lon="3.21314">
        <ele>768.5</ele>
        <time>2015-12-06T11:15:12Z</time>
      </trkpt>
      <trkpt lat="44.14967" lon="3.21313">
        <ele>767</ele>
        <time>2015-12-06T11:15:13Z</time>
      </trkpt>
      <trkpt lat="44.14967" lon="3.2131">
        <ele>766.5</ele>
        <time>2015-12-06T11:15:14Z</time>
      </trkpt>
      <trkpt lat="44.14968" lon="3.21309">
        <ele>766</ele>
        <time>2015-12-06T11:15:16Z</time>
      </trkpt>
      <trkpt lat="44.14967" lon="3.21307">
        <ele>767</ele>
        <time>2015-12-06T11:15:16Z</time>
      </trkpt>
      <trkpt lat="44.14968" lon="3.21305">
        <ele>767.5</ele>
        <time>2015-12-06T11:15:17Z</time>
      </trkpt>
      <trkpt lat="44.14968" lon="3.21304">
        <ele>767</ele>
        <time>2015-12-06T11:15:19Z</time>
      </trkpt>
      <trkpt lat="44.14969" lon="3.21302">
        <ele>766.5</ele>
        <time>2015-12-06T11:15:23Z</time>
      </trkpt>
      <trkpt lat="44.14969" lon="3.21299">
        <ele>767</ele>
        <time>2015-12-06T11:15:24Z</time>
      </trkpt>
      <trkpt lat="44.1497" lon="3.21297">
        <ele>767</ele>
        <time>2015-12-06T11:15:25Z</time>
      </trkpt>
      <trkpt lat="44.14969" lon="3.21295">
        <ele>768.5</ele>
        <time>2015-12-06T11:15:26Z</time>
      </trkpt>
      <trkpt lat="44.14969" lon="3.21294">
        <ele>770</ele>
        <time>2015-12-06T11:15:27Z</time>
      </trkpt>
      <trkpt lat="44.14969" lon="3.21292">
        <ele>771</ele>
        <time>2015-12-06T11:15:28Z</time>
      </trkpt>
      <trkpt lat="44.1497" lon="3.2129">
        <ele>771.5</ele>
        <time>2015-12-06T11:15:29Z</time>
      </trkpt>
      <trkpt lat="44.1497" lon="3.21289">
        <ele>772.5</ele>
        <time>2015-12-06T11:15:31Z</time>
      </trkpt>
      <trkpt lat="44.1497" lon="3.21287">
        <ele>773</ele>
        <time>2015-12-06T11:15:32Z</time>
      </trkpt>
      <trkpt lat="44.1497" lon="3.21286">
        <ele>772.5</ele>
        <time>2015-12-06T11:15:32Z</time>
      </trkpt>
      <trkpt lat="44.14971" lon="3.21285">
        <ele>772</ele>
        <time>2015-12-06T11:15:33Z</time>
      </trkpt>
      <trkpt lat="44.14972" lon="3.21284">
        <ele>771</ele>
        <time>2015-12-06T11:15:34Z</time>
      </trkpt>
      <trkpt lat="44.14972" lon="3.21283">
        <ele>771</ele>
        <time>2015-12-06T11:15:35Z</time>
      </trkpt>
      <trkpt lat="44.14972" lon="3.21281">
        <ele>772</ele>
        <time>2015-12-06T11:15:36Z</time>
      </trkpt>
      <trkpt lat="44.14973" lon="3.2128">
        <ele>769.5</ele>
        <time>2015-12-06T11:15:37Z</time>
      </trkpt>
      <trkpt lat="44.14973" lon="3.21279">
        <ele>769.5</ele>
        <time>2015-12-06T11:15:38Z</time>
      </trkpt>
      <trkpt lat="44.14974" lon="3.21278">
        <ele>770.5</ele>
        <time>2015-12-06T11:15:39Z</time>
      </trkpt>
      <trkpt lat="44.14974" lon="3.21277">
        <ele>769.5</ele>
        <time>2015-12-06T11:15:40Z</time>
      </trkpt>
      <trkpt lat="44.14974" lon="3.21276">
        <ele>770</ele>
        <time>2015-12-06T11:15:41Z</time>
      </trkpt>
      <trkpt lat="44.14974" lon="3.21275">
        <ele>770.5</ele>
        <time>2015-12-06T11:15:42Z</time>
      </trkpt>
      <trkpt lat="44.14974" lon="3.21273">
        <ele>771.5</ele>
        <time>2015-12-06T11:15:43Z</time>
      </trkpt>
      <trkpt lat="44.14974" lon="3.21272">
        <ele>771</ele>
        <time>2015-12-06T11:15:45Z</time>
      </trkpt>
      <trkpt lat="44.14974" lon="3.21271">
        <ele>771.5</ele>
        <time>2015-12-06T11:15:45Z</time>
      </trkpt>
      <trkpt lat="44.14975" lon="3.21269">
        <ele>771</ele>
        <time>2015-12-06T11:15:46Z</time>
      </trkpt>
      <trkpt lat="44.14976" lon="3.21267">
        <ele>771</ele>
        <time>2015-12-06T11:15:47Z</time>
      </trkpt>
      <trkpt lat="44.14975" lon="3.21266">
        <ele>772.5</ele>
        <time>2015-12-06T11:15:48Z</time>
      </trkpt>
      <trkpt lat="44.14976" lon="3.21264">
        <ele>773</ele>
        <time>2015-12-06T11:15:50Z</time>
      </trkpt>
      <trkpt lat="44.14976" lon="3.21263">
        <ele>775</ele>
        <time>2015-12-06T11:15:50Z</time>
      </trkpt>
      <trkpt lat="44.14976" lon="3.21261">
        <ele>776</ele>
        <time>2015-12-06T11:15:51Z</time>
      </trkpt>
      <trkpt lat="44.14976" lon="3.21259">
        <ele>777.5</ele>
        <time>2015-12-06T11:15:52Z</time>
      </trkpt>
      <trkpt lat="44.14977" lon="3.21258">
        <ele>778</ele>
        <time>2015-12-06T11:15:53Z</time>
      </trkpt>
      <trkpt lat="44.14977" lon="3.21256">
        <ele>778.5</ele>
        <time>2015-12-06T11:15:55Z</time>
      </trkpt>
      <trkpt lat="44.14976" lon="3.21255">
        <ele>779</ele>
        <time>2015-12-06T11:15:55Z</time>
      </trkpt>
      <trkpt lat="44.14976" lon="3.21254">
        <ele>780.5</ele>
        <time>2015-12-06T11:15:56Z</time>
      </trkpt>
      <trkpt lat="44.14975" lon="3.21253">
        <ele>782.5</ele>
        <time>2015-12-06T11:15:57Z</time>
      </trkpt>
      <trkpt lat="44.14975" lon="3.21251">
        <ele>783.5</ele>
        <time>2015-12-06T11:15:58Z</time>
      </trkpt>
      <trkpt lat="44.14975" lon="3.2125">
        <ele>785</ele>
        <time>2015-12-06T11:16:00Z</time>
      </trkpt>
      <trkpt lat="44.14975" lon="3.21248">
        <ele>786.5</ele>
        <time>2015-12-06T11:16:00Z</time>
      </trkpt>
      <trkpt lat="44.14975" lon="3.21247">
        <ele>787</ele>
        <time>2015-12-06T11:16:01Z</time>
      </trkpt>
      <trkpt lat="44.14975" lon="3.21245">
        <ele>787</ele>
        <time>2015-12-06T11:16:03Z</time>
      </trkpt>
      <trkpt lat="44.14975" lon="3.21244">
        <ele>786.5</ele>
        <time>2015-12-06T11:16:03Z</time>
      </trkpt>
      <trkpt lat="44.14975" lon="3.21243">
        <ele>786</ele>
        <time>2015-12-06T11:16:04Z</time>
      </trkpt>
      <trkpt lat="44.14976" lon="3.21241">
        <ele>786</ele>
        <time>2015-12-06T11:16:05Z</time>
      </trkpt>
      <trkpt lat="44.14976" lon="3.2124">
        <ele>787</ele>
        <time>2015-12-06T11:16:06Z</time>
      </trkpt>
      <trkpt lat="44.14976" lon="3.21239">
        <ele>786.5</ele>
        <time>2015-12-06T11:16:07Z</time>
      </trkpt>
      <trkpt lat="44.14976" lon="3.21238">
        <ele>786</ele>
        <time>2015-12-06T11:16:08Z</time>
      </trkpt>
      <trkpt lat="44.14976" lon="3.21236">
        <ele>787.5</ele>
        <time>2015-12-06T11:16:09Z</time>
      </trkpt>
      <trkpt lat="44.14976" lon="3.21235">
        <ele>788</ele>
        <time>2015-12-06T11:16:10Z</time>
      </trkpt>
      <trkpt lat="44.14976" lon="3.21234">
        <ele>787.5</ele>
        <time>2015-12-06T11:16:11Z</time>
      </trkpt>
      <trkpt lat="44.14976" lon="3.21233">
        <ele>788</ele>
        <time>2015-12-06T11:16:12Z</time>
      </trkpt>
      <trkpt lat="44.14976" lon="3.21231">
        <ele>789</ele>
        <time>2015-12-06T11:16:13Z</time>
      </trkpt>
      <trkpt lat="44.14976" lon="3.2123">
        <ele>789.5</ele>
        <time>2015-12-06T11:16:14Z</time>
      </trkpt>
      <trkpt lat="44.14976" lon="3.21229">
        <ele>789.5</ele>
        <time>2015-12-06T11:16:15Z</time>
      </trkpt>
      <trkpt lat="44.14976" lon="3.21228">
        <ele>789</ele>
        <time>2015-12-06T11:16:16Z</time>
      </trkpt>
      <trkpt lat="44.14976" lon="3.21227">
        <ele>788.5</ele>
        <time>2015-12-06T11:16:17Z</time>
      </trkpt>
      <trkpt lat="44.14976" lon="3.21225">
        <ele>788.5</ele>
        <time>2015-12-06T11:16:18Z</time>
      </trkpt>
      <trkpt lat="44.14976" lon="3.21224">
        <ele>789</ele>
        <time>2015-12-06T11:16:19Z</time>
      </trkpt>
      <trkpt lat="44.14975" lon="3.21222">
        <ele>789</ele>
        <time>2015-12-06T11:16:20Z</time>
      </trkpt>
      <trkpt lat="44.14975" lon="3.21221">
        <ele>790</ele>
        <time>2015-12-06T11:16:21Z</time>
      </trkpt>
      <trkpt lat="44.14975" lon="3.2122">
        <ele>789.5</ele>
        <time>2015-12-06T11:16:22Z</time>
      </trkpt>
      <trkpt lat="44.14976" lon="3.21218">
        <ele>788.5</ele>
        <time>2015-12-06T11:16:23Z</time>
      </trkpt>
      <trkpt lat="44.14976" lon="3.21217">
        <ele>789</ele>
        <time>2015-12-06T11:16:24Z</time>
      </trkpt>
      <trkpt lat="44.14976" lon="3.21216">
        <ele>789</ele>
        <time>2015-12-06T11:16:25Z</time>
      </trkpt>
      <trkpt lat="44.14976" lon="3.21215">
        <ele>789</ele>
        <time>2015-12-06T11:16:26Z</time>
      </trkpt>
      <trkpt lat="44.14976" lon="3.21214">
        <ele>788.5</ele>
        <time>2015-12-06T11:16:27Z</time>
      </trkpt>
      <trkpt lat="44.14976" lon="3.21213">
        <ele>788</ele>
        <time>2015-12-06T11:16:28Z</time>
      </trkpt>
      <trkpt lat="44.14976" lon="3.21211">
        <ele>787.5</ele>
        <time>2015-12-06T11:16:29Z</time>
      </trkpt>
      <trkpt lat="44.14976" lon="3.2121">
        <ele>787</ele>
        <time>2015-12-06T11:16:30Z</time>
      </trkpt>
      <trkpt lat="44.14976" lon="3.21208">
        <ele>786.5</ele>
        <time>2015-12-06T11:16:31Z</time>
      </trkpt>
      <trkpt lat="44.14976" lon="3.21207">
        <ele>786</ele>
        <time>2015-12-06T11:16:32Z</time>
      </trkpt>
      <trkpt lat="44.14976" lon="3.21206">
        <ele>785.5</ele>
        <time>2015-12-06T11:16:33Z</time>
      </trkpt>
      <trkpt lat="44.14976" lon="3.21204">
        <ele>785</ele>
        <time>2015-12-06T11:16:34Z</time>
      </trkpt>
      <trkpt lat="44.14976" lon="3.21203">
        <ele>784</ele>
        <time>2015-12-06T11:16:35Z</time>
      </trkpt>
      <trkpt lat="44.14976" lon="3.21201">
        <ele>785</ele>
        <time>2015-12-06T11:16:36Z</time>
      </trkpt>
      <trkpt lat="44.14976" lon="3.212">
        <ele>784.5</ele>
        <time>2015-12-06T11:16:37Z</time>
      </trkpt>
      <trkpt lat="44.14976" lon="3.21199">
        <ele>783.5</ele>
        <time>2015-12-06T11:16:38Z</time>
      </trkpt>
      <trkpt lat="44.14976" lon="3.21198">
        <ele>783</ele>
        <time>2015-12-06T11:16:39Z</time>
      </trkpt>
      <trkpt lat="44.14976" lon="3.21197">
        <ele>783</ele>
        <time>2015-12-06T11:16:40Z</time>
      </trkpt>
      <trkpt lat="44.14975" lon="3.21195">
        <ele>784</ele>
        <time>2015-12-06T11:16:41Z</time>
      </trkpt>
      <trkpt lat="44.14975" lon="3.21194">
        <ele>785</ele>
        <time>2015-12-06T11:16:42Z</time>
      </trkpt>
      <trkpt lat="44.14975" lon="3.21193">
        <ele>784.5</ele>
        <time>2015-12-06T11:16:43Z</time>
      </trkpt>
      <trkpt lat="44.14975" lon="3.21191">
        <ele>784</ele>
        <time>2015-12-06T11:16:44Z</time>
      </trkpt>
      <trkpt lat="44.14975" lon="3.2119">
        <ele>784</ele>
        <time>2015-12-06T11:16:45Z</time>
      </trkpt>
      <trkpt lat="44.14976" lon="3.21188">
        <ele>784.5</ele>
        <time>2015-12-06T11:16:46Z</time>
      </trkpt>
      <trkpt lat="44.14976" lon="3.21186">
        <ele>784</ele>
        <time>2015-12-06T11:16:47Z</time>
      </trkpt>
      <trkpt lat="44.14976" lon="3.21185">
        <ele>783.5</ele>
        <time>2015-12-06T11:16:48Z</time>
      </trkpt>
      <trkpt lat="44.14976" lon="3.21184">
        <ele>783.5</ele>
        <time>2015-12-06T11:16:49Z</time>
      </trkpt>
      <trkpt lat="44.14976" lon="3.21183">
        <ele>783.5</ele>
        <time>2015-12-06T11:16:51Z</time>
      </trkpt>
      <trkpt lat="44.14975" lon="3.2118">
        <ele>783.5</ele>
        <time>2015-12-06T11:16:54Z</time>
      </trkpt>
      <trkpt lat="44.14974" lon="3.21175">
        <ele>786.5</ele>
        <time>2015-12-06T11:16:56Z</time>
      </trkpt>
      <trkpt lat="44.14974" lon="3.21173">
        <ele>787.5</ele>
        <time>2015-12-06T11:16:57Z</time>
      </trkpt>
      <trkpt lat="44.14973" lon="3.2117">
        <ele>789</ele>
        <time>2015-12-06T11:16:58Z</time>
      </trkpt>
      <trkpt lat="44.14972" lon="3.21167">
        <ele>791</ele>
        <time>2015-12-06T11:16:59Z</time>
      </trkpt>
      <trkpt lat="44.14972" lon="3.21165">
        <ele>792</ele>
        <time>2015-12-06T11:17:00Z</time>
      </trkpt>
      <trkpt lat="44.14971" lon="3.21162">
        <ele>792.5</ele>
        <time>2015-12-06T11:17:01Z</time>
      </trkpt>
      <trkpt lat="44.14971" lon="3.21158">
        <ele>793</ele>
        <time>2015-12-06T11:17:02Z</time>
      </trkpt>
      <trkpt lat="44.1497" lon="3.21156">
        <ele>795</ele>
        <time>2015-12-06T11:17:03Z</time>
      </trkpt>
      <trkpt lat="44.1497" lon="3.21154">
        <ele>794.5</ele>
        <time>2015-12-06T11:17:04Z</time>
      </trkpt>
      <trkpt lat="44.14969" lon="3.21152">
        <ele>796</ele>
        <time>2015-12-06T11:17:05Z</time>
      </trkpt>
      <trkpt lat="44.14968" lon="3.21151">
        <ele>797</ele>
        <time>2015-12-06T11:17:06Z</time>
      </trkpt>
      <trkpt lat="44.14967" lon="3.21149">
        <ele>798</ele>
        <time>2015-12-06T11:17:07Z</time>
      </trkpt>
      <trkpt lat="44.14966" lon="3.21147">
        <ele>798.5</ele>
        <time>2015-12-06T11:17:08Z</time>
      </trkpt>
      <trkpt lat="44.14966" lon="3.21145">
        <ele>797.5</ele>
        <time>2015-12-06T11:17:09Z</time>
      </trkpt>
      <trkpt lat="44.14965" lon="3.21143">
        <ele>798</ele>
        <time>2015-12-06T11:17:10Z</time>
      </trkpt>
      <trkpt lat="44.14965" lon="3.21141">
        <ele>798</ele>
        <time>2015-12-06T11:17:11Z</time>
      </trkpt>
      <trkpt lat="44.14965" lon="3.21139">
        <ele>798.5</ele>
        <time>2015-12-06T11:17:12Z</time>
      </trkpt>
      <trkpt lat="44.14965" lon="3.21137">
        <ele>797</ele>
        <time>2015-12-06T11:17:13Z</time>
      </trkpt>
      <trkpt lat="44.14964" lon="3.21136">
        <ele>795.5</ele>
        <time>2015-12-06T11:17:14Z</time>
      </trkpt>
      <trkpt lat="44.14963" lon="3.21134">
        <ele>797.5</ele>
        <time>2015-12-06T11:17:15Z</time>
      </trkpt>
      <trkpt lat="44.14962" lon="3.21132">
        <ele>798.5</ele>
        <time>2015-12-06T11:17:16Z</time>
      </trkpt>
      <trkpt lat="44.14961" lon="3.2113">
        <ele>799</ele>
        <time>2015-12-06T11:17:17Z</time>
      </trkpt>
      <trkpt lat="44.14961" lon="3.21128">
        <ele>798</ele>
        <time>2015-12-06T11:17:18Z</time>
      </trkpt>
      <trkpt lat="44.14961" lon="3.21126">
        <ele>798</ele>
        <time>2015-12-06T11:17:19Z</time>
      </trkpt>
      <trkpt lat="44.1496" lon="3.21124">
        <ele>798</ele>
        <time>2015-12-06T11:17:20Z</time>
      </trkpt>
      <trkpt lat="44.14959" lon="3.21122">
        <ele>796.5</ele>
        <time>2015-12-06T11:17:21Z</time>
      </trkpt>
      <trkpt lat="44.14958" lon="3.21121">
        <ele>795</ele>
        <time>2015-12-06T11:17:22Z</time>
      </trkpt>
      <trkpt lat="44.14957" lon="3.2112">
        <ele>795</ele>
        <time>2015-12-06T11:17:23Z</time>
      </trkpt>
      <trkpt lat="44.14957" lon="3.21118">
        <ele>794.5</ele>
        <time>2015-12-06T11:17:24Z</time>
      </trkpt>
      <trkpt lat="44.14956" lon="3.21116">
        <ele>793.5</ele>
        <time>2015-12-06T11:17:25Z</time>
      </trkpt>
      <trkpt lat="44.14955" lon="3.21115">
        <ele>792.5</ele>
        <time>2015-12-06T11:17:26Z</time>
      </trkpt>
      <trkpt lat="44.14955" lon="3.21113">
        <ele>791.5</ele>
        <time>2015-12-06T11:17:27Z</time>
      </trkpt>
      <trkpt lat="44.14954" lon="3.21112">
        <ele>791</ele>
        <time>2015-12-06T11:17:28Z</time>
      </trkpt>
      <trkpt lat="44.14953" lon="3.21111">
        <ele>790.5</ele>
        <time>2015-12-06T11:17:29Z</time>
      </trkpt>
      <trkpt lat="44.14952" lon="3.2111">
        <ele>790</ele>
        <time>2015-12-06T11:17:30Z</time>
      </trkpt>
      <trkpt lat="44.14951" lon="3.21109">
        <ele>790</ele>
        <time>2015-12-06T11:17:31Z</time>
      </trkpt>
      <trkpt lat="44.1495" lon="3.21107">
        <ele>790.5</ele>
        <time>2015-12-06T11:17:32Z</time>
      </trkpt>
      <trkpt lat="44.14949" lon="3.21105">
        <ele>790.5</ele>
        <time>2015-12-06T11:17:33Z</time>
      </trkpt>
      <trkpt lat="44.14949" lon="3.21103">
        <ele>789.5</ele>
        <time>2015-12-06T11:17:34Z</time>
      </trkpt>
      <trkpt lat="44.14948" lon="3.21101">
        <ele>789</ele>
        <time>2015-12-06T11:17:35Z</time>
      </trkpt>
      <trkpt lat="44.14947" lon="3.211">
        <ele>789</ele>
        <time>2015-12-06T11:17:36Z</time>
      </trkpt>
      <trkpt lat="44.14946" lon="3.21098">
        <ele>789</ele>
        <time>2015-12-06T11:17:37Z</time>
      </trkpt>
      <trkpt lat="44.14945" lon="3.21096">
        <ele>789</ele>
        <time>2015-12-06T11:17:38Z</time>
      </trkpt>
      <trkpt lat="44.14944" lon="3.21093">
        <ele>789</ele>
        <time>2015-12-06T11:17:39Z</time>
      </trkpt>
      <trkpt lat="44.14943" lon="3.21091">
        <ele>789.5</ele>
        <time>2015-12-06T11:17:40Z</time>
      </trkpt>
      <trkpt lat="44.14943" lon="3.2109">
        <ele>790</ele>
        <time>2015-12-06T11:17:41Z</time>
      </trkpt>
      <trkpt lat="44.14942" lon="3.21088">
        <ele>790.5</ele>
        <time>2015-12-06T11:17:42Z</time>
      </trkpt>
      <trkpt lat="44.14941" lon="3.21086">
        <ele>790.5</ele>
        <time>2015-12-06T11:17:43Z</time>
      </trkpt>
      <trkpt lat="44.14941" lon="3.21084">
        <ele>791</ele>
        <time>2015-12-06T11:17:44Z</time>
      </trkpt>
      <trkpt lat="44.1494" lon="3.21081">
        <ele>791</ele>
        <time>2015-12-06T11:17:45Z</time>
      </trkpt>
      <trkpt lat="44.1494" lon="3.2108">
        <ele>791.5</ele>
        <time>2015-12-06T11:17:46Z</time>
      </trkpt>
      <trkpt lat="44.14939" lon="3.21077">
        <ele>791</ele>
        <time>2015-12-06T11:17:47Z</time>
      </trkpt>
      <trkpt lat="44.14939" lon="3.21074">
        <ele>792</ele>
        <time>2015-12-06T11:17:48Z</time>
      </trkpt>
      <trkpt lat="44.14938" lon="3.21072">
        <ele>793</ele>
        <time>2015-12-06T11:17:49Z</time>
      </trkpt>
      <trkpt lat="44.14938" lon="3.21069">
        <ele>793.5</ele>
        <time>2015-12-06T11:17:50Z</time>
      </trkpt>
      <trkpt lat="44.14937" lon="3.21065">
        <ele>794</ele>
        <time>2015-12-06T11:17:51Z</time>
      </trkpt>
      <trkpt lat="44.14936" lon="3.21061">
        <ele>795</ele>
        <time>2015-12-06T11:17:52Z</time>
      </trkpt>
      <trkpt lat="44.14935" lon="3.21059">
        <ele>795.5</ele>
        <time>2015-12-06T11:17:53Z</time>
      </trkpt>
      <trkpt lat="44.14935" lon="3.21054">
        <ele>797</ele>
        <time>2015-12-06T11:17:54Z</time>
      </trkpt>
      <trkpt lat="44.14935" lon="3.21051">
        <ele>796</ele>
        <time>2015-12-06T11:17:55Z</time>
      </trkpt>
      <trkpt lat="44.14935" lon="3.21048">
        <ele>795</ele>
        <time>2015-12-06T11:17:56Z</time>
      </trkpt>
      <trkpt lat="44.14934" lon="3.21046">
        <ele>795</ele>
        <time>2015-12-06T11:17:57Z</time>
      </trkpt>
      <trkpt lat="44.14934" lon="3.21044">
        <ele>794.5</ele>
        <time>2015-12-06T11:17:58Z</time>
      </trkpt>
      <trkpt lat="44.14933" lon="3.21041">
        <ele>794.5</ele>
        <time>2015-12-06T11:17:59Z</time>
      </trkpt>
      <trkpt lat="44.14932" lon="3.21043">
        <ele>794</ele>
        <time>2015-12-06T11:18:00Z</time>
      </trkpt>
      <trkpt lat="44.14931" lon="3.2104">
        <ele>794</ele>
        <time>2015-12-06T11:18:01Z</time>
      </trkpt>
      <trkpt lat="44.1493" lon="3.21039">
        <ele>793.5</ele>
        <time>2015-12-06T11:18:02Z</time>
      </trkpt>
      <trkpt lat="44.14929" lon="3.21036">
        <ele>793.5</ele>
        <time>2015-12-06T11:18:03Z</time>
      </trkpt>
      <trkpt lat="44.14928" lon="3.21034">
        <ele>793.5</ele>
        <time>2015-12-06T11:18:04Z</time>
      </trkpt>
      <trkpt lat="44.14927" lon="3.21031">
        <ele>794</ele>
        <time>2015-12-06T11:18:05Z</time>
      </trkpt>
      <trkpt lat="44.14926" lon="3.21029">
        <ele>794</ele>
        <time>2015-12-06T11:18:06Z</time>
      </trkpt>
      <trkpt lat="44.14925" lon="3.21027">
        <ele>793.5</ele>
        <time>2015-12-06T11:18:07Z</time>
      </trkpt>
      <trkpt lat="44.14924" lon="3.21025">
        <ele>793.5</ele>
        <time>2015-12-06T11:18:08Z</time>
      </trkpt>
      <trkpt lat="44.14924" lon="3.21023">
        <ele>792</ele>
        <time>2015-12-06T11:18:09Z</time>
      </trkpt>
      <trkpt lat="44.14923" lon="3.21021">
        <ele>792</ele>
        <time>2015-12-06T11:18:10Z</time>
      </trkpt>
      <trkpt lat="44.14922" lon="3.21018">
        <ele>792</ele>
        <time>2015-12-06T11:18:11Z</time>
      </trkpt>
      <trkpt lat="44.14921" lon="3.21016">
        <ele>793</ele>
        <time>2015-12-06T11:18:12Z</time>
      </trkpt>
      <trkpt lat="44.14918" lon="3.21016">
        <ele>792.5</ele>
        <time>2015-12-06T11:18:13Z</time>
      </trkpt>
      <trkpt lat="44.14917" lon="3.21015">
        <ele>792.5</ele>
        <time>2015-12-06T11:18:14Z</time>
      </trkpt>
      <trkpt lat="44.14916" lon="3.21012">
        <ele>792</ele>
        <time>2015-12-06T11:18:15Z</time>
      </trkpt>
      <trkpt lat="44.14915" lon="3.21009">
        <ele>791.5</ele>
        <time>2015-12-06T11:18:16Z</time>
      </trkpt>
      <trkpt lat="44.14914" lon="3.21006">
        <ele>791.5</ele>
        <time>2015-12-06T11:18:17Z</time>
      </trkpt>
      <trkpt lat="44.14913" lon="3.21003">
        <ele>791</ele>
        <time>2015-12-06T11:18:18Z</time>
      </trkpt>
      <trkpt lat="44.14911" lon="3.21">
        <ele>790.5</ele>
        <time>2015-12-06T11:18:19Z</time>
      </trkpt>
      <trkpt lat="44.1491" lon="3.20998">
        <ele>790.5</ele>
        <time>2015-12-06T11:18:20Z</time>
      </trkpt>
      <trkpt lat="44.14908" lon="3.20995">
        <ele>791</ele>
        <time>2015-12-06T11:18:21Z</time>
      </trkpt>
      <trkpt lat="44.14906" lon="3.2099">
        <ele>790.5</ele>
        <time>2015-12-06T11:18:23Z</time>
      </trkpt>
      <trkpt lat="44.14905" lon="3.20987">
        <ele>791</ele>
        <time>2015-12-06T11:18:24Z</time>
      </trkpt>
      <trkpt lat="44.14905" lon="3.20984">
        <ele>790.5</ele>
        <time>2015-12-06T11:18:25Z</time>
      </trkpt>
      <trkpt lat="44.14904" lon="3.20981">
        <ele>790.5</ele>
        <time>2015-12-06T11:18:26Z</time>
      </trkpt>
      <trkpt lat="44.14904" lon="3.20977">
        <ele>790.5</ele>
        <time>2015-12-06T11:18:27Z</time>
      </trkpt>
      <trkpt lat="44.14904" lon="3.20972">
        <ele>791</ele>
        <time>2015-12-06T11:18:28Z</time>
      </trkpt>
      <trkpt lat="44.14904" lon="3.20967">
        <ele>791</ele>
        <time>2015-12-06T11:18:29Z</time>
      </trkpt>
      <trkpt lat="44.14905" lon="3.20962">
        <ele>791.5</ele>
        <time>2015-12-06T11:18:30Z</time>
      </trkpt>
      <trkpt lat="44.14905" lon="3.20958">
        <ele>791.5</ele>
        <time>2015-12-06T11:18:31Z</time>
      </trkpt>
      <trkpt lat="44.14905" lon="3.2095">
        <ele>793.5</ele>
        <time>2015-12-06T11:18:33Z</time>
      </trkpt>
      <trkpt lat="44.14906" lon="3.20946">
        <ele>793</ele>
        <time>2015-12-06T11:18:34Z</time>
      </trkpt>
      <trkpt lat="44.14906" lon="3.20941">
        <ele>793</ele>
        <time>2015-12-06T11:18:35Z</time>
      </trkpt>
      <trkpt lat="44.14907" lon="3.20938">
        <ele>794</ele>
        <time>2015-12-06T11:18:36Z</time>
      </trkpt>
      <trkpt lat="44.14908" lon="3.20933">
        <ele>794.5</ele>
        <time>2015-12-06T11:18:37Z</time>
      </trkpt>
      <trkpt lat="44.14908" lon="3.20929">
        <ele>794.5</ele>
        <time>2015-12-06T11:18:38Z</time>
      </trkpt>
      <trkpt lat="44.14909" lon="3.20926">
        <ele>794</ele>
        <time>2015-12-06T11:18:39Z</time>
      </trkpt>
      <trkpt lat="44.14909" lon="3.20923">
        <ele>794.5</ele>
        <time>2015-12-06T11:18:40Z</time>
      </trkpt>
      <trkpt lat="44.1491" lon="3.2092">
        <ele>795</ele>
        <time>2015-12-06T11:18:41Z</time>
      </trkpt>
      <trkpt lat="44.14912" lon="3.20916">
        <ele>796</ele>
        <time>2015-12-06T11:18:42Z</time>
      </trkpt>
      <trkpt lat="44.14913" lon="3.20913">
        <ele>797.5</ele>
        <time>2015-12-06T11:18:43Z</time>
      </trkpt>
      <trkpt lat="44.14915" lon="3.2091">
        <ele>798.5</ele>
        <time>2015-12-06T11:18:44Z</time>
      </trkpt>
      <trkpt lat="44.14916" lon="3.20907">
        <ele>798.5</ele>
        <time>2015-12-06T11:18:45Z</time>
      </trkpt>
      <trkpt lat="44.14918" lon="3.20904">
        <ele>798</ele>
        <time>2015-12-06T11:18:46Z</time>
      </trkpt>
      <trkpt lat="44.1492" lon="3.20901">
        <ele>797</ele>
        <time>2015-12-06T11:18:47Z</time>
      </trkpt>
      <trkpt lat="44.14922" lon="3.20899">
        <ele>798</ele>
        <time>2015-12-06T11:18:48Z</time>
      </trkpt>
      <trkpt lat="44.14923" lon="3.20896">
        <ele>798</ele>
        <time>2015-12-06T11:18:49Z</time>
      </trkpt>
      <trkpt lat="44.14924" lon="3.20893">
        <ele>798.5</ele>
        <time>2015-12-06T11:18:50Z</time>
      </trkpt>
      <trkpt lat="44.14924" lon="3.2089">
        <ele>798</ele>
        <time>2015-12-06T11:18:51Z</time>
      </trkpt>
      <trkpt lat="44.14925" lon="3.20886">
        <ele>797</ele>
        <time>2015-12-06T11:18:51Z</time>
      </trkpt>
      <trkpt lat="44.14924" lon="3.20882">
        <ele>798</ele>
        <time>2015-12-06T11:18:52Z</time>
      </trkpt>
      <trkpt lat="44.14924" lon="3.20878">
        <ele>798.5</ele>
        <time>2015-12-06T11:18:53Z</time>
      </trkpt>
      <trkpt lat="44.14924" lon="3.20875">
        <ele>799</ele>
        <time>2015-12-06T11:18:54Z</time>
      </trkpt>
      <trkpt lat="44.14924" lon="3.20871">
        <ele>799.5</ele>
        <time>2015-12-06T11:18:56Z</time>
      </trkpt>
      <trkpt lat="44.14924" lon="3.20867">
        <ele>800</ele>
        <time>2015-12-06T11:18:56Z</time>
      </trkpt>
      <trkpt lat="44.14924" lon="3.20863">
        <ele>801</ele>
        <time>2015-12-06T11:18:57Z</time>
      </trkpt>
      <trkpt lat="44.14924" lon="3.20858">
        <ele>801</ele>
        <time>2015-12-06T11:18:58Z</time>
      </trkpt>
      <trkpt lat="44.14924" lon="3.20854">
        <ele>802.5</ele>
        <time>2015-12-06T11:18:59Z</time>
      </trkpt>
      <trkpt lat="44.14924" lon="3.20849">
        <ele>803.5</ele>
        <time>2015-12-06T11:19:00Z</time>
      </trkpt>
      <trkpt lat="44.14925" lon="3.20845">
        <ele>804.5</ele>
        <time>2015-12-06T11:19:01Z</time>
      </trkpt>
      <trkpt lat="44.14924" lon="3.20841">
        <ele>805.5</ele>
        <time>2015-12-06T11:19:02Z</time>
      </trkpt>
      <trkpt lat="44.14924" lon="3.20837">
        <ele>806</ele>
        <time>2015-12-06T11:19:03Z</time>
      </trkpt>
      <trkpt lat="44.14924" lon="3.20833">
        <ele>806</ele>
        <time>2015-12-06T11:19:04Z</time>
      </trkpt>
      <trkpt lat="44.14925" lon="3.2083">
        <ele>805.5</ele>
        <time>2015-12-06T11:19:06Z</time>
      </trkpt>
      <trkpt lat="44.14925" lon="3.20827">
        <ele>806</ele>
        <time>2015-12-06T11:19:06Z</time>
      </trkpt>
      <trkpt lat="44.14926" lon="3.20824">
        <ele>806</ele>
        <time>2015-12-06T11:19:07Z</time>
      </trkpt>
      <trkpt lat="44.14926" lon="3.20821">
        <ele>806.5</ele>
        <time>2015-12-06T11:19:08Z</time>
      </trkpt>
      <trkpt lat="44.14927" lon="3.20818">
        <ele>806.5</ele>
        <time>2015-12-06T11:19:09Z</time>
      </trkpt>
      <trkpt lat="44.14928" lon="3.20815">
        <ele>806</ele>
        <time>2015-12-06T11:19:10Z</time>
      </trkpt>
      <trkpt lat="44.14929" lon="3.20813">
        <ele>806.5</ele>
        <time>2015-12-06T11:19:11Z</time>
      </trkpt>
      <trkpt lat="44.14931" lon="3.20811">
        <ele>806.5</ele>
        <time>2015-12-06T11:19:12Z</time>
      </trkpt>
      <trkpt lat="44.14933" lon="3.20809">
        <ele>807</ele>
        <time>2015-12-06T11:19:13Z</time>
      </trkpt>
      <trkpt lat="44.14935" lon="3.20808">
        <ele>807</ele>
        <time>2015-12-06T11:19:14Z</time>
      </trkpt>
      <trkpt lat="44.14937" lon="3.20807">
        <ele>806.5</ele>
        <time>2015-12-06T11:19:15Z</time>
      </trkpt>
      <trkpt lat="44.1494" lon="3.20805">
        <ele>806</ele>
        <time>2015-12-06T11:19:16Z</time>
      </trkpt>
      <trkpt lat="44.14942" lon="3.20803">
        <ele>806.5</ele>
        <time>2015-12-06T11:19:17Z</time>
      </trkpt>
      <trkpt lat="44.14943" lon="3.20801">
        <ele>806.5</ele>
        <time>2015-12-06T11:19:18Z</time>
      </trkpt>
      <trkpt lat="44.14945" lon="3.20799">
        <ele>807</ele>
        <time>2015-12-06T11:19:19Z</time>
      </trkpt>
      <trkpt lat="44.14945" lon="3.20798">
        <ele>806</ele>
        <time>2015-12-06T11:19:20Z</time>
      </trkpt>
      <trkpt lat="44.14945" lon="3.20797">
        <ele>806</ele>
        <time>2015-12-06T11:19:21Z</time>
      </trkpt>
      <trkpt lat="44.14944" lon="3.20796">
        <ele>806.5</ele>
        <time>2015-12-06T11:19:23Z</time>
      </trkpt>
      <trkpt lat="44.14943" lon="3.20796">
        <ele>806.5</ele>
        <time>2015-12-06T11:19:25Z</time>
      </trkpt>
      <trkpt lat="44.14943" lon="3.20797">
        <ele>806.5</ele>
        <time>2015-12-06T11:19:27Z</time>
      </trkpt>
      <trkpt lat="44.14943" lon="3.20798">
        <ele>806</ele>
        <time>2015-12-06T11:19:27Z</time>
      </trkpt>
      <trkpt lat="44.14943" lon="3.20798">
        <ele>804.5</ele>
        <time>2015-12-06T11:19:28Z</time>
      </trkpt>
      <trkpt lat="44.14944" lon="3.20799">
        <ele>804</ele>
        <time>2015-12-06T11:19:29Z</time>
      </trkpt>
      <trkpt lat="44.14943" lon="3.208">
        <ele>804.5</ele>
        <time>2015-12-06T11:19:30Z</time>
      </trkpt>
      <trkpt lat="44.14944" lon="3.20801">
        <ele>804.5</ele>
        <time>2015-12-06T11:19:32Z</time>
      </trkpt>
      <trkpt lat="44.14947" lon="3.20801">
        <ele>807</ele>
        <time>2015-12-06T11:19:34Z</time>
      </trkpt>
      <trkpt lat="44.14948" lon="3.20802">
        <ele>806.5</ele>
        <time>2015-12-06T11:19:35Z</time>
      </trkpt>
      <trkpt lat="44.14948" lon="3.20802">
        <ele>807</ele>
        <time>2015-12-06T11:19:36Z</time>
      </trkpt>
      <trkpt lat="44.14948" lon="3.20801">
        <ele>807</ele>
        <time>2015-12-06T11:19:39Z</time>
      </trkpt>
      <trkpt lat="44.1495" lon="3.208">
        <ele>805</ele>
        <time>2015-12-06T11:23:15Z</time>
      </trkpt>
      <trkpt lat="44.14949" lon="3.20797">
        <ele>804.5</ele>
        <time>2015-12-06T11:23:17Z</time>
      </trkpt>
      <trkpt lat="44.14949" lon="3.20796">
        <ele>804.5</ele>
        <time>2015-12-06T11:23:18Z</time>
      </trkpt>
      <trkpt lat="44.14949" lon="3.20795">
        <ele>804.5</ele>
        <time>2015-12-06T11:23:19Z</time>
      </trkpt>
      <trkpt lat="44.14949" lon="3.20794">
        <ele>804.5</ele>
        <time>2015-12-06T11:23:20Z</time>
      </trkpt>
      <trkpt lat="44.14948" lon="3.20793">
        <ele>805</ele>
        <time>2015-12-06T11:23:21Z</time>
      </trkpt>
      <trkpt lat="44.14947" lon="3.20792">
        <ele>805</ele>
        <time>2015-12-06T11:23:22Z</time>
      </trkpt>
      <trkpt lat="44.14947" lon="3.20791">
        <ele>805</ele>
        <time>2015-12-06T11:23:23Z</time>
      </trkpt>
      <trkpt lat="44.14947" lon="3.2079">
        <ele>805</ele>
        <time>2015-12-06T11:23:24Z</time>
      </trkpt>
      <trkpt lat="44.14946" lon="3.20789">
        <ele>805</ele>
        <time>2015-12-06T11:23:25Z</time>
      </trkpt>
      <trkpt lat="44.14946" lon="3.20789">
        <ele>805</ele>
        <time>2015-12-06T11:23:26Z</time>
      </trkpt>
      <trkpt lat="44.14946" lon="3.20789">
        <ele>804.5</ele>
        <time>2015-12-06T11:23:27Z</time>
      </trkpt>
      <trkpt lat="44.14945" lon="3.20788">
        <ele>804.5</ele>
        <time>2015-12-06T11:23:28Z</time>
      </trkpt>
      <trkpt lat="44.14945" lon="3.20788">
        <ele>805</ele>
        <time>2015-12-06T11:23:29Z</time>
      </trkpt>
      <trkpt lat="44.14945" lon="3.20788">
        <ele>805</ele>
        <time>2015-12-06T11:23:41Z</time>
      </trkpt>
      <trkpt lat="44.14945" lon="3.20786">
        <ele>804</ele>
        <time>2015-12-06T11:23:43Z</time>
      </trkpt>
      <trkpt lat="44.14945" lon="3.20785">
        <ele>804.5</ele>
        <time>2015-12-06T11:23:44Z</time>
      </trkpt>
      <trkpt lat="44.14945" lon="3.20785">
        <ele>805</ele>
        <time>2015-12-06T11:23:45Z</time>
      </trkpt>
      <trkpt lat="44.14946" lon="3.20784">
        <ele>805.5</ele>
        <time>2015-12-06T11:23:46Z</time>
      </trkpt>
      <trkpt lat="44.14947" lon="3.20784">
        <ele>806</ele>
        <time>2015-12-06T11:23:47Z</time>
      </trkpt>
      <trkpt lat="44.14947" lon="3.20784">
        <ele>806</ele>
        <time>2015-12-06T11:23:48Z</time>
      </trkpt>
      <trkpt lat="44.14948" lon="3.20784">
        <ele>806</ele>
        <time>2015-12-06T11:23:49Z</time>
      </trkpt>
      <trkpt lat="44.14948" lon="3.20783">
        <ele>806</ele>
        <time>2015-12-06T11:23:50Z</time>
      </trkpt>
      <trkpt lat="44.14948" lon="3.20784">
        <ele>804.5</ele>
        <time>2015-12-06T11:23:58Z</time>
      </trkpt>
      <trkpt lat="44.14947" lon="3.20784">
        <ele>804.5</ele>
        <time>2015-12-06T11:24:00Z</time>
      </trkpt>
      <trkpt lat="44.14947" lon="3.20784">
        <ele>804.5</ele>
        <time>2015-12-06T11:24:01Z</time>
      </trkpt>
      <trkpt lat="44.14946" lon="3.20784">
        <ele>804.5</ele>
        <time>2015-12-06T11:24:02Z</time>
      </trkpt>
      <trkpt lat="44.14946" lon="3.20784">
        <ele>805</ele>
        <time>2015-12-06T11:24:03Z</time>
      </trkpt>
      <trkpt lat="44.14945" lon="3.20784">
        <ele>805</ele>
        <time>2015-12-06T11:24:04Z</time>
      </trkpt>
      <trkpt lat="44.14944" lon="3.20785">
        <ele>805</ele>
        <time>2015-12-06T11:24:16Z</time>
      </trkpt>
      <trkpt lat="44.14942" lon="3.20786">
        <ele>804</ele>
        <time>2015-12-06T11:24:18Z</time>
      </trkpt>
      <trkpt lat="44.14941" lon="3.20786">
        <ele>804</ele>
        <time>2015-12-06T11:24:19Z</time>
      </trkpt>
      <trkpt lat="44.1494" lon="3.20786">
        <ele>804</ele>
        <time>2015-12-06T11:24:20Z</time>
      </trkpt>
      <trkpt lat="44.1494" lon="3.20787">
        <ele>804</ele>
        <time>2015-12-06T11:24:21Z</time>
      </trkpt>
      <trkpt lat="44.14939" lon="3.20787">
        <ele>803.5</ele>
        <time>2015-12-06T11:24:22Z</time>
      </trkpt>
      <trkpt lat="44.14939" lon="3.20787">
        <ele>803.5</ele>
        <time>2015-12-06T11:24:23Z</time>
      </trkpt>
      <trkpt lat="44.14938" lon="3.20788">
        <ele>804</ele>
        <time>2015-12-06T11:24:24Z</time>
      </trkpt>
      <trkpt lat="44.14937" lon="3.20788">
        <ele>804</ele>
        <time>2015-12-06T11:24:25Z</time>
      </trkpt>
      <trkpt lat="44.14937" lon="3.20789">
        <ele>804</ele>
        <time>2015-12-06T11:24:26Z</time>
      </trkpt>
      <trkpt lat="44.14936" lon="3.20789">
        <ele>803.5</ele>
        <time>2015-12-06T11:24:27Z</time>
      </trkpt>
      <trkpt lat="44.14936" lon="3.20789">
        <ele>803.5</ele>
        <time>2015-12-06T11:24:28Z</time>
      </trkpt>
      <trkpt lat="44.14936" lon="3.2079">
        <ele>802.5</ele>
        <time>2015-12-06T11:24:39Z</time>
      </trkpt>
      <trkpt lat="44.14936" lon="3.2079">
        <ele>803</ele>
        <time>2015-12-06T11:24:47Z</time>
      </trkpt>
      <trkpt lat="44.14936" lon="3.20789">
        <ele>804</ele>
        <time>2015-12-06T11:24:50Z</time>
      </trkpt>
      <trkpt lat="44.14936" lon="3.2079">
        <ele>803.5</ele>
        <time>2015-12-06T11:24:54Z</time>
      </trkpt>
      <trkpt lat="44.14935" lon="3.20791">
        <ele>804.5</ele>
        <time>2015-12-06T11:24:58Z</time>
      </trkpt>
      <trkpt lat="44.14934" lon="3.2079">
        <ele>802</ele>
        <time>2015-12-06T11:25:00Z</time>
      </trkpt>
      <trkpt lat="44.14933" lon="3.20789">
        <ele>801.5</ele>
        <time>2015-12-06T11:25:01Z</time>
      </trkpt>
      <trkpt lat="44.14933" lon="3.20789">
        <ele>801</ele>
        <time>2015-12-06T11:25:02Z</time>
      </trkpt>
      <trkpt lat="44.14932" lon="3.20788">
        <ele>801</ele>
        <time>2015-12-06T11:25:03Z</time>
      </trkpt>
      <trkpt lat="44.14932" lon="3.20788">
        <ele>801</ele>
        <time>2015-12-06T11:25:04Z</time>
      </trkpt>
      <trkpt lat="44.14932" lon="3.20787">
        <ele>801</ele>
        <time>2015-12-06T11:25:05Z</time>
      </trkpt>
      <trkpt lat="44.14932" lon="3.20786">
        <ele>801.5</ele>
        <time>2015-12-06T11:25:09Z</time>
      </trkpt>
      <trkpt lat="44.14932" lon="3.20788">
        <ele>800.5</ele>
        <time>2015-12-06T11:25:11Z</time>
      </trkpt>
      <trkpt lat="44.14932" lon="3.20789">
        <ele>800.5</ele>
        <time>2015-12-06T11:25:12Z</time>
      </trkpt>
      <trkpt lat="44.14932" lon="3.20789">
        <ele>799.5</ele>
        <time>2015-12-06T11:25:13Z</time>
      </trkpt>
      <trkpt lat="44.14933" lon="3.2079">
        <ele>799</ele>
        <time>2015-12-06T11:25:14Z</time>
      </trkpt>
      <trkpt lat="44.14934" lon="3.20789">
        <ele>798.5</ele>
        <time>2015-12-06T11:25:16Z</time>
      </trkpt>
      <trkpt lat="44.14935" lon="3.20789">
        <ele>797.5</ele>
        <time>2015-12-06T11:25:18Z</time>
      </trkpt>
      <trkpt lat="44.14935" lon="3.20788">
        <ele>797</ele>
        <time>2015-12-06T11:25:19Z</time>
      </trkpt>
      <trkpt lat="44.14936" lon="3.20788">
        <ele>797.5</ele>
        <time>2015-12-06T11:25:20Z</time>
      </trkpt>
      <trkpt lat="44.14936" lon="3.20787">
        <ele>797</ele>
        <time>2015-12-06T11:25:21Z</time>
      </trkpt>
      <trkpt lat="44.14936" lon="3.20787">
        <ele>795.5</ele>
        <time>2015-12-06T11:25:22Z</time>
      </trkpt>
      <trkpt lat="44.14936" lon="3.20788">
        <ele>795.5</ele>
        <time>2015-12-06T11:25:26Z</time>
      </trkpt>
      <trkpt lat="44.14937" lon="3.20789">
        <ele>795</ele>
        <time>2015-12-06T11:25:28Z</time>
      </trkpt>
      <trkpt lat="44.14937" lon="3.2079">
        <ele>793.5</ele>
        <time>2015-12-06T11:25:29Z</time>
      </trkpt>
      <trkpt lat="44.14938" lon="3.2079">
        <ele>793</ele>
        <time>2015-12-06T11:25:30Z</time>
      </trkpt>
      <trkpt lat="44.14939" lon="3.20791">
        <ele>793</ele>
        <time>2015-12-06T11:25:31Z</time>
      </trkpt>
      <trkpt lat="44.14941" lon="3.20792">
        <ele>793.5</ele>
        <time>2015-12-06T11:25:33Z</time>
      </trkpt>
      <trkpt lat="44.14942" lon="3.20793">
        <ele>794</ele>
        <time>2015-12-06T11:25:34Z</time>
      </trkpt>
      <trkpt lat="44.14943" lon="3.20793">
        <ele>794</ele>
        <time>2015-12-06T11:25:35Z</time>
      </trkpt>
      <trkpt lat="44.14944" lon="3.20793">
        <ele>794</ele>
        <time>2015-12-06T11:25:36Z</time>
      </trkpt>
      <trkpt lat="44.14945" lon="3.20793">
        <ele>794</ele>
        <time>2015-12-06T11:25:37Z</time>
      </trkpt>
      <trkpt lat="44.14946" lon="3.20793">
        <ele>794</ele>
        <time>2015-12-06T11:25:38Z</time>
      </trkpt>
      <trkpt lat="44.14947" lon="3.20794">
        <ele>794</ele>
        <time>2015-12-06T11:25:39Z</time>
      </trkpt>
      <trkpt lat="44.14947" lon="3.20794">
        <ele>794.5</ele>
        <time>2015-12-06T11:25:40Z</time>
      </trkpt>
      <trkpt lat="44.14947" lon="3.20793">
        <ele>796</ele>
        <time>2015-12-06T11:25:42Z</time>
      </trkpt>
      <trkpt lat="44.14947" lon="3.20792">
        <ele>797</ele>
        <time>2015-12-06T11:25:44Z</time>
      </trkpt>
      <trkpt lat="44.14947" lon="3.20792">
        <ele>798.5</ele>
        <time>2015-12-06T11:25:46Z</time>
      </trkpt>
      <trkpt lat="44.14945" lon="3.20791">
        <ele>800</ele>
        <time>2015-12-06T11:25:48Z</time>
      </trkpt>
      <trkpt lat="44.14944" lon="3.2079">
        <ele>801.5</ele>
        <time>2015-12-06T11:25:49Z</time>
      </trkpt>
      <trkpt lat="44.14941" lon="3.20791">
        <ele>803.5</ele>
        <time>2015-12-06T11:25:50Z</time>
      </trkpt>
      <trkpt lat="44.1494" lon="3.20791">
        <ele>803.5</ele>
        <time>2015-12-06T11:25:51Z</time>
      </trkpt>
      <trkpt lat="44.14938" lon="3.20791">
        <ele>804</ele>
        <time>2015-12-06T11:25:52Z</time>
      </trkpt>
      <trkpt lat="44.14936" lon="3.20791">
        <ele>804.5</ele>
        <time>2015-12-06T11:25:53Z</time>
      </trkpt>
      <trkpt lat="44.14935" lon="3.20791">
        <ele>805</ele>
        <time>2015-12-06T11:25:54Z</time>
      </trkpt>
      <trkpt lat="44.14933" lon="3.20791">
        <ele>805.5</ele>
        <time>2015-12-06T11:25:55Z</time>
      </trkpt>
      <trkpt lat="44.14932" lon="3.20792">
        <ele>806</ele>
        <time>2015-12-06T11:25:56Z</time>
      </trkpt>
      <trkpt lat="44.1493" lon="3.20793">
        <ele>806.5</ele>
        <time>2015-12-06T11:25:57Z</time>
      </trkpt>
      <trkpt lat="44.14929" lon="3.20793">
        <ele>806.5</ele>
        <time>2015-12-06T11:25:58Z</time>
      </trkpt>
      <trkpt lat="44.14928" lon="3.20794">
        <ele>807</ele>
        <time>2015-12-06T11:25:59Z</time>
      </trkpt>
      <trkpt lat="44.14927" lon="3.20795">
        <ele>806.5</ele>
        <time>2015-12-06T11:26:00Z</time>
      </trkpt>
      <trkpt lat="44.14926" lon="3.20795">
        <ele>806</ele>
        <time>2015-12-06T11:26:01Z</time>
      </trkpt>
      <trkpt lat="44.14925" lon="3.20795">
        <ele>806</ele>
        <time>2015-12-06T11:26:02Z</time>
      </trkpt>
      <trkpt lat="44.14925" lon="3.20796">
        <ele>806</ele>
        <time>2015-12-06T11:26:03Z</time>
      </trkpt>
      <trkpt lat="44.14925" lon="3.20798">
        <ele>805.5</ele>
        <time>2015-12-06T11:26:04Z</time>
      </trkpt>
      <trkpt lat="44.14924" lon="3.20799">
        <ele>804.5</ele>
        <time>2015-12-06T11:26:05Z</time>
      </trkpt>
      <trkpt lat="44.14925" lon="3.208">
        <ele>804.5</ele>
        <time>2015-12-06T11:26:06Z</time>
      </trkpt>
      <trkpt lat="44.14925" lon="3.208">
        <ele>804.5</ele>
        <time>2015-12-06T11:26:07Z</time>
      </trkpt>
      <trkpt lat="44.14925" lon="3.208">
        <ele>803.5</ele>
        <time>2015-12-06T11:26:08Z</time>
      </trkpt>
      <trkpt lat="44.14926" lon="3.20798">
        <ele>804</ele>
        <time>2015-12-06T11:26:09Z</time>
      </trkpt>
      <trkpt lat="44.14927" lon="3.20797">
        <ele>804</ele>
        <time>2015-12-06T11:26:10Z</time>
      </trkpt>
      <trkpt lat="44.14928" lon="3.20796">
        <ele>803.5</ele>
        <time>2015-12-06T11:26:11Z</time>
      </trkpt>
      <trkpt lat="44.14929" lon="3.20795">
        <ele>804</ele>
        <time>2015-12-06T11:26:12Z</time>
      </trkpt>
      <trkpt lat="44.1493" lon="3.20795">
        <ele>804</ele>
        <time>2015-12-06T11:26:13Z</time>
      </trkpt>
      <trkpt lat="44.14931" lon="3.20794">
        <ele>804.5</ele>
        <time>2015-12-06T11:26:14Z</time>
      </trkpt>
      <trkpt lat="44.14932" lon="3.20794">
        <ele>804.5</ele>
        <time>2015-12-06T11:26:15Z</time>
      </trkpt>
      <trkpt lat="44.14931" lon="3.20795">
        <ele>803</ele>
        <time>2015-12-06T11:26:16Z</time>
      </trkpt>
      <trkpt lat="44.14931" lon="3.20795">
        <ele>803</ele>
        <time>2015-12-06T11:26:17Z</time>
      </trkpt>
      <trkpt lat="44.1493" lon="3.20795">
        <ele>803.5</ele>
        <time>2015-12-06T11:26:18Z</time>
      </trkpt>
      <trkpt lat="44.14929" lon="3.20795">
        <ele>804</ele>
        <time>2015-12-06T11:26:19Z</time>
      </trkpt>
      <trkpt lat="44.14929" lon="3.20795">
        <ele>803</ele>
        <time>2015-12-06T11:26:20Z</time>
      </trkpt>
      <trkpt lat="44.14929" lon="3.20794">
        <ele>802.5</ele>
        <time>2015-12-06T11:26:21Z</time>
      </trkpt>
      <trkpt lat="44.14928" lon="3.20793">
        <ele>802</ele>
        <time>2015-12-06T11:26:22Z</time>
      </trkpt>
      <trkpt lat="44.14928" lon="3.20793">
        <ele>802</ele>
        <time>2015-12-06T11:26:23Z</time>
      </trkpt>
      <trkpt lat="44.14928" lon="3.20793">
        <ele>802</ele>
        <time>2015-12-06T11:26:24Z</time>
      </trkpt>
      <trkpt lat="44.14927" lon="3.20794">
        <ele>802</ele>
        <time>2015-12-06T11:26:25Z</time>
      </trkpt>
      <trkpt lat="44.14928" lon="3.20796">
        <ele>802</ele>
        <time>2015-12-06T11:26:26Z</time>
      </trkpt>
      <trkpt lat="44.14927" lon="3.20797">
        <ele>802</ele>
        <time>2015-12-06T11:26:27Z</time>
      </trkpt>
      <trkpt lat="44.14927" lon="3.20798">
        <ele>802</ele>
        <time>2015-12-06T11:26:28Z</time>
      </trkpt>
      <trkpt lat="44.14926" lon="3.20798">
        <ele>802</ele>
        <time>2015-12-06T11:26:29Z</time>
      </trkpt>
      <trkpt lat="44.14926" lon="3.20797">
        <ele>802</ele>
        <time>2015-12-06T11:26:30Z</time>
      </trkpt>
      <trkpt lat="44.14926" lon="3.20796">
        <ele>802</ele>
        <time>2015-12-06T11:26:31Z</time>
      </trkpt>
      <trkpt lat="44.14926" lon="3.20795">
        <ele>802</ele>
        <time>2015-12-06T11:26:32Z</time>
      </trkpt>
      <trkpt lat="44.14926" lon="3.20794">
        <ele>802</ele>
        <time>2015-12-06T11:26:33Z</time>
      </trkpt>
      <trkpt lat="44.14928" lon="3.20794">
        <ele>801.5</ele>
        <time>2015-12-06T11:26:34Z</time>
      </trkpt>
      <trkpt lat="44.14929" lon="3.20794">
        <ele>801.5</ele>
        <time>2015-12-06T11:26:35Z</time>
      </trkpt>
      <trkpt lat="44.1493" lon="3.20794">
        <ele>801</ele>
        <time>2015-12-06T11:26:36Z</time>
      </trkpt>
      <trkpt lat="44.14931" lon="3.20794">
        <ele>801.5</ele>
        <time>2015-12-06T11:26:37Z</time>
      </trkpt>
      <trkpt lat="44.14932" lon="3.20795">
        <ele>801.5</ele>
        <time>2015-12-06T11:26:38Z</time>
      </trkpt>
      <trkpt lat="44.14932" lon="3.20796">
        <ele>801</ele>
        <time>2015-12-06T11:26:39Z</time>
      </trkpt>
      <trkpt lat="44.14931" lon="3.20797">
        <ele>800</ele>
        <time>2015-12-06T11:26:40Z</time>
      </trkpt>
      <trkpt lat="44.14929" lon="3.20797">
        <ele>800</ele>
        <time>2015-12-06T11:26:41Z</time>
      </trkpt>
      <trkpt lat="44.14928" lon="3.20797">
        <ele>799.5</ele>
        <time>2015-12-06T11:26:42Z</time>
      </trkpt>
      <trkpt lat="44.14927" lon="3.20797">
        <ele>799</ele>
        <time>2015-12-06T11:26:43Z</time>
      </trkpt>
      <trkpt lat="44.14925" lon="3.20797">
        <ele>798.5</ele>
        <time>2015-12-06T11:26:44Z</time>
      </trkpt>
      <trkpt lat="44.14924" lon="3.20797">
        <ele>798.5</ele>
        <time>2015-12-06T11:26:45Z</time>
      </trkpt>
      <trkpt lat="44.14922" lon="3.20797">
        <ele>798</ele>
        <time>2015-12-06T11:26:46Z</time>
      </trkpt>
      <trkpt lat="44.14921" lon="3.20796">
        <ele>798</ele>
        <time>2015-12-06T11:26:47Z</time>
      </trkpt>
      <trkpt lat="44.14919" lon="3.20794">
        <ele>798</ele>
        <time>2015-12-06T11:26:48Z</time>
      </trkpt>
      <trkpt lat="44.14917" lon="3.20794">
        <ele>798</ele>
        <time>2015-12-06T11:26:48Z</time>
      </trkpt>
      <trkpt lat="44.14915" lon="3.20793">
        <ele>798</ele>
        <time>2015-12-06T11:26:49Z</time>
      </trkpt>
      <trkpt lat="44.14913" lon="3.20791">
        <ele>798.5</ele>
        <time>2015-12-06T11:26:50Z</time>
      </trkpt>
      <trkpt lat="44.14911" lon="3.2079">
        <ele>799</ele>
        <time>2015-12-06T11:26:51Z</time>
      </trkpt>
      <trkpt lat="44.14909" lon="3.20789">
        <ele>799.5</ele>
        <time>2015-12-06T11:26:52Z</time>
      </trkpt>
      <trkpt lat="44.14907" lon="3.20788">
        <ele>800</ele>
        <time>2015-12-06T11:26:53Z</time>
      </trkpt>
      <trkpt lat="44.14905" lon="3.20787">
        <ele>800</ele>
        <time>2015-12-06T11:26:54Z</time>
      </trkpt>
      <trkpt lat="44.14903" lon="3.20786">
        <ele>801</ele>
        <time>2015-12-06T11:26:55Z</time>
      </trkpt>
      <trkpt lat="44.14901" lon="3.20785">
        <ele>801.5</ele>
        <time>2015-12-06T11:26:56Z</time>
      </trkpt>
      <trkpt lat="44.149" lon="3.20784">
        <ele>802</ele>
        <time>2015-12-06T11:26:57Z</time>
      </trkpt>
      <trkpt lat="44.14898" lon="3.20784">
        <ele>802</ele>
        <time>2015-12-06T11:26:58Z</time>
      </trkpt>
      <trkpt lat="44.14896" lon="3.20783">
        <ele>802.5</ele>
        <time>2015-12-06T11:26:59Z</time>
      </trkpt>
      <trkpt lat="44.14894" lon="3.20782">
        <ele>802.5</ele>
        <time>2015-12-06T11:27:00Z</time>
      </trkpt>
      <trkpt lat="44.14892" lon="3.20781">
        <ele>803</ele>
        <time>2015-12-06T11:27:01Z</time>
      </trkpt>
      <trkpt lat="44.14891" lon="3.2078">
        <ele>803.5</ele>
        <time>2015-12-06T11:27:02Z</time>
      </trkpt>
      <trkpt lat="44.14889" lon="3.20779">
        <ele>803.5</ele>
        <time>2015-12-06T11:27:03Z</time>
      </trkpt>
      <trkpt lat="44.14887" lon="3.20779">
        <ele>803.5</ele>
        <time>2015-12-06T11:27:04Z</time>
      </trkpt>
      <trkpt lat="44.14886" lon="3.20778">
        <ele>803.5</ele>
        <time>2015-12-06T11:27:05Z</time>
      </trkpt>
      <trkpt lat="44.14884" lon="3.20778">
        <ele>803.5</ele>
        <time>2015-12-06T11:27:07Z</time>
      </trkpt>
      <trkpt lat="44.14882" lon="3.20777">
        <ele>804</ele>
        <time>2015-12-06T11:27:07Z</time>
      </trkpt>
      <trkpt lat="44.1488" lon="3.20777">
        <ele>804</ele>
        <time>2015-12-06T11:27:08Z</time>
      </trkpt>
      <trkpt lat="44.14879" lon="3.20776">
        <ele>804</ele>
        <time>2015-12-06T11:27:09Z</time>
      </trkpt>
      <trkpt lat="44.14877" lon="3.20776">
        <ele>804</ele>
        <time>2015-12-06T11:27:10Z</time>
      </trkpt>
      <trkpt lat="44.14875" lon="3.20775">
        <ele>804.5</ele>
        <time>2015-12-06T11:27:11Z</time>
      </trkpt>
      <trkpt lat="44.14873" lon="3.20774">
        <ele>804</ele>
        <time>2015-12-06T11:27:12Z</time>
      </trkpt>
      <trkpt lat="44.14871" lon="3.20773">
        <ele>804.5</ele>
        <time>2015-12-06T11:27:13Z</time>
      </trkpt>
      <trkpt lat="44.1487" lon="3.20772">
        <ele>804.5</ele>
        <time>2015-12-06T11:27:15Z</time>
      </trkpt>
      <trkpt lat="44.14868" lon="3.20771">
        <ele>804.5</ele>
        <time>2015-12-06T11:27:15Z</time>
      </trkpt>
      <trkpt lat="44.14867" lon="3.2077">
        <ele>804.5</ele>
        <time>2015-12-06T11:27:16Z</time>
      </trkpt>
      <trkpt lat="44.14865" lon="3.2077">
        <ele>803.5</ele>
        <time>2015-12-06T11:27:17Z</time>
      </trkpt>
      <trkpt lat="44.14864" lon="3.20769">
        <ele>802.5</ele>
        <time>2015-12-06T11:27:18Z</time>
      </trkpt>
      <trkpt lat="44.14862" lon="3.20768">
        <ele>802</ele>
        <time>2015-12-06T11:27:19Z</time>
      </trkpt>
      <trkpt lat="44.1486" lon="3.20768">
        <ele>802</ele>
        <time>2015-12-06T11:27:20Z</time>
      </trkpt>
      <trkpt lat="44.14859" lon="3.20766">
        <ele>801.5</ele>
        <time>2015-12-06T11:27:21Z</time>
      </trkpt>
      <trkpt lat="44.14857" lon="3.20765">
        <ele>801</ele>
        <time>2015-12-06T11:27:22Z</time>
      </trkpt>
      <trkpt lat="44.14856" lon="3.20764">
        <ele>801</ele>
        <time>2015-12-06T11:27:23Z</time>
      </trkpt>
      <trkpt lat="44.14854" lon="3.20763">
        <ele>801</ele>
        <time>2015-12-06T11:27:24Z</time>
      </trkpt>
      <trkpt lat="44.14852" lon="3.20762">
        <ele>801</ele>
        <time>2015-12-06T11:27:25Z</time>
      </trkpt>
      <trkpt lat="44.14851" lon="3.20761">
        <ele>801</ele>
        <time>2015-12-06T11:27:26Z</time>
      </trkpt>
      <trkpt lat="44.1485" lon="3.20759">
        <ele>800.5</ele>
        <time>2015-12-06T11:27:28Z</time>
      </trkpt>
      <trkpt lat="44.14849" lon="3.20758">
        <ele>800.5</ele>
        <time>2015-12-06T11:27:28Z</time>
      </trkpt>
      <trkpt lat="44.14848" lon="3.20757">
        <ele>800.5</ele>
        <time>2015-12-06T11:27:29Z</time>
      </trkpt>
      <trkpt lat="44.14847" lon="3.20756">
        <ele>800</ele>
        <time>2015-12-06T11:27:30Z</time>
      </trkpt>
      <trkpt lat="44.14846" lon="3.20755">
        <ele>800</ele>
        <time>2015-12-06T11:27:31Z</time>
      </trkpt>
      <trkpt lat="44.14845" lon="3.20755">
        <ele>800</ele>
        <time>2015-12-06T11:27:32Z</time>
      </trkpt>
      <trkpt lat="44.14843" lon="3.20755">
        <ele>799.5</ele>
        <time>2015-12-06T11:27:33Z</time>
      </trkpt>
      <trkpt lat="44.14841" lon="3.20754">
        <ele>799</ele>
        <time>2015-12-06T11:27:34Z</time>
      </trkpt>
      <trkpt lat="44.14838" lon="3.20754">
        <ele>799</ele>
        <time>2015-12-06T11:27:35Z</time>
      </trkpt>
      <trkpt lat="44.14836" lon="3.20753">
        <ele>798.5</ele>
        <time>2015-12-06T11:27:36Z</time>
      </trkpt>
      <trkpt lat="44.14833" lon="3.20752">
        <ele>798.5</ele>
        <time>2015-12-06T11:27:37Z</time>
      </trkpt>
      <trkpt lat="44.1483" lon="3.20751">
        <ele>798</ele>
        <time>2015-12-06T11:27:39Z</time>
      </trkpt>
      <trkpt lat="44.14827" lon="3.20749">
        <ele>797.5</ele>
        <time>2015-12-06T11:27:39Z</time>
      </trkpt>
      <trkpt lat="44.14824" lon="3.20748">
        <ele>797</ele>
        <time>2015-12-06T11:27:40Z</time>
      </trkpt>
      <trkpt lat="44.14821" lon="3.20747">
        <ele>796.5</ele>
        <time>2015-12-06T11:27:41Z</time>
      </trkpt>
      <trkpt lat="44.14818" lon="3.20746">
        <ele>796</ele>
        <time>2015-12-06T11:27:42Z</time>
      </trkpt>
      <trkpt lat="44.14815" lon="3.20745">
        <ele>795.5</ele>
        <time>2015-12-06T11:27:43Z</time>
      </trkpt>
      <trkpt lat="44.14812" lon="3.20743">
        <ele>795.5</ele>
        <time>2015-12-06T11:27:44Z</time>
      </trkpt>
      <trkpt lat="44.1481" lon="3.2074">
        <ele>795</ele>
        <time>2015-12-06T11:27:45Z</time>
      </trkpt>
      <trkpt lat="44.14808" lon="3.20737">
        <ele>793.5</ele>
        <time>2015-12-06T11:27:46Z</time>
      </trkpt>
      <trkpt lat="44.14806" lon="3.20734">
        <ele>792.5</ele>
        <time>2015-12-06T11:27:47Z</time>
      </trkpt>
      <trkpt lat="44.14805" lon="3.2073">
        <ele>791.5</ele>
        <time>2015-12-06T11:27:48Z</time>
      </trkpt>
      <trkpt lat="44.14804" lon="3.20725">
        <ele>790.5</ele>
        <time>2015-12-06T11:27:49Z</time>
      </trkpt>
      <trkpt lat="44.14804" lon="3.20721">
        <ele>791.5</ele>
        <time>2015-12-06T11:27:50Z</time>
      </trkpt>
      <trkpt lat="44.14804" lon="3.20716">
        <ele>793</ele>
        <time>2015-12-06T11:27:51Z</time>
      </trkpt>
      <trkpt lat="44.14804" lon="3.20712">
        <ele>792.5</ele>
        <time>2015-12-06T11:27:52Z</time>
      </trkpt>
      <trkpt lat="44.14805" lon="3.20708">
        <ele>793</ele>
        <time>2015-12-06T11:27:53Z</time>
      </trkpt>
      <trkpt lat="44.14805" lon="3.20703">
        <ele>793</ele>
        <time>2015-12-06T11:27:54Z</time>
      </trkpt>
      <trkpt lat="44.14805" lon="3.20699">
        <ele>792.5</ele>
        <time>2015-12-06T11:27:55Z</time>
      </trkpt>
      <trkpt lat="44.14805" lon="3.20695">
        <ele>792</ele>
        <time>2015-12-06T11:27:56Z</time>
      </trkpt>
      <trkpt lat="44.14802" lon="3.2069">
        <ele>793.5</ele>
        <time>2015-12-06T11:27:57Z</time>
      </trkpt>
      <trkpt lat="44.14801" lon="3.20685">
        <ele>793.5</ele>
        <time>2015-12-06T11:27:58Z</time>
      </trkpt>
      <trkpt lat="44.14799" lon="3.2068">
        <ele>794</ele>
        <time>2015-12-06T11:27:59Z</time>
      </trkpt>
      <trkpt lat="44.14798" lon="3.20675">
        <ele>794</ele>
        <time>2015-12-06T11:28:00Z</time>
      </trkpt>
      <trkpt lat="44.14797" lon="3.20671">
        <ele>793.5</ele>
        <time>2015-12-06T11:28:01Z</time>
      </trkpt>
      <trkpt lat="44.14797" lon="3.20667">
        <ele>792.5</ele>
        <time>2015-12-06T11:28:02Z</time>
      </trkpt>
      <trkpt lat="44.14797" lon="3.20663">
        <ele>791</ele>
        <time>2015-12-06T11:28:03Z</time>
      </trkpt>
      <trkpt lat="44.14797" lon="3.20659">
        <ele>789.5</ele>
        <time>2015-12-06T11:28:04Z</time>
      </trkpt>
      <trkpt lat="44.14798" lon="3.20655">
        <ele>788.5</ele>
        <time>2015-12-06T11:28:05Z</time>
      </trkpt>
      <trkpt lat="44.14797" lon="3.20651">
        <ele>789.5</ele>
        <time>2015-12-06T11:28:06Z</time>
      </trkpt>
      <trkpt lat="44.14798" lon="3.20648">
        <ele>789.5</ele>
        <time>2015-12-06T11:28:07Z</time>
      </trkpt>
      <trkpt lat="44.14798" lon="3.20645">
        <ele>790</ele>
        <time>2015-12-06T11:28:08Z</time>
      </trkpt>
      <trkpt lat="44.14797" lon="3.20641">
        <ele>792.5</ele>
        <time>2015-12-06T11:28:09Z</time>
      </trkpt>
      <trkpt lat="44.14797" lon="3.20638">
        <ele>793</ele>
        <time>2015-12-06T11:28:10Z</time>
      </trkpt>
      <trkpt lat="44.14797" lon="3.20635">
        <ele>793.5</ele>
        <time>2015-12-06T11:28:11Z</time>
      </trkpt>
      <trkpt lat="44.14797" lon="3.20632">
        <ele>795</ele>
        <time>2015-12-06T11:28:12Z</time>
      </trkpt>
      <trkpt lat="44.14797" lon="3.2063">
        <ele>796.5</ele>
        <time>2015-12-06T11:28:13Z</time>
      </trkpt>
      <trkpt lat="44.14797" lon="3.20627">
        <ele>797</ele>
        <time>2015-12-06T11:28:14Z</time>
      </trkpt>
      <trkpt lat="44.14797" lon="3.20624">
        <ele>797</ele>
        <time>2015-12-06T11:28:15Z</time>
      </trkpt>
      <trkpt lat="44.14797" lon="3.20622">
        <ele>797</ele>
        <time>2015-12-06T11:28:16Z</time>
      </trkpt>
      <trkpt lat="44.14797" lon="3.20619">
        <ele>797.5</ele>
        <time>2015-12-06T11:28:17Z</time>
      </trkpt>
      <trkpt lat="44.14798" lon="3.20616">
        <ele>795.5</ele>
        <time>2015-12-06T11:28:18Z</time>
      </trkpt>
      <trkpt lat="44.14797" lon="3.20613">
        <ele>797.5</ele>
        <time>2015-12-06T11:28:19Z</time>
      </trkpt>
      <trkpt lat="44.14796" lon="3.20609">
        <ele>799</ele>
        <time>2015-12-06T11:28:20Z</time>
      </trkpt>
      <trkpt lat="44.14796" lon="3.20607">
        <ele>800</ele>
        <time>2015-12-06T11:28:21Z</time>
      </trkpt>
      <trkpt lat="44.14796" lon="3.20604">
        <ele>801</ele>
        <time>2015-12-06T11:28:22Z</time>
      </trkpt>
      <trkpt lat="44.14795" lon="3.20601">
        <ele>804.5</ele>
        <time>2015-12-06T11:28:23Z</time>
      </trkpt>
      <trkpt lat="44.14795" lon="3.20598">
        <ele>803</ele>
        <time>2015-12-06T11:28:24Z</time>
      </trkpt>
      <trkpt lat="44.14795" lon="3.20595">
        <ele>802.5</ele>
        <time>2015-12-06T11:28:25Z</time>
      </trkpt>
      <trkpt lat="44.14794" lon="3.20593">
        <ele>802.5</ele>
        <time>2015-12-06T11:28:26Z</time>
      </trkpt>
      <trkpt lat="44.14792" lon="3.20589">
        <ele>804</ele>
        <time>2015-12-06T11:28:28Z</time>
      </trkpt>
      <trkpt lat="44.14792" lon="3.20587">
        <ele>802.5</ele>
        <time>2015-12-06T11:28:29Z</time>
      </trkpt>
      <trkpt lat="44.14793" lon="3.20585">
        <ele>800.5</ele>
        <time>2015-12-06T11:28:30Z</time>
      </trkpt>
      <trkpt lat="44.14793" lon="3.20583">
        <ele>799</ele>
        <time>2015-12-06T11:28:31Z</time>
      </trkpt>
      <trkpt lat="44.14792" lon="3.20581">
        <ele>798.5</ele>
        <time>2015-12-06T11:28:32Z</time>
      </trkpt>
      <trkpt lat="44.14791" lon="3.20579">
        <ele>798</ele>
        <time>2015-12-06T11:28:33Z</time>
      </trkpt>
      <trkpt lat="44.14791" lon="3.20576">
        <ele>798.5</ele>
        <time>2015-12-06T11:28:34Z</time>
      </trkpt>
      <trkpt lat="44.14792" lon="3.20574">
        <ele>795.5</ele>
        <time>2015-12-06T11:28:35Z</time>
      </trkpt>
      <trkpt lat="44.14794" lon="3.20572">
        <ele>792</ele>
        <time>2015-12-06T11:28:36Z</time>
      </trkpt>
      <trkpt lat="44.14795" lon="3.20569">
        <ele>792</ele>
        <time>2015-12-06T11:28:37Z</time>
      </trkpt>
      <trkpt lat="44.14796" lon="3.20564">
        <ele>790.5</ele>
        <time>2015-12-06T11:28:39Z</time>
      </trkpt>
      <trkpt lat="44.14796" lon="3.20562">
        <ele>789.5</ele>
        <time>2015-12-06T11:28:40Z</time>
      </trkpt>
      <trkpt lat="44.14797" lon="3.2056">
        <ele>788</ele>
        <time>2015-12-06T11:28:41Z</time>
      </trkpt>
      <trkpt lat="44.14798" lon="3.20559">
        <ele>787.5</ele>
        <time>2015-12-06T11:28:42Z</time>
      </trkpt>
      <trkpt lat="44.148" lon="3.20557">
        <ele>785.5</ele>
        <time>2015-12-06T11:28:43Z</time>
      </trkpt>
      <trkpt lat="44.14801" lon="3.20555">
        <ele>784</ele>
        <time>2015-12-06T11:28:44Z</time>
      </trkpt>
      <trkpt lat="44.14803" lon="3.20553">
        <ele>783</ele>
        <time>2015-12-06T11:28:45Z</time>
      </trkpt>
      <trkpt lat="44.14804" lon="3.20552">
        <ele>783</ele>
        <time>2015-12-06T11:28:46Z</time>
      </trkpt>
      <trkpt lat="44.14804" lon="3.20551">
        <ele>783.5</ele>
        <time>2015-12-06T11:28:47Z</time>
      </trkpt>
      <trkpt lat="44.14805" lon="3.2055">
        <ele>784</ele>
        <time>2015-12-06T11:28:48Z</time>
      </trkpt>
      <trkpt lat="44.14806" lon="3.20549">
        <ele>784</ele>
        <time>2015-12-06T11:28:50Z</time>
      </trkpt>
      <trkpt lat="44.14807" lon="3.20548">
        <ele>782.5</ele>
        <time>2015-12-06T11:28:52Z</time>
      </trkpt>
      <trkpt lat="44.14808" lon="3.20547">
        <ele>782.5</ele>
        <time>2015-12-06T11:28:53Z</time>
      </trkpt>
      <trkpt lat="44.14809" lon="3.20546">
        <ele>782.5</ele>
        <time>2015-12-06T11:28:54Z</time>
      </trkpt>
      <trkpt lat="44.14809" lon="3.20546">
        <ele>782.5</ele>
        <time>2015-12-06T11:28:55Z</time>
      </trkpt>
      <trkpt lat="44.14809" lon="3.20545">
        <ele>783.5</ele>
        <time>2015-12-06T11:28:56Z</time>
      </trkpt>
      <trkpt lat="44.1481" lon="3.20544">
        <ele>784</ele>
        <time>2015-12-06T11:28:57Z</time>
      </trkpt>
      <trkpt lat="44.1481" lon="3.20544">
        <ele>782.5</ele>
        <time>2015-12-06T11:28:58Z</time>
      </trkpt>
      <trkpt lat="44.14811" lon="3.20543">
        <ele>782.5</ele>
        <time>2015-12-06T11:28:59Z</time>
      </trkpt>
      <trkpt lat="44.14811" lon="3.20541">
        <ele>784.5</ele>
        <time>2015-12-06T11:29:00Z</time>
      </trkpt>
      <trkpt lat="44.14811" lon="3.20539">
        <ele>788.5</ele>
        <time>2015-12-06T11:29:01Z</time>
      </trkpt>
      <trkpt lat="44.14811" lon="3.20537">
        <ele>790.5</ele>
        <time>2015-12-06T11:29:02Z</time>
      </trkpt>
      <trkpt lat="44.14812" lon="3.20537">
        <ele>790.5</ele>
        <time>2015-12-06T11:29:03Z</time>
      </trkpt>
      <trkpt lat="44.14813" lon="3.20537">
        <ele>790.5</ele>
        <time>2015-12-06T11:29:04Z</time>
      </trkpt>
      <trkpt lat="44.14814" lon="3.20535">
        <ele>790</ele>
        <time>2015-12-06T11:29:05Z</time>
      </trkpt>
      <trkpt lat="44.14815" lon="3.20535">
        <ele>789</ele>
        <time>2015-12-06T11:29:06Z</time>
      </trkpt>
      <trkpt lat="44.14816" lon="3.20535">
        <ele>788.5</ele>
        <time>2015-12-06T11:29:07Z</time>
      </trkpt>
      <trkpt lat="44.14817" lon="3.20536">
        <ele>787.5</ele>
        <time>2015-12-06T11:29:08Z</time>
      </trkpt>
      <trkpt lat="44.14818" lon="3.20536">
        <ele>786.5</ele>
        <time>2015-12-06T11:29:09Z</time>
      </trkpt>
      <trkpt lat="44.14819" lon="3.20536">
        <ele>785.5</ele>
        <time>2015-12-06T11:29:10Z</time>
      </trkpt>
      <trkpt lat="44.14821" lon="3.20536">
        <ele>783.5</ele>
        <time>2015-12-06T11:29:11Z</time>
      </trkpt>
      <trkpt lat="44.14822" lon="3.20535">
        <ele>783</ele>
        <time>2015-12-06T11:29:12Z</time>
      </trkpt>
      <trkpt lat="44.14823" lon="3.20536">
        <ele>781.5</ele>
        <time>2015-12-06T11:29:13Z</time>
      </trkpt>
      <trkpt lat="44.14824" lon="3.20535">
        <ele>781</ele>
        <time>2015-12-06T11:29:14Z</time>
      </trkpt>
      <trkpt lat="44.14826" lon="3.20534">
        <ele>780.5</ele>
        <time>2015-12-06T11:29:15Z</time>
      </trkpt>
      <trkpt lat="44.14828" lon="3.20534">
        <ele>779.5</ele>
        <time>2015-12-06T11:29:16Z</time>
      </trkpt>
      <trkpt lat="44.14829" lon="3.20533">
        <ele>779</ele>
        <time>2015-12-06T11:29:17Z</time>
      </trkpt>
      <trkpt lat="44.1483" lon="3.20533">
        <ele>778</ele>
        <time>2015-12-06T11:29:18Z</time>
      </trkpt>
      <trkpt lat="44.14831" lon="3.20533">
        <ele>779.5</ele>
        <time>2015-12-06T11:29:19Z</time>
      </trkpt>
      <trkpt lat="44.14833" lon="3.20532">
        <ele>779.5</ele>
        <time>2015-12-06T11:29:20Z</time>
      </trkpt>
      <trkpt lat="44.14833" lon="3.2053">
        <ele>781</ele>
        <time>2015-12-06T11:29:21Z</time>
      </trkpt>
      <trkpt lat="44.14835" lon="3.20529">
        <ele>781.5</ele>
        <time>2015-12-06T11:29:22Z</time>
      </trkpt>
      <trkpt lat="44.14836" lon="3.20528">
        <ele>782.5</ele>
        <time>2015-12-06T11:29:23Z</time>
      </trkpt>
      <trkpt lat="44.14838" lon="3.20528">
        <ele>782</ele>
        <time>2015-12-06T11:29:24Z</time>
      </trkpt>
      <trkpt lat="44.14839" lon="3.20527">
        <ele>782</ele>
        <time>2015-12-06T11:29:25Z</time>
      </trkpt>
      <trkpt lat="44.14842" lon="3.20527">
        <ele>783</ele>
        <time>2015-12-06T11:29:26Z</time>
      </trkpt>
      <trkpt lat="44.14843" lon="3.20527">
        <ele>782.5</ele>
        <time>2015-12-06T11:29:27Z</time>
      </trkpt>
      <trkpt lat="44.14847" lon="3.20529">
        <ele>783</ele>
        <time>2015-12-06T11:29:28Z</time>
      </trkpt>
      <trkpt lat="44.14849" lon="3.20527">
        <ele>784.5</ele>
        <time>2015-12-06T11:29:29Z</time>
      </trkpt>
      <trkpt lat="44.1485" lon="3.20525">
        <ele>786</ele>
        <time>2015-12-06T11:29:30Z</time>
      </trkpt>
      <trkpt lat="44.14851" lon="3.20523">
        <ele>786.5</ele>
        <time>2015-12-06T11:29:31Z</time>
      </trkpt>
      <trkpt lat="44.14852" lon="3.20521">
        <ele>786.5</ele>
        <time>2015-12-06T11:29:32Z</time>
      </trkpt>
      <trkpt lat="44.14854" lon="3.20519">
        <ele>786.5</ele>
        <time>2015-12-06T11:29:33Z</time>
      </trkpt>
      <trkpt lat="44.14854" lon="3.20517">
        <ele>788</ele>
        <time>2015-12-06T11:29:34Z</time>
      </trkpt>
      <trkpt lat="44.14854" lon="3.20516">
        <ele>787.5</ele>
        <time>2015-12-06T11:29:35Z</time>
      </trkpt>
      <trkpt lat="44.14854" lon="3.20514">
        <ele>787.5</ele>
        <time>2015-12-06T11:29:36Z</time>
      </trkpt>
      <trkpt lat="44.14854" lon="3.20511">
        <ele>787.5</ele>
        <time>2015-12-06T11:29:37Z</time>
      </trkpt>
      <trkpt lat="44.14854" lon="3.20509">
        <ele>786</ele>
        <time>2015-12-06T11:29:38Z</time>
      </trkpt>
      <trkpt lat="44.14854" lon="3.20507">
        <ele>785.5</ele>
        <time>2015-12-06T11:29:39Z</time>
      </trkpt>
      <trkpt lat="44.14854" lon="3.20504">
        <ele>786</ele>
        <time>2015-12-06T11:29:40Z</time>
      </trkpt>
      <trkpt lat="44.14853" lon="3.20502">
        <ele>787.5</ele>
        <time>2015-12-06T11:29:41Z</time>
      </trkpt>
      <trkpt lat="44.14853" lon="3.20499">
        <ele>786.5</ele>
        <time>2015-12-06T11:29:42Z</time>
      </trkpt>
      <trkpt lat="44.14853" lon="3.20497">
        <ele>788.5</ele>
        <time>2015-12-06T11:29:43Z</time>
      </trkpt>
      <trkpt lat="44.14853" lon="3.20493">
        <ele>789.5</ele>
        <time>2015-12-06T11:29:44Z</time>
      </trkpt>
      <trkpt lat="44.14852" lon="3.2049">
        <ele>792</ele>
        <time>2015-12-06T11:29:45Z</time>
      </trkpt>
      <trkpt lat="44.14852" lon="3.20488">
        <ele>793.5</ele>
        <time>2015-12-06T11:29:46Z</time>
      </trkpt>
      <trkpt lat="44.14852" lon="3.20485">
        <ele>797</ele>
        <time>2015-12-06T11:29:47Z</time>
      </trkpt>
      <trkpt lat="44.14851" lon="3.20482">
        <ele>801</ele>
        <time>2015-12-06T11:29:48Z</time>
      </trkpt>
      <trkpt lat="44.14851" lon="3.2048">
        <ele>802</ele>
        <time>2015-12-06T11:29:49Z</time>
      </trkpt>
      <trkpt lat="44.14852" lon="3.20478">
        <ele>801.5</ele>
        <time>2015-12-06T11:29:50Z</time>
      </trkpt>
      <trkpt lat="44.14851" lon="3.20476">
        <ele>803.5</ele>
        <time>2015-12-06T11:29:51Z</time>
      </trkpt>
      <trkpt lat="44.14853" lon="3.20474">
        <ele>802</ele>
        <time>2015-12-06T11:29:52Z</time>
      </trkpt>
      <trkpt lat="44.14854" lon="3.20472">
        <ele>801</ele>
        <time>2015-12-06T11:29:53Z</time>
      </trkpt>
      <trkpt lat="44.14856" lon="3.2047">
        <ele>798.5</ele>
        <time>2015-12-06T11:29:54Z</time>
      </trkpt>
      <trkpt lat="44.14858" lon="3.20464">
        <ele>793</ele>
        <time>2015-12-06T11:29:56Z</time>
      </trkpt>
      <trkpt lat="44.14858" lon="3.20462">
        <ele>792.5</ele>
        <time>2015-12-06T11:29:57Z</time>
      </trkpt>
      <trkpt lat="44.14857" lon="3.20463">
        <ele>793.5</ele>
        <time>2015-12-06T11:29:58Z</time>
      </trkpt>
      <trkpt lat="44.14857" lon="3.20462">
        <ele>794.5</ele>
        <time>2015-12-06T11:29:59Z</time>
      </trkpt>
      <trkpt lat="44.14858" lon="3.2046">
        <ele>795</ele>
        <time>2015-12-06T11:30:00Z</time>
      </trkpt>
      <trkpt lat="44.14859" lon="3.20459">
        <ele>795.5</ele>
        <time>2015-12-06T11:30:01Z</time>
      </trkpt>
      <trkpt lat="44.1486" lon="3.20456">
        <ele>796</ele>
        <time>2015-12-06T11:30:02Z</time>
      </trkpt>
      <trkpt lat="44.14859" lon="3.20454">
        <ele>799</ele>
        <time>2015-12-06T11:30:03Z</time>
      </trkpt>
      <trkpt lat="44.14857" lon="3.20451">
        <ele>801.5</ele>
        <time>2015-12-06T11:30:04Z</time>
      </trkpt>
      <trkpt lat="44.14856" lon="3.20449">
        <ele>802</ele>
        <time>2015-12-06T11:30:05Z</time>
      </trkpt>
      <trkpt lat="44.14856" lon="3.20447">
        <ele>802.5</ele>
        <time>2015-12-06T11:30:06Z</time>
      </trkpt>
      <trkpt lat="44.14856" lon="3.20444">
        <ele>803.5</ele>
        <time>2015-12-06T11:30:07Z</time>
      </trkpt>
      <trkpt lat="44.14857" lon="3.20442">
        <ele>802.5</ele>
        <time>2015-12-06T11:30:08Z</time>
      </trkpt>
      <trkpt lat="44.14858" lon="3.20439">
        <ele>803</ele>
        <time>2015-12-06T11:30:09Z</time>
      </trkpt>
      <trkpt lat="44.14852" lon="3.20437">
        <ele>803</ele>
        <time>2015-12-06T11:30:11Z</time>
      </trkpt>
      <trkpt lat="44.14854" lon="3.20432">
        <ele>802</ele>
        <time>2015-12-06T11:30:13Z</time>
      </trkpt>
      <trkpt lat="44.14853" lon="3.20429">
        <ele>804</ele>
        <time>2015-12-06T11:30:14Z</time>
      </trkpt>
      <trkpt lat="44.14854" lon="3.20425">
        <ele>801</ele>
        <time>2015-12-06T11:30:15Z</time>
      </trkpt>
      <trkpt lat="44.14853" lon="3.20423">
        <ele>801.5</ele>
        <time>2015-12-06T11:30:16Z</time>
      </trkpt>
      <trkpt lat="44.14855" lon="3.20423">
        <ele>801.5</ele>
        <time>2015-12-06T11:30:17Z</time>
      </trkpt>
      <trkpt lat="44.14859" lon="3.20418">
        <ele>798</ele>
        <time>2015-12-06T11:30:19Z</time>
      </trkpt>
      <trkpt lat="44.14859" lon="3.20416">
        <ele>797.5</ele>
        <time>2015-12-06T11:30:20Z</time>
      </trkpt>
      <trkpt lat="44.1486" lon="3.20413">
        <ele>795.5</ele>
        <time>2015-12-06T11:30:21Z</time>
      </trkpt>
      <trkpt lat="44.14861" lon="3.20411">
        <ele>796</ele>
        <time>2015-12-06T11:30:22Z</time>
      </trkpt>
      <trkpt lat="44.14862" lon="3.20409">
        <ele>796</ele>
        <time>2015-12-06T11:30:23Z</time>
      </trkpt>
      <trkpt lat="44.14861" lon="3.20406">
        <ele>796.5</ele>
        <time>2015-12-06T11:30:23Z</time>
      </trkpt>
      <trkpt lat="44.14861" lon="3.20405">
        <ele>798.5</ele>
        <time>2015-12-06T11:30:24Z</time>
      </trkpt>
      <trkpt lat="44.1486" lon="3.20404">
        <ele>799</ele>
        <time>2015-12-06T11:30:26Z</time>
      </trkpt>
      <trkpt lat="44.14861" lon="3.20403">
        <ele>799.5</ele>
        <time>2015-12-06T11:30:27Z</time>
      </trkpt>
      <trkpt lat="44.1486" lon="3.20402">
        <ele>800</ele>
        <time>2015-12-06T11:30:28Z</time>
      </trkpt>
      <trkpt lat="44.1486" lon="3.204">
        <ele>800.5</ele>
        <time>2015-12-06T11:30:29Z</time>
      </trkpt>
      <trkpt lat="44.1486" lon="3.20398">
        <ele>801.5</ele>
        <time>2015-12-06T11:30:30Z</time>
      </trkpt>
      <trkpt lat="44.1486" lon="3.20395">
        <ele>802.5</ele>
        <time>2015-12-06T11:30:31Z</time>
      </trkpt>
      <trkpt lat="44.1486" lon="3.20393">
        <ele>803.5</ele>
        <time>2015-12-06T11:30:32Z</time>
      </trkpt>
      <trkpt lat="44.1486" lon="3.2039">
        <ele>803.5</ele>
        <time>2015-12-06T11:30:33Z</time>
      </trkpt>
      <trkpt lat="44.1486" lon="3.20388">
        <ele>805.5</ele>
        <time>2015-12-06T11:30:34Z</time>
      </trkpt>
      <trkpt lat="44.1486" lon="3.20387">
        <ele>805</ele>
        <time>2015-12-06T11:30:35Z</time>
      </trkpt>
      <trkpt lat="44.14858" lon="3.20383">
        <ele>805.5</ele>
        <time>2015-12-06T11:30:37Z</time>
      </trkpt>
      <trkpt lat="44.1486" lon="3.20382">
        <ele>804</ele>
        <time>2015-12-06T11:30:42Z</time>
      </trkpt>
      <trkpt lat="44.1486" lon="3.20381">
        <ele>804</ele>
        <time>2015-12-06T11:30:43Z</time>
      </trkpt>
      <trkpt lat="44.14861" lon="3.2038">
        <ele>803</ele>
        <time>2015-12-06T11:30:44Z</time>
      </trkpt>
      <trkpt lat="44.14861" lon="3.20378">
        <ele>801.5</ele>
        <time>2015-12-06T11:30:45Z</time>
      </trkpt>
      <trkpt lat="44.14861" lon="3.20376">
        <ele>802</ele>
        <time>2015-12-06T11:30:46Z</time>
      </trkpt>
      <trkpt lat="44.14861" lon="3.20374">
        <ele>801.5</ele>
        <time>2015-12-06T11:30:47Z</time>
      </trkpt>
      <trkpt lat="44.14862" lon="3.20372">
        <ele>801</ele>
        <time>2015-12-06T11:30:48Z</time>
      </trkpt>
      <trkpt lat="44.14863" lon="3.20369">
        <ele>801.5</ele>
        <time>2015-12-06T11:30:49Z</time>
      </trkpt>
      <trkpt lat="44.14865" lon="3.20368">
        <ele>800.5</ele>
        <time>2015-12-06T11:30:50Z</time>
      </trkpt>
      <trkpt lat="44.14866" lon="3.20366">
        <ele>800</ele>
        <time>2015-12-06T11:30:51Z</time>
      </trkpt>
      <trkpt lat="44.14867" lon="3.20364">
        <ele>799.5</ele>
        <time>2015-12-06T11:30:52Z</time>
      </trkpt>
      <trkpt lat="44.14868" lon="3.20361">
        <ele>800</ele>
        <time>2015-12-06T11:30:53Z</time>
      </trkpt>
      <trkpt lat="44.14869" lon="3.20359">
        <ele>799</ele>
        <time>2015-12-06T11:30:54Z</time>
      </trkpt>
      <trkpt lat="44.1487" lon="3.20357">
        <ele>799</ele>
        <time>2015-12-06T11:30:55Z</time>
      </trkpt>
      <trkpt lat="44.14871" lon="3.20355">
        <ele>799</ele>
        <time>2015-12-06T11:30:56Z</time>
      </trkpt>
      <trkpt lat="44.14871" lon="3.20353">
        <ele>800.5</ele>
        <time>2015-12-06T11:30:57Z</time>
      </trkpt>
      <trkpt lat="44.14871" lon="3.20351">
        <ele>801</ele>
        <time>2015-12-06T11:30:58Z</time>
      </trkpt>
      <trkpt lat="44.14871" lon="3.20348">
        <ele>802</ele>
        <time>2015-12-06T11:30:59Z</time>
      </trkpt>
      <trkpt lat="44.14871" lon="3.20346">
        <ele>803.5</ele>
        <time>2015-12-06T11:31:00Z</time>
      </trkpt>
      <trkpt lat="44.14871" lon="3.20343">
        <ele>804</ele>
        <time>2015-12-06T11:31:01Z</time>
      </trkpt>
      <trkpt lat="44.14871" lon="3.20341">
        <ele>806</ele>
        <time>2015-12-06T11:31:02Z</time>
      </trkpt>
      <trkpt lat="44.14872" lon="3.20339">
        <ele>807</ele>
        <time>2015-12-06T11:31:03Z</time>
      </trkpt>
      <trkpt lat="44.14872" lon="3.20336">
        <ele>809</ele>
        <time>2015-12-06T11:31:04Z</time>
      </trkpt>
      <trkpt lat="44.14872" lon="3.20334">
        <ele>809.5</ele>
        <time>2015-12-06T11:31:05Z</time>
      </trkpt>
      <trkpt lat="44.14872" lon="3.20332">
        <ele>810</ele>
        <time>2015-12-06T11:31:06Z</time>
      </trkpt>
      <trkpt lat="44.14872" lon="3.2033">
        <ele>810.5</ele>
        <time>2015-12-06T11:31:07Z</time>
      </trkpt>
      <trkpt lat="44.14872" lon="3.20328">
        <ele>812.5</ele>
        <time>2015-12-06T11:31:08Z</time>
      </trkpt>
      <trkpt lat="44.14872" lon="3.20325">
        <ele>813.5</ele>
        <time>2015-12-06T11:31:09Z</time>
      </trkpt>
      <trkpt lat="44.14872" lon="3.20323">
        <ele>815</ele>
        <time>2015-12-06T11:31:10Z</time>
      </trkpt>
      <trkpt lat="44.14872" lon="3.2032">
        <ele>815</ele>
        <time>2015-12-06T11:31:11Z</time>
      </trkpt>
      <trkpt lat="44.14872" lon="3.20319">
        <ele>815</ele>
        <time>2015-12-06T11:31:12Z</time>
      </trkpt>
      <trkpt lat="44.14872" lon="3.20317">
        <ele>814.5</ele>
        <time>2015-12-06T11:31:13Z</time>
      </trkpt>
      <trkpt lat="44.14873" lon="3.20315">
        <ele>815</ele>
        <time>2015-12-06T11:31:14Z</time>
      </trkpt>
      <trkpt lat="44.14873" lon="3.20313">
        <ele>815</ele>
        <time>2015-12-06T11:31:15Z</time>
      </trkpt>
      <trkpt lat="44.14874" lon="3.20311">
        <ele>814.5</ele>
        <time>2015-12-06T11:31:16Z</time>
      </trkpt>
      <trkpt lat="44.14874" lon="3.20309">
        <ele>814.5</ele>
        <time>2015-12-06T11:31:17Z</time>
      </trkpt>
      <trkpt lat="44.14876" lon="3.20307">
        <ele>813</ele>
        <time>2015-12-06T11:31:18Z</time>
      </trkpt>
      <trkpt lat="44.14876" lon="3.20305">
        <ele>813</ele>
        <time>2015-12-06T11:31:19Z</time>
      </trkpt>
      <trkpt lat="44.14877" lon="3.20304">
        <ele>813</ele>
        <time>2015-12-06T11:31:20Z</time>
      </trkpt>
      <trkpt lat="44.14877" lon="3.20302">
        <ele>813.5</ele>
        <time>2015-12-06T11:31:21Z</time>
      </trkpt>
      <trkpt lat="44.14878" lon="3.203">
        <ele>814.5</ele>
        <time>2015-12-06T11:31:22Z</time>
      </trkpt>
      <trkpt lat="44.14878" lon="3.20298">
        <ele>815.5</ele>
        <time>2015-12-06T11:31:23Z</time>
      </trkpt>
      <trkpt lat="44.14878" lon="3.20296">
        <ele>816</ele>
        <time>2015-12-06T11:31:24Z</time>
      </trkpt>
      <trkpt lat="44.14879" lon="3.20293">
        <ele>816</ele>
        <time>2015-12-06T11:31:25Z</time>
      </trkpt>
      <trkpt lat="44.14879" lon="3.20291">
        <ele>816</ele>
        <time>2015-12-06T11:31:26Z</time>
      </trkpt>
      <trkpt lat="44.1488" lon="3.20289">
        <ele>815.5</ele>
        <time>2015-12-06T11:31:27Z</time>
      </trkpt>
      <trkpt lat="44.1488" lon="3.20287">
        <ele>816</ele>
        <time>2015-12-06T11:31:28Z</time>
      </trkpt>
      <trkpt lat="44.14881" lon="3.20284">
        <ele>816</ele>
        <time>2015-12-06T11:31:29Z</time>
      </trkpt>
      <trkpt lat="44.14881" lon="3.20282">
        <ele>816.5</ele>
        <time>2015-12-06T11:31:30Z</time>
      </trkpt>
      <trkpt lat="44.14882" lon="3.20281">
        <ele>815</ele>
        <time>2015-12-06T11:31:31Z</time>
      </trkpt>
      <trkpt lat="44.14883" lon="3.20278">
        <ele>816.5</ele>
        <time>2015-12-06T11:31:32Z</time>
      </trkpt>
      <trkpt lat="44.14884" lon="3.20276">
        <ele>817</ele>
        <time>2015-12-06T11:31:33Z</time>
      </trkpt>
      <trkpt lat="44.14884" lon="3.20273">
        <ele>817</ele>
        <time>2015-12-06T11:31:34Z</time>
      </trkpt>
      <trkpt lat="44.14885" lon="3.20271">
        <ele>817</ele>
        <time>2015-12-06T11:31:35Z</time>
      </trkpt>
      <trkpt lat="44.14886" lon="3.20268">
        <ele>817.5</ele>
        <time>2015-12-06T11:31:36Z</time>
      </trkpt>
      <trkpt lat="44.14887" lon="3.20266">
        <ele>818</ele>
        <time>2015-12-06T11:31:37Z</time>
      </trkpt>
      <trkpt lat="44.14888" lon="3.20264">
        <ele>818.5</ele>
        <time>2015-12-06T11:31:38Z</time>
      </trkpt>
      <trkpt lat="44.1489" lon="3.20262">
        <ele>819</ele>
        <time>2015-12-06T11:31:39Z</time>
      </trkpt>
      <trkpt lat="44.14892" lon="3.20262">
        <ele>819.5</ele>
        <time>2015-12-06T11:31:40Z</time>
      </trkpt>
      <trkpt lat="44.14893" lon="3.20261">
        <ele>818.5</ele>
        <time>2015-12-06T11:31:41Z</time>
      </trkpt>
      <trkpt lat="44.14894" lon="3.2026">
        <ele>818.5</ele>
        <time>2015-12-06T11:31:42Z</time>
      </trkpt>
      <trkpt lat="44.14895" lon="3.20258">
        <ele>820</ele>
        <time>2015-12-06T11:31:43Z</time>
      </trkpt>
      <trkpt lat="44.14896" lon="3.20255">
        <ele>821</ele>
        <time>2015-12-06T11:31:44Z</time>
      </trkpt>
      <trkpt lat="44.14896" lon="3.20252">
        <ele>822</ele>
        <time>2015-12-06T11:31:45Z</time>
      </trkpt>
      <trkpt lat="44.14897" lon="3.2025">
        <ele>822</ele>
        <time>2015-12-06T11:31:46Z</time>
      </trkpt>
      <trkpt lat="44.14898" lon="3.20248">
        <ele>821.5</ele>
        <time>2015-12-06T11:31:47Z</time>
      </trkpt>
      <trkpt lat="44.14899" lon="3.20246">
        <ele>822.5</ele>
        <time>2015-12-06T11:31:48Z</time>
      </trkpt>
      <trkpt lat="44.149" lon="3.20244">
        <ele>821.5</ele>
        <time>2015-12-06T11:31:49Z</time>
      </trkpt>
      <trkpt lat="44.149" lon="3.20243">
        <ele>821</ele>
        <time>2015-12-06T11:31:50Z</time>
      </trkpt>
      <trkpt lat="44.149" lon="3.20241">
        <ele>821.5</ele>
        <time>2015-12-06T11:31:51Z</time>
      </trkpt>
      <trkpt lat="44.149" lon="3.20239">
        <ele>822</ele>
        <time>2015-12-06T11:31:52Z</time>
      </trkpt>
      <trkpt lat="44.149" lon="3.20237">
        <ele>821.5</ele>
        <time>2015-12-06T11:31:53Z</time>
      </trkpt>
      <trkpt lat="44.149" lon="3.20235">
        <ele>822.5</ele>
        <time>2015-12-06T11:31:54Z</time>
      </trkpt>
      <trkpt lat="44.149" lon="3.20232">
        <ele>822.5</ele>
        <time>2015-12-06T11:31:55Z</time>
      </trkpt>
      <trkpt lat="44.149" lon="3.2023">
        <ele>823</ele>
        <time>2015-12-06T11:31:56Z</time>
      </trkpt>
      <trkpt lat="44.149" lon="3.20228">
        <ele>823</ele>
        <time>2015-12-06T11:31:57Z</time>
      </trkpt>
      <trkpt lat="44.149" lon="3.20225">
        <ele>823</ele>
        <time>2015-12-06T11:31:58Z</time>
      </trkpt>
      <trkpt lat="44.149" lon="3.20222">
        <ele>824.5</ele>
        <time>2015-12-06T11:31:59Z</time>
      </trkpt>
      <trkpt lat="44.149" lon="3.2022">
        <ele>825</ele>
        <time>2015-12-06T11:32:00Z</time>
      </trkpt>
      <trkpt lat="44.149" lon="3.20218">
        <ele>826</ele>
        <time>2015-12-06T11:32:01Z</time>
      </trkpt>
      <trkpt lat="44.14901" lon="3.20216">
        <ele>825</ele>
        <time>2015-12-06T11:32:02Z</time>
      </trkpt>
      <trkpt lat="44.14901" lon="3.20214">
        <ele>824.5</ele>
        <time>2015-12-06T11:32:03Z</time>
      </trkpt>
      <trkpt lat="44.14902" lon="3.20212">
        <ele>824</ele>
        <time>2015-12-06T11:32:04Z</time>
      </trkpt>
      <trkpt lat="44.14903" lon="3.2021">
        <ele>824.5</ele>
        <time>2015-12-06T11:32:05Z</time>
      </trkpt>
      <trkpt lat="44.14904" lon="3.20209">
        <ele>824</ele>
        <time>2015-12-06T11:32:06Z</time>
      </trkpt>
      <trkpt lat="44.14904" lon="3.20206">
        <ele>824.5</ele>
        <time>2015-12-06T11:32:07Z</time>
      </trkpt>
      <trkpt lat="44.14905" lon="3.20204">
        <ele>825</ele>
        <time>2015-12-06T11:32:08Z</time>
      </trkpt>
      <trkpt lat="44.14906" lon="3.20202">
        <ele>824.5</ele>
        <time>2015-12-06T11:32:09Z</time>
      </trkpt>
      <trkpt lat="44.14907" lon="3.202">
        <ele>824</ele>
        <time>2015-12-06T11:32:10Z</time>
      </trkpt>
      <trkpt lat="44.14908" lon="3.20198">
        <ele>824</ele>
        <time>2015-12-06T11:32:11Z</time>
      </trkpt>
      <trkpt lat="44.14909" lon="3.20196">
        <ele>824.5</ele>
        <time>2015-12-06T11:32:12Z</time>
      </trkpt>
      <trkpt lat="44.1491" lon="3.20194">
        <ele>826.5</ele>
        <time>2015-12-06T11:32:13Z</time>
      </trkpt>
      <trkpt lat="44.1491" lon="3.20193">
        <ele>827.5</ele>
        <time>2015-12-06T11:32:14Z</time>
      </trkpt>
      <trkpt lat="44.14911" lon="3.20191">
        <ele>827.5</ele>
        <time>2015-12-06T11:32:15Z</time>
      </trkpt>
      <trkpt lat="44.14911" lon="3.20189">
        <ele>829</ele>
        <time>2015-12-06T11:32:16Z</time>
      </trkpt>
      <trkpt lat="44.14911" lon="3.20187">
        <ele>830</ele>
        <time>2015-12-06T11:32:17Z</time>
      </trkpt>
      <trkpt lat="44.14912" lon="3.20185">
        <ele>829.5</ele>
        <time>2015-12-06T11:32:18Z</time>
      </trkpt>
      <trkpt lat="44.14912" lon="3.20183">
        <ele>830.5</ele>
        <time>2015-12-06T11:32:19Z</time>
      </trkpt>
      <trkpt lat="44.14913" lon="3.20181">
        <ele>830.5</ele>
        <time>2015-12-06T11:32:20Z</time>
      </trkpt>
      <trkpt lat="44.14913" lon="3.20179">
        <ele>831</ele>
        <time>2015-12-06T11:32:21Z</time>
      </trkpt>
      <trkpt lat="44.14914" lon="3.20177">
        <ele>830.5</ele>
        <time>2015-12-06T11:32:22Z</time>
      </trkpt>
      <trkpt lat="44.14914" lon="3.20175">
        <ele>830.5</ele>
        <time>2015-12-06T11:32:23Z</time>
      </trkpt>
      <trkpt lat="44.14915" lon="3.20172">
        <ele>830</ele>
        <time>2015-12-06T11:32:24Z</time>
      </trkpt>
      <trkpt lat="44.14915" lon="3.2017">
        <ele>829</ele>
        <time>2015-12-06T11:32:25Z</time>
      </trkpt>
      <trkpt lat="44.14916" lon="3.20168">
        <ele>828</ele>
        <time>2015-12-06T11:32:26Z</time>
      </trkpt>
      <trkpt lat="44.14916" lon="3.20166">
        <ele>828.5</ele>
        <time>2015-12-06T11:32:27Z</time>
      </trkpt>
      <trkpt lat="44.14916" lon="3.20164">
        <ele>829</ele>
        <time>2015-12-06T11:32:28Z</time>
      </trkpt>
      <trkpt lat="44.14916" lon="3.20162">
        <ele>828.5</ele>
        <time>2015-12-06T11:32:29Z</time>
      </trkpt>
      <trkpt lat="44.14916" lon="3.2016">
        <ele>828.5</ele>
        <time>2015-12-06T11:32:30Z</time>
      </trkpt>
      <trkpt lat="44.14916" lon="3.20158">
        <ele>829</ele>
        <time>2015-12-06T11:32:31Z</time>
      </trkpt>
      <trkpt lat="44.14916" lon="3.20156">
        <ele>830.5</ele>
        <time>2015-12-06T11:32:32Z</time>
      </trkpt>
      <trkpt lat="44.14916" lon="3.20153">
        <ele>830.5</ele>
        <time>2015-12-06T11:32:33Z</time>
      </trkpt>
      <trkpt lat="44.14917" lon="3.20151">
        <ele>830</ele>
        <time>2015-12-06T11:32:34Z</time>
      </trkpt>
      <trkpt lat="44.14917" lon="3.20149">
        <ele>832</ele>
        <time>2015-12-06T11:32:35Z</time>
      </trkpt>
      <trkpt lat="44.14917" lon="3.20147">
        <ele>832</ele>
        <time>2015-12-06T11:32:36Z</time>
      </trkpt>
      <trkpt lat="44.14917" lon="3.20145">
        <ele>832.5</ele>
        <time>2015-12-06T11:32:37Z</time>
      </trkpt>
      <trkpt lat="44.14917" lon="3.20142">
        <ele>833</ele>
        <time>2015-12-06T11:32:38Z</time>
      </trkpt>
      <trkpt lat="44.14918" lon="3.20141">
        <ele>833</ele>
        <time>2015-12-06T11:32:39Z</time>
      </trkpt>
      <trkpt lat="44.14917" lon="3.20139">
        <ele>835</ele>
        <time>2015-12-06T11:32:40Z</time>
      </trkpt>
      <trkpt lat="44.14918" lon="3.20137">
        <ele>835.5</ele>
        <time>2015-12-06T11:32:41Z</time>
      </trkpt>
      <trkpt lat="44.14918" lon="3.20136">
        <ele>835.5</ele>
        <time>2015-12-06T11:32:42Z</time>
      </trkpt>
      <trkpt lat="44.14918" lon="3.20134">
        <ele>835.5</ele>
        <time>2015-12-06T11:32:43Z</time>
      </trkpt>
      <trkpt lat="44.14919" lon="3.20133">
        <ele>836</ele>
        <time>2015-12-06T11:32:44Z</time>
      </trkpt>
      <trkpt lat="44.14919" lon="3.20131">
        <ele>836.5</ele>
        <time>2015-12-06T11:32:45Z</time>
      </trkpt>
      <trkpt lat="44.14919" lon="3.20129">
        <ele>837</ele>
        <time>2015-12-06T11:32:46Z</time>
      </trkpt>
      <trkpt lat="44.14919" lon="3.20127">
        <ele>837</ele>
        <time>2015-12-06T11:32:47Z</time>
      </trkpt>
      <trkpt lat="44.14919" lon="3.20126">
        <ele>837</ele>
        <time>2015-12-06T11:32:48Z</time>
      </trkpt>
      <trkpt lat="44.1492" lon="3.20123">
        <ele>837</ele>
        <time>2015-12-06T11:32:49Z</time>
      </trkpt>
      <trkpt lat="44.1492" lon="3.20122">
        <ele>836.5</ele>
        <time>2015-12-06T11:32:50Z</time>
      </trkpt>
      <trkpt lat="44.1492" lon="3.2012">
        <ele>836.5</ele>
        <time>2015-12-06T11:32:51Z</time>
      </trkpt>
      <trkpt lat="44.1492" lon="3.20118">
        <ele>836.5</ele>
        <time>2015-12-06T11:32:52Z</time>
      </trkpt>
      <trkpt lat="44.1492" lon="3.20117">
        <ele>836</ele>
        <time>2015-12-06T11:32:53Z</time>
      </trkpt>
      <trkpt lat="44.14921" lon="3.20115">
        <ele>836</ele>
        <time>2015-12-06T11:32:54Z</time>
      </trkpt>
      <trkpt lat="44.14921" lon="3.20114">
        <ele>835.5</ele>
        <time>2015-12-06T11:32:55Z</time>
      </trkpt>
      <trkpt lat="44.14921" lon="3.20113">
        <ele>835.5</ele>
        <time>2015-12-06T11:32:56Z</time>
      </trkpt>
      <trkpt lat="44.14921" lon="3.20111">
        <ele>835</ele>
        <time>2015-12-06T11:32:57Z</time>
      </trkpt>
      <trkpt lat="44.14921" lon="3.2011">
        <ele>835</ele>
        <time>2015-12-06T11:32:58Z</time>
      </trkpt>
      <trkpt lat="44.14921" lon="3.20109">
        <ele>834.5</ele>
        <time>2015-12-06T11:32:59Z</time>
      </trkpt>
      <trkpt lat="44.14921" lon="3.20107">
        <ele>835</ele>
        <time>2015-12-06T11:33:00Z</time>
      </trkpt>
      <trkpt lat="44.14921" lon="3.20105">
        <ele>835</ele>
        <time>2015-12-06T11:33:01Z</time>
      </trkpt>
      <trkpt lat="44.14921" lon="3.20104">
        <ele>834.5</ele>
        <time>2015-12-06T11:33:02Z</time>
      </trkpt>
      <trkpt lat="44.14921" lon="3.20102">
        <ele>834.5</ele>
        <time>2015-12-06T11:33:03Z</time>
      </trkpt>
      <trkpt lat="44.14921" lon="3.20101">
        <ele>834</ele>
        <time>2015-12-06T11:33:04Z</time>
      </trkpt>
      <trkpt lat="44.1492" lon="3.20099">
        <ele>834</ele>
        <time>2015-12-06T11:33:05Z</time>
      </trkpt>
      <trkpt lat="44.1492" lon="3.20098">
        <ele>834</ele>
        <time>2015-12-06T11:33:06Z</time>
      </trkpt>
      <trkpt lat="44.1492" lon="3.20096">
        <ele>834</ele>
        <time>2015-12-06T11:33:07Z</time>
      </trkpt>
      <trkpt lat="44.1492" lon="3.20095">
        <ele>834</ele>
        <time>2015-12-06T11:33:08Z</time>
      </trkpt>
      <trkpt lat="44.1492" lon="3.20094">
        <ele>834</ele>
        <time>2015-12-06T11:33:09Z</time>
      </trkpt>
      <trkpt lat="44.1492" lon="3.20092">
        <ele>834.5</ele>
        <time>2015-12-06T11:33:10Z</time>
      </trkpt>
      <trkpt lat="44.1492" lon="3.2009">
        <ele>834.5</ele>
        <time>2015-12-06T11:33:11Z</time>
      </trkpt>
      <trkpt lat="44.1492" lon="3.20088">
        <ele>834.5</ele>
        <time>2015-12-06T11:33:12Z</time>
      </trkpt>
      <trkpt lat="44.14921" lon="3.20086">
        <ele>834.5</ele>
        <time>2015-12-06T11:33:13Z</time>
      </trkpt>
      <trkpt lat="44.14921" lon="3.20084">
        <ele>835</ele>
        <time>2015-12-06T11:33:14Z</time>
      </trkpt>
      <trkpt lat="44.14921" lon="3.20083">
        <ele>835.5</ele>
        <time>2015-12-06T11:33:15Z</time>
      </trkpt>
      <trkpt lat="44.14921" lon="3.20081">
        <ele>835.5</ele>
        <time>2015-12-06T11:33:16Z</time>
      </trkpt>
      <trkpt lat="44.14921" lon="3.2008">
        <ele>835.5</ele>
        <time>2015-12-06T11:33:17Z</time>
      </trkpt>
      <trkpt lat="44.14921" lon="3.20078">
        <ele>835</ele>
        <time>2015-12-06T11:33:18Z</time>
      </trkpt>
      <trkpt lat="44.14921" lon="3.20076">
        <ele>835</ele>
        <time>2015-12-06T11:33:19Z</time>
      </trkpt>
      <trkpt lat="44.14921" lon="3.20075">
        <ele>835.5</ele>
        <time>2015-12-06T11:33:20Z</time>
      </trkpt>
      <trkpt lat="44.1492" lon="3.20073">
        <ele>835.5</ele>
        <time>2015-12-06T11:33:21Z</time>
      </trkpt>
      <trkpt lat="44.1492" lon="3.20073">
        <ele>835.5</ele>
        <time>2015-12-06T11:33:22Z</time>
      </trkpt>
      <trkpt lat="44.1492" lon="3.20071">
        <ele>834.5</ele>
        <time>2015-12-06T11:33:27Z</time>
      </trkpt>
      <trkpt lat="44.1492" lon="3.2007">
        <ele>835</ele>
        <time>2015-12-06T11:33:28Z</time>
      </trkpt>
      <trkpt lat="44.1492" lon="3.20069">
        <ele>834.5</ele>
        <time>2015-12-06T11:33:29Z</time>
      </trkpt>
      <trkpt lat="44.14919" lon="3.20069">
        <ele>835</ele>
        <time>2015-12-06T11:33:30Z</time>
      </trkpt>
      <trkpt lat="44.14919" lon="3.20069">
        <ele>835.5</ele>
        <time>2015-12-06T11:33:31Z</time>
      </trkpt>
      <trkpt lat="44.14918" lon="3.20068">
        <ele>836</ele>
        <time>2015-12-06T11:33:32Z</time>
      </trkpt>
      <trkpt lat="44.14918" lon="3.20067">
        <ele>836</ele>
        <time>2015-12-06T11:33:33Z</time>
      </trkpt>
      <trkpt lat="44.14918" lon="3.20066">
        <ele>836</ele>
        <time>2015-12-06T11:33:34Z</time>
      </trkpt>
      <trkpt lat="44.14918" lon="3.20065">
        <ele>836.5</ele>
        <time>2015-12-06T11:33:35Z</time>
      </trkpt>
      <trkpt lat="44.14918" lon="3.20065">
        <ele>837</ele>
        <time>2015-12-06T11:33:36Z</time>
      </trkpt>
      <trkpt lat="44.14918" lon="3.20064">
        <ele>837</ele>
        <time>2015-12-06T11:33:37Z</time>
      </trkpt>
      <trkpt lat="44.14918" lon="3.20063">
        <ele>837</ele>
        <time>2015-12-06T11:33:38Z</time>
      </trkpt>
      <trkpt lat="44.14918" lon="3.20062">
        <ele>837.5</ele>
        <time>2015-12-06T11:33:39Z</time>
      </trkpt>
      <trkpt lat="44.14917" lon="3.20061">
        <ele>837</ele>
        <time>2015-12-06T11:33:40Z</time>
      </trkpt>
      <trkpt lat="44.14918" lon="3.2006">
        <ele>837.5</ele>
        <time>2015-12-06T11:33:41Z</time>
      </trkpt>
      <trkpt lat="44.14918" lon="3.20059">
        <ele>837</ele>
        <time>2015-12-06T11:33:42Z</time>
      </trkpt>
      <trkpt lat="44.14918" lon="3.20057">
        <ele>837.5</ele>
        <time>2015-12-06T11:33:45Z</time>
      </trkpt>
      <trkpt lat="44.14918" lon="3.20056">
        <ele>838.5</ele>
        <time>2015-12-06T11:33:47Z</time>
      </trkpt>
      <trkpt lat="44.14918" lon="3.20055">
        <ele>838.5</ele>
        <time>2015-12-06T11:33:48Z</time>
      </trkpt>
      <trkpt lat="44.14918" lon="3.20054">
        <ele>838.5</ele>
        <time>2015-12-06T11:33:49Z</time>
      </trkpt>
      <trkpt lat="44.14918" lon="3.20054">
        <ele>839</ele>
        <time>2015-12-06T11:33:59Z</time>
      </trkpt>
      <trkpt lat="44.14917" lon="3.20053">
        <ele>839.5</ele>
        <time>2015-12-06T11:34:00Z</time>
      </trkpt>
      <trkpt lat="44.14917" lon="3.20053">
        <ele>840</ele>
        <time>2015-12-06T11:34:01Z</time>
      </trkpt>
      <trkpt lat="44.14917" lon="3.20052">
        <ele>840.5</ele>
        <time>2015-12-06T11:34:02Z</time>
      </trkpt>
      <trkpt lat="44.14916" lon="3.20051">
        <ele>841.5</ele>
        <time>2015-12-06T11:34:03Z</time>
      </trkpt>
      <trkpt lat="44.14916" lon="3.20051">
        <ele>841.5</ele>
        <time>2015-12-06T11:34:04Z</time>
      </trkpt>
      <trkpt lat="44.14916" lon="3.2005">
        <ele>841.5</ele>
        <time>2015-12-06T11:34:05Z</time>
      </trkpt>
      <trkpt lat="44.14915" lon="3.20049">
        <ele>842</ele>
        <time>2015-12-06T11:34:06Z</time>
      </trkpt>
      <trkpt lat="44.14915" lon="3.20048">
        <ele>842</ele>
        <time>2015-12-06T11:34:07Z</time>
      </trkpt>
      <trkpt lat="44.14915" lon="3.20047">
        <ele>842</ele>
        <time>2015-12-06T11:34:08Z</time>
      </trkpt>
      <trkpt lat="44.14915" lon="3.20046">
        <ele>842</ele>
        <time>2015-12-06T11:34:08Z</time>
      </trkpt>
      <trkpt lat="44.14915" lon="3.20045">
        <ele>842.5</ele>
        <time>2015-12-06T11:34:09Z</time>
      </trkpt>
      <trkpt lat="44.14915" lon="3.20044">
        <ele>842.5</ele>
        <time>2015-12-06T11:34:10Z</time>
      </trkpt>
      <trkpt lat="44.14914" lon="3.20043">
        <ele>842.5</ele>
        <time>2015-12-06T11:34:11Z</time>
      </trkpt>
      <trkpt lat="44.14914" lon="3.20042">
        <ele>843.5</ele>
        <time>2015-12-06T11:34:12Z</time>
      </trkpt>
      <trkpt lat="44.14914" lon="3.20041">
        <ele>844</ele>
        <time>2015-12-06T11:34:13Z</time>
      </trkpt>
      <trkpt lat="44.14914" lon="3.2004">
        <ele>844</ele>
        <time>2015-12-06T11:34:14Z</time>
      </trkpt>
      <trkpt lat="44.14914" lon="3.20039">
        <ele>844</ele>
        <time>2015-12-06T11:34:15Z</time>
      </trkpt>
      <trkpt lat="44.14914" lon="3.20038">
        <ele>844.5</ele>
        <time>2015-12-06T11:34:16Z</time>
      </trkpt>
      <trkpt lat="44.14913" lon="3.20037">
        <ele>844.5</ele>
        <time>2015-12-06T11:34:17Z</time>
      </trkpt>
      <trkpt lat="44.14913" lon="3.20036">
        <ele>845</ele>
        <time>2015-12-06T11:34:18Z</time>
      </trkpt>
      <trkpt lat="44.14912" lon="3.20035">
        <ele>845</ele>
        <time>2015-12-06T11:34:19Z</time>
      </trkpt>
      <trkpt lat="44.14912" lon="3.20035">
        <ele>845</ele>
        <time>2015-12-06T11:34:20Z</time>
      </trkpt>
      <trkpt lat="44.14912" lon="3.20034">
        <ele>845.5</ele>
        <time>2015-12-06T11:34:21Z</time>
      </trkpt>
      <trkpt lat="44.14912" lon="3.20033">
        <ele>845.5</ele>
        <time>2015-12-06T11:34:22Z</time>
      </trkpt>
      <trkpt lat="44.14912" lon="3.20032">
        <ele>845.5</ele>
        <time>2015-12-06T11:34:23Z</time>
      </trkpt>
      <trkpt lat="44.14912" lon="3.20031">
        <ele>845.5</ele>
        <time>2015-12-06T11:34:24Z</time>
      </trkpt>
      <trkpt lat="44.14912" lon="3.2003">
        <ele>846</ele>
        <time>2015-12-06T11:34:25Z</time>
      </trkpt>
      <trkpt lat="44.14911" lon="3.2003">
        <ele>846</ele>
        <time>2015-12-06T11:34:26Z</time>
      </trkpt>
      <trkpt lat="44.14911" lon="3.20029">
        <ele>846</ele>
        <time>2015-12-06T11:34:27Z</time>
      </trkpt>
      <trkpt lat="44.1491" lon="3.20028">
        <ele>846.5</ele>
        <time>2015-12-06T11:34:28Z</time>
      </trkpt>
      <trkpt lat="44.1491" lon="3.20027">
        <ele>847</ele>
        <time>2015-12-06T11:34:29Z</time>
      </trkpt>
      <trkpt lat="44.14909" lon="3.20027">
        <ele>846.5</ele>
        <time>2015-12-06T11:34:30Z</time>
      </trkpt>
      <trkpt lat="44.14908" lon="3.20026">
        <ele>847</ele>
        <time>2015-12-06T11:34:31Z</time>
      </trkpt>
      <trkpt lat="44.14908" lon="3.20025">
        <ele>847.5</ele>
        <time>2015-12-06T11:34:32Z</time>
      </trkpt>
      <trkpt lat="44.14908" lon="3.20024">
        <ele>847.5</ele>
        <time>2015-12-06T11:34:33Z</time>
      </trkpt>
      <trkpt lat="44.14908" lon="3.20023">
        <ele>847</ele>
        <time>2015-12-06T11:34:34Z</time>
      </trkpt>
      <trkpt lat="44.14907" lon="3.20022">
        <ele>847.5</ele>
        <time>2015-12-06T11:34:35Z</time>
      </trkpt>
      <trkpt lat="44.14907" lon="3.20021">
        <ele>847.5</ele>
        <time>2015-12-06T11:34:36Z</time>
      </trkpt>
      <trkpt lat="44.14907" lon="3.20021">
        <ele>847</ele>
        <time>2015-12-06T11:34:37Z</time>
      </trkpt>
      <trkpt lat="44.14907" lon="3.2002">
        <ele>847</ele>
        <time>2015-12-06T11:34:38Z</time>
      </trkpt>
      <trkpt lat="44.14907" lon="3.20019">
        <ele>847</ele>
        <time>2015-12-06T11:34:39Z</time>
      </trkpt>
      <trkpt lat="44.14907" lon="3.20018">
        <ele>846.5</ele>
        <time>2015-12-06T11:34:40Z</time>
      </trkpt>
      <trkpt lat="44.14907" lon="3.20016">
        <ele>846.5</ele>
        <time>2015-12-06T11:34:41Z</time>
      </trkpt>
      <trkpt lat="44.14906" lon="3.20015">
        <ele>846.5</ele>
        <time>2015-12-06T11:34:42Z</time>
      </trkpt>
      <trkpt lat="44.14906" lon="3.20014">
        <ele>846.5</ele>
        <time>2015-12-06T11:34:43Z</time>
      </trkpt>
      <trkpt lat="44.14906" lon="3.20014">
        <ele>847</ele>
        <time>2015-12-06T11:34:44Z</time>
      </trkpt>
      <trkpt lat="44.14905" lon="3.20013">
        <ele>847.5</ele>
        <time>2015-12-06T11:34:45Z</time>
      </trkpt>
      <trkpt lat="44.14905" lon="3.20012">
        <ele>847.5</ele>
        <time>2015-12-06T11:34:46Z</time>
      </trkpt>
      <trkpt lat="44.14905" lon="3.20011">
        <ele>847.5</ele>
        <time>2015-12-06T11:34:47Z</time>
      </trkpt>
      <trkpt lat="44.14904" lon="3.20011">
        <ele>847.5</ele>
        <time>2015-12-06T11:34:48Z</time>
      </trkpt>
      <trkpt lat="44.14904" lon="3.2001">
        <ele>848</ele>
        <time>2015-12-06T11:34:49Z</time>
      </trkpt>
      <trkpt lat="44.14904" lon="3.20009">
        <ele>848</ele>
        <time>2015-12-06T11:34:50Z</time>
      </trkpt>
      <trkpt lat="44.14904" lon="3.20009">
        <ele>848</ele>
        <time>2015-12-06T11:34:51Z</time>
      </trkpt>
      <trkpt lat="44.14903" lon="3.20008">
        <ele>847.5</ele>
        <time>2015-12-06T11:34:52Z</time>
      </trkpt>
      <trkpt lat="44.14903" lon="3.20007">
        <ele>847.5</ele>
        <time>2015-12-06T11:34:53Z</time>
      </trkpt>
      <trkpt lat="44.14903" lon="3.20006">
        <ele>847.5</ele>
        <time>2015-12-06T11:34:54Z</time>
      </trkpt>
      <trkpt lat="44.14903" lon="3.20006">
        <ele>847.5</ele>
        <time>2015-12-06T11:34:55Z</time>
      </trkpt>
      <trkpt lat="44.14902" lon="3.20005">
        <ele>847.5</ele>
        <time>2015-12-06T11:34:56Z</time>
      </trkpt>
      <trkpt lat="44.14902" lon="3.20004">
        <ele>847.5</ele>
        <time>2015-12-06T11:34:57Z</time>
      </trkpt>
      <trkpt lat="44.14902" lon="3.20003">
        <ele>847.5</ele>
        <time>2015-12-06T11:34:58Z</time>
      </trkpt>
      <trkpt lat="44.14901" lon="3.20002">
        <ele>847.5</ele>
        <time>2015-12-06T11:34:59Z</time>
      </trkpt>
      <trkpt lat="44.149" lon="3.20001">
        <ele>847.5</ele>
        <time>2015-12-06T11:35:00Z</time>
      </trkpt>
      <trkpt lat="44.149" lon="3.20001">
        <ele>847.5</ele>
        <time>2015-12-06T11:35:01Z</time>
      </trkpt>
      <trkpt lat="44.14899" lon="3.2">
        <ele>847.5</ele>
        <time>2015-12-06T11:35:02Z</time>
      </trkpt>
      <trkpt lat="44.14899" lon="3.19999">
        <ele>848</ele>
        <time>2015-12-06T11:35:03Z</time>
      </trkpt>
      <trkpt lat="44.14898" lon="3.19999">
        <ele>848</ele>
        <time>2015-12-06T11:35:04Z</time>
      </trkpt>
      <trkpt lat="44.14898" lon="3.19998">
        <ele>848.5</ele>
        <time>2015-12-06T11:35:05Z</time>
      </trkpt>
      <trkpt lat="44.14897" lon="3.19997">
        <ele>849</ele>
        <time>2015-12-06T11:35:06Z</time>
      </trkpt>
      <trkpt lat="44.14897" lon="3.19997">
        <ele>849</ele>
        <time>2015-12-06T11:35:07Z</time>
      </trkpt>
      <trkpt lat="44.14897" lon="3.19996">
        <ele>849.5</ele>
        <time>2015-12-06T11:35:08Z</time>
      </trkpt>
      <trkpt lat="44.14896" lon="3.19996">
        <ele>849.5</ele>
        <time>2015-12-06T11:35:09Z</time>
      </trkpt>
      <trkpt lat="44.14896" lon="3.19995">
        <ele>849.5</ele>
        <time>2015-12-06T11:35:10Z</time>
      </trkpt>
      <trkpt lat="44.14895" lon="3.19994">
        <ele>849.5</ele>
        <time>2015-12-06T11:35:11Z</time>
      </trkpt>
      <trkpt lat="44.14894" lon="3.19994">
        <ele>850</ele>
        <time>2015-12-06T11:35:12Z</time>
      </trkpt>
      <trkpt lat="44.14894" lon="3.19993">
        <ele>850</ele>
        <time>2015-12-06T11:35:13Z</time>
      </trkpt>
      <trkpt lat="44.14893" lon="3.19992">
        <ele>850</ele>
        <time>2015-12-06T11:35:14Z</time>
      </trkpt>
      <trkpt lat="44.14893" lon="3.19992">
        <ele>850</ele>
        <time>2015-12-06T11:35:15Z</time>
      </trkpt>
      <trkpt lat="44.14892" lon="3.19991">
        <ele>850.5</ele>
        <time>2015-12-06T11:35:16Z</time>
      </trkpt>
      <trkpt lat="44.14891" lon="3.1999">
        <ele>851</ele>
        <time>2015-12-06T11:35:17Z</time>
      </trkpt>
      <trkpt lat="44.14891" lon="3.1999">
        <ele>851.5</ele>
        <time>2015-12-06T11:35:18Z</time>
      </trkpt>
      <trkpt lat="44.14891" lon="3.19989">
        <ele>851.5</ele>
        <time>2015-12-06T11:35:19Z</time>
      </trkpt>
      <trkpt lat="44.14891" lon="3.19988">
        <ele>851</ele>
        <time>2015-12-06T11:35:20Z</time>
      </trkpt>
      <trkpt lat="44.1489" lon="3.19987">
        <ele>850.5</ele>
        <time>2015-12-06T11:35:26Z</time>
      </trkpt>
      <trkpt lat="44.1489" lon="3.19987">
        <ele>850.5</ele>
        <time>2015-12-06T11:35:28Z</time>
      </trkpt>
      <trkpt lat="44.1489" lon="3.19987">
        <ele>850.5</ele>
        <time>2015-12-06T11:35:29Z</time>
      </trkpt>
      <trkpt lat="44.14889" lon="3.19986">
        <ele>851</ele>
        <time>2015-12-06T11:35:30Z</time>
      </trkpt>
      <trkpt lat="44.14889" lon="3.19986">
        <ele>851.5</ele>
        <time>2015-12-06T11:35:31Z</time>
      </trkpt>
      <trkpt lat="44.1489" lon="3.19986">
        <ele>850.5</ele>
        <time>2015-12-06T11:36:03Z</time>
      </trkpt>
      <trkpt lat="44.1489" lon="3.19986">
        <ele>849</ele>
        <time>2015-12-06T11:36:05Z</time>
      </trkpt>
      <trkpt lat="44.1489" lon="3.19985">
        <ele>848</ele>
        <time>2015-12-06T11:36:06Z</time>
      </trkpt>
      <trkpt lat="44.1489" lon="3.19984">
        <ele>848.5</ele>
        <time>2015-12-06T11:36:07Z</time>
      </trkpt>
      <trkpt lat="44.14889" lon="3.19983">
        <ele>850</ele>
        <time>2015-12-06T11:36:08Z</time>
      </trkpt>
      <trkpt lat="44.14887" lon="3.19981">
        <ele>851</ele>
        <time>2015-12-06T11:36:09Z</time>
      </trkpt>
      <trkpt lat="44.14886" lon="3.19979">
        <ele>851.5</ele>
        <time>2015-12-06T11:36:10Z</time>
      </trkpt>
      <trkpt lat="44.14884" lon="3.19976">
        <ele>852</ele>
        <time>2015-12-06T11:36:11Z</time>
      </trkpt>
      <trkpt lat="44.14882" lon="3.19973">
        <ele>852</ele>
        <time>2015-12-06T11:36:12Z</time>
      </trkpt>
      <trkpt lat="44.1488" lon="3.19969">
        <ele>852</ele>
        <time>2015-12-06T11:36:13Z</time>
      </trkpt>
      <trkpt lat="44.14878" lon="3.19965">
        <ele>851.5</ele>
        <time>2015-12-06T11:36:14Z</time>
      </trkpt>
      <trkpt lat="44.14875" lon="3.1996">
        <ele>851.5</ele>
        <time>2015-12-06T11:36:15Z</time>
      </trkpt>
      <trkpt lat="44.14871" lon="3.19957">
        <ele>851</ele>
        <time>2015-12-06T11:36:16Z</time>
      </trkpt>
      <trkpt lat="44.14867" lon="3.19953">
        <ele>849.5</ele>
        <time>2015-12-06T11:36:17Z</time>
      </trkpt>
      <trkpt lat="44.14865" lon="3.19949">
        <ele>849.5</ele>
        <time>2015-12-06T11:36:18Z</time>
      </trkpt>
      <trkpt lat="44.14862" lon="3.19946">
        <ele>851.5</ele>
        <time>2015-12-06T11:36:19Z</time>
      </trkpt>
      <trkpt lat="44.14859" lon="3.19943">
        <ele>851.5</ele>
        <time>2015-12-06T11:36:20Z</time>
      </trkpt>
      <trkpt lat="44.14856" lon="3.19942">
        <ele>853.5</ele>
        <time>2015-12-06T11:36:21Z</time>
      </trkpt>
      <trkpt lat="44.14853" lon="3.19942">
        <ele>855.5</ele>
        <time>2015-12-06T11:36:22Z</time>
      </trkpt>
      <trkpt lat="44.14852" lon="3.19944">
        <ele>856.5</ele>
        <time>2015-12-06T11:36:23Z</time>
      </trkpt>
      <trkpt lat="44.1485" lon="3.19944">
        <ele>857</ele>
        <time>2015-12-06T11:36:24Z</time>
      </trkpt>
      <trkpt lat="44.14848" lon="3.19943">
        <ele>857.5</ele>
        <time>2015-12-06T11:36:25Z</time>
      </trkpt>
      <trkpt lat="44.14846" lon="3.19943">
        <ele>857.5</ele>
        <time>2015-12-06T11:36:26Z</time>
      </trkpt>
      <trkpt lat="44.14844" lon="3.19942">
        <ele>860</ele>
        <time>2015-12-06T11:36:27Z</time>
      </trkpt>
      <trkpt lat="44.14842" lon="3.19942">
        <ele>862.5</ele>
        <time>2015-12-06T11:36:28Z</time>
      </trkpt>
      <trkpt lat="44.1484" lon="3.19941">
        <ele>863</ele>
        <time>2015-12-06T11:36:29Z</time>
      </trkpt>
      <trkpt lat="44.14838" lon="3.1994">
        <ele>863</ele>
        <time>2015-12-06T11:36:30Z</time>
      </trkpt>
      <trkpt lat="44.14836" lon="3.19939">
        <ele>863.5</ele>
        <time>2015-12-06T11:36:31Z</time>
      </trkpt>
      <trkpt lat="44.14835" lon="3.19938">
        <ele>864</ele>
        <time>2015-12-06T11:36:32Z</time>
      </trkpt>
      <trkpt lat="44.14833" lon="3.19937">
        <ele>864.5</ele>
        <time>2015-12-06T11:36:33Z</time>
      </trkpt>
      <trkpt lat="44.14832" lon="3.19936">
        <ele>864.5</ele>
        <time>2015-12-06T11:36:34Z</time>
      </trkpt>
      <trkpt lat="44.1483" lon="3.19935">
        <ele>865</ele>
        <time>2015-12-06T11:36:35Z</time>
      </trkpt>
      <trkpt lat="44.14829" lon="3.19935">
        <ele>864.5</ele>
        <time>2015-12-06T11:36:36Z</time>
      </trkpt>
      <trkpt lat="44.14827" lon="3.19935">
        <ele>865</ele>
        <time>2015-12-06T11:36:37Z</time>
      </trkpt>
      <trkpt lat="44.14825" lon="3.19936">
        <ele>865.5</ele>
        <time>2015-12-06T11:36:38Z</time>
      </trkpt>
      <trkpt lat="44.14824" lon="3.19937">
        <ele>865</ele>
        <time>2015-12-06T11:36:39Z</time>
      </trkpt>
      <trkpt lat="44.14823" lon="3.19938">
        <ele>867</ele>
        <time>2015-12-06T11:36:40Z</time>
      </trkpt>
      <trkpt lat="44.14822" lon="3.19938">
        <ele>867.5</ele>
        <time>2015-12-06T11:36:41Z</time>
      </trkpt>
      <trkpt lat="44.1482" lon="3.19938">
        <ele>867</ele>
        <time>2015-12-06T11:36:42Z</time>
      </trkpt>
      <trkpt lat="44.14818" lon="3.19939">
        <ele>868.5</ele>
        <time>2015-12-06T11:36:43Z</time>
      </trkpt>
      <trkpt lat="44.14816" lon="3.19939">
        <ele>870.5</ele>
        <time>2015-12-06T11:36:44Z</time>
      </trkpt>
      <trkpt lat="44.14815" lon="3.19938">
        <ele>869</ele>
        <time>2015-12-06T11:36:45Z</time>
      </trkpt>
      <trkpt lat="44.14813" lon="3.19937">
        <ele>868</ele>
        <time>2015-12-06T11:36:46Z</time>
      </trkpt>
      <trkpt lat="44.14812" lon="3.19936">
        <ele>867.5</ele>
        <time>2015-12-06T11:36:47Z</time>
      </trkpt>
      <trkpt lat="44.14811" lon="3.19935">
        <ele>867.5</ele>
        <time>2015-12-06T11:36:48Z</time>
      </trkpt>
      <trkpt lat="44.14809" lon="3.19935">
        <ele>868</ele>
        <time>2015-12-06T11:36:49Z</time>
      </trkpt>
      <trkpt lat="44.14808" lon="3.19934">
        <ele>868</ele>
        <time>2015-12-06T11:36:50Z</time>
      </trkpt>
      <trkpt lat="44.14807" lon="3.19933">
        <ele>868</ele>
        <time>2015-12-06T11:36:51Z</time>
      </trkpt>
      <trkpt lat="44.14806" lon="3.19931">
        <ele>867.5</ele>
        <time>2015-12-06T11:36:52Z</time>
      </trkpt>
      <trkpt lat="44.14805" lon="3.19929">
        <ele>866.5</ele>
        <time>2015-12-06T11:36:53Z</time>
      </trkpt>
      <trkpt lat="44.14805" lon="3.19927">
        <ele>866</ele>
        <time>2015-12-06T11:36:54Z</time>
      </trkpt>
      <trkpt lat="44.14805" lon="3.19925">
        <ele>864.5</ele>
        <time>2015-12-06T11:36:55Z</time>
      </trkpt>
      <trkpt lat="44.14804" lon="3.19923">
        <ele>865</ele>
        <time>2015-12-06T11:36:56Z</time>
      </trkpt>
      <trkpt lat="44.14803" lon="3.19921">
        <ele>865</ele>
        <time>2015-12-06T11:36:57Z</time>
      </trkpt>
      <trkpt lat="44.14802" lon="3.1992">
        <ele>865.5</ele>
        <time>2015-12-06T11:36:58Z</time>
      </trkpt>
      <trkpt lat="44.14801" lon="3.19919">
        <ele>866</ele>
        <time>2015-12-06T11:36:59Z</time>
      </trkpt>
      <trkpt lat="44.148" lon="3.19918">
        <ele>866.5</ele>
        <time>2015-12-06T11:37:00Z</time>
      </trkpt>
      <trkpt lat="44.14799" lon="3.19916">
        <ele>866</ele>
        <time>2015-12-06T11:37:01Z</time>
      </trkpt>
      <trkpt lat="44.14798" lon="3.19914">
        <ele>866</ele>
        <time>2015-12-06T11:37:02Z</time>
      </trkpt>
      <trkpt lat="44.14798" lon="3.19911">
        <ele>865.5</ele>
        <time>2015-12-06T11:37:03Z</time>
      </trkpt>
      <trkpt lat="44.14798" lon="3.19909">
        <ele>865.5</ele>
        <time>2015-12-06T11:37:04Z</time>
      </trkpt>
      <trkpt lat="44.14797" lon="3.19908">
        <ele>865</ele>
        <time>2015-12-06T11:37:05Z</time>
      </trkpt>
      <trkpt lat="44.14796" lon="3.19906">
        <ele>865.5</ele>
        <time>2015-12-06T11:37:06Z</time>
      </trkpt>
      <trkpt lat="44.14794" lon="3.19907">
        <ele>866</ele>
        <time>2015-12-06T11:37:07Z</time>
      </trkpt>
      <trkpt lat="44.14793" lon="3.19906">
        <ele>866.5</ele>
        <time>2015-12-06T11:37:08Z</time>
      </trkpt>
      <trkpt lat="44.14792" lon="3.19905">
        <ele>866.5</ele>
        <time>2015-12-06T11:37:09Z</time>
      </trkpt>
      <trkpt lat="44.1479" lon="3.19904">
        <ele>866.5</ele>
        <time>2015-12-06T11:37:10Z</time>
      </trkpt>
      <trkpt lat="44.14789" lon="3.19904">
        <ele>866.5</ele>
        <time>2015-12-06T11:37:11Z</time>
      </trkpt>
      <trkpt lat="44.14787" lon="3.19903">
        <ele>867.5</ele>
        <time>2015-12-06T11:37:12Z</time>
      </trkpt>
      <trkpt lat="44.14786" lon="3.19902">
        <ele>867.5</ele>
        <time>2015-12-06T11:37:13Z</time>
      </trkpt>
      <trkpt lat="44.14784" lon="3.19901">
        <ele>867.5</ele>
        <time>2015-12-06T11:37:14Z</time>
      </trkpt>
      <trkpt lat="44.14783" lon="3.19901">
        <ele>868</ele>
        <time>2015-12-06T11:37:15Z</time>
      </trkpt>
      <trkpt lat="44.14782" lon="3.19901">
        <ele>869</ele>
        <time>2015-12-06T11:37:16Z</time>
      </trkpt>
      <trkpt lat="44.14781" lon="3.199">
        <ele>869</ele>
        <time>2015-12-06T11:37:17Z</time>
      </trkpt>
      <trkpt lat="44.1478" lon="3.199">
        <ele>871.5</ele>
        <time>2015-12-06T11:37:18Z</time>
      </trkpt>
      <trkpt lat="44.14779" lon="3.19898">
        <ele>871.5</ele>
        <time>2015-12-06T11:37:19Z</time>
      </trkpt>
      <trkpt lat="44.14778" lon="3.19896">
        <ele>871</ele>
        <time>2015-12-06T11:37:20Z</time>
      </trkpt>
      <trkpt lat="44.14777" lon="3.19895">
        <ele>871.5</ele>
        <time>2015-12-06T11:37:21Z</time>
      </trkpt>
      <trkpt lat="44.14777" lon="3.19894">
        <ele>871</ele>
        <time>2015-12-06T11:37:22Z</time>
      </trkpt>
      <trkpt lat="44.14776" lon="3.19893">
        <ele>871.5</ele>
        <time>2015-12-06T11:37:24Z</time>
      </trkpt>
      <trkpt lat="44.14776" lon="3.19893">
        <ele>871</ele>
        <time>2015-12-06T11:37:25Z</time>
      </trkpt>
      <trkpt lat="44.14776" lon="3.19892">
        <ele>871</ele>
        <time>2015-12-06T11:37:27Z</time>
      </trkpt>
      <trkpt lat="44.14776" lon="3.19891">
        <ele>871</ele>
        <time>2015-12-06T11:37:28Z</time>
      </trkpt>
      <trkpt lat="44.14775" lon="3.1989">
        <ele>870.5</ele>
        <time>2015-12-06T11:37:29Z</time>
      </trkpt>
      <trkpt lat="44.14774" lon="3.19889">
        <ele>871.5</ele>
        <time>2015-12-06T11:37:30Z</time>
      </trkpt>
      <trkpt lat="44.14774" lon="3.19889">
        <ele>871.5</ele>
        <time>2015-12-06T11:37:31Z</time>
      </trkpt>
      <trkpt lat="44.14773" lon="3.19888">
        <ele>871.5</ele>
        <time>2015-12-06T11:37:32Z</time>
      </trkpt>
      <trkpt lat="44.14772" lon="3.19888">
        <ele>871.5</ele>
        <time>2015-12-06T11:37:33Z</time>
      </trkpt>
      <trkpt lat="44.14771" lon="3.19887">
        <ele>871.5</ele>
        <time>2015-12-06T11:37:34Z</time>
      </trkpt>
      <trkpt lat="44.1477" lon="3.19886">
        <ele>871</ele>
        <time>2015-12-06T11:37:35Z</time>
      </trkpt>
      <trkpt lat="44.14769" lon="3.19884">
        <ele>871</ele>
        <time>2015-12-06T11:37:36Z</time>
      </trkpt>
      <trkpt lat="44.14768" lon="3.19883">
        <ele>871</ele>
        <time>2015-12-06T11:37:37Z</time>
      </trkpt>
      <trkpt lat="44.14767" lon="3.19882">
        <ele>871</ele>
        <time>2015-12-06T11:37:38Z</time>
      </trkpt>
      <trkpt lat="44.14766" lon="3.19881">
        <ele>871</ele>
        <time>2015-12-06T11:37:39Z</time>
      </trkpt>
      <trkpt lat="44.14765" lon="3.1988">
        <ele>871</ele>
        <time>2015-12-06T11:37:40Z</time>
      </trkpt>
      <trkpt lat="44.14764" lon="3.19879">
        <ele>871</ele>
        <time>2015-12-06T11:37:41Z</time>
      </trkpt>
      <trkpt lat="44.14763" lon="3.19879">
        <ele>871</ele>
        <time>2015-12-06T11:37:42Z</time>
      </trkpt>
      <trkpt lat="44.14762" lon="3.19878">
        <ele>871</ele>
        <time>2015-12-06T11:37:43Z</time>
      </trkpt>
      <trkpt lat="44.14761" lon="3.19878">
        <ele>871</ele>
        <time>2015-12-06T11:37:44Z</time>
      </trkpt>
      <trkpt lat="44.1476" lon="3.19878">
        <ele>872</ele>
        <time>2015-12-06T11:37:45Z</time>
      </trkpt>
      <trkpt lat="44.14759" lon="3.19877">
        <ele>872</ele>
        <time>2015-12-06T11:37:46Z</time>
      </trkpt>
      <trkpt lat="44.14758" lon="3.19877">
        <ele>872</ele>
        <time>2015-12-06T11:37:47Z</time>
      </trkpt>
      <trkpt lat="44.14757" lon="3.19876">
        <ele>872</ele>
        <time>2015-12-06T11:37:48Z</time>
      </trkpt>
      <trkpt lat="44.14756" lon="3.19876">
        <ele>872</ele>
        <time>2015-12-06T11:37:49Z</time>
      </trkpt>
      <trkpt lat="44.14755" lon="3.19875">
        <ele>872</ele>
        <time>2015-12-06T11:37:50Z</time>
      </trkpt>
      <trkpt lat="44.14754" lon="3.19876">
        <ele>873.5</ele>
        <time>2015-12-06T11:37:51Z</time>
      </trkpt>
      <trkpt lat="44.14754" lon="3.19876">
        <ele>873</ele>
        <time>2015-12-06T11:37:52Z</time>
      </trkpt>
      <trkpt lat="44.14753" lon="3.19875">
        <ele>872.5</ele>
        <time>2015-12-06T11:37:53Z</time>
      </trkpt>
      <trkpt lat="44.14753" lon="3.19874">
        <ele>872</ele>
        <time>2015-12-06T11:37:54Z</time>
      </trkpt>
      <trkpt lat="44.14752" lon="3.19874">
        <ele>872.5</ele>
        <time>2015-12-06T11:37:55Z</time>
      </trkpt>
      <trkpt lat="44.14752" lon="3.19874">
        <ele>872</ele>
        <time>2015-12-06T11:37:56Z</time>
      </trkpt>
      <trkpt lat="44.14751" lon="3.19873">
        <ele>871</ele>
        <time>2015-12-06T11:38:08Z</time>
      </trkpt>
      <trkpt lat="44.1475" lon="3.19873">
        <ele>871.5</ele>
        <time>2015-12-06T11:38:09Z</time>
      </trkpt>
      <trkpt lat="44.14749" lon="3.19874">
        <ele>871.5</ele>
        <time>2015-12-06T11:38:10Z</time>
      </trkpt>
      <trkpt lat="44.14749" lon="3.19874">
        <ele>872</ele>
        <time>2015-12-06T11:38:11Z</time>
      </trkpt>
      <trkpt lat="44.14748" lon="3.19875">
        <ele>872</ele>
        <time>2015-12-06T11:38:12Z</time>
      </trkpt>
      <trkpt lat="44.14748" lon="3.19875">
        <ele>872</ele>
        <time>2015-12-06T11:38:16Z</time>
      </trkpt>
      <trkpt lat="44.14748" lon="3.19873">
        <ele>869</ele>
        <time>2015-12-06T11:38:12Z</time>
      </trkpt>
      <trkpt lat="44.14747" lon="3.19873">
        <ele>869</ele>
        <time>2015-12-06T11:38:13Z</time>
      </trkpt>
      <trkpt lat="44.14746" lon="3.19873">
        <ele>868</ele>
        <time>2015-12-06T11:38:17Z</time>
      </trkpt>
      <trkpt lat="44.14745" lon="3.19872">
        <ele>868.5</ele>
        <time>2015-12-06T11:38:21Z</time>
      </trkpt>
      <trkpt lat="44.14744" lon="3.19872">
        <ele>868</ele>
        <time>2015-12-06T11:38:22Z</time>
      </trkpt>
      <trkpt lat="44.14742" lon="3.1987">
        <ele>868</ele>
        <time>2015-12-06T11:38:23Z</time>
      </trkpt>
      <trkpt lat="44.14741" lon="3.19868">
        <ele>868</ele>
        <time>2015-12-06T11:38:24Z</time>
      </trkpt>
      <trkpt lat="44.14739" lon="3.19863">
        <ele>868</ele>
        <time>2015-12-06T11:38:25Z</time>
      </trkpt>
      <trkpt lat="44.14739" lon="3.19858">
        <ele>867.5</ele>
        <time>2015-12-06T11:38:26Z</time>
      </trkpt>
      <trkpt lat="44.14738" lon="3.19851">
        <ele>867.5</ele>
        <time>2015-12-06T11:38:27Z</time>
      </trkpt>
      <trkpt lat="44.14738" lon="3.19843">
        <ele>867.5</ele>
        <time>2015-12-06T11:38:28Z</time>
      </trkpt>
      <trkpt lat="44.14736" lon="3.19835">
        <ele>867</ele>
        <time>2015-12-06T11:38:29Z</time>
      </trkpt>
      <trkpt lat="44.14734" lon="3.19827">
        <ele>865.5</ele>
        <time>2015-12-06T11:38:30Z</time>
      </trkpt>
      <trkpt lat="44.14728" lon="3.19827">
        <ele>867.5</ele>
        <time>2015-12-06T11:38:31Z</time>
      </trkpt>
      <trkpt lat="44.14726" lon="3.19832">
        <ele>869.5</ele>
        <time>2015-12-06T11:39:43Z</time>
      </trkpt>
      <trkpt lat="44.14726" lon="3.19835">
        <ele>869.5</ele>
        <time>2015-12-06T11:39:44Z</time>
      </trkpt>
      <trkpt lat="44.14726" lon="3.19837">
        <ele>869.5</ele>
        <time>2015-12-06T11:39:45Z</time>
      </trkpt>
      <trkpt lat="44.14727" lon="3.19839">
        <ele>869.5</ele>
        <time>2015-12-06T11:39:46Z</time>
      </trkpt>
      <trkpt lat="44.14728" lon="3.19841">
        <ele>870</ele>
        <time>2015-12-06T11:39:47Z</time>
      </trkpt>
      <trkpt lat="44.14729" lon="3.19842">
        <ele>870.5</ele>
        <time>2015-12-06T11:39:48Z</time>
      </trkpt>
      <trkpt lat="44.1473" lon="3.19843">
        <ele>871</ele>
        <time>2015-12-06T11:39:49Z</time>
      </trkpt>
      <trkpt lat="44.14731" lon="3.19844">
        <ele>870.5</ele>
        <time>2015-12-06T11:39:50Z</time>
      </trkpt>
      <trkpt lat="44.14732" lon="3.19845">
        <ele>870.5</ele>
        <time>2015-12-06T11:39:51Z</time>
      </trkpt>
      <trkpt lat="44.14733" lon="3.19845">
        <ele>870.5</ele>
        <time>2015-12-06T11:39:52Z</time>
      </trkpt>
      <trkpt lat="44.14734" lon="3.19845">
        <ele>870</ele>
        <time>2015-12-06T11:39:53Z</time>
      </trkpt>
      <trkpt lat="44.14735" lon="3.19846">
        <ele>869.5</ele>
        <time>2015-12-06T11:39:54Z</time>
      </trkpt>
      <trkpt lat="44.14736" lon="3.19846">
        <ele>869</ele>
        <time>2015-12-06T11:39:55Z</time>
      </trkpt>
      <trkpt lat="44.14736" lon="3.19845">
        <ele>866.5</ele>
        <time>2015-12-06T11:39:24Z</time>
      </trkpt>
      <trkpt lat="44.14737" lon="3.19847">
        <ele>867</ele>
        <time>2015-12-06T11:39:26Z</time>
      </trkpt>
      <trkpt lat="44.14737" lon="3.19848">
        <ele>867.5</ele>
        <time>2015-12-06T11:39:27Z</time>
      </trkpt>
      <trkpt lat="44.14736" lon="3.19848">
        <ele>868</ele>
        <time>2015-12-06T11:39:28Z</time>
      </trkpt>
      <trkpt lat="44.14734" lon="3.19849">
        <ele>868.5</ele>
        <time>2015-12-06T11:39:29Z</time>
      </trkpt>
      <trkpt lat="44.14731" lon="3.19849">
        <ele>868.5</ele>
        <time>2015-12-06T11:39:30Z</time>
      </trkpt>
      <trkpt lat="44.14729" lon="3.19849">
        <ele>868.5</ele>
        <time>2015-12-06T11:39:31Z</time>
      </trkpt>
      <trkpt lat="44.14726" lon="3.19849">
        <ele>868.5</ele>
        <time>2015-12-06T11:39:32Z</time>
      </trkpt>
      <trkpt lat="44.14723" lon="3.19848">
        <ele>868.5</ele>
        <time>2015-12-06T11:39:33Z</time>
      </trkpt>
      <trkpt lat="44.14721" lon="3.19847">
        <ele>867.5</ele>
        <time>2015-12-06T11:39:34Z</time>
      </trkpt>
      <trkpt lat="44.14719" lon="3.19846">
        <ele>866</ele>
        <time>2015-12-06T11:39:35Z</time>
      </trkpt>
      <trkpt lat="44.14717" lon="3.19846">
        <ele>865.5</ele>
        <time>2015-12-06T11:39:36Z</time>
      </trkpt>
      <trkpt lat="44.14715" lon="3.19847">
        <ele>865.5</ele>
        <time>2015-12-06T11:39:37Z</time>
      </trkpt>
      <trkpt lat="44.14713" lon="3.19847">
        <ele>865</ele>
        <time>2015-12-06T11:39:38Z</time>
      </trkpt>
      <trkpt lat="44.14711" lon="3.19847">
        <ele>864.5</ele>
        <time>2015-12-06T11:39:39Z</time>
      </trkpt>
      <trkpt lat="44.14709" lon="3.19847">
        <ele>864</ele>
        <time>2015-12-06T11:39:40Z</time>
      </trkpt>
      <trkpt lat="44.14707" lon="3.19848">
        <ele>864</ele>
        <time>2015-12-06T11:39:41Z</time>
      </trkpt>
      <trkpt lat="44.14705" lon="3.1985">
        <ele>863.5</ele>
        <time>2015-12-06T11:39:42Z</time>
      </trkpt>
      <trkpt lat="44.14703" lon="3.19852">
        <ele>864</ele>
        <time>2015-12-06T11:39:43Z</time>
      </trkpt>
      <trkpt lat="44.147" lon="3.19854">
        <ele>864</ele>
        <time>2015-12-06T11:39:44Z</time>
      </trkpt>
      <trkpt lat="44.14698" lon="3.19855">
        <ele>863.5</ele>
        <time>2015-12-06T11:39:45Z</time>
      </trkpt>
      <trkpt lat="44.14696" lon="3.19857">
        <ele>863.5</ele>
        <time>2015-12-06T11:39:46Z</time>
      </trkpt>
      <trkpt lat="44.14694" lon="3.19858">
        <ele>863.5</ele>
        <time>2015-12-06T11:39:47Z</time>
      </trkpt>
      <trkpt lat="44.14693" lon="3.19858">
        <ele>863</ele>
        <time>2015-12-06T11:39:48Z</time>
      </trkpt>
      <trkpt lat="44.14692" lon="3.19859">
        <ele>862.5</ele>
        <time>2015-12-06T11:39:49Z</time>
      </trkpt>
      <trkpt lat="44.14691" lon="3.19861">
        <ele>862.5</ele>
        <time>2015-12-06T11:39:50Z</time>
      </trkpt>
      <trkpt lat="44.1469" lon="3.19862">
        <ele>862.5</ele>
        <time>2015-12-06T11:39:51Z</time>
      </trkpt>
      <trkpt lat="44.14689" lon="3.19862">
        <ele>862.5</ele>
        <time>2015-12-06T11:39:54Z</time>
      </trkpt>
      <trkpt lat="44.14689" lon="3.19863">
        <ele>864</ele>
        <time>2015-12-06T11:39:56Z</time>
      </trkpt>
      <trkpt lat="44.14689" lon="3.19864">
        <ele>865.5</ele>
        <time>2015-12-06T11:39:59Z</time>
      </trkpt>
      <trkpt lat="44.14688" lon="3.19865">
        <ele>865.5</ele>
        <time>2015-12-06T11:40:01Z</time>
      </trkpt>
      <trkpt lat="44.14687" lon="3.19865">
        <ele>866</ele>
        <time>2015-12-06T11:40:02Z</time>
      </trkpt>
      <trkpt lat="44.14686" lon="3.19866">
        <ele>866</ele>
        <time>2015-12-06T11:40:03Z</time>
      </trkpt>
      <trkpt lat="44.14684" lon="3.19866">
        <ele>866.5</ele>
        <time>2015-12-06T11:40:04Z</time>
      </trkpt>
      <trkpt lat="44.14684" lon="3.19867">
        <ele>866.5</ele>
        <time>2015-12-06T11:40:05Z</time>
      </trkpt>
      <trkpt lat="44.14681" lon="3.19872">
        <ele>869</ele>
        <time>2015-12-06T11:40:07Z</time>
      </trkpt>
      <trkpt lat="44.14679" lon="3.19874">
        <ele>869.5</ele>
        <time>2015-12-06T11:40:08Z</time>
      </trkpt>
      <trkpt lat="44.14678" lon="3.19875">
        <ele>870</ele>
        <time>2015-12-06T11:40:09Z</time>
      </trkpt>
      <trkpt lat="44.14676" lon="3.19877">
        <ele>870</ele>
        <time>2015-12-06T11:40:10Z</time>
      </trkpt>
      <trkpt lat="44.14674" lon="3.19878">
        <ele>870</ele>
        <time>2015-12-06T11:40:11Z</time>
      </trkpt>
      <trkpt lat="44.14672" lon="3.19879">
        <ele>870</ele>
        <time>2015-12-06T11:40:12Z</time>
      </trkpt>
      <trkpt lat="44.1467" lon="3.19881">
        <ele>870</ele>
        <time>2015-12-06T11:40:13Z</time>
      </trkpt>
      <trkpt lat="44.14668" lon="3.19883">
        <ele>870.5</ele>
        <time>2015-12-06T11:40:14Z</time>
      </trkpt>
      <trkpt lat="44.14666" lon="3.19884">
        <ele>871</ele>
        <time>2015-12-06T11:40:16Z</time>
      </trkpt>
      <trkpt lat="44.14663" lon="3.19886">
        <ele>871</ele>
        <time>2015-12-06T11:40:16Z</time>
      </trkpt>
      <trkpt lat="44.14661" lon="3.19889">
        <ele>871.5</ele>
        <time>2015-12-06T11:40:17Z</time>
      </trkpt>
      <trkpt lat="44.14659" lon="3.1989">
        <ele>871.5</ele>
        <time>2015-12-06T11:40:18Z</time>
      </trkpt>
      <trkpt lat="44.14656" lon="3.19893">
        <ele>871.5</ele>
        <time>2015-12-06T11:40:19Z</time>
      </trkpt>
      <trkpt lat="44.14654" lon="3.19895">
        <ele>871</ele>
        <time>2015-12-06T11:40:20Z</time>
      </trkpt>
      <trkpt lat="44.14651" lon="3.19897">
        <ele>870.5</ele>
        <time>2015-12-06T11:40:21Z</time>
      </trkpt>
      <trkpt lat="44.14648" lon="3.19899">
        <ele>870.5</ele>
        <time>2015-12-06T11:40:22Z</time>
      </trkpt>
      <trkpt lat="44.14645" lon="3.19901">
        <ele>870</ele>
        <time>2015-12-06T11:40:23Z</time>
      </trkpt>
      <trkpt lat="44.14643" lon="3.19904">
        <ele>870</ele>
        <time>2015-12-06T11:40:25Z</time>
      </trkpt>
      <trkpt lat="44.1464" lon="3.19907">
        <ele>870.5</ele>
        <time>2015-12-06T11:40:25Z</time>
      </trkpt>
      <trkpt lat="44.14637" lon="3.1991">
        <ele>870.5</ele>
        <time>2015-12-06T11:40:26Z</time>
      </trkpt>
      <trkpt lat="44.14634" lon="3.19914">
        <ele>872</ele>
        <time>2015-12-06T11:40:27Z</time>
      </trkpt>
      <trkpt lat="44.14631" lon="3.19918">
        <ele>871.5</ele>
        <time>2015-12-06T11:40:28Z</time>
      </trkpt>
      <trkpt lat="44.1463" lon="3.19921">
        <ele>871.5</ele>
        <time>2015-12-06T11:40:30Z</time>
      </trkpt>
      <trkpt lat="44.14627" lon="3.19925">
        <ele>872</ele>
        <time>2015-12-06T11:40:30Z</time>
      </trkpt>
      <trkpt lat="44.14624" lon="3.19929">
        <ele>872</ele>
        <time>2015-12-06T11:40:31Z</time>
      </trkpt>
      <trkpt lat="44.14622" lon="3.19933">
        <ele>872.5</ele>
        <time>2015-12-06T11:40:32Z</time>
      </trkpt>
      <trkpt lat="44.14619" lon="3.19937">
        <ele>872.5</ele>
        <time>2015-12-06T11:40:33Z</time>
      </trkpt>
      <trkpt lat="44.14617" lon="3.1994">
        <ele>872.5</ele>
        <time>2015-12-06T11:40:34Z</time>
      </trkpt>
      <trkpt lat="44.14614" lon="3.19944">
        <ele>872.5</ele>
        <time>2015-12-06T11:40:35Z</time>
      </trkpt>
      <trkpt lat="44.14611" lon="3.19947">
        <ele>872.5</ele>
        <time>2015-12-06T11:40:36Z</time>
      </trkpt>
      <trkpt lat="44.14608" lon="3.1995">
        <ele>872.5</ele>
        <time>2015-12-06T11:40:37Z</time>
      </trkpt>
      <trkpt lat="44.14605" lon="3.19953">
        <ele>872.5</ele>
        <time>2015-12-06T11:40:38Z</time>
      </trkpt>
      <trkpt lat="44.14601" lon="3.19956">
        <ele>872.5</ele>
        <time>2015-12-06T11:40:39Z</time>
      </trkpt>
      <trkpt lat="44.14598" lon="3.19959">
        <ele>872</ele>
        <time>2015-12-06T11:40:40Z</time>
      </trkpt>
      <trkpt lat="44.14595" lon="3.19962">
        <ele>872</ele>
        <time>2015-12-06T11:40:41Z</time>
      </trkpt>
      <trkpt lat="44.14592" lon="3.19965">
        <ele>872</ele>
        <time>2015-12-06T11:40:42Z</time>
      </trkpt>
      <trkpt lat="44.14589" lon="3.19968">
        <ele>872.5</ele>
        <time>2015-12-06T11:40:43Z</time>
      </trkpt>
      <trkpt lat="44.14586" lon="3.19971">
        <ele>872.5</ele>
        <time>2015-12-06T11:40:45Z</time>
      </trkpt>
      <trkpt lat="44.14584" lon="3.19974">
        <ele>872.5</ele>
        <time>2015-12-06T11:40:45Z</time>
      </trkpt>
      <trkpt lat="44.14581" lon="3.19977">
        <ele>873</ele>
        <time>2015-12-06T11:40:46Z</time>
      </trkpt>
      <trkpt lat="44.14578" lon="3.1998">
        <ele>873</ele>
        <time>2015-12-06T11:40:47Z</time>
      </trkpt>
      <trkpt lat="44.14576" lon="3.19983">
        <ele>873</ele>
        <time>2015-12-06T11:40:48Z</time>
      </trkpt>
      <trkpt lat="44.14573" lon="3.19986">
        <ele>873.5</ele>
        <time>2015-12-06T11:40:49Z</time>
      </trkpt>
      <trkpt lat="44.14571" lon="3.19989">
        <ele>873.5</ele>
        <time>2015-12-06T11:40:50Z</time>
      </trkpt>
      <trkpt lat="44.14568" lon="3.19992">
        <ele>873.5</ele>
        <time>2015-12-06T11:40:51Z</time>
      </trkpt>
      <trkpt lat="44.14566" lon="3.19995">
        <ele>874</ele>
        <time>2015-12-06T11:40:52Z</time>
      </trkpt>
      <trkpt lat="44.14563" lon="3.19998">
        <ele>874</ele>
        <time>2015-12-06T11:40:53Z</time>
      </trkpt>
      <trkpt lat="44.14561" lon="3.20002">
        <ele>874</ele>
        <time>2015-12-06T11:40:54Z</time>
      </trkpt>
      <trkpt lat="44.14559" lon="3.20006">
        <ele>874.5</ele>
        <time>2015-12-06T11:40:55Z</time>
      </trkpt>
      <trkpt lat="44.14557" lon="3.20009">
        <ele>875</ele>
        <time>2015-12-06T11:40:56Z</time>
      </trkpt>
      <trkpt lat="44.14555" lon="3.20013">
        <ele>875.5</ele>
        <time>2015-12-06T11:40:57Z</time>
      </trkpt>
      <trkpt lat="44.14553" lon="3.20017">
        <ele>875.5</ele>
        <time>2015-12-06T11:40:58Z</time>
      </trkpt>
      <trkpt lat="44.14551" lon="3.20021">
        <ele>876</ele>
        <time>2015-12-06T11:40:59Z</time>
      </trkpt>
      <trkpt lat="44.14548" lon="3.20025">
        <ele>876.5</ele>
        <time>2015-12-06T11:41:00Z</time>
      </trkpt>
      <trkpt lat="44.14546" lon="3.20028">
        <ele>876.5</ele>
        <time>2015-12-06T11:41:01Z</time>
      </trkpt>
      <trkpt lat="44.14544" lon="3.20032">
        <ele>876.5</ele>
        <time>2015-12-06T11:41:02Z</time>
      </trkpt>
      <trkpt lat="44.14541" lon="3.20036">
        <ele>876</ele>
        <time>2015-12-06T11:41:03Z</time>
      </trkpt>
      <trkpt lat="44.14539" lon="3.2004">
        <ele>876.5</ele>
        <time>2015-12-06T11:41:05Z</time>
      </trkpt>
      <trkpt lat="44.14537" lon="3.20043">
        <ele>877</ele>
        <time>2015-12-06T11:41:05Z</time>
      </trkpt>
      <trkpt lat="44.14535" lon="3.20046">
        <ele>877</ele>
        <time>2015-12-06T11:41:06Z</time>
      </trkpt>
      <trkpt lat="44.14533" lon="3.2005">
        <ele>877</ele>
        <time>2015-12-06T11:41:07Z</time>
      </trkpt>
      <trkpt lat="44.14531" lon="3.20053">
        <ele>877</ele>
        <time>2015-12-06T11:41:08Z</time>
      </trkpt>
      <trkpt lat="44.14528" lon="3.20057">
        <ele>877</ele>
        <time>2015-12-06T11:41:09Z</time>
      </trkpt>
      <trkpt lat="44.14527" lon="3.2006">
        <ele>877</ele>
        <time>2015-12-06T11:41:10Z</time>
      </trkpt>
      <trkpt lat="44.14525" lon="3.20064">
        <ele>877</ele>
        <time>2015-12-06T11:41:11Z</time>
      </trkpt>
      <trkpt lat="44.14523" lon="3.20068">
        <ele>877</ele>
        <time>2015-12-06T11:41:12Z</time>
      </trkpt>
      <trkpt lat="44.1452" lon="3.20073">
        <ele>878.5</ele>
        <time>2015-12-06T11:41:13Z</time>
      </trkpt>
      <trkpt lat="44.14517" lon="3.20078">
        <ele>878.5</ele>
        <time>2015-12-06T11:41:14Z</time>
      </trkpt>
      <trkpt lat="44.14515" lon="3.20083">
        <ele>878.5</ele>
        <time>2015-12-06T11:41:15Z</time>
      </trkpt>
      <trkpt lat="44.14512" lon="3.20087">
        <ele>879</ele>
        <time>2015-12-06T11:41:16Z</time>
      </trkpt>
      <trkpt lat="44.1451" lon="3.20091">
        <ele>879</ele>
        <time>2015-12-06T11:41:17Z</time>
      </trkpt>
      <trkpt lat="44.14507" lon="3.20094">
        <ele>879</ele>
        <time>2015-12-06T11:41:18Z</time>
      </trkpt>
      <trkpt lat="44.14504" lon="3.20099">
        <ele>879</ele>
        <time>2015-12-06T11:41:19Z</time>
      </trkpt>
      <trkpt lat="44.14502" lon="3.20103">
        <ele>878.5</ele>
        <time>2015-12-06T11:41:20Z</time>
      </trkpt>
      <trkpt lat="44.145" lon="3.20107">
        <ele>878.5</ele>
        <time>2015-12-06T11:41:21Z</time>
      </trkpt>
      <trkpt lat="44.14497" lon="3.20111">
        <ele>878.5</ele>
        <time>2015-12-06T11:41:22Z</time>
      </trkpt>
      <trkpt lat="44.14495" lon="3.20115">
        <ele>878</ele>
        <time>2015-12-06T11:41:23Z</time>
      </trkpt>
      <trkpt lat="44.14493" lon="3.2012">
        <ele>878</ele>
        <time>2015-12-06T11:41:24Z</time>
      </trkpt>
      <trkpt lat="44.1449" lon="3.20125">
        <ele>877</ele>
        <time>2015-12-06T11:41:25Z</time>
      </trkpt>
      <trkpt lat="44.14487" lon="3.20129">
        <ele>877</ele>
        <time>2015-12-06T11:41:26Z</time>
      </trkpt>
      <trkpt lat="44.14486" lon="3.20134">
        <ele>877</ele>
        <time>2015-12-06T11:41:27Z</time>
      </trkpt>
      <trkpt lat="44.14482" lon="3.20138">
        <ele>876.5</ele>
        <time>2015-12-06T11:41:28Z</time>
      </trkpt>
      <trkpt lat="44.14478" lon="3.20142">
        <ele>876</ele>
        <time>2015-12-06T11:41:29Z</time>
      </trkpt>
      <trkpt lat="44.14476" lon="3.20147">
        <ele>875.5</ele>
        <time>2015-12-06T11:41:30Z</time>
      </trkpt>
      <trkpt lat="44.14473" lon="3.20151">
        <ele>875</ele>
        <time>2015-12-06T11:41:31Z</time>
      </trkpt>
      <trkpt lat="44.14471" lon="3.20155">
        <ele>875.5</ele>
        <time>2015-12-06T11:41:32Z</time>
      </trkpt>
      <trkpt lat="44.14468" lon="3.2016">
        <ele>876.5</ele>
        <time>2015-12-06T11:41:33Z</time>
      </trkpt>
      <trkpt lat="44.14465" lon="3.20163">
        <ele>876</ele>
        <time>2015-12-06T11:41:34Z</time>
      </trkpt>
      <trkpt lat="44.14457" lon="3.20171">
        <ele>876.5</ele>
        <time>2015-12-06T11:41:36Z</time>
      </trkpt>
      <trkpt lat="44.14453" lon="3.20174">
        <ele>876.5</ele>
        <time>2015-12-06T11:41:37Z</time>
      </trkpt>
      <trkpt lat="44.14449" lon="3.20178">
        <ele>876</ele>
        <time>2015-12-06T11:41:38Z</time>
      </trkpt>
      <trkpt lat="44.14445" lon="3.2018">
        <ele>876</ele>
        <time>2015-12-06T11:41:39Z</time>
      </trkpt>
      <trkpt lat="44.1444" lon="3.20183">
        <ele>875.5</ele>
        <time>2015-12-06T11:41:40Z</time>
      </trkpt>
      <trkpt lat="44.14436" lon="3.20185">
        <ele>875</ele>
        <time>2015-12-06T11:41:41Z</time>
      </trkpt>
      <trkpt lat="44.14431" lon="3.20186">
        <ele>874.5</ele>
        <time>2015-12-06T11:41:42Z</time>
      </trkpt>
      <trkpt lat="44.14426" lon="3.20188">
        <ele>874</ele>
        <time>2015-12-06T11:41:43Z</time>
      </trkpt>
      <trkpt lat="44.14421" lon="3.20188">
        <ele>873.5</ele>
        <time>2015-12-06T11:41:44Z</time>
      </trkpt>
      <trkpt lat="44.14416" lon="3.20189">
        <ele>873.5</ele>
        <time>2015-12-06T11:41:45Z</time>
      </trkpt>
      <trkpt lat="44.14411" lon="3.20189">
        <ele>873</ele>
        <time>2015-12-06T11:41:46Z</time>
      </trkpt>
      <trkpt lat="44.14406" lon="3.2019">
        <ele>873</ele>
        <time>2015-12-06T11:41:47Z</time>
      </trkpt>
      <trkpt lat="44.144" lon="3.20191">
        <ele>873</ele>
        <time>2015-12-06T11:41:48Z</time>
      </trkpt>
      <trkpt lat="44.14395" lon="3.20191">
        <ele>873</ele>
        <time>2015-12-06T11:41:49Z</time>
      </trkpt>
      <trkpt lat="44.1439" lon="3.20192">
        <ele>872.5</ele>
        <time>2015-12-06T11:41:50Z</time>
      </trkpt>
      <trkpt lat="44.14385" lon="3.20191">
        <ele>870.5</ele>
        <time>2015-12-06T11:41:51Z</time>
      </trkpt>
      <trkpt lat="44.14379" lon="3.20191">
        <ele>869.5</ele>
        <time>2015-12-06T11:41:52Z</time>
      </trkpt>
      <trkpt lat="44.14374" lon="3.20191">
        <ele>869.5</ele>
        <time>2015-12-06T11:41:53Z</time>
      </trkpt>
      <trkpt lat="44.14368" lon="3.20192">
        <ele>870</ele>
        <time>2015-12-06T11:41:54Z</time>
      </trkpt>
      <trkpt lat="44.14363" lon="3.20193">
        <ele>870.5</ele>
        <time>2015-12-06T11:41:55Z</time>
      </trkpt>
      <trkpt lat="44.14358" lon="3.20193">
        <ele>871</ele>
        <time>2015-12-06T11:41:56Z</time>
      </trkpt>
      <trkpt lat="44.14352" lon="3.20193">
        <ele>870.5</ele>
        <time>2015-12-06T11:41:57Z</time>
      </trkpt>
      <trkpt lat="44.14347" lon="3.20194">
        <ele>871.5</ele>
        <time>2015-12-06T11:41:58Z</time>
      </trkpt>
      <trkpt lat="44.14342" lon="3.20195">
        <ele>872</ele>
        <time>2015-12-06T11:41:59Z</time>
      </trkpt>
      <trkpt lat="44.14337" lon="3.20195">
        <ele>872</ele>
        <time>2015-12-06T11:42:00Z</time>
      </trkpt>
      <trkpt lat="44.14332" lon="3.20195">
        <ele>872</ele>
        <time>2015-12-06T11:42:01Z</time>
      </trkpt>
      <trkpt lat="44.14326" lon="3.20196">
        <ele>872</ele>
        <time>2015-12-06T11:42:02Z</time>
      </trkpt>
      <trkpt lat="44.14322" lon="3.20196">
        <ele>872</ele>
        <time>2015-12-06T11:42:03Z</time>
      </trkpt>
      <trkpt lat="44.14317" lon="3.20197">
        <ele>872</ele>
        <time>2015-12-06T11:42:04Z</time>
      </trkpt>
      <trkpt lat="44.14312" lon="3.20197">
        <ele>871.5</ele>
        <time>2015-12-06T11:42:05Z</time>
      </trkpt>
      <trkpt lat="44.14308" lon="3.20198">
        <ele>872.5</ele>
        <time>2015-12-06T11:42:06Z</time>
      </trkpt>
      <trkpt lat="44.14303" lon="3.20198">
        <ele>872</ele>
        <time>2015-12-06T11:42:07Z</time>
      </trkpt>
      <trkpt lat="44.14298" lon="3.20199">
        <ele>872</ele>
        <time>2015-12-06T11:42:08Z</time>
      </trkpt>
      <trkpt lat="44.14293" lon="3.202">
        <ele>872</ele>
        <time>2015-12-06T11:42:09Z</time>
      </trkpt>
      <trkpt lat="44.14289" lon="3.20202">
        <ele>872.5</ele>
        <time>2015-12-06T11:42:10Z</time>
      </trkpt>
      <trkpt lat="44.14285" lon="3.20204">
        <ele>873</ele>
        <time>2015-12-06T11:42:11Z</time>
      </trkpt>
      <trkpt lat="44.1428" lon="3.20206">
        <ele>873.5</ele>
        <time>2015-12-06T11:42:12Z</time>
      </trkpt>
      <trkpt lat="44.14275" lon="3.20208">
        <ele>873</ele>
        <time>2015-12-06T11:42:13Z</time>
      </trkpt>
      <trkpt lat="44.14271" lon="3.20209">
        <ele>873</ele>
        <time>2015-12-06T11:42:14Z</time>
      </trkpt>
      <trkpt lat="44.14266" lon="3.2021">
        <ele>873</ele>
        <time>2015-12-06T11:42:15Z</time>
      </trkpt>
      <trkpt lat="44.14261" lon="3.20211">
        <ele>873.5</ele>
        <time>2015-12-06T11:42:16Z</time>
      </trkpt>
      <trkpt lat="44.14257" lon="3.20212">
        <ele>873.5</ele>
        <time>2015-12-06T11:42:17Z</time>
      </trkpt>
      <trkpt lat="44.14252" lon="3.20213">
        <ele>873</ele>
        <time>2015-12-06T11:42:18Z</time>
      </trkpt>
      <trkpt lat="44.14248" lon="3.20214">
        <ele>873</ele>
        <time>2015-12-06T11:42:19Z</time>
      </trkpt>
      <trkpt lat="44.14243" lon="3.20215">
        <ele>873.5</ele>
        <time>2015-12-06T11:42:20Z</time>
      </trkpt>
      <trkpt lat="44.14239" lon="3.20216">
        <ele>874</ele>
        <time>2015-12-06T11:42:21Z</time>
      </trkpt>
      <trkpt lat="44.14234" lon="3.20216">
        <ele>874</ele>
        <time>2015-12-06T11:42:22Z</time>
      </trkpt>
      <trkpt lat="44.1423" lon="3.20217">
        <ele>875</ele>
        <time>2015-12-06T11:42:23Z</time>
      </trkpt>
      <trkpt lat="44.14226" lon="3.20218">
        <ele>876</ele>
        <time>2015-12-06T11:42:24Z</time>
      </trkpt>
      <trkpt lat="44.14223" lon="3.20218">
        <ele>876.5</ele>
        <time>2015-12-06T11:42:25Z</time>
      </trkpt>
      <trkpt lat="44.14219" lon="3.20219">
        <ele>877</ele>
        <time>2015-12-06T11:42:26Z</time>
      </trkpt>
      <trkpt lat="44.14216" lon="3.20218">
        <ele>876.5</ele>
        <time>2015-12-06T11:42:27Z</time>
      </trkpt>
      <trkpt lat="44.14213" lon="3.20218">
        <ele>876.5</ele>
        <time>2015-12-06T11:42:28Z</time>
      </trkpt>
      <trkpt lat="44.14209" lon="3.2022">
        <ele>877</ele>
        <time>2015-12-06T11:42:29Z</time>
      </trkpt>
      <trkpt lat="44.14205" lon="3.2022">
        <ele>877</ele>
        <time>2015-12-06T11:42:30Z</time>
      </trkpt>
      <trkpt lat="44.14201" lon="3.2022">
        <ele>877.5</ele>
        <time>2015-12-06T11:42:31Z</time>
      </trkpt>
      <trkpt lat="44.14197" lon="3.20221">
        <ele>877.5</ele>
        <time>2015-12-06T11:42:32Z</time>
      </trkpt>
      <trkpt lat="44.14193" lon="3.20222">
        <ele>877.5</ele>
        <time>2015-12-06T11:42:33Z</time>
      </trkpt>
      <trkpt lat="44.14189" lon="3.20222">
        <ele>877.5</ele>
        <time>2015-12-06T11:42:34Z</time>
      </trkpt>
      <trkpt lat="44.14185" lon="3.20223">
        <ele>877.5</ele>
        <time>2015-12-06T11:42:35Z</time>
      </trkpt>
      <trkpt lat="44.14181" lon="3.20225">
        <ele>878</ele>
        <time>2015-12-06T11:42:36Z</time>
      </trkpt>
      <trkpt lat="44.14176" lon="3.20226">
        <ele>878</ele>
        <time>2015-12-06T11:42:37Z</time>
      </trkpt>
      <trkpt lat="44.14172" lon="3.20226">
        <ele>877.5</ele>
        <time>2015-12-06T11:42:38Z</time>
      </trkpt>
      <trkpt lat="44.14168" lon="3.20224">
        <ele>876</ele>
        <time>2015-12-06T11:42:39Z</time>
      </trkpt>
      <trkpt lat="44.14164" lon="3.20223">
        <ele>876</ele>
        <time>2015-12-06T11:42:40Z</time>
      </trkpt>
      <trkpt lat="44.14159" lon="3.20222">
        <ele>875.5</ele>
        <time>2015-12-06T11:42:41Z</time>
      </trkpt>
      <trkpt lat="44.14155" lon="3.20221">
        <ele>875.5</ele>
        <time>2015-12-06T11:42:42Z</time>
      </trkpt>
      <trkpt lat="44.14152" lon="3.20221">
        <ele>876</ele>
        <time>2015-12-06T11:42:43Z</time>
      </trkpt>
      <trkpt lat="44.14148" lon="3.2022">
        <ele>876</ele>
        <time>2015-12-06T11:42:44Z</time>
      </trkpt>
      <trkpt lat="44.14144" lon="3.20222">
        <ele>877</ele>
        <time>2015-12-06T11:42:45Z</time>
      </trkpt>
      <trkpt lat="44.14141" lon="3.20222">
        <ele>877</ele>
        <time>2015-12-06T11:42:46Z</time>
      </trkpt>
      <trkpt lat="44.14137" lon="3.20223">
        <ele>876.5</ele>
        <time>2015-12-06T11:42:47Z</time>
      </trkpt>
      <trkpt lat="44.14133" lon="3.20223">
        <ele>875.5</ele>
        <time>2015-12-06T11:42:48Z</time>
      </trkpt>
      <trkpt lat="44.14129" lon="3.20225">
        <ele>875</ele>
        <time>2015-12-06T11:42:49Z</time>
      </trkpt>
      <trkpt lat="44.14125" lon="3.20226">
        <ele>874.5</ele>
        <time>2015-12-06T11:42:50Z</time>
      </trkpt>
      <trkpt lat="44.14121" lon="3.20228">
        <ele>874</ele>
        <time>2015-12-06T11:42:51Z</time>
      </trkpt>
      <trkpt lat="44.14117" lon="3.2023">
        <ele>874</ele>
        <time>2015-12-06T11:42:52Z</time>
      </trkpt>
      <trkpt lat="44.14113" lon="3.20233">
        <ele>873.5</ele>
        <time>2015-12-06T11:42:53Z</time>
      </trkpt>
      <trkpt lat="44.14109" lon="3.20236">
        <ele>873</ele>
        <time>2015-12-06T11:42:54Z</time>
      </trkpt>
      <trkpt lat="44.14105" lon="3.2024">
        <ele>873</ele>
        <time>2015-12-06T11:42:55Z</time>
      </trkpt>
      <trkpt lat="44.14101" lon="3.20243">
        <ele>873</ele>
        <time>2015-12-06T11:42:56Z</time>
      </trkpt>
      <trkpt lat="44.14096" lon="3.20247">
        <ele>872.5</ele>
        <time>2015-12-06T11:42:57Z</time>
      </trkpt>
      <trkpt lat="44.14092" lon="3.20251">
        <ele>872</ele>
        <time>2015-12-06T11:42:58Z</time>
      </trkpt>
      <trkpt lat="44.14088" lon="3.20255">
        <ele>871.5</ele>
        <time>2015-12-06T11:42:59Z</time>
      </trkpt>
      <trkpt lat="44.14084" lon="3.2026">
        <ele>871.5</ele>
        <time>2015-12-06T11:43:00Z</time>
      </trkpt>
      <trkpt lat="44.14081" lon="3.20265">
        <ele>871.5</ele>
        <time>2015-12-06T11:43:01Z</time>
      </trkpt>
      <trkpt lat="44.14078" lon="3.20268">
        <ele>871.5</ele>
        <time>2015-12-06T11:43:02Z</time>
      </trkpt>
      <trkpt lat="44.14075" lon="3.20271">
        <ele>871.5</ele>
        <time>2015-12-06T11:43:03Z</time>
      </trkpt>
      <trkpt lat="44.14072" lon="3.20273">
        <ele>871</ele>
        <time>2015-12-06T11:43:04Z</time>
      </trkpt>
      <trkpt lat="44.1407" lon="3.20275">
        <ele>870.5</ele>
        <time>2015-12-06T11:43:05Z</time>
      </trkpt>
      <trkpt lat="44.14068" lon="3.20276">
        <ele>870.5</ele>
        <time>2015-12-06T11:43:06Z</time>
      </trkpt>
      <trkpt lat="44.14067" lon="3.20278">
        <ele>870.5</ele>
        <time>2015-12-06T11:43:07Z</time>
      </trkpt>
      <trkpt lat="44.14067" lon="3.20278">
        <ele>870</ele>
        <time>2015-12-06T11:43:08Z</time>
      </trkpt>
      <trkpt lat="44.14067" lon="3.20279">
        <ele>870</ele>
        <time>2015-12-06T11:43:12Z</time>
      </trkpt>
      <trkpt lat="44.14068" lon="3.20278">
        <ele>869.5</ele>
        <time>2015-12-06T11:43:16Z</time>
      </trkpt>
      <trkpt lat="44.14067" lon="3.20279">
        <ele>869</ele>
        <time>2015-12-06T11:43:18Z</time>
      </trkpt>
      <trkpt lat="44.14067" lon="3.2028">
        <ele>870</ele>
        <time>2015-12-06T11:43:20Z</time>
      </trkpt>
      <trkpt lat="44.14066" lon="3.20281">
        <ele>870</ele>
        <time>2015-12-06T11:43:22Z</time>
      </trkpt>
      <trkpt lat="44.14063" lon="3.20282">
        <ele>869.5</ele>
        <time>2015-12-06T11:43:29Z</time>
      </trkpt>
      <trkpt lat="44.14063" lon="3.20283">
        <ele>868.5</ele>
        <time>2015-12-06T11:43:31Z</time>
      </trkpt>
      <trkpt lat="44.14061" lon="3.20282">
        <ele>868</ele>
        <time>2015-12-06T11:43:49Z</time>
      </trkpt>
      <trkpt lat="44.14061" lon="3.20281">
        <ele>868</ele>
        <time>2015-12-06T11:43:51Z</time>
      </trkpt>
      <trkpt lat="44.14061" lon="3.2028">
        <ele>868.5</ele>
        <time>2015-12-06T11:43:52Z</time>
      </trkpt>
      <trkpt lat="44.14062" lon="3.2028">
        <ele>868.5</ele>
        <time>2015-12-06T11:43:53Z</time>
      </trkpt>
      <trkpt lat="44.14062" lon="3.20279">
        <ele>868</ele>
        <time>2015-12-06T11:43:56Z</time>
      </trkpt>
      <trkpt lat="44.14061" lon="3.20278">
        <ele>869</ele>
        <time>2015-12-06T11:43:58Z</time>
      </trkpt>
      <trkpt lat="44.1406" lon="3.20278">
        <ele>869.5</ele>
        <time>2015-12-06T11:43:59Z</time>
      </trkpt>
      <trkpt lat="44.1406" lon="3.20277">
        <ele>869</ele>
        <time>2015-12-06T11:44:02Z</time>
      </trkpt>
      <trkpt lat="44.14058" lon="3.20275">
        <ele>869</ele>
        <time>2015-12-06T11:44:04Z</time>
      </trkpt>
      <trkpt lat="44.14057" lon="3.20274">
        <ele>869</ele>
        <time>2015-12-06T11:44:05Z</time>
      </trkpt>
      <trkpt lat="44.14056" lon="3.20274">
        <ele>868.5</ele>
        <time>2015-12-06T11:44:06Z</time>
      </trkpt>
      <trkpt lat="44.14055" lon="3.20273">
        <ele>868</ele>
        <time>2015-12-06T11:44:07Z</time>
      </trkpt>
      <trkpt lat="44.14053" lon="3.20272">
        <ele>868</ele>
        <time>2015-12-06T11:44:08Z</time>
      </trkpt>
      <trkpt lat="44.14052" lon="3.20272">
        <ele>868</ele>
        <time>2015-12-06T11:44:09Z</time>
      </trkpt>
      <trkpt lat="44.1405" lon="3.20271">
        <ele>867</ele>
        <time>2015-12-06T11:44:10Z</time>
      </trkpt>
      <trkpt lat="44.1405" lon="3.2027">
        <ele>867</ele>
        <time>2015-12-06T11:44:11Z</time>
      </trkpt>
      <trkpt lat="44.14049" lon="3.20269">
        <ele>867</ele>
        <time>2015-12-06T11:44:12Z</time>
      </trkpt>
      <trkpt lat="44.14047" lon="3.20268">
        <ele>867</ele>
        <time>2015-12-06T11:44:13Z</time>
      </trkpt>
      <trkpt lat="44.14045" lon="3.20267">
        <ele>867</ele>
        <time>2015-12-06T11:44:14Z</time>
      </trkpt>
      <trkpt lat="44.14043" lon="3.20267">
        <ele>867</ele>
        <time>2015-12-06T11:44:15Z</time>
      </trkpt>
      <trkpt lat="44.1404" lon="3.20267">
        <ele>867</ele>
        <time>2015-12-06T11:44:16Z</time>
      </trkpt>
      <trkpt lat="44.14037" lon="3.20268">
        <ele>867.5</ele>
        <time>2015-12-06T11:44:17Z</time>
      </trkpt>
      <trkpt lat="44.14033" lon="3.20268">
        <ele>867.5</ele>
        <time>2015-12-06T11:44:18Z</time>
      </trkpt>
      <trkpt lat="44.1403" lon="3.20269">
        <ele>867</ele>
        <time>2015-12-06T11:44:19Z</time>
      </trkpt>
      <trkpt lat="44.14026" lon="3.20269">
        <ele>867</ele>
        <time>2015-12-06T11:44:20Z</time>
      </trkpt>
      <trkpt lat="44.14023" lon="3.20269">
        <ele>867</ele>
        <time>2015-12-06T11:44:21Z</time>
      </trkpt>
      <trkpt lat="44.1402" lon="3.20268">
        <ele>866.5</ele>
        <time>2015-12-06T11:44:22Z</time>
      </trkpt>
      <trkpt lat="44.14018" lon="3.2027">
        <ele>868</ele>
        <time>2015-12-06T11:44:23Z</time>
      </trkpt>
      <trkpt lat="44.14017" lon="3.2027">
        <ele>867.5</ele>
        <time>2015-12-06T11:44:24Z</time>
      </trkpt>
      <trkpt lat="44.14018" lon="3.20269">
        <ele>867.5</ele>
        <time>2015-12-06T11:44:25Z</time>
      </trkpt>
      <trkpt lat="44.14017" lon="3.20268">
        <ele>866</ele>
        <time>2015-12-06T11:44:31Z</time>
      </trkpt>
      <trkpt lat="44.14017" lon="3.20272">
        <ele>866.5</ele>
        <time>2015-12-06T11:44:33Z</time>
      </trkpt>
      <trkpt lat="44.14016" lon="3.20269">
        <ele>865</ele>
        <time>2015-12-06T11:44:50Z</time>
      </trkpt>
      <trkpt lat="44.14014" lon="3.20268">
        <ele>864.5</ele>
        <time>2015-12-06T11:44:52Z</time>
      </trkpt>
      <trkpt lat="44.14012" lon="3.20268">
        <ele>864</ele>
        <time>2015-12-06T11:44:53Z</time>
      </trkpt>
      <trkpt lat="44.1401" lon="3.20269">
        <ele>865</ele>
        <time>2015-12-06T11:44:54Z</time>
      </trkpt>
      <trkpt lat="44.14008" lon="3.20269">
        <ele>865.5</ele>
        <time>2015-12-06T11:44:55Z</time>
      </trkpt>
      <trkpt lat="44.14005" lon="3.2027">
        <ele>865.5</ele>
        <time>2015-12-06T11:44:56Z</time>
      </trkpt>
      <trkpt lat="44.14001" lon="3.2027">
        <ele>865</ele>
        <time>2015-12-06T11:44:57Z</time>
      </trkpt>
      <trkpt lat="44.13998" lon="3.2027">
        <ele>864.5</ele>
        <time>2015-12-06T11:44:58Z</time>
      </trkpt>
      <trkpt lat="44.13994" lon="3.2027">
        <ele>864</ele>
        <time>2015-12-06T11:44:59Z</time>
      </trkpt>
      <trkpt lat="44.13989" lon="3.2027">
        <ele>864</ele>
        <time>2015-12-06T11:45:00Z</time>
      </trkpt>
      <trkpt lat="44.13984" lon="3.20271">
        <ele>863.5</ele>
        <time>2015-12-06T11:45:00Z</time>
      </trkpt>
      <trkpt lat="44.13979" lon="3.20271">
        <ele>863</ele>
        <time>2015-12-06T11:45:01Z</time>
      </trkpt>
      <trkpt lat="44.13973" lon="3.20272">
        <ele>862.5</ele>
        <time>2015-12-06T11:45:02Z</time>
      </trkpt>
      <trkpt lat="44.13967" lon="3.20272">
        <ele>862</ele>
        <time>2015-12-06T11:45:03Z</time>
      </trkpt>
      <trkpt lat="44.13961" lon="3.20273">
        <ele>862</ele>
        <time>2015-12-06T11:45:04Z</time>
      </trkpt>
      <trkpt lat="44.13955" lon="3.20273">
        <ele>861.5</ele>
        <time>2015-12-06T11:45:05Z</time>
      </trkpt>
      <trkpt lat="44.13949" lon="3.20273">
        <ele>861.5</ele>
        <time>2015-12-06T11:45:06Z</time>
      </trkpt>
      <trkpt lat="44.13937" lon="3.20274">
        <ele>861.5</ele>
        <time>2015-12-06T11:45:08Z</time>
      </trkpt>
      <trkpt lat="44.13931" lon="3.20275">
        <ele>861</ele>
        <time>2015-12-06T11:45:09Z</time>
      </trkpt>
      <trkpt lat="44.13925" lon="3.20278">
        <ele>860</ele>
        <time>2015-12-06T11:45:10Z</time>
      </trkpt>
      <trkpt lat="44.13919" lon="3.20282">
        <ele>859</ele>
        <time>2015-12-06T11:45:11Z</time>
      </trkpt>
      <trkpt lat="44.13912" lon="3.20286">
        <ele>859</ele>
        <time>2015-12-06T11:45:12Z</time>
      </trkpt>
      <trkpt lat="44.13904" lon="3.2029">
        <ele>858</ele>
        <time>2015-12-06T11:45:13Z</time>
      </trkpt>
      <trkpt lat="44.13896" lon="3.20293">
        <ele>856.5</ele>
        <time>2015-12-06T11:45:14Z</time>
      </trkpt>
      <trkpt lat="44.13888" lon="3.20297">
        <ele>855.5</ele>
        <time>2015-12-06T11:45:15Z</time>
      </trkpt>
      <trkpt lat="44.1388" lon="3.20301">
        <ele>855</ele>
        <time>2015-12-06T11:45:16Z</time>
      </trkpt>
      <trkpt lat="44.13875" lon="3.20305">
        <ele>856.5</ele>
        <time>2015-12-06T11:45:18Z</time>
      </trkpt>
      <trkpt lat="44.13869" lon="3.20309">
        <ele>856.5</ele>
        <time>2015-12-06T11:46:28Z</time>
      </trkpt>
      <trkpt lat="44.13869" lon="3.20308">
        <ele>856.5</ele>
        <time>2015-12-06T11:46:30Z</time>
      </trkpt>
      <trkpt lat="44.13869" lon="3.20308">
        <ele>856</ele>
        <time>2015-12-06T11:46:33Z</time>
      </trkpt>
      <trkpt lat="44.13868" lon="3.20307">
        <ele>856</ele>
        <time>2015-12-06T11:46:35Z</time>
      </trkpt>
      <trkpt lat="44.13867" lon="3.20306">
        <ele>856</ele>
        <time>2015-12-06T11:46:36Z</time>
      </trkpt>
      <trkpt lat="44.13867" lon="3.20305">
        <ele>855.5</ele>
        <time>2015-12-06T11:46:37Z</time>
      </trkpt>
      <trkpt lat="44.13866" lon="3.20302">
        <ele>855</ele>
        <time>2015-12-06T11:46:38Z</time>
      </trkpt>
      <trkpt lat="44.13866" lon="3.20299">
        <ele>854.5</ele>
        <time>2015-12-06T11:46:39Z</time>
      </trkpt>
      <trkpt lat="44.13865" lon="3.20297">
        <ele>854</ele>
        <time>2015-12-06T11:46:40Z</time>
      </trkpt>
      <trkpt lat="44.13865" lon="3.20295">
        <ele>853</ele>
        <time>2015-12-06T11:46:41Z</time>
      </trkpt>
      <trkpt lat="44.13864" lon="3.20294">
        <ele>851</ele>
        <time>2015-12-06T11:46:49Z</time>
      </trkpt>
      <trkpt lat="44.13864" lon="3.20294">
        <ele>851</ele>
        <time>2015-12-06T11:46:51Z</time>
      </trkpt>
      <trkpt lat="44.13865" lon="3.20294">
        <ele>851.5</ele>
        <time>2015-12-06T11:46:52Z</time>
      </trkpt>
      <trkpt lat="44.13865" lon="3.20292">
        <ele>852</ele>
        <time>2015-12-06T11:46:57Z</time>
      </trkpt>
      <trkpt lat="44.13864" lon="3.20292">
        <ele>852</ele>
        <time>2015-12-06T11:46:59Z</time>
      </trkpt>
      <trkpt lat="44.13864" lon="3.20291">
        <ele>851</ele>
        <time>2015-12-06T11:47:08Z</time>
      </trkpt>
      <trkpt lat="44.13863" lon="3.2029">
        <ele>850.5</ele>
        <time>2015-12-06T11:47:15Z</time>
      </trkpt>
      <trkpt lat="44.13861" lon="3.20287">
        <ele>849</ele>
        <time>2015-12-06T11:47:17Z</time>
      </trkpt>
      <trkpt lat="44.1386" lon="3.20284">
        <ele>848.5</ele>
        <time>2015-12-06T11:47:18Z</time>
      </trkpt>
      <trkpt lat="44.13859" lon="3.20281">
        <ele>848.5</ele>
        <time>2015-12-06T11:47:19Z</time>
      </trkpt>
      <trkpt lat="44.13857" lon="3.20278">
        <ele>848</ele>
        <time>2015-12-06T11:47:20Z</time>
      </trkpt>
      <trkpt lat="44.13856" lon="3.20274">
        <ele>848.5</ele>
        <time>2015-12-06T11:47:21Z</time>
      </trkpt>
      <trkpt lat="44.13855" lon="3.20271">
        <ele>848</ele>
        <time>2015-12-06T11:47:22Z</time>
      </trkpt>
      <trkpt lat="44.13854" lon="3.20267">
        <ele>846</ele>
        <time>2015-12-06T11:47:23Z</time>
      </trkpt>
      <trkpt lat="44.13851" lon="3.20262">
        <ele>845.5</ele>
        <time>2015-12-06T11:47:24Z</time>
      </trkpt>
      <trkpt lat="44.13847" lon="3.2026">
        <ele>846</ele>
        <time>2015-12-06T11:47:25Z</time>
      </trkpt>
      <trkpt lat="44.13842" lon="3.20258">
        <ele>845</ele>
        <time>2015-12-06T11:47:26Z</time>
      </trkpt>
      <trkpt lat="44.13835" lon="3.20255">
        <ele>843.5</ele>
        <time>2015-12-06T11:47:27Z</time>
      </trkpt>
      <trkpt lat="44.13829" lon="3.20253">
        <ele>842</ele>
        <time>2015-12-06T11:47:28Z</time>
      </trkpt>
      <trkpt lat="44.13823" lon="3.20255">
        <ele>843</ele>
        <time>2015-12-06T11:47:29Z</time>
      </trkpt>
      <trkpt lat="44.13814" lon="3.20272">
        <ele>843</ele>
        <time>2015-12-06T11:47:31Z</time>
      </trkpt>
      <trkpt lat="44.13809" lon="3.2028">
        <ele>844.5</ele>
        <time>2015-12-06T11:47:32Z</time>
      </trkpt>
      <trkpt lat="44.13804" lon="3.20289">
        <ele>844.5</ele>
        <time>2015-12-06T11:47:33Z</time>
      </trkpt>
      <trkpt lat="44.138" lon="3.20298">
        <ele>844.5</ele>
        <time>2015-12-06T11:47:34Z</time>
      </trkpt>
      <trkpt lat="44.13797" lon="3.20307">
        <ele>844.5</ele>
        <time>2015-12-06T11:47:35Z</time>
      </trkpt>
      <trkpt lat="44.13794" lon="3.20314">
        <ele>844.5</ele>
        <time>2015-12-06T11:47:36Z</time>
      </trkpt>
      <trkpt lat="44.13792" lon="3.20321">
        <ele>844</ele>
        <time>2015-12-06T11:47:37Z</time>
      </trkpt>
      <trkpt lat="44.1379" lon="3.20326">
        <ele>844</ele>
        <time>2015-12-06T11:47:38Z</time>
      </trkpt>
      <trkpt lat="44.13788" lon="3.20329">
        <ele>844</ele>
        <time>2015-12-06T11:47:39Z</time>
      </trkpt>
      <trkpt lat="44.13787" lon="3.20331">
        <ele>844.5</ele>
        <time>2015-12-06T11:47:40Z</time>
      </trkpt>
      <trkpt lat="44.13787" lon="3.20331">
        <ele>844</ele>
        <time>2015-12-06T11:47:41Z</time>
      </trkpt>
      <trkpt lat="44.13787" lon="3.20332">
        <ele>845</ele>
        <time>2015-12-06T11:47:47Z</time>
      </trkpt>
      <trkpt lat="44.13787" lon="3.20332">
        <ele>845</ele>
        <time>2015-12-06T11:47:57Z</time>
      </trkpt>
      <trkpt lat="44.13786" lon="3.20334">
        <ele>845.5</ele>
        <time>2015-12-06T11:48:11Z</time>
      </trkpt>
      <trkpt lat="44.13785" lon="3.20335">
        <ele>846.5</ele>
        <time>2015-12-06T11:48:13Z</time>
      </trkpt>
      <trkpt lat="44.13784" lon="3.20337">
        <ele>846</ele>
        <time>2015-12-06T11:48:14Z</time>
      </trkpt>
      <trkpt lat="44.13784" lon="3.20339">
        <ele>846</ele>
        <time>2015-12-06T11:48:15Z</time>
      </trkpt>
      <trkpt lat="44.13785" lon="3.20342">
        <ele>846</ele>
        <time>2015-12-06T11:48:16Z</time>
      </trkpt>
      <trkpt lat="44.13788" lon="3.20344">
        <ele>846</ele>
        <time>2015-12-06T11:48:17Z</time>
      </trkpt>
      <trkpt lat="44.13791" lon="3.20342">
        <ele>844.5</ele>
        <time>2015-12-06T11:48:18Z</time>
      </trkpt>
      <trkpt lat="44.13791" lon="3.20338">
        <ele>844</ele>
        <time>2015-12-06T11:48:19Z</time>
      </trkpt>
      <trkpt lat="44.1379" lon="3.20336">
        <ele>843.5</ele>
        <time>2015-12-06T11:48:20Z</time>
      </trkpt>
      <trkpt lat="44.13788" lon="3.20334">
        <ele>844</ele>
        <time>2015-12-06T11:48:21Z</time>
      </trkpt>
      <trkpt lat="44.13785" lon="3.20333">
        <ele>844</ele>
        <time>2015-12-06T11:48:22Z</time>
      </trkpt>
      <trkpt lat="44.13781" lon="3.20332">
        <ele>844</ele>
        <time>2015-12-06T11:48:23Z</time>
      </trkpt>
      <trkpt lat="44.13778" lon="3.2033">
        <ele>844.5</ele>
        <time>2015-12-06T11:48:24Z</time>
      </trkpt>
      <trkpt lat="44.13775" lon="3.2033">
        <ele>845</ele>
        <time>2015-12-06T11:48:25Z</time>
      </trkpt>
      <trkpt lat="44.13772" lon="3.20328">
        <ele>845.5</ele>
        <time>2015-12-06T11:48:26Z</time>
      </trkpt>
      <trkpt lat="44.1377" lon="3.20327">
        <ele>846</ele>
        <time>2015-12-06T11:48:27Z</time>
      </trkpt>
      <trkpt lat="44.13768" lon="3.20326">
        <ele>846</ele>
        <time>2015-12-06T11:48:28Z</time>
      </trkpt>
      <trkpt lat="44.13766" lon="3.20326">
        <ele>846.5</ele>
        <time>2015-12-06T11:48:29Z</time>
      </trkpt>
      <trkpt lat="44.13765" lon="3.20326">
        <ele>847.5</ele>
        <time>2015-12-06T11:48:30Z</time>
      </trkpt>
      <trkpt lat="44.13764" lon="3.20325">
        <ele>847.5</ele>
        <time>2015-12-06T11:48:31Z</time>
      </trkpt>
      <trkpt lat="44.13762" lon="3.20324">
        <ele>847</ele>
        <time>2015-12-06T11:48:32Z</time>
      </trkpt>
      <trkpt lat="44.1376" lon="3.20324">
        <ele>847</ele>
        <time>2015-12-06T11:48:33Z</time>
      </trkpt>
      <trkpt lat="44.13758" lon="3.20323">
        <ele>847</ele>
        <time>2015-12-06T11:48:34Z</time>
      </trkpt>
      <trkpt lat="44.13756" lon="3.20322">
        <ele>847</ele>
        <time>2015-12-06T11:48:35Z</time>
      </trkpt>
      <trkpt lat="44.13754" lon="3.2032">
        <ele>847</ele>
        <time>2015-12-06T11:48:36Z</time>
      </trkpt>
      <trkpt lat="44.13752" lon="3.20319">
        <ele>847</ele>
        <time>2015-12-06T11:48:37Z</time>
      </trkpt>
      <trkpt lat="44.1375" lon="3.20319">
        <ele>847</ele>
        <time>2015-12-06T11:48:38Z</time>
      </trkpt>
      <trkpt lat="44.13748" lon="3.20318">
        <ele>847.5</ele>
        <time>2015-12-06T11:48:39Z</time>
      </trkpt>
      <trkpt lat="44.13746" lon="3.20317">
        <ele>848.5</ele>
        <time>2015-12-06T11:48:40Z</time>
      </trkpt>
      <trkpt lat="44.13745" lon="3.20316">
        <ele>848.5</ele>
        <time>2015-12-06T11:48:41Z</time>
      </trkpt>
      <trkpt lat="44.13743" lon="3.20315">
        <ele>848</ele>
        <time>2015-12-06T11:48:42Z</time>
      </trkpt>
      <trkpt lat="44.13741" lon="3.20314">
        <ele>848</ele>
        <time>2015-12-06T11:48:43Z</time>
      </trkpt>
      <trkpt lat="44.13739" lon="3.20314">
        <ele>848.5</ele>
        <time>2015-12-06T11:48:44Z</time>
      </trkpt>
      <trkpt lat="44.13737" lon="3.20313">
        <ele>848.5</ele>
        <time>2015-12-06T11:48:45Z</time>
      </trkpt>
      <trkpt lat="44.13735" lon="3.20314">
        <ele>849.5</ele>
        <time>2015-12-06T11:48:46Z</time>
      </trkpt>
      <trkpt lat="44.13733" lon="3.20314">
        <ele>850.5</ele>
        <time>2015-12-06T11:48:47Z</time>
      </trkpt>
      <trkpt lat="44.13732" lon="3.20313">
        <ele>851</ele>
        <time>2015-12-06T11:48:48Z</time>
      </trkpt>
      <trkpt lat="44.1373" lon="3.20314">
        <ele>852</ele>
        <time>2015-12-06T11:48:49Z</time>
      </trkpt>
      <trkpt lat="44.13728" lon="3.20314">
        <ele>852.5</ele>
        <time>2015-12-06T11:48:50Z</time>
      </trkpt>
      <trkpt lat="44.13726" lon="3.20314">
        <ele>853</ele>
        <time>2015-12-06T11:48:51Z</time>
      </trkpt>
      <trkpt lat="44.13724" lon="3.20312">
        <ele>852.5</ele>
        <time>2015-12-06T11:48:52Z</time>
      </trkpt>
      <trkpt lat="44.13721" lon="3.20311">
        <ele>852.5</ele>
        <time>2015-12-06T11:48:53Z</time>
      </trkpt>
      <trkpt lat="44.13718" lon="3.20309">
        <ele>852.5</ele>
        <time>2015-12-06T11:48:54Z</time>
      </trkpt>
      <trkpt lat="44.13714" lon="3.20307">
        <ele>852.5</ele>
        <time>2015-12-06T11:48:55Z</time>
      </trkpt>
      <trkpt lat="44.1371" lon="3.20305">
        <ele>852</ele>
        <time>2015-12-06T11:48:56Z</time>
      </trkpt>
      <trkpt lat="44.13706" lon="3.20303">
        <ele>852.5</ele>
        <time>2015-12-06T11:48:57Z</time>
      </trkpt>
      <trkpt lat="44.137" lon="3.20301">
        <ele>851</ele>
        <time>2015-12-06T11:48:58Z</time>
      </trkpt>
      <trkpt lat="44.13694" lon="3.203">
        <ele>851.5</ele>
        <time>2015-12-06T11:48:59Z</time>
      </trkpt>
      <trkpt lat="44.13688" lon="3.20297">
        <ele>850.5</ele>
        <time>2015-12-06T11:49:00Z</time>
      </trkpt>
      <trkpt lat="44.13681" lon="3.20294">
        <ele>848.5</ele>
        <time>2015-12-06T11:49:01Z</time>
      </trkpt>
      <trkpt lat="44.13674" lon="3.20291">
        <ele>847.5</ele>
        <time>2015-12-06T11:49:02Z</time>
      </trkpt>
      <trkpt lat="44.13666" lon="3.2029">
        <ele>847</ele>
        <time>2015-12-06T11:49:03Z</time>
      </trkpt>
      <trkpt lat="44.13658" lon="3.20289">
        <ele>847</ele>
        <time>2015-12-06T11:49:04Z</time>
      </trkpt>
      <trkpt lat="44.13653" lon="3.20286">
        <ele>845</ele>
        <time>2015-12-06T11:49:05Z</time>
      </trkpt>
      <trkpt lat="44.13648" lon="3.20284">
        <ele>845</ele>
        <time>2015-12-06T11:49:06Z</time>
      </trkpt>
      <trkpt lat="44.13645" lon="3.20283">
        <ele>844</ele>
        <time>2015-12-06T11:49:07Z</time>
      </trkpt>
      <trkpt lat="44.13644" lon="3.20281">
        <ele>844</ele>
        <time>2015-12-06T11:49:08Z</time>
      </trkpt>
      <trkpt lat="44.13642" lon="3.2028">
        <ele>844.5</ele>
        <time>2015-12-06T11:49:09Z</time>
      </trkpt>
      <trkpt lat="44.13642" lon="3.20279">
        <ele>845</ele>
        <time>2015-12-06T11:49:10Z</time>
      </trkpt>
      <trkpt lat="44.13641" lon="3.20278">
        <ele>844.5</ele>
        <time>2015-12-06T11:49:11Z</time>
      </trkpt>
      <trkpt lat="44.1364" lon="3.20277">
        <ele>843</ele>
        <time>2015-12-06T11:49:21Z</time>
      </trkpt>
      <trkpt lat="44.1364" lon="3.20275">
        <ele>843</ele>
        <time>2015-12-06T11:49:23Z</time>
      </trkpt>
      <trkpt lat="44.1364" lon="3.20273">
        <ele>843</ele>
        <time>2015-12-06T11:49:24Z</time>
      </trkpt>
      <trkpt lat="44.1364" lon="3.20272">
        <ele>842.5</ele>
        <time>2015-12-06T11:49:25Z</time>
      </trkpt>
      <trkpt lat="44.13641" lon="3.20271">
        <ele>843</ele>
        <time>2015-12-06T11:49:26Z</time>
      </trkpt>
      <trkpt lat="44.1364" lon="3.20269">
        <ele>841.5</ele>
        <time>2015-12-06T11:49:30Z</time>
      </trkpt>
      <trkpt lat="44.1364" lon="3.20269">
        <ele>840</ele>
        <time>2015-12-06T11:49:32Z</time>
      </trkpt>
      <trkpt lat="44.1364" lon="3.2027">
        <ele>840.5</ele>
        <time>2015-12-06T11:49:33Z</time>
      </trkpt>
      <trkpt lat="44.1364" lon="3.2027">
        <ele>841</ele>
        <time>2015-12-06T11:49:34Z</time>
      </trkpt>
      <trkpt lat="44.1364" lon="3.20271">
        <ele>841.5</ele>
        <time>2015-12-06T11:49:35Z</time>
      </trkpt>
      <trkpt lat="44.1364" lon="3.20271">
        <ele>841</ele>
        <time>2015-12-06T11:49:36Z</time>
      </trkpt>
      <trkpt lat="44.1364" lon="3.20271">
        <ele>840</ele>
        <time>2015-12-06T11:49:37Z</time>
      </trkpt>
      <trkpt lat="44.13641" lon="3.20271">
        <ele>838.5</ele>
        <time>2015-12-06T11:49:38Z</time>
      </trkpt>
      <trkpt lat="44.13641" lon="3.20272">
        <ele>838.5</ele>
        <time>2015-12-06T11:49:39Z</time>
      </trkpt>
      <trkpt lat="44.13641" lon="3.20272">
        <ele>838</ele>
        <time>2015-12-06T11:49:40Z</time>
      </trkpt>
      <trkpt lat="44.13641" lon="3.20273">
        <ele>837</ele>
        <time>2015-12-06T11:49:43Z</time>
      </trkpt>
      <trkpt lat="44.13641" lon="3.20273">
        <ele>836</ele>
        <time>2015-12-06T11:49:46Z</time>
      </trkpt>
      <trkpt lat="44.13641" lon="3.20273">
        <ele>835</ele>
        <time>2015-12-06T11:49:55Z</time>
      </trkpt>
      <trkpt lat="44.13643" lon="3.20273">
        <ele>835</ele>
        <time>2015-12-06T11:50:09Z</time>
      </trkpt>
      <trkpt lat="44.13643" lon="3.20272">
        <ele>835.5</ele>
        <time>2015-12-06T11:50:11Z</time>
      </trkpt>
      <trkpt lat="44.13642" lon="3.20273">
        <ele>837</ele>
        <time>2015-12-06T11:50:22Z</time>
      </trkpt>
      <trkpt lat="44.1364" lon="3.20273">
        <ele>839.5</ele>
        <time>2015-12-06T11:49:49Z</time>
      </trkpt>
      <trkpt lat="44.1364" lon="3.20272">
        <ele>840</ele>
        <time>2015-12-06T11:50:01Z</time>
      </trkpt>
      <trkpt lat="44.1364" lon="3.20273">
        <ele>840</ele>
        <time>2015-12-06T11:50:05Z</time>
      </trkpt>
      <trkpt lat="44.1364" lon="3.20274">
        <ele>840</ele>
        <time>2015-12-06T11:50:07Z</time>
      </trkpt>
      <trkpt lat="44.13639" lon="3.20273">
        <ele>837.5</ele>
        <time>2015-12-06T11:50:16Z</time>
      </trkpt>
      <trkpt lat="44.13639" lon="3.20272">
        <ele>836.5</ele>
        <time>2015-12-06T11:50:25Z</time>
      </trkpt>
      <trkpt lat="44.13639" lon="3.20272">
        <ele>836</ele>
        <time>2015-12-06T11:50:32Z</time>
      </trkpt>
      <trkpt lat="44.13639" lon="3.20272">
        <ele>837.5</ele>
        <time>2015-12-06T11:50:36Z</time>
      </trkpt>
      <trkpt lat="44.13638" lon="3.20271">
        <ele>837.5</ele>
        <time>2015-12-06T11:50:38Z</time>
      </trkpt>
      <trkpt lat="44.13638" lon="3.2027">
        <ele>838</ele>
        <time>2015-12-06T11:50:39Z</time>
      </trkpt>
      <trkpt lat="44.13638" lon="3.2027">
        <ele>838.5</ele>
        <time>2015-12-06T11:50:41Z</time>
      </trkpt>
      <trkpt lat="44.13638" lon="3.20271">
        <ele>838.5</ele>
        <time>2015-12-06T11:50:43Z</time>
      </trkpt>
      <trkpt lat="44.13638" lon="3.20271">
        <ele>839</ele>
        <time>2015-12-06T11:50:44Z</time>
      </trkpt>
      <trkpt lat="44.13638" lon="3.20272">
        <ele>839.5</ele>
        <time>2015-12-06T11:50:46Z</time>
      </trkpt>
      <trkpt lat="44.13639" lon="3.20271">
        <ele>839.5</ele>
        <time>2015-12-06T11:50:48Z</time>
      </trkpt>
      <trkpt lat="44.13638" lon="3.20271">
        <ele>839.5</ele>
        <time>2015-12-06T11:50:56Z</time>
      </trkpt>
      <trkpt lat="44.13639" lon="3.2027">
        <ele>836</ele>
        <time>2015-12-06T11:51:08Z</time>
      </trkpt>
      <trkpt lat="44.1364" lon="3.20271">
        <ele>836</ele>
        <time>2015-12-06T11:51:10Z</time>
      </trkpt>
      <trkpt lat="44.1364" lon="3.20271">
        <ele>836</ele>
        <time>2015-12-06T11:51:11Z</time>
      </trkpt>
      <trkpt lat="44.13641" lon="3.20271">
        <ele>836</ele>
        <time>2015-12-06T11:51:12Z</time>
      </trkpt>
      <trkpt lat="44.13641" lon="3.20271">
        <ele>836.5</ele>
        <time>2015-12-06T11:51:14Z</time>
      </trkpt>
      <trkpt lat="44.1364" lon="3.2027">
        <ele>837.5</ele>
        <time>2015-12-06T11:51:16Z</time>
      </trkpt>
      <trkpt lat="44.1364" lon="3.20269">
        <ele>837.5</ele>
        <time>2015-12-06T11:51:18Z</time>
      </trkpt>
      <trkpt lat="44.13638" lon="3.20269">
        <ele>837</ele>
        <time>2015-12-06T11:51:20Z</time>
      </trkpt>
      <trkpt lat="44.13637" lon="3.20268">
        <ele>837</ele>
        <time>2015-12-06T11:51:21Z</time>
      </trkpt>
      <trkpt lat="44.13637" lon="3.20268">
        <ele>837</ele>
        <time>2015-12-06T11:51:22Z</time>
      </trkpt>
      <trkpt lat="44.13636" lon="3.20268">
        <ele>836.5</ele>
        <time>2015-12-06T11:51:23Z</time>
      </trkpt>
      <trkpt lat="44.13635" lon="3.20268">
        <ele>836.5</ele>
        <time>2015-12-06T11:51:24Z</time>
      </trkpt>
      <trkpt lat="44.13635" lon="3.20268">
        <ele>837</ele>
        <time>2015-12-06T11:51:25Z</time>
      </trkpt>
      <trkpt lat="44.13634" lon="3.20268">
        <ele>837</ele>
        <time>2015-12-06T11:51:26Z</time>
      </trkpt>
      <trkpt lat="44.13635" lon="3.20267">
        <ele>838.5</ele>
        <time>2015-12-06T11:51:35Z</time>
      </trkpt>
      <trkpt lat="44.13635" lon="3.20266">
        <ele>840</ele>
        <time>2015-12-06T11:51:43Z</time>
      </trkpt>
      <trkpt lat="44.13635" lon="3.20266">
        <ele>841</ele>
        <time>2015-12-06T11:51:58Z</time>
      </trkpt>
      <trkpt lat="44.13635" lon="3.20266">
        <ele>842</ele>
        <time>2015-12-06T11:52:04Z</time>
      </trkpt>
      <trkpt lat="44.13636" lon="3.20267">
        <ele>842</ele>
        <time>2015-12-06T11:52:06Z</time>
      </trkpt>
      <trkpt lat="44.13637" lon="3.20267">
        <ele>841.5</ele>
        <time>2015-12-06T11:52:07Z</time>
      </trkpt>
      <trkpt lat="44.13638" lon="3.20268">
        <ele>842</ele>
        <time>2015-12-06T11:52:08Z</time>
      </trkpt>
      <trkpt lat="44.13638" lon="3.20268">
        <ele>841.5</ele>
        <time>2015-12-06T11:52:09Z</time>
      </trkpt>
      <trkpt lat="44.13639" lon="3.20269">
        <ele>841.5</ele>
        <time>2015-12-06T11:52:10Z</time>
      </trkpt>
      <trkpt lat="44.1364" lon="3.20269">
        <ele>842.5</ele>
        <time>2015-12-06T11:52:11Z</time>
      </trkpt>
      <trkpt lat="44.1364" lon="3.2027">
        <ele>842.5</ele>
        <time>2015-12-06T11:52:12Z</time>
      </trkpt>
      <trkpt lat="44.13641" lon="3.20269">
        <ele>842</ele>
        <time>2015-12-06T11:52:19Z</time>
      </trkpt>
      <trkpt lat="44.1364" lon="3.20269">
        <ele>841</ele>
        <time>2015-12-06T11:52:23Z</time>
      </trkpt>
      <trkpt lat="44.13639" lon="3.20272">
        <ele>841</ele>
        <time>2015-12-06T11:52:50Z</time>
      </trkpt>
      <trkpt lat="44.1364" lon="3.20271">
        <ele>841</ele>
        <time>2015-12-06T11:52:56Z</time>
      </trkpt>
      <trkpt lat="44.1364" lon="3.2027">
        <ele>840</ele>
        <time>2015-12-06T11:53:01Z</time>
      </trkpt>
      <trkpt lat="44.13639" lon="3.20269">
        <ele>835.5</ele>
        <time>2015-12-06T11:53:28Z</time>
      </trkpt>
      <trkpt lat="44.1364" lon="3.20269">
        <ele>834.5</ele>
        <time>2015-12-06T11:53:34Z</time>
      </trkpt>
      <trkpt lat="44.13641" lon="3.20269">
        <ele>835</ele>
        <time>2015-12-06T11:53:40Z</time>
      </trkpt>
      <trkpt lat="44.13641" lon="3.2027">
        <ele>835</ele>
        <time>2015-12-06T11:53:42Z</time>
      </trkpt>
      <trkpt lat="44.1364" lon="3.2027">
        <ele>835.5</ele>
        <time>2015-12-06T11:53:44Z</time>
      </trkpt>
      <trkpt lat="44.13641" lon="3.20269">
        <ele>835.5</ele>
        <time>2015-12-06T11:53:46Z</time>
      </trkpt>
      <trkpt lat="44.13641" lon="3.20268">
        <ele>835.5</ele>
        <time>2015-12-06T11:53:47Z</time>
      </trkpt>
      <trkpt lat="44.1364" lon="3.20268">
        <ele>835.5</ele>
        <time>2015-12-06T11:53:48Z</time>
      </trkpt>
      <trkpt lat="44.1364" lon="3.20268">
        <ele>835.5</ele>
        <time>2015-12-06T11:53:49Z</time>
      </trkpt>
      <trkpt lat="44.1364" lon="3.20269">
        <ele>835.5</ele>
        <time>2015-12-06T11:53:50Z</time>
      </trkpt>
      <trkpt lat="44.13639" lon="3.20269">
        <ele>835</ele>
        <time>2015-12-06T11:54:06Z</time>
      </trkpt>
      <trkpt lat="44.1364" lon="3.20267">
        <ele>833.5</ele>
        <time>2015-12-06T11:54:15Z</time>
      </trkpt>
      <trkpt lat="44.1364" lon="3.20267">
        <ele>833.5</ele>
        <time>2015-12-06T11:54:17Z</time>
      </trkpt>
      <trkpt lat="44.1364" lon="3.20268">
        <ele>833</ele>
        <time>2015-12-06T11:54:21Z</time>
      </trkpt>
      <trkpt lat="44.1364" lon="3.20267">
        <ele>833.5</ele>
        <time>2015-12-06T11:54:23Z</time>
      </trkpt>
      <trkpt lat="44.1364" lon="3.20267">
        <ele>833</ele>
        <time>2015-12-06T11:54:24Z</time>
      </trkpt>
      <trkpt lat="44.1364" lon="3.20267">
        <ele>834.5</ele>
        <time>2015-12-06T11:54:36Z</time>
      </trkpt>
      <trkpt lat="44.13641" lon="3.20268">
        <ele>835</ele>
        <time>2015-12-06T11:54:38Z</time>
      </trkpt>
      <trkpt lat="44.13642" lon="3.20267">
        <ele>835.5</ele>
        <time>2015-12-06T11:54:42Z</time>
      </trkpt>
      <trkpt lat="44.13642" lon="3.20267">
        <ele>836</ele>
        <time>2015-12-06T11:54:44Z</time>
      </trkpt>
      <trkpt lat="44.13641" lon="3.20267">
        <ele>836.5</ele>
        <time>2015-12-06T11:54:45Z</time>
      </trkpt>
      <trkpt lat="44.1364" lon="3.20267">
        <ele>836.5</ele>
        <time>2015-12-06T11:54:46Z</time>
      </trkpt>
      <trkpt lat="44.1364" lon="3.20267">
        <ele>836.5</ele>
        <time>2015-12-06T11:54:47Z</time>
      </trkpt>
      <trkpt lat="44.13639" lon="3.20267">
        <ele>836.5</ele>
        <time>2015-12-06T11:54:48Z</time>
      </trkpt>
      <trkpt lat="44.13639" lon="3.20266">
        <ele>836</ele>
        <time>2015-12-06T11:54:49Z</time>
      </trkpt>
      <trkpt lat="44.13638" lon="3.20266">
        <ele>835.5</ele>
        <time>2015-12-06T11:54:50Z</time>
      </trkpt>
      <trkpt lat="44.13638" lon="3.20265">
        <ele>835</ele>
        <time>2015-12-06T11:54:51Z</time>
      </trkpt>
      <trkpt lat="44.13638" lon="3.20264">
        <ele>835</ele>
        <time>2015-12-06T11:54:52Z</time>
      </trkpt>
      <trkpt lat="44.13637" lon="3.20262">
        <ele>834.5</ele>
        <time>2015-12-06T11:54:54Z</time>
      </trkpt>
      <trkpt lat="44.13637" lon="3.20261">
        <ele>834</ele>
        <time>2015-12-06T11:54:55Z</time>
      </trkpt>
      <trkpt lat="44.13637" lon="3.20261">
        <ele>833.5</ele>
        <time>2015-12-06T11:54:56Z</time>
      </trkpt>
      <trkpt lat="44.13637" lon="3.20261">
        <ele>834</ele>
        <time>2015-12-06T11:54:57Z</time>
      </trkpt>
      <trkpt lat="44.13638" lon="3.2026">
        <ele>834</ele>
        <time>2015-12-06T11:54:58Z</time>
      </trkpt>
      <trkpt lat="44.13638" lon="3.2026">
        <ele>833.5</ele>
        <time>2015-12-06T11:55:05Z</time>
      </trkpt>
      <trkpt lat="44.13638" lon="3.20258">
        <ele>832.5</ele>
        <time>2015-12-06T11:55:08Z</time>
      </trkpt>
      <trkpt lat="44.13637" lon="3.20259">
        <ele>832</ele>
        <time>2015-12-06T11:55:10Z</time>
      </trkpt>
      <trkpt lat="44.13637" lon="3.20259">
        <ele>831.5</ele>
        <time>2015-12-06T11:55:12Z</time>
      </trkpt>
      <trkpt lat="44.13636" lon="3.20259">
        <ele>831.5</ele>
        <time>2015-12-06T11:55:14Z</time>
      </trkpt>
      <trkpt lat="44.13635" lon="3.20259">
        <ele>831.5</ele>
        <time>2015-12-06T11:55:15Z</time>
      </trkpt>
      <trkpt lat="44.13634" lon="3.20259">
        <ele>831.5</ele>
        <time>2015-12-06T11:55:16Z</time>
      </trkpt>
      <trkpt lat="44.13632" lon="3.20258">
        <ele>832</ele>
        <time>2015-12-06T11:55:17Z</time>
      </trkpt>
      <trkpt lat="44.13629" lon="3.20256">
        <ele>832</ele>
        <time>2015-12-06T11:55:18Z</time>
      </trkpt>
      <trkpt lat="44.13625" lon="3.20256">
        <ele>833</ele>
        <time>2015-12-06T11:55:19Z</time>
      </trkpt>
      <trkpt lat="44.13614" lon="3.20259">
        <ele>833</ele>
        <time>2015-12-06T11:55:21Z</time>
      </trkpt>
      <trkpt lat="44.13607" lon="3.20257">
        <ele>834</ele>
        <time>2015-12-06T11:55:22Z</time>
      </trkpt>
      <trkpt lat="44.13602" lon="3.2025">
        <ele>834</ele>
        <time>2015-12-06T11:55:23Z</time>
      </trkpt>
      <trkpt lat="44.13598" lon="3.20242">
        <ele>833.5</ele>
        <time>2015-12-06T11:55:24Z</time>
      </trkpt>
      <trkpt lat="44.13594" lon="3.20233">
        <ele>833.5</ele>
        <time>2015-12-06T11:55:25Z</time>
      </trkpt>
      <trkpt lat="44.1359" lon="3.20225">
        <ele>834.5</ele>
        <time>2015-12-06T11:55:26Z</time>
      </trkpt>
      <trkpt lat="44.13586" lon="3.20216">
        <ele>834.5</ele>
        <time>2015-12-06T11:55:27Z</time>
      </trkpt>
      <trkpt lat="44.13581" lon="3.20208">
        <ele>834</ele>
        <time>2015-12-06T11:55:28Z</time>
      </trkpt>
      <trkpt lat="44.13575" lon="3.20203">
        <ele>834.5</ele>
        <time>2015-12-06T11:55:29Z</time>
      </trkpt>
      <trkpt lat="44.13568" lon="3.20199">
        <ele>834</ele>
        <time>2015-12-06T11:55:31Z</time>
      </trkpt>
      <trkpt lat="44.13564" lon="3.20199">
        <ele>834</ele>
        <time>2015-12-06T11:55:32Z</time>
      </trkpt>
      <trkpt lat="44.13561" lon="3.20198">
        <ele>834</ele>
        <time>2015-12-06T11:55:33Z</time>
      </trkpt>
      <trkpt lat="44.13559" lon="3.20198">
        <ele>834</ele>
        <time>2015-12-06T11:55:34Z</time>
      </trkpt>
      <trkpt lat="44.13557" lon="3.20198">
        <ele>834.5</ele>
        <time>2015-12-06T11:55:36Z</time>
      </trkpt>
      <trkpt lat="44.13557" lon="3.20198">
        <ele>835</ele>
        <time>2015-12-06T11:55:37Z</time>
      </trkpt>
      <trkpt lat="44.13556" lon="3.20199">
        <ele>835</ele>
        <time>2015-12-06T11:55:38Z</time>
      </trkpt>
      <trkpt lat="44.13548" lon="3.202">
        <ele>835.5</ele>
        <time>2015-12-06T11:55:40Z</time>
      </trkpt>
      <trkpt lat="44.13522" lon="3.20205">
        <ele>836</ele>
        <time>2015-12-06T11:56:49Z</time>
      </trkpt>
      <trkpt lat="44.13516" lon="3.20203">
        <ele>834</ele>
        <time>2015-12-06T11:56:50Z</time>
      </trkpt>
      <trkpt lat="44.1351" lon="3.20202">
        <ele>834</ele>
        <time>2015-12-06T11:56:51Z</time>
      </trkpt>
      <trkpt lat="44.13504" lon="3.20202">
        <ele>833.5</ele>
        <time>2015-12-06T11:56:55Z</time>
      </trkpt>
      <trkpt lat="44.13505" lon="3.202">
        <ele>832.5</ele>
        <time>2015-12-06T11:56:58Z</time>
      </trkpt>
      <trkpt lat="44.13506" lon="3.20198">
        <ele>830.5</ele>
        <time>2015-12-06T11:57:00Z</time>
      </trkpt>
      <trkpt lat="44.13507" lon="3.20197">
        <ele>829</ele>
        <time>2015-12-06T11:57:01Z</time>
      </trkpt>
      <trkpt lat="44.13508" lon="3.20195">
        <ele>827.5</ele>
        <time>2015-12-06T11:57:02Z</time>
      </trkpt>
      <trkpt lat="44.13509" lon="3.20193">
        <ele>824</ele>
        <time>2015-12-06T11:57:06Z</time>
      </trkpt>
      <trkpt lat="44.13509" lon="3.20192">
        <ele>822.5</ele>
        <time>2015-12-06T11:57:08Z</time>
      </trkpt>
      <trkpt lat="44.13509" lon="3.20189">
        <ele>820</ele>
        <time>2015-12-06T11:56:38Z</time>
      </trkpt>
      <trkpt lat="44.1351" lon="3.20187">
        <ele>818</ele>
        <time>2015-12-06T11:56:48Z</time>
      </trkpt>
      <trkpt lat="44.13512" lon="3.20186">
        <ele>818.5</ele>
        <time>2015-12-06T11:56:50Z</time>
      </trkpt>
      <trkpt lat="44.13513" lon="3.20187">
        <ele>818.5</ele>
        <time>2015-12-06T11:56:56Z</time>
      </trkpt>
      <trkpt lat="44.13513" lon="3.20185">
        <ele>819</ele>
        <time>2015-12-06T11:56:58Z</time>
      </trkpt>
      <trkpt lat="44.13514" lon="3.20184">
        <ele>819.5</ele>
        <time>2015-12-06T11:56:59Z</time>
      </trkpt>
      <trkpt lat="44.13511" lon="3.20175">
        <ele>818.5</ele>
        <time>2015-12-06T11:57:01Z</time>
      </trkpt>
      <trkpt lat="44.1351" lon="3.2017">
        <ele>818</ele>
        <time>2015-12-06T11:57:02Z</time>
      </trkpt>
      <trkpt lat="44.13508" lon="3.20166">
        <ele>815.5</ele>
        <time>2015-12-06T11:57:03Z</time>
      </trkpt>
      <trkpt lat="44.13505" lon="3.20163">
        <ele>815.5</ele>
        <time>2015-12-06T11:57:04Z</time>
      </trkpt>
      <trkpt lat="44.13504" lon="3.20159">
        <ele>815.5</ele>
        <time>2015-12-06T11:57:05Z</time>
      </trkpt>
      <trkpt lat="44.135" lon="3.20157">
        <ele>815.5</ele>
        <time>2015-12-06T11:57:06Z</time>
      </trkpt>
      <trkpt lat="44.13495" lon="3.20154">
        <ele>815.5</ele>
        <time>2015-12-06T11:57:07Z</time>
      </trkpt>
      <trkpt lat="44.1349" lon="3.2015">
        <ele>815.5</ele>
        <time>2015-12-06T11:57:08Z</time>
      </trkpt>
      <trkpt lat="44.13488" lon="3.20143">
        <ele>815.5</ele>
        <time>2015-12-06T11:57:09Z</time>
      </trkpt>
      <trkpt lat="44.13486" lon="3.20136">
        <ele>815.5</ele>
        <time>2015-12-06T11:57:10Z</time>
      </trkpt>
      <trkpt lat="44.13485" lon="3.20129">
        <ele>814</ele>
        <time>2015-12-06T11:57:11Z</time>
      </trkpt>
      <trkpt lat="44.13481" lon="3.20122">
        <ele>813</ele>
        <time>2015-12-06T11:57:12Z</time>
      </trkpt>
      <trkpt lat="44.13475" lon="3.20119">
        <ele>814.5</ele>
        <time>2015-12-06T11:57:13Z</time>
      </trkpt>
      <trkpt lat="44.1347" lon="3.20119">
        <ele>815.5</ele>
        <time>2015-12-06T11:57:14Z</time>
      </trkpt>
      <trkpt lat="44.13464" lon="3.20116">
        <ele>815.5</ele>
        <time>2015-12-06T11:57:15Z</time>
      </trkpt>
      <trkpt lat="44.13458" lon="3.20116">
        <ele>816.5</ele>
        <time>2015-12-06T11:57:16Z</time>
      </trkpt>
      <trkpt lat="44.13454" lon="3.20114">
        <ele>817</ele>
        <time>2015-12-06T11:57:17Z</time>
      </trkpt>
      <trkpt lat="44.13449" lon="3.20111">
        <ele>818.5</ele>
        <time>2015-12-06T11:57:19Z</time>
      </trkpt>
      <trkpt lat="44.13447" lon="3.2011">
        <ele>818</ele>
        <time>2015-12-06T11:57:20Z</time>
      </trkpt>
      <trkpt lat="44.13446" lon="3.2011">
        <ele>818.5</ele>
        <time>2015-12-06T11:57:21Z</time>
      </trkpt>
      <trkpt lat="44.13444" lon="3.2011">
        <ele>819.5</ele>
        <time>2015-12-06T11:57:22Z</time>
      </trkpt>
      <trkpt lat="44.13443" lon="3.2011">
        <ele>819.5</ele>
        <time>2015-12-06T11:57:23Z</time>
      </trkpt>
      <trkpt lat="44.13442" lon="3.2011">
        <ele>820.5</ele>
        <time>2015-12-06T11:57:24Z</time>
      </trkpt>
      <trkpt lat="44.1344" lon="3.20109">
        <ele>821</ele>
        <time>2015-12-06T11:57:25Z</time>
      </trkpt>
      <trkpt lat="44.13439" lon="3.20108">
        <ele>821.5</ele>
        <time>2015-12-06T11:57:26Z</time>
      </trkpt>
      <trkpt lat="44.13437" lon="3.20106">
        <ele>822</ele>
        <time>2015-12-06T11:57:27Z</time>
      </trkpt>
      <trkpt lat="44.13435" lon="3.20105">
        <ele>821.5</ele>
        <time>2015-12-06T11:57:28Z</time>
      </trkpt>
      <trkpt lat="44.13433" lon="3.20106">
        <ele>823</ele>
        <time>2015-12-06T11:57:29Z</time>
      </trkpt>
      <trkpt lat="44.13431" lon="3.20106">
        <ele>824</ele>
        <time>2015-12-06T11:57:30Z</time>
      </trkpt>
      <trkpt lat="44.13428" lon="3.20106">
        <ele>823</ele>
        <time>2015-12-06T11:57:31Z</time>
      </trkpt>
      <trkpt lat="44.13425" lon="3.20106">
        <ele>823.5</ele>
        <time>2015-12-06T11:57:32Z</time>
      </trkpt>
      <trkpt lat="44.1342" lon="3.20107">
        <ele>825.5</ele>
        <time>2015-12-06T11:57:33Z</time>
      </trkpt>
      <trkpt lat="44.13416" lon="3.20106">
        <ele>825.5</ele>
        <time>2015-12-06T11:57:34Z</time>
      </trkpt>
      <trkpt lat="44.13413" lon="3.20105">
        <ele>825.5</ele>
        <time>2015-12-06T11:57:35Z</time>
      </trkpt>
      <trkpt lat="44.13409" lon="3.20103">
        <ele>825.5</ele>
        <time>2015-12-06T11:57:36Z</time>
      </trkpt>
      <trkpt lat="44.13406" lon="3.20101">
        <ele>825.5</ele>
        <time>2015-12-06T11:57:37Z</time>
      </trkpt>
      <trkpt lat="44.13402" lon="3.20099">
        <ele>825</ele>
        <time>2015-12-06T11:57:38Z</time>
      </trkpt>
      <trkpt lat="44.13399" lon="3.201">
        <ele>826</ele>
        <time>2015-12-06T11:57:38Z</time>
      </trkpt>
      <trkpt lat="44.13396" lon="3.201">
        <ele>824</ele>
        <time>2015-12-06T11:57:40Z</time>
      </trkpt>
      <trkpt lat="44.13393" lon="3.20102">
        <ele>824.5</ele>
        <time>2015-12-06T11:57:41Z</time>
      </trkpt>
      <trkpt lat="44.13392" lon="3.20103">
        <ele>824.5</ele>
        <time>2015-12-06T11:57:41Z</time>
      </trkpt>
      <trkpt lat="44.13389" lon="3.20105">
        <ele>825.5</ele>
        <time>2015-12-06T11:57:43Z</time>
      </trkpt>
      <trkpt lat="44.13387" lon="3.20107">
        <ele>826</ele>
        <time>2015-12-06T11:57:43Z</time>
      </trkpt>
      <trkpt lat="44.13385" lon="3.20109">
        <ele>827</ele>
        <time>2015-12-06T11:57:44Z</time>
      </trkpt>
      <trkpt lat="44.13382" lon="3.2011">
        <ele>827.5</ele>
        <time>2015-12-06T11:57:46Z</time>
      </trkpt>
      <trkpt lat="44.1338" lon="3.20111">
        <ele>828.5</ele>
        <time>2015-12-06T11:57:46Z</time>
      </trkpt>
      <trkpt lat="44.13377" lon="3.20112">
        <ele>827.5</ele>
        <time>2015-12-06T11:57:47Z</time>
      </trkpt>
      <trkpt lat="44.13374" lon="3.2011">
        <ele>825</ele>
        <time>2015-12-06T11:57:48Z</time>
      </trkpt>
      <trkpt lat="44.13371" lon="3.2011">
        <ele>825.5</ele>
        <time>2015-12-06T11:57:49Z</time>
      </trkpt>
      <trkpt lat="44.13368" lon="3.20107">
        <ele>823.5</ele>
        <time>2015-12-06T11:57:50Z</time>
      </trkpt>
      <trkpt lat="44.13365" lon="3.20105">
        <ele>821.5</ele>
        <time>2015-12-06T11:57:52Z</time>
      </trkpt>
      <trkpt lat="44.13362" lon="3.20104">
        <ele>821.5</ele>
        <time>2015-12-06T11:57:52Z</time>
      </trkpt>
      <trkpt lat="44.13359" lon="3.20104">
        <ele>822</ele>
        <time>2015-12-06T11:57:53Z</time>
      </trkpt>
      <trkpt lat="44.13357" lon="3.20104">
        <ele>823.5</ele>
        <time>2015-12-06T11:57:54Z</time>
      </trkpt>
      <trkpt lat="44.13355" lon="3.20104">
        <ele>825</ele>
        <time>2015-12-06T11:57:55Z</time>
      </trkpt>
      <trkpt lat="44.13353" lon="3.20103">
        <ele>826</ele>
        <time>2015-12-06T11:57:56Z</time>
      </trkpt>
      <trkpt lat="44.13351" lon="3.20103">
        <ele>826</ele>
        <time>2015-12-06T11:57:57Z</time>
      </trkpt>
      <trkpt lat="44.1335" lon="3.20102">
        <ele>826</ele>
        <time>2015-12-06T11:57:58Z</time>
      </trkpt>
      <trkpt lat="44.13348" lon="3.20101">
        <ele>826.5</ele>
        <time>2015-12-06T11:57:59Z</time>
      </trkpt>
      <trkpt lat="44.13345" lon="3.201">
        <ele>826.5</ele>
        <time>2015-12-06T11:58:00Z</time>
      </trkpt>
      <trkpt lat="44.13343" lon="3.20099">
        <ele>826.5</ele>
        <time>2015-12-06T11:58:01Z</time>
      </trkpt>
      <trkpt lat="44.13341" lon="3.20097">
        <ele>826</ele>
        <time>2015-12-06T11:58:02Z</time>
      </trkpt>
      <trkpt lat="44.13337" lon="3.20098">
        <ele>828</ele>
        <time>2015-12-06T11:58:03Z</time>
      </trkpt>
      <trkpt lat="44.13334" lon="3.20098">
        <ele>828.5</ele>
        <time>2015-12-06T11:58:04Z</time>
      </trkpt>
      <trkpt lat="44.13331" lon="3.20098">
        <ele>828.5</ele>
        <time>2015-12-06T11:58:05Z</time>
      </trkpt>
      <trkpt lat="44.13329" lon="3.20098">
        <ele>829</ele>
        <time>2015-12-06T11:58:06Z</time>
      </trkpt>
      <trkpt lat="44.13326" lon="3.20099">
        <ele>828.5</ele>
        <time>2015-12-06T11:58:07Z</time>
      </trkpt>
      <trkpt lat="44.13322" lon="3.20099">
        <ele>828</ele>
        <time>2015-12-06T11:58:08Z</time>
      </trkpt>
      <trkpt lat="44.13318" lon="3.20098">
        <ele>828.5</ele>
        <time>2015-12-06T11:58:09Z</time>
      </trkpt>
      <trkpt lat="44.13315" lon="3.20096">
        <ele>829</ele>
        <time>2015-12-06T11:58:10Z</time>
      </trkpt>
      <trkpt lat="44.13312" lon="3.20095">
        <ele>830.5</ele>
        <time>2015-12-06T11:58:11Z</time>
      </trkpt>
      <trkpt lat="44.13309" lon="3.20094">
        <ele>830.5</ele>
        <time>2015-12-06T11:58:13Z</time>
      </trkpt>
      <trkpt lat="44.13306" lon="3.20093">
        <ele>830</ele>
        <time>2015-12-06T11:58:13Z</time>
      </trkpt>
      <trkpt lat="44.13301" lon="3.2009">
        <ele>829</ele>
        <time>2015-12-06T11:58:14Z</time>
      </trkpt>
      <trkpt lat="44.13296" lon="3.20086">
        <ele>829</ele>
        <time>2015-12-06T11:58:15Z</time>
      </trkpt>
      <trkpt lat="44.13292" lon="3.20082">
        <ele>830</ele>
        <time>2015-12-06T11:58:16Z</time>
      </trkpt>
      <trkpt lat="44.13288" lon="3.20079">
        <ele>830</ele>
        <time>2015-12-06T11:58:17Z</time>
      </trkpt>
      <trkpt lat="44.13285" lon="3.20077">
        <ele>829.5</ele>
        <time>2015-12-06T11:58:18Z</time>
      </trkpt>
      <trkpt lat="44.13281" lon="3.20074">
        <ele>829</ele>
        <time>2015-12-06T11:58:19Z</time>
      </trkpt>
      <trkpt lat="44.13278" lon="3.20072">
        <ele>828.5</ele>
        <time>2015-12-06T11:58:20Z</time>
      </trkpt>
      <trkpt lat="44.13276" lon="3.2007">
        <ele>828</ele>
        <time>2015-12-06T11:58:21Z</time>
      </trkpt>
      <trkpt lat="44.13273" lon="3.2007">
        <ele>827.5</ele>
        <time>2015-12-06T11:58:22Z</time>
      </trkpt>
      <trkpt lat="44.13272" lon="3.20069">
        <ele>827.5</ele>
        <time>2015-12-06T11:58:23Z</time>
      </trkpt>
      <trkpt lat="44.1327" lon="3.20069">
        <ele>827.5</ele>
        <time>2015-12-06T11:58:24Z</time>
      </trkpt>
      <trkpt lat="44.13269" lon="3.20069">
        <ele>826.5</ele>
        <time>2015-12-06T11:58:25Z</time>
      </trkpt>
      <trkpt lat="44.13268" lon="3.20069">
        <ele>825.5</ele>
        <time>2015-12-06T11:58:26Z</time>
      </trkpt>
      <trkpt lat="44.13268" lon="3.2007">
        <ele>825</ele>
        <time>2015-12-06T11:58:27Z</time>
      </trkpt>
      <trkpt lat="44.13266" lon="3.20071">
        <ele>822.5</ele>
        <time>2015-12-06T11:58:28Z</time>
      </trkpt>
      <trkpt lat="44.13265" lon="3.20071">
        <ele>825</ele>
        <time>2015-12-06T11:58:29Z</time>
      </trkpt>
      <trkpt lat="44.13264" lon="3.2007">
        <ele>824.5</ele>
        <time>2015-12-06T11:58:30Z</time>
      </trkpt>
      <trkpt lat="44.13262" lon="3.20068">
        <ele>824.5</ele>
        <time>2015-12-06T11:58:31Z</time>
      </trkpt>
      <trkpt lat="44.1326" lon="3.20067">
        <ele>824</ele>
        <time>2015-12-06T11:58:32Z</time>
      </trkpt>
      <trkpt lat="44.13258" lon="3.20067">
        <ele>825.5</ele>
        <time>2015-12-06T11:58:33Z</time>
      </trkpt>
      <trkpt lat="44.13257" lon="3.20066">
        <ele>825.5</ele>
        <time>2015-12-06T11:58:34Z</time>
      </trkpt>
      <trkpt lat="44.13255" lon="3.20066">
        <ele>824.5</ele>
        <time>2015-12-06T11:58:35Z</time>
      </trkpt>
      <trkpt lat="44.13253" lon="3.20066">
        <ele>824.5</ele>
        <time>2015-12-06T11:58:36Z</time>
      </trkpt>
      <trkpt lat="44.1325" lon="3.20061">
        <ele>826</ele>
        <time>2015-12-06T11:58:39Z</time>
      </trkpt>
      <trkpt lat="44.13248" lon="3.20057">
        <ele>826.5</ele>
        <time>2015-12-06T11:58:41Z</time>
      </trkpt>
      <trkpt lat="44.13246" lon="3.20055">
        <ele>829.5</ele>
        <time>2015-12-06T11:58:42Z</time>
      </trkpt>
      <trkpt lat="44.13245" lon="3.20053">
        <ele>830.5</ele>
        <time>2015-12-06T11:58:43Z</time>
      </trkpt>
      <trkpt lat="44.13244" lon="3.20052">
        <ele>831.5</ele>
        <time>2015-12-06T11:58:44Z</time>
      </trkpt>
      <trkpt lat="44.13243" lon="3.20051">
        <ele>832.5</ele>
        <time>2015-12-06T11:58:45Z</time>
      </trkpt>
      <trkpt lat="44.13242" lon="3.20051">
        <ele>834</ele>
        <time>2015-12-06T11:58:46Z</time>
      </trkpt>
      <trkpt lat="44.13241" lon="3.2005">
        <ele>834.5</ele>
        <time>2015-12-06T11:58:51Z</time>
      </trkpt>
      <trkpt lat="44.13239" lon="3.2005">
        <ele>834.5</ele>
        <time>2015-12-06T11:58:53Z</time>
      </trkpt>
      <trkpt lat="44.13238" lon="3.2005">
        <ele>834</ele>
        <time>2015-12-06T11:58:54Z</time>
      </trkpt>
      <trkpt lat="44.13237" lon="3.2005">
        <ele>833.5</ele>
        <time>2015-12-06T11:58:55Z</time>
      </trkpt>
      <trkpt lat="44.13237" lon="3.2005">
        <ele>833</ele>
        <time>2015-12-06T11:58:56Z</time>
      </trkpt>
      <trkpt lat="44.13236" lon="3.20049">
        <ele>832</ele>
        <time>2015-12-06T11:58:59Z</time>
      </trkpt>
      <trkpt lat="44.13234" lon="3.20049">
        <ele>831.5</ele>
        <time>2015-12-06T11:59:01Z</time>
      </trkpt>
      <trkpt lat="44.13233" lon="3.20049">
        <ele>831.5</ele>
        <time>2015-12-06T11:59:02Z</time>
      </trkpt>
      <trkpt lat="44.13232" lon="3.2005">
        <ele>830.5</ele>
        <time>2015-12-06T11:59:03Z</time>
      </trkpt>
      <trkpt lat="44.13231" lon="3.2005">
        <ele>831</ele>
        <time>2015-12-06T11:59:04Z</time>
      </trkpt>
      <trkpt lat="44.1323" lon="3.2005">
        <ele>830.5</ele>
        <time>2015-12-06T11:59:05Z</time>
      </trkpt>
      <trkpt lat="44.13229" lon="3.2005">
        <ele>830.5</ele>
        <time>2015-12-06T11:59:06Z</time>
      </trkpt>
      <trkpt lat="44.13228" lon="3.2005">
        <ele>830.5</ele>
        <time>2015-12-06T11:59:07Z</time>
      </trkpt>
      <trkpt lat="44.13227" lon="3.2005">
        <ele>830</ele>
        <time>2015-12-06T11:59:08Z</time>
      </trkpt>
      <trkpt lat="44.13226" lon="3.20051">
        <ele>830</ele>
        <time>2015-12-06T11:59:09Z</time>
      </trkpt>
      <trkpt lat="44.13225" lon="3.20051">
        <ele>830</ele>
        <time>2015-12-06T11:59:10Z</time>
      </trkpt>
      <trkpt lat="44.13225" lon="3.20052">
        <ele>830</ele>
        <time>2015-12-06T11:59:11Z</time>
      </trkpt>
      <trkpt lat="44.13224" lon="3.20052">
        <ele>830</ele>
        <time>2015-12-06T11:59:12Z</time>
      </trkpt>
      <trkpt lat="44.13223" lon="3.20053">
        <ele>830</ele>
        <time>2015-12-06T11:59:13Z</time>
      </trkpt>
      <trkpt lat="44.13223" lon="3.20053">
        <ele>830.5</ele>
        <time>2015-12-06T11:59:14Z</time>
      </trkpt>
      <trkpt lat="44.13222" lon="3.20053">
        <ele>830</ele>
        <time>2015-12-06T11:59:15Z</time>
      </trkpt>
      <trkpt lat="44.13222" lon="3.20054">
        <ele>830</ele>
        <time>2015-12-06T11:59:16Z</time>
      </trkpt>
      <trkpt lat="44.13221" lon="3.20054">
        <ele>830</ele>
        <time>2015-12-06T11:59:17Z</time>
      </trkpt>
      <trkpt lat="44.1322" lon="3.20055">
        <ele>829.5</ele>
        <time>2015-12-06T11:59:18Z</time>
      </trkpt>
      <trkpt lat="44.1322" lon="3.20055">
        <ele>829.5</ele>
        <time>2015-12-06T11:59:19Z</time>
      </trkpt>
      <trkpt lat="44.13219" lon="3.20056">
        <ele>829.5</ele>
        <time>2015-12-06T11:59:20Z</time>
      </trkpt>
      <trkpt lat="44.13219" lon="3.20055">
        <ele>829.5</ele>
        <time>2015-12-06T11:59:21Z</time>
      </trkpt>
      <trkpt lat="44.13218" lon="3.20055">
        <ele>829.5</ele>
        <time>2015-12-06T11:59:22Z</time>
      </trkpt>
      <trkpt lat="44.13217" lon="3.20056">
        <ele>829</ele>
        <time>2015-12-06T11:59:23Z</time>
      </trkpt>
      <trkpt lat="44.13217" lon="3.20056">
        <ele>829</ele>
        <time>2015-12-06T11:59:24Z</time>
      </trkpt>
      <trkpt lat="44.13216" lon="3.20056">
        <ele>829</ele>
        <time>2015-12-06T11:59:25Z</time>
      </trkpt>
      <trkpt lat="44.13216" lon="3.20054">
        <ele>827</ele>
        <time>2015-12-06T11:59:38Z</time>
      </trkpt>
      <trkpt lat="44.13216" lon="3.20053">
        <ele>827</ele>
        <time>2015-12-06T11:59:40Z</time>
      </trkpt>
      <trkpt lat="44.13216" lon="3.20053">
        <ele>827</ele>
        <time>2015-12-06T11:59:41Z</time>
      </trkpt>
      <trkpt lat="44.13217" lon="3.20051">
        <ele>826.5</ele>
        <time>2015-12-06T11:59:42Z</time>
      </trkpt>
      <trkpt lat="44.13217" lon="3.2005">
        <ele>826.5</ele>
        <time>2015-12-06T11:59:43Z</time>
      </trkpt>
      <trkpt lat="44.13217" lon="3.20049">
        <ele>826</ele>
        <time>2015-12-06T11:59:44Z</time>
      </trkpt>
      <trkpt lat="44.13217" lon="3.20048">
        <ele>826</ele>
        <time>2015-12-06T11:59:45Z</time>
      </trkpt>
      <trkpt lat="44.13217" lon="3.20047">
        <ele>826.5</ele>
        <time>2015-12-06T11:59:47Z</time>
      </trkpt>
      <trkpt lat="44.13217" lon="3.20046">
        <ele>826.5</ele>
        <time>2015-12-06T11:59:49Z</time>
      </trkpt>
      <trkpt lat="44.13216" lon="3.20046">
        <ele>826.5</ele>
        <time>2015-12-06T11:59:50Z</time>
      </trkpt>
      <trkpt lat="44.13216" lon="3.20045">
        <ele>826.5</ele>
        <time>2015-12-06T11:59:51Z</time>
      </trkpt>
      <trkpt lat="44.13217" lon="3.20044">
        <ele>825.5</ele>
        <time>2015-12-06T11:59:53Z</time>
      </trkpt>
      <trkpt lat="44.13217" lon="3.20044">
        <ele>825.5</ele>
        <time>2015-12-06T11:59:56Z</time>
      </trkpt>
      <trkpt lat="44.13216" lon="3.20043">
        <ele>824.5</ele>
        <time>2015-12-06T12:00:02Z</time>
      </trkpt>
      <trkpt lat="44.13217" lon="3.20044">
        <ele>824.5</ele>
        <time>2015-12-06T12:00:04Z</time>
      </trkpt>
      <trkpt lat="44.13217" lon="3.20043">
        <ele>824.5</ele>
        <time>2015-12-06T12:00:05Z</time>
      </trkpt>
      <trkpt lat="44.13216" lon="3.20043">
        <ele>825</ele>
        <time>2015-12-06T12:00:06Z</time>
      </trkpt>
      <trkpt lat="44.13216" lon="3.20042">
        <ele>821.5</ele>
        <time>2015-12-06T12:00:20Z</time>
      </trkpt>
      <trkpt lat="44.13216" lon="3.20039">
        <ele>823</ele>
        <time>2015-12-06T12:00:22Z</time>
      </trkpt>
      <trkpt lat="44.13217" lon="3.20039">
        <ele>823</ele>
        <time>2015-12-06T12:00:23Z</time>
      </trkpt>
      <trkpt lat="44.13217" lon="3.20038">
        <ele>823.5</ele>
        <time>2015-12-06T12:00:24Z</time>
      </trkpt>
      <trkpt lat="44.13216" lon="3.20037">
        <ele>824.5</ele>
        <time>2015-12-06T12:00:36Z</time>
      </trkpt>
      <trkpt lat="44.13216" lon="3.20035">
        <ele>824.5</ele>
        <time>2015-12-06T12:00:38Z</time>
      </trkpt>
      <trkpt lat="44.13217" lon="3.20033">
        <ele>824.5</ele>
        <time>2015-12-06T12:00:39Z</time>
      </trkpt>
      <trkpt lat="44.13217" lon="3.20031">
        <ele>824.5</ele>
        <time>2015-12-06T12:00:41Z</time>
      </trkpt>
      <trkpt lat="44.13217" lon="3.20031">
        <ele>825</ele>
        <time>2015-12-06T12:00:57Z</time>
      </trkpt>
      <trkpt lat="44.13218" lon="3.20032">
        <ele>826</ele>
        <time>2015-12-06T12:01:02Z</time>
      </trkpt>
      <trkpt lat="44.13219" lon="3.20032">
        <ele>830</ele>
        <time>2015-12-06T12:01:04Z</time>
      </trkpt>
      <trkpt lat="44.13219" lon="3.20031">
        <ele>834</ele>
        <time>2015-12-06T12:01:05Z</time>
      </trkpt>
      <trkpt lat="44.13219" lon="3.20033">
        <ele>833.5</ele>
        <time>2015-12-06T12:01:06Z</time>
      </trkpt>
      <trkpt lat="44.13221" lon="3.20035">
        <ele>839</ele>
        <time>2015-12-06T12:02:15Z</time>
      </trkpt>
      <trkpt lat="44.13222" lon="3.20036">
        <ele>842.5</ele>
        <time>2015-12-06T12:02:17Z</time>
      </trkpt>
      <trkpt lat="44.13221" lon="3.20035">
        <ele>844.5</ele>
        <time>2015-12-06T12:02:18Z</time>
      </trkpt>
      <trkpt lat="44.13222" lon="3.20035">
        <ele>846.5</ele>
        <time>2015-12-06T12:02:19Z</time>
      </trkpt>
      <trkpt lat="44.13222" lon="3.20034">
        <ele>847</ele>
        <time>2015-12-06T12:02:20Z</time>
      </trkpt>
      <trkpt lat="44.13221" lon="3.20035">
        <ele>846.5</ele>
        <time>2015-12-06T12:02:22Z</time>
      </trkpt>
      <trkpt lat="44.13221" lon="3.20035">
        <ele>847.5</ele>
        <time>2015-12-06T12:02:22Z</time>
      </trkpt>
      <trkpt lat="44.13222" lon="3.20035">
        <ele>849</ele>
        <time>2015-12-06T12:02:23Z</time>
      </trkpt>
      <trkpt lat="44.13222" lon="3.20036">
        <ele>848</ele>
        <time>2015-12-06T12:02:25Z</time>
      </trkpt>
      <trkpt lat="44.13223" lon="3.20038">
        <ele>850.5</ele>
        <time>2015-12-06T12:02:26Z</time>
      </trkpt>
      <trkpt lat="44.13223" lon="3.20038">
        <ele>851.5</ele>
        <time>2015-12-06T12:02:27Z</time>
      </trkpt>
      <trkpt lat="44.13224" lon="3.20038">
        <ele>852.5</ele>
        <time>2015-12-06T12:02:28Z</time>
      </trkpt>
      <trkpt lat="44.13224" lon="3.20039">
        <ele>853</ele>
        <time>2015-12-06T12:02:35Z</time>
      </trkpt>
      <trkpt lat="44.13225" lon="3.2004">
        <ele>853</ele>
        <time>2015-12-06T12:02:37Z</time>
      </trkpt>
      <trkpt lat="44.13224" lon="3.20042">
        <ele>856.5</ele>
        <time>2015-12-06T12:02:41Z</time>
      </trkpt>
      <trkpt lat="44.13224" lon="3.20042">
        <ele>854.5</ele>
        <time>2015-12-06T12:02:43Z</time>
      </trkpt>
      <trkpt lat="44.13225" lon="3.20041">
        <ele>856.5</ele>
        <time>2015-12-06T12:02:44Z</time>
      </trkpt>
      <trkpt lat="44.13226" lon="3.2004">
        <ele>857</ele>
        <time>2015-12-06T12:02:59Z</time>
      </trkpt>
      <trkpt lat="44.13224" lon="3.20042">
        <ele>857.5</ele>
        <time>2015-12-06T12:03:02Z</time>
      </trkpt>
      <trkpt lat="44.13223" lon="3.20047">
        <ele>855.5</ele>
        <time>2015-12-06T12:03:10Z</time>
      </trkpt>
      <trkpt lat="44.13222" lon="3.20048">
        <ele>855</ele>
        <time>2015-12-06T12:03:13Z</time>
      </trkpt>
      <trkpt lat="44.13224" lon="3.20047">
        <ele>853</ele>
        <time>2015-12-06T12:03:15Z</time>
      </trkpt>
      <trkpt lat="44.13226" lon="3.20047">
        <ele>852.5</ele>
        <time>2015-12-06T12:03:16Z</time>
      </trkpt>
      <trkpt lat="44.13229" lon="3.20047">
        <ele>851</ele>
        <time>2015-12-06T12:03:17Z</time>
      </trkpt>
      <trkpt lat="44.13232" lon="3.20044">
        <ele>850.5</ele>
        <time>2015-12-06T12:03:18Z</time>
      </trkpt>
      <trkpt lat="44.13236" lon="3.20043">
        <ele>849.5</ele>
        <time>2015-12-06T12:03:19Z</time>
      </trkpt>
      <trkpt lat="44.1324" lon="3.20043">
        <ele>847.5</ele>
        <time>2015-12-06T12:03:20Z</time>
      </trkpt>
      <trkpt lat="44.13243" lon="3.20042">
        <ele>845.5</ele>
        <time>2015-12-06T12:03:21Z</time>
      </trkpt>
      <trkpt lat="44.13245" lon="3.20043">
        <ele>845</ele>
        <time>2015-12-06T12:03:22Z</time>
      </trkpt>
      <trkpt lat="44.13246" lon="3.20045">
        <ele>844.5</ele>
        <time>2015-12-06T12:03:23Z</time>
      </trkpt>
      <trkpt lat="44.13247" lon="3.20047">
        <ele>840.5</ele>
        <time>2015-12-06T12:03:24Z</time>
      </trkpt>
      <trkpt lat="44.1325" lon="3.2005">
        <ele>837.5</ele>
        <time>2015-12-06T12:03:25Z</time>
      </trkpt>
      <trkpt lat="44.13251" lon="3.20053">
        <ele>835</ele>
        <time>2015-12-06T12:03:26Z</time>
      </trkpt>
      <trkpt lat="44.13251" lon="3.20055">
        <ele>834.5</ele>
        <time>2015-12-06T12:03:27Z</time>
      </trkpt>
      <trkpt lat="44.13251" lon="3.20057">
        <ele>833</ele>
        <time>2015-12-06T12:03:28Z</time>
      </trkpt>
      <trkpt lat="44.1325" lon="3.20062">
        <ele>833</ele>
        <time>2015-12-06T12:03:29Z</time>
      </trkpt>
      <trkpt lat="44.13251" lon="3.20066">
        <ele>834.5</ele>
        <time>2015-12-06T12:03:30Z</time>
      </trkpt>
      <trkpt lat="44.13251" lon="3.20069">
        <ele>834</ele>
        <time>2015-12-06T12:03:31Z</time>
      </trkpt>
      <trkpt lat="44.13252" lon="3.20072">
        <ele>834</ele>
        <time>2015-12-06T12:03:32Z</time>
      </trkpt>
      <trkpt lat="44.13255" lon="3.20074">
        <ele>835.5</ele>
        <time>2015-12-06T12:03:33Z</time>
      </trkpt>
      <trkpt lat="44.13255" lon="3.20077">
        <ele>837.5</ele>
        <time>2015-12-06T12:03:34Z</time>
      </trkpt>
      <trkpt lat="44.13256" lon="3.20078">
        <ele>842</ele>
        <time>2015-12-06T12:03:35Z</time>
      </trkpt>
      <trkpt lat="44.13256" lon="3.20079">
        <ele>841.5</ele>
        <time>2015-12-06T12:03:36Z</time>
      </trkpt>
      <trkpt lat="44.13255" lon="3.2008">
        <ele>840.5</ele>
        <time>2015-12-06T12:03:37Z</time>
      </trkpt>
      <trkpt lat="44.13255" lon="3.20081">
        <ele>840</ele>
        <time>2015-12-06T12:03:38Z</time>
      </trkpt>
      <trkpt lat="44.13255" lon="3.20081">
        <ele>839</ele>
        <time>2015-12-06T12:03:39Z</time>
      </trkpt>
      <trkpt lat="44.13255" lon="3.20079">
        <ele>841.5</ele>
        <time>2015-12-06T12:03:41Z</time>
      </trkpt>
      <trkpt lat="44.13254" lon="3.20079">
        <ele>837</ele>
        <time>2015-12-06T12:03:48Z</time>
      </trkpt>
      <trkpt lat="44.13252" lon="3.20078">
        <ele>833.5</ele>
        <time>2015-12-06T12:03:50Z</time>
      </trkpt>
      <trkpt lat="44.13251" lon="3.20077">
        <ele>832.5</ele>
        <time>2015-12-06T12:03:51Z</time>
      </trkpt>
      <trkpt lat="44.1325" lon="3.20076">
        <ele>831.5</ele>
        <time>2015-12-06T12:03:52Z</time>
      </trkpt>
      <trkpt lat="44.1325" lon="3.20075">
        <ele>831</ele>
        <time>2015-12-06T12:03:53Z</time>
      </trkpt>
      <trkpt lat="44.1325" lon="3.20075">
        <ele>830</ele>
        <time>2015-12-06T12:03:54Z</time>
      </trkpt>
      <trkpt lat="44.13249" lon="3.20074">
        <ele>830</ele>
        <time>2015-12-06T12:03:55Z</time>
      </trkpt>
      <trkpt lat="44.13249" lon="3.20073">
        <ele>830</ele>
        <time>2015-12-06T12:03:56Z</time>
      </trkpt>
      <trkpt lat="44.13248" lon="3.20073">
        <ele>830.5</ele>
        <time>2015-12-06T12:03:57Z</time>
      </trkpt>
      <trkpt lat="44.13248" lon="3.20073">
        <ele>831</ele>
        <time>2015-12-06T12:03:58Z</time>
      </trkpt>
      <trkpt lat="44.13247" lon="3.20072">
        <ele>830</ele>
        <time>2015-12-06T12:04:00Z</time>
      </trkpt>
      <trkpt lat="44.13248" lon="3.20073">
        <ele>830</ele>
        <time>2015-12-06T12:04:12Z</time>
      </trkpt>
      <trkpt lat="44.13247" lon="3.20076">
        <ele>832.5</ele>
        <time>2015-12-06T12:04:14Z</time>
      </trkpt>
      <trkpt lat="44.13249" lon="3.20083">
        <ele>839</ele>
        <time>2015-12-06T12:04:16Z</time>
      </trkpt>
      <trkpt lat="44.13248" lon="3.20087">
        <ele>838.5</ele>
        <time>2015-12-06T12:04:17Z</time>
      </trkpt>
      <trkpt lat="44.1325" lon="3.2009">
        <ele>837.5</ele>
        <time>2015-12-06T12:04:18Z</time>
      </trkpt>
      <trkpt lat="44.13248" lon="3.20094">
        <ele>836</ele>
        <time>2015-12-06T12:04:19Z</time>
      </trkpt>
      <trkpt lat="44.1325" lon="3.20095">
        <ele>846</ele>
        <time>2015-12-06T12:04:23Z</time>
      </trkpt>
      <trkpt lat="44.1325" lon="3.20095">
        <ele>843</ele>
        <time>2015-12-06T12:04:27Z</time>
      </trkpt>
      <trkpt lat="44.1325" lon="3.20096">
        <ele>841.5</ele>
        <time>2015-12-06T12:04:29Z</time>
      </trkpt>
      <trkpt lat="44.13251" lon="3.20097">
        <ele>843</ele>
        <time>2015-12-06T12:04:31Z</time>
      </trkpt>
      <trkpt lat="44.13251" lon="3.20098">
        <ele>841</ele>
        <time>2015-12-06T12:04:33Z</time>
      </trkpt>
      <trkpt lat="44.13252" lon="3.20098">
        <ele>840.5</ele>
        <time>2015-12-06T12:04:36Z</time>
      </trkpt>
      <trkpt lat="44.13254" lon="3.20098">
        <ele>838.5</ele>
        <time>2015-12-06T12:04:38Z</time>
      </trkpt>
      <trkpt lat="44.13254" lon="3.20099">
        <ele>838</ele>
        <time>2015-12-06T12:04:39Z</time>
      </trkpt>
      <trkpt lat="44.13254" lon="3.20099">
        <ele>836.5</ele>
        <time>2015-12-06T12:04:40Z</time>
      </trkpt>
      <trkpt lat="44.13255" lon="3.201">
        <ele>836.5</ele>
        <time>2015-12-06T12:04:41Z</time>
      </trkpt>
      <trkpt lat="44.13257" lon="3.201">
        <ele>841.5</ele>
        <time>2015-12-06T12:04:42Z</time>
      </trkpt>
      <trkpt lat="44.13257" lon="3.20101">
        <ele>841</ele>
        <time>2015-12-06T12:04:44Z</time>
      </trkpt>
      <trkpt lat="44.13259" lon="3.201">
        <ele>841.5</ele>
        <time>2015-12-06T12:04:47Z</time>
      </trkpt>
      <trkpt lat="44.1326" lon="3.201">
        <ele>838</ele>
        <time>2015-12-06T12:04:49Z</time>
      </trkpt>
      <trkpt lat="44.13261" lon="3.201">
        <ele>836.5</ele>
        <time>2015-12-06T12:04:50Z</time>
      </trkpt>
      <trkpt lat="44.13261" lon="3.20099">
        <ele>836</ele>
        <time>2015-12-06T12:04:51Z</time>
      </trkpt>
      <trkpt lat="44.13261" lon="3.201">
        <ele>835.5</ele>
        <time>2015-12-06T12:04:52Z</time>
      </trkpt>
      <trkpt lat="44.13261" lon="3.20099">
        <ele>835.5</ele>
        <time>2015-12-06T12:04:53Z</time>
      </trkpt>
      <trkpt lat="44.13263" lon="3.20099">
        <ele>838.5</ele>
        <time>2015-12-06T12:04:57Z</time>
      </trkpt>
      <trkpt lat="44.13264" lon="3.201">
        <ele>838.5</ele>
        <time>2015-12-06T12:05:00Z</time>
      </trkpt>
      <trkpt lat="44.13263" lon="3.20108">
        <ele>828.5</ele>
        <time>2015-12-06T12:05:05Z</time>
      </trkpt>
      <trkpt lat="44.13262" lon="3.20111">
        <ele>826.5</ele>
        <time>2015-12-06T12:05:07Z</time>
      </trkpt>
      <trkpt lat="44.13263" lon="3.20111">
        <ele>825</ele>
        <time>2015-12-06T12:05:08Z</time>
      </trkpt>
      <trkpt lat="44.13263" lon="3.2011">
        <ele>824</ele>
        <time>2015-12-06T12:05:10Z</time>
      </trkpt>
      <trkpt lat="44.1326" lon="3.20113">
        <ele>823.5</ele>
        <time>2015-12-06T12:05:12Z</time>
      </trkpt>
      <trkpt lat="44.13261" lon="3.20112">
        <ele>823.5</ele>
        <time>2015-12-06T12:05:13Z</time>
      </trkpt>
      <trkpt lat="44.1326" lon="3.20113">
        <ele>824.5</ele>
        <time>2015-12-06T12:05:14Z</time>
      </trkpt>
      <trkpt lat="44.1326" lon="3.20113">
        <ele>824.5</ele>
        <time>2015-12-06T12:05:15Z</time>
      </trkpt>
      <trkpt lat="44.13268" lon="3.20114">
        <ele>837.5</ele>
        <time>2015-12-06T12:05:21Z</time>
      </trkpt>
      <trkpt lat="44.13272" lon="3.20112">
        <ele>840.5</ele>
        <time>2015-12-06T12:05:23Z</time>
      </trkpt>
      <trkpt lat="44.13273" lon="3.20112">
        <ele>840</ele>
        <time>2015-12-06T12:05:24Z</time>
      </trkpt>
      <trkpt lat="44.13273" lon="3.20112">
        <ele>839</ele>
        <time>2015-12-06T12:05:25Z</time>
      </trkpt>
      <trkpt lat="44.13273" lon="3.20112">
        <ele>837.5</ele>
        <time>2015-12-06T12:05:26Z</time>
      </trkpt>
      <trkpt lat="44.13275" lon="3.20111">
        <ele>838.5</ele>
        <time>2015-12-06T12:05:27Z</time>
      </trkpt>
      <trkpt lat="44.13277" lon="3.20111">
        <ele>840</ele>
        <time>2015-12-06T12:05:28Z</time>
      </trkpt>
      <trkpt lat="44.1328" lon="3.20111">
        <ele>840</ele>
        <time>2015-12-06T12:05:29Z</time>
      </trkpt>
      <trkpt lat="44.1328" lon="3.2011">
        <ele>840.5</ele>
        <time>2015-12-06T12:05:30Z</time>
      </trkpt>
      <trkpt lat="44.13282" lon="3.20109">
        <ele>840</ele>
        <time>2015-12-06T12:05:31Z</time>
      </trkpt>
      <trkpt lat="44.13282" lon="3.20108">
        <ele>841.5</ele>
        <time>2015-12-06T12:05:34Z</time>
      </trkpt>
      <trkpt lat="44.13283" lon="3.20108">
        <ele>841</ele>
        <time>2015-12-06T12:05:36Z</time>
      </trkpt>
      <trkpt lat="44.13287" lon="3.20105">
        <ele>843.5</ele>
        <time>2015-12-06T12:05:38Z</time>
      </trkpt>
      <trkpt lat="44.13287" lon="3.20106">
        <ele>842.5</ele>
        <time>2015-12-06T12:05:39Z</time>
      </trkpt>
      <trkpt lat="44.13288" lon="3.20108">
        <ele>842</ele>
        <time>2015-12-06T12:05:40Z</time>
      </trkpt>
      <trkpt lat="44.13289" lon="3.20108">
        <ele>843</ele>
        <time>2015-12-06T12:05:41Z</time>
      </trkpt>
      <trkpt lat="44.13289" lon="3.20109">
        <ele>844.5</ele>
        <time>2015-12-06T12:05:42Z</time>
      </trkpt>
      <trkpt lat="44.1329" lon="3.20115">
        <ele>848.5</ele>
        <time>2015-12-06T12:05:44Z</time>
      </trkpt>
      <trkpt lat="44.13294" lon="3.20125">
        <ele>854.5</ele>
        <time>2015-12-06T12:05:46Z</time>
      </trkpt>
      <trkpt lat="44.13298" lon="3.20127">
        <ele>855</ele>
        <time>2015-12-06T12:05:47Z</time>
      </trkpt>
      <trkpt lat="44.13303" lon="3.20129">
        <ele>854</ele>
        <time>2015-12-06T12:05:48Z</time>
      </trkpt>
      <trkpt lat="44.13307" lon="3.20131">
        <ele>854.5</ele>
        <time>2015-12-06T12:05:49Z</time>
      </trkpt>
      <trkpt lat="44.1331" lon="3.20133">
        <ele>855</ele>
        <time>2015-12-06T12:05:50Z</time>
      </trkpt>
      <trkpt lat="44.13313" lon="3.20138">
        <ele>855.5</ele>
        <time>2015-12-06T12:05:51Z</time>
      </trkpt>
      <trkpt lat="44.13317" lon="3.2014">
        <ele>856</ele>
        <time>2015-12-06T12:05:52Z</time>
      </trkpt>
      <trkpt lat="44.1332" lon="3.20143">
        <ele>857</ele>
        <time>2015-12-06T12:05:53Z</time>
      </trkpt>
      <trkpt lat="44.13324" lon="3.20145">
        <ele>857.5</ele>
        <time>2015-12-06T12:05:54Z</time>
      </trkpt>
      <trkpt lat="44.13328" lon="3.20147">
        <ele>858</ele>
        <time>2015-12-06T12:05:55Z</time>
      </trkpt>
      <trkpt lat="44.13331" lon="3.2015">
        <ele>858.5</ele>
        <time>2015-12-06T12:05:56Z</time>
      </trkpt>
      <trkpt lat="44.13333" lon="3.20153">
        <ele>858.5</ele>
        <time>2015-12-06T12:05:57Z</time>
      </trkpt>
      <trkpt lat="44.13335" lon="3.20155">
        <ele>859.5</ele>
        <time>2015-12-06T12:05:58Z</time>
      </trkpt>
      <trkpt lat="44.13338" lon="3.20156">
        <ele>860.5</ele>
        <time>2015-12-06T12:05:59Z</time>
      </trkpt>
      <trkpt lat="44.13335" lon="3.20157">
        <ele>860</ele>
        <time>2015-12-06T12:06:00Z</time>
      </trkpt>
      <trkpt lat="44.13333" lon="3.20158">
        <ele>860</ele>
        <time>2015-12-06T12:06:01Z</time>
      </trkpt>
      <trkpt lat="44.13324" lon="3.20166">
        <ele>860</ele>
        <time>2015-12-06T12:06:03Z</time>
      </trkpt>
      <trkpt lat="44.13343" lon="3.20164">
        <ele>862</ele>
        <time>2015-12-06T12:06:10Z</time>
      </trkpt>
      <trkpt lat="44.13336" lon="3.20168">
        <ele>859.5</ele>
        <time>2015-12-06T12:06:14Z</time>
      </trkpt>
      <trkpt lat="44.13324" lon="3.20174">
        <ele>856.5</ele>
        <time>2015-12-06T12:06:23Z</time>
      </trkpt>
      <trkpt lat="44.13326" lon="3.20178">
        <ele>856</ele>
        <time>2015-12-06T12:06:25Z</time>
      </trkpt>
      <trkpt lat="44.13327" lon="3.2018">
        <ele>856</ele>
        <time>2015-12-06T12:06:26Z</time>
      </trkpt>
      <trkpt lat="44.13327" lon="3.2018">
        <ele>856</ele>
        <time>2015-12-06T12:06:27Z</time>
      </trkpt>
      <trkpt lat="44.13327" lon="3.2018">
        <ele>856</ele>
        <time>2015-12-06T12:06:28Z</time>
      </trkpt>
      <trkpt lat="44.13326" lon="3.20179">
        <ele>856</ele>
        <time>2015-12-06T12:06:29Z</time>
      </trkpt>
      <trkpt lat="44.13324" lon="3.20178">
        <ele>856</ele>
        <time>2015-12-06T12:06:30Z</time>
      </trkpt>
      <trkpt lat="44.13317" lon="3.20176">
        <ele>855</ele>
        <time>2015-12-06T12:06:32Z</time>
      </trkpt>
      <trkpt lat="44.13309" lon="3.2018">
        <ele>850</ele>
        <time>2015-12-06T12:06:43Z</time>
      </trkpt>
      <trkpt lat="44.13305" lon="3.20182">
        <ele>848.5</ele>
        <time>2015-12-06T12:06:47Z</time>
      </trkpt>
      <trkpt lat="44.13301" lon="3.20188">
        <ele>848</ele>
        <time>2015-12-06T12:06:49Z</time>
      </trkpt>
      <trkpt lat="44.13302" lon="3.20189">
        <ele>848</ele>
        <time>2015-12-06T12:06:50Z</time>
      </trkpt>
      <trkpt lat="44.13305" lon="3.20191">
        <ele>847.5</ele>
        <time>2015-12-06T12:06:51Z</time>
      </trkpt>
      <trkpt lat="44.13308" lon="3.20192">
        <ele>847.5</ele>
        <time>2015-12-06T12:06:52Z</time>
      </trkpt>
      <trkpt lat="44.1331" lon="3.20199">
        <ele>847</ele>
        <time>2015-12-06T12:06:54Z</time>
      </trkpt>
      <trkpt lat="44.13309" lon="3.20201">
        <ele>847</ele>
        <time>2015-12-06T12:06:55Z</time>
      </trkpt>
      <trkpt lat="44.13308" lon="3.20202">
        <ele>847</ele>
        <time>2015-12-06T12:06:56Z</time>
      </trkpt>
      <trkpt lat="44.13302" lon="3.20203">
        <ele>846</ele>
        <time>2015-12-06T12:06:58Z</time>
      </trkpt>
      <trkpt lat="44.13298" lon="3.20204">
        <ele>844.5</ele>
        <time>2015-12-06T12:06:59Z</time>
      </trkpt>
      <trkpt lat="44.13295" lon="3.20206">
        <ele>844</ele>
        <time>2015-12-06T12:07:00Z</time>
      </trkpt>
      <trkpt lat="44.13294" lon="3.20206">
        <ele>843</ele>
        <time>2015-12-06T12:07:01Z</time>
      </trkpt>
      <trkpt lat="44.13293" lon="3.20206">
        <ele>841.5</ele>
        <time>2015-12-06T12:07:02Z</time>
      </trkpt>
      <trkpt lat="44.13294" lon="3.20204">
        <ele>840.5</ele>
        <time>2015-12-06T12:07:03Z</time>
      </trkpt>
      <trkpt lat="44.13293" lon="3.20205">
        <ele>839.5</ele>
        <time>2015-12-06T12:07:04Z</time>
      </trkpt>
      <trkpt lat="44.13294" lon="3.20206">
        <ele>842</ele>
        <time>2015-12-06T12:07:06Z</time>
      </trkpt>
      <trkpt lat="44.13295" lon="3.20205">
        <ele>842</ele>
        <time>2015-12-06T12:07:08Z</time>
      </trkpt>
      <trkpt lat="44.13296" lon="3.20205">
        <ele>842</ele>
        <time>2015-12-06T12:07:09Z</time>
      </trkpt>
      <trkpt lat="44.13297" lon="3.20205">
        <ele>842</ele>
        <time>2015-12-06T12:07:10Z</time>
      </trkpt>
      <trkpt lat="44.13298" lon="3.20205">
        <ele>843</ele>
        <time>2015-12-06T12:07:11Z</time>
      </trkpt>
      <trkpt lat="44.13299" lon="3.20204">
        <ele>843</ele>
        <time>2015-12-06T12:07:12Z</time>
      </trkpt>
      <trkpt lat="44.13299" lon="3.20205">
        <ele>842.5</ele>
        <time>2015-12-06T12:07:13Z</time>
      </trkpt>
      <trkpt lat="44.133" lon="3.20205">
        <ele>842.5</ele>
        <time>2015-12-06T12:07:14Z</time>
      </trkpt>
      <trkpt lat="44.133" lon="3.20207">
        <ele>843</ele>
        <time>2015-12-06T12:07:15Z</time>
      </trkpt>
      <trkpt lat="44.13301" lon="3.20207">
        <ele>844.5</ele>
        <time>2015-12-06T12:07:17Z</time>
      </trkpt>
      <trkpt lat="44.13303" lon="3.20209">
        <ele>846.5</ele>
        <time>2015-12-06T12:07:19Z</time>
      </trkpt>
      <trkpt lat="44.13308" lon="3.20214">
        <ele>836.5</ele>
        <time>2015-12-06T12:07:21Z</time>
      </trkpt>
      <trkpt lat="44.13313" lon="3.20218">
        <ele>831</ele>
        <time>2015-12-06T12:07:23Z</time>
      </trkpt>
      <trkpt lat="44.13316" lon="3.2022">
        <ele>830</ele>
        <time>2015-12-06T12:07:24Z</time>
      </trkpt>
      <trkpt lat="44.13318" lon="3.20221">
        <ele>829.5</ele>
        <time>2015-12-06T12:07:25Z</time>
      </trkpt>
      <trkpt lat="44.1332" lon="3.20222">
        <ele>827.5</ele>
        <time>2015-12-06T12:07:26Z</time>
      </trkpt>
      <trkpt lat="44.13323" lon="3.20223">
        <ele>825</ele>
        <time>2015-12-06T12:07:27Z</time>
      </trkpt>
      <trkpt lat="44.13324" lon="3.20224">
        <ele>824.5</ele>
        <time>2015-12-06T12:07:28Z</time>
      </trkpt>
      <trkpt lat="44.13326" lon="3.20224">
        <ele>824</ele>
        <time>2015-12-06T12:07:29Z</time>
      </trkpt>
      <trkpt lat="44.13327" lon="3.20225">
        <ele>823.5</ele>
        <time>2015-12-06T12:07:30Z</time>
      </trkpt>
      <trkpt lat="44.13329" lon="3.20223">
        <ele>824.5</ele>
        <time>2015-12-06T12:07:31Z</time>
      </trkpt>
      <trkpt lat="44.13332" lon="3.2022">
        <ele>825.5</ele>
        <time>2015-12-06T12:07:32Z</time>
      </trkpt>
      <trkpt lat="44.13333" lon="3.20219">
        <ele>826</ele>
        <time>2015-12-06T12:07:33Z</time>
      </trkpt>
      <trkpt lat="44.13334" lon="3.20218">
        <ele>826</ele>
        <time>2015-12-06T12:07:34Z</time>
      </trkpt>
      <trkpt lat="44.13338" lon="3.20215">
        <ele>827</ele>
        <time>2015-12-06T12:07:35Z</time>
      </trkpt>
      <trkpt lat="44.13357" lon="3.202">
        <ele>827</ele>
        <time>2015-12-06T12:07:39Z</time>
      </trkpt>
      <trkpt lat="44.1337" lon="3.20193">
        <ele>826.5</ele>
        <time>2015-12-06T12:07:41Z</time>
      </trkpt>
      <trkpt lat="44.13376" lon="3.20212">
        <ele>826.5</ele>
        <time>2015-12-06T12:07:43Z</time>
      </trkpt>
      <trkpt lat="44.1336" lon="3.20207">
        <ele>826.5</ele>
        <time>2015-12-06T12:07:48Z</time>
      </trkpt>
      <trkpt lat="44.13362" lon="3.20212">
        <ele>826.5</ele>
        <time>2015-12-06T12:07:49Z</time>
      </trkpt>
      <trkpt lat="44.13367" lon="3.20233">
        <ele>828</ele>
        <time>2015-12-06T12:07:52Z</time>
      </trkpt>
      <trkpt lat="44.1338" lon="3.20255">
        <ele>830</ele>
        <time>2015-12-06T12:07:55Z</time>
      </trkpt>
      <trkpt lat="44.13378" lon="3.20278">
        <ele>831</ele>
        <time>2015-12-06T12:07:58Z</time>
      </trkpt>
      <trkpt lat="44.13379" lon="3.20281">
        <ele>831</ele>
        <time>2015-12-06T12:07:59Z</time>
      </trkpt>
      <trkpt lat="44.13382" lon="3.20286">
        <ele>831.5</ele>
        <time>2015-12-06T12:08:00Z</time>
      </trkpt>
      <trkpt lat="44.13392" lon="3.20308">
        <ele>832.5</ele>
        <time>2015-12-06T12:08:03Z</time>
      </trkpt>
      <trkpt lat="44.13393" lon="3.20314">
        <ele>832.5</ele>
        <time>2015-12-06T12:08:03Z</time>
      </trkpt>
      <trkpt lat="44.13395" lon="3.20318">
        <ele>832.5</ele>
        <time>2015-12-06T12:08:07Z</time>
      </trkpt>
      <trkpt lat="44.13395" lon="3.20316">
        <ele>832.5</ele>
        <time>2015-12-06T12:08:07Z</time>
      </trkpt>
      <trkpt lat="44.13394" lon="3.20314">
        <ele>832.5</ele>
        <time>2015-12-06T12:08:08Z</time>
      </trkpt>
      <trkpt lat="44.13395" lon="3.20313">
        <ele>832.5</ele>
        <time>2015-12-06T12:08:09Z</time>
      </trkpt>
      <trkpt lat="44.13395" lon="3.20312">
        <ele>832.5</ele>
        <time>2015-12-06T12:08:10Z</time>
      </trkpt>
      <trkpt lat="44.13391" lon="3.20313">
        <ele>832</ele>
        <time>2015-12-06T12:08:12Z</time>
      </trkpt>
      <trkpt lat="44.13378" lon="3.203">
        <ele>830.5</ele>
        <time>2015-12-06T12:08:16Z</time>
      </trkpt>
      <trkpt lat="44.13368" lon="3.20306">
        <ele>829</ele>
        <time>2015-12-06T12:08:17Z</time>
      </trkpt>
      <trkpt lat="44.13361" lon="3.20316">
        <ele>830.5</ele>
        <time>2015-12-06T12:08:20Z</time>
      </trkpt>
      <trkpt lat="44.13363" lon="3.20321">
        <ele>831</ele>
        <time>2015-12-06T12:08:20Z</time>
      </trkpt>
      <trkpt lat="44.13365" lon="3.20331">
        <ele>831</ele>
        <time>2015-12-06T12:08:23Z</time>
      </trkpt>
      <trkpt lat="44.13364" lon="3.20334">
        <ele>830.5</ele>
        <time>2015-12-06T12:08:23Z</time>
      </trkpt>
      <trkpt lat="44.13363" lon="3.20338">
        <ele>831</ele>
        <time>2015-12-06T12:08:24Z</time>
      </trkpt>
      <trkpt lat="44.13361" lon="3.20343">
        <ele>831</ele>
        <time>2015-12-06T12:08:25Z</time>
      </trkpt>
      <trkpt lat="44.13353" lon="3.20348">
        <ele>828.5</ele>
        <time>2015-12-06T12:08:27Z</time>
      </trkpt>
      <trkpt lat="44.13349" lon="3.20347">
        <ele>828</ele>
        <time>2015-12-06T12:08:28Z</time>
      </trkpt>
      <trkpt lat="44.13345" lon="3.20349">
        <ele>828.5</ele>
        <time>2015-12-06T12:08:30Z</time>
      </trkpt>
      <trkpt lat="44.13341" lon="3.2035">
        <ele>828.5</ele>
        <time>2015-12-06T12:08:31Z</time>
      </trkpt>
      <trkpt lat="44.1334" lon="3.20351">
        <ele>829</ele>
        <time>2015-12-06T12:08:31Z</time>
      </trkpt>
      <trkpt lat="44.13337" lon="3.20352">
        <ele>829</ele>
        <time>2015-12-06T12:08:32Z</time>
      </trkpt>
      <trkpt lat="44.13329" lon="3.20357">
        <ele>826</ele>
        <time>2015-12-06T12:08:34Z</time>
      </trkpt>
      <trkpt lat="44.13325" lon="3.20359">
        <ele>826</ele>
        <time>2015-12-06T12:08:35Z</time>
      </trkpt>
      <trkpt lat="44.13323" lon="3.20362">
        <ele>826.5</ele>
        <time>2015-12-06T12:08:36Z</time>
      </trkpt>
      <trkpt lat="44.1332" lon="3.20364">
        <ele>827</ele>
        <time>2015-12-06T12:08:37Z</time>
      </trkpt>
      <trkpt lat="44.13317" lon="3.20367">
        <ele>827</ele>
        <time>2015-12-06T12:08:38Z</time>
      </trkpt>
      <trkpt lat="44.13309" lon="3.20369">
        <ele>827.5</ele>
        <time>2015-12-06T12:08:40Z</time>
      </trkpt>
      <trkpt lat="44.13306" lon="3.20369">
        <ele>827</ele>
        <time>2015-12-06T12:08:41Z</time>
      </trkpt>
      <trkpt lat="44.13304" lon="3.20367">
        <ele>828</ele>
        <time>2015-12-06T12:08:43Z</time>
      </trkpt>
      <trkpt lat="44.13296" lon="3.20368">
        <ele>829.5</ele>
        <time>2015-12-06T12:08:45Z</time>
      </trkpt>
      <trkpt lat="44.13292" lon="3.20369">
        <ele>830</ele>
        <time>2015-12-06T12:08:46Z</time>
      </trkpt>
      <trkpt lat="44.13289" lon="3.2037">
        <ele>829.5</ele>
        <time>2015-12-06T12:08:47Z</time>
      </trkpt>
      <trkpt lat="44.13285" lon="3.20369">
        <ele>829</ele>
        <time>2015-12-06T12:08:49Z</time>
      </trkpt>
      <trkpt lat="44.13283" lon="3.20369">
        <ele>828.5</ele>
        <time>2015-12-06T12:08:50Z</time>
      </trkpt>
      <trkpt lat="44.1328" lon="3.2037">
        <ele>828.5</ele>
        <time>2015-12-06T12:08:51Z</time>
      </trkpt>
      <trkpt lat="44.13278" lon="3.20372">
        <ele>828.5</ele>
        <time>2015-12-06T12:08:52Z</time>
      </trkpt>
      <trkpt lat="44.13277" lon="3.20374">
        <ele>829</ele>
        <time>2015-12-06T12:08:53Z</time>
      </trkpt>
      <trkpt lat="44.13275" lon="3.20373">
        <ele>829</ele>
        <time>2015-12-06T12:08:54Z</time>
      </trkpt>
      <trkpt lat="44.13276" lon="3.20371">
        <ele>830</ele>
        <time>2015-12-06T12:08:55Z</time>
      </trkpt>
      <trkpt lat="44.13275" lon="3.2037">
        <ele>830.5</ele>
        <time>2015-12-06T12:08:56Z</time>
      </trkpt>
      <trkpt lat="44.13278" lon="3.20366">
        <ele>832</ele>
        <time>2015-12-06T12:08:59Z</time>
      </trkpt>
      <trkpt lat="44.13273" lon="3.20367">
        <ele>833.5</ele>
        <time>2015-12-06T12:09:01Z</time>
      </trkpt>
      <trkpt lat="44.13271" lon="3.20368">
        <ele>834</ele>
        <time>2015-12-06T12:09:01Z</time>
      </trkpt>
      <trkpt lat="44.13266" lon="3.20363">
        <ele>837</ele>
        <time>2015-12-06T12:09:03Z</time>
      </trkpt>
      <trkpt lat="44.13265" lon="3.20362">
        <ele>837</ele>
        <time>2015-12-06T12:09:04Z</time>
      </trkpt>
      <trkpt lat="44.13264" lon="3.20362">
        <ele>837.5</ele>
        <time>2015-12-06T12:09:05Z</time>
      </trkpt>
      <trkpt lat="44.13265" lon="3.20358">
        <ele>838</ele>
        <time>2015-12-06T12:09:06Z</time>
      </trkpt>
      <trkpt lat="44.13264" lon="3.20357">
        <ele>838.5</ele>
        <time>2015-12-06T12:09:07Z</time>
      </trkpt>
      <trkpt lat="44.13262" lon="3.20356">
        <ele>838.5</ele>
        <time>2015-12-06T12:09:08Z</time>
      </trkpt>
      <trkpt lat="44.13262" lon="3.20352">
        <ele>838.5</ele>
        <time>2015-12-06T12:09:09Z</time>
      </trkpt>
      <trkpt lat="44.13261" lon="3.20351">
        <ele>838.5</ele>
        <time>2015-12-06T12:09:10Z</time>
      </trkpt>
      <trkpt lat="44.1326" lon="3.20348">
        <ele>838</ele>
        <time>2015-12-06T12:09:11Z</time>
      </trkpt>
      <trkpt lat="44.13259" lon="3.20347">
        <ele>837.5</ele>
        <time>2015-12-06T12:09:12Z</time>
      </trkpt>
      <trkpt lat="44.13259" lon="3.20346">
        <ele>837.5</ele>
        <time>2015-12-06T12:09:13Z</time>
      </trkpt>
      <trkpt lat="44.1326" lon="3.20342">
        <ele>838</ele>
        <time>2015-12-06T12:09:14Z</time>
      </trkpt>
      <trkpt lat="44.13264" lon="3.20325">
        <ele>841.5</ele>
        <time>2015-12-06T12:09:18Z</time>
      </trkpt>
      <trkpt lat="44.13263" lon="3.20327">
        <ele>841.5</ele>
        <time>2015-12-06T12:09:19Z</time>
      </trkpt>
      <trkpt lat="44.13263" lon="3.20325">
        <ele>841.5</ele>
        <time>2015-12-06T12:09:20Z</time>
      </trkpt>
      <trkpt lat="44.13263" lon="3.20322">
        <ele>841</ele>
        <time>2015-12-06T12:09:21Z</time>
      </trkpt>
      <trkpt lat="44.13262" lon="3.20318">
        <ele>841.5</ele>
        <time>2015-12-06T12:09:22Z</time>
      </trkpt>
      <trkpt lat="44.13261" lon="3.20318">
        <ele>841.5</ele>
        <time>2015-12-06T12:09:23Z</time>
      </trkpt>
      <trkpt lat="44.1326" lon="3.20315">
        <ele>841.5</ele>
        <time>2015-12-06T12:09:24Z</time>
      </trkpt>
      <trkpt lat="44.13259" lon="3.20314">
        <ele>841</ele>
        <time>2015-12-06T12:09:25Z</time>
      </trkpt>
      <trkpt lat="44.13257" lon="3.20314">
        <ele>845.5</ele>
        <time>2015-12-06T12:09:27Z</time>
      </trkpt>
      <trkpt lat="44.13255" lon="3.20316">
        <ele>845.5</ele>
        <time>2015-12-06T12:09:29Z</time>
      </trkpt>
      <trkpt lat="44.13255" lon="3.20313">
        <ele>845.5</ele>
        <time>2015-12-06T12:09:30Z</time>
      </trkpt>
      <trkpt lat="44.13254" lon="3.20316">
        <ele>846</ele>
        <time>2015-12-06T12:09:31Z</time>
      </trkpt>
      <trkpt lat="44.13253" lon="3.20318">
        <ele>846</ele>
        <time>2015-12-06T12:09:32Z</time>
      </trkpt>
      <trkpt lat="44.13253" lon="3.20315">
        <ele>846</ele>
        <time>2015-12-06T12:09:33Z</time>
      </trkpt>
      <trkpt lat="44.13248" lon="3.20325">
        <ele>845.5</ele>
        <time>2015-12-06T12:09:36Z</time>
      </trkpt>
      <trkpt lat="44.13247" lon="3.20327">
        <ele>846.5</ele>
        <time>2015-12-06T12:09:38Z</time>
      </trkpt>
      <trkpt lat="44.13243" lon="3.20338">
        <ele>845.5</ele>
        <time>2015-12-06T12:09:40Z</time>
      </trkpt>
      <trkpt lat="44.13242" lon="3.20338">
        <ele>845</ele>
        <time>2015-12-06T12:09:41Z</time>
      </trkpt>
      <trkpt lat="44.13242" lon="3.20337">
        <ele>845</ele>
        <time>2015-12-06T12:09:42Z</time>
      </trkpt>
      <trkpt lat="44.13241" lon="3.20337">
        <ele>845</ele>
        <time>2015-12-06T12:09:43Z</time>
      </trkpt>
      <trkpt lat="44.13241" lon="3.20336">
        <ele>845</ele>
        <time>2015-12-06T12:09:44Z</time>
      </trkpt>
      <trkpt lat="44.13241" lon="3.20334">
        <ele>845</ele>
        <time>2015-12-06T12:09:45Z</time>
      </trkpt>
      <trkpt lat="44.13241" lon="3.20326">
        <ele>845.5</ele>
        <time>2015-12-06T12:09:47Z</time>
      </trkpt>
      <trkpt lat="44.1324" lon="3.20326">
        <ele>845.5</ele>
        <time>2015-12-06T12:09:49Z</time>
      </trkpt>
      <trkpt lat="44.1324" lon="3.20324">
        <ele>845.5</ele>
        <time>2015-12-06T12:09:51Z</time>
      </trkpt>
      <trkpt lat="44.13241" lon="3.20322">
        <ele>846</ele>
        <time>2015-12-06T12:09:52Z</time>
      </trkpt>
      <trkpt lat="44.13238" lon="3.20328">
        <ele>846.5</ele>
        <time>2015-12-06T12:09:54Z</time>
      </trkpt>
      <trkpt lat="44.13233" lon="3.20331">
        <ele>846</ele>
        <time>2015-12-06T12:09:57Z</time>
      </trkpt>
      <trkpt lat="44.13232" lon="3.20328">
        <ele>845.5</ele>
        <time>2015-12-06T12:09:59Z</time>
      </trkpt>
      <trkpt lat="44.1323" lon="3.2033">
        <ele>845.5</ele>
        <time>2015-12-06T12:10:00Z</time>
      </trkpt>
      <trkpt lat="44.13228" lon="3.20332">
        <ele>845</ele>
        <time>2015-12-06T12:10:01Z</time>
      </trkpt>
      <trkpt lat="44.13228" lon="3.20334">
        <ele>845</ele>
        <time>2015-12-06T12:10:03Z</time>
      </trkpt>
      <trkpt lat="44.13227" lon="3.20333">
        <ele>845</ele>
        <time>2015-12-06T12:10:04Z</time>
      </trkpt>
      <trkpt lat="44.13226" lon="3.20334">
        <ele>845</ele>
        <time>2015-12-06T12:10:05Z</time>
      </trkpt>
      <trkpt lat="44.13222" lon="3.20338">
        <ele>846.5</ele>
        <time>2015-12-06T12:10:07Z</time>
      </trkpt>
      <trkpt lat="44.13217" lon="3.2034">
        <ele>845</ele>
        <time>2015-12-06T12:10:09Z</time>
      </trkpt>
      <trkpt lat="44.13216" lon="3.2034">
        <ele>844.5</ele>
        <time>2015-12-06T12:10:10Z</time>
      </trkpt>
      <trkpt lat="44.13216" lon="3.20338">
        <ele>844</ele>
        <time>2015-12-06T12:10:11Z</time>
      </trkpt>
      <trkpt lat="44.13216" lon="3.20337">
        <ele>844</ele>
        <time>2015-12-06T12:10:12Z</time>
      </trkpt>
      <trkpt lat="44.13214" lon="3.20336">
        <ele>842.5</ele>
        <time>2015-12-06T12:10:13Z</time>
      </trkpt>
      <trkpt lat="44.13213" lon="3.20337">
        <ele>842.5</ele>
        <time>2015-12-06T12:10:14Z</time>
      </trkpt>
      <trkpt lat="44.13211" lon="3.20339">
        <ele>842</ele>
        <time>2015-12-06T12:10:15Z</time>
      </trkpt>
      <trkpt lat="44.13209" lon="3.20338">
        <ele>841.5</ele>
        <time>2015-12-06T12:10:17Z</time>
      </trkpt>
      <trkpt lat="44.1321" lon="3.20336">
        <ele>841.5</ele>
        <time>2015-12-06T12:10:18Z</time>
      </trkpt>
      <trkpt lat="44.13209" lon="3.20336">
        <ele>840</ele>
        <time>2015-12-06T12:10:19Z</time>
      </trkpt>
      <trkpt lat="44.13204" lon="3.20339">
        <ele>838</ele>
        <time>2015-12-06T12:10:21Z</time>
      </trkpt>
      <trkpt lat="44.13203" lon="3.20339">
        <ele>838</ele>
        <time>2015-12-06T12:10:22Z</time>
      </trkpt>
      <trkpt lat="44.13203" lon="3.20339">
        <ele>838</ele>
        <time>2015-12-06T12:10:23Z</time>
      </trkpt>
      <trkpt lat="44.13202" lon="3.20338">
        <ele>838</ele>
        <time>2015-12-06T12:10:24Z</time>
      </trkpt>
      <trkpt lat="44.13201" lon="3.20339">
        <ele>837</ele>
        <time>2015-12-06T12:10:25Z</time>
      </trkpt>
      <trkpt lat="44.13201" lon="3.20338">
        <ele>837.5</ele>
        <time>2015-12-06T12:10:26Z</time>
      </trkpt>
      <trkpt lat="44.13201" lon="3.20336">
        <ele>836.5</ele>
        <time>2015-12-06T12:10:29Z</time>
      </trkpt>
      <trkpt lat="44.13195" lon="3.20337">
        <ele>835.5</ele>
        <time>2015-12-06T12:10:31Z</time>
      </trkpt>
      <trkpt lat="44.13194" lon="3.20332">
        <ele>832.5</ele>
        <time>2015-12-06T12:10:35Z</time>
      </trkpt>
      <trkpt lat="44.13192" lon="3.2033">
        <ele>832</ele>
        <time>2015-12-06T12:10:37Z</time>
      </trkpt>
      <trkpt lat="44.13193" lon="3.2033">
        <ele>832</ele>
        <time>2015-12-06T12:10:38Z</time>
      </trkpt>
      <trkpt lat="44.13193" lon="3.20329">
        <ele>831</ele>
        <time>2015-12-06T12:10:39Z</time>
      </trkpt>
      <trkpt lat="44.13194" lon="3.20329">
        <ele>829</ele>
        <time>2015-12-06T12:10:40Z</time>
      </trkpt>
      <trkpt lat="44.13195" lon="3.2033">
        <ele>828.5</ele>
        <time>2015-12-06T12:10:41Z</time>
      </trkpt>
      <trkpt lat="44.13194" lon="3.20331">
        <ele>827</ele>
        <time>2015-12-06T12:10:42Z</time>
      </trkpt>
      <trkpt lat="44.13193" lon="3.20332">
        <ele>823</ele>
        <time>2015-12-06T12:10:44Z</time>
      </trkpt>
      <trkpt lat="44.13192" lon="3.20335">
        <ele>819</ele>
        <time>2015-12-06T12:10:46Z</time>
      </trkpt>
      <trkpt lat="44.1319" lon="3.20336">
        <ele>817.5</ele>
        <time>2015-12-06T12:10:47Z</time>
      </trkpt>
      <trkpt lat="44.13189" lon="3.20336">
        <ele>818</ele>
        <time>2015-12-06T12:10:48Z</time>
      </trkpt>
      <trkpt lat="44.13188" lon="3.20337">
        <ele>818.5</ele>
        <time>2015-12-06T12:10:49Z</time>
      </trkpt>
      <trkpt lat="44.13187" lon="3.2034">
        <ele>819.5</ele>
        <time>2015-12-06T12:10:50Z</time>
      </trkpt>
      <trkpt lat="44.13186" lon="3.2034">
        <ele>818.5</ele>
        <time>2015-12-06T12:10:51Z</time>
      </trkpt>
      <trkpt lat="44.13187" lon="3.20341">
        <ele>817.5</ele>
        <time>2015-12-06T12:10:52Z</time>
      </trkpt>
      <trkpt lat="44.13185" lon="3.2034">
        <ele>820</ele>
        <time>2015-12-06T12:10:53Z</time>
      </trkpt>
      <trkpt lat="44.13185" lon="3.20341">
        <ele>820.5</ele>
        <time>2015-12-06T12:10:54Z</time>
      </trkpt>
      <trkpt lat="44.13186" lon="3.20342">
        <ele>819.5</ele>
        <time>2015-12-06T12:10:55Z</time>
      </trkpt>
      <trkpt lat="44.13188" lon="3.20344">
        <ele>819.5</ele>
        <time>2015-12-06T12:10:56Z</time>
      </trkpt>
      <trkpt lat="44.13187" lon="3.20339">
        <ele>825.5</ele>
        <time>2015-12-06T12:10:58Z</time>
      </trkpt>
      <trkpt lat="44.13187" lon="3.20338">
        <ele>827</ele>
        <time>2015-12-06T12:10:59Z</time>
      </trkpt>
      <trkpt lat="44.13188" lon="3.20338">
        <ele>828.5</ele>
        <time>2015-12-06T12:11:00Z</time>
      </trkpt>
      <trkpt lat="44.13188" lon="3.20338">
        <ele>828.5</ele>
        <time>2015-12-06T12:11:01Z</time>
      </trkpt>
      <trkpt lat="44.13187" lon="3.20339">
        <ele>831.5</ele>
        <time>2015-12-06T12:11:02Z</time>
      </trkpt>
      <trkpt lat="44.13187" lon="3.20338">
        <ele>835</ele>
        <time>2015-12-06T12:11:03Z</time>
      </trkpt>
      <trkpt lat="44.13185" lon="3.20341">
        <ele>837.5</ele>
        <time>2015-12-06T12:11:04Z</time>
      </trkpt>
      <trkpt lat="44.13185" lon="3.20345">
        <ele>841</ele>
        <time>2015-12-06T12:11:06Z</time>
      </trkpt>
      <trkpt lat="44.13185" lon="3.20345">
        <ele>845.5</ele>
        <time>2015-12-06T12:11:07Z</time>
      </trkpt>
      <trkpt lat="44.13185" lon="3.20343">
        <ele>848</ele>
        <time>2015-12-06T12:11:08Z</time>
      </trkpt>
      <trkpt lat="44.13185" lon="3.20343">
        <ele>850</ele>
        <time>2015-12-06T12:11:09Z</time>
      </trkpt>
      <trkpt lat="44.13185" lon="3.20344">
        <ele>850</ele>
        <time>2015-12-06T12:11:10Z</time>
      </trkpt>
      <trkpt lat="44.13186" lon="3.20345">
        <ele>851</ele>
        <time>2015-12-06T12:11:11Z</time>
      </trkpt>
      <trkpt lat="44.13185" lon="3.20346">
        <ele>853</ele>
        <time>2015-12-06T12:11:12Z</time>
      </trkpt>
      <trkpt lat="44.13185" lon="3.20348">
        <ele>853.5</ele>
        <time>2015-12-06T12:11:17Z</time>
      </trkpt>
      <trkpt lat="44.13185" lon="3.20351">
        <ele>853</ele>
        <time>2015-12-06T12:11:19Z</time>
      </trkpt>
      <trkpt lat="44.13186" lon="3.20353">
        <ele>853</ele>
        <time>2015-12-06T12:11:20Z</time>
      </trkpt>
      <trkpt lat="44.13187" lon="3.20356">
        <ele>855.5</ele>
        <time>2015-12-06T12:11:21Z</time>
      </trkpt>
      <trkpt lat="44.13188" lon="3.20358">
        <ele>853.5</ele>
        <time>2015-12-06T12:11:22Z</time>
      </trkpt>
      <trkpt lat="44.13191" lon="3.2036">
        <ele>853</ele>
        <time>2015-12-06T12:11:23Z</time>
      </trkpt>
      <trkpt lat="44.13193" lon="3.20362">
        <ele>853.5</ele>
        <time>2015-12-06T12:11:24Z</time>
      </trkpt>
      <trkpt lat="44.13194" lon="3.20363">
        <ele>854</ele>
        <time>2015-12-06T12:11:25Z</time>
      </trkpt>
      <trkpt lat="44.13196" lon="3.20366">
        <ele>853.5</ele>
        <time>2015-12-06T12:11:26Z</time>
      </trkpt>
      <trkpt lat="44.13199" lon="3.20368">
        <ele>852.5</ele>
        <time>2015-12-06T12:11:27Z</time>
      </trkpt>
      <trkpt lat="44.13202" lon="3.20371">
        <ele>851.5</ele>
        <time>2015-12-06T12:11:28Z</time>
      </trkpt>
      <trkpt lat="44.13207" lon="3.20375">
        <ele>852</ele>
        <time>2015-12-06T12:11:29Z</time>
      </trkpt>
      <trkpt lat="44.13208" lon="3.20378">
        <ele>853.5</ele>
        <time>2015-12-06T12:11:30Z</time>
      </trkpt>
      <trkpt lat="44.13207" lon="3.20381">
        <ele>854</ele>
        <time>2015-12-06T12:11:31Z</time>
      </trkpt>
      <trkpt lat="44.13205" lon="3.20382">
        <ele>854.5</ele>
        <time>2015-12-06T12:11:32Z</time>
      </trkpt>
      <trkpt lat="44.13203" lon="3.20381">
        <ele>854.5</ele>
        <time>2015-12-06T12:11:33Z</time>
      </trkpt>
      <trkpt lat="44.13201" lon="3.20382">
        <ele>854.5</ele>
        <time>2015-12-06T12:11:34Z</time>
      </trkpt>
      <trkpt lat="44.13197" lon="3.20379">
        <ele>855</ele>
        <time>2015-12-06T12:11:35Z</time>
      </trkpt>
      <trkpt lat="44.13194" lon="3.20378">
        <ele>854</ele>
        <time>2015-12-06T12:11:36Z</time>
      </trkpt>
      <trkpt lat="44.1319" lon="3.20377">
        <ele>854</ele>
        <time>2015-12-06T12:11:37Z</time>
      </trkpt>
      <trkpt lat="44.13185" lon="3.20377">
        <ele>855</ele>
        <time>2015-12-06T12:11:38Z</time>
      </trkpt>
      <trkpt lat="44.1318" lon="3.20377">
        <ele>855</ele>
        <time>2015-12-06T12:11:39Z</time>
      </trkpt>
      <trkpt lat="44.13174" lon="3.20376">
        <ele>853.5</ele>
        <time>2015-12-06T12:11:40Z</time>
      </trkpt>
      <trkpt lat="44.13163" lon="3.20371">
        <ele>856.5</ele>
        <time>2015-12-06T12:11:42Z</time>
      </trkpt>
      <trkpt lat="44.13158" lon="3.2037">
        <ele>858.5</ele>
        <time>2015-12-06T12:11:46Z</time>
      </trkpt>
      <trkpt lat="44.13153" lon="3.20371">
        <ele>859</ele>
        <time>2015-12-06T12:11:48Z</time>
      </trkpt>
      <trkpt lat="44.13151" lon="3.2037">
        <ele>859</ele>
        <time>2015-12-06T12:11:49Z</time>
      </trkpt>
      <trkpt lat="44.1315" lon="3.20369">
        <ele>859.5</ele>
        <time>2015-12-06T12:11:50Z</time>
      </trkpt>
      <trkpt lat="44.13148" lon="3.20367">
        <ele>860</ele>
        <time>2015-12-06T12:11:51Z</time>
      </trkpt>
      <trkpt lat="44.13145" lon="3.20366">
        <ele>858.5</ele>
        <time>2015-12-06T12:11:52Z</time>
      </trkpt>
      <trkpt lat="44.13143" lon="3.20365">
        <ele>858.5</ele>
        <time>2015-12-06T12:11:52Z</time>
      </trkpt>
      <trkpt lat="44.13141" lon="3.2037">
        <ele>858</ele>
        <time>2015-12-06T12:11:53Z</time>
      </trkpt>
      <trkpt lat="44.1314" lon="3.2037">
        <ele>856.5</ele>
        <time>2015-12-06T12:11:54Z</time>
      </trkpt>
      <trkpt lat="44.13141" lon="3.20367">
        <ele>856.5</ele>
        <time>2015-12-06T12:11:55Z</time>
      </trkpt>
      <trkpt lat="44.1314" lon="3.20368">
        <ele>856</ele>
        <time>2015-12-06T12:11:56Z</time>
      </trkpt>
      <trkpt lat="44.13138" lon="3.20368">
        <ele>855</ele>
        <time>2015-12-06T12:11:57Z</time>
      </trkpt>
      <trkpt lat="44.13137" lon="3.20368">
        <ele>853</ele>
        <time>2015-12-06T12:11:58Z</time>
      </trkpt>
      <trkpt lat="44.13135" lon="3.20371">
        <ele>851.5</ele>
        <time>2015-12-06T12:11:59Z</time>
      </trkpt>
      <trkpt lat="44.13134" lon="3.20373">
        <ele>851</ele>
        <time>2015-12-06T12:12:00Z</time>
      </trkpt>
      <trkpt lat="44.13134" lon="3.20374">
        <ele>852.5</ele>
        <time>2015-12-06T12:12:01Z</time>
      </trkpt>
      <trkpt lat="44.13133" lon="3.20374">
        <ele>854.5</ele>
        <time>2015-12-06T12:12:02Z</time>
      </trkpt>
      <trkpt lat="44.13133" lon="3.20376">
        <ele>853</ele>
        <time>2015-12-06T12:12:03Z</time>
      </trkpt>
      <trkpt lat="44.13134" lon="3.20378">
        <ele>850</ele>
        <time>2015-12-06T12:12:04Z</time>
      </trkpt>
      <trkpt lat="44.13135" lon="3.20386">
        <ele>840</ele>
        <time>2015-12-06T12:12:07Z</time>
      </trkpt>
      <trkpt lat="44.13136" lon="3.20385">
        <ele>838</ele>
        <time>2015-12-06T12:12:09Z</time>
      </trkpt>
      <trkpt lat="44.13136" lon="3.20384">
        <ele>837.5</ele>
        <time>2015-12-06T12:12:10Z</time>
      </trkpt>
      <trkpt lat="44.13138" lon="3.20379">
        <ele>838</ele>
        <time>2015-12-06T12:12:17Z</time>
      </trkpt>
      <trkpt lat="44.13138" lon="3.20377">
        <ele>840.5</ele>
        <time>2015-12-06T12:12:21Z</time>
      </trkpt>
      <trkpt lat="44.13139" lon="3.20376">
        <ele>837</ele>
        <time>2015-12-06T12:12:26Z</time>
      </trkpt>
      <trkpt lat="44.13141" lon="3.20384">
        <ele>835.5</ele>
        <time>2015-12-06T12:12:39Z</time>
      </trkpt>
      <trkpt lat="44.13135" lon="3.20398">
        <ele>835.5</ele>
        <time>2015-12-06T12:12:50Z</time>
      </trkpt>
      <trkpt lat="44.13133" lon="3.20398">
        <ele>827.5</ele>
        <time>2015-12-06T12:12:54Z</time>
      </trkpt>
      <trkpt lat="44.13132" lon="3.20396">
        <ele>826</ele>
        <time>2015-12-06T12:12:59Z</time>
      </trkpt>
      <trkpt lat="44.13132" lon="3.20397">
        <ele>825.5</ele>
        <time>2015-12-06T12:13:02Z</time>
      </trkpt>
      <trkpt lat="44.1313" lon="3.20401">
        <ele>824.5</ele>
        <time>2015-12-06T12:13:04Z</time>
      </trkpt>
      <trkpt lat="44.13111" lon="3.20397">
        <ele>850.5</ele>
        <time>2015-12-06T12:13:08Z</time>
      </trkpt>
      <trkpt lat="44.13109" lon="3.20405">
        <ele>858.5</ele>
        <time>2015-12-06T12:13:10Z</time>
      </trkpt>
      <trkpt lat="44.13106" lon="3.20408">
        <ele>860.5</ele>
        <time>2015-12-06T12:13:12Z</time>
      </trkpt>
      <trkpt lat="44.13106" lon="3.20414">
        <ele>862.5</ele>
        <time>2015-12-06T12:13:12Z</time>
      </trkpt>
      <trkpt lat="44.13107" lon="3.20422">
        <ele>864</ele>
        <time>2015-12-06T12:13:13Z</time>
      </trkpt>
      <trkpt lat="44.1311" lon="3.20421">
        <ele>862</ele>
        <time>2015-12-06T12:13:14Z</time>
      </trkpt>
      <trkpt lat="44.13119" lon="3.20434">
        <ele>861.5</ele>
        <time>2015-12-06T12:13:16Z</time>
      </trkpt>
      <trkpt lat="44.13124" lon="3.20439">
        <ele>860.5</ele>
        <time>2015-12-06T12:13:17Z</time>
      </trkpt>
      <trkpt lat="44.13129" lon="3.20444">
        <ele>857.5</ele>
        <time>2015-12-06T12:13:18Z</time>
      </trkpt>
      <trkpt lat="44.1313" lon="3.20448">
        <ele>859.5</ele>
        <time>2015-12-06T12:13:19Z</time>
      </trkpt>
      <trkpt lat="44.13131" lon="3.20455">
        <ele>861.5</ele>
        <time>2015-12-06T12:13:20Z</time>
      </trkpt>
      <trkpt lat="44.13133" lon="3.20461">
        <ele>861.5</ele>
        <time>2015-12-06T12:13:22Z</time>
      </trkpt>
      <trkpt lat="44.13136" lon="3.20464">
        <ele>861.5</ele>
        <time>2015-12-06T12:13:22Z</time>
      </trkpt>
      <trkpt lat="44.13138" lon="3.20468">
        <ele>863</ele>
        <time>2015-12-06T12:13:23Z</time>
      </trkpt>
      <trkpt lat="44.13141" lon="3.20472">
        <ele>862</ele>
        <time>2015-12-06T12:13:24Z</time>
      </trkpt>
      <trkpt lat="44.13145" lon="3.20479">
        <ele>862</ele>
        <time>2015-12-06T12:13:26Z</time>
      </trkpt>
      <trkpt lat="44.13148" lon="3.20481">
        <ele>859.5</ele>
        <time>2015-12-06T12:13:27Z</time>
      </trkpt>
      <trkpt lat="44.13148" lon="3.20484">
        <ele>860</ele>
        <time>2015-12-06T12:13:28Z</time>
      </trkpt>
      <trkpt lat="44.1315" lon="3.20486">
        <ele>860.5</ele>
        <time>2015-12-06T12:13:29Z</time>
      </trkpt>
      <trkpt lat="44.1315" lon="3.2049">
        <ele>859</ele>
        <time>2015-12-06T12:13:30Z</time>
      </trkpt>
      <trkpt lat="44.1315" lon="3.2049">
        <ele>860.5</ele>
        <time>2015-12-06T12:13:32Z</time>
      </trkpt>
      <trkpt lat="44.1315" lon="3.20491">
        <ele>861</ele>
        <time>2015-12-06T12:13:33Z</time>
      </trkpt>
      <trkpt lat="44.13151" lon="3.2049">
        <ele>864</ele>
        <time>2015-12-06T12:13:36Z</time>
      </trkpt>
      <trkpt lat="44.13152" lon="3.20494">
        <ele>861.5</ele>
        <time>2015-12-06T12:13:38Z</time>
      </trkpt>
      <trkpt lat="44.13153" lon="3.20494">
        <ele>864</ele>
        <time>2015-12-06T12:13:39Z</time>
      </trkpt>
      <trkpt lat="44.13153" lon="3.20496">
        <ele>862.5</ele>
        <time>2015-12-06T12:13:40Z</time>
      </trkpt>
      <trkpt lat="44.13154" lon="3.20497">
        <ele>868.5</ele>
        <time>2015-12-06T12:13:41Z</time>
      </trkpt>
      <trkpt lat="44.13154" lon="3.20499">
        <ele>867</ele>
        <time>2015-12-06T12:13:42Z</time>
      </trkpt>
      <trkpt lat="44.13154" lon="3.20502">
        <ele>870</ele>
        <time>2015-12-06T12:13:43Z</time>
      </trkpt>
      <trkpt lat="44.13154" lon="3.20505">
        <ele>874</ele>
        <time>2015-12-06T12:13:44Z</time>
      </trkpt>
      <trkpt lat="44.13154" lon="3.20508">
        <ele>878.5</ele>
        <time>2015-12-06T12:13:45Z</time>
      </trkpt>
      <trkpt lat="44.13154" lon="3.20508">
        <ele>883</ele>
        <time>2015-12-06T12:13:46Z</time>
      </trkpt>
      <trkpt lat="44.13155" lon="3.20511">
        <ele>879.5</ele>
        <time>2015-12-06T12:13:48Z</time>
      </trkpt>
      <trkpt lat="44.13157" lon="3.20513">
        <ele>890</ele>
        <time>2015-12-06T12:14:02Z</time>
      </trkpt>
      <trkpt lat="44.13158" lon="3.20513">
        <ele>897</ele>
        <time>2015-12-06T12:14:10Z</time>
      </trkpt>
      <trkpt lat="44.13155" lon="3.20514">
        <ele>903</ele>
        <time>2015-12-06T12:14:14Z</time>
      </trkpt>
      <trkpt lat="44.13153" lon="3.20516">
        <ele>899</ele>
        <time>2015-12-06T12:14:16Z</time>
      </trkpt>
      <trkpt lat="44.13153" lon="3.20517">
        <ele>899</ele>
        <time>2015-12-06T12:14:16Z</time>
      </trkpt>
      <trkpt lat="44.13152" lon="3.20518">
        <ele>900.5</ele>
        <time>2015-12-06T12:14:17Z</time>
      </trkpt>
      <trkpt lat="44.13153" lon="3.2052">
        <ele>901.5</ele>
        <time>2015-12-06T12:14:18Z</time>
      </trkpt>
      <trkpt lat="44.13154" lon="3.20541">
        <ele>906</ele>
        <time>2015-12-06T12:14:22Z</time>
      </trkpt>
      <trkpt lat="44.13155" lon="3.2054">
        <ele>905</ele>
        <time>2015-12-06T12:14:23Z</time>
      </trkpt>
      <trkpt lat="44.13155" lon="3.2054">
        <ele>904</ele>
        <time>2015-12-06T12:14:25Z</time>
      </trkpt>
      <trkpt lat="44.13156" lon="3.20541">
        <ele>904</ele>
        <time>2015-12-06T12:14:27Z</time>
      </trkpt>
      <trkpt lat="44.13156" lon="3.2054">
        <ele>903.5</ele>
        <time>2015-12-06T12:14:30Z</time>
      </trkpt>
      <trkpt lat="44.13157" lon="3.2054">
        <ele>904</ele>
        <time>2015-12-06T12:14:30Z</time>
      </trkpt>
      <trkpt lat="44.13158" lon="3.2054">
        <ele>903</ele>
        <time>2015-12-06T12:14:31Z</time>
      </trkpt>
      <trkpt lat="44.13159" lon="3.20541">
        <ele>901.5</ele>
        <time>2015-12-06T12:14:32Z</time>
      </trkpt>
      <trkpt lat="44.1316" lon="3.20541">
        <ele>899</ele>
        <time>2015-12-06T12:14:33Z</time>
      </trkpt>
      <trkpt lat="44.13161" lon="3.20542">
        <ele>900.5</ele>
        <time>2015-12-06T12:14:34Z</time>
      </trkpt>
      <trkpt lat="44.13156" lon="3.20541">
        <ele>890</ele>
        <time>2015-12-06T12:14:39Z</time>
      </trkpt>
      <trkpt lat="44.13155" lon="3.20542">
        <ele>894</ele>
        <time>2015-12-06T12:14:43Z</time>
      </trkpt>
      <trkpt lat="44.13158" lon="3.20541">
        <ele>898.5</ele>
        <time>2015-12-06T12:14:53Z</time>
      </trkpt>
      <trkpt lat="44.13158" lon="3.20538">
        <ele>896</ele>
        <time>2015-12-06T12:14:55Z</time>
      </trkpt>
      <trkpt lat="44.13159" lon="3.20537">
        <ele>895</ele>
        <time>2015-12-06T12:14:55Z</time>
      </trkpt>
      <trkpt lat="44.13159" lon="3.20536">
        <ele>893</ele>
        <time>2015-12-06T12:14:57Z</time>
      </trkpt>
      <trkpt lat="44.1316" lon="3.20536">
        <ele>894.5</ele>
        <time>2015-12-06T12:14:57Z</time>
      </trkpt>
      <trkpt lat="44.13159" lon="3.20532">
        <ele>908</ele>
        <time>2015-12-06T12:15:07Z</time>
      </trkpt>
      <trkpt lat="44.13161" lon="3.20535">
        <ele>905</ele>
        <time>2015-12-06T12:15:08Z</time>
      </trkpt>
      <trkpt lat="44.13162" lon="3.20535">
        <ele>904</ele>
        <time>2015-12-06T12:15:09Z</time>
      </trkpt>
      <trkpt lat="44.13161" lon="3.20533">
        <ele>902</ele>
        <time>2015-12-06T12:15:16Z</time>
      </trkpt>
      <trkpt lat="44.1316" lon="3.2053">
        <ele>895</ele>
        <time>2015-12-06T12:15:18Z</time>
      </trkpt>
      <trkpt lat="44.13153" lon="3.2053">
        <ele>885</ele>
        <time>2015-12-06T12:15:25Z</time>
      </trkpt>
      <trkpt lat="44.13151" lon="3.2053">
        <ele>884.5</ele>
        <time>2015-12-06T12:15:27Z</time>
      </trkpt>
      <trkpt lat="44.13141" lon="3.20532">
        <ele>877.5</ele>
        <time>2015-12-06T12:15:35Z</time>
      </trkpt>
      <trkpt lat="44.1314" lon="3.20534">
        <ele>878</ele>
        <time>2015-12-06T12:15:38Z</time>
      </trkpt>
      <trkpt lat="44.1314" lon="3.20535">
        <ele>878</ele>
        <time>2015-12-06T12:15:38Z</time>
      </trkpt>
      <trkpt lat="44.13139" lon="3.20536">
        <ele>878.5</ele>
        <time>2015-12-06T12:15:39Z</time>
      </trkpt>
      <trkpt lat="44.13139" lon="3.20538">
        <ele>879.5</ele>
        <time>2015-12-06T12:15:41Z</time>
      </trkpt>
      <trkpt lat="44.13138" lon="3.20539">
        <ele>879.5</ele>
        <time>2015-12-06T12:15:42Z</time>
      </trkpt>
      <trkpt lat="44.13138" lon="3.2054">
        <ele>879</ele>
        <time>2015-12-06T12:15:43Z</time>
      </trkpt>
      <trkpt lat="44.13139" lon="3.20541">
        <ele>880</ele>
        <time>2015-12-06T12:15:44Z</time>
      </trkpt>
      <trkpt lat="44.13139" lon="3.20542">
        <ele>880</ele>
        <time>2015-12-06T12:15:46Z</time>
      </trkpt>
      <trkpt lat="44.13139" lon="3.20544">
        <ele>881</ele>
        <time>2015-12-06T12:15:47Z</time>
      </trkpt>
      <trkpt lat="44.1314" lon="3.20543">
        <ele>881.5</ele>
        <time>2015-12-06T12:15:49Z</time>
      </trkpt>
      <trkpt lat="44.13139" lon="3.20549">
        <ele>886.5</ele>
        <time>2015-12-06T12:15:56Z</time>
      </trkpt>
      <trkpt lat="44.13129" lon="3.20543">
        <ele>871</ele>
        <time>2015-12-06T12:16:24Z</time>
      </trkpt>
      <trkpt lat="44.13131" lon="3.20547">
        <ele>871</ele>
        <time>2015-12-06T12:16:26Z</time>
      </trkpt>
      <trkpt lat="44.13132" lon="3.20548">
        <ele>869.5</ele>
        <time>2015-12-06T12:16:27Z</time>
      </trkpt>
      <trkpt lat="44.13132" lon="3.20549">
        <ele>869</ele>
        <time>2015-12-06T12:16:28Z</time>
      </trkpt>
      <trkpt lat="44.13132" lon="3.2055">
        <ele>869</ele>
        <time>2015-12-06T12:16:29Z</time>
      </trkpt>
      <trkpt lat="44.13129" lon="3.20549">
        <ele>847.5</ele>
        <time>2015-12-06T12:16:58Z</time>
      </trkpt>
      <trkpt lat="44.13128" lon="3.20553">
        <ele>853.5</ele>
        <time>2015-12-06T12:17:06Z</time>
      </trkpt>
      <trkpt lat="44.1313" lon="3.20556">
        <ele>851.5</ele>
        <time>2015-12-06T12:17:08Z</time>
      </trkpt>
      <trkpt lat="44.13131" lon="3.20558">
        <ele>851</ele>
        <time>2015-12-06T12:17:09Z</time>
      </trkpt>
      <trkpt lat="44.13133" lon="3.2056">
        <ele>851</ele>
        <time>2015-12-06T12:17:10Z</time>
      </trkpt>
      <trkpt lat="44.13133" lon="3.20562">
        <ele>850.5</ele>
        <time>2015-12-06T12:17:11Z</time>
      </trkpt>
      <trkpt lat="44.13135" lon="3.20564">
        <ele>850.5</ele>
        <time>2015-12-06T12:17:12Z</time>
      </trkpt>
      <trkpt lat="44.13137" lon="3.20567">
        <ele>851</ele>
        <time>2015-12-06T12:17:13Z</time>
      </trkpt>
      <trkpt lat="44.13137" lon="3.2057">
        <ele>852.5</ele>
        <time>2015-12-06T12:17:14Z</time>
      </trkpt>
      <trkpt lat="44.1314" lon="3.20572">
        <ele>854.5</ele>
        <time>2015-12-06T12:17:15Z</time>
      </trkpt>
      <trkpt lat="44.13143" lon="3.20575">
        <ele>856</ele>
        <time>2015-12-06T12:17:17Z</time>
      </trkpt>
      <trkpt lat="44.13145" lon="3.20575">
        <ele>855</ele>
        <time>2015-12-06T12:17:17Z</time>
      </trkpt>
      <trkpt lat="44.13147" lon="3.20576">
        <ele>851</ele>
        <time>2015-12-06T12:17:18Z</time>
      </trkpt>
      <trkpt lat="44.13148" lon="3.20577">
        <ele>848.5</ele>
        <time>2015-12-06T12:17:19Z</time>
      </trkpt>
      <trkpt lat="44.13149" lon="3.20578">
        <ele>847.5</ele>
        <time>2015-12-06T12:17:20Z</time>
      </trkpt>
      <trkpt lat="44.13151" lon="3.20579">
        <ele>849</ele>
        <time>2015-12-06T12:17:21Z</time>
      </trkpt>
      <trkpt lat="44.13153" lon="3.20581">
        <ele>850</ele>
        <time>2015-12-06T12:17:22Z</time>
      </trkpt>
      <trkpt lat="44.13156" lon="3.20584">
        <ele>852</ele>
        <time>2015-12-06T12:17:23Z</time>
      </trkpt>
      <trkpt lat="44.13159" lon="3.20589">
        <ele>850.5</ele>
        <time>2015-12-06T12:17:24Z</time>
      </trkpt>
      <trkpt lat="44.13171" lon="3.206">
        <ele>864</ele>
        <time>2015-12-06T12:17:26Z</time>
      </trkpt>
      <trkpt lat="44.13181" lon="3.20615">
        <ele>869</ele>
        <time>2015-12-06T12:17:28Z</time>
      </trkpt>
      <trkpt lat="44.13192" lon="3.20628">
        <ele>867.5</ele>
        <time>2015-12-06T12:17:30Z</time>
      </trkpt>
      <trkpt lat="44.13198" lon="3.20633">
        <ele>867</ele>
        <time>2015-12-06T12:17:31Z</time>
      </trkpt>
      <trkpt lat="44.13203" lon="3.20638">
        <ele>867.5</ele>
        <time>2015-12-06T12:17:32Z</time>
      </trkpt>
      <trkpt lat="44.13205" lon="3.20643">
        <ele>868.5</ele>
        <time>2015-12-06T12:17:33Z</time>
      </trkpt>
      <trkpt lat="44.13206" lon="3.20648">
        <ele>873</ele>
        <time>2015-12-06T12:17:35Z</time>
      </trkpt>
      <trkpt lat="44.13207" lon="3.20648">
        <ele>877.5</ele>
        <time>2015-12-06T12:17:36Z</time>
      </trkpt>
      <trkpt lat="44.13208" lon="3.20651">
        <ele>876</ele>
        <time>2015-12-06T12:17:37Z</time>
      </trkpt>
      <trkpt lat="44.13209" lon="3.20652">
        <ele>874.5</ele>
        <time>2015-12-06T12:17:38Z</time>
      </trkpt>
      <trkpt lat="44.13207" lon="3.20654">
        <ele>875</ele>
        <time>2015-12-06T12:17:39Z</time>
      </trkpt>
      <trkpt lat="44.13203" lon="3.20656">
        <ele>880.5</ele>
        <time>2015-12-06T12:17:40Z</time>
      </trkpt>
      <trkpt lat="44.13201" lon="3.20658">
        <ele>880.5</ele>
        <time>2015-12-06T12:17:41Z</time>
      </trkpt>
      <trkpt lat="44.13199" lon="3.20658">
        <ele>879.5</ele>
        <time>2015-12-06T12:17:42Z</time>
      </trkpt>
      <trkpt lat="44.13196" lon="3.20659">
        <ele>878</ele>
        <time>2015-12-06T12:17:43Z</time>
      </trkpt>
      <trkpt lat="44.13195" lon="3.20657">
        <ele>874.5</ele>
        <time>2015-12-06T12:17:45Z</time>
      </trkpt>
      <trkpt lat="44.13194" lon="3.20655">
        <ele>876</ele>
        <time>2015-12-06T12:17:46Z</time>
      </trkpt>
      <trkpt lat="44.13194" lon="3.20658">
        <ele>876.5</ele>
        <time>2015-12-06T12:17:47Z</time>
      </trkpt>
      <trkpt lat="44.13193" lon="3.20659">
        <ele>880.5</ele>
        <time>2015-12-06T12:17:48Z</time>
      </trkpt>
      <trkpt lat="44.13191" lon="3.20661">
        <ele>889</ele>
        <time>2015-12-06T12:17:49Z</time>
      </trkpt>
      <trkpt lat="44.13189" lon="3.20668">
        <ele>895.5</ele>
        <time>2015-12-06T12:17:51Z</time>
      </trkpt>
      <trkpt lat="44.13187" lon="3.20671">
        <ele>897</ele>
        <time>2015-12-06T12:17:52Z</time>
      </trkpt>
      <trkpt lat="44.13185" lon="3.20671">
        <ele>898.5</ele>
        <time>2015-12-06T12:17:53Z</time>
      </trkpt>
      <trkpt lat="44.13184" lon="3.20671">
        <ele>898</ele>
        <time>2015-12-06T12:17:54Z</time>
      </trkpt>
      <trkpt lat="44.13185" lon="3.20672">
        <ele>897.5</ele>
        <time>2015-12-06T12:17:56Z</time>
      </trkpt>
      <trkpt lat="44.13183" lon="3.20674">
        <ele>899</ele>
        <time>2015-12-06T12:17:56Z</time>
      </trkpt>
      <trkpt lat="44.13181" lon="3.20673">
        <ele>896</ele>
        <time>2015-12-06T12:17:57Z</time>
      </trkpt>
      <trkpt lat="44.1318" lon="3.20674">
        <ele>894.5</ele>
        <time>2015-12-06T12:17:58Z</time>
      </trkpt>
      <trkpt lat="44.13178" lon="3.20676">
        <ele>893.5</ele>
        <time>2015-12-06T12:17:59Z</time>
      </trkpt>
      <trkpt lat="44.13176" lon="3.20677">
        <ele>894.5</ele>
        <time>2015-12-06T12:18:00Z</time>
      </trkpt>
      <trkpt lat="44.13176" lon="3.20677">
        <ele>893</ele>
        <time>2015-12-06T12:18:01Z</time>
      </trkpt>
      <trkpt lat="44.13177" lon="3.20675">
        <ele>895</ele>
        <time>2015-12-06T12:18:02Z</time>
      </trkpt>
      <trkpt lat="44.13176" lon="3.20675">
        <ele>898</ele>
        <time>2015-12-06T12:18:03Z</time>
      </trkpt>
      <trkpt lat="44.13175" lon="3.20674">
        <ele>904</ele>
        <time>2015-12-06T12:18:04Z</time>
      </trkpt>
      <trkpt lat="44.13173" lon="3.20663">
        <ele>921.5</ele>
        <time>2015-12-06T12:18:12Z</time>
      </trkpt>
      <trkpt lat="44.13173" lon="3.20663">
        <ele>923.5</ele>
        <time>2015-12-06T12:18:14Z</time>
      </trkpt>
      <trkpt lat="44.13167" lon="3.20669">
        <ele>925</ele>
        <time>2015-12-06T12:18:16Z</time>
      </trkpt>
      <trkpt lat="44.13163" lon="3.2067">
        <ele>926</ele>
        <time>2015-12-06T12:18:17Z</time>
      </trkpt>
      <trkpt lat="44.1315" lon="3.20677">
        <ele>925</ele>
        <time>2015-12-06T12:18:19Z</time>
      </trkpt>
      <trkpt lat="44.13143" lon="3.20679">
        <ele>925.5</ele>
        <time>2015-12-06T12:18:20Z</time>
      </trkpt>
      <trkpt lat="44.13122" lon="3.20679">
        <ele>908.5</ele>
        <time>2015-12-06T12:18:22Z</time>
      </trkpt>
      <trkpt lat="44.13105" lon="3.2068">
        <ele>893</ele>
        <time>2015-12-06T12:18:24Z</time>
      </trkpt>
      <trkpt lat="44.13098" lon="3.20675">
        <ele>891.5</ele>
        <time>2015-12-06T12:18:25Z</time>
      </trkpt>
      <trkpt lat="44.13094" lon="3.20671">
        <ele>893.5</ele>
        <time>2015-12-06T12:18:26Z</time>
      </trkpt>
      <trkpt lat="44.1309" lon="3.20668">
        <ele>894.5</ele>
        <time>2015-12-06T12:18:27Z</time>
      </trkpt>
      <trkpt lat="44.13081" lon="3.20665">
        <ele>894.5</ele>
        <time>2015-12-06T12:18:29Z</time>
      </trkpt>
      <trkpt lat="44.13076" lon="3.20668">
        <ele>893</ele>
        <time>2015-12-06T12:18:31Z</time>
      </trkpt>
      <trkpt lat="44.13073" lon="3.20669">
        <ele>893</ele>
        <time>2015-12-06T12:18:32Z</time>
      </trkpt>
      <trkpt lat="44.13067" lon="3.20668">
        <ele>888.5</ele>
        <time>2015-12-06T12:18:33Z</time>
      </trkpt>
      <trkpt lat="44.13064" lon="3.20666">
        <ele>885.5</ele>
        <time>2015-12-06T12:18:34Z</time>
      </trkpt>
      <trkpt lat="44.13063" lon="3.20663">
        <ele>884</ele>
        <time>2015-12-06T12:18:35Z</time>
      </trkpt>
      <trkpt lat="44.13063" lon="3.20664">
        <ele>882.5</ele>
        <time>2015-12-06T12:18:36Z</time>
      </trkpt>
      <trkpt lat="44.13053" lon="3.20648">
        <ele>880.5</ele>
        <time>2015-12-06T12:18:46Z</time>
      </trkpt>
      <trkpt lat="44.13051" lon="3.20647">
        <ele>884.5</ele>
        <time>2015-12-06T12:18:52Z</time>
      </trkpt>
      <trkpt lat="44.1305" lon="3.2065">
        <ele>886</ele>
        <time>2015-12-06T12:18:54Z</time>
      </trkpt>
      <trkpt lat="44.1305" lon="3.20651">
        <ele>886.5</ele>
        <time>2015-12-06T12:18:55Z</time>
      </trkpt>
      <trkpt lat="44.1305" lon="3.20653">
        <ele>887</ele>
        <time>2015-12-06T12:18:56Z</time>
      </trkpt>
      <trkpt lat="44.1305" lon="3.20655">
        <ele>888</ele>
        <time>2015-12-06T12:18:57Z</time>
      </trkpt>
      <trkpt lat="44.1305" lon="3.20657">
        <ele>888</ele>
        <time>2015-12-06T12:18:58Z</time>
      </trkpt>
      <trkpt lat="44.13049" lon="3.20657">
        <ele>889</ele>
        <time>2015-12-06T12:18:59Z</time>
      </trkpt>
      <trkpt lat="44.13047" lon="3.20659">
        <ele>888</ele>
        <time>2015-12-06T12:19:00Z</time>
      </trkpt>
      <trkpt lat="44.13046" lon="3.2066">
        <ele>886.5</ele>
        <time>2015-12-06T12:19:01Z</time>
      </trkpt>
      <trkpt lat="44.13046" lon="3.20662">
        <ele>883</ele>
        <time>2015-12-06T12:19:02Z</time>
      </trkpt>
      <trkpt lat="44.13045" lon="3.20662">
        <ele>884</ele>
        <time>2015-12-06T12:19:03Z</time>
      </trkpt>
      <trkpt lat="44.13046" lon="3.20663">
        <ele>882.5</ele>
        <time>2015-12-06T12:19:04Z</time>
      </trkpt>
      <trkpt lat="44.13047" lon="3.20664">
        <ele>879</ele>
        <time>2015-12-06T12:19:05Z</time>
      </trkpt>
      <trkpt lat="44.13048" lon="3.20667">
        <ele>875</ele>
        <time>2015-12-06T12:19:06Z</time>
      </trkpt>
      <trkpt lat="44.13049" lon="3.20669">
        <ele>869.5</ele>
        <time>2015-12-06T12:19:07Z</time>
      </trkpt>
      <trkpt lat="44.13051" lon="3.2067">
        <ele>866.5</ele>
        <time>2015-12-06T12:19:08Z</time>
      </trkpt>
      <trkpt lat="44.1305" lon="3.20672">
        <ele>865.5</ele>
        <time>2015-12-06T12:19:09Z</time>
      </trkpt>
      <trkpt lat="44.13049" lon="3.20673">
        <ele>864.5</ele>
        <time>2015-12-06T12:19:10Z</time>
      </trkpt>
      <trkpt lat="44.13047" lon="3.20676">
        <ele>864.5</ele>
        <time>2015-12-06T12:19:11Z</time>
      </trkpt>
      <trkpt lat="44.13047" lon="3.20676">
        <ele>862.5</ele>
        <time>2015-12-06T12:19:12Z</time>
      </trkpt>
      <trkpt lat="44.13046" lon="3.20677">
        <ele>861.5</ele>
        <time>2015-12-06T12:19:13Z</time>
      </trkpt>
      <trkpt lat="44.1304" lon="3.20682">
        <ele>868</ele>
        <time>2015-12-06T12:19:15Z</time>
      </trkpt>
      <trkpt lat="44.13037" lon="3.20682">
        <ele>872.5</ele>
        <time>2015-12-06T12:19:16Z</time>
      </trkpt>
      <trkpt lat="44.13033" lon="3.20685">
        <ele>873</ele>
        <time>2015-12-06T12:19:17Z</time>
      </trkpt>
      <trkpt lat="44.1303" lon="3.20686">
        <ele>874</ele>
        <time>2015-12-06T12:19:18Z</time>
      </trkpt>
      <trkpt lat="44.13028" lon="3.20687">
        <ele>874</ele>
        <time>2015-12-06T12:19:19Z</time>
      </trkpt>
      <trkpt lat="44.13026" lon="3.20688">
        <ele>873.5</ele>
        <time>2015-12-06T12:19:20Z</time>
      </trkpt>
      <trkpt lat="44.13025" lon="3.20688">
        <ele>874.5</ele>
        <time>2015-12-06T12:19:21Z</time>
      </trkpt>
      <trkpt lat="44.13024" lon="3.2069">
        <ele>874.5</ele>
        <time>2015-12-06T12:19:22Z</time>
      </trkpt>
      <trkpt lat="44.13022" lon="3.20689">
        <ele>873</ele>
        <time>2015-12-06T12:19:23Z</time>
      </trkpt>
      <trkpt lat="44.1302" lon="3.20687">
        <ele>871</ele>
        <time>2015-12-06T12:19:24Z</time>
      </trkpt>
      <trkpt lat="44.13019" lon="3.20686">
        <ele>873</ele>
        <time>2015-12-06T12:19:25Z</time>
      </trkpt>
      <trkpt lat="44.13019" lon="3.20686">
        <ele>873.5</ele>
        <time>2015-12-06T12:19:26Z</time>
      </trkpt>
      <trkpt lat="44.1302" lon="3.20686">
        <ele>883</ele>
        <time>2015-12-06T12:19:31Z</time>
      </trkpt>
      <trkpt lat="44.13021" lon="3.20689">
        <ele>886.5</ele>
        <time>2015-12-06T12:19:33Z</time>
      </trkpt>
      <trkpt lat="44.13022" lon="3.20691">
        <ele>887.5</ele>
        <time>2015-12-06T12:19:34Z</time>
      </trkpt>
      <trkpt lat="44.13023" lon="3.20692">
        <ele>891</ele>
        <time>2015-12-06T12:19:35Z</time>
      </trkpt>
      <trkpt lat="44.13023" lon="3.20694">
        <ele>894.5</ele>
        <time>2015-12-06T12:19:36Z</time>
      </trkpt>
      <trkpt lat="44.13023" lon="3.20697">
        <ele>898.5</ele>
        <time>2015-12-06T12:19:38Z</time>
      </trkpt>
      <trkpt lat="44.13024" lon="3.20699">
        <ele>901.5</ele>
        <time>2015-12-06T12:19:40Z</time>
      </trkpt>
      <trkpt lat="44.13024" lon="3.20701">
        <ele>901</ele>
        <time>2015-12-06T12:19:41Z</time>
      </trkpt>
      <trkpt lat="44.13024" lon="3.20702">
        <ele>900</ele>
        <time>2015-12-06T12:19:42Z</time>
      </trkpt>
      <trkpt lat="44.13023" lon="3.20703">
        <ele>898</ele>
        <time>2015-12-06T12:19:43Z</time>
      </trkpt>
      <trkpt lat="44.13022" lon="3.20703">
        <ele>897</ele>
        <time>2015-12-06T12:19:44Z</time>
      </trkpt>
      <trkpt lat="44.13022" lon="3.20703">
        <ele>893.5</ele>
        <time>2015-12-06T12:19:45Z</time>
      </trkpt>
      <trkpt lat="44.13021" lon="3.20704">
        <ele>893.5</ele>
        <time>2015-12-06T12:19:46Z</time>
      </trkpt>
      <trkpt lat="44.13022" lon="3.20704">
        <ele>893</ele>
        <time>2015-12-06T12:19:47Z</time>
      </trkpt>
      <trkpt lat="44.13022" lon="3.20705">
        <ele>891</ele>
        <time>2015-12-06T12:19:48Z</time>
      </trkpt>
      <trkpt lat="44.13024" lon="3.20704">
        <ele>890</ele>
        <time>2015-12-06T12:19:49Z</time>
      </trkpt>
      <trkpt lat="44.13023" lon="3.20705">
        <ele>890.5</ele>
        <time>2015-12-06T12:19:50Z</time>
      </trkpt>
      <trkpt lat="44.13023" lon="3.20705">
        <ele>890</ele>
        <time>2015-12-06T12:19:51Z</time>
      </trkpt>
      <trkpt lat="44.13023" lon="3.20706">
        <ele>890</ele>
        <time>2015-12-06T12:19:52Z</time>
      </trkpt>
      <trkpt lat="44.13025" lon="3.20707">
        <ele>889</ele>
        <time>2015-12-06T12:19:55Z</time>
      </trkpt>
      <trkpt lat="44.13024" lon="3.20709">
        <ele>886.5</ele>
        <time>2015-12-06T12:19:57Z</time>
      </trkpt>
      <trkpt lat="44.13024" lon="3.2071">
        <ele>886</ele>
        <time>2015-12-06T12:19:58Z</time>
      </trkpt>
      <trkpt lat="44.13024" lon="3.20711">
        <ele>885</ele>
        <time>2015-12-06T12:19:59Z</time>
      </trkpt>
      <trkpt lat="44.13023" lon="3.20711">
        <ele>882.5</ele>
        <time>2015-12-06T12:20:00Z</time>
      </trkpt>
      <trkpt lat="44.13022" lon="3.20713">
        <ele>879.5</ele>
        <time>2015-12-06T12:20:01Z</time>
      </trkpt>
      <trkpt lat="44.13023" lon="3.20714">
        <ele>879</ele>
        <time>2015-12-06T12:20:02Z</time>
      </trkpt>
      <trkpt lat="44.13022" lon="3.20713">
        <ele>880.5</ele>
        <time>2015-12-06T12:20:03Z</time>
      </trkpt>
      <trkpt lat="44.13023" lon="3.20714">
        <ele>879.5</ele>
        <time>2015-12-06T12:20:04Z</time>
      </trkpt>
      <trkpt lat="44.13022" lon="3.20715">
        <ele>881.5</ele>
        <time>2015-12-06T12:20:05Z</time>
      </trkpt>
      <trkpt lat="44.13023" lon="3.20716">
        <ele>881.5</ele>
        <time>2015-12-06T12:20:06Z</time>
      </trkpt>
      <trkpt lat="44.13022" lon="3.20721">
        <ele>876</ele>
        <time>2015-12-06T12:20:10Z</time>
      </trkpt>
      <trkpt lat="44.13023" lon="3.20722">
        <ele>875</ele>
        <time>2015-12-06T12:20:12Z</time>
      </trkpt>
      <trkpt lat="44.13022" lon="3.20724">
        <ele>873.5</ele>
        <time>2015-12-06T12:20:13Z</time>
      </trkpt>
      <trkpt lat="44.1302" lon="3.20726">
        <ele>873.5</ele>
        <time>2015-12-06T12:20:14Z</time>
      </trkpt>
      <trkpt lat="44.13015" lon="3.20728">
        <ele>870.5</ele>
        <time>2015-12-06T12:20:16Z</time>
      </trkpt>
      <trkpt lat="44.13011" lon="3.20728">
        <ele>868</ele>
        <time>2015-12-06T12:20:17Z</time>
      </trkpt>
      <trkpt lat="44.13009" lon="3.20727">
        <ele>866.5</ele>
        <time>2015-12-06T12:20:18Z</time>
      </trkpt>
      <trkpt lat="44.13005" lon="3.20727">
        <ele>866.5</ele>
        <time>2015-12-06T12:20:19Z</time>
      </trkpt>
      <trkpt lat="44.13003" lon="3.20728">
        <ele>862.5</ele>
        <time>2015-12-06T12:20:20Z</time>
      </trkpt>
      <trkpt lat="44.13" lon="3.20729">
        <ele>865</ele>
        <time>2015-12-06T12:20:21Z</time>
      </trkpt>
      <trkpt lat="44.12997" lon="3.20728">
        <ele>864.5</ele>
        <time>2015-12-06T12:20:22Z</time>
      </trkpt>
      <trkpt lat="44.12995" lon="3.20727">
        <ele>864.5</ele>
        <time>2015-12-06T12:20:23Z</time>
      </trkpt>
      <trkpt lat="44.12993" lon="3.20726">
        <ele>864.5</ele>
        <time>2015-12-06T12:20:24Z</time>
      </trkpt>
      <trkpt lat="44.12994" lon="3.20728">
        <ele>864.5</ele>
        <time>2015-12-06T12:20:25Z</time>
      </trkpt>
      <trkpt lat="44.12986" lon="3.20735">
        <ele>871</ele>
        <time>2015-12-06T12:20:27Z</time>
      </trkpt>
      <trkpt lat="44.12986" lon="3.20739">
        <ele>872</ele>
        <time>2015-12-06T12:20:28Z</time>
      </trkpt>
      <trkpt lat="44.12984" lon="3.20739">
        <ele>874.5</ele>
        <time>2015-12-06T12:20:29Z</time>
      </trkpt>
      <trkpt lat="44.12982" lon="3.20739">
        <ele>875.5</ele>
        <time>2015-12-06T12:20:30Z</time>
      </trkpt>
      <trkpt lat="44.12978" lon="3.20739">
        <ele>878</ele>
        <time>2015-12-06T12:20:31Z</time>
      </trkpt>
      <trkpt lat="44.12975" lon="3.20739">
        <ele>877.5</ele>
        <time>2015-12-06T12:20:32Z</time>
      </trkpt>
      <trkpt lat="44.1297" lon="3.20737">
        <ele>882.5</ele>
        <time>2015-12-06T12:20:33Z</time>
      </trkpt>
      <trkpt lat="44.12966" lon="3.20738">
        <ele>881.5</ele>
        <time>2015-12-06T12:20:34Z</time>
      </trkpt>
      <trkpt lat="44.12959" lon="3.20746">
        <ele>879</ele>
        <time>2015-12-06T12:20:36Z</time>
      </trkpt>
      <trkpt lat="44.12957" lon="3.20746">
        <ele>882.5</ele>
        <time>2015-12-06T12:20:37Z</time>
      </trkpt>
      <trkpt lat="44.12952" lon="3.20747">
        <ele>884.5</ele>
        <time>2015-12-06T12:20:38Z</time>
      </trkpt>
      <trkpt lat="44.12949" lon="3.20747">
        <ele>883.5</ele>
        <time>2015-12-06T12:20:39Z</time>
      </trkpt>
      <trkpt lat="44.12944" lon="3.20746">
        <ele>883.5</ele>
        <time>2015-12-06T12:20:40Z</time>
      </trkpt>
      <trkpt lat="44.12942" lon="3.20745">
        <ele>882</ele>
        <time>2015-12-06T12:20:41Z</time>
      </trkpt>
      <trkpt lat="44.12938" lon="3.20744">
        <ele>879</ele>
        <time>2015-12-06T12:20:42Z</time>
      </trkpt>
      <trkpt lat="44.12934" lon="3.20744">
        <ele>876</ele>
        <time>2015-12-06T12:20:43Z</time>
      </trkpt>
      <trkpt lat="44.12932" lon="3.20744">
        <ele>877</ele>
        <time>2015-12-06T12:20:44Z</time>
      </trkpt>
      <trkpt lat="44.12931" lon="3.20746">
        <ele>878.5</ele>
        <time>2015-12-06T12:20:45Z</time>
      </trkpt>
      <trkpt lat="44.12931" lon="3.20748">
        <ele>879</ele>
        <time>2015-12-06T12:20:46Z</time>
      </trkpt>
      <trkpt lat="44.12931" lon="3.2075">
        <ele>879</ele>
        <time>2015-12-06T12:20:47Z</time>
      </trkpt>
      <trkpt lat="44.1293" lon="3.20749">
        <ele>878.5</ele>
        <time>2015-12-06T12:20:48Z</time>
      </trkpt>
      <trkpt lat="44.1293" lon="3.20745">
        <ele>879</ele>
        <time>2015-12-06T12:20:49Z</time>
      </trkpt>
      <trkpt lat="44.12932" lon="3.20742">
        <ele>879</ele>
        <time>2015-12-06T12:20:50Z</time>
      </trkpt>
      <trkpt lat="44.12932" lon="3.20739">
        <ele>879</ele>
        <time>2015-12-06T12:20:51Z</time>
      </trkpt>
      <trkpt lat="44.12931" lon="3.20735">
        <ele>880</ele>
        <time>2015-12-06T12:20:52Z</time>
      </trkpt>
      <trkpt lat="44.1293" lon="3.20732">
        <ele>877</ele>
        <time>2015-12-06T12:20:53Z</time>
      </trkpt>
      <trkpt lat="44.12928" lon="3.20731">
        <ele>867.5</ele>
        <time>2015-12-06T12:20:54Z</time>
      </trkpt>
      <trkpt lat="44.12926" lon="3.2073">
        <ele>860.5</ele>
        <time>2015-12-06T12:20:55Z</time>
      </trkpt>
      <trkpt lat="44.12925" lon="3.20728">
        <ele>857.5</ele>
        <time>2015-12-06T12:20:56Z</time>
      </trkpt>
      <trkpt lat="44.12924" lon="3.20725">
        <ele>853</ele>
        <time>2015-12-06T12:20:57Z</time>
      </trkpt>
      <trkpt lat="44.12924" lon="3.20723">
        <ele>848.5</ele>
        <time>2015-12-06T12:20:58Z</time>
      </trkpt>
      <trkpt lat="44.12923" lon="3.2072">
        <ele>843.5</ele>
        <time>2015-12-06T12:20:59Z</time>
      </trkpt>
      <trkpt lat="44.12923" lon="3.20718">
        <ele>840</ele>
        <time>2015-12-06T12:21:00Z</time>
      </trkpt>
      <trkpt lat="44.12921" lon="3.20716">
        <ele>838</ele>
        <time>2015-12-06T12:21:01Z</time>
      </trkpt>
      <trkpt lat="44.1292" lon="3.20715">
        <ele>835.5</ele>
        <time>2015-12-06T12:21:01Z</time>
      </trkpt>
      <trkpt lat="44.12918" lon="3.20712">
        <ele>833</ele>
        <time>2015-12-06T12:21:03Z</time>
      </trkpt>
      <trkpt lat="44.12918" lon="3.2071">
        <ele>831.5</ele>
        <time>2015-12-06T12:21:03Z</time>
      </trkpt>
      <trkpt lat="44.12917" lon="3.20706">
        <ele>830.5</ele>
        <time>2015-12-06T12:21:04Z</time>
      </trkpt>
      <trkpt lat="44.12916" lon="3.20702">
        <ele>830</ele>
        <time>2015-12-06T12:21:06Z</time>
      </trkpt>
      <trkpt lat="44.12915" lon="3.20701">
        <ele>829.5</ele>
        <time>2015-12-06T12:21:06Z</time>
      </trkpt>
      <trkpt lat="44.12913" lon="3.20701">
        <ele>830</ele>
        <time>2015-12-06T12:21:08Z</time>
      </trkpt>
      <trkpt lat="44.12912" lon="3.207">
        <ele>827.5</ele>
        <time>2015-12-06T12:21:10Z</time>
      </trkpt>
      <trkpt lat="44.12912" lon="3.20699">
        <ele>826</ele>
        <time>2015-12-06T12:21:11Z</time>
      </trkpt>
      <trkpt lat="44.12911" lon="3.20698">
        <ele>822</ele>
        <time>2015-12-06T12:21:12Z</time>
      </trkpt>
      <trkpt lat="44.1291" lon="3.20697">
        <ele>819.5</ele>
        <time>2015-12-06T12:21:13Z</time>
      </trkpt>
      <trkpt lat="44.12909" lon="3.20697">
        <ele>819.5</ele>
        <time>2015-12-06T12:21:14Z</time>
      </trkpt>
      <trkpt lat="44.12908" lon="3.20698">
        <ele>818.5</ele>
        <time>2015-12-06T12:21:16Z</time>
      </trkpt>
      <trkpt lat="44.12906" lon="3.20697">
        <ele>812</ele>
        <time>2015-12-06T12:21:17Z</time>
      </trkpt>
      <trkpt lat="44.12907" lon="3.20697">
        <ele>805.5</ele>
        <time>2015-12-06T12:21:19Z</time>
      </trkpt>
      <trkpt lat="44.12906" lon="3.20696">
        <ele>805</ele>
        <time>2015-12-06T12:21:20Z</time>
      </trkpt>
      <trkpt lat="44.12906" lon="3.20695">
        <ele>803</ele>
        <time>2015-12-06T12:21:21Z</time>
      </trkpt>
      <trkpt lat="44.12906" lon="3.20694">
        <ele>803.5</ele>
        <time>2015-12-06T12:21:22Z</time>
      </trkpt>
      <trkpt lat="44.12906" lon="3.20693">
        <ele>803.5</ele>
        <time>2015-12-06T12:21:23Z</time>
      </trkpt>
      <trkpt lat="44.12906" lon="3.20692">
        <ele>799</ele>
        <time>2015-12-06T12:21:24Z</time>
      </trkpt>
      <trkpt lat="44.12906" lon="3.20691">
        <ele>797</ele>
        <time>2015-12-06T12:21:25Z</time>
      </trkpt>
      <trkpt lat="44.12906" lon="3.20691">
        <ele>784</ele>
        <time>2015-12-06T12:21:30Z</time>
      </trkpt>
      <trkpt lat="44.12906" lon="3.20691">
        <ele>778.5</ele>
        <time>2015-12-06T12:21:37Z</time>
      </trkpt>
      <trkpt lat="44.12906" lon="3.20689">
        <ele>778</ele>
        <time>2015-12-06T12:21:39Z</time>
      </trkpt>
      <trkpt lat="44.12906" lon="3.20687">
        <ele>777.5</ele>
        <time>2015-12-06T12:21:40Z</time>
      </trkpt>
      <trkpt lat="44.12907" lon="3.20685">
        <ele>775</ele>
        <time>2015-12-06T12:21:41Z</time>
      </trkpt>
      <trkpt lat="44.1289" lon="3.20685">
        <ele>783.5</ele>
        <time>2015-12-06T12:21:46Z</time>
      </trkpt>
      <trkpt lat="44.12887" lon="3.20684">
        <ele>785.5</ele>
        <time>2015-12-06T12:21:47Z</time>
      </trkpt>
      <trkpt lat="44.12886" lon="3.2068">
        <ele>785.5</ele>
        <time>2015-12-06T12:21:48Z</time>
      </trkpt>
      <trkpt lat="44.12887" lon="3.20676">
        <ele>784</ele>
        <time>2015-12-06T12:21:49Z</time>
      </trkpt>
      <trkpt lat="44.12886" lon="3.20673">
        <ele>782</ele>
        <time>2015-12-06T12:21:49Z</time>
      </trkpt>
      <trkpt lat="44.12887" lon="3.20671">
        <ele>778.5</ele>
        <time>2015-12-06T12:21:51Z</time>
      </trkpt>
      <trkpt lat="44.12897" lon="3.2067">
        <ele>788.5</ele>
        <time>2015-12-06T12:21:38Z</time>
      </trkpt>
      <trkpt lat="44.12892" lon="3.20664">
        <ele>805</ele>
        <time>2015-12-06T12:21:44Z</time>
      </trkpt>
      <trkpt lat="44.12889" lon="3.20662">
        <ele>816.5</ele>
        <time>2015-12-06T12:21:46Z</time>
      </trkpt>
      <trkpt lat="44.12889" lon="3.20662">
        <ele>820.5</ele>
        <time>2015-12-06T12:21:47Z</time>
      </trkpt>
      <trkpt lat="44.12889" lon="3.20662">
        <ele>828</ele>
        <time>2015-12-06T12:21:48Z</time>
      </trkpt>
      <trkpt lat="44.1289" lon="3.20664">
        <ele>829</ele>
        <time>2015-12-06T12:21:49Z</time>
      </trkpt>
      <trkpt lat="44.12891" lon="3.20666">
        <ele>831</ele>
        <time>2015-12-06T12:21:50Z</time>
      </trkpt>
      <trkpt lat="44.12891" lon="3.20668">
        <ele>832</ele>
        <time>2015-12-06T12:21:51Z</time>
      </trkpt>
      <trkpt lat="44.12891" lon="3.20669">
        <ele>832</ele>
        <time>2015-12-06T12:21:52Z</time>
      </trkpt>
      <trkpt lat="44.12892" lon="3.20669">
        <ele>830</ele>
        <time>2015-12-06T12:21:53Z</time>
      </trkpt>
      <trkpt lat="44.12892" lon="3.2067">
        <ele>829.5</ele>
        <time>2015-12-06T12:21:54Z</time>
      </trkpt>
      <trkpt lat="44.12893" lon="3.20672">
        <ele>830</ele>
        <time>2015-12-06T12:21:55Z</time>
      </trkpt>
      <trkpt lat="44.12893" lon="3.20673">
        <ele>828.5</ele>
        <time>2015-12-06T12:21:56Z</time>
      </trkpt>
      <trkpt lat="44.12893" lon="3.20674">
        <ele>825.5</ele>
        <time>2015-12-06T12:21:57Z</time>
      </trkpt>
      <trkpt lat="44.12893" lon="3.20675">
        <ele>823.5</ele>
        <time>2015-12-06T12:21:58Z</time>
      </trkpt>
      <trkpt lat="44.12892" lon="3.20676">
        <ele>820.5</ele>
        <time>2015-12-06T12:21:59Z</time>
      </trkpt>
      <trkpt lat="44.12892" lon="3.20676">
        <ele>818</ele>
        <time>2015-12-06T12:22:00Z</time>
      </trkpt>
      <trkpt lat="44.12892" lon="3.20676">
        <ele>819.5</ele>
        <time>2015-12-06T12:22:02Z</time>
      </trkpt>
      <trkpt lat="44.12893" lon="3.20676">
        <ele>820</ele>
        <time>2015-12-06T12:22:04Z</time>
      </trkpt>
      <trkpt lat="44.12898" lon="3.20676">
        <ele>819.5</ele>
        <time>2015-12-06T12:22:07Z</time>
      </trkpt>
      <trkpt lat="44.12899" lon="3.20677">
        <ele>815.5</ele>
        <time>2015-12-06T12:22:09Z</time>
      </trkpt>
      <trkpt lat="44.129" lon="3.20677">
        <ele>814.5</ele>
        <time>2015-12-06T12:22:10Z</time>
      </trkpt>
      <trkpt lat="44.12901" lon="3.20678">
        <ele>814</ele>
        <time>2015-12-06T12:22:11Z</time>
      </trkpt>
      <trkpt lat="44.12898" lon="3.20679">
        <ele>812.5</ele>
        <time>2015-12-06T12:22:13Z</time>
      </trkpt>
      <trkpt lat="44.12898" lon="3.2068">
        <ele>812</ele>
        <time>2015-12-06T12:22:15Z</time>
      </trkpt>
      <trkpt lat="44.12903" lon="3.20686">
        <ele>821.5</ele>
        <time>2015-12-06T12:23:55Z</time>
      </trkpt>
      <trkpt lat="44.12906" lon="3.20687">
        <ele>814.5</ele>
        <time>2015-12-06T12:24:00Z</time>
      </trkpt>
      <trkpt lat="44.12904" lon="3.20685">
        <ele>813</ele>
        <time>2015-12-06T12:24:02Z</time>
      </trkpt>
      <trkpt lat="44.12903" lon="3.20685">
        <ele>813</ele>
        <time>2015-12-06T12:24:03Z</time>
      </trkpt>
      <trkpt lat="44.12904" lon="3.20687">
        <ele>807</ele>
        <time>2015-12-06T12:24:07Z</time>
      </trkpt>
      <trkpt lat="44.12909" lon="3.2069">
        <ele>804</ele>
        <time>2015-12-06T12:24:10Z</time>
      </trkpt>
      <trkpt lat="44.12908" lon="3.20691">
        <ele>805</ele>
        <time>2015-12-06T12:24:14Z</time>
      </trkpt>
      <trkpt lat="44.12908" lon="3.20691">
        <ele>805.5</ele>
        <time>2015-12-06T12:24:16Z</time>
      </trkpt>
      <trkpt lat="44.12908" lon="3.20692">
        <ele>805</ele>
        <time>2015-12-06T12:24:17Z</time>
      </trkpt>
      <trkpt lat="44.12907" lon="3.20692">
        <ele>804.5</ele>
        <time>2015-12-06T12:24:18Z</time>
      </trkpt>
      <trkpt lat="44.12911" lon="3.20696">
        <ele>805</ele>
        <time>2015-12-06T12:24:21Z</time>
      </trkpt>
      <trkpt lat="44.1291" lon="3.20697">
        <ele>802</ele>
        <time>2015-12-06T12:24:23Z</time>
      </trkpt>
      <trkpt lat="44.1291" lon="3.20697">
        <ele>802.5</ele>
        <time>2015-12-06T12:24:24Z</time>
      </trkpt>
      <trkpt lat="44.12908" lon="3.20696">
        <ele>805.5</ele>
        <time>2015-12-06T12:24:25Z</time>
      </trkpt>
      <trkpt lat="44.12908" lon="3.20696">
        <ele>811</ele>
        <time>2015-12-06T12:24:26Z</time>
      </trkpt>
      <trkpt lat="44.12909" lon="3.20697">
        <ele>810.5</ele>
        <time>2015-12-06T12:24:27Z</time>
      </trkpt>
      <trkpt lat="44.12913" lon="3.20701">
        <ele>809.5</ele>
        <time>2015-12-06T12:24:29Z</time>
      </trkpt>
      <trkpt lat="44.12916" lon="3.20704">
        <ele>811</ele>
        <time>2015-12-06T12:24:31Z</time>
      </trkpt>
      <trkpt lat="44.12916" lon="3.20705">
        <ele>807</ele>
        <time>2015-12-06T12:24:32Z</time>
      </trkpt>
      <trkpt lat="44.12916" lon="3.20706">
        <ele>805</ele>
        <time>2015-12-06T12:24:34Z</time>
      </trkpt>
      <trkpt lat="44.12917" lon="3.20707">
        <ele>804.5</ele>
        <time>2015-12-06T12:24:34Z</time>
      </trkpt>
      <trkpt lat="44.12915" lon="3.20709">
        <ele>807</ele>
        <time>2015-12-06T12:24:35Z</time>
      </trkpt>
      <trkpt lat="44.12915" lon="3.2071">
        <ele>806.5</ele>
        <time>2015-12-06T12:24:37Z</time>
      </trkpt>
      <trkpt lat="44.12916" lon="3.20711">
        <ele>804</ele>
        <time>2015-12-06T12:24:37Z</time>
      </trkpt>
      <trkpt lat="44.12916" lon="3.20713">
        <ele>804</ele>
        <time>2015-12-06T12:24:38Z</time>
      </trkpt>
      <trkpt lat="44.12916" lon="3.20713">
        <ele>801.5</ele>
        <time>2015-12-06T12:24:39Z</time>
      </trkpt>
      <trkpt lat="44.12917" lon="3.20714">
        <ele>797.5</ele>
        <time>2015-12-06T12:24:41Z</time>
      </trkpt>
      <trkpt lat="44.12923" lon="3.20717">
        <ele>792</ele>
        <time>2015-12-06T12:24:45Z</time>
      </trkpt>
      <trkpt lat="44.12924" lon="3.20719">
        <ele>789</ele>
        <time>2015-12-06T12:24:47Z</time>
      </trkpt>
      <trkpt lat="44.12926" lon="3.20723">
        <ele>786</ele>
        <time>2015-12-06T12:24:49Z</time>
      </trkpt>
      <trkpt lat="44.12928" lon="3.20725">
        <ele>784</ele>
        <time>2015-12-06T12:24:51Z</time>
      </trkpt>
      <trkpt lat="44.12927" lon="3.20727">
        <ele>785</ele>
        <time>2015-12-06T12:24:52Z</time>
      </trkpt>
      <trkpt lat="44.12927" lon="3.20728">
        <ele>785.5</ele>
        <time>2015-12-06T12:24:53Z</time>
      </trkpt>
      <trkpt lat="44.12927" lon="3.20729">
        <ele>784.5</ele>
        <time>2015-12-06T12:24:54Z</time>
      </trkpt>
      <trkpt lat="44.12927" lon="3.2073">
        <ele>785</ele>
        <time>2015-12-06T12:24:55Z</time>
      </trkpt>
      <trkpt lat="44.12926" lon="3.20731">
        <ele>785.5</ele>
        <time>2015-12-06T12:24:56Z</time>
      </trkpt>
      <trkpt lat="44.12926" lon="3.20731">
        <ele>784</ele>
        <time>2015-12-06T12:24:57Z</time>
      </trkpt>
      <trkpt lat="44.12927" lon="3.20732">
        <ele>782</ele>
        <time>2015-12-06T12:24:58Z</time>
      </trkpt>
      <trkpt lat="44.12927" lon="3.20733">
        <ele>782</ele>
        <time>2015-12-06T12:24:59Z</time>
      </trkpt>
      <trkpt lat="44.12927" lon="3.20734">
        <ele>783</ele>
        <time>2015-12-06T12:25:00Z</time>
      </trkpt>
      <trkpt lat="44.12928" lon="3.20736">
        <ele>782.5</ele>
        <time>2015-12-06T12:25:01Z</time>
      </trkpt>
      <trkpt lat="44.12929" lon="3.20737">
        <ele>781</ele>
        <time>2015-12-06T12:25:02Z</time>
      </trkpt>
      <trkpt lat="44.12931" lon="3.20739">
        <ele>779.5</ele>
        <time>2015-12-06T12:25:03Z</time>
      </trkpt>
      <trkpt lat="44.12932" lon="3.20741">
        <ele>777</ele>
        <time>2015-12-06T12:25:04Z</time>
      </trkpt>
      <trkpt lat="44.12932" lon="3.20743">
        <ele>776</ele>
        <time>2015-12-06T12:25:07Z</time>
      </trkpt>
      <trkpt lat="44.12933" lon="3.20751">
        <ele>774.5</ele>
        <time>2015-12-06T12:25:09Z</time>
      </trkpt>
      <trkpt lat="44.12933" lon="3.20756">
        <ele>771.5</ele>
        <time>2015-12-06T12:25:10Z</time>
      </trkpt>
      <trkpt lat="44.12934" lon="3.2076">
        <ele>770.5</ele>
        <time>2015-12-06T12:25:11Z</time>
      </trkpt>
      <trkpt lat="44.12934" lon="3.20764">
        <ele>770.5</ele>
        <time>2015-12-06T12:25:12Z</time>
      </trkpt>
      <trkpt lat="44.12933" lon="3.20762">
        <ele>773</ele>
        <time>2015-12-06T12:25:13Z</time>
      </trkpt>
      <trkpt lat="44.12936" lon="3.20763">
        <ele>771</ele>
        <time>2015-12-06T12:25:14Z</time>
      </trkpt>
      <trkpt lat="44.12938" lon="3.20763">
        <ele>770</ele>
        <time>2015-12-06T12:25:15Z</time>
      </trkpt>
      <trkpt lat="44.12941" lon="3.20765">
        <ele>768.5</ele>
        <time>2015-12-06T12:25:16Z</time>
      </trkpt>
      <trkpt lat="44.1294" lon="3.20767">
        <ele>766</ele>
        <time>2015-12-06T12:25:18Z</time>
      </trkpt>
      <trkpt lat="44.12942" lon="3.20764">
        <ele>766</ele>
        <time>2015-12-06T12:25:19Z</time>
      </trkpt>
      <trkpt lat="44.12943" lon="3.20762">
        <ele>766</ele>
        <time>2015-12-06T12:25:20Z</time>
      </trkpt>
      <trkpt lat="44.12943" lon="3.20761">
        <ele>766.5</ele>
        <time>2015-12-06T12:25:21Z</time>
      </trkpt>
      <trkpt lat="44.12944" lon="3.20762">
        <ele>764.5</ele>
        <time>2015-12-06T12:25:22Z</time>
      </trkpt>
      <trkpt lat="44.12944" lon="3.20762">
        <ele>764</ele>
        <time>2015-12-06T12:25:23Z</time>
      </trkpt>
      <trkpt lat="44.12944" lon="3.20762">
        <ele>762.5</ele>
        <time>2015-12-06T12:25:24Z</time>
      </trkpt>
      <trkpt lat="44.12943" lon="3.20762">
        <ele>761.5</ele>
        <time>2015-12-06T12:25:25Z</time>
      </trkpt>
      <trkpt lat="44.12944" lon="3.20762">
        <ele>762</ele>
        <time>2015-12-06T12:25:26Z</time>
      </trkpt>
      <trkpt lat="44.12944" lon="3.20764">
        <ele>760.5</ele>
        <time>2015-12-06T12:25:28Z</time>
      </trkpt>
      <trkpt lat="44.12945" lon="3.20764">
        <ele>760.5</ele>
        <time>2015-12-06T12:25:28Z</time>
      </trkpt>
      <trkpt lat="44.12944" lon="3.20763">
        <ele>757</ele>
        <time>2015-12-06T12:25:30Z</time>
      </trkpt>
      <trkpt lat="44.12946" lon="3.20763">
        <ele>756.5</ele>
        <time>2015-12-06T12:25:32Z</time>
      </trkpt>
      <trkpt lat="44.12947" lon="3.20763">
        <ele>757.5</ele>
        <time>2015-12-06T12:25:33Z</time>
      </trkpt>
      <trkpt lat="44.12946" lon="3.20763">
        <ele>759</ele>
        <time>2015-12-06T12:25:34Z</time>
      </trkpt>
      <trkpt lat="44.12946" lon="3.20766">
        <ele>761.5</ele>
        <time>2015-12-06T12:25:36Z</time>
      </trkpt>
      <trkpt lat="44.12944" lon="3.20767">
        <ele>759.5</ele>
        <time>2015-12-06T12:25:37Z</time>
      </trkpt>
      <trkpt lat="44.12943" lon="3.20769">
        <ele>757</ele>
        <time>2015-12-06T12:25:38Z</time>
      </trkpt>
      <trkpt lat="44.12944" lon="3.20769">
        <ele>754</ele>
        <time>2015-12-06T12:25:39Z</time>
      </trkpt>
      <trkpt lat="44.12944" lon="3.20768">
        <ele>758</ele>
        <time>2015-12-06T12:25:41Z</time>
      </trkpt>
      <trkpt lat="44.12944" lon="3.20767">
        <ele>757.5</ele>
        <time>2015-12-06T12:25:42Z</time>
      </trkpt>
      <trkpt lat="44.12945" lon="3.20767">
        <ele>756</ele>
        <time>2015-12-06T12:25:43Z</time>
      </trkpt>
      <trkpt lat="44.12946" lon="3.20766">
        <ele>754.5</ele>
        <time>2015-12-06T12:25:44Z</time>
      </trkpt>
      <trkpt lat="44.12945" lon="3.20766">
        <ele>756</ele>
        <time>2015-12-06T12:25:45Z</time>
      </trkpt>
      <trkpt lat="44.12945" lon="3.20765">
        <ele>756</ele>
        <time>2015-12-06T12:25:46Z</time>
      </trkpt>
      <trkpt lat="44.12947" lon="3.20764">
        <ele>754</ele>
        <time>2015-12-06T12:25:47Z</time>
      </trkpt>
      <trkpt lat="44.12948" lon="3.20766">
        <ele>750.5</ele>
        <time>2015-12-06T12:25:48Z</time>
      </trkpt>
      <trkpt lat="44.12948" lon="3.20765">
        <ele>751.5</ele>
        <time>2015-12-06T12:25:49Z</time>
      </trkpt>
      <trkpt lat="44.12949" lon="3.20764">
        <ele>750.5</ele>
        <time>2015-12-06T12:25:50Z</time>
      </trkpt>
      <trkpt lat="44.12949" lon="3.20764">
        <ele>750.5</ele>
        <time>2015-12-06T12:25:51Z</time>
      </trkpt>
      <trkpt lat="44.12949" lon="3.20763">
        <ele>751.5</ele>
        <time>2015-12-06T12:25:52Z</time>
      </trkpt>
      <trkpt lat="44.1295" lon="3.20762">
        <ele>752</ele>
        <time>2015-12-06T12:25:53Z</time>
      </trkpt>
      <trkpt lat="44.1295" lon="3.20761">
        <ele>753</ele>
        <time>2015-12-06T12:25:54Z</time>
      </trkpt>
      <trkpt lat="44.1295" lon="3.20762">
        <ele>752</ele>
        <time>2015-12-06T12:25:55Z</time>
      </trkpt>
      <trkpt lat="44.12951" lon="3.20763">
        <ele>751</ele>
        <time>2015-12-06T12:25:56Z</time>
      </trkpt>
      <trkpt lat="44.12951" lon="3.20761">
        <ele>752.5</ele>
        <time>2015-12-06T12:25:57Z</time>
      </trkpt>
      <trkpt lat="44.1295" lon="3.2076">
        <ele>753.5</ele>
        <time>2015-12-06T12:25:58Z</time>
      </trkpt>
      <trkpt lat="44.1295" lon="3.20759">
        <ele>754</ele>
        <time>2015-12-06T12:25:59Z</time>
      </trkpt>
      <trkpt lat="44.12951" lon="3.20759">
        <ele>753</ele>
        <time>2015-12-06T12:26:00Z</time>
      </trkpt>
      <trkpt lat="44.12951" lon="3.20758">
        <ele>752</ele>
        <time>2015-12-06T12:26:01Z</time>
      </trkpt>
      <trkpt lat="44.12951" lon="3.20758">
        <ele>751</ele>
        <time>2015-12-06T12:26:02Z</time>
      </trkpt>
      <trkpt lat="44.12951" lon="3.20758">
        <ele>750</ele>
        <time>2015-12-06T12:26:03Z</time>
      </trkpt>
      <trkpt lat="44.12952" lon="3.20757">
        <ele>751</ele>
        <time>2015-12-06T12:26:04Z</time>
      </trkpt>
      <trkpt lat="44.12958" lon="3.20762">
        <ele>744.5</ele>
        <time>2015-12-06T12:26:06Z</time>
      </trkpt>
      <trkpt lat="44.12958" lon="3.20763">
        <ele>743.5</ele>
        <time>2015-12-06T12:26:07Z</time>
      </trkpt>
      <trkpt lat="44.1296" lon="3.20764">
        <ele>740.5</ele>
        <time>2015-12-06T12:26:08Z</time>
      </trkpt>
      <trkpt lat="44.12964" lon="3.20764">
        <ele>739</ele>
        <time>2015-12-06T12:26:10Z</time>
      </trkpt>
      <trkpt lat="44.12965" lon="3.20764">
        <ele>740</ele>
        <time>2015-12-06T12:26:11Z</time>
      </trkpt>
      <trkpt lat="44.12967" lon="3.20764">
        <ele>738.5</ele>
        <time>2015-12-06T12:26:12Z</time>
      </trkpt>
      <trkpt lat="44.12973" lon="3.2076">
        <ele>743</ele>
        <time>2015-12-06T12:26:14Z</time>
      </trkpt>
      <trkpt lat="44.12978" lon="3.2076">
        <ele>739</ele>
        <time>2015-12-06T12:26:16Z</time>
      </trkpt>
      <trkpt lat="44.1298" lon="3.2076">
        <ele>739</ele>
        <time>2015-12-06T12:26:17Z</time>
      </trkpt>
      <trkpt lat="44.12981" lon="3.20759">
        <ele>739</ele>
        <time>2015-12-06T12:26:18Z</time>
      </trkpt>
      <trkpt lat="44.12995" lon="3.20751">
        <ele>743.5</ele>
        <time>2015-12-06T12:26:23Z</time>
      </trkpt>
      <trkpt lat="44.12998" lon="3.20749">
        <ele>744</ele>
        <time>2015-12-06T12:26:25Z</time>
      </trkpt>
      <trkpt lat="44.12998" lon="3.20748">
        <ele>743</ele>
        <time>2015-12-06T12:26:26Z</time>
      </trkpt>
      <trkpt lat="44.12993" lon="3.20749">
        <ele>743.5</ele>
        <time>2015-12-06T12:26:30Z</time>
      </trkpt>
      <trkpt lat="44.12992" lon="3.20747">
        <ele>744.5</ele>
        <time>2015-12-06T12:26:32Z</time>
      </trkpt>
      <trkpt lat="44.12992" lon="3.20745">
        <ele>746</ele>
        <time>2015-12-06T12:26:33Z</time>
      </trkpt>
      <trkpt lat="44.12993" lon="3.20744">
        <ele>745</ele>
        <time>2015-12-06T12:26:34Z</time>
      </trkpt>
      <trkpt lat="44.12995" lon="3.20742">
        <ele>742</ele>
        <time>2015-12-06T12:26:35Z</time>
      </trkpt>
      <trkpt lat="44.12993" lon="3.20741">
        <ele>744</ele>
        <time>2015-12-06T12:26:36Z</time>
      </trkpt>
      <trkpt lat="44.12972" lon="3.20731">
        <ele>781</ele>
        <time>2015-12-06T12:26:42Z</time>
      </trkpt>
      <trkpt lat="44.12975" lon="3.20736">
        <ele>783</ele>
        <time>2015-12-06T12:26:43Z</time>
      </trkpt>
      <trkpt lat="44.12972" lon="3.20739">
        <ele>786</ele>
        <time>2015-12-06T12:26:49Z</time>
      </trkpt>
      <trkpt lat="44.1296" lon="3.20735">
        <ele>793.5</ele>
        <time>2015-12-06T12:26:53Z</time>
      </trkpt>
      <trkpt lat="44.12957" lon="3.20746">
        <ele>795.5</ele>
        <time>2015-12-06T12:27:03Z</time>
      </trkpt>
      <trkpt lat="44.12957" lon="3.20748">
        <ele>795</ele>
        <time>2015-12-06T12:27:05Z</time>
      </trkpt>
      <trkpt lat="44.12956" lon="3.20748">
        <ele>796</ele>
        <time>2015-12-06T12:27:06Z</time>
      </trkpt>
      <trkpt lat="44.12957" lon="3.20749">
        <ele>795.5</ele>
        <time>2015-12-06T12:27:07Z</time>
      </trkpt>
      <trkpt lat="44.12957" lon="3.20748">
        <ele>800.5</ele>
        <time>2015-12-06T12:27:08Z</time>
      </trkpt>
      <trkpt lat="44.12958" lon="3.20746">
        <ele>804.5</ele>
        <time>2015-12-06T12:27:10Z</time>
      </trkpt>
      <trkpt lat="44.12964" lon="3.20748">
        <ele>810.5</ele>
        <time>2015-12-06T12:27:18Z</time>
      </trkpt>
      <trkpt lat="44.12968" lon="3.20751">
        <ele>813.5</ele>
        <time>2015-12-06T12:27:19Z</time>
      </trkpt>
      <trkpt lat="44.12967" lon="3.20748">
        <ele>827.5</ele>
        <time>2015-12-06T12:27:21Z</time>
      </trkpt>
      <trkpt lat="44.12972" lon="3.20753">
        <ele>826</ele>
        <time>2015-12-06T12:27:22Z</time>
      </trkpt>
      <trkpt lat="44.12975" lon="3.20754">
        <ele>831.5</ele>
        <time>2015-12-06T12:27:25Z</time>
      </trkpt>
      <trkpt lat="44.12968" lon="3.20745">
        <ele>870.5</ele>
        <time>2015-12-06T12:27:28Z</time>
      </trkpt>
      <trkpt lat="44.1297" lon="3.20743">
        <ele>870.5</ele>
        <time>2015-12-06T12:27:29Z</time>
      </trkpt>
      <trkpt lat="44.12972" lon="3.20741">
        <ele>866.5</ele>
        <time>2015-12-06T12:27:31Z</time>
      </trkpt>
      <trkpt lat="44.12974" lon="3.20741">
        <ele>868</ele>
        <time>2015-12-06T12:27:32Z</time>
      </trkpt>
      <trkpt lat="44.12974" lon="3.20741">
        <ele>866.5</ele>
        <time>2015-12-06T12:27:33Z</time>
      </trkpt>
      <trkpt lat="44.12976" lon="3.20742">
        <ele>864</ele>
        <time>2015-12-06T12:27:34Z</time>
      </trkpt>
      <trkpt lat="44.12975" lon="3.20744">
        <ele>864.5</ele>
        <time>2015-12-06T12:27:35Z</time>
      </trkpt>
      <trkpt lat="44.12977" lon="3.20743">
        <ele>867</ele>
        <time>2015-12-06T12:27:37Z</time>
      </trkpt>
      <trkpt lat="44.12978" lon="3.20745">
        <ele>868</ele>
        <time>2015-12-06T12:27:37Z</time>
      </trkpt>
      <trkpt lat="44.12978" lon="3.20745">
        <ele>873</ele>
        <time>2015-12-06T12:27:38Z</time>
      </trkpt>
      <trkpt lat="44.12978" lon="3.20745">
        <ele>886.5</ele>
        <time>2015-12-06T12:27:42Z</time>
      </trkpt>
      <trkpt lat="44.12976" lon="3.20747">
        <ele>895</ele>
        <time>2015-12-06T12:27:43Z</time>
      </trkpt>
      <trkpt lat="44.12978" lon="3.20748">
        <ele>896</ele>
        <time>2015-12-06T12:27:44Z</time>
      </trkpt>
      <trkpt lat="44.12978" lon="3.20749">
        <ele>896</ele>
        <time>2015-12-06T12:27:45Z</time>
      </trkpt>
      <trkpt lat="44.12979" lon="3.20748">
        <ele>896.5</ele>
        <time>2015-12-06T12:27:45Z</time>
      </trkpt>
      <trkpt lat="44.12982" lon="3.2075">
        <ele>899</ele>
        <time>2015-12-06T12:27:47Z</time>
      </trkpt>
      <trkpt lat="44.12981" lon="3.2075">
        <ele>901</ele>
        <time>2015-12-06T12:27:48Z</time>
      </trkpt>
      <trkpt lat="44.12978" lon="3.20755">
        <ele>906.5</ele>
        <time>2015-12-06T12:27:50Z</time>
      </trkpt>
      <trkpt lat="44.12976" lon="3.20754">
        <ele>908</ele>
        <time>2015-12-06T12:27:52Z</time>
      </trkpt>
      <trkpt lat="44.12977" lon="3.20755">
        <ele>906</ele>
        <time>2015-12-06T12:27:53Z</time>
      </trkpt>
      <trkpt lat="44.12976" lon="3.20756">
        <ele>908</ele>
        <time>2015-12-06T12:27:55Z</time>
      </trkpt>
      <trkpt lat="44.12976" lon="3.20756">
        <ele>908.5</ele>
        <time>2015-12-06T12:27:55Z</time>
      </trkpt>
      <trkpt lat="44.12976" lon="3.20757">
        <ele>910.5</ele>
        <time>2015-12-06T12:27:56Z</time>
      </trkpt>
      <trkpt lat="44.12977" lon="3.20759">
        <ele>919</ele>
        <time>2015-12-06T12:27:58Z</time>
      </trkpt>
      <trkpt lat="44.12977" lon="3.20759">
        <ele>929.5</ele>
        <time>2015-12-06T12:28:00Z</time>
      </trkpt>
      <trkpt lat="44.12978" lon="3.2076">
        <ele>932.5</ele>
        <time>2015-12-06T12:28:01Z</time>
      </trkpt>
      <trkpt lat="44.12978" lon="3.20763">
        <ele>935</ele>
        <time>2015-12-06T12:28:03Z</time>
      </trkpt>
      <trkpt lat="44.12976" lon="3.20768">
        <ele>941</ele>
        <time>2015-12-06T12:28:04Z</time>
      </trkpt>
      <trkpt lat="44.12976" lon="3.2077">
        <ele>943</ele>
        <time>2015-12-06T12:28:05Z</time>
      </trkpt>
      <trkpt lat="44.12976" lon="3.20771">
        <ele>945</ele>
        <time>2015-12-06T12:28:06Z</time>
      </trkpt>
      <trkpt lat="44.12976" lon="3.20772">
        <ele>947</ele>
        <time>2015-12-06T12:28:07Z</time>
      </trkpt>
      <trkpt lat="44.12976" lon="3.20772">
        <ele>948.5</ele>
        <time>2015-12-06T12:28:08Z</time>
      </trkpt>
      <trkpt lat="44.12976" lon="3.20773">
        <ele>949</ele>
        <time>2015-12-06T12:28:09Z</time>
      </trkpt>
      <trkpt lat="44.12977" lon="3.20774">
        <ele>948.5</ele>
        <time>2015-12-06T12:28:10Z</time>
      </trkpt>
      <trkpt lat="44.12979" lon="3.2078">
        <ele>953.5</ele>
        <time>2015-12-06T12:28:19Z</time>
      </trkpt>
      <trkpt lat="44.1298" lon="3.20781">
        <ele>956</ele>
        <time>2015-12-06T12:28:22Z</time>
      </trkpt>
      <trkpt lat="44.12982" lon="3.20782">
        <ele>958</ele>
        <time>2015-12-06T12:28:24Z</time>
      </trkpt>
      <trkpt lat="44.12986" lon="3.20784">
        <ele>961</ele>
        <time>2015-12-06T12:28:26Z</time>
      </trkpt>
      <trkpt lat="44.12986" lon="3.20783">
        <ele>964.5</ele>
        <time>2015-12-06T12:28:27Z</time>
      </trkpt>
      <trkpt lat="44.12986" lon="3.20783">
        <ele>968</ele>
        <time>2015-12-06T12:28:28Z</time>
      </trkpt>
      <trkpt lat="44.12986" lon="3.20782">
        <ele>971.5</ele>
        <time>2015-12-06T12:28:29Z</time>
      </trkpt>
      <trkpt lat="44.12986" lon="3.20784">
        <ele>973</ele>
        <time>2015-12-06T12:28:30Z</time>
      </trkpt>
      <trkpt lat="44.12986" lon="3.20785">
        <ele>975</ele>
        <time>2015-12-06T12:28:31Z</time>
      </trkpt>
      <trkpt lat="44.12986" lon="3.20785">
        <ele>975.5</ele>
        <time>2015-12-06T12:28:32Z</time>
      </trkpt>
      <trkpt lat="44.12987" lon="3.20786">
        <ele>978</ele>
        <time>2015-12-06T12:28:34Z</time>
      </trkpt>
      <trkpt lat="44.12988" lon="3.20786">
        <ele>980.5</ele>
        <time>2015-12-06T12:28:36Z</time>
      </trkpt>
      <trkpt lat="44.12988" lon="3.20787">
        <ele>981.5</ele>
        <time>2015-12-06T12:28:37Z</time>
      </trkpt>
      <trkpt lat="44.1299" lon="3.20789">
        <ele>983</ele>
        <time>2015-12-06T12:28:38Z</time>
      </trkpt>
      <trkpt lat="44.12992" lon="3.2079">
        <ele>983.5</ele>
        <time>2015-12-06T12:28:39Z</time>
      </trkpt>
      <trkpt lat="44.12992" lon="3.20791">
        <ele>985</ele>
        <time>2015-12-06T12:28:40Z</time>
      </trkpt>
      <trkpt lat="44.12992" lon="3.20792">
        <ele>986</ele>
        <time>2015-12-06T12:28:41Z</time>
      </trkpt>
      <trkpt lat="44.12993" lon="3.20794">
        <ele>987</ele>
        <time>2015-12-06T12:28:42Z</time>
      </trkpt>
      <trkpt lat="44.12993" lon="3.20795">
        <ele>988</ele>
        <time>2015-12-06T12:28:43Z</time>
      </trkpt>
      <trkpt lat="44.12993" lon="3.20797">
        <ele>987</ele>
        <time>2015-12-06T12:28:44Z</time>
      </trkpt>
      <trkpt lat="44.12993" lon="3.20799">
        <ele>987</ele>
        <time>2015-12-06T12:28:45Z</time>
      </trkpt>
      <trkpt lat="44.12993" lon="3.208">
        <ele>988</ele>
        <time>2015-12-06T12:28:46Z</time>
      </trkpt>
      <trkpt lat="44.12993" lon="3.208">
        <ele>988.5</ele>
        <time>2015-12-06T12:28:47Z</time>
      </trkpt>
      <trkpt lat="44.12992" lon="3.20801">
        <ele>988.5</ele>
        <time>2015-12-06T12:28:48Z</time>
      </trkpt>
      <trkpt lat="44.12992" lon="3.20801">
        <ele>989</ele>
        <time>2015-12-06T12:28:49Z</time>
      </trkpt>
      <trkpt lat="44.12991" lon="3.20802">
        <ele>987.5</ele>
        <time>2015-12-06T12:28:50Z</time>
      </trkpt>
      <trkpt lat="44.1299" lon="3.20802">
        <ele>989</ele>
        <time>2015-12-06T12:28:51Z</time>
      </trkpt>
      <trkpt lat="44.1299" lon="3.20803">
        <ele>990.5</ele>
        <time>2015-12-06T12:28:52Z</time>
      </trkpt>
      <trkpt lat="44.12989" lon="3.20803">
        <ele>992.5</ele>
        <time>2015-12-06T12:28:53Z</time>
      </trkpt>
      <trkpt lat="44.1299" lon="3.20804">
        <ele>994.5</ele>
        <time>2015-12-06T12:28:54Z</time>
      </trkpt>
      <trkpt lat="44.12989" lon="3.20804">
        <ele>995</ele>
        <time>2015-12-06T12:28:55Z</time>
      </trkpt>
      <trkpt lat="44.12988" lon="3.20804">
        <ele>995.5</ele>
        <time>2015-12-06T12:28:56Z</time>
      </trkpt>
      <trkpt lat="44.12989" lon="3.20804">
        <ele>994.5</ele>
        <time>2015-12-06T12:28:57Z</time>
      </trkpt>
      <trkpt lat="44.12988" lon="3.20804">
        <ele>995.5</ele>
        <time>2015-12-06T12:28:58Z</time>
      </trkpt>
      <trkpt lat="44.12988" lon="3.20805">
        <ele>996.5</ele>
        <time>2015-12-06T12:28:59Z</time>
      </trkpt>
      <trkpt lat="44.12987" lon="3.20807">
        <ele>997</ele>
        <time>2015-12-06T12:29:00Z</time>
      </trkpt>
      <trkpt lat="44.12987" lon="3.20809">
        <ele>998</ele>
        <time>2015-12-06T12:29:01Z</time>
      </trkpt>
      <trkpt lat="44.12986" lon="3.20811">
        <ele>999</ele>
        <time>2015-12-06T12:29:02Z</time>
      </trkpt>
      <trkpt lat="44.12985" lon="3.20814">
        <ele>999.5</ele>
        <time>2015-12-06T12:29:03Z</time>
      </trkpt>
      <trkpt lat="44.12984" lon="3.20815">
        <ele>1000.5</ele>
        <time>2015-12-06T12:29:04Z</time>
      </trkpt>
      <trkpt lat="44.12983" lon="3.20817">
        <ele>1000.5</ele>
        <time>2015-12-06T12:29:05Z</time>
      </trkpt>
      <trkpt lat="44.12982" lon="3.20818">
        <ele>1001.5</ele>
        <time>2015-12-06T12:29:06Z</time>
      </trkpt>
      <trkpt lat="44.12981" lon="3.2082">
        <ele>1002</ele>
        <time>2015-12-06T12:29:07Z</time>
      </trkpt>
      <trkpt lat="44.12981" lon="3.20821">
        <ele>1002</ele>
        <time>2015-12-06T12:29:08Z</time>
      </trkpt>
      <trkpt lat="44.12982" lon="3.20824">
        <ele>1003.5</ele>
        <time>2015-12-06T12:29:09Z</time>
      </trkpt>
      <trkpt lat="44.12982" lon="3.20827">
        <ele>1005.5</ele>
        <time>2015-12-06T12:29:10Z</time>
      </trkpt>
      <trkpt lat="44.12984" lon="3.20829">
        <ele>1006</ele>
        <time>2015-12-06T12:29:11Z</time>
      </trkpt>
      <trkpt lat="44.12982" lon="3.2083">
        <ele>1004.5</ele>
        <time>2015-12-06T12:29:12Z</time>
      </trkpt>
      <trkpt lat="44.1298" lon="3.20831">
        <ele>1003.5</ele>
        <time>2015-12-06T12:29:13Z</time>
      </trkpt>
      <trkpt lat="44.12979" lon="3.20832">
        <ele>1003.5</ele>
        <time>2015-12-06T12:29:14Z</time>
      </trkpt>
      <trkpt lat="44.12978" lon="3.20832">
        <ele>1003</ele>
        <time>2015-12-06T12:29:15Z</time>
      </trkpt>
      <trkpt lat="44.12978" lon="3.20831">
        <ele>1002.5</ele>
        <time>2015-12-06T12:29:16Z</time>
      </trkpt>
      <trkpt lat="44.12977" lon="3.20831">
        <ele>1001.5</ele>
        <time>2015-12-06T12:29:17Z</time>
      </trkpt>
      <trkpt lat="44.12976" lon="3.20833">
        <ele>1000</ele>
        <time>2015-12-06T12:29:20Z</time>
      </trkpt>
      <trkpt lat="44.12977" lon="3.20836">
        <ele>1003</ele>
        <time>2015-12-06T12:29:22Z</time>
      </trkpt>
      <trkpt lat="44.12979" lon="3.20839">
        <ele>1004</ele>
        <time>2015-12-06T12:29:23Z</time>
      </trkpt>
      <trkpt lat="44.1298" lon="3.20842">
        <ele>1006</ele>
        <time>2015-12-06T12:29:25Z</time>
      </trkpt>
      <trkpt lat="44.12979" lon="3.20845">
        <ele>1007</ele>
        <time>2015-12-06T12:29:27Z</time>
      </trkpt>
      <trkpt lat="44.12979" lon="3.20847">
        <ele>1007</ele>
        <time>2015-12-06T12:29:28Z</time>
      </trkpt>
      <trkpt lat="44.12978" lon="3.20849">
        <ele>1006</ele>
        <time>2015-12-06T12:29:29Z</time>
      </trkpt>
      <trkpt lat="44.12978" lon="3.20851">
        <ele>1005</ele>
        <time>2015-12-06T12:29:30Z</time>
      </trkpt>
      <trkpt lat="44.12984" lon="3.20855">
        <ele>996.5</ele>
        <time>2015-12-06T12:29:43Z</time>
      </trkpt>
      <trkpt lat="44.1297" lon="3.2086">
        <ele>972</ele>
        <time>2015-12-06T12:29:46Z</time>
      </trkpt>
      <trkpt lat="44.12966" lon="3.20857">
        <ele>966.5</ele>
        <time>2015-12-06T12:29:49Z</time>
      </trkpt>
      <trkpt lat="44.12966" lon="3.20857">
        <ele>960</ele>
        <time>2015-12-06T12:29:49Z</time>
      </trkpt>
      <trkpt lat="44.12969" lon="3.20856">
        <ele>956.5</ele>
        <time>2015-12-06T12:29:50Z</time>
      </trkpt>
      <trkpt lat="44.12977" lon="3.20854">
        <ele>954.5</ele>
        <time>2015-12-06T12:29:53Z</time>
      </trkpt>
      <trkpt lat="44.12982" lon="3.20854">
        <ele>940.5</ele>
        <time>2015-12-06T12:29:54Z</time>
      </trkpt>
      <trkpt lat="44.12984" lon="3.20852">
        <ele>940</ele>
        <time>2015-12-06T12:29:55Z</time>
      </trkpt>
      <trkpt lat="44.12992" lon="3.20851">
        <ele>940</ele>
        <time>2015-12-06T12:29:57Z</time>
      </trkpt>
      <trkpt lat="44.12996" lon="3.20857">
        <ele>935.5</ele>
        <time>2015-12-06T12:30:00Z</time>
      </trkpt>
      <trkpt lat="44.12998" lon="3.20892">
        <ele>934</ele>
        <time>2015-12-06T12:30:04Z</time>
      </trkpt>
      <trkpt lat="44.13025" lon="3.2084">
        <ele>934.5</ele>
        <time>2015-12-06T12:30:09Z</time>
      </trkpt>
      <trkpt lat="44.13022" lon="3.20838">
        <ele>932</ele>
        <time>2015-12-06T12:30:12Z</time>
      </trkpt>
      <trkpt lat="44.13023" lon="3.20838">
        <ele>931.5</ele>
        <time>2015-12-06T12:30:13Z</time>
      </trkpt>
      <trkpt lat="44.13023" lon="3.20837">
        <ele>931.5</ele>
        <time>2015-12-06T12:30:13Z</time>
      </trkpt>
      <trkpt lat="44.13054" lon="3.20831">
        <ele>927.5</ele>
        <time>2015-12-06T12:30:36Z</time>
      </trkpt>
      <trkpt lat="44.13049" lon="3.20831">
        <ele>922.5</ele>
        <time>2015-12-06T12:30:39Z</time>
      </trkpt>
      <trkpt lat="44.13043" lon="3.20829">
        <ele>912</ele>
        <time>2015-12-06T12:30:40Z</time>
      </trkpt>
      <trkpt lat="44.13041" lon="3.20836">
        <ele>911</ele>
        <time>2015-12-06T12:30:42Z</time>
      </trkpt>
      <trkpt lat="44.13041" lon="3.20846">
        <ele>910</ele>
        <time>2015-12-06T12:30:45Z</time>
      </trkpt>
      <trkpt lat="44.13042" lon="3.2085">
        <ele>908</ele>
        <time>2015-12-06T12:30:45Z</time>
      </trkpt>
      <trkpt lat="44.13046" lon="3.20854">
        <ele>913.5</ele>
        <time>2015-12-06T12:30:47Z</time>
      </trkpt>
      <trkpt lat="44.13038" lon="3.20855">
        <ele>916.5</ele>
        <time>2015-12-06T12:30:51Z</time>
      </trkpt>
      <trkpt lat="44.13035" lon="3.20852">
        <ele>922</ele>
        <time>2015-12-06T12:30:53Z</time>
      </trkpt>
      <trkpt lat="44.13035" lon="3.20853">
        <ele>925</ele>
        <time>2015-12-06T12:30:54Z</time>
      </trkpt>
      <trkpt lat="44.13033" lon="3.20854">
        <ele>927</ele>
        <time>2015-12-06T12:30:55Z</time>
      </trkpt>
      <trkpt lat="44.13028" lon="3.20867">
        <ele>938.5</ele>
        <time>2015-12-06T12:30:57Z</time>
      </trkpt>
      <trkpt lat="44.13022" lon="3.20867">
        <ele>940</ele>
        <time>2015-12-06T12:31:00Z</time>
      </trkpt>
      <trkpt lat="44.13022" lon="3.20871">
        <ele>940.5</ele>
        <time>2015-12-06T12:31:01Z</time>
      </trkpt>
      <trkpt lat="44.13023" lon="3.20876">
        <ele>940.5</ele>
        <time>2015-12-06T12:31:02Z</time>
      </trkpt>
      <trkpt lat="44.13023" lon="3.20879">
        <ele>935</ele>
        <time>2015-12-06T12:31:03Z</time>
      </trkpt>
      <trkpt lat="44.13025" lon="3.2088">
        <ele>929</ele>
        <time>2015-12-06T12:31:04Z</time>
      </trkpt>
      <trkpt lat="44.13027" lon="3.20881">
        <ele>925.5</ele>
        <time>2015-12-06T12:31:05Z</time>
      </trkpt>
      <trkpt lat="44.13026" lon="3.20881">
        <ele>918</ele>
        <time>2015-12-06T12:31:06Z</time>
      </trkpt>
      <trkpt lat="44.13027" lon="3.20882">
        <ele>921</ele>
        <time>2015-12-06T12:31:07Z</time>
      </trkpt>
      <trkpt lat="44.1303" lon="3.20885">
        <ele>920.5</ele>
        <time>2015-12-06T12:31:08Z</time>
      </trkpt>
      <trkpt lat="44.13029" lon="3.2089">
        <ele>920</ele>
        <time>2015-12-06T12:31:09Z</time>
      </trkpt>
      <trkpt lat="44.13028" lon="3.20895">
        <ele>917.5</ele>
        <time>2015-12-06T12:31:10Z</time>
      </trkpt>
      <trkpt lat="44.13026" lon="3.20907">
        <ele>920</ele>
        <time>2015-12-06T12:31:12Z</time>
      </trkpt>
      <trkpt lat="44.13027" lon="3.20912">
        <ele>921</ele>
        <time>2015-12-06T12:31:13Z</time>
      </trkpt>
      <trkpt lat="44.13028" lon="3.20915">
        <ele>919.5</ele>
        <time>2015-12-06T12:31:14Z</time>
      </trkpt>
      <trkpt lat="44.1303" lon="3.20918">
        <ele>919.5</ele>
        <time>2015-12-06T12:31:15Z</time>
      </trkpt>
      <trkpt lat="44.13029" lon="3.20921">
        <ele>919.5</ele>
        <time>2015-12-06T12:31:16Z</time>
      </trkpt>
      <trkpt lat="44.13029" lon="3.20924">
        <ele>918</ele>
        <time>2015-12-06T12:31:17Z</time>
      </trkpt>
      <trkpt lat="44.13028" lon="3.20932">
        <ele>916.5</ele>
        <time>2015-12-06T12:31:20Z</time>
      </trkpt>
      <trkpt lat="44.1303" lon="3.20945">
        <ele>912.5</ele>
        <time>2015-12-06T12:31:21Z</time>
      </trkpt>
      <trkpt lat="44.13027" lon="3.2095">
        <ele>909.5</ele>
        <time>2015-12-06T12:31:24Z</time>
      </trkpt>
      <trkpt lat="44.13022" lon="3.20963">
        <ele>906</ele>
        <time>2015-12-06T12:31:27Z</time>
      </trkpt>
      <trkpt lat="44.13025" lon="3.20967">
        <ele>905</ele>
        <time>2015-12-06T12:31:27Z</time>
      </trkpt>
      <trkpt lat="44.13027" lon="3.20969">
        <ele>903</ele>
        <time>2015-12-06T12:31:28Z</time>
      </trkpt>
      <trkpt lat="44.13028" lon="3.20974">
        <ele>900.5</ele>
        <time>2015-12-06T12:31:30Z</time>
      </trkpt>
      <trkpt lat="44.13027" lon="3.20983">
        <ele>897.5</ele>
        <time>2015-12-06T12:31:31Z</time>
      </trkpt>
      <trkpt lat="44.13027" lon="3.20987">
        <ele>895.5</ele>
        <time>2015-12-06T12:31:32Z</time>
      </trkpt>
      <trkpt lat="44.13025" lon="3.20991">
        <ele>894.5</ele>
        <time>2015-12-06T12:31:33Z</time>
      </trkpt>
      <trkpt lat="44.13024" lon="3.20995">
        <ele>893</ele>
        <time>2015-12-06T12:31:34Z</time>
      </trkpt>
      <trkpt lat="44.13023" lon="3.20997">
        <ele>892</ele>
        <time>2015-12-06T12:31:35Z</time>
      </trkpt>
      <trkpt lat="44.13022" lon="3.21">
        <ele>892</ele>
        <time>2015-12-06T12:31:36Z</time>
      </trkpt>
      <trkpt lat="44.13021" lon="3.21003">
        <ele>892.5</ele>
        <time>2015-12-06T12:31:37Z</time>
      </trkpt>
      <trkpt lat="44.13019" lon="3.21006">
        <ele>892</ele>
        <time>2015-12-06T12:31:38Z</time>
      </trkpt>
      <trkpt lat="44.1302" lon="3.21008">
        <ele>893.5</ele>
        <time>2015-12-06T12:31:39Z</time>
      </trkpt>
      <trkpt lat="44.13019" lon="3.21017">
        <ele>890</ele>
        <time>2015-12-06T12:31:49Z</time>
      </trkpt>
      <trkpt lat="44.13019" lon="3.21022">
        <ele>892</ele>
        <time>2015-12-06T12:31:51Z</time>
      </trkpt>
      <trkpt lat="44.13019" lon="3.21025">
        <ele>892</ele>
        <time>2015-12-06T12:31:52Z</time>
      </trkpt>
      <trkpt lat="44.13017" lon="3.21026">
        <ele>895.5</ele>
        <time>2015-12-06T12:31:53Z</time>
      </trkpt>
      <trkpt lat="44.13017" lon="3.21031">
        <ele>893.5</ele>
        <time>2015-12-06T12:31:54Z</time>
      </trkpt>
      <trkpt lat="44.13018" lon="3.21033">
        <ele>890</ele>
        <time>2015-12-06T12:31:55Z</time>
      </trkpt>
      <trkpt lat="44.13019" lon="3.21037">
        <ele>885</ele>
        <time>2015-12-06T12:31:56Z</time>
      </trkpt>
      <trkpt lat="44.1302" lon="3.2104">
        <ele>880.5</ele>
        <time>2015-12-06T12:31:57Z</time>
      </trkpt>
      <trkpt lat="44.13021" lon="3.21041">
        <ele>879.5</ele>
        <time>2015-12-06T12:31:58Z</time>
      </trkpt>
      <trkpt lat="44.13025" lon="3.21044">
        <ele>875.5</ele>
        <time>2015-12-06T12:32:00Z</time>
      </trkpt>
      <trkpt lat="44.13026" lon="3.21047">
        <ele>876.5</ele>
        <time>2015-12-06T12:32:02Z</time>
      </trkpt>
      <trkpt lat="44.13028" lon="3.2105">
        <ele>878</ele>
        <time>2015-12-06T12:32:02Z</time>
      </trkpt>
      <trkpt lat="44.13037" lon="3.21057">
        <ele>876</ele>
        <time>2015-12-06T12:32:04Z</time>
      </trkpt>
      <trkpt lat="44.13036" lon="3.21065">
        <ele>874.5</ele>
        <time>2015-12-06T12:32:06Z</time>
      </trkpt>
      <trkpt lat="44.13038" lon="3.21068">
        <ele>873.5</ele>
        <time>2015-12-06T12:32:07Z</time>
      </trkpt>
      <trkpt lat="44.13038" lon="3.21072">
        <ele>871.5</ele>
        <time>2015-12-06T12:32:08Z</time>
      </trkpt>
      <trkpt lat="44.13038" lon="3.21073">
        <ele>871.5</ele>
        <time>2015-12-06T12:32:09Z</time>
      </trkpt>
      <trkpt lat="44.13039" lon="3.21074">
        <ele>870</ele>
        <time>2015-12-06T12:32:10Z</time>
      </trkpt>
      <trkpt lat="44.13038" lon="3.21074">
        <ele>871</ele>
        <time>2015-12-06T12:32:11Z</time>
      </trkpt>
      <trkpt lat="44.13036" lon="3.21077">
        <ele>871</ele>
        <time>2015-12-06T12:32:12Z</time>
      </trkpt>
      <trkpt lat="44.13036" lon="3.21077">
        <ele>872.5</ele>
        <time>2015-12-06T12:32:13Z</time>
      </trkpt>
      <trkpt lat="44.13037" lon="3.2108">
        <ele>873.5</ele>
        <time>2015-12-06T12:32:14Z</time>
      </trkpt>
      <trkpt lat="44.13038" lon="3.21083">
        <ele>874.5</ele>
        <time>2015-12-06T12:32:15Z</time>
      </trkpt>
      <trkpt lat="44.1304" lon="3.21086">
        <ele>873</ele>
        <time>2015-12-06T12:32:16Z</time>
      </trkpt>
      <trkpt lat="44.13039" lon="3.21091">
        <ele>866</ele>
        <time>2015-12-06T12:32:18Z</time>
      </trkpt>
      <trkpt lat="44.13041" lon="3.21089">
        <ele>865</ele>
        <time>2015-12-06T12:32:19Z</time>
      </trkpt>
      <trkpt lat="44.13035" lon="3.2109">
        <ele>861</ele>
        <time>2015-12-06T12:32:22Z</time>
      </trkpt>
      <trkpt lat="44.13028" lon="3.2109">
        <ele>861.5</ele>
        <time>2015-12-06T12:32:23Z</time>
      </trkpt>
      <trkpt lat="44.13024" lon="3.21089">
        <ele>863</ele>
        <time>2015-12-06T12:32:25Z</time>
      </trkpt>
      <trkpt lat="44.1302" lon="3.2109">
        <ele>864.5</ele>
        <time>2015-12-06T12:32:25Z</time>
      </trkpt>
      <trkpt lat="44.13017" lon="3.21089">
        <ele>867.5</ele>
        <time>2015-12-06T12:32:26Z</time>
      </trkpt>
      <trkpt lat="44.13015" lon="3.21089">
        <ele>868</ele>
        <time>2015-12-06T12:32:27Z</time>
      </trkpt>
      <trkpt lat="44.13003" lon="3.2109">
        <ele>866.5</ele>
        <time>2015-12-06T12:32:29Z</time>
      </trkpt>
      <trkpt lat="44.12997" lon="3.21093">
        <ele>868.5</ele>
        <time>2015-12-06T12:32:30Z</time>
      </trkpt>
      <trkpt lat="44.12993" lon="3.21092">
        <ele>870.5</ele>
        <time>2015-12-06T12:32:31Z</time>
      </trkpt>
      <trkpt lat="44.1299" lon="3.2109">
        <ele>872.5</ele>
        <time>2015-12-06T12:32:32Z</time>
      </trkpt>
      <trkpt lat="44.12988" lon="3.21089">
        <ele>876</ele>
        <time>2015-12-06T12:32:33Z</time>
      </trkpt>
      <trkpt lat="44.12988" lon="3.21086">
        <ele>877.5</ele>
        <time>2015-12-06T12:32:34Z</time>
      </trkpt>
      <trkpt lat="44.12986" lon="3.21083">
        <ele>876.5</ele>
        <time>2015-12-06T12:32:35Z</time>
      </trkpt>
      <trkpt lat="44.12984" lon="3.21082">
        <ele>873</ele>
        <time>2015-12-06T12:32:36Z</time>
      </trkpt>
      <trkpt lat="44.1298" lon="3.21081">
        <ele>869</ele>
        <time>2015-12-06T12:32:37Z</time>
      </trkpt>
      <trkpt lat="44.12972" lon="3.21083">
        <ele>863.5</ele>
        <time>2015-12-06T12:32:39Z</time>
      </trkpt>
      <trkpt lat="44.12969" lon="3.21081">
        <ele>861.5</ele>
        <time>2015-12-06T12:32:40Z</time>
      </trkpt>
      <trkpt lat="44.12966" lon="3.2108">
        <ele>859.5</ele>
        <time>2015-12-06T12:32:41Z</time>
      </trkpt>
      <trkpt lat="44.12964" lon="3.21078">
        <ele>859.5</ele>
        <time>2015-12-06T12:32:42Z</time>
      </trkpt>
      <trkpt lat="44.12962" lon="3.21076">
        <ele>858.5</ele>
        <time>2015-12-06T12:32:43Z</time>
      </trkpt>
      <trkpt lat="44.12961" lon="3.21074">
        <ele>857.5</ele>
        <time>2015-12-06T12:32:44Z</time>
      </trkpt>
      <trkpt lat="44.12959" lon="3.21072">
        <ele>857.5</ele>
        <time>2015-12-06T12:32:45Z</time>
      </trkpt>
      <trkpt lat="44.12957" lon="3.21075">
        <ele>857</ele>
        <time>2015-12-06T12:32:46Z</time>
      </trkpt>
      <trkpt lat="44.12956" lon="3.21075">
        <ele>856.5</ele>
        <time>2015-12-06T12:32:47Z</time>
      </trkpt>
      <trkpt lat="44.1296" lon="3.21082">
        <ele>854.5</ele>
        <time>2015-12-06T12:32:51Z</time>
      </trkpt>
      <trkpt lat="44.12966" lon="3.21088">
        <ele>854</ele>
        <time>2015-12-06T12:32:53Z</time>
      </trkpt>
      <trkpt lat="44.12966" lon="3.21102">
        <ele>852</ele>
        <time>2015-12-06T12:32:58Z</time>
      </trkpt>
      <trkpt lat="44.12967" lon="3.21102">
        <ele>850.5</ele>
        <time>2015-12-06T12:32:58Z</time>
      </trkpt>
      <trkpt lat="44.12968" lon="3.211">
        <ele>845</ele>
        <time>2015-12-06T12:33:00Z</time>
      </trkpt>
      <trkpt lat="44.1297" lon="3.21097">
        <ele>836.5</ele>
        <time>2015-12-06T12:33:02Z</time>
      </trkpt>
      <trkpt lat="44.12966" lon="3.21096">
        <ele>833.5</ele>
        <time>2015-12-06T12:33:04Z</time>
      </trkpt>
      <trkpt lat="44.12969" lon="3.21101">
        <ele>831.5</ele>
        <time>2015-12-06T12:33:05Z</time>
      </trkpt>
      <trkpt lat="44.12968" lon="3.21102">
        <ele>830</ele>
        <time>2015-12-06T12:33:06Z</time>
      </trkpt>
      <trkpt lat="44.12968" lon="3.21105">
        <ele>828</ele>
        <time>2015-12-06T12:33:07Z</time>
      </trkpt>
      <trkpt lat="44.12967" lon="3.21105">
        <ele>824</ele>
        <time>2015-12-06T12:33:08Z</time>
      </trkpt>
      <trkpt lat="44.12966" lon="3.21108">
        <ele>824.5</ele>
        <time>2015-12-06T12:33:09Z</time>
      </trkpt>
      <trkpt lat="44.12965" lon="3.2111">
        <ele>825</ele>
        <time>2015-12-06T12:33:10Z</time>
      </trkpt>
      <trkpt lat="44.12965" lon="3.21113">
        <ele>826.5</ele>
        <time>2015-12-06T12:33:12Z</time>
      </trkpt>
      <trkpt lat="44.12965" lon="3.21115">
        <ele>826.5</ele>
        <time>2015-12-06T12:33:13Z</time>
      </trkpt>
      <trkpt lat="44.12966" lon="3.21121">
        <ele>828</ele>
        <time>2015-12-06T12:33:14Z</time>
      </trkpt>
      <trkpt lat="44.12965" lon="3.21122">
        <ele>827.5</ele>
        <time>2015-12-06T12:33:16Z</time>
      </trkpt>
      <trkpt lat="44.12964" lon="3.21122">
        <ele>828</ele>
        <time>2015-12-06T12:33:18Z</time>
      </trkpt>
      <trkpt lat="44.12964" lon="3.21125">
        <ele>828</ele>
        <time>2015-12-06T12:33:19Z</time>
      </trkpt>
      <trkpt lat="44.12959" lon="3.21132">
        <ele>823.5</ele>
        <time>2015-12-06T12:33:20Z</time>
      </trkpt>
      <trkpt lat="44.12953" lon="3.21136">
        <ele>831</ele>
        <time>2015-12-06T12:33:22Z</time>
      </trkpt>
      <trkpt lat="44.1295" lon="3.2114">
        <ele>827</ele>
        <time>2015-12-06T12:33:23Z</time>
      </trkpt>
      <trkpt lat="44.12947" lon="3.21141">
        <ele>823.5</ele>
        <time>2015-12-06T12:33:24Z</time>
      </trkpt>
      <trkpt lat="44.12944" lon="3.21146">
        <ele>820.5</ele>
        <time>2015-12-06T12:33:25Z</time>
      </trkpt>
      <trkpt lat="44.12944" lon="3.21141">
        <ele>811</ele>
        <time>2015-12-06T12:33:27Z</time>
      </trkpt>
      <trkpt lat="44.12941" lon="3.21144">
        <ele>813.5</ele>
        <time>2015-12-06T12:33:28Z</time>
      </trkpt>
      <trkpt lat="44.12937" lon="3.21145">
        <ele>810</ele>
        <time>2015-12-06T12:33:29Z</time>
      </trkpt>
      <trkpt lat="44.12931" lon="3.21134">
        <ele>802</ele>
        <time>2015-12-06T12:33:31Z</time>
      </trkpt>
      <trkpt lat="44.12922" lon="3.21128">
        <ele>802</ele>
        <time>2015-12-06T12:33:33Z</time>
      </trkpt>
      <trkpt lat="44.12912" lon="3.21134">
        <ele>807</ele>
        <time>2015-12-06T12:33:35Z</time>
      </trkpt>
      <trkpt lat="44.12909" lon="3.2113">
        <ele>808.5</ele>
        <time>2015-12-06T12:33:36Z</time>
      </trkpt>
      <trkpt lat="44.12908" lon="3.21127">
        <ele>808.5</ele>
        <time>2015-12-06T12:33:37Z</time>
      </trkpt>
      <trkpt lat="44.12906" lon="3.21124">
        <ele>809.5</ele>
        <time>2015-12-06T12:33:38Z</time>
      </trkpt>
      <trkpt lat="44.12904" lon="3.21121">
        <ele>812</ele>
        <time>2015-12-06T12:33:39Z</time>
      </trkpt>
      <trkpt lat="44.12902" lon="3.21118">
        <ele>811</ele>
        <time>2015-12-06T12:33:40Z</time>
      </trkpt>
      <trkpt lat="44.129" lon="3.21116">
        <ele>809</ele>
        <time>2015-12-06T12:33:41Z</time>
      </trkpt>
      <trkpt lat="44.12897" lon="3.21115">
        <ele>810</ele>
        <time>2015-12-06T12:33:43Z</time>
      </trkpt>
      <trkpt lat="44.12895" lon="3.21117">
        <ele>811.5</ele>
        <time>2015-12-06T12:33:45Z</time>
      </trkpt>
      <trkpt lat="44.12893" lon="3.21118">
        <ele>812</ele>
        <time>2015-12-06T12:33:46Z</time>
      </trkpt>
      <trkpt lat="44.12892" lon="3.21118">
        <ele>812</ele>
        <time>2015-12-06T12:33:46Z</time>
      </trkpt>
      <trkpt lat="44.12892" lon="3.21118">
        <ele>812.5</ele>
        <time>2015-12-06T12:33:47Z</time>
      </trkpt>
      <trkpt lat="44.1289" lon="3.2111">
        <ele>812.5</ele>
        <time>2015-12-06T12:33:49Z</time>
      </trkpt>
      <trkpt lat="44.12881" lon="3.21128">
        <ele>810</ele>
        <time>2015-12-06T12:34:00Z</time>
      </trkpt>
      <trkpt lat="44.1287" lon="3.21118">
        <ele>804</ele>
        <time>2015-12-06T12:34:11Z</time>
      </trkpt>
      <trkpt lat="44.12867" lon="3.21115">
        <ele>803</ele>
        <time>2015-12-06T12:34:13Z</time>
      </trkpt>
      <trkpt lat="44.12866" lon="3.21112">
        <ele>803</ele>
        <time>2015-12-06T12:34:15Z</time>
      </trkpt>
      <trkpt lat="44.12866" lon="3.21109">
        <ele>802</ele>
        <time>2015-12-06T12:34:15Z</time>
      </trkpt>
      <trkpt lat="44.12866" lon="3.21112">
        <ele>802</ele>
        <time>2015-12-06T12:34:16Z</time>
      </trkpt>
      <trkpt lat="44.12866" lon="3.21115">
        <ele>803.5</ele>
        <time>2015-12-06T12:34:18Z</time>
      </trkpt>
      <trkpt lat="44.12866" lon="3.21117">
        <ele>803.5</ele>
        <time>2015-12-06T12:34:19Z</time>
      </trkpt>
      <trkpt lat="44.12865" lon="3.21134">
        <ele>804.5</ele>
        <time>2015-12-06T12:34:23Z</time>
      </trkpt>
      <trkpt lat="44.12864" lon="3.21135">
        <ele>804.5</ele>
        <time>2015-12-06T12:34:24Z</time>
      </trkpt>
      <trkpt lat="44.12862" lon="3.21135">
        <ele>804</ele>
        <time>2015-12-06T12:34:24Z</time>
      </trkpt>
      <trkpt lat="44.12858" lon="3.21133">
        <ele>801</ele>
        <time>2015-12-06T12:34:26Z</time>
      </trkpt>
      <trkpt lat="44.12852" lon="3.21135">
        <ele>799.5</ele>
        <time>2015-12-06T12:34:28Z</time>
      </trkpt>
      <trkpt lat="44.12846" lon="3.21131">
        <ele>800.5</ele>
        <time>2015-12-06T12:34:32Z</time>
      </trkpt>
      <trkpt lat="44.12835" lon="3.21134">
        <ele>800</ele>
        <time>2015-12-06T12:34:33Z</time>
      </trkpt>
      <trkpt lat="44.12829" lon="3.21133">
        <ele>800.5</ele>
        <time>2015-12-06T12:34:34Z</time>
      </trkpt>
      <trkpt lat="44.12825" lon="3.21131">
        <ele>799.5</ele>
        <time>2015-12-06T12:34:36Z</time>
      </trkpt>
      <trkpt lat="44.12823" lon="3.21132">
        <ele>798</ele>
        <time>2015-12-06T12:34:36Z</time>
      </trkpt>
      <trkpt lat="44.1282" lon="3.21138">
        <ele>801</ele>
        <time>2015-12-06T12:34:37Z</time>
      </trkpt>
      <trkpt lat="44.12816" lon="3.21143">
        <ele>802</ele>
        <time>2015-12-06T12:34:39Z</time>
      </trkpt>
      <trkpt lat="44.12813" lon="3.21142">
        <ele>802.5</ele>
        <time>2015-12-06T12:34:39Z</time>
      </trkpt>
      <trkpt lat="44.12815" lon="3.21141">
        <ele>802.5</ele>
        <time>2015-12-06T12:34:44Z</time>
      </trkpt>
      <trkpt lat="44.12817" lon="3.21139">
        <ele>802.5</ele>
        <time>2015-12-06T12:34:44Z</time>
      </trkpt>
      <trkpt lat="44.1282" lon="3.21142">
        <ele>800.5</ele>
        <time>2015-12-06T12:34:46Z</time>
      </trkpt>
      <trkpt lat="44.12826" lon="3.21149">
        <ele>798</ele>
        <time>2015-12-06T12:34:49Z</time>
      </trkpt>
      <trkpt lat="44.12828" lon="3.21151">
        <ele>797.5</ele>
        <time>2015-12-06T12:34:50Z</time>
      </trkpt>
      <trkpt lat="44.12825" lon="3.21153">
        <ele>796.5</ele>
        <time>2015-12-06T12:34:52Z</time>
      </trkpt>
      <trkpt lat="44.12828" lon="3.2112">
        <ele>798</ele>
        <time>2015-12-06T12:34:58Z</time>
      </trkpt>
      <trkpt lat="44.12832" lon="3.21123">
        <ele>797</ele>
        <time>2015-12-06T12:35:07Z</time>
      </trkpt>
      <trkpt lat="44.12833" lon="3.21128">
        <ele>796</ele>
        <time>2015-12-06T12:35:09Z</time>
      </trkpt>
      <trkpt lat="44.12827" lon="3.21146">
        <ele>795</ele>
        <time>2015-12-06T12:35:13Z</time>
      </trkpt>
      <trkpt lat="44.12822" lon="3.2116">
        <ele>793.5</ele>
        <time>2015-12-06T12:35:16Z</time>
      </trkpt>
      <trkpt lat="44.12812" lon="3.21169">
        <ele>789</ele>
        <time>2015-12-06T12:35:18Z</time>
      </trkpt>
      <trkpt lat="44.12814" lon="3.21168">
        <ele>791.5</ele>
        <time>2015-12-06T12:35:20Z</time>
      </trkpt>
      <trkpt lat="44.12813" lon="3.21171">
        <ele>794.5</ele>
        <time>2015-12-06T12:35:21Z</time>
      </trkpt>
      <trkpt lat="44.1281" lon="3.2117">
        <ele>797</ele>
        <time>2015-12-06T12:35:22Z</time>
      </trkpt>
      <trkpt lat="44.128" lon="3.21172">
        <ele>792</ele>
        <time>2015-12-06T12:35:24Z</time>
      </trkpt>
      <trkpt lat="44.12798" lon="3.21173">
        <ele>792.5</ele>
        <time>2015-12-06T12:35:25Z</time>
      </trkpt>
      <trkpt lat="44.12794" lon="3.21172">
        <ele>792</ele>
        <time>2015-12-06T12:35:26Z</time>
      </trkpt>
      <trkpt lat="44.12791" lon="3.21173">
        <ele>795</ele>
        <time>2015-12-06T12:35:27Z</time>
      </trkpt>
      <trkpt lat="44.12788" lon="3.21172">
        <ele>796.5</ele>
        <time>2015-12-06T12:35:28Z</time>
      </trkpt>
      <trkpt lat="44.12783" lon="3.21175">
        <ele>793.5</ele>
        <time>2015-12-06T12:35:30Z</time>
      </trkpt>
      <trkpt lat="44.12779" lon="3.21177">
        <ele>792.5</ele>
        <time>2015-12-06T12:35:31Z</time>
      </trkpt>
      <trkpt lat="44.12775" lon="3.21176">
        <ele>791</ele>
        <time>2015-12-06T12:35:32Z</time>
      </trkpt>
      <trkpt lat="44.12772" lon="3.21178">
        <ele>793</ele>
        <time>2015-12-06T12:35:33Z</time>
      </trkpt>
      <trkpt lat="44.12767" lon="3.2118">
        <ele>793.5</ele>
        <time>2015-12-06T12:35:34Z</time>
      </trkpt>
      <trkpt lat="44.12762" lon="3.21181">
        <ele>792.5</ele>
        <time>2015-12-06T12:35:35Z</time>
      </trkpt>
      <trkpt lat="44.12757" lon="3.21183">
        <ele>791.5</ele>
        <time>2015-12-06T12:35:36Z</time>
      </trkpt>
      <trkpt lat="44.12748" lon="3.21187">
        <ele>793</ele>
        <time>2015-12-06T12:35:38Z</time>
      </trkpt>
      <trkpt lat="44.12743" lon="3.21186">
        <ele>793</ele>
        <time>2015-12-06T12:35:39Z</time>
      </trkpt>
      <trkpt lat="44.12741" lon="3.21186">
        <ele>794</ele>
        <time>2015-12-06T12:35:40Z</time>
      </trkpt>
      <trkpt lat="44.12737" lon="3.21186">
        <ele>795</ele>
        <time>2015-12-06T12:35:41Z</time>
      </trkpt>
      <trkpt lat="44.12733" lon="3.21184">
        <ele>797</ele>
        <time>2015-12-06T12:35:42Z</time>
      </trkpt>
      <trkpt lat="44.12731" lon="3.21181">
        <ele>798</ele>
        <time>2015-12-06T12:35:43Z</time>
      </trkpt>
      <trkpt lat="44.12728" lon="3.21182">
        <ele>798.5</ele>
        <time>2015-12-06T12:35:44Z</time>
      </trkpt>
      <trkpt lat="44.12725" lon="3.21181">
        <ele>800</ele>
        <time>2015-12-06T12:35:45Z</time>
      </trkpt>
      <trkpt lat="44.12721" lon="3.21182">
        <ele>802</ele>
        <time>2015-12-06T12:35:46Z</time>
      </trkpt>
      <trkpt lat="44.12717" lon="3.21182">
        <ele>802.5</ele>
        <time>2015-12-06T12:35:47Z</time>
      </trkpt>
      <trkpt lat="44.12705" lon="3.21183">
        <ele>801.5</ele>
        <time>2015-12-06T12:35:49Z</time>
      </trkpt>
      <trkpt lat="44.12702" lon="3.21183">
        <ele>803</ele>
        <time>2015-12-06T12:35:50Z</time>
      </trkpt>
      <trkpt lat="44.12698" lon="3.21182">
        <ele>797</ele>
        <time>2015-12-06T12:35:51Z</time>
      </trkpt>
      <trkpt lat="44.12694" lon="3.21183">
        <ele>791.5</ele>
        <time>2015-12-06T12:35:53Z</time>
      </trkpt>
      <trkpt lat="44.12696" lon="3.21185">
        <ele>792</ele>
        <time>2015-12-06T12:35:54Z</time>
      </trkpt>
      <trkpt lat="44.12697" lon="3.21189">
        <ele>790.5</ele>
        <time>2015-12-06T12:35:55Z</time>
      </trkpt>
      <trkpt lat="44.12699" lon="3.21191">
        <ele>791.5</ele>
        <time>2015-12-06T12:35:56Z</time>
      </trkpt>
      <trkpt lat="44.12703" lon="3.21194">
        <ele>791.5</ele>
        <time>2015-12-06T12:35:57Z</time>
      </trkpt>
      <trkpt lat="44.12706" lon="3.21196">
        <ele>792</ele>
        <time>2015-12-06T12:35:58Z</time>
      </trkpt>
      <trkpt lat="44.12709" lon="3.21195">
        <ele>790.5</ele>
        <time>2015-12-06T12:35:59Z</time>
      </trkpt>
      <trkpt lat="44.12711" lon="3.21198">
        <ele>786.5</ele>
        <time>2015-12-06T12:36:00Z</time>
      </trkpt>
      <trkpt lat="44.12714" lon="3.21199">
        <ele>784.5</ele>
        <time>2015-12-06T12:36:01Z</time>
      </trkpt>
      <trkpt lat="44.12718" lon="3.21201">
        <ele>784</ele>
        <time>2015-12-06T12:36:02Z</time>
      </trkpt>
      <trkpt lat="44.1272" lon="3.21204">
        <ele>782</ele>
        <time>2015-12-06T12:36:03Z</time>
      </trkpt>
      <trkpt lat="44.12722" lon="3.21207">
        <ele>780</ele>
        <time>2015-12-06T12:36:04Z</time>
      </trkpt>
      <trkpt lat="44.12726" lon="3.21214">
        <ele>777</ele>
        <time>2015-12-06T12:36:06Z</time>
      </trkpt>
      <trkpt lat="44.12728" lon="3.21217">
        <ele>776.5</ele>
        <time>2015-12-06T12:36:07Z</time>
      </trkpt>
      <trkpt lat="44.12739" lon="3.2123">
        <ele>772</ele>
        <time>2015-12-06T12:36:10Z</time>
      </trkpt>
      <trkpt lat="44.12732" lon="3.21257">
        <ele>763.5</ele>
        <time>2015-12-06T12:36:21Z</time>
      </trkpt>
      <trkpt lat="44.12703" lon="3.21286">
        <ele>753.5</ele>
        <time>2015-12-06T12:36:29Z</time>
      </trkpt>
      <trkpt lat="44.12698" lon="3.21289">
        <ele>750</ele>
        <time>2015-12-06T12:36:29Z</time>
      </trkpt>
      <trkpt lat="44.12681" lon="3.21296">
        <ele>740</ele>
        <time>2015-12-06T12:36:32Z</time>
      </trkpt>
      <trkpt lat="44.12677" lon="3.21296">
        <ele>736.5</ele>
        <time>2015-12-06T12:36:33Z</time>
      </trkpt>
      <trkpt lat="44.12673" lon="3.21296">
        <ele>732.5</ele>
        <time>2015-12-06T12:36:34Z</time>
      </trkpt>
      <trkpt lat="44.12668" lon="3.21296">
        <ele>728</ele>
        <time>2015-12-06T12:36:35Z</time>
      </trkpt>
      <trkpt lat="44.12664" lon="3.21293">
        <ele>725</ele>
        <time>2015-12-06T12:36:35Z</time>
      </trkpt>
      <trkpt lat="44.1266" lon="3.21292">
        <ele>724.5</ele>
        <time>2015-12-06T12:36:36Z</time>
      </trkpt>
      <trkpt lat="44.12658" lon="3.21292">
        <ele>723.5</ele>
        <time>2015-12-06T12:36:37Z</time>
      </trkpt>
      <trkpt lat="44.12657" lon="3.21295">
        <ele>722</ele>
        <time>2015-12-06T12:36:38Z</time>
      </trkpt>
      <trkpt lat="44.1265" lon="3.21305">
        <ele>719</ele>
        <time>2015-12-06T12:36:40Z</time>
      </trkpt>
      <trkpt lat="44.12644" lon="3.21307">
        <ele>717.5</ele>
        <time>2015-12-06T12:36:41Z</time>
      </trkpt>
      <trkpt lat="44.12633" lon="3.21315">
        <ele>717.5</ele>
        <time>2015-12-06T12:36:43Z</time>
      </trkpt>
      <trkpt lat="44.12628" lon="3.21317">
        <ele>715</ele>
        <time>2015-12-06T12:36:44Z</time>
      </trkpt>
      <trkpt lat="44.12622" lon="3.2132">
        <ele>715</ele>
        <time>2015-12-06T12:36:45Z</time>
      </trkpt>
      <trkpt lat="44.12617" lon="3.21323">
        <ele>715</ele>
        <time>2015-12-06T12:36:46Z</time>
      </trkpt>
      <trkpt lat="44.12612" lon="3.21328">
        <ele>712</ele>
        <time>2015-12-06T12:36:48Z</time>
      </trkpt>
      <trkpt lat="44.12609" lon="3.2133">
        <ele>712.5</ele>
        <time>2015-12-06T12:36:50Z</time>
      </trkpt>
      <trkpt lat="44.12606" lon="3.21331">
        <ele>712</ele>
        <time>2015-12-06T12:36:50Z</time>
      </trkpt>
      <trkpt lat="44.12602" lon="3.2133">
        <ele>711.5</ele>
        <time>2015-12-06T12:36:51Z</time>
      </trkpt>
      <trkpt lat="44.12597" lon="3.21331">
        <ele>713</ele>
        <time>2015-12-06T12:36:52Z</time>
      </trkpt>
      <trkpt lat="44.12594" lon="3.21332">
        <ele>711.5</ele>
        <time>2015-12-06T12:36:53Z</time>
      </trkpt>
      <trkpt lat="44.12584" lon="3.21337">
        <ele>710</ele>
        <time>2015-12-06T12:36:55Z</time>
      </trkpt>
      <trkpt lat="44.12582" lon="3.2134">
        <ele>709.5</ele>
        <time>2015-12-06T12:36:56Z</time>
      </trkpt>
      <trkpt lat="44.1258" lon="3.21343">
        <ele>710.5</ele>
        <time>2015-12-06T12:36:57Z</time>
      </trkpt>
      <trkpt lat="44.12579" lon="3.21345">
        <ele>709</ele>
        <time>2015-12-06T12:36:58Z</time>
      </trkpt>
      <trkpt lat="44.12579" lon="3.21347">
        <ele>708</ele>
        <time>2015-12-06T12:36:59Z</time>
      </trkpt>
      <trkpt lat="44.12577" lon="3.21349">
        <ele>710.5</ele>
        <time>2015-12-06T12:37:00Z</time>
      </trkpt>
      <trkpt lat="44.12576" lon="3.21353">
        <ele>706.5</ele>
        <time>2015-12-06T12:37:01Z</time>
      </trkpt>
      <trkpt lat="44.12574" lon="3.21355">
        <ele>706.5</ele>
        <time>2015-12-06T12:37:02Z</time>
      </trkpt>
      <trkpt lat="44.12572" lon="3.21357">
        <ele>706</ele>
        <time>2015-12-06T12:37:03Z</time>
      </trkpt>
      <trkpt lat="44.12569" lon="3.2136">
        <ele>708</ele>
        <time>2015-12-06T12:37:04Z</time>
      </trkpt>
      <trkpt lat="44.12568" lon="3.21361">
        <ele>705</ele>
        <time>2015-12-06T12:37:05Z</time>
      </trkpt>
      <trkpt lat="44.12568" lon="3.21363">
        <ele>703</ele>
        <time>2015-12-06T12:37:06Z</time>
      </trkpt>
      <trkpt lat="44.12567" lon="3.21364">
        <ele>702</ele>
        <time>2015-12-06T12:37:07Z</time>
      </trkpt>
      <trkpt lat="44.12565" lon="3.21358">
        <ele>696</ele>
        <time>2015-12-06T12:37:28Z</time>
      </trkpt>
      <trkpt lat="44.12563" lon="3.21358">
        <ele>693.5</ele>
        <time>2015-12-06T12:37:30Z</time>
      </trkpt>
      <trkpt lat="44.12562" lon="3.21357">
        <ele>692.5</ele>
        <time>2015-12-06T12:37:31Z</time>
      </trkpt>
      <trkpt lat="44.12559" lon="3.21357">
        <ele>692</ele>
        <time>2015-12-06T12:37:32Z</time>
      </trkpt>
      <trkpt lat="44.12556" lon="3.21357">
        <ele>691</ele>
        <time>2015-12-06T12:37:33Z</time>
      </trkpt>
      <trkpt lat="44.12554" lon="3.21356">
        <ele>690</ele>
        <time>2015-12-06T12:37:34Z</time>
      </trkpt>
      <trkpt lat="44.1255" lon="3.21354">
        <ele>688.5</ele>
        <time>2015-12-06T12:37:35Z</time>
      </trkpt>
      <trkpt lat="44.12497" lon="3.21306">
        <ele>683.5</ele>
        <time>2015-12-06T12:37:45Z</time>
      </trkpt>
      <trkpt lat="44.12489" lon="3.21327">
        <ele>679</ele>
        <time>2015-12-06T12:37:49Z</time>
      </trkpt>
      <trkpt lat="44.12491" lon="3.21341">
        <ele>674.5</ele>
        <time>2015-12-06T12:37:51Z</time>
      </trkpt>
      <trkpt lat="44.12492" lon="3.21347">
        <ele>673.5</ele>
        <time>2015-12-06T12:37:52Z</time>
      </trkpt>
      <trkpt lat="44.12488" lon="3.2135">
        <ele>674</ele>
        <time>2015-12-06T12:37:53Z</time>
      </trkpt>
      <trkpt lat="44.12486" lon="3.21354">
        <ele>674.5</ele>
        <time>2015-12-06T12:37:53Z</time>
      </trkpt>
      <trkpt lat="44.12484" lon="3.21355">
        <ele>675.5</ele>
        <time>2015-12-06T12:37:54Z</time>
      </trkpt>
      <trkpt lat="44.12483" lon="3.21361">
        <ele>674.5</ele>
        <time>2015-12-06T12:37:56Z</time>
      </trkpt>
      <trkpt lat="44.1248" lon="3.21361">
        <ele>673.5</ele>
        <time>2015-12-06T12:37:57Z</time>
      </trkpt>
      <trkpt lat="44.12477" lon="3.21361">
        <ele>671.5</ele>
        <time>2015-12-06T12:37:58Z</time>
      </trkpt>
      <trkpt lat="44.12478" lon="3.21364">
        <ele>669.5</ele>
        <time>2015-12-06T12:37:59Z</time>
      </trkpt>
      <trkpt lat="44.12472" lon="3.21369">
        <ele>671</ele>
        <time>2015-12-06T12:38:01Z</time>
      </trkpt>
      <trkpt lat="44.1247" lon="3.21371">
        <ele>669</ele>
        <time>2015-12-06T12:38:02Z</time>
      </trkpt>
      <trkpt lat="44.12469" lon="3.21373">
        <ele>668.5</ele>
        <time>2015-12-06T12:38:04Z</time>
      </trkpt>
      <trkpt lat="44.12467" lon="3.21375">
        <ele>668</ele>
        <time>2015-12-06T12:38:04Z</time>
      </trkpt>
      <trkpt lat="44.12463" lon="3.21377">
        <ele>668</ele>
        <time>2015-12-06T12:38:05Z</time>
      </trkpt>
      <trkpt lat="44.12458" lon="3.2138">
        <ele>669</ele>
        <time>2015-12-06T12:38:06Z</time>
      </trkpt>
      <trkpt lat="44.12455" lon="3.21386">
        <ele>670</ele>
        <time>2015-12-06T12:38:07Z</time>
      </trkpt>
      <trkpt lat="44.12453" lon="3.2139">
        <ele>668</ele>
        <time>2015-12-06T12:38:08Z</time>
      </trkpt>
      <trkpt lat="44.1245" lon="3.21392">
        <ele>667</ele>
        <time>2015-12-06T12:38:09Z</time>
      </trkpt>
      <trkpt lat="44.12448" lon="3.21394">
        <ele>664.5</ele>
        <time>2015-12-06T12:38:11Z</time>
      </trkpt>
      <trkpt lat="44.12446" lon="3.21393">
        <ele>668</ele>
        <time>2015-12-06T12:38:11Z</time>
      </trkpt>
      <trkpt lat="44.12444" lon="3.21395">
        <ele>667.5</ele>
        <time>2015-12-06T12:38:12Z</time>
      </trkpt>
      <trkpt lat="44.12442" lon="3.21398">
        <ele>666</ele>
        <time>2015-12-06T12:38:13Z</time>
      </trkpt>
      <trkpt lat="44.1244" lon="3.214">
        <ele>667</ele>
        <time>2015-12-06T12:38:14Z</time>
      </trkpt>
      <trkpt lat="44.12435" lon="3.21404">
        <ele>672.5</ele>
        <time>2015-12-06T12:38:16Z</time>
      </trkpt>
      <trkpt lat="44.12436" lon="3.21405">
        <ele>671</ele>
        <time>2015-12-06T12:38:17Z</time>
      </trkpt>
      <trkpt lat="44.12436" lon="3.21406">
        <ele>670.5</ele>
        <time>2015-12-06T12:38:18Z</time>
      </trkpt>
      <trkpt lat="44.12433" lon="3.21408">
        <ele>670.5</ele>
        <time>2015-12-06T12:38:21Z</time>
      </trkpt>
      <trkpt lat="44.12432" lon="3.2141">
        <ele>668.5</ele>
        <time>2015-12-06T12:38:23Z</time>
      </trkpt>
      <trkpt lat="44.12431" lon="3.21411">
        <ele>669</ele>
        <time>2015-12-06T12:38:24Z</time>
      </trkpt>
      <trkpt lat="44.12431" lon="3.21412">
        <ele>668.5</ele>
        <time>2015-12-06T12:38:25Z</time>
      </trkpt>
      <trkpt lat="44.1243" lon="3.21412">
        <ele>669</ele>
        <time>2015-12-06T12:38:26Z</time>
      </trkpt>
      <trkpt lat="44.1243" lon="3.21412">
        <ele>668.5</ele>
        <time>2015-12-06T12:38:27Z</time>
      </trkpt>
      <trkpt lat="44.12429" lon="3.21413">
        <ele>669</ele>
        <time>2015-12-06T12:38:28Z</time>
      </trkpt>
      <trkpt lat="44.1243" lon="3.21415">
        <ele>657.5</ele>
        <time>2015-12-06T12:38:30Z</time>
      </trkpt>
      <trkpt lat="44.1243" lon="3.21417">
        <ele>659</ele>
        <time>2015-12-06T12:38:32Z</time>
      </trkpt>
      <trkpt lat="44.12429" lon="3.21418">
        <ele>659</ele>
        <time>2015-12-06T12:38:33Z</time>
      </trkpt>
      <trkpt lat="44.1243" lon="3.2142">
        <ele>657.5</ele>
        <time>2015-12-06T12:38:34Z</time>
      </trkpt>
      <trkpt lat="44.12431" lon="3.21421">
        <ele>655.5</ele>
        <time>2015-12-06T12:38:35Z</time>
      </trkpt>
      <trkpt lat="44.12431" lon="3.21421">
        <ele>653</ele>
        <time>2015-12-06T12:38:36Z</time>
      </trkpt>
      <trkpt lat="44.12431" lon="3.21422">
        <ele>650.5</ele>
        <time>2015-12-06T12:38:37Z</time>
      </trkpt>
      <trkpt lat="44.1243" lon="3.21422">
        <ele>648.5</ele>
        <time>2015-12-06T12:38:38Z</time>
      </trkpt>
      <trkpt lat="44.12429" lon="3.21422">
        <ele>649</ele>
        <time>2015-12-06T12:38:40Z</time>
      </trkpt>
      <trkpt lat="44.12429" lon="3.21422">
        <ele>650</ele>
        <time>2015-12-06T12:38:40Z</time>
      </trkpt>
      <trkpt lat="44.12429" lon="3.21422">
        <ele>650</ele>
        <time>2015-12-06T12:38:41Z</time>
      </trkpt>
      <trkpt lat="44.12428" lon="3.21422">
        <ele>649.5</ele>
        <time>2015-12-06T12:38:42Z</time>
      </trkpt>
      <trkpt lat="44.12428" lon="3.21421">
        <ele>649.5</ele>
        <time>2015-12-06T12:38:43Z</time>
      </trkpt>
      <trkpt lat="44.12427" lon="3.21421">
        <ele>647</ele>
        <time>2015-12-06T12:38:44Z</time>
      </trkpt>
      <trkpt lat="44.12426" lon="3.21421">
        <ele>647</ele>
        <time>2015-12-06T12:38:45Z</time>
      </trkpt>
      <trkpt lat="44.12425" lon="3.21421">
        <ele>647</ele>
        <time>2015-12-06T12:38:46Z</time>
      </trkpt>
      <trkpt lat="44.12425" lon="3.21422">
        <ele>646.5</ele>
        <time>2015-12-06T12:38:47Z</time>
      </trkpt>
      <trkpt lat="44.12425" lon="3.21423">
        <ele>644.5</ele>
        <time>2015-12-06T12:38:48Z</time>
      </trkpt>
      <trkpt lat="44.12423" lon="3.21426">
        <ele>647</ele>
        <time>2015-12-06T12:38:49Z</time>
      </trkpt>
      <trkpt lat="44.12422" lon="3.21429">
        <ele>643.5</ele>
        <time>2015-12-06T12:38:50Z</time>
      </trkpt>
      <trkpt lat="44.12419" lon="3.21432">
        <ele>644.5</ele>
        <time>2015-12-06T12:38:51Z</time>
      </trkpt>
      <trkpt lat="44.12413" lon="3.21437">
        <ele>649.5</ele>
        <time>2015-12-06T12:38:53Z</time>
      </trkpt>
      <trkpt lat="44.12411" lon="3.21439">
        <ele>646</ele>
        <time>2015-12-06T12:38:54Z</time>
      </trkpt>
      <trkpt lat="44.12404" lon="3.21442">
        <ele>643</ele>
        <time>2015-12-06T12:38:56Z</time>
      </trkpt>
      <trkpt lat="44.12403" lon="3.21444">
        <ele>639.5</ele>
        <time>2015-12-06T12:38:57Z</time>
      </trkpt>
      <trkpt lat="44.12402" lon="3.21446">
        <ele>637</ele>
        <time>2015-12-06T12:38:58Z</time>
      </trkpt>
      <trkpt lat="44.12399" lon="3.21447">
        <ele>635.5</ele>
        <time>2015-12-06T12:38:59Z</time>
      </trkpt>
      <trkpt lat="44.1239" lon="3.2145">
        <ele>636.5</ele>
        <time>2015-12-06T12:39:01Z</time>
      </trkpt>
      <trkpt lat="44.12386" lon="3.21451">
        <ele>640</ele>
        <time>2015-12-06T12:39:02Z</time>
      </trkpt>
      <trkpt lat="44.12385" lon="3.21453">
        <ele>640</ele>
        <time>2015-12-06T12:39:03Z</time>
      </trkpt>
      <trkpt lat="44.12383" lon="3.21456">
        <ele>639</ele>
        <time>2015-12-06T12:39:04Z</time>
      </trkpt>
      <trkpt lat="44.12381" lon="3.21457">
        <ele>637.5</ele>
        <time>2015-12-06T12:39:05Z</time>
      </trkpt>
      <trkpt lat="44.12379" lon="3.21457">
        <ele>637</ele>
        <time>2015-12-06T12:39:06Z</time>
      </trkpt>
      <trkpt lat="44.12377" lon="3.21456">
        <ele>636</ele>
        <time>2015-12-06T12:39:07Z</time>
      </trkpt>
      <trkpt lat="44.12374" lon="3.21457">
        <ele>636</ele>
        <time>2015-12-06T12:39:08Z</time>
      </trkpt>
      <trkpt lat="44.1237" lon="3.21459">
        <ele>635</ele>
        <time>2015-12-06T12:39:09Z</time>
      </trkpt>
      <trkpt lat="44.12361" lon="3.21465">
        <ele>635</ele>
        <time>2015-12-06T12:39:11Z</time>
      </trkpt>
      <trkpt lat="44.12356" lon="3.21468">
        <ele>631</ele>
        <time>2015-12-06T12:39:13Z</time>
      </trkpt>
      <trkpt lat="44.12349" lon="3.21465">
        <ele>634</ele>
        <time>2015-12-06T12:39:15Z</time>
      </trkpt>
      <trkpt lat="44.12346" lon="3.21468">
        <ele>633.5</ele>
        <time>2015-12-06T12:39:16Z</time>
      </trkpt>
      <trkpt lat="44.12343" lon="3.2147">
        <ele>632.5</ele>
        <time>2015-12-06T12:39:17Z</time>
      </trkpt>
      <trkpt lat="44.12338" lon="3.21472">
        <ele>631.5</ele>
        <time>2015-12-06T12:39:18Z</time>
      </trkpt>
      <trkpt lat="44.12333" lon="3.21472">
        <ele>634</ele>
        <time>2015-12-06T12:39:19Z</time>
      </trkpt>
      <trkpt lat="44.12328" lon="3.21472">
        <ele>636.5</ele>
        <time>2015-12-06T12:39:20Z</time>
      </trkpt>
      <trkpt lat="44.1232" lon="3.21477">
        <ele>639</ele>
        <time>2015-12-06T12:39:22Z</time>
      </trkpt>
      <trkpt lat="44.12312" lon="3.21482">
        <ele>640.5</ele>
        <time>2015-12-06T12:39:24Z</time>
      </trkpt>
      <trkpt lat="44.12307" lon="3.21482">
        <ele>642</ele>
        <time>2015-12-06T12:39:25Z</time>
      </trkpt>
      <trkpt lat="44.12303" lon="3.2148">
        <ele>644</ele>
        <time>2015-12-06T12:39:26Z</time>
      </trkpt>
      <trkpt lat="44.12302" lon="3.21481">
        <ele>644</ele>
        <time>2015-12-06T12:39:27Z</time>
      </trkpt>
      <trkpt lat="44.12295" lon="3.21489">
        <ele>650</ele>
        <time>2015-12-06T12:39:29Z</time>
      </trkpt>
      <trkpt lat="44.12292" lon="3.21497">
        <ele>653</ele>
        <time>2015-12-06T12:39:31Z</time>
      </trkpt>
      <trkpt lat="44.12285" lon="3.21506">
        <ele>655</ele>
        <time>2015-12-06T12:39:33Z</time>
      </trkpt>
      <trkpt lat="44.12275" lon="3.21521">
        <ele>661</ele>
        <time>2015-12-06T12:39:35Z</time>
      </trkpt>
      <trkpt lat="44.12274" lon="3.21528">
        <ele>662</ele>
        <time>2015-12-06T12:39:36Z</time>
      </trkpt>
      <trkpt lat="44.12274" lon="3.21535">
        <ele>663</ele>
        <time>2015-12-06T12:39:37Z</time>
      </trkpt>
      <trkpt lat="44.12274" lon="3.2155">
        <ele>662</ele>
        <time>2015-12-06T12:39:42Z</time>
      </trkpt>
      <trkpt lat="44.12275" lon="3.21555">
        <ele>659.5</ele>
        <time>2015-12-06T12:39:43Z</time>
      </trkpt>
      <trkpt lat="44.12275" lon="3.2156">
        <ele>657</ele>
        <time>2015-12-06T12:39:43Z</time>
      </trkpt>
      <trkpt lat="44.12276" lon="3.21564">
        <ele>654</ele>
        <time>2015-12-06T12:39:45Z</time>
      </trkpt>
      <trkpt lat="44.12279" lon="3.21566">
        <ele>652.5</ele>
        <time>2015-12-06T12:39:45Z</time>
      </trkpt>
      <trkpt lat="44.12277" lon="3.2157">
        <ele>649</ele>
        <time>2015-12-06T12:39:47Z</time>
      </trkpt>
      <trkpt lat="44.12276" lon="3.21576">
        <ele>647</ele>
        <time>2015-12-06T12:39:47Z</time>
      </trkpt>
      <trkpt lat="44.12276" lon="3.21582">
        <ele>644</ele>
        <time>2015-12-06T12:39:48Z</time>
      </trkpt>
      <trkpt lat="44.12277" lon="3.21588">
        <ele>643.5</ele>
        <time>2015-12-06T12:39:49Z</time>
      </trkpt>
      <trkpt lat="44.12275" lon="3.21594">
        <ele>642.5</ele>
        <time>2015-12-06T12:39:50Z</time>
      </trkpt>
      <trkpt lat="44.12274" lon="3.21599">
        <ele>642.5</ele>
        <time>2015-12-06T12:39:51Z</time>
      </trkpt>
      <trkpt lat="44.12275" lon="3.21603">
        <ele>643</ele>
        <time>2015-12-06T12:39:52Z</time>
      </trkpt>
      <trkpt lat="44.12275" lon="3.21606">
        <ele>643.5</ele>
        <time>2015-12-06T12:39:53Z</time>
      </trkpt>
      <trkpt lat="44.12276" lon="3.21609">
        <ele>643</ele>
        <time>2015-12-06T12:39:54Z</time>
      </trkpt>
      <trkpt lat="44.12278" lon="3.21613">
        <ele>643</ele>
        <time>2015-12-06T12:39:55Z</time>
      </trkpt>
      <trkpt lat="44.1228" lon="3.21616">
        <ele>642.5</ele>
        <time>2015-12-06T12:39:56Z</time>
      </trkpt>
      <trkpt lat="44.12283" lon="3.21619">
        <ele>639.5</ele>
        <time>2015-12-06T12:39:57Z</time>
      </trkpt>
      <trkpt lat="44.12285" lon="3.21622">
        <ele>636.5</ele>
        <time>2015-12-06T12:39:58Z</time>
      </trkpt>
      <trkpt lat="44.12284" lon="3.21625">
        <ele>635</ele>
        <time>2015-12-06T12:39:59Z</time>
      </trkpt>
      <trkpt lat="44.12283" lon="3.21631">
        <ele>635.5</ele>
        <time>2015-12-06T12:40:00Z</time>
      </trkpt>
      <trkpt lat="44.12282" lon="3.21636">
        <ele>636.5</ele>
        <time>2015-12-06T12:40:01Z</time>
      </trkpt>
      <trkpt lat="44.12282" lon="3.2164">
        <ele>638</ele>
        <time>2015-12-06T12:40:02Z</time>
      </trkpt>
      <trkpt lat="44.12283" lon="3.21646">
        <ele>637.5</ele>
        <time>2015-12-06T12:40:03Z</time>
      </trkpt>
      <trkpt lat="44.12289" lon="3.21655">
        <ele>635.5</ele>
        <time>2015-12-06T12:40:05Z</time>
      </trkpt>
      <trkpt lat="44.12288" lon="3.2167">
        <ele>635</ele>
        <time>2015-12-06T12:40:09Z</time>
      </trkpt>
      <trkpt lat="44.1229" lon="3.21673">
        <ele>633.5</ele>
        <time>2015-12-06T12:40:09Z</time>
      </trkpt>
      <trkpt lat="44.12296" lon="3.21676">
        <ele>628.5</ele>
        <time>2015-12-06T12:40:11Z</time>
      </trkpt>
      <trkpt lat="44.123" lon="3.21676">
        <ele>626</ele>
        <time>2015-12-06T12:40:11Z</time>
      </trkpt>
      <trkpt lat="44.12304" lon="3.21677">
        <ele>622</ele>
        <time>2015-12-06T12:40:12Z</time>
      </trkpt>
      <trkpt lat="44.12308" lon="3.21678">
        <ele>617.5</ele>
        <time>2015-12-06T12:40:14Z</time>
      </trkpt>
      <trkpt lat="44.12311" lon="3.21681">
        <ele>615</ele>
        <time>2015-12-06T12:40:14Z</time>
      </trkpt>
      <trkpt lat="44.12315" lon="3.21684">
        <ele>611.5</ele>
        <time>2015-12-06T12:40:16Z</time>
      </trkpt>
      <trkpt lat="44.12318" lon="3.21686">
        <ele>611.5</ele>
        <time>2015-12-06T12:40:16Z</time>
      </trkpt>
      <trkpt lat="44.12322" lon="3.2169">
        <ele>612</ele>
        <time>2015-12-06T12:40:17Z</time>
      </trkpt>
      <trkpt lat="44.12327" lon="3.21691">
        <ele>611.5</ele>
        <time>2015-12-06T12:40:18Z</time>
      </trkpt>
      <trkpt lat="44.12332" lon="3.21693">
        <ele>611.5</ele>
        <time>2015-12-06T12:40:19Z</time>
      </trkpt>
      <trkpt lat="44.12329" lon="3.21694">
        <ele>594.5</ele>
        <time>2015-12-06T12:40:28Z</time>
      </trkpt>
      <trkpt lat="44.1233" lon="3.21695">
        <ele>597</ele>
        <time>2015-12-06T12:40:30Z</time>
      </trkpt>
      <trkpt lat="44.1233" lon="3.21695">
        <ele>597</ele>
        <time>2015-12-06T12:40:31Z</time>
      </trkpt>
      <trkpt lat="44.12331" lon="3.21695">
        <ele>596.5</ele>
        <time>2015-12-06T12:40:32Z</time>
      </trkpt>
      <trkpt lat="44.12332" lon="3.21696">
        <ele>596.5</ele>
        <time>2015-12-06T12:40:33Z</time>
      </trkpt>
      <trkpt lat="44.12332" lon="3.21696">
        <ele>595.5</ele>
        <time>2015-12-06T12:40:34Z</time>
      </trkpt>
      <trkpt lat="44.12333" lon="3.21696">
        <ele>594.5</ele>
        <time>2015-12-06T12:40:35Z</time>
      </trkpt>
      <trkpt lat="44.12333" lon="3.21697">
        <ele>594</ele>
        <time>2015-12-06T12:40:36Z</time>
      </trkpt>
      <trkpt lat="44.12333" lon="3.21697">
        <ele>593.5</ele>
        <time>2015-12-06T12:40:36Z</time>
      </trkpt>
      <trkpt lat="44.12333" lon="3.21697">
        <ele>592</ele>
        <time>2015-12-06T12:40:37Z</time>
      </trkpt>
      <trkpt lat="44.12334" lon="3.21697">
        <ele>591</ele>
        <time>2015-12-06T12:40:38Z</time>
      </trkpt>
      <trkpt lat="44.12334" lon="3.21697">
        <ele>591</ele>
        <time>2015-12-06T12:40:39Z</time>
      </trkpt>
      <trkpt lat="44.12335" lon="3.21698">
        <ele>591</ele>
        <time>2015-12-06T12:40:40Z</time>
      </trkpt>
      <trkpt lat="44.12335" lon="3.21698">
        <ele>590.5</ele>
        <time>2015-12-06T12:40:41Z</time>
      </trkpt>
      <trkpt lat="44.12336" lon="3.21699">
        <ele>590</ele>
        <time>2015-12-06T12:40:42Z</time>
      </trkpt>
      <trkpt lat="44.12336" lon="3.21699">
        <ele>589.5</ele>
        <time>2015-12-06T12:40:43Z</time>
      </trkpt>
      <trkpt lat="44.12337" lon="3.21699">
        <ele>588</ele>
        <time>2015-12-06T12:40:44Z</time>
      </trkpt>
      <trkpt lat="44.12338" lon="3.21699">
        <ele>588</ele>
        <time>2015-12-06T12:40:46Z</time>
      </trkpt>
      <trkpt lat="44.12338" lon="3.21699">
        <ele>587.5</ele>
        <time>2015-12-06T12:40:46Z</time>
      </trkpt>
      <trkpt lat="44.12338" lon="3.21699">
        <ele>586.5</ele>
        <time>2015-12-06T12:40:47Z</time>
      </trkpt>
      <trkpt lat="44.12341" lon="3.21701">
        <ele>587</ele>
        <time>2015-12-06T12:40:49Z</time>
      </trkpt>
      <trkpt lat="44.12341" lon="3.21701">
        <ele>588.5</ele>
        <time>2015-12-06T12:40:51Z</time>
      </trkpt>
      <trkpt lat="44.12341" lon="3.21702">
        <ele>596.5</ele>
        <time>2015-12-06T12:40:56Z</time>
      </trkpt>
      <trkpt lat="44.12341" lon="3.21702">
        <ele>597</ele>
        <time>2015-12-06T12:40:58Z</time>
      </trkpt>
      <trkpt lat="44.12341" lon="3.21702">
        <ele>598</ele>
        <time>2015-12-06T12:40:59Z</time>
      </trkpt>
      <trkpt lat="44.12342" lon="3.21702">
        <ele>598</ele>
        <time>2015-12-06T12:41:00Z</time>
      </trkpt>
      <trkpt lat="44.12341" lon="3.21702">
        <ele>599</ele>
        <time>2015-12-06T12:41:01Z</time>
      </trkpt>
      <trkpt lat="44.12341" lon="3.21702">
        <ele>599.5</ele>
        <time>2015-12-06T12:41:02Z</time>
      </trkpt>
      <trkpt lat="44.12341" lon="3.21703">
        <ele>600</ele>
        <time>2015-12-06T12:41:03Z</time>
      </trkpt>
      <trkpt lat="44.12341" lon="3.21703">
        <ele>600</ele>
        <time>2015-12-06T12:41:04Z</time>
      </trkpt>
      <trkpt lat="44.12342" lon="3.21704">
        <ele>600.5</ele>
        <time>2015-12-06T12:41:06Z</time>
      </trkpt>
      <trkpt lat="44.12344" lon="3.21705">
        <ele>602</ele>
        <time>2015-12-06T12:41:06Z</time>
      </trkpt>
      <trkpt lat="44.12344" lon="3.21706">
        <ele>600.5</ele>
        <time>2015-12-06T12:41:07Z</time>
      </trkpt>
      <trkpt lat="44.12344" lon="3.21706">
        <ele>601</ele>
        <time>2015-12-06T12:41:08Z</time>
      </trkpt>
      <trkpt lat="44.12344" lon="3.21706">
        <ele>601.5</ele>
        <time>2015-12-06T12:41:10Z</time>
      </trkpt>
      <trkpt lat="44.12344" lon="3.21706">
        <ele>601.5</ele>
        <time>2015-12-06T12:41:10Z</time>
      </trkpt>
      <trkpt lat="44.12345" lon="3.21706">
        <ele>600.5</ele>
        <time>2015-12-06T12:41:11Z</time>
      </trkpt>
      <trkpt lat="44.12347" lon="3.21708">
        <ele>599.5</ele>
        <time>2015-12-06T12:41:12Z</time>
      </trkpt>
      <trkpt lat="44.12347" lon="3.21708">
        <ele>598.5</ele>
        <time>2015-12-06T12:41:13Z</time>
      </trkpt>
      <trkpt lat="44.12347" lon="3.21708">
        <ele>599</ele>
        <time>2015-12-06T12:41:14Z</time>
      </trkpt>
      <trkpt lat="44.12347" lon="3.2171">
        <ele>599.5</ele>
        <time>2015-12-06T12:41:15Z</time>
      </trkpt>
      <trkpt lat="44.12347" lon="3.21711">
        <ele>600.5</ele>
        <time>2015-12-06T12:41:20Z</time>
      </trkpt>
      <trkpt lat="44.12347" lon="3.21717">
        <ele>604.5</ele>
        <time>2015-12-06T12:41:22Z</time>
      </trkpt>
      <trkpt lat="44.12348" lon="3.21718">
        <ele>604.5</ele>
        <time>2015-12-06T12:41:23Z</time>
      </trkpt>
      <trkpt lat="44.12349" lon="3.2172">
        <ele>604</ele>
        <time>2015-12-06T12:41:24Z</time>
      </trkpt>
      <trkpt lat="44.1235" lon="3.21721">
        <ele>603.5</ele>
        <time>2015-12-06T12:41:25Z</time>
      </trkpt>
      <trkpt lat="44.12351" lon="3.21723">
        <ele>604</ele>
        <time>2015-12-06T12:41:26Z</time>
      </trkpt>
      <trkpt lat="44.12352" lon="3.21725">
        <ele>604.5</ele>
        <time>2015-12-06T12:41:27Z</time>
      </trkpt>
      <trkpt lat="44.12353" lon="3.21728">
        <ele>605.5</ele>
        <time>2015-12-06T12:41:28Z</time>
      </trkpt>
      <trkpt lat="44.12354" lon="3.2173">
        <ele>605.5</ele>
        <time>2015-12-06T12:41:29Z</time>
      </trkpt>
      <trkpt lat="44.12357" lon="3.21733">
        <ele>605.5</ele>
        <time>2015-12-06T12:41:30Z</time>
      </trkpt>
      <trkpt lat="44.12358" lon="3.21736">
        <ele>606</ele>
        <time>2015-12-06T12:41:31Z</time>
      </trkpt>
      <trkpt lat="44.1236" lon="3.2174">
        <ele>605</ele>
        <time>2015-12-06T12:41:32Z</time>
      </trkpt>
      <trkpt lat="44.12362" lon="3.21744">
        <ele>604.5</ele>
        <time>2015-12-06T12:41:33Z</time>
      </trkpt>
      <trkpt lat="44.12364" lon="3.21748">
        <ele>605</ele>
        <time>2015-12-06T12:41:34Z</time>
      </trkpt>
      <trkpt lat="44.12368" lon="3.21748">
        <ele>604</ele>
        <time>2015-12-06T12:41:35Z</time>
      </trkpt>
      <trkpt lat="44.12372" lon="3.21751">
        <ele>604.5</ele>
        <time>2015-12-06T12:41:37Z</time>
      </trkpt>
      <trkpt lat="44.12379" lon="3.21755">
        <ele>608.5</ele>
        <time>2015-12-06T12:41:39Z</time>
      </trkpt>
      <trkpt lat="44.12381" lon="3.21759">
        <ele>607</ele>
        <time>2015-12-06T12:41:40Z</time>
      </trkpt>
      <trkpt lat="44.12382" lon="3.21763">
        <ele>606</ele>
        <time>2015-12-06T12:41:41Z</time>
      </trkpt>
      <trkpt lat="44.12386" lon="3.21766">
        <ele>603</ele>
        <time>2015-12-06T12:41:42Z</time>
      </trkpt>
      <trkpt lat="44.12395" lon="3.21794">
        <ele>598</ele>
        <time>2015-12-06T12:41:47Z</time>
      </trkpt>
      <trkpt lat="44.12395" lon="3.21801">
        <ele>596</ele>
        <time>2015-12-06T12:41:48Z</time>
      </trkpt>
      <trkpt lat="44.12392" lon="3.21821">
        <ele>591.5</ele>
        <time>2015-12-06T12:41:50Z</time>
      </trkpt>
      <trkpt lat="44.12393" lon="3.21829">
        <ele>590.5</ele>
        <time>2015-12-06T12:41:51Z</time>
      </trkpt>
      <trkpt lat="44.12394" lon="3.21834">
        <ele>590.5</ele>
        <time>2015-12-06T12:41:51Z</time>
      </trkpt>
      <trkpt lat="44.12397" lon="3.21849">
        <ele>591.5</ele>
        <time>2015-12-06T12:41:55Z</time>
      </trkpt>
      <trkpt lat="44.12398" lon="3.21856">
        <ele>592</ele>
        <time>2015-12-06T12:41:55Z</time>
      </trkpt>
      <trkpt lat="44.12402" lon="3.21882">
        <ele>589</ele>
        <time>2015-12-06T12:41:59Z</time>
      </trkpt>
      <trkpt lat="44.12404" lon="3.21886">
        <ele>587</ele>
        <time>2015-12-06T12:42:00Z</time>
      </trkpt>
      <trkpt lat="44.12408" lon="3.219">
        <ele>587.5</ele>
        <time>2015-12-06T12:42:01Z</time>
      </trkpt>
      <trkpt lat="44.12413" lon="3.21904">
        <ele>587.5</ele>
        <time>2015-12-06T12:42:03Z</time>
      </trkpt>
      <trkpt lat="44.12414" lon="3.21907">
        <ele>588</ele>
        <time>2015-12-06T12:42:04Z</time>
      </trkpt>
      <trkpt lat="44.12416" lon="3.21911">
        <ele>589</ele>
        <time>2015-12-06T12:42:04Z</time>
      </trkpt>
      <trkpt lat="44.1242" lon="3.21915">
        <ele>588.5</ele>
        <time>2015-12-06T12:42:06Z</time>
      </trkpt>
      <trkpt lat="44.12421" lon="3.21919">
        <ele>588.5</ele>
        <time>2015-12-06T12:42:08Z</time>
      </trkpt>
      <trkpt lat="44.12422" lon="3.21928">
        <ele>589</ele>
        <time>2015-12-06T12:42:09Z</time>
      </trkpt>
      <trkpt lat="44.12423" lon="3.21933">
        <ele>588.5</ele>
        <time>2015-12-06T12:42:10Z</time>
      </trkpt>
      <trkpt lat="44.12423" lon="3.21938">
        <ele>588</ele>
        <time>2015-12-06T12:42:11Z</time>
      </trkpt>
      <trkpt lat="44.12425" lon="3.21967">
        <ele>585.5</ele>
        <time>2015-12-06T12:42:16Z</time>
      </trkpt>
      <trkpt lat="44.12429" lon="3.21974">
        <ele>585</ele>
        <time>2015-12-06T12:42:17Z</time>
      </trkpt>
      <trkpt lat="44.1243" lon="3.21983">
        <ele>585.5</ele>
        <time>2015-12-06T12:42:17Z</time>
      </trkpt>
      <trkpt lat="44.12432" lon="3.21994">
        <ele>586</ele>
        <time>2015-12-06T12:42:18Z</time>
      </trkpt>
      <trkpt lat="44.12432" lon="3.22002">
        <ele>585</ele>
        <time>2015-12-06T12:42:19Z</time>
      </trkpt>
      <trkpt lat="44.12433" lon="3.22008">
        <ele>582.5</ele>
        <time>2015-12-06T12:42:20Z</time>
      </trkpt>
      <trkpt lat="44.12435" lon="3.22013">
        <ele>582.5</ele>
        <time>2015-12-06T12:42:22Z</time>
      </trkpt>
      <trkpt lat="44.12438" lon="3.22017">
        <ele>582.5</ele>
        <time>2015-12-06T12:42:22Z</time>
      </trkpt>
      <trkpt lat="44.12441" lon="3.2202">
        <ele>581</ele>
        <time>2015-12-06T12:42:23Z</time>
      </trkpt>
      <trkpt lat="44.12444" lon="3.22022">
        <ele>579.5</ele>
        <time>2015-12-06T12:42:24Z</time>
      </trkpt>
      <trkpt lat="44.12447" lon="3.22023">
        <ele>577</ele>
        <time>2015-12-06T12:42:25Z</time>
      </trkpt>
      <trkpt lat="44.12451" lon="3.22023">
        <ele>577</ele>
        <time>2015-12-06T12:42:26Z</time>
      </trkpt>
      <trkpt lat="44.12453" lon="3.22025">
        <ele>577.5</ele>
        <time>2015-12-06T12:42:27Z</time>
      </trkpt>
      <trkpt lat="44.12455" lon="3.22025">
        <ele>576</ele>
        <time>2015-12-06T12:42:28Z</time>
      </trkpt>
      <trkpt lat="44.12458" lon="3.22026">
        <ele>574</ele>
        <time>2015-12-06T12:42:29Z</time>
      </trkpt>
      <trkpt lat="44.1246" lon="3.22029">
        <ele>574</ele>
        <time>2015-12-06T12:42:30Z</time>
      </trkpt>
      <trkpt lat="44.12458" lon="3.22033">
        <ele>573.5</ele>
        <time>2015-12-06T12:42:34Z</time>
      </trkpt>
      <trkpt lat="44.12455" lon="3.22035">
        <ele>573</ele>
        <time>2015-12-06T12:42:34Z</time>
      </trkpt>
      <trkpt lat="44.1245" lon="3.22062">
        <ele>573.5</ele>
        <time>2015-12-06T12:42:38Z</time>
      </trkpt>
      <trkpt lat="44.12451" lon="3.22066">
        <ele>573.5</ele>
        <time>2015-12-06T12:42:39Z</time>
      </trkpt>
      <trkpt lat="44.12455" lon="3.22074">
        <ele>574.5</ele>
        <time>2015-12-06T12:42:40Z</time>
      </trkpt>
      <trkpt lat="44.12457" lon="3.22075">
        <ele>575</ele>
        <time>2015-12-06T12:42:41Z</time>
      </trkpt>
      <trkpt lat="44.12467" lon="3.22076">
        <ele>576.5</ele>
        <time>2015-12-06T12:42:43Z</time>
      </trkpt>
      <trkpt lat="44.12467" lon="3.22078">
        <ele>576</ele>
        <time>2015-12-06T12:42:44Z</time>
      </trkpt>
      <trkpt lat="44.12466" lon="3.22083">
        <ele>576</ele>
        <time>2015-12-06T12:42:45Z</time>
      </trkpt>
      <trkpt lat="44.12469" lon="3.22081">
        <ele>574.5</ele>
        <time>2015-12-06T12:42:46Z</time>
      </trkpt>
      <trkpt lat="44.12469" lon="3.22082">
        <ele>574.5</ele>
        <time>2015-12-06T12:42:48Z</time>
      </trkpt>
      <trkpt lat="44.1247" lon="3.22081">
        <ele>575</ele>
        <time>2015-12-06T12:42:48Z</time>
      </trkpt>
      <trkpt lat="44.12471" lon="3.22081">
        <ele>575</ele>
        <time>2015-12-06T12:42:49Z</time>
      </trkpt>
      <trkpt lat="44.12472" lon="3.22083">
        <ele>575</ele>
        <time>2015-12-06T12:42:50Z</time>
      </trkpt>
      <trkpt lat="44.12473" lon="3.22086">
        <ele>574.5</ele>
        <time>2015-12-06T12:42:51Z</time>
      </trkpt>
      <trkpt lat="44.12476" lon="3.2209">
        <ele>572.5</ele>
        <time>2015-12-06T12:42:54Z</time>
      </trkpt>
      <trkpt lat="44.12472" lon="3.22094">
        <ele>570.5</ele>
        <time>2015-12-06T12:42:56Z</time>
      </trkpt>
      <trkpt lat="44.12471" lon="3.22096">
        <ele>570</ele>
        <time>2015-12-06T12:42:57Z</time>
      </trkpt>
      <trkpt lat="44.1247" lon="3.22095">
        <ele>570</ele>
        <time>2015-12-06T12:42:58Z</time>
      </trkpt>
      <trkpt lat="44.12469" lon="3.22095">
        <ele>571</ele>
        <time>2015-12-06T12:42:58Z</time>
      </trkpt>
      <trkpt lat="44.12468" lon="3.22097">
        <ele>571</ele>
        <time>2015-12-06T12:42:59Z</time>
      </trkpt>
      <trkpt lat="44.12466" lon="3.22097">
        <ele>570.5</ele>
        <time>2015-12-06T12:43:00Z</time>
      </trkpt>
      <trkpt lat="44.12464" lon="3.22098">
        <ele>571</ele>
        <time>2015-12-06T12:43:01Z</time>
      </trkpt>
      <trkpt lat="44.12464" lon="3.221">
        <ele>571.5</ele>
        <time>2015-12-06T12:43:03Z</time>
      </trkpt>
      <trkpt lat="44.12465" lon="3.22107">
        <ele>573</ele>
        <time>2015-12-06T12:43:05Z</time>
      </trkpt>
      <trkpt lat="44.12464" lon="3.22111">
        <ele>572.5</ele>
        <time>2015-12-06T12:43:06Z</time>
      </trkpt>
      <trkpt lat="44.12464" lon="3.22114">
        <ele>571.5</ele>
        <time>2015-12-06T12:43:08Z</time>
      </trkpt>
      <trkpt lat="44.12462" lon="3.22118">
        <ele>571.5</ele>
        <time>2015-12-06T12:43:09Z</time>
      </trkpt>
      <trkpt lat="44.12461" lon="3.2212">
        <ele>571</ele>
        <time>2015-12-06T12:43:09Z</time>
      </trkpt>
      <trkpt lat="44.12459" lon="3.22123">
        <ele>571.5</ele>
        <time>2015-12-06T12:43:10Z</time>
      </trkpt>
      <trkpt lat="44.12456" lon="3.22127">
        <ele>571.5</ele>
        <time>2015-12-06T12:43:11Z</time>
      </trkpt>
      <trkpt lat="44.12454" lon="3.2213">
        <ele>571.5</ele>
        <time>2015-12-06T12:43:12Z</time>
      </trkpt>
      <trkpt lat="44.12452" lon="3.22133">
        <ele>569.5</ele>
        <time>2015-12-06T12:43:13Z</time>
      </trkpt>
      <trkpt lat="44.12445" lon="3.22139">
        <ele>568.5</ele>
        <time>2015-12-06T12:43:54Z</time>
      </trkpt>
      <trkpt lat="44.1244" lon="3.22149">
        <ele>573</ele>
        <time>2015-12-06T12:44:19Z</time>
      </trkpt>
      <trkpt lat="44.12441" lon="3.22174">
        <ele>575</ele>
        <time>2015-12-06T12:44:23Z</time>
      </trkpt>
      <trkpt lat="44.12443" lon="3.22179">
        <ele>576</ele>
        <time>2015-12-06T12:44:24Z</time>
      </trkpt>
      <trkpt lat="44.12443" lon="3.22187">
        <ele>575.5</ele>
        <time>2015-12-06T12:44:24Z</time>
      </trkpt>
      <trkpt lat="44.12439" lon="3.2221">
        <ele>576</ele>
        <time>2015-12-06T12:44:27Z</time>
      </trkpt>
      <trkpt lat="44.1244" lon="3.22215">
        <ele>575.5</ele>
        <time>2015-12-06T12:44:28Z</time>
      </trkpt>
      <trkpt lat="44.12448" lon="3.22223">
        <ele>575.5</ele>
        <time>2015-12-06T12:44:31Z</time>
      </trkpt>
      <trkpt lat="44.12451" lon="3.22226">
        <ele>574.5</ele>
        <time>2015-12-06T12:44:32Z</time>
      </trkpt>
      <trkpt lat="44.12453" lon="3.22231">
        <ele>573.5</ele>
        <time>2015-12-06T12:44:32Z</time>
      </trkpt>
      <trkpt lat="44.12457" lon="3.22236">
        <ele>571.5</ele>
        <time>2015-12-06T12:44:33Z</time>
      </trkpt>
      <trkpt lat="44.12464" lon="3.22237">
        <ele>566.5</ele>
        <time>2015-12-06T12:44:38Z</time>
      </trkpt>
      <trkpt lat="44.12471" lon="3.22244">
        <ele>565.5</ele>
        <time>2015-12-06T12:44:42Z</time>
      </trkpt>
      <trkpt lat="44.12472" lon="3.22232">
        <ele>562</ele>
        <time>2015-12-06T12:44:48Z</time>
      </trkpt>
      <trkpt lat="44.12472" lon="3.22244">
        <ele>562.5</ele>
        <time>2015-12-06T12:45:01Z</time>
      </trkpt>
      <trkpt lat="44.12479" lon="3.22244">
        <ele>569</ele>
        <time>2015-12-06T12:45:11Z</time>
      </trkpt>
      <trkpt lat="44.12476" lon="3.2225">
        <ele>569.5</ele>
        <time>2015-12-06T12:45:13Z</time>
      </trkpt>
      <trkpt lat="44.12476" lon="3.22253">
        <ele>569</ele>
        <time>2015-12-06T12:45:14Z</time>
      </trkpt>
      <trkpt lat="44.12474" lon="3.22255">
        <ele>569</ele>
        <time>2015-12-06T12:45:16Z</time>
      </trkpt>
      <trkpt lat="44.12472" lon="3.22259">
        <ele>569</ele>
        <time>2015-12-06T12:45:17Z</time>
      </trkpt>
      <trkpt lat="44.12469" lon="3.22262">
        <ele>570.5</ele>
        <time>2015-12-06T12:45:17Z</time>
      </trkpt>
      <trkpt lat="44.12468" lon="3.22272">
        <ele>572.5</ele>
        <time>2015-12-06T12:45:21Z</time>
      </trkpt>
      <trkpt lat="44.12471" lon="3.2228">
        <ele>578</ele>
        <time>2015-12-06T12:45:24Z</time>
      </trkpt>
      <trkpt lat="44.12458" lon="3.2229">
        <ele>579</ele>
        <time>2015-12-06T12:45:33Z</time>
      </trkpt>
      <trkpt lat="44.12454" lon="3.2229">
        <ele>579</ele>
        <time>2015-12-06T12:45:33Z</time>
      </trkpt>
      <trkpt lat="44.12436" lon="3.22284">
        <ele>575</ele>
        <time>2015-12-06T12:45:38Z</time>
      </trkpt>
      <trkpt lat="44.12433" lon="3.2228">
        <ele>574</ele>
        <time>2015-12-06T12:45:39Z</time>
      </trkpt>
      <trkpt lat="44.12423" lon="3.22266">
        <ele>571</ele>
        <time>2015-12-06T12:45:42Z</time>
      </trkpt>
      <trkpt lat="44.1242" lon="3.22262">
        <ele>568</ele>
        <time>2015-12-06T12:45:43Z</time>
      </trkpt>
      <trkpt lat="44.12417" lon="3.22259">
        <ele>565.5</ele>
        <time>2015-12-06T12:45:43Z</time>
      </trkpt>
      <trkpt lat="44.12413" lon="3.22255">
        <ele>564.5</ele>
        <time>2015-12-06T12:45:44Z</time>
      </trkpt>
      <trkpt lat="44.12393" lon="3.22231">
        <ele>555.5</ele>
        <time>2015-12-06T12:45:47Z</time>
      </trkpt>
      <trkpt lat="44.12389" lon="3.22228">
        <ele>554</ele>
        <time>2015-12-06T12:45:48Z</time>
      </trkpt>
      <trkpt lat="44.12385" lon="3.22224">
        <ele>552.5</ele>
        <time>2015-12-06T12:45:49Z</time>
      </trkpt>
      <trkpt lat="44.1238" lon="3.22211">
        <ele>551.5</ele>
        <time>2015-12-06T12:45:51Z</time>
      </trkpt>
      <trkpt lat="44.12377" lon="3.22205">
        <ele>550.5</ele>
        <time>2015-12-06T12:45:52Z</time>
      </trkpt>
      <trkpt lat="44.12366" lon="3.22199">
        <ele>550</ele>
        <time>2015-12-06T12:45:56Z</time>
      </trkpt>
      <trkpt lat="44.12363" lon="3.222">
        <ele>550.5</ele>
        <time>2015-12-06T12:45:56Z</time>
      </trkpt>
      <trkpt lat="44.1236" lon="3.22201">
        <ele>552.5</ele>
        <time>2015-12-06T12:45:57Z</time>
      </trkpt>
      <trkpt lat="44.12352" lon="3.22201">
        <ele>558.5</ele>
        <time>2015-12-06T12:46:01Z</time>
      </trkpt>
      <trkpt lat="44.1235" lon="3.22202">
        <ele>560</ele>
        <time>2015-12-06T12:46:02Z</time>
      </trkpt>
      <trkpt lat="44.12349" lon="3.22202">
        <ele>564.5</ele>
        <time>2015-12-06T12:46:03Z</time>
      </trkpt>
      <trkpt lat="44.1235" lon="3.22201">
        <ele>572.5</ele>
        <time>2015-12-06T12:46:05Z</time>
      </trkpt>
      <trkpt lat="44.12331" lon="3.22197">
        <ele>577.5</ele>
        <time>2015-12-06T12:46:14Z</time>
      </trkpt>
      <trkpt lat="44.12326" lon="3.22194">
        <ele>583</ele>
        <time>2015-12-06T12:46:17Z</time>
      </trkpt>
      <trkpt lat="44.12327" lon="3.22192">
        <ele>585.5</ele>
        <time>2015-12-06T12:46:17Z</time>
      </trkpt>
      <trkpt lat="44.12357" lon="3.22123">
        <ele>585</ele>
        <time>2015-12-06T12:46:32Z</time>
      </trkpt>
      <trkpt lat="44.12502" lon="3.22015">
        <ele>584.5</ele>
        <time>2015-12-06T12:46:38Z</time>
      </trkpt>
      <trkpt lat="44.12566" lon="3.21947">
        <ele>589</ele>
        <time>2015-12-06T12:46:44Z</time>
      </trkpt>
      <trkpt lat="44.12569" lon="3.21933">
        <ele>591</ele>
        <time>2015-12-06T12:46:45Z</time>
      </trkpt>
      <trkpt lat="44.12573" lon="3.21923">
        <ele>592.5</ele>
        <time>2015-12-06T12:46:47Z</time>
      </trkpt>
      <trkpt lat="44.12579" lon="3.21911">
        <ele>594.5</ele>
        <time>2015-12-06T12:46:49Z</time>
      </trkpt>
      <trkpt lat="44.1258" lon="3.21906">
        <ele>595</ele>
        <time>2015-12-06T12:46:50Z</time>
      </trkpt>
      <trkpt lat="44.12581" lon="3.21901">
        <ele>595.5</ele>
        <time>2015-12-06T12:46:51Z</time>
      </trkpt>
      <trkpt lat="44.12582" lon="3.21896">
        <ele>596</ele>
        <time>2015-12-06T12:46:52Z</time>
      </trkpt>
      <trkpt lat="44.12589" lon="3.21884">
        <ele>598</ele>
        <time>2015-12-06T12:46:54Z</time>
      </trkpt>
      <trkpt lat="44.12589" lon="3.21882">
        <ele>599</ele>
        <time>2015-12-06T12:46:55Z</time>
      </trkpt>
      <trkpt lat="44.12587" lon="3.2188">
        <ele>599.5</ele>
        <time>2015-12-06T12:46:56Z</time>
      </trkpt>
      <trkpt lat="44.12586" lon="3.21878">
        <ele>599.5</ele>
        <time>2015-12-06T12:46:57Z</time>
      </trkpt>
      <trkpt lat="44.12585" lon="3.21877">
        <ele>600</ele>
        <time>2015-12-06T12:46:58Z</time>
      </trkpt>
      <trkpt lat="44.12585" lon="3.21875">
        <ele>600</ele>
        <time>2015-12-06T12:47:00Z</time>
      </trkpt>
      <trkpt lat="44.12412" lon="3.21911">
        <ele>588.5</ele>
        <time>2015-12-06T12:47:24Z</time>
      </trkpt>
      <trkpt lat="44.12363" lon="3.21913">
        <ele>581.5</ele>
        <time>2015-12-06T12:47:31Z</time>
      </trkpt>
      <trkpt lat="44.12279" lon="3.21943">
        <ele>575</ele>
        <time>2015-12-06T12:47:37Z</time>
      </trkpt>
      <trkpt lat="44.12262" lon="3.21932">
        <ele>571</ele>
        <time>2015-12-06T12:47:42Z</time>
      </trkpt>
      <trkpt lat="44.12246" lon="3.21917">
        <ele>568.5</ele>
        <time>2015-12-06T12:47:50Z</time>
      </trkpt>
      <trkpt lat="44.12218" lon="3.21909">
        <ele>562</ele>
        <time>2015-12-06T12:47:55Z</time>
      </trkpt>
      <trkpt lat="44.12204" lon="3.21901">
        <ele>560.5</ele>
        <time>2015-12-06T12:48:01Z</time>
      </trkpt>
      <trkpt lat="44.12176" lon="3.21887">
        <ele>552.5</ele>
        <time>2015-12-06T12:48:12Z</time>
      </trkpt>
      <trkpt lat="44.12137" lon="3.21868">
        <ele>550.5</ele>
        <time>2015-12-06T12:48:33Z</time>
      </trkpt>
      <trkpt lat="44.12126" lon="3.21855">
        <ele>554</ele>
        <time>2015-12-06T12:48:36Z</time>
      </trkpt>
      <trkpt lat="44.12097" lon="3.21845">
        <ele>557</ele>
        <time>2015-12-06T12:48:42Z</time>
      </trkpt>
      <trkpt lat="44.12078" lon="3.21841">
        <ele>559.5</ele>
        <time>2015-12-06T12:48:45Z</time>
      </trkpt>
      <trkpt lat="44.12061" lon="3.21848">
        <ele>562.5</ele>
        <time>2015-12-06T12:49:00Z</time>
      </trkpt>
      <trkpt lat="44.12061" lon="3.21852">
        <ele>561.5</ele>
        <time>2015-12-06T12:49:01Z</time>
      </trkpt>
      <trkpt lat="44.12061" lon="3.21849">
        <ele>556.5</ele>
        <time>2015-12-06T12:49:03Z</time>
      </trkpt>
      <trkpt lat="44.1205" lon="3.21862">
        <ele>556</ele>
        <time>2015-12-06T12:49:08Z</time>
      </trkpt>
      <trkpt lat="44.12043" lon="3.21867">
        <ele>555</ele>
        <time>2015-12-06T12:49:09Z</time>
      </trkpt>
      <trkpt lat="44.12041" lon="3.21866">
        <ele>552</ele>
        <time>2015-12-06T12:49:11Z</time>
      </trkpt>
      <trkpt lat="44.1204" lon="3.21866">
        <ele>547.5</ele>
        <time>2015-12-06T12:49:11Z</time>
      </trkpt>
      <trkpt lat="44.1204" lon="3.21866">
        <ele>543</ele>
        <time>2015-12-06T12:49:12Z</time>
      </trkpt>
      <trkpt lat="44.12038" lon="3.21867">
        <ele>545.5</ele>
        <time>2015-12-06T12:49:14Z</time>
      </trkpt>
      <trkpt lat="44.12038" lon="3.21866">
        <ele>544</ele>
        <time>2015-12-06T12:49:15Z</time>
      </trkpt>
      <trkpt lat="44.12034" lon="3.21866">
        <ele>541.5</ele>
        <time>2015-12-06T12:49:17Z</time>
      </trkpt>
      <trkpt lat="44.12033" lon="3.21865">
        <ele>542.5</ele>
        <time>2015-12-06T12:49:19Z</time>
      </trkpt>
      <trkpt lat="44.12032" lon="3.21864">
        <ele>544</ele>
        <time>2015-12-06T12:49:19Z</time>
      </trkpt>
      <trkpt lat="44.12031" lon="3.21862">
        <ele>544.5</ele>
        <time>2015-12-06T12:49:20Z</time>
      </trkpt>
      <trkpt lat="44.12023" lon="3.21853">
        <ele>540.5</ele>
        <time>2015-12-06T12:49:26Z</time>
      </trkpt>
      <trkpt lat="44.12024" lon="3.21852">
        <ele>538.5</ele>
        <time>2015-12-06T12:49:27Z</time>
      </trkpt>
      <trkpt lat="44.12024" lon="3.21847">
        <ele>535.5</ele>
        <time>2015-12-06T12:49:29Z</time>
      </trkpt>
      <trkpt lat="44.12026" lon="3.21842">
        <ele>534.5</ele>
        <time>2015-12-06T12:49:30Z</time>
      </trkpt>
      <trkpt lat="44.12028" lon="3.21842">
        <ele>534</ele>
        <time>2015-12-06T12:49:31Z</time>
      </trkpt>
      <trkpt lat="44.12035" lon="3.21835">
        <ele>537</ele>
        <time>2015-12-06T12:49:34Z</time>
      </trkpt>
      <trkpt lat="44.12037" lon="3.21833">
        <ele>536.5</ele>
        <time>2015-12-06T12:49:35Z</time>
      </trkpt>
      <trkpt lat="44.12039" lon="3.21831">
        <ele>535</ele>
        <time>2015-12-06T12:49:36Z</time>
      </trkpt>
      <trkpt lat="44.12041" lon="3.2183">
        <ele>533</ele>
        <time>2015-12-06T12:49:37Z</time>
      </trkpt>
      <trkpt lat="44.12042" lon="3.21827">
        <ele>532</ele>
        <time>2015-12-06T12:49:38Z</time>
      </trkpt>
      <trkpt lat="44.12046" lon="3.21824">
        <ele>531.5</ele>
        <time>2015-12-06T12:49:40Z</time>
      </trkpt>
      <trkpt lat="44.12049" lon="3.21823">
        <ele>530.5</ele>
        <time>2015-12-06T12:49:41Z</time>
      </trkpt>
      <trkpt lat="44.12049" lon="3.21819">
        <ele>529.5</ele>
        <time>2015-12-06T12:49:41Z</time>
      </trkpt>
      <trkpt lat="44.1205" lon="3.21815">
        <ele>528</ele>
        <time>2015-12-06T12:49:42Z</time>
      </trkpt>
      <trkpt lat="44.12051" lon="3.21809">
        <ele>526.5</ele>
        <time>2015-12-06T12:49:44Z</time>
      </trkpt>
      <trkpt lat="44.12047" lon="3.218">
        <ele>521.5</ele>
        <time>2015-12-06T12:49:46Z</time>
      </trkpt>
      <trkpt lat="44.12021" lon="3.21769">
        <ele>508.5</ele>
        <time>2015-12-06T12:49:55Z</time>
      </trkpt>
      <trkpt lat="44.11997" lon="3.21762">
        <ele>509</ele>
        <time>2015-12-06T12:50:08Z</time>
      </trkpt>
      <trkpt lat="44.12008" lon="3.21748">
        <ele>507.5</ele>
        <time>2015-12-06T12:50:19Z</time>
      </trkpt>
      <trkpt lat="44.11948" lon="3.2165">
        <ele>515</ele>
        <time>2015-12-06T12:50:28Z</time>
      </trkpt>
      <trkpt lat="44.11939" lon="3.21637">
        <ele>516.5</ele>
        <time>2015-12-06T12:50:33Z</time>
      </trkpt>
      <trkpt lat="44.11936" lon="3.21639">
        <ele>522</ele>
        <time>2015-12-06T12:50:34Z</time>
      </trkpt>
      <trkpt lat="44.11932" lon="3.21639">
        <ele>522</ele>
        <time>2015-12-06T12:50:38Z</time>
      </trkpt>
      <trkpt lat="44.1193" lon="3.21633">
        <ele>523.5</ele>
        <time>2015-12-06T12:50:43Z</time>
      </trkpt>
      <trkpt lat="44.11923" lon="3.21623">
        <ele>528.5</ele>
        <time>2015-12-06T12:50:50Z</time>
      </trkpt>
      <trkpt lat="44.11921" lon="3.21622">
        <ele>533.5</ele>
        <time>2015-12-06T12:50:50Z</time>
      </trkpt>
      <trkpt lat="44.11916" lon="3.21624">
        <ele>548.5</ele>
        <time>2015-12-06T12:50:53Z</time>
      </trkpt>
      <trkpt lat="44.11905" lon="3.21633">
        <ele>552</ele>
        <time>2015-12-06T12:50:57Z</time>
      </trkpt>
      <trkpt lat="44.11904" lon="3.21631">
        <ele>553.5</ele>
        <time>2015-12-06T12:50:58Z</time>
      </trkpt>
      <trkpt lat="44.11899" lon="3.21624">
        <ele>555</ele>
        <time>2015-12-06T12:51:02Z</time>
      </trkpt>
      <trkpt lat="44.11897" lon="3.21623">
        <ele>555.5</ele>
        <time>2015-12-06T12:51:03Z</time>
      </trkpt>
      <trkpt lat="44.1189" lon="3.21609">
        <ele>564</ele>
        <time>2015-12-06T12:51:11Z</time>
      </trkpt>
      <trkpt lat="44.11888" lon="3.21604">
        <ele>566</ele>
        <time>2015-12-06T12:51:14Z</time>
      </trkpt>
      <trkpt lat="44.11888" lon="3.2159">
        <ele>569.5</ele>
        <time>2015-12-06T12:51:19Z</time>
      </trkpt>
      <trkpt lat="44.11888" lon="3.21587">
        <ele>571</ele>
        <time>2015-12-06T12:51:20Z</time>
      </trkpt>
      <trkpt lat="44.1189" lon="3.21583">
        <ele>574.5</ele>
        <time>2015-12-06T12:51:21Z</time>
      </trkpt>
      <trkpt lat="44.11893" lon="3.21576">
        <ele>577.5</ele>
        <time>2015-12-06T12:51:24Z</time>
      </trkpt>
      <trkpt lat="44.1191" lon="3.21563">
        <ele>580.5</ele>
        <time>2015-12-06T12:51:27Z</time>
      </trkpt>
      <trkpt lat="44.11889" lon="3.21525">
        <ele>594</ele>
        <time>2015-12-06T12:51:48Z</time>
      </trkpt>
      <trkpt lat="44.11886" lon="3.21524">
        <ele>594.5</ele>
        <time>2015-12-06T12:51:49Z</time>
      </trkpt>
      <trkpt lat="44.11886" lon="3.21522">
        <ele>594.5</ele>
        <time>2015-12-06T12:51:49Z</time>
      </trkpt>
      <trkpt lat="44.11854" lon="3.21478">
        <ele>589</ele>
        <time>2015-12-06T12:52:06Z</time>
      </trkpt>
      <trkpt lat="44.11856" lon="3.21453">
        <ele>583.5</ele>
        <time>2015-12-06T12:52:10Z</time>
      </trkpt>
      <trkpt lat="44.11856" lon="3.2143">
        <ele>576</ele>
        <time>2015-12-06T12:52:16Z</time>
      </trkpt>
      <trkpt lat="44.11854" lon="3.21418">
        <ele>564.5</ele>
        <time>2015-12-06T12:52:18Z</time>
      </trkpt>
      <trkpt lat="44.11856" lon="3.21419">
        <ele>567</ele>
        <time>2015-12-06T12:52:19Z</time>
      </trkpt>
      <trkpt lat="44.11853" lon="3.21422">
        <ele>572</ele>
        <time>2015-12-06T12:52:26Z</time>
      </trkpt>
      <trkpt lat="44.11856" lon="3.21413">
        <ele>575.5</ele>
        <time>2015-12-06T12:52:30Z</time>
      </trkpt>
      <trkpt lat="44.11864" lon="3.21397">
        <ele>579</ele>
        <time>2015-12-06T12:52:34Z</time>
      </trkpt>
      <trkpt lat="44.11867" lon="3.21384">
        <ele>579</ele>
        <time>2015-12-06T12:52:39Z</time>
      </trkpt>
      <trkpt lat="44.11872" lon="3.21367">
        <ele>579</ele>
        <time>2015-12-06T12:52:47Z</time>
      </trkpt>
      <trkpt lat="44.11881" lon="3.21351">
        <ele>572</ele>
        <time>2015-12-06T12:52:50Z</time>
      </trkpt>
      <trkpt lat="44.11888" lon="3.21331">
        <ele>564</ele>
        <time>2015-12-06T12:52:52Z</time>
      </trkpt>
      <trkpt lat="44.11892" lon="3.21324">
        <ele>561.5</ele>
        <time>2015-12-06T12:52:54Z</time>
      </trkpt>
      <trkpt lat="44.11895" lon="3.21323">
        <ele>561.5</ele>
        <time>2015-12-06T12:52:55Z</time>
      </trkpt>
      <trkpt lat="44.11895" lon="3.21319">
        <ele>559</ele>
        <time>2015-12-06T12:52:56Z</time>
      </trkpt>
      <trkpt lat="44.11895" lon="3.21314">
        <ele>556.5</ele>
        <time>2015-12-06T12:52:57Z</time>
      </trkpt>
      <trkpt lat="44.11895" lon="3.21311">
        <ele>555</ele>
        <time>2015-12-06T12:52:58Z</time>
      </trkpt>
      <trkpt lat="44.11874" lon="3.21324">
        <ele>564.5</ele>
        <time>2015-12-06T12:53:16Z</time>
      </trkpt>
      <trkpt lat="44.11863" lon="3.21366">
        <ele>592.5</ele>
        <time>2015-12-06T12:53:42Z</time>
      </trkpt>
      <trkpt lat="44.11865" lon="3.21374">
        <ele>600</ele>
        <time>2015-12-06T12:53:46Z</time>
      </trkpt>
      <trkpt lat="44.1186" lon="3.21379">
        <ele>600.5</ele>
        <time>2015-12-06T12:53:48Z</time>
      </trkpt>
      <trkpt lat="44.1186" lon="3.21383">
        <ele>605</ele>
        <time>2015-12-06T12:53:49Z</time>
      </trkpt>
      <trkpt lat="44.11852" lon="3.21406">
        <ele>614.5</ele>
        <time>2015-12-06T12:53:59Z</time>
      </trkpt>
      <trkpt lat="44.11845" lon="3.21419">
        <ele>624</ele>
        <time>2015-12-06T12:54:09Z</time>
      </trkpt>
      <trkpt lat="44.1184" lon="3.21434">
        <ele>638</ele>
        <time>2015-12-06T12:54:14Z</time>
      </trkpt>
      <trkpt lat="44.11834" lon="3.21453">
        <ele>644.5</ele>
        <time>2015-12-06T12:54:22Z</time>
      </trkpt>
      <trkpt lat="44.11834" lon="3.21458">
        <ele>647.5</ele>
        <time>2015-12-06T12:54:22Z</time>
      </trkpt>
      <trkpt lat="44.11834" lon="3.21464">
        <ele>651.5</ele>
        <time>2015-12-06T12:54:22Z</time>
      </trkpt>
      <trkpt lat="44.11834" lon="3.2147">
        <ele>653.5</ele>
        <time>2015-12-06T12:54:24Z</time>
      </trkpt>
      <trkpt lat="44.11834" lon="3.21474">
        <ele>654.5</ele>
        <time>2015-12-06T12:54:25Z</time>
      </trkpt>
      <trkpt lat="44.11833" lon="3.21484">
        <ele>652</ele>
        <time>2015-12-06T12:54:29Z</time>
      </trkpt>
      <trkpt lat="44.11835" lon="3.21493">
        <ele>654</ele>
        <time>2015-12-06T12:54:32Z</time>
      </trkpt>
      <trkpt lat="44.11835" lon="3.21493">
        <ele>652.5</ele>
        <time>2015-12-06T12:54:33Z</time>
      </trkpt>
      <trkpt lat="44.11834" lon="3.21496">
        <ele>652.5</ele>
        <time>2015-12-06T12:54:33Z</time>
      </trkpt>
      <trkpt lat="44.11832" lon="3.21498">
        <ele>652.5</ele>
        <time>2015-12-06T12:54:34Z</time>
      </trkpt>
      <trkpt lat="44.11832" lon="3.21502">
        <ele>653</ele>
        <time>2015-12-06T12:54:37Z</time>
      </trkpt>
      <trkpt lat="44.11831" lon="3.21503">
        <ele>654</ele>
        <time>2015-12-06T12:54:38Z</time>
      </trkpt>
      <trkpt lat="44.11831" lon="3.21505">
        <ele>653</ele>
        <time>2015-12-06T12:54:38Z</time>
      </trkpt>
      <trkpt lat="44.11831" lon="3.21507">
        <ele>653</ele>
        <time>2015-12-06T12:54:39Z</time>
      </trkpt>
      <trkpt lat="44.11831" lon="3.2151">
        <ele>653.5</ele>
        <time>2015-12-06T12:54:40Z</time>
      </trkpt>
      <trkpt lat="44.11831" lon="3.21513">
        <ele>653</ele>
        <time>2015-12-06T12:54:41Z</time>
      </trkpt>
      <trkpt lat="44.11831" lon="3.21521">
        <ele>653</ele>
        <time>2015-12-06T12:54:46Z</time>
      </trkpt>
      <trkpt lat="44.1183" lon="3.21524">
        <ele>652.5</ele>
        <time>2015-12-06T12:54:47Z</time>
      </trkpt>
      <trkpt lat="44.1183" lon="3.21528">
        <ele>653.5</ele>
        <time>2015-12-06T12:54:47Z</time>
      </trkpt>
      <trkpt lat="44.11829" lon="3.21532">
        <ele>654</ele>
        <time>2015-12-06T12:54:48Z</time>
      </trkpt>
      <trkpt lat="44.11828" lon="3.21535">
        <ele>655</ele>
        <time>2015-12-06T12:54:49Z</time>
      </trkpt>
      <trkpt lat="44.11827" lon="3.21537">
        <ele>654.5</ele>
        <time>2015-12-06T12:54:50Z</time>
      </trkpt>
      <trkpt lat="44.11826" lon="3.21539">
        <ele>654</ele>
        <time>2015-12-06T12:54:51Z</time>
      </trkpt>
      <trkpt lat="44.11824" lon="3.2154">
        <ele>653.5</ele>
        <time>2015-12-06T12:54:52Z</time>
      </trkpt>
      <trkpt lat="44.11823" lon="3.21541">
        <ele>653</ele>
        <time>2015-12-06T12:54:53Z</time>
      </trkpt>
      <trkpt lat="44.11822" lon="3.21542">
        <ele>653</ele>
        <time>2015-12-06T12:54:54Z</time>
      </trkpt>
      <trkpt lat="44.11822" lon="3.21544">
        <ele>653.5</ele>
        <time>2015-12-06T12:54:55Z</time>
      </trkpt>
      <trkpt lat="44.11823" lon="3.21548">
        <ele>656</ele>
        <time>2015-12-06T12:54:56Z</time>
      </trkpt>
      <trkpt lat="44.1182" lon="3.21559">
        <ele>654.5</ele>
        <time>2015-12-06T12:55:02Z</time>
      </trkpt>
      <trkpt lat="44.1182" lon="3.21561">
        <ele>654.5</ele>
        <time>2015-12-06T12:55:03Z</time>
      </trkpt>
      <trkpt lat="44.11819" lon="3.21562">
        <ele>654.5</ele>
        <time>2015-12-06T12:55:03Z</time>
      </trkpt>
      <trkpt lat="44.11822" lon="3.21569">
        <ele>657</ele>
        <time>2015-12-06T12:55:07Z</time>
      </trkpt>
      <trkpt lat="44.11823" lon="3.21572">
        <ele>657.5</ele>
        <time>2015-12-06T12:55:08Z</time>
      </trkpt>
      <trkpt lat="44.11824" lon="3.21575">
        <ele>658</ele>
        <time>2015-12-06T12:55:08Z</time>
      </trkpt>
      <trkpt lat="44.11826" lon="3.21579">
        <ele>657</ele>
        <time>2015-12-06T12:55:10Z</time>
      </trkpt>
      <trkpt lat="44.11826" lon="3.21581">
        <ele>656.5</ele>
        <time>2015-12-06T12:55:11Z</time>
      </trkpt>
      <trkpt lat="44.11826" lon="3.21586">
        <ele>655.5</ele>
        <time>2015-12-06T12:55:12Z</time>
      </trkpt>
      <trkpt lat="44.11826" lon="3.21588">
        <ele>655</ele>
        <time>2015-12-06T12:55:13Z</time>
      </trkpt>
      <trkpt lat="44.11826" lon="3.2159">
        <ele>655</ele>
        <time>2015-12-06T12:55:14Z</time>
      </trkpt>
      <trkpt lat="44.11827" lon="3.216">
        <ele>657</ele>
        <time>2015-12-06T12:55:19Z</time>
      </trkpt>
      <trkpt lat="44.11827" lon="3.21603">
        <ele>657</ele>
        <time>2015-12-06T12:55:20Z</time>
      </trkpt>
      <trkpt lat="44.11828" lon="3.21605">
        <ele>656.5</ele>
        <time>2015-12-06T12:55:20Z</time>
      </trkpt>
      <trkpt lat="44.11829" lon="3.21608">
        <ele>656.5</ele>
        <time>2015-12-06T12:55:21Z</time>
      </trkpt>
      <trkpt lat="44.1183" lon="3.21611">
        <ele>656</ele>
        <time>2015-12-06T12:55:22Z</time>
      </trkpt>
      <trkpt lat="44.11832" lon="3.21627">
        <ele>652</ele>
        <time>2015-12-06T12:55:30Z</time>
      </trkpt>
      <trkpt lat="44.11832" lon="3.21629">
        <ele>652</ele>
        <time>2015-12-06T12:55:31Z</time>
      </trkpt>
      <trkpt lat="44.11834" lon="3.21632">
        <ele>650.5</ele>
        <time>2015-12-06T12:55:31Z</time>
      </trkpt>
      <trkpt lat="44.11834" lon="3.21634">
        <ele>650.5</ele>
        <time>2015-12-06T12:55:32Z</time>
      </trkpt>
      <trkpt lat="44.11834" lon="3.21635">
        <ele>650.5</ele>
        <time>2015-12-06T12:55:33Z</time>
      </trkpt>
      <trkpt lat="44.11835" lon="3.21638">
        <ele>650.5</ele>
        <time>2015-12-06T12:55:34Z</time>
      </trkpt>
      <trkpt lat="44.11838" lon="3.2165">
        <ele>651.5</ele>
        <time>2015-12-06T12:55:41Z</time>
      </trkpt>
      <trkpt lat="44.11841" lon="3.21659">
        <ele>650.5</ele>
        <time>2015-12-06T12:55:44Z</time>
      </trkpt>
      <trkpt lat="44.11845" lon="3.21683">
        <ele>651.5</ele>
        <time>2015-12-06T12:55:55Z</time>
      </trkpt>
      <trkpt lat="44.11845" lon="3.21686">
        <ele>651.5</ele>
        <time>2015-12-06T12:55:56Z</time>
      </trkpt>
      <trkpt lat="44.11843" lon="3.21712">
        <ele>652.5</ele>
        <time>2015-12-06T12:56:06Z</time>
      </trkpt>
      <trkpt lat="44.11844" lon="3.21716">
        <ele>654</ele>
        <time>2015-12-06T12:56:07Z</time>
      </trkpt>
      <trkpt lat="44.11846" lon="3.21728">
        <ele>660.5</ele>
        <time>2015-12-06T12:56:10Z</time>
      </trkpt>
      <trkpt lat="44.11846" lon="3.21732">
        <ele>661.5</ele>
        <time>2015-12-06T12:56:10Z</time>
      </trkpt>
      <trkpt lat="44.11846" lon="3.21735">
        <ele>662</ele>
        <time>2015-12-06T12:56:11Z</time>
      </trkpt>
      <trkpt lat="44.11834" lon="3.21765">
        <ele>662</ele>
        <time>2015-12-06T12:56:25Z</time>
      </trkpt>
      <trkpt lat="44.11834" lon="3.21785">
        <ele>663</ele>
        <time>2015-12-06T12:56:32Z</time>
      </trkpt>
      <trkpt lat="44.11834" lon="3.21784">
        <ele>663</ele>
        <time>2015-12-06T12:56:33Z</time>
      </trkpt>
      <trkpt lat="44.11836" lon="3.21789">
        <ele>652.5</ele>
        <time>2015-12-06T12:56:38Z</time>
      </trkpt>
      <trkpt lat="44.11836" lon="3.21791">
        <ele>651.5</ele>
        <time>2015-12-06T12:56:39Z</time>
      </trkpt>
      <trkpt lat="44.11836" lon="3.21793">
        <ele>652</ele>
        <time>2015-12-06T12:56:39Z</time>
      </trkpt>
      <trkpt lat="44.1179" lon="3.21928">
        <ele>655.5</ele>
        <time>2015-12-06T12:57:36Z</time>
      </trkpt>
      <trkpt lat="44.11793" lon="3.21958">
        <ele>652</ele>
        <time>2015-12-06T12:57:45Z</time>
      </trkpt>
      <trkpt lat="44.118" lon="3.22102">
        <ele>655</ele>
        <time>2015-12-06T12:59:05Z</time>
      </trkpt>
      <trkpt lat="44.11801" lon="3.22099">
        <ele>655</ele>
        <time>2015-12-06T12:59:05Z</time>
      </trkpt>
      <trkpt lat="44.11804" lon="3.22097">
        <ele>651.5</ele>
        <time>2015-12-06T12:59:06Z</time>
      </trkpt>
      <trkpt lat="44.11805" lon="3.22096">
        <ele>648</ele>
        <time>2015-12-06T12:59:07Z</time>
      </trkpt>
      <trkpt lat="44.11806" lon="3.22095">
        <ele>647.5</ele>
        <time>2015-12-06T12:59:08Z</time>
      </trkpt>
      <trkpt lat="44.11808" lon="3.22094">
        <ele>646.5</ele>
        <time>2015-12-06T12:59:09Z</time>
      </trkpt>
      <trkpt lat="44.11812" lon="3.22088">
        <ele>639.5</ele>
        <time>2015-12-06T12:59:14Z</time>
      </trkpt>
      <trkpt lat="44.11813" lon="3.22087">
        <ele>638</ele>
        <time>2015-12-06T12:59:15Z</time>
      </trkpt>
      <trkpt lat="44.11815" lon="3.22087">
        <ele>636</ele>
        <time>2015-12-06T12:59:15Z</time>
      </trkpt>
      <trkpt lat="44.11816" lon="3.22086">
        <ele>634</ele>
        <time>2015-12-06T12:59:16Z</time>
      </trkpt>
      <trkpt lat="44.11817" lon="3.22085">
        <ele>631.5</ele>
        <time>2015-12-06T12:59:17Z</time>
      </trkpt>
      <trkpt lat="44.11819" lon="3.22084">
        <ele>629</ele>
        <time>2015-12-06T12:59:18Z</time>
      </trkpt>
      <trkpt lat="44.1182" lon="3.22084">
        <ele>626</ele>
        <time>2015-12-06T12:59:19Z</time>
      </trkpt>
      <trkpt lat="44.11821" lon="3.22083">
        <ele>624.5</ele>
        <time>2015-12-06T12:59:20Z</time>
      </trkpt>
      <trkpt lat="44.11822" lon="3.22083">
        <ele>622</ele>
        <time>2015-12-06T12:59:21Z</time>
      </trkpt>
      <trkpt lat="44.11823" lon="3.22082">
        <ele>621</ele>
        <time>2015-12-06T12:59:22Z</time>
      </trkpt>
      <trkpt lat="44.11825" lon="3.22082">
        <ele>620.5</ele>
        <time>2015-12-06T12:59:23Z</time>
      </trkpt>
      <trkpt lat="44.11826" lon="3.22082">
        <ele>619.5</ele>
        <time>2015-12-06T12:59:24Z</time>
      </trkpt>
      <trkpt lat="44.11827" lon="3.22081">
        <ele>618.5</ele>
        <time>2015-12-06T12:59:25Z</time>
      </trkpt>
      <trkpt lat="44.11828" lon="3.22081">
        <ele>616.5</ele>
        <time>2015-12-06T12:59:26Z</time>
      </trkpt>
      <trkpt lat="44.1183" lon="3.2208">
        <ele>614.5</ele>
        <time>2015-12-06T12:59:27Z</time>
      </trkpt>
      <trkpt lat="44.11831" lon="3.22079">
        <ele>612.5</ele>
        <time>2015-12-06T12:59:28Z</time>
      </trkpt>
      <trkpt lat="44.11833" lon="3.22078">
        <ele>610.5</ele>
        <time>2015-12-06T12:59:29Z</time>
      </trkpt>
      <trkpt lat="44.11834" lon="3.22078">
        <ele>610</ele>
        <time>2015-12-06T12:59:30Z</time>
      </trkpt>
      <trkpt lat="44.11836" lon="3.22077">
        <ele>610</ele>
        <time>2015-12-06T12:59:31Z</time>
      </trkpt>
      <trkpt lat="44.11837" lon="3.22076">
        <ele>606</ele>
        <time>2015-12-06T12:59:32Z</time>
      </trkpt>
      <trkpt lat="44.11838" lon="3.22075">
        <ele>603</ele>
        <time>2015-12-06T12:59:33Z</time>
      </trkpt>
      <trkpt lat="44.1184" lon="3.22075">
        <ele>602.5</ele>
        <time>2015-12-06T12:59:34Z</time>
      </trkpt>
      <trkpt lat="44.11842" lon="3.22075">
        <ele>601.5</ele>
        <time>2015-12-06T12:59:35Z</time>
      </trkpt>
      <trkpt lat="44.11844" lon="3.22075">
        <ele>601.5</ele>
        <time>2015-12-06T12:59:36Z</time>
      </trkpt>
      <trkpt lat="44.11846" lon="3.22075">
        <ele>601</ele>
        <time>2015-12-06T12:59:37Z</time>
      </trkpt>
      <trkpt lat="44.11848" lon="3.22075">
        <ele>600.5</ele>
        <time>2015-12-06T12:59:38Z</time>
      </trkpt>
      <trkpt lat="44.11849" lon="3.22075">
        <ele>600</ele>
        <time>2015-12-06T12:59:39Z</time>
      </trkpt>
      <trkpt lat="44.11851" lon="3.22076">
        <ele>599.5</ele>
        <time>2015-12-06T12:59:40Z</time>
      </trkpt>
      <trkpt lat="44.11853" lon="3.22076">
        <ele>599.5</ele>
        <time>2015-12-06T12:59:41Z</time>
      </trkpt>
      <trkpt lat="44.11854" lon="3.22077">
        <ele>599</ele>
        <time>2015-12-06T12:59:42Z</time>
      </trkpt>
      <trkpt lat="44.11856" lon="3.22078">
        <ele>597.5</ele>
        <time>2015-12-06T12:59:43Z</time>
      </trkpt>
      <trkpt lat="44.11858" lon="3.22078">
        <ele>596.5</ele>
        <time>2015-12-06T12:59:44Z</time>
      </trkpt>
      <trkpt lat="44.1186" lon="3.22079">
        <ele>595.5</ele>
        <time>2015-12-06T12:59:45Z</time>
      </trkpt>
      <trkpt lat="44.11861" lon="3.2208">
        <ele>594.5</ele>
        <time>2015-12-06T12:59:46Z</time>
      </trkpt>
      <trkpt lat="44.11863" lon="3.22081">
        <ele>594</ele>
        <time>2015-12-06T12:59:47Z</time>
      </trkpt>
      <trkpt lat="44.11865" lon="3.22081">
        <ele>593.5</ele>
        <time>2015-12-06T12:59:48Z</time>
      </trkpt>
      <trkpt lat="44.11867" lon="3.22082">
        <ele>592.5</ele>
        <time>2015-12-06T12:59:49Z</time>
      </trkpt>
      <trkpt lat="44.11868" lon="3.22082">
        <ele>592</ele>
        <time>2015-12-06T12:59:50Z</time>
      </trkpt>
      <trkpt lat="44.1187" lon="3.22082">
        <ele>592</ele>
        <time>2015-12-06T12:59:51Z</time>
      </trkpt>
      <trkpt lat="44.11872" lon="3.22082">
        <ele>591.5</ele>
        <time>2015-12-06T12:59:52Z</time>
      </trkpt>
      <trkpt lat="44.11874" lon="3.2208">
        <ele>591</ele>
        <time>2015-12-06T12:59:53Z</time>
      </trkpt>
      <trkpt lat="44.11876" lon="3.2208">
        <ele>591</ele>
        <time>2015-12-06T12:59:54Z</time>
      </trkpt>
      <trkpt lat="44.11878" lon="3.22079">
        <ele>591</ele>
        <time>2015-12-06T12:59:55Z</time>
      </trkpt>
      <trkpt lat="44.1188" lon="3.22079">
        <ele>590.5</ele>
        <time>2015-12-06T12:59:56Z</time>
      </trkpt>
      <trkpt lat="44.11882" lon="3.22078">
        <ele>590.5</ele>
        <time>2015-12-06T12:59:57Z</time>
      </trkpt>
      <trkpt lat="44.11883" lon="3.22077">
        <ele>590.5</ele>
        <time>2015-12-06T12:59:58Z</time>
      </trkpt>
      <trkpt lat="44.11885" lon="3.22076">
        <ele>590</ele>
        <time>2015-12-06T12:59:59Z</time>
      </trkpt>
      <trkpt lat="44.11887" lon="3.22075">
        <ele>590.5</ele>
        <time>2015-12-06T13:00:00Z</time>
      </trkpt>
      <trkpt lat="44.11889" lon="3.22074">
        <ele>590</ele>
        <time>2015-12-06T13:00:01Z</time>
      </trkpt>
      <trkpt lat="44.11891" lon="3.22073">
        <ele>590.5</ele>
        <time>2015-12-06T13:00:02Z</time>
      </trkpt>
      <trkpt lat="44.11892" lon="3.22071">
        <ele>591</ele>
        <time>2015-12-06T13:00:03Z</time>
      </trkpt>
      <trkpt lat="44.11894" lon="3.2207">
        <ele>592</ele>
        <time>2015-12-06T13:00:04Z</time>
      </trkpt>
      <trkpt lat="44.11896" lon="3.22068">
        <ele>592</ele>
        <time>2015-12-06T13:00:05Z</time>
      </trkpt>
      <trkpt lat="44.11898" lon="3.22067">
        <ele>591.5</ele>
        <time>2015-12-06T13:00:06Z</time>
      </trkpt>
      <trkpt lat="44.119" lon="3.22066">
        <ele>591.5</ele>
        <time>2015-12-06T13:00:07Z</time>
      </trkpt>
      <trkpt lat="44.11901" lon="3.22065">
        <ele>591.5</ele>
        <time>2015-12-06T13:00:08Z</time>
      </trkpt>
      <trkpt lat="44.11903" lon="3.22064">
        <ele>591</ele>
        <time>2015-12-06T13:00:09Z</time>
      </trkpt>
      <trkpt lat="44.11905" lon="3.22063">
        <ele>591.5</ele>
        <time>2015-12-06T13:00:10Z</time>
      </trkpt>
      <trkpt lat="44.11907" lon="3.22062">
        <ele>591</ele>
        <time>2015-12-06T13:00:11Z</time>
      </trkpt>
      <trkpt lat="44.11908" lon="3.22061">
        <ele>590.5</ele>
        <time>2015-12-06T13:00:12Z</time>
      </trkpt>
      <trkpt lat="44.1191" lon="3.2206">
        <ele>590.5</ele>
        <time>2015-12-06T13:00:13Z</time>
      </trkpt>
      <trkpt lat="44.11912" lon="3.22058">
        <ele>590.5</ele>
        <time>2015-12-06T13:00:14Z</time>
      </trkpt>
      <trkpt lat="44.11914" lon="3.22057">
        <ele>591</ele>
        <time>2015-12-06T13:00:15Z</time>
      </trkpt>
      <trkpt lat="44.11916" lon="3.22056">
        <ele>591</ele>
        <time>2015-12-06T13:00:16Z</time>
      </trkpt>
      <trkpt lat="44.11919" lon="3.22056">
        <ele>590.5</ele>
        <time>2015-12-06T13:00:17Z</time>
      </trkpt>
      <trkpt lat="44.1192" lon="3.22055">
        <ele>591</ele>
        <time>2015-12-06T13:00:18Z</time>
      </trkpt>
      <trkpt lat="44.11922" lon="3.22054">
        <ele>591</ele>
        <time>2015-12-06T13:00:19Z</time>
      </trkpt>
      <trkpt lat="44.11924" lon="3.22054">
        <ele>591</ele>
        <time>2015-12-06T13:00:20Z</time>
      </trkpt>
      <trkpt lat="44.11926" lon="3.22054">
        <ele>591.5</ele>
        <time>2015-12-06T13:00:21Z</time>
      </trkpt>
      <trkpt lat="44.11928" lon="3.22054">
        <ele>592</ele>
        <time>2015-12-06T13:00:22Z</time>
      </trkpt>
      <trkpt lat="44.1193" lon="3.22054">
        <ele>592</ele>
        <time>2015-12-06T13:00:23Z</time>
      </trkpt>
      <trkpt lat="44.11932" lon="3.22054">
        <ele>592</ele>
        <time>2015-12-06T13:00:24Z</time>
      </trkpt>
      <trkpt lat="44.11934" lon="3.22055">
        <ele>592</ele>
        <time>2015-12-06T13:00:25Z</time>
      </trkpt>
      <trkpt lat="44.11937" lon="3.22057">
        <ele>591.5</ele>
        <time>2015-12-06T13:00:26Z</time>
      </trkpt>
      <trkpt lat="44.11938" lon="3.2206">
        <ele>592</ele>
        <time>2015-12-06T13:00:27Z</time>
      </trkpt>
      <trkpt lat="44.11931" lon="3.22072">
        <ele>591</ele>
        <time>2015-12-06T13:00:33Z</time>
      </trkpt>
      <trkpt lat="44.11929" lon="3.22072">
        <ele>592</ele>
        <time>2015-12-06T13:00:34Z</time>
      </trkpt>
      <trkpt lat="44.11927" lon="3.22072">
        <ele>593.5</ele>
        <time>2015-12-06T13:00:34Z</time>
      </trkpt>
      <trkpt lat="44.11925" lon="3.22071">
        <ele>596</ele>
        <time>2015-12-06T13:00:35Z</time>
      </trkpt>
      <trkpt lat="44.11925" lon="3.22072">
        <ele>596</ele>
        <time>2015-12-06T13:00:36Z</time>
      </trkpt>
      <trkpt lat="44.11923" lon="3.22071">
        <ele>596</ele>
        <time>2015-12-06T13:00:37Z</time>
      </trkpt>
      <trkpt lat="44.1192" lon="3.22072">
        <ele>597.5</ele>
        <time>2015-12-06T13:00:38Z</time>
      </trkpt>
      <trkpt lat="44.11918" lon="3.22073">
        <ele>597.5</ele>
        <time>2015-12-06T13:00:39Z</time>
      </trkpt>
      <trkpt lat="44.11917" lon="3.22075">
        <ele>596.5</ele>
        <time>2015-12-06T13:00:40Z</time>
      </trkpt>
      <trkpt lat="44.11915" lon="3.22077">
        <ele>595.5</ele>
        <time>2015-12-06T13:00:41Z</time>
      </trkpt>
      <trkpt lat="44.11912" lon="3.22079">
        <ele>595</ele>
        <time>2015-12-06T13:00:42Z</time>
      </trkpt>
      <trkpt lat="44.1191" lon="3.22081">
        <ele>594.5</ele>
        <time>2015-12-06T13:00:43Z</time>
      </trkpt>
      <trkpt lat="44.11909" lon="3.22084">
        <ele>592.5</ele>
        <time>2015-12-06T13:00:44Z</time>
      </trkpt>
      <trkpt lat="44.11906" lon="3.22086">
        <ele>593</ele>
        <time>2015-12-06T13:00:45Z</time>
      </trkpt>
      <trkpt lat="44.11904" lon="3.22088">
        <ele>593.5</ele>
        <time>2015-12-06T13:00:46Z</time>
      </trkpt>
      <trkpt lat="44.11901" lon="3.2209">
        <ele>593.5</ele>
        <time>2015-12-06T13:00:47Z</time>
      </trkpt>
      <trkpt lat="44.11899" lon="3.22093">
        <ele>593.5</ele>
        <time>2015-12-06T13:00:48Z</time>
      </trkpt>
      <trkpt lat="44.11896" lon="3.22095">
        <ele>593</ele>
        <time>2015-12-06T13:00:49Z</time>
      </trkpt>
      <trkpt lat="44.11894" lon="3.22098">
        <ele>592.5</ele>
        <time>2015-12-06T13:00:50Z</time>
      </trkpt>
      <trkpt lat="44.11892" lon="3.22101">
        <ele>592</ele>
        <time>2015-12-06T13:00:51Z</time>
      </trkpt>
      <trkpt lat="44.1189" lon="3.22103">
        <ele>592.5</ele>
        <time>2015-12-06T13:00:52Z</time>
      </trkpt>
      <trkpt lat="44.11887" lon="3.22105">
        <ele>592.5</ele>
        <time>2015-12-06T13:00:53Z</time>
      </trkpt>
      <trkpt lat="44.1189" lon="3.22123">
        <ele>581</ele>
        <time>2015-12-06T13:00:58Z</time>
      </trkpt>
      <trkpt lat="44.11887" lon="3.22128">
        <ele>577</ele>
        <time>2015-12-06T13:01:00Z</time>
      </trkpt>
      <trkpt lat="44.11885" lon="3.22128">
        <ele>577</ele>
        <time>2015-12-06T13:01:00Z</time>
      </trkpt>
      <trkpt lat="44.11893" lon="3.2214">
        <ele>577.5</ele>
        <time>2015-12-06T13:01:04Z</time>
      </trkpt>
      <trkpt lat="44.1189" lon="3.22154">
        <ele>576.5</ele>
        <time>2015-12-06T13:01:05Z</time>
      </trkpt>
      <trkpt lat="44.1189" lon="3.22181">
        <ele>584</ele>
        <time>2015-12-06T13:01:09Z</time>
      </trkpt>
      <trkpt lat="44.11889" lon="3.22184">
        <ele>586</ele>
        <time>2015-12-06T13:01:09Z</time>
      </trkpt>
      <trkpt lat="44.11889" lon="3.22189">
        <ele>588</ele>
        <time>2015-12-06T13:01:10Z</time>
      </trkpt>
      <trkpt lat="44.1189" lon="3.22203">
        <ele>589.5</ele>
        <time>2015-12-06T13:01:12Z</time>
      </trkpt>
      <trkpt lat="44.11896" lon="3.22227">
        <ele>579.5</ele>
        <time>2015-12-06T13:01:16Z</time>
      </trkpt>
      <trkpt lat="44.11896" lon="3.22232">
        <ele>581</ele>
        <time>2015-12-06T13:01:16Z</time>
      </trkpt>
      <trkpt lat="44.11894" lon="3.22238">
        <ele>578.5</ele>
        <time>2015-12-06T13:01:19Z</time>
      </trkpt>
      <trkpt lat="44.11891" lon="3.22239">
        <ele>575</ele>
        <time>2015-12-06T13:01:20Z</time>
      </trkpt>
      <trkpt lat="44.1189" lon="3.22242">
        <ele>572.5</ele>
        <time>2015-12-06T13:01:20Z</time>
      </trkpt>
      <trkpt lat="44.11882" lon="3.22253">
        <ele>573</ele>
        <time>2015-12-06T13:01:26Z</time>
      </trkpt>
      <trkpt lat="44.11883" lon="3.22259">
        <ele>574</ele>
        <time>2015-12-06T13:01:27Z</time>
      </trkpt>
      <trkpt lat="44.11882" lon="3.22266">
        <ele>573.5</ele>
        <time>2015-12-06T13:01:29Z</time>
      </trkpt>
      <trkpt lat="44.11873" lon="3.22273">
        <ele>575</ele>
        <time>2015-12-06T13:01:34Z</time>
      </trkpt>
      <trkpt lat="44.11866" lon="3.22279">
        <ele>573</ele>
        <time>2015-12-06T13:01:38Z</time>
      </trkpt>
      <trkpt lat="44.11862" lon="3.22279">
        <ele>572.5</ele>
        <time>2015-12-06T13:01:38Z</time>
      </trkpt>
      <trkpt lat="44.11855" lon="3.22293">
        <ele>572.5</ele>
        <time>2015-12-06T13:01:43Z</time>
      </trkpt>
      <trkpt lat="44.11854" lon="3.22298">
        <ele>569</ele>
        <time>2015-12-06T13:01:43Z</time>
      </trkpt>
      <trkpt lat="44.11808" lon="3.22307">
        <ele>575.5</ele>
        <time>2015-12-06T13:02:08Z</time>
      </trkpt>
      <trkpt lat="44.11803" lon="3.22303">
        <ele>567.5</ele>
        <time>2015-12-06T13:02:10Z</time>
      </trkpt>
      <trkpt lat="44.118" lon="3.22303">
        <ele>565.5</ele>
        <time>2015-12-06T13:02:11Z</time>
      </trkpt>
      <trkpt lat="44.11796" lon="3.22303">
        <ele>564</ele>
        <time>2015-12-06T13:02:13Z</time>
      </trkpt>
      <trkpt lat="44.11794" lon="3.22303">
        <ele>564</ele>
        <time>2015-12-06T13:02:14Z</time>
      </trkpt>
      <trkpt lat="44.11786" lon="3.22303">
        <ele>560</ele>
        <time>2015-12-06T13:02:15Z</time>
      </trkpt>
      <trkpt lat="44.11758" lon="3.22258">
        <ele>558.5</ele>
        <time>2015-12-06T13:02:40Z</time>
      </trkpt>
      <trkpt lat="44.11781" lon="3.22235">
        <ele>559</ele>
        <time>2015-12-06T13:02:50Z</time>
      </trkpt>
      <trkpt lat="44.11782" lon="3.22182">
        <ele>562</ele>
        <time>2015-12-06T13:02:55Z</time>
      </trkpt>
      <trkpt lat="44.1178" lon="3.2215">
        <ele>558.5</ele>
        <time>2015-12-06T13:02:58Z</time>
      </trkpt>
      <trkpt lat="44.11727" lon="3.22">
        <ele>568.5</ele>
        <time>2015-12-06T13:04:07Z</time>
      </trkpt>
      <trkpt lat="44.11704" lon="3.21984">
        <ele>587</ele>
        <time>2015-12-06T13:04:11Z</time>
      </trkpt>
      <trkpt lat="44.1172" lon="3.21964">
        <ele>597.5</ele>
        <time>2015-12-06T13:04:14Z</time>
      </trkpt>
      <trkpt lat="44.11708" lon="3.21951">
        <ele>618.5</ele>
        <time>2015-12-06T13:04:21Z</time>
      </trkpt>
      <trkpt lat="44.11715" lon="3.21927">
        <ele>621</ele>
        <time>2015-12-06T13:05:08Z</time>
      </trkpt>
      <trkpt lat="44.11657" lon="3.21207">
        <ele>649</ele>
        <time>2015-12-06T13:08:58Z</time>
      </trkpt>
      <trkpt lat="44.11655" lon="3.21172">
        <ele>668</ele>
        <time>2015-12-06T13:09:02Z</time>
      </trkpt>
      <trkpt lat="44.11655" lon="3.21171">
        <ele>669</ele>
        <time>2015-12-06T13:09:03Z</time>
      </trkpt>
      <trkpt lat="44.11656" lon="3.21169">
        <ele>669</ele>
        <time>2015-12-06T13:09:04Z</time>
      </trkpt>
      <trkpt lat="44.11657" lon="3.21167">
        <ele>669.5</ele>
        <time>2015-12-06T13:09:05Z</time>
      </trkpt>
      <trkpt lat="44.11659" lon="3.21164">
        <ele>669.5</ele>
        <time>2015-12-06T13:09:06Z</time>
      </trkpt>
      <trkpt lat="44.11659" lon="3.21162">
        <ele>670</ele>
        <time>2015-12-06T13:09:07Z</time>
      </trkpt>
      <trkpt lat="44.11661" lon="3.2116">
        <ele>670.5</ele>
        <time>2015-12-06T13:09:07Z</time>
      </trkpt>
      <trkpt lat="44.11662" lon="3.21158">
        <ele>671.5</ele>
        <time>2015-12-06T13:09:08Z</time>
      </trkpt>
      <trkpt lat="44.11662" lon="3.21156">
        <ele>671.5</ele>
        <time>2015-12-06T13:09:09Z</time>
      </trkpt>
      <trkpt lat="44.11662" lon="3.21154">
        <ele>671.5</ele>
        <time>2015-12-06T13:09:11Z</time>
      </trkpt>
      <trkpt lat="44.11663" lon="3.21151">
        <ele>673</ele>
        <time>2015-12-06T13:09:12Z</time>
      </trkpt>
      <trkpt lat="44.11664" lon="3.21148">
        <ele>673.5</ele>
        <time>2015-12-06T13:09:12Z</time>
      </trkpt>
      <trkpt lat="44.11664" lon="3.21146">
        <ele>675</ele>
        <time>2015-12-06T13:09:14Z</time>
      </trkpt>
      <trkpt lat="44.11665" lon="3.21143">
        <ele>675.5</ele>
        <time>2015-12-06T13:09:14Z</time>
      </trkpt>
      <trkpt lat="44.11665" lon="3.2114">
        <ele>676.5</ele>
        <time>2015-12-06T13:09:15Z</time>
      </trkpt>
      <trkpt lat="44.11664" lon="3.21139">
        <ele>678</ele>
        <time>2015-12-06T13:09:16Z</time>
      </trkpt>
      <trkpt lat="44.11665" lon="3.21137">
        <ele>677</ele>
        <time>2015-12-06T13:09:17Z</time>
      </trkpt>
      <trkpt lat="44.11663" lon="3.21136">
        <ele>677.5</ele>
        <time>2015-12-06T13:09:18Z</time>
      </trkpt>
      <trkpt lat="44.11662" lon="3.21136">
        <ele>678</ele>
        <time>2015-12-06T13:09:19Z</time>
      </trkpt>
      <trkpt lat="44.1166" lon="3.21137">
        <ele>678.5</ele>
        <time>2015-12-06T13:09:21Z</time>
      </trkpt>
      <trkpt lat="44.11658" lon="3.21139">
        <ele>679</ele>
        <time>2015-12-06T13:09:21Z</time>
      </trkpt>
      <trkpt lat="44.11655" lon="3.2114">
        <ele>679.5</ele>
        <time>2015-12-06T13:09:22Z</time>
      </trkpt>
      <trkpt lat="44.11654" lon="3.21142">
        <ele>679.5</ele>
        <time>2015-12-06T13:09:23Z</time>
      </trkpt>
      <trkpt lat="44.11652" lon="3.21144">
        <ele>679.5</ele>
        <time>2015-12-06T13:09:24Z</time>
      </trkpt>
      <trkpt lat="44.11651" lon="3.21145">
        <ele>680</ele>
        <time>2015-12-06T13:09:25Z</time>
      </trkpt>
      <trkpt lat="44.1165" lon="3.21147">
        <ele>680.5</ele>
        <time>2015-12-06T13:09:27Z</time>
      </trkpt>
      <trkpt lat="44.11649" lon="3.21148">
        <ele>680.5</ele>
        <time>2015-12-06T13:09:27Z</time>
      </trkpt>
      <trkpt lat="44.11647" lon="3.21151">
        <ele>680.5</ele>
        <time>2015-12-06T13:09:28Z</time>
      </trkpt>
      <trkpt lat="44.11647" lon="3.21153">
        <ele>680.5</ele>
        <time>2015-12-06T13:09:30Z</time>
      </trkpt>
      <trkpt lat="44.11646" lon="3.21156">
        <ele>681</ele>
        <time>2015-12-06T13:09:30Z</time>
      </trkpt>
      <trkpt lat="44.11645" lon="3.21158">
        <ele>681.5</ele>
        <time>2015-12-06T13:09:31Z</time>
      </trkpt>
      <trkpt lat="44.11643" lon="3.2116">
        <ele>681.5</ele>
        <time>2015-12-06T13:09:32Z</time>
      </trkpt>
      <trkpt lat="44.11642" lon="3.21162">
        <ele>682</ele>
        <time>2015-12-06T13:09:33Z</time>
      </trkpt>
      <trkpt lat="44.11641" lon="3.21162">
        <ele>682</ele>
        <time>2015-12-06T13:09:34Z</time>
      </trkpt>
      <trkpt lat="44.11639" lon="3.21163">
        <ele>682.5</ele>
        <time>2015-12-06T13:09:35Z</time>
      </trkpt>
      <trkpt lat="44.11638" lon="3.21165">
        <ele>682.5</ele>
        <time>2015-12-06T13:09:36Z</time>
      </trkpt>
      <trkpt lat="44.11636" lon="3.21167">
        <ele>683</ele>
        <time>2015-12-06T13:09:37Z</time>
      </trkpt>
      <trkpt lat="44.11635" lon="3.21169">
        <ele>683</ele>
        <time>2015-12-06T13:09:38Z</time>
      </trkpt>
      <trkpt lat="44.11633" lon="3.2117">
        <ele>683.5</ele>
        <time>2015-12-06T13:09:39Z</time>
      </trkpt>
      <trkpt lat="44.11631" lon="3.21172">
        <ele>683.5</ele>
        <time>2015-12-06T13:09:40Z</time>
      </trkpt>
      <trkpt lat="44.11629" lon="3.21173">
        <ele>683.5</ele>
        <time>2015-12-06T13:09:41Z</time>
      </trkpt>
      <trkpt lat="44.11628" lon="3.21175">
        <ele>683.5</ele>
        <time>2015-12-06T13:09:42Z</time>
      </trkpt>
      <trkpt lat="44.11627" lon="3.21178">
        <ele>684</ele>
        <time>2015-12-06T13:09:43Z</time>
      </trkpt>
      <trkpt lat="44.11626" lon="3.21181">
        <ele>682.5</ele>
        <time>2015-12-06T13:09:44Z</time>
      </trkpt>
      <trkpt lat="44.11625" lon="3.21182">
        <ele>683</ele>
        <time>2015-12-06T13:09:45Z</time>
      </trkpt>
      <trkpt lat="44.11623" lon="3.21184">
        <ele>683</ele>
        <time>2015-12-06T13:09:46Z</time>
      </trkpt>
      <trkpt lat="44.11622" lon="3.21186">
        <ele>683</ele>
        <time>2015-12-06T13:09:47Z</time>
      </trkpt>
      <trkpt lat="44.11619" lon="3.21186">
        <ele>683</ele>
        <time>2015-12-06T13:09:48Z</time>
      </trkpt>
      <trkpt lat="44.11618" lon="3.21188">
        <ele>682.5</ele>
        <time>2015-12-06T13:09:49Z</time>
      </trkpt>
      <trkpt lat="44.11616" lon="3.2119">
        <ele>681.5</ele>
        <time>2015-12-06T13:09:50Z</time>
      </trkpt>
      <trkpt lat="44.11615" lon="3.21192">
        <ele>681</ele>
        <time>2015-12-06T13:09:51Z</time>
      </trkpt>
      <trkpt lat="44.11614" lon="3.21194">
        <ele>681</ele>
        <time>2015-12-06T13:09:52Z</time>
      </trkpt>
      <trkpt lat="44.11612" lon="3.21195">
        <ele>681</ele>
        <time>2015-12-06T13:09:53Z</time>
      </trkpt>
      <trkpt lat="44.11611" lon="3.21197">
        <ele>681.5</ele>
        <time>2015-12-06T13:09:54Z</time>
      </trkpt>
      <trkpt lat="44.11609" lon="3.21199">
        <ele>682</ele>
        <time>2015-12-06T13:09:55Z</time>
      </trkpt>
      <trkpt lat="44.11607" lon="3.21201">
        <ele>682</ele>
        <time>2015-12-06T13:09:57Z</time>
      </trkpt>
      <trkpt lat="44.11606" lon="3.21204">
        <ele>682.5</ele>
        <time>2015-12-06T13:09:57Z</time>
      </trkpt>
      <trkpt lat="44.11605" lon="3.21205">
        <ele>683</ele>
        <time>2015-12-06T13:09:58Z</time>
      </trkpt>
      <trkpt lat="44.11603" lon="3.21206">
        <ele>684</ele>
        <time>2015-12-06T13:09:59Z</time>
      </trkpt>
      <trkpt lat="44.11602" lon="3.21208">
        <ele>684</ele>
        <time>2015-12-06T13:10:00Z</time>
      </trkpt>
      <trkpt lat="44.116" lon="3.21209">
        <ele>685.5</ele>
        <time>2015-12-06T13:10:01Z</time>
      </trkpt>
      <trkpt lat="44.11599" lon="3.21212">
        <ele>684.5</ele>
        <time>2015-12-06T13:10:02Z</time>
      </trkpt>
      <trkpt lat="44.11597" lon="3.21213">
        <ele>685</ele>
        <time>2015-12-06T13:10:03Z</time>
      </trkpt>
      <trkpt lat="44.11596" lon="3.21215">
        <ele>685.5</ele>
        <time>2015-12-06T13:10:04Z</time>
      </trkpt>
      <trkpt lat="44.11595" lon="3.21218">
        <ele>685.5</ele>
        <time>2015-12-06T13:10:05Z</time>
      </trkpt>
      <trkpt lat="44.11594" lon="3.21219">
        <ele>687</ele>
        <time>2015-12-06T13:10:06Z</time>
      </trkpt>
      <trkpt lat="44.11592" lon="3.21221">
        <ele>687.5</ele>
        <time>2015-12-06T13:10:07Z</time>
      </trkpt>
      <trkpt lat="44.11591" lon="3.21223">
        <ele>688</ele>
        <time>2015-12-06T13:10:08Z</time>
      </trkpt>
      <trkpt lat="44.1159" lon="3.21226">
        <ele>688.5</ele>
        <time>2015-12-06T13:10:09Z</time>
      </trkpt>
      <trkpt lat="44.11588" lon="3.21228">
        <ele>688.5</ele>
        <time>2015-12-06T13:10:10Z</time>
      </trkpt>
      <trkpt lat="44.11588" lon="3.21231">
        <ele>688.5</ele>
        <time>2015-12-06T13:10:11Z</time>
      </trkpt>
      <trkpt lat="44.11587" lon="3.21233">
        <ele>689.5</ele>
        <time>2015-12-06T13:10:12Z</time>
      </trkpt>
      <trkpt lat="44.11586" lon="3.21236">
        <ele>690.5</ele>
        <time>2015-12-06T13:10:13Z</time>
      </trkpt>
      <trkpt lat="44.11585" lon="3.21239">
        <ele>691.5</ele>
        <time>2015-12-06T13:10:14Z</time>
      </trkpt>
      <trkpt lat="44.11584" lon="3.21241">
        <ele>691.5</ele>
        <time>2015-12-06T13:10:15Z</time>
      </trkpt>
      <trkpt lat="44.11582" lon="3.21244">
        <ele>691.5</ele>
        <time>2015-12-06T13:10:16Z</time>
      </trkpt>
      <trkpt lat="44.11581" lon="3.21247">
        <ele>691.5</ele>
        <time>2015-12-06T13:10:17Z</time>
      </trkpt>
      <trkpt lat="44.11579" lon="3.21249">
        <ele>691</ele>
        <time>2015-12-06T13:10:18Z</time>
      </trkpt>
      <trkpt lat="44.11578" lon="3.21251">
        <ele>691.5</ele>
        <time>2015-12-06T13:10:19Z</time>
      </trkpt>
      <trkpt lat="44.11576" lon="3.21254">
        <ele>691.5</ele>
        <time>2015-12-06T13:10:20Z</time>
      </trkpt>
      <trkpt lat="44.11575" lon="3.21256">
        <ele>691.5</ele>
        <time>2015-12-06T13:10:21Z</time>
      </trkpt>
      <trkpt lat="44.11573" lon="3.21258">
        <ele>692</ele>
        <time>2015-12-06T13:10:22Z</time>
      </trkpt>
      <trkpt lat="44.11571" lon="3.21261">
        <ele>691.5</ele>
        <time>2015-12-06T13:10:23Z</time>
      </trkpt>
      <trkpt lat="44.1157" lon="3.21262">
        <ele>692</ele>
        <time>2015-12-06T13:10:24Z</time>
      </trkpt>
      <trkpt lat="44.11569" lon="3.21264">
        <ele>692.5</ele>
        <time>2015-12-06T13:10:25Z</time>
      </trkpt>
      <trkpt lat="44.11567" lon="3.21266">
        <ele>693.5</ele>
        <time>2015-12-06T13:10:26Z</time>
      </trkpt>
      <trkpt lat="44.11565" lon="3.21266">
        <ele>693</ele>
        <time>2015-12-06T13:10:27Z</time>
      </trkpt>
      <trkpt lat="44.11563" lon="3.21267">
        <ele>693</ele>
        <time>2015-12-06T13:10:28Z</time>
      </trkpt>
      <trkpt lat="44.11561" lon="3.21269">
        <ele>693</ele>
        <time>2015-12-06T13:10:29Z</time>
      </trkpt>
      <trkpt lat="44.11559" lon="3.2127">
        <ele>693</ele>
        <time>2015-12-06T13:10:30Z</time>
      </trkpt>
      <trkpt lat="44.11556" lon="3.21271">
        <ele>692.5</ele>
        <time>2015-12-06T13:10:31Z</time>
      </trkpt>
      <trkpt lat="44.11555" lon="3.21272">
        <ele>692.5</ele>
        <time>2015-12-06T13:10:32Z</time>
      </trkpt>
      <trkpt lat="44.11553" lon="3.21273">
        <ele>693</ele>
        <time>2015-12-06T13:10:33Z</time>
      </trkpt>
      <trkpt lat="44.11551" lon="3.21274">
        <ele>693</ele>
        <time>2015-12-06T13:10:34Z</time>
      </trkpt>
      <trkpt lat="44.11552" lon="3.21276">
        <ele>693.5</ele>
        <time>2015-12-06T13:10:35Z</time>
      </trkpt>
      <trkpt lat="44.11549" lon="3.21276">
        <ele>693.5</ele>
        <time>2015-12-06T13:10:36Z</time>
      </trkpt>
      <trkpt lat="44.11548" lon="3.21276">
        <ele>693.5</ele>
        <time>2015-12-06T13:10:37Z</time>
      </trkpt>
      <trkpt lat="44.11546" lon="3.21276">
        <ele>695</ele>
        <time>2015-12-06T13:10:38Z</time>
      </trkpt>
      <trkpt lat="44.11545" lon="3.21276">
        <ele>695.5</ele>
        <time>2015-12-06T13:10:39Z</time>
      </trkpt>
      <trkpt lat="44.11544" lon="3.21277">
        <ele>694.5</ele>
        <time>2015-12-06T13:10:40Z</time>
      </trkpt>
      <trkpt lat="44.11544" lon="3.21276">
        <ele>694.5</ele>
        <time>2015-12-06T13:10:41Z</time>
      </trkpt>
      <trkpt lat="44.11544" lon="3.21275">
        <ele>695</ele>
        <time>2015-12-06T13:10:42Z</time>
      </trkpt>
      <trkpt lat="44.11543" lon="3.21274">
        <ele>695</ele>
        <time>2015-12-06T13:10:43Z</time>
      </trkpt>
      <trkpt lat="44.11541" lon="3.21274">
        <ele>695.5</ele>
        <time>2015-12-06T13:10:44Z</time>
      </trkpt>
      <trkpt lat="44.11541" lon="3.21273">
        <ele>695.5</ele>
        <time>2015-12-06T13:10:45Z</time>
      </trkpt>
      <trkpt lat="44.1154" lon="3.21273">
        <ele>695.5</ele>
        <time>2015-12-06T13:10:46Z</time>
      </trkpt>
      <trkpt lat="44.11539" lon="3.21273">
        <ele>695.5</ele>
        <time>2015-12-06T13:10:47Z</time>
      </trkpt>
      <trkpt lat="44.11537" lon="3.21275">
        <ele>696</ele>
        <time>2015-12-06T13:10:48Z</time>
      </trkpt>
      <trkpt lat="44.11537" lon="3.21276">
        <ele>694</ele>
        <time>2015-12-06T13:10:49Z</time>
      </trkpt>
      <trkpt lat="44.11535" lon="3.21276">
        <ele>695.5</ele>
        <time>2015-12-06T13:10:50Z</time>
      </trkpt>
      <trkpt lat="44.11534" lon="3.21277">
        <ele>695.5</ele>
        <time>2015-12-06T13:10:51Z</time>
      </trkpt>
      <trkpt lat="44.11466" lon="3.21389">
        <ele>674</ele>
        <time>2015-12-06T13:11:34Z</time>
      </trkpt>
      <trkpt lat="44.11117" lon="3.21534">
        <ele>706</ele>
        <time>2015-12-06T13:13:50Z</time>
      </trkpt>
      <trkpt lat="44.11076" lon="3.21576">
        <ele>708.5</ele>
        <time>2015-12-06T13:14:07Z</time>
      </trkpt>
      <trkpt lat="44.11044" lon="3.21615">
        <ele>702</ele>
        <time>2015-12-06T13:14:23Z</time>
      </trkpt>
      <trkpt lat="44.1101" lon="3.21628">
        <ele>669.5</ele>
        <time>2015-12-06T13:14:29Z</time>
      </trkpt>
      <trkpt lat="44.11005" lon="3.21644">
        <ele>670</ele>
        <time>2015-12-06T13:14:32Z</time>
      </trkpt>
      <trkpt lat="44.10987" lon="3.21666">
        <ele>671.5</ele>
        <time>2015-12-06T13:14:42Z</time>
      </trkpt>
      <trkpt lat="44.10979" lon="3.21703">
        <ele>661</ele>
        <time>2015-12-06T13:14:46Z</time>
      </trkpt>
      <trkpt lat="44.10975" lon="3.21712">
        <ele>651.5</ele>
        <time>2015-12-06T13:14:47Z</time>
      </trkpt>
      <trkpt lat="44.10968" lon="3.21736">
        <ele>647.5</ele>
        <time>2015-12-06T13:14:52Z</time>
      </trkpt>
      <trkpt lat="44.1096" lon="3.21773">
        <ele>631</ele>
        <time>2015-12-06T13:15:03Z</time>
      </trkpt>
      <trkpt lat="44.10953" lon="3.21786">
        <ele>632.5</ele>
        <time>2015-12-06T13:15:07Z</time>
      </trkpt>
      <trkpt lat="44.10943" lon="3.21803">
        <ele>631.5</ele>
        <time>2015-12-06T13:15:13Z</time>
      </trkpt>
      <trkpt lat="44.10947" lon="3.21807">
        <ele>632.5</ele>
        <time>2015-12-06T13:15:15Z</time>
      </trkpt>
      <trkpt lat="44.10949" lon="3.2182">
        <ele>629.5</ele>
        <time>2015-12-06T13:15:19Z</time>
      </trkpt>
      <trkpt lat="44.10944" lon="3.21826">
        <ele>624.5</ele>
        <time>2015-12-06T13:15:22Z</time>
      </trkpt>
      <trkpt lat="44.10946" lon="3.2183">
        <ele>628.5</ele>
        <time>2015-12-06T13:15:22Z</time>
      </trkpt>
      <trkpt lat="44.1095" lon="3.21834">
        <ele>633</ele>
        <time>2015-12-06T13:15:24Z</time>
      </trkpt>
      <trkpt lat="44.10951" lon="3.21837">
        <ele>630.5</ele>
        <time>2015-12-06T13:15:26Z</time>
      </trkpt>
      <trkpt lat="44.10953" lon="3.2184">
        <ele>627</ele>
        <time>2015-12-06T13:15:26Z</time>
      </trkpt>
      <trkpt lat="44.10955" lon="3.21844">
        <ele>623</ele>
        <time>2015-12-06T13:15:27Z</time>
      </trkpt>
      <trkpt lat="44.10952" lon="3.21851">
        <ele>621</ele>
        <time>2015-12-06T13:15:32Z</time>
      </trkpt>
      <trkpt lat="44.10953" lon="3.21854">
        <ele>621.5</ele>
        <time>2015-12-06T13:15:32Z</time>
      </trkpt>
      <trkpt lat="44.10943" lon="3.21869">
        <ele>619.5</ele>
        <time>2015-12-06T13:15:41Z</time>
      </trkpt>
      <trkpt lat="44.10944" lon="3.21871">
        <ele>620</ele>
        <time>2015-12-06T13:15:42Z</time>
      </trkpt>
      <trkpt lat="44.10946" lon="3.21873">
        <ele>621</ele>
        <time>2015-12-06T13:15:43Z</time>
      </trkpt>
      <trkpt lat="44.10946" lon="3.21876">
        <ele>618</ele>
        <time>2015-12-06T13:15:44Z</time>
      </trkpt>
      <trkpt lat="44.10945" lon="3.21878">
        <ele>617</ele>
        <time>2015-12-06T13:15:44Z</time>
      </trkpt>
      <trkpt lat="44.10945" lon="3.2188">
        <ele>617</ele>
        <time>2015-12-06T13:15:45Z</time>
      </trkpt>
      <trkpt lat="44.10945" lon="3.21883">
        <ele>617.5</ele>
        <time>2015-12-06T13:15:47Z</time>
      </trkpt>
      <trkpt lat="44.10943" lon="3.21887">
        <ele>616</ele>
        <time>2015-12-06T13:15:49Z</time>
      </trkpt>
      <trkpt lat="44.10944" lon="3.21888">
        <ele>615</ele>
        <time>2015-12-06T13:15:50Z</time>
      </trkpt>
      <trkpt lat="44.10944" lon="3.21892">
        <ele>612.5</ele>
        <time>2015-12-06T13:15:51Z</time>
      </trkpt>
      <trkpt lat="44.10944" lon="3.21895">
        <ele>609.5</ele>
        <time>2015-12-06T13:15:51Z</time>
      </trkpt>
      <trkpt lat="44.10943" lon="3.21898">
        <ele>607.5</ele>
        <time>2015-12-06T13:15:52Z</time>
      </trkpt>
      <trkpt lat="44.10943" lon="3.21901">
        <ele>604.5</ele>
        <time>2015-12-06T13:15:53Z</time>
      </trkpt>
      <trkpt lat="44.10884" lon="3.21895">
        <ele>606.5</ele>
        <time>2015-12-06T13:16:14Z</time>
      </trkpt>
      <trkpt lat="44.10877" lon="3.21901">
        <ele>607.5</ele>
        <time>2015-12-06T13:16:16Z</time>
      </trkpt>
      <trkpt lat="44.10875" lon="3.21907">
        <ele>606.5</ele>
        <time>2015-12-06T13:16:17Z</time>
      </trkpt>
      <trkpt lat="44.10875" lon="3.21911">
        <ele>605.5</ele>
        <time>2015-12-06T13:16:18Z</time>
      </trkpt>
      <trkpt lat="44.10876" lon="3.21915">
        <ele>604</ele>
        <time>2015-12-06T13:16:18Z</time>
      </trkpt>
      <trkpt lat="44.10875" lon="3.21917">
        <ele>604</ele>
        <time>2015-12-06T13:16:19Z</time>
      </trkpt>
      <trkpt lat="44.10866" lon="3.21922">
        <ele>602</ele>
        <time>2015-12-06T13:16:24Z</time>
      </trkpt>
      <trkpt lat="44.10828" lon="3.2192">
        <ele>609</ele>
        <time>2015-12-06T13:16:33Z</time>
      </trkpt>
      <trkpt lat="44.1079" lon="3.21918">
        <ele>599.5</ele>
        <time>2015-12-06T13:16:37Z</time>
      </trkpt>
      <trkpt lat="44.10775" lon="3.21924">
        <ele>596.5</ele>
        <time>2015-12-06T13:16:39Z</time>
      </trkpt>
      <trkpt lat="44.10766" lon="3.21927">
        <ele>594</ele>
        <time>2015-12-06T13:16:40Z</time>
      </trkpt>
      <trkpt lat="44.10761" lon="3.21929">
        <ele>594</ele>
        <time>2015-12-06T13:16:43Z</time>
      </trkpt>
      <trkpt lat="44.10751" lon="3.21934">
        <ele>597</ele>
        <time>2015-12-06T13:17:00Z</time>
      </trkpt>
      <trkpt lat="44.10729" lon="3.21943">
        <ele>611.5</ele>
        <time>2015-12-06T13:17:32Z</time>
      </trkpt>
      <trkpt lat="44.10729" lon="3.21942">
        <ele>612.5</ele>
        <time>2015-12-06T13:17:34Z</time>
      </trkpt>
      <trkpt lat="44.10732" lon="3.21942">
        <ele>616</ele>
        <time>2015-12-06T13:17:37Z</time>
      </trkpt>
      <trkpt lat="44.10727" lon="3.21939">
        <ele>623.5</ele>
        <time>2015-12-06T13:17:48Z</time>
      </trkpt>
      <trkpt lat="44.10733" lon="3.21933">
        <ele>614.5</ele>
        <time>2015-12-06T13:18:37Z</time>
      </trkpt>
      <trkpt lat="44.10709" lon="3.21878">
        <ele>659</ele>
        <time>2015-12-06T13:19:44Z</time>
      </trkpt>
    </trkseg>
  </trk>
</gpx>